<?xml version="1.0" encoding="UTF-8" standalone="no" ?>
<gpx xmlns="http://www.topografix.com/GPX/1/1" xmlns:xsi="http://www.w3.org/2001/XMLSchema-instance" xsi:schemaLocation="http://www.topografix.com/GPX/1/1 http://www.topografix.com/GPX/1/1/gpx.xsd" version="1.1" creator="VisuGPX - https://www.visugpx.com">
  <metadata>
    <name>Col de l'iseran from Bourg-Saint-Maurice / Col de l'iseran from Bourg-Saint-Maurice | Strava Ride Segment in Bourg Saint Maurice, RA, France</name>
  </metadata>
  <trk>
    <name><![CDATA[Col de l'iseran from Bourg-Saint-Maurice / Col de l'iseran from Bourg-Saint-Maurice | Strava Ride Segment in Bourg Saint Maurice, RA, France]]></name>
    <trkseg>
      <trkpt lat="45.62253" lon="6.77091">
        <ele>827</ele>
        <time>2021-07-23T08:01:32.285Z</time>
      </trkpt>
      <trkpt lat="45.62253" lon="6.77091">
        <ele>827</ele>
        <time>2021-07-23T08:01:33.285Z</time>
      </trkpt>
      <trkpt lat="45.62252" lon="6.77091">
        <ele>827</ele>
        <time>2021-07-23T08:01:34.285Z</time>
      </trkpt>
      <trkpt lat="45.6225" lon="6.77091">
        <ele>827</ele>
        <time>2021-07-23T08:01:35.285Z</time>
      </trkpt>
      <trkpt lat="45.62246" lon="6.7709">
        <ele>827</ele>
        <time>2021-07-23T08:01:36.285Z</time>
      </trkpt>
      <trkpt lat="45.62242" lon="6.77089">
        <ele>826.8</ele>
        <time>2021-07-23T08:01:37.285Z</time>
      </trkpt>
      <trkpt lat="45.62238" lon="6.77089">
        <ele>826.8</ele>
        <time>2021-07-23T08:01:38.285Z</time>
      </trkpt>
      <trkpt lat="45.62233" lon="6.77088">
        <ele>826.8</ele>
        <time>2021-07-23T08:01:39.285Z</time>
      </trkpt>
      <trkpt lat="45.62227" lon="6.77086">
        <ele>826.8</ele>
        <time>2021-07-23T08:01:40.285Z</time>
      </trkpt>
      <trkpt lat="45.62222" lon="6.77085">
        <ele>826.8</ele>
        <time>2021-07-23T08:01:41.285Z</time>
      </trkpt>
      <trkpt lat="45.62216" lon="6.77083">
        <ele>826.8</ele>
        <time>2021-07-23T08:01:42.285Z</time>
      </trkpt>
      <trkpt lat="45.62209" lon="6.77081">
        <ele>826.8</ele>
        <time>2021-07-23T08:01:43.285Z</time>
      </trkpt>
      <trkpt lat="45.62203" lon="6.77081">
        <ele>826.8</ele>
        <time>2021-07-23T08:01:44.285Z</time>
      </trkpt>
      <trkpt lat="45.62195" lon="6.77081">
        <ele>826.8</ele>
        <time>2021-07-23T08:01:45.285Z</time>
      </trkpt>
      <trkpt lat="45.62188" lon="6.77081">
        <ele>826.8</ele>
        <time>2021-07-23T08:01:46.285Z</time>
      </trkpt>
      <trkpt lat="45.62181" lon="6.77081">
        <ele>826.4</ele>
        <time>2021-07-23T08:01:47.285Z</time>
      </trkpt>
      <trkpt lat="45.62174" lon="6.77082">
        <ele>826</ele>
        <time>2021-07-23T08:01:48.285Z</time>
      </trkpt>
      <trkpt lat="45.62167" lon="6.77082">
        <ele>825.4</ele>
        <time>2021-07-23T08:01:49.285Z</time>
      </trkpt>
      <trkpt lat="45.6216" lon="6.77082">
        <ele>825</ele>
        <time>2021-07-23T08:01:50.285Z</time>
      </trkpt>
      <trkpt lat="45.62152" lon="6.77083">
        <ele>824.6</ele>
        <time>2021-07-23T08:01:51.285Z</time>
      </trkpt>
      <trkpt lat="45.62145" lon="6.77084">
        <ele>824.6</ele>
        <time>2021-07-23T08:01:52.285Z</time>
      </trkpt>
      <trkpt lat="45.62137" lon="6.77084">
        <ele>824.6</ele>
        <time>2021-07-23T08:01:53.285Z</time>
      </trkpt>
      <trkpt lat="45.6213" lon="6.77085">
        <ele>824.6</ele>
        <time>2021-07-23T08:01:54.285Z</time>
      </trkpt>
      <trkpt lat="45.62123" lon="6.77085">
        <ele>824.6</ele>
        <time>2021-07-23T08:01:55.285Z</time>
      </trkpt>
      <trkpt lat="45.62116" lon="6.77086">
        <ele>824</ele>
        <time>2021-07-23T08:01:56.285Z</time>
      </trkpt>
      <trkpt lat="45.62109" lon="6.77086">
        <ele>823.6</ele>
        <time>2021-07-23T08:01:57.285Z</time>
      </trkpt>
      <trkpt lat="45.62102" lon="6.77086">
        <ele>823.2</ele>
        <time>2021-07-23T08:01:58.285Z</time>
      </trkpt>
      <trkpt lat="45.62094" lon="6.77087">
        <ele>822.8</ele>
        <time>2021-07-23T08:01:59.285Z</time>
      </trkpt>
      <trkpt lat="45.62087" lon="6.77087">
        <ele>822.4</ele>
        <time>2021-07-23T08:02:00.285Z</time>
      </trkpt>
      <trkpt lat="45.6208" lon="6.77087">
        <ele>822.4</ele>
        <time>2021-07-23T08:02:01.285Z</time>
      </trkpt>
      <trkpt lat="45.62073" lon="6.77088">
        <ele>822.4</ele>
        <time>2021-07-23T08:02:02.285Z</time>
      </trkpt>
      <trkpt lat="45.62067" lon="6.77089">
        <ele>822.4</ele>
        <time>2021-07-23T08:02:03.285Z</time>
      </trkpt>
      <trkpt lat="45.6206" lon="6.77091">
        <ele>822.4</ele>
        <time>2021-07-23T08:02:04.285Z</time>
      </trkpt>
      <trkpt lat="45.62055" lon="6.77093">
        <ele>822.4</ele>
        <time>2021-07-23T08:02:05.285Z</time>
      </trkpt>
      <trkpt lat="45.6205" lon="6.77094">
        <ele>822.4</ele>
        <time>2021-07-23T08:02:06.285Z</time>
      </trkpt>
      <trkpt lat="45.62047" lon="6.77095">
        <ele>822.4</ele>
        <time>2021-07-23T08:02:07.285Z</time>
      </trkpt>
      <trkpt lat="45.62044" lon="6.77096">
        <ele>822</ele>
        <time>2021-07-23T08:02:08.285Z</time>
      </trkpt>
      <trkpt lat="45.62041" lon="6.77096">
        <ele>821.4</ele>
        <time>2021-07-23T08:02:09.285Z</time>
      </trkpt>
      <trkpt lat="45.62038" lon="6.77095">
        <ele>821</ele>
        <time>2021-07-23T08:02:10.285Z</time>
      </trkpt>
      <trkpt lat="45.62034" lon="6.77096">
        <ele>820.6</ele>
        <time>2021-07-23T08:02:11.285Z</time>
      </trkpt>
      <trkpt lat="45.62029" lon="6.77099">
        <ele>820.2</ele>
        <time>2021-07-23T08:02:12.285Z</time>
      </trkpt>
      <trkpt lat="45.62025" lon="6.77103">
        <ele>820.2</ele>
        <time>2021-07-23T08:02:13.285Z</time>
      </trkpt>
      <trkpt lat="45.62023" lon="6.77109">
        <ele>820.2</ele>
        <time>2021-07-23T08:02:14.285Z</time>
      </trkpt>
      <trkpt lat="45.62023" lon="6.77116">
        <ele>820.2</ele>
        <time>2021-07-23T08:02:15.285Z</time>
      </trkpt>
      <trkpt lat="45.62025" lon="6.77123">
        <ele>820.2</ele>
        <time>2021-07-23T08:02:16.285Z</time>
      </trkpt>
      <trkpt lat="45.62028" lon="6.77129">
        <ele>820.2</ele>
        <time>2021-07-23T08:02:17.285Z</time>
      </trkpt>
      <trkpt lat="45.62033" lon="6.77134">
        <ele>820.2</ele>
        <time>2021-07-23T08:02:18.285Z</time>
      </trkpt>
      <trkpt lat="45.62038" lon="6.7714">
        <ele>820.2</ele>
        <time>2021-07-23T08:02:19.285Z</time>
      </trkpt>
      <trkpt lat="45.62043" lon="6.77147">
        <ele>820.2</ele>
        <time>2021-07-23T08:02:20.285Z</time>
      </trkpt>
      <trkpt lat="45.62048" lon="6.77155">
        <ele>820.2</ele>
        <time>2021-07-23T08:02:21.285Z</time>
      </trkpt>
      <trkpt lat="45.62052" lon="6.77164">
        <ele>820.2</ele>
        <time>2021-07-23T08:02:22.285Z</time>
      </trkpt>
      <trkpt lat="45.62056" lon="6.77173">
        <ele>820.2</ele>
        <time>2021-07-23T08:02:23.285Z</time>
      </trkpt>
      <trkpt lat="45.6206" lon="6.77182">
        <ele>820.2</ele>
        <time>2021-07-23T08:02:24.285Z</time>
      </trkpt>
      <trkpt lat="45.62064" lon="6.77191">
        <ele>820.2</ele>
        <time>2021-07-23T08:02:25.285Z</time>
      </trkpt>
      <trkpt lat="45.62068" lon="6.77199">
        <ele>820.2</ele>
        <time>2021-07-23T08:02:26.285Z</time>
      </trkpt>
      <trkpt lat="45.62071" lon="6.77208">
        <ele>820.2</ele>
        <time>2021-07-23T08:02:27.285Z</time>
      </trkpt>
      <trkpt lat="45.62075" lon="6.77216">
        <ele>820.2</ele>
        <time>2021-07-23T08:02:28.285Z</time>
      </trkpt>
      <trkpt lat="45.62079" lon="6.77225">
        <ele>820.2</ele>
        <time>2021-07-23T08:02:29.285Z</time>
      </trkpt>
      <trkpt lat="45.62082" lon="6.77234">
        <ele>820.2</ele>
        <time>2021-07-23T08:02:30.285Z</time>
      </trkpt>
      <trkpt lat="45.62086" lon="6.77242">
        <ele>819.8</ele>
        <time>2021-07-23T08:02:31.285Z</time>
      </trkpt>
      <trkpt lat="45.62089" lon="6.7725">
        <ele>819.4</ele>
        <time>2021-07-23T08:02:32.285Z</time>
      </trkpt>
      <trkpt lat="45.62092" lon="6.77258">
        <ele>819</ele>
        <time>2021-07-23T08:02:33.285Z</time>
      </trkpt>
      <trkpt lat="45.62095" lon="6.77265">
        <ele>818.6</ele>
        <time>2021-07-23T08:02:34.285Z</time>
      </trkpt>
      <trkpt lat="45.62098" lon="6.77273">
        <ele>818.2</ele>
        <time>2021-07-23T08:02:35.285Z</time>
      </trkpt>
      <trkpt lat="45.62102" lon="6.77281">
        <ele>818.2</ele>
        <time>2021-07-23T08:02:36.285Z</time>
      </trkpt>
      <trkpt lat="45.62105" lon="6.77288">
        <ele>818.2</ele>
        <time>2021-07-23T08:02:37.285Z</time>
      </trkpt>
      <trkpt lat="45.62108" lon="6.77296">
        <ele>818.2</ele>
        <time>2021-07-23T08:02:38.285Z</time>
      </trkpt>
      <trkpt lat="45.62111" lon="6.77303">
        <ele>818.2</ele>
        <time>2021-07-23T08:02:39.285Z</time>
      </trkpt>
      <trkpt lat="45.62114" lon="6.77311">
        <ele>818.2</ele>
        <time>2021-07-23T08:02:40.285Z</time>
      </trkpt>
      <trkpt lat="45.62118" lon="6.77319">
        <ele>818.2</ele>
        <time>2021-07-23T08:02:41.285Z</time>
      </trkpt>
      <trkpt lat="45.62121" lon="6.77328">
        <ele>818.2</ele>
        <time>2021-07-23T08:02:42.285Z</time>
      </trkpt>
      <trkpt lat="45.62124" lon="6.77336">
        <ele>818.2</ele>
        <time>2021-07-23T08:02:43.285Z</time>
      </trkpt>
      <trkpt lat="45.62128" lon="6.77344">
        <ele>818.2</ele>
        <time>2021-07-23T08:02:44.285Z</time>
      </trkpt>
      <trkpt lat="45.62131" lon="6.77352">
        <ele>818.2</ele>
        <time>2021-07-23T08:02:45.285Z</time>
      </trkpt>
      <trkpt lat="45.62135" lon="6.7736">
        <ele>818.2</ele>
        <time>2021-07-23T08:02:46.285Z</time>
      </trkpt>
      <trkpt lat="45.62138" lon="6.77369">
        <ele>817.8</ele>
        <time>2021-07-23T08:02:47.285Z</time>
      </trkpt>
      <trkpt lat="45.62141" lon="6.77377">
        <ele>817.2</ele>
        <time>2021-07-23T08:02:48.285Z</time>
      </trkpt>
      <trkpt lat="45.62144" lon="6.77385">
        <ele>816.8</ele>
        <time>2021-07-23T08:02:49.285Z</time>
      </trkpt>
      <trkpt lat="45.62147" lon="6.77393">
        <ele>816.2</ele>
        <time>2021-07-23T08:02:50.285Z</time>
      </trkpt>
      <trkpt lat="45.6215" lon="6.77402">
        <ele>815.8</ele>
        <time>2021-07-23T08:02:51.285Z</time>
      </trkpt>
      <trkpt lat="45.62153" lon="6.7741">
        <ele>815.8</ele>
        <time>2021-07-23T08:02:52.285Z</time>
      </trkpt>
      <trkpt lat="45.62156" lon="6.77418">
        <ele>815.8</ele>
        <time>2021-07-23T08:02:53.285Z</time>
      </trkpt>
      <trkpt lat="45.6216" lon="6.77426">
        <ele>815.8</ele>
        <time>2021-07-23T08:02:54.285Z</time>
      </trkpt>
      <trkpt lat="45.62163" lon="6.77434">
        <ele>815.8</ele>
        <time>2021-07-23T08:02:55.285Z</time>
      </trkpt>
      <trkpt lat="45.62166" lon="6.77441">
        <ele>815.8</ele>
        <time>2021-07-23T08:02:56.285Z</time>
      </trkpt>
      <trkpt lat="45.62172" lon="6.77456">
        <ele>815.8</ele>
        <time>2021-07-23T08:02:57.285Z</time>
      </trkpt>
      <trkpt lat="45.62173" lon="6.77459">
        <ele>815.8</ele>
        <time>2021-07-23T08:02:58.285Z</time>
      </trkpt>
      <trkpt lat="45.62175" lon="6.77463">
        <ele>815.8</ele>
        <time>2021-07-23T08:02:59.285Z</time>
      </trkpt>
      <trkpt lat="45.62178" lon="6.7747">
        <ele>815.8</ele>
        <time>2021-07-23T08:03:00.285Z</time>
      </trkpt>
      <trkpt lat="45.6218" lon="6.77477">
        <ele>815.8</ele>
        <time>2021-07-23T08:03:01.285Z</time>
      </trkpt>
      <trkpt lat="45.62183" lon="6.77483">
        <ele>815.8</ele>
        <time>2021-07-23T08:03:02.285Z</time>
      </trkpt>
      <trkpt lat="45.62185" lon="6.77487">
        <ele>815.8</ele>
        <time>2021-07-23T08:03:03.285Z</time>
      </trkpt>
      <trkpt lat="45.62187" lon="6.77492">
        <ele>815.8</ele>
        <time>2021-07-23T08:03:04.285Z</time>
      </trkpt>
      <trkpt lat="45.62189" lon="6.77496">
        <ele>815.8</ele>
        <time>2021-07-23T08:03:05.285Z</time>
      </trkpt>
      <trkpt lat="45.62191" lon="6.775">
        <ele>815.8</ele>
        <time>2021-07-23T08:03:06.285Z</time>
      </trkpt>
      <trkpt lat="45.62192" lon="6.77503">
        <ele>815.8</ele>
        <time>2021-07-23T08:03:07.285Z</time>
      </trkpt>
      <trkpt lat="45.62193" lon="6.77506">
        <ele>815.8</ele>
        <time>2021-07-23T08:03:08.285Z</time>
      </trkpt>
      <trkpt lat="45.62194" lon="6.77508">
        <ele>815.8</ele>
        <time>2021-07-23T08:03:09.285Z</time>
      </trkpt>
      <trkpt lat="45.62194" lon="6.7751">
        <ele>815.8</ele>
        <time>2021-07-23T08:03:10.285Z</time>
      </trkpt>
      <trkpt lat="45.62194" lon="6.7751">
        <ele>815.8</ele>
        <time>2021-07-23T08:03:11.285Z</time>
      </trkpt>
      <trkpt lat="45.62195" lon="6.77512">
        <ele>815.8</ele>
        <time>2021-07-23T08:03:12.285Z</time>
      </trkpt>
      <trkpt lat="45.62196" lon="6.77516">
        <ele>815.8</ele>
        <time>2021-07-23T08:03:13.285Z</time>
      </trkpt>
      <trkpt lat="45.62198" lon="6.7752">
        <ele>815.8</ele>
        <time>2021-07-23T08:03:14.285Z</time>
      </trkpt>
      <trkpt lat="45.62201" lon="6.77526">
        <ele>815.8</ele>
        <time>2021-07-23T08:03:15.285Z</time>
      </trkpt>
      <trkpt lat="45.62203" lon="6.77532">
        <ele>815.8</ele>
        <time>2021-07-23T08:03:16.285Z</time>
      </trkpt>
      <trkpt lat="45.62206" lon="6.77539">
        <ele>815.8</ele>
        <time>2021-07-23T08:03:17.285Z</time>
      </trkpt>
      <trkpt lat="45.62209" lon="6.77545">
        <ele>815.8</ele>
        <time>2021-07-23T08:03:18.285Z</time>
      </trkpt>
      <trkpt lat="45.62212" lon="6.77552">
        <ele>815.4</ele>
        <time>2021-07-23T08:03:19.285Z</time>
      </trkpt>
      <trkpt lat="45.62215" lon="6.77559">
        <ele>815</ele>
        <time>2021-07-23T08:03:20.285Z</time>
      </trkpt>
      <trkpt lat="45.62218" lon="6.77566">
        <ele>814.6</ele>
        <time>2021-07-23T08:03:21.285Z</time>
      </trkpt>
      <trkpt lat="45.62222" lon="6.77573">
        <ele>814</ele>
        <time>2021-07-23T08:03:22.285Z</time>
      </trkpt>
      <trkpt lat="45.62225" lon="6.77579">
        <ele>813.6</ele>
        <time>2021-07-23T08:03:23.285Z</time>
      </trkpt>
      <trkpt lat="45.62228" lon="6.77586">
        <ele>813.6</ele>
        <time>2021-07-23T08:03:24.285Z</time>
      </trkpt>
      <trkpt lat="45.62231" lon="6.77593">
        <ele>813.6</ele>
        <time>2021-07-23T08:03:25.285Z</time>
      </trkpt>
      <trkpt lat="45.62234" lon="6.77599">
        <ele>813.6</ele>
        <time>2021-07-23T08:03:26.285Z</time>
      </trkpt>
      <trkpt lat="45.62237" lon="6.77606">
        <ele>813.6</ele>
        <time>2021-07-23T08:03:27.285Z</time>
      </trkpt>
      <trkpt lat="45.62241" lon="6.77613">
        <ele>813.6</ele>
        <time>2021-07-23T08:03:28.285Z</time>
      </trkpt>
      <trkpt lat="45.62244" lon="6.77621">
        <ele>813.6</ele>
        <time>2021-07-23T08:03:29.285Z</time>
      </trkpt>
      <trkpt lat="45.62247" lon="6.77628">
        <ele>813.6</ele>
        <time>2021-07-23T08:03:30.285Z</time>
      </trkpt>
      <trkpt lat="45.6225" lon="6.77635">
        <ele>813.6</ele>
        <time>2021-07-23T08:03:31.285Z</time>
      </trkpt>
      <trkpt lat="45.62253" lon="6.77641">
        <ele>813.6</ele>
        <time>2021-07-23T08:03:32.285Z</time>
      </trkpt>
      <trkpt lat="45.62256" lon="6.77648">
        <ele>813.6</ele>
        <time>2021-07-23T08:03:33.285Z</time>
      </trkpt>
      <trkpt lat="45.62259" lon="6.77655">
        <ele>813.6</ele>
        <time>2021-07-23T08:03:34.285Z</time>
      </trkpt>
      <trkpt lat="45.62262" lon="6.77661">
        <ele>813.6</ele>
        <time>2021-07-23T08:03:35.285Z</time>
      </trkpt>
      <trkpt lat="45.62265" lon="6.77668">
        <ele>813.6</ele>
        <time>2021-07-23T08:03:36.285Z</time>
      </trkpt>
      <trkpt lat="45.62268" lon="6.77675">
        <ele>813.6</ele>
        <time>2021-07-23T08:03:37.285Z</time>
      </trkpt>
      <trkpt lat="45.62271" lon="6.77682">
        <ele>813.6</ele>
        <time>2021-07-23T08:03:38.285Z</time>
      </trkpt>
      <trkpt lat="45.62275" lon="6.77688">
        <ele>813.6</ele>
        <time>2021-07-23T08:03:39.285Z</time>
      </trkpt>
      <trkpt lat="45.62278" lon="6.77695">
        <ele>813.6</ele>
        <time>2021-07-23T08:03:40.285Z</time>
      </trkpt>
      <trkpt lat="45.62281" lon="6.77702">
        <ele>813.6</ele>
        <time>2021-07-23T08:03:41.285Z</time>
      </trkpt>
      <trkpt lat="45.62284" lon="6.77708">
        <ele>813.6</ele>
        <time>2021-07-23T08:03:42.285Z</time>
      </trkpt>
      <trkpt lat="45.62288" lon="6.77715">
        <ele>813.6</ele>
        <time>2021-07-23T08:03:43.285Z</time>
      </trkpt>
      <trkpt lat="45.62291" lon="6.77723">
        <ele>813.6</ele>
        <time>2021-07-23T08:03:44.285Z</time>
      </trkpt>
      <trkpt lat="45.62294" lon="6.77729">
        <ele>813.6</ele>
        <time>2021-07-23T08:03:45.285Z</time>
      </trkpt>
      <trkpt lat="45.62297" lon="6.77736">
        <ele>813.6</ele>
        <time>2021-07-23T08:03:46.285Z</time>
      </trkpt>
      <trkpt lat="45.623" lon="6.77744">
        <ele>813.6</ele>
        <time>2021-07-23T08:03:47.285Z</time>
      </trkpt>
      <trkpt lat="45.62303" lon="6.77751">
        <ele>813.6</ele>
        <time>2021-07-23T08:03:48.285Z</time>
      </trkpt>
      <trkpt lat="45.62306" lon="6.77758">
        <ele>813.6</ele>
        <time>2021-07-23T08:03:49.285Z</time>
      </trkpt>
      <trkpt lat="45.62309" lon="6.77766">
        <ele>813.6</ele>
        <time>2021-07-23T08:03:50.285Z</time>
      </trkpt>
      <trkpt lat="45.62312" lon="6.77773">
        <ele>814</ele>
        <time>2021-07-23T08:03:51.285Z</time>
      </trkpt>
      <trkpt lat="45.62315" lon="6.77782">
        <ele>814.4</ele>
        <time>2021-07-23T08:03:52.285Z</time>
      </trkpt>
      <trkpt lat="45.62318" lon="6.7779">
        <ele>814.8</ele>
        <time>2021-07-23T08:03:53.285Z</time>
      </trkpt>
      <trkpt lat="45.62322" lon="6.77798">
        <ele>815.2</ele>
        <time>2021-07-23T08:03:54.285Z</time>
      </trkpt>
      <trkpt lat="45.62325" lon="6.77807">
        <ele>815.6</ele>
        <time>2021-07-23T08:03:55.285Z</time>
      </trkpt>
      <trkpt lat="45.62328" lon="6.77815">
        <ele>815.6</ele>
        <time>2021-07-23T08:03:56.285Z</time>
      </trkpt>
      <trkpt lat="45.6233" lon="6.77825">
        <ele>815.6</ele>
        <time>2021-07-23T08:03:57.285Z</time>
      </trkpt>
      <trkpt lat="45.62331" lon="6.77834">
        <ele>815.6</ele>
        <time>2021-07-23T08:03:58.285Z</time>
      </trkpt>
      <trkpt lat="45.62333" lon="6.77843">
        <ele>815.6</ele>
        <time>2021-07-23T08:03:59.285Z</time>
      </trkpt>
      <trkpt lat="45.62336" lon="6.7785">
        <ele>815.6</ele>
        <time>2021-07-23T08:04:00.285Z</time>
      </trkpt>
      <trkpt lat="45.62341" lon="6.77856">
        <ele>815.6</ele>
        <time>2021-07-23T08:04:01.285Z</time>
      </trkpt>
      <trkpt lat="45.62346" lon="6.77859">
        <ele>815.6</ele>
        <time>2021-07-23T08:04:02.285Z</time>
      </trkpt>
      <trkpt lat="45.62352" lon="6.7786">
        <ele>815.6</ele>
        <time>2021-07-23T08:04:03.285Z</time>
      </trkpt>
      <trkpt lat="45.62359" lon="6.7786">
        <ele>815.6</ele>
        <time>2021-07-23T08:04:04.285Z</time>
      </trkpt>
      <trkpt lat="45.62366" lon="6.77859">
        <ele>815.6</ele>
        <time>2021-07-23T08:04:05.285Z</time>
      </trkpt>
      <trkpt lat="45.62372" lon="6.77861">
        <ele>815.6</ele>
        <time>2021-07-23T08:04:06.285Z</time>
      </trkpt>
      <trkpt lat="45.62379" lon="6.77864">
        <ele>815.6</ele>
        <time>2021-07-23T08:04:07.285Z</time>
      </trkpt>
      <trkpt lat="45.62384" lon="6.77869">
        <ele>815.6</ele>
        <time>2021-07-23T08:04:08.285Z</time>
      </trkpt>
      <trkpt lat="45.62389" lon="6.77873">
        <ele>815.6</ele>
        <time>2021-07-23T08:04:09.285Z</time>
      </trkpt>
      <trkpt lat="45.62394" lon="6.77879">
        <ele>815.6</ele>
        <time>2021-07-23T08:04:10.285Z</time>
      </trkpt>
      <trkpt lat="45.62399" lon="6.77884">
        <ele>815.6</ele>
        <time>2021-07-23T08:04:11.285Z</time>
      </trkpt>
      <trkpt lat="45.62404" lon="6.7789">
        <ele>815.6</ele>
        <time>2021-07-23T08:04:12.285Z</time>
      </trkpt>
      <trkpt lat="45.62408" lon="6.77896">
        <ele>816.2</ele>
        <time>2021-07-23T08:04:13.285Z</time>
      </trkpt>
      <trkpt lat="45.62413" lon="6.77901">
        <ele>816.6</ele>
        <time>2021-07-23T08:04:14.285Z</time>
      </trkpt>
      <trkpt lat="45.62417" lon="6.77907">
        <ele>817</ele>
        <time>2021-07-23T08:04:15.285Z</time>
      </trkpt>
      <trkpt lat="45.62421" lon="6.77912">
        <ele>817.4</ele>
        <time>2021-07-23T08:04:16.285Z</time>
      </trkpt>
      <trkpt lat="45.62426" lon="6.77917">
        <ele>817.8</ele>
        <time>2021-07-23T08:04:17.285Z</time>
      </trkpt>
      <trkpt lat="45.6243" lon="6.77922">
        <ele>817.8</ele>
        <time>2021-07-23T08:04:18.285Z</time>
      </trkpt>
      <trkpt lat="45.62435" lon="6.77927">
        <ele>817.8</ele>
        <time>2021-07-23T08:04:19.285Z</time>
      </trkpt>
      <trkpt lat="45.62439" lon="6.77933">
        <ele>817.8</ele>
        <time>2021-07-23T08:04:20.285Z</time>
      </trkpt>
      <trkpt lat="45.62443" lon="6.77938">
        <ele>817.8</ele>
        <time>2021-07-23T08:04:21.285Z</time>
      </trkpt>
      <trkpt lat="45.62448" lon="6.77943">
        <ele>817.8</ele>
        <time>2021-07-23T08:04:22.285Z</time>
      </trkpt>
      <trkpt lat="45.62452" lon="6.77948">
        <ele>817.8</ele>
        <time>2021-07-23T08:04:23.285Z</time>
      </trkpt>
      <trkpt lat="45.62456" lon="6.77953">
        <ele>817.8</ele>
        <time>2021-07-23T08:04:24.285Z</time>
      </trkpt>
      <trkpt lat="45.6246" lon="6.77959">
        <ele>817.8</ele>
        <time>2021-07-23T08:04:25.285Z</time>
      </trkpt>
      <trkpt lat="45.62463" lon="6.77964">
        <ele>817.8</ele>
        <time>2021-07-23T08:04:26.285Z</time>
      </trkpt>
      <trkpt lat="45.62468" lon="6.77969">
        <ele>818.2</ele>
        <time>2021-07-23T08:04:27.285Z</time>
      </trkpt>
      <trkpt lat="45.62472" lon="6.77973">
        <ele>818.6</ele>
        <time>2021-07-23T08:04:28.285Z</time>
      </trkpt>
      <trkpt lat="45.62476" lon="6.77979">
        <ele>819</ele>
        <time>2021-07-23T08:04:29.285Z</time>
      </trkpt>
      <trkpt lat="45.6248" lon="6.77984">
        <ele>819.6</ele>
        <time>2021-07-23T08:04:30.285Z</time>
      </trkpt>
      <trkpt lat="45.62484" lon="6.77988">
        <ele>820</ele>
        <time>2021-07-23T08:04:31.285Z</time>
      </trkpt>
      <trkpt lat="45.62488" lon="6.77993">
        <ele>820</ele>
        <time>2021-07-23T08:04:32.285Z</time>
      </trkpt>
      <trkpt lat="45.62492" lon="6.77999">
        <ele>820</ele>
        <time>2021-07-23T08:04:33.285Z</time>
      </trkpt>
      <trkpt lat="45.62496" lon="6.78004">
        <ele>820</ele>
        <time>2021-07-23T08:04:34.285Z</time>
      </trkpt>
      <trkpt lat="45.625" lon="6.7801">
        <ele>820</ele>
        <time>2021-07-23T08:04:35.285Z</time>
      </trkpt>
      <trkpt lat="45.62504" lon="6.78017">
        <ele>820</ele>
        <time>2021-07-23T08:04:36.285Z</time>
      </trkpt>
      <trkpt lat="45.62507" lon="6.78023">
        <ele>820</ele>
        <time>2021-07-23T08:04:37.285Z</time>
      </trkpt>
      <trkpt lat="45.62511" lon="6.7803">
        <ele>820</ele>
        <time>2021-07-23T08:04:38.285Z</time>
      </trkpt>
      <trkpt lat="45.62514" lon="6.78036">
        <ele>820</ele>
        <time>2021-07-23T08:04:39.285Z</time>
      </trkpt>
      <trkpt lat="45.62517" lon="6.78042">
        <ele>820</ele>
        <time>2021-07-23T08:04:40.285Z</time>
      </trkpt>
      <trkpt lat="45.6252" lon="6.78048">
        <ele>820</ele>
        <time>2021-07-23T08:04:41.285Z</time>
      </trkpt>
      <trkpt lat="45.62523" lon="6.78055">
        <ele>820.4</ele>
        <time>2021-07-23T08:04:42.285Z</time>
      </trkpt>
      <trkpt lat="45.62526" lon="6.78062">
        <ele>820.8</ele>
        <time>2021-07-23T08:04:43.285Z</time>
      </trkpt>
      <trkpt lat="45.62529" lon="6.78069">
        <ele>821.2</ele>
        <time>2021-07-23T08:04:44.285Z</time>
      </trkpt>
      <trkpt lat="45.62531" lon="6.78075">
        <ele>821.6</ele>
        <time>2021-07-23T08:04:45.285Z</time>
      </trkpt>
      <trkpt lat="45.62534" lon="6.78082">
        <ele>822</ele>
        <time>2021-07-23T08:04:46.285Z</time>
      </trkpt>
      <trkpt lat="45.62536" lon="6.78088">
        <ele>822</ele>
        <time>2021-07-23T08:04:47.285Z</time>
      </trkpt>
      <trkpt lat="45.62538" lon="6.78095">
        <ele>822</ele>
        <time>2021-07-23T08:04:48.285Z</time>
      </trkpt>
      <trkpt lat="45.62541" lon="6.78102">
        <ele>822</ele>
        <time>2021-07-23T08:04:49.285Z</time>
      </trkpt>
      <trkpt lat="45.62543" lon="6.78108">
        <ele>822</ele>
        <time>2021-07-23T08:04:50.285Z</time>
      </trkpt>
      <trkpt lat="45.62545" lon="6.78115">
        <ele>822</ele>
        <time>2021-07-23T08:04:51.285Z</time>
      </trkpt>
      <trkpt lat="45.62547" lon="6.78122">
        <ele>822</ele>
        <time>2021-07-23T08:04:52.285Z</time>
      </trkpt>
      <trkpt lat="45.62549" lon="6.78128">
        <ele>822.4</ele>
        <time>2021-07-23T08:04:53.285Z</time>
      </trkpt>
      <trkpt lat="45.62552" lon="6.78135">
        <ele>823</ele>
        <time>2021-07-23T08:04:54.285Z</time>
      </trkpt>
      <trkpt lat="45.62554" lon="6.78141">
        <ele>823.4</ele>
        <time>2021-07-23T08:04:55.285Z</time>
      </trkpt>
      <trkpt lat="45.62556" lon="6.78148">
        <ele>823.8</ele>
        <time>2021-07-23T08:04:56.285Z</time>
      </trkpt>
      <trkpt lat="45.62557" lon="6.78155">
        <ele>824.2</ele>
        <time>2021-07-23T08:04:57.285Z</time>
      </trkpt>
      <trkpt lat="45.62559" lon="6.78163">
        <ele>824.2</ele>
        <time>2021-07-23T08:04:58.285Z</time>
      </trkpt>
      <trkpt lat="45.62561" lon="6.7817">
        <ele>824.2</ele>
        <time>2021-07-23T08:04:59.285Z</time>
      </trkpt>
      <trkpt lat="45.62562" lon="6.78178">
        <ele>824.2</ele>
        <time>2021-07-23T08:05:00.285Z</time>
      </trkpt>
      <trkpt lat="45.62563" lon="6.78185">
        <ele>824.2</ele>
        <time>2021-07-23T08:05:01.285Z</time>
      </trkpt>
      <trkpt lat="45.62564" lon="6.78193">
        <ele>824.2</ele>
        <time>2021-07-23T08:05:02.285Z</time>
      </trkpt>
      <trkpt lat="45.62566" lon="6.782">
        <ele>824.2</ele>
        <time>2021-07-23T08:05:03.285Z</time>
      </trkpt>
      <trkpt lat="45.62566" lon="6.78207">
        <ele>824.2</ele>
        <time>2021-07-23T08:05:04.285Z</time>
      </trkpt>
      <trkpt lat="45.62567" lon="6.78215">
        <ele>824.2</ele>
        <time>2021-07-23T08:05:05.285Z</time>
      </trkpt>
      <trkpt lat="45.62567" lon="6.78222">
        <ele>824.2</ele>
        <time>2021-07-23T08:05:06.285Z</time>
      </trkpt>
      <trkpt lat="45.62567" lon="6.7823">
        <ele>824.6</ele>
        <time>2021-07-23T08:05:07.285Z</time>
      </trkpt>
      <trkpt lat="45.62567" lon="6.78238">
        <ele>825</ele>
        <time>2021-07-23T08:05:08.285Z</time>
      </trkpt>
      <trkpt lat="45.62566" lon="6.78245">
        <ele>825.4</ele>
        <time>2021-07-23T08:05:09.285Z</time>
      </trkpt>
      <trkpt lat="45.62566" lon="6.78252">
        <ele>825.8</ele>
        <time>2021-07-23T08:05:10.285Z</time>
      </trkpt>
      <trkpt lat="45.62565" lon="6.78259">
        <ele>826.4</ele>
        <time>2021-07-23T08:05:11.285Z</time>
      </trkpt>
      <trkpt lat="45.62565" lon="6.78266">
        <ele>826.4</ele>
        <time>2021-07-23T08:05:12.285Z</time>
      </trkpt>
      <trkpt lat="45.62564" lon="6.78273">
        <ele>826.4</ele>
        <time>2021-07-23T08:05:13.285Z</time>
      </trkpt>
      <trkpt lat="45.62564" lon="6.7828">
        <ele>826.4</ele>
        <time>2021-07-23T08:05:14.285Z</time>
      </trkpt>
      <trkpt lat="45.62563" lon="6.78287">
        <ele>826.8</ele>
        <time>2021-07-23T08:05:15.285Z</time>
      </trkpt>
      <trkpt lat="45.62563" lon="6.78294">
        <ele>827.2</ele>
        <time>2021-07-23T08:05:16.285Z</time>
      </trkpt>
      <trkpt lat="45.62563" lon="6.783">
        <ele>827.6</ele>
        <time>2021-07-23T08:05:17.285Z</time>
      </trkpt>
      <trkpt lat="45.62564" lon="6.78307">
        <ele>828</ele>
        <time>2021-07-23T08:05:18.285Z</time>
      </trkpt>
      <trkpt lat="45.62564" lon="6.78314">
        <ele>828.6</ele>
        <time>2021-07-23T08:05:19.285Z</time>
      </trkpt>
      <trkpt lat="45.62566" lon="6.78321">
        <ele>828.6</ele>
        <time>2021-07-23T08:05:20.285Z</time>
      </trkpt>
      <trkpt lat="45.62567" lon="6.78328">
        <ele>828.6</ele>
        <time>2021-07-23T08:05:21.285Z</time>
      </trkpt>
      <trkpt lat="45.62568" lon="6.78334">
        <ele>828.6</ele>
        <time>2021-07-23T08:05:22.285Z</time>
      </trkpt>
      <trkpt lat="45.62569" lon="6.78341">
        <ele>828.6</ele>
        <time>2021-07-23T08:05:23.285Z</time>
      </trkpt>
      <trkpt lat="45.62571" lon="6.78348">
        <ele>828.6</ele>
        <time>2021-07-23T08:05:24.285Z</time>
      </trkpt>
      <trkpt lat="45.62572" lon="6.78354">
        <ele>828.6</ele>
        <time>2021-07-23T08:05:25.285Z</time>
      </trkpt>
      <trkpt lat="45.62574" lon="6.7836">
        <ele>828.6</ele>
        <time>2021-07-23T08:05:26.285Z</time>
      </trkpt>
      <trkpt lat="45.62576" lon="6.78366">
        <ele>828.6</ele>
        <time>2021-07-23T08:05:27.285Z</time>
      </trkpt>
      <trkpt lat="45.62578" lon="6.78373">
        <ele>829</ele>
        <time>2021-07-23T08:05:28.285Z</time>
      </trkpt>
      <trkpt lat="45.6258" lon="6.78379">
        <ele>829.4</ele>
        <time>2021-07-23T08:05:29.285Z</time>
      </trkpt>
      <trkpt lat="45.62581" lon="6.78385">
        <ele>829.8</ele>
        <time>2021-07-23T08:05:30.285Z</time>
      </trkpt>
      <trkpt lat="45.62583" lon="6.78391">
        <ele>830.2</ele>
        <time>2021-07-23T08:05:31.285Z</time>
      </trkpt>
      <trkpt lat="45.62585" lon="6.78398">
        <ele>830.6</ele>
        <time>2021-07-23T08:05:32.285Z</time>
      </trkpt>
      <trkpt lat="45.62587" lon="6.78404">
        <ele>830.6</ele>
        <time>2021-07-23T08:05:33.285Z</time>
      </trkpt>
      <trkpt lat="45.62589" lon="6.78411">
        <ele>830.6</ele>
        <time>2021-07-23T08:05:34.285Z</time>
      </trkpt>
      <trkpt lat="45.62591" lon="6.78418">
        <ele>830.6</ele>
        <time>2021-07-23T08:05:35.285Z</time>
      </trkpt>
      <trkpt lat="45.62593" lon="6.78424">
        <ele>830.6</ele>
        <time>2021-07-23T08:05:36.285Z</time>
      </trkpt>
      <trkpt lat="45.62595" lon="6.78431">
        <ele>830.6</ele>
        <time>2021-07-23T08:05:37.285Z</time>
      </trkpt>
      <trkpt lat="45.62597" lon="6.78437">
        <ele>830.6</ele>
        <time>2021-07-23T08:05:38.285Z</time>
      </trkpt>
      <trkpt lat="45.62599" lon="6.78443">
        <ele>831.2</ele>
        <time>2021-07-23T08:05:39.285Z</time>
      </trkpt>
      <trkpt lat="45.62601" lon="6.78449">
        <ele>831.6</ele>
        <time>2021-07-23T08:05:40.285Z</time>
      </trkpt>
      <trkpt lat="45.62603" lon="6.78456">
        <ele>832</ele>
        <time>2021-07-23T08:05:41.285Z</time>
      </trkpt>
      <trkpt lat="45.62605" lon="6.78462">
        <ele>832.4</ele>
        <time>2021-07-23T08:05:42.285Z</time>
      </trkpt>
      <trkpt lat="45.62607" lon="6.78468">
        <ele>832.8</ele>
        <time>2021-07-23T08:05:43.285Z</time>
      </trkpt>
      <trkpt lat="45.62609" lon="6.78474">
        <ele>832.8</ele>
        <time>2021-07-23T08:05:44.285Z</time>
      </trkpt>
      <trkpt lat="45.62611" lon="6.78481">
        <ele>832.8</ele>
        <time>2021-07-23T08:05:45.285Z</time>
      </trkpt>
      <trkpt lat="45.62612" lon="6.78487">
        <ele>832.8</ele>
        <time>2021-07-23T08:05:46.285Z</time>
      </trkpt>
      <trkpt lat="45.62614" lon="6.78493">
        <ele>832.8</ele>
        <time>2021-07-23T08:05:47.285Z</time>
      </trkpt>
      <trkpt lat="45.62616" lon="6.78499">
        <ele>832.8</ele>
        <time>2021-07-23T08:05:48.285Z</time>
      </trkpt>
      <trkpt lat="45.62618" lon="6.78505">
        <ele>832.8</ele>
        <time>2021-07-23T08:05:49.285Z</time>
      </trkpt>
      <trkpt lat="45.6262" lon="6.78511">
        <ele>833.2</ele>
        <time>2021-07-23T08:05:50.285Z</time>
      </trkpt>
      <trkpt lat="45.62621" lon="6.78517">
        <ele>833.6</ele>
        <time>2021-07-23T08:05:51.285Z</time>
      </trkpt>
      <trkpt lat="45.62623" lon="6.78524">
        <ele>834.2</ele>
        <time>2021-07-23T08:05:52.285Z</time>
      </trkpt>
      <trkpt lat="45.62625" lon="6.7853">
        <ele>834.6</ele>
        <time>2021-07-23T08:05:53.285Z</time>
      </trkpt>
      <trkpt lat="45.62627" lon="6.78536">
        <ele>835</ele>
        <time>2021-07-23T08:05:54.285Z</time>
      </trkpt>
      <trkpt lat="45.6263" lon="6.78541">
        <ele>835</ele>
        <time>2021-07-23T08:05:55.285Z</time>
      </trkpt>
      <trkpt lat="45.62632" lon="6.78546">
        <ele>835</ele>
        <time>2021-07-23T08:05:56.285Z</time>
      </trkpt>
      <trkpt lat="45.62636" lon="6.7855">
        <ele>835</ele>
        <time>2021-07-23T08:05:57.285Z</time>
      </trkpt>
      <trkpt lat="45.62639" lon="6.78554">
        <ele>835</ele>
        <time>2021-07-23T08:05:58.285Z</time>
      </trkpt>
      <trkpt lat="45.62643" lon="6.78559">
        <ele>835</ele>
        <time>2021-07-23T08:05:59.285Z</time>
      </trkpt>
      <trkpt lat="45.62647" lon="6.78563">
        <ele>835.4</ele>
        <time>2021-07-23T08:06:00.285Z</time>
      </trkpt>
      <trkpt lat="45.62651" lon="6.78567">
        <ele>836.2</ele>
        <time>2021-07-23T08:06:01.285Z</time>
      </trkpt>
      <trkpt lat="45.62655" lon="6.7857">
        <ele>836.6</ele>
        <time>2021-07-23T08:06:02.285Z</time>
      </trkpt>
      <trkpt lat="45.62659" lon="6.78573">
        <ele>837</ele>
        <time>2021-07-23T08:06:03.285Z</time>
      </trkpt>
      <trkpt lat="45.62662" lon="6.78577">
        <ele>837</ele>
        <time>2021-07-23T08:06:04.285Z</time>
      </trkpt>
      <trkpt lat="45.62666" lon="6.7858">
        <ele>837</ele>
        <time>2021-07-23T08:06:05.285Z</time>
      </trkpt>
      <trkpt lat="45.6267" lon="6.78584">
        <ele>837</ele>
        <time>2021-07-23T08:06:06.285Z</time>
      </trkpt>
      <trkpt lat="45.62673" lon="6.78587">
        <ele>837</ele>
        <time>2021-07-23T08:06:07.285Z</time>
      </trkpt>
      <trkpt lat="45.62677" lon="6.78591">
        <ele>837</ele>
        <time>2021-07-23T08:06:08.285Z</time>
      </trkpt>
      <trkpt lat="45.62681" lon="6.78596">
        <ele>837</ele>
        <time>2021-07-23T08:06:09.285Z</time>
      </trkpt>
      <trkpt lat="45.62685" lon="6.786">
        <ele>837.4</ele>
        <time>2021-07-23T08:06:10.285Z</time>
      </trkpt>
      <trkpt lat="45.62688" lon="6.78605">
        <ele>837.8</ele>
        <time>2021-07-23T08:06:11.285Z</time>
      </trkpt>
      <trkpt lat="45.62692" lon="6.7861">
        <ele>838.2</ele>
        <time>2021-07-23T08:06:12.285Z</time>
      </trkpt>
      <trkpt lat="45.62695" lon="6.78615">
        <ele>838.6</ele>
        <time>2021-07-23T08:06:13.285Z</time>
      </trkpt>
      <trkpt lat="45.62698" lon="6.7862">
        <ele>839</ele>
        <time>2021-07-23T08:06:14.285Z</time>
      </trkpt>
      <trkpt lat="45.62699" lon="6.78625">
        <ele>839</ele>
        <time>2021-07-23T08:06:15.285Z</time>
      </trkpt>
      <trkpt lat="45.627" lon="6.78629">
        <ele>839</ele>
        <time>2021-07-23T08:06:16.285Z</time>
      </trkpt>
      <trkpt lat="45.627" lon="6.78634">
        <ele>839</ele>
        <time>2021-07-23T08:06:17.285Z</time>
      </trkpt>
      <trkpt lat="45.627" lon="6.78637">
        <ele>839</ele>
        <time>2021-07-23T08:06:18.285Z</time>
      </trkpt>
      <trkpt lat="45.62698" lon="6.7864">
        <ele>839</ele>
        <time>2021-07-23T08:06:19.285Z</time>
      </trkpt>
      <trkpt lat="45.62697" lon="6.78641">
        <ele>839</ele>
        <time>2021-07-23T08:06:20.285Z</time>
      </trkpt>
      <trkpt lat="45.62696" lon="6.78641">
        <ele>839</ele>
        <time>2021-07-23T08:06:21.285Z</time>
      </trkpt>
      <trkpt lat="45.62697" lon="6.78638">
        <ele>839</ele>
        <time>2021-07-23T08:06:22.285Z</time>
      </trkpt>
      <trkpt lat="45.62697" lon="6.78636">
        <ele>839</ele>
        <time>2021-07-23T08:06:23.285Z</time>
      </trkpt>
      <trkpt lat="45.62697" lon="6.78636">
        <ele>839</ele>
        <time>2021-07-23T08:06:24.285Z</time>
      </trkpt>
      <trkpt lat="45.627" lon="6.78638">
        <ele>839</ele>
        <time>2021-07-23T08:06:25.285Z</time>
      </trkpt>
      <trkpt lat="45.62701" lon="6.7864">
        <ele>839</ele>
        <time>2021-07-23T08:06:26.285Z</time>
      </trkpt>
      <trkpt lat="45.62701" lon="6.7864">
        <ele>839</ele>
        <time>2021-07-23T08:06:27.285Z</time>
      </trkpt>
      <trkpt lat="45.62701" lon="6.78641">
        <ele>839</ele>
        <time>2021-07-23T08:06:28.285Z</time>
      </trkpt>
      <trkpt lat="45.62702" lon="6.78644">
        <ele>839</ele>
        <time>2021-07-23T08:06:29.285Z</time>
      </trkpt>
      <trkpt lat="45.62703" lon="6.78647">
        <ele>839</ele>
        <time>2021-07-23T08:06:30.285Z</time>
      </trkpt>
      <trkpt lat="45.62704" lon="6.7865">
        <ele>839</ele>
        <time>2021-07-23T08:06:31.285Z</time>
      </trkpt>
      <trkpt lat="45.62705" lon="6.78653">
        <ele>839</ele>
        <time>2021-07-23T08:06:32.285Z</time>
      </trkpt>
      <trkpt lat="45.62706" lon="6.78657">
        <ele>839</ele>
        <time>2021-07-23T08:06:33.285Z</time>
      </trkpt>
      <trkpt lat="45.62707" lon="6.78664">
        <ele>839</ele>
        <time>2021-07-23T08:06:34.285Z</time>
      </trkpt>
      <trkpt lat="45.62708" lon="6.7867">
        <ele>839.4</ele>
        <time>2021-07-23T08:06:35.285Z</time>
      </trkpt>
      <trkpt lat="45.62709" lon="6.78676">
        <ele>840</ele>
        <time>2021-07-23T08:06:36.285Z</time>
      </trkpt>
      <trkpt lat="45.6271" lon="6.78683">
        <ele>840.4</ele>
        <time>2021-07-23T08:06:37.285Z</time>
      </trkpt>
      <trkpt lat="45.6271" lon="6.78689">
        <ele>840.8</ele>
        <time>2021-07-23T08:06:38.285Z</time>
      </trkpt>
      <trkpt lat="45.6271" lon="6.78696">
        <ele>841.2</ele>
        <time>2021-07-23T08:06:39.285Z</time>
      </trkpt>
      <trkpt lat="45.62711" lon="6.78703">
        <ele>841.2</ele>
        <time>2021-07-23T08:06:40.285Z</time>
      </trkpt>
      <trkpt lat="45.62711" lon="6.7871">
        <ele>841.2</ele>
        <time>2021-07-23T08:06:41.285Z</time>
      </trkpt>
      <trkpt lat="45.6271" lon="6.78716">
        <ele>841.2</ele>
        <time>2021-07-23T08:06:42.285Z</time>
      </trkpt>
      <trkpt lat="45.6271" lon="6.78723">
        <ele>841.2</ele>
        <time>2021-07-23T08:06:43.285Z</time>
      </trkpt>
      <trkpt lat="45.62709" lon="6.78729">
        <ele>841.2</ele>
        <time>2021-07-23T08:06:44.285Z</time>
      </trkpt>
      <trkpt lat="45.62708" lon="6.78735">
        <ele>841.2</ele>
        <time>2021-07-23T08:06:45.285Z</time>
      </trkpt>
      <trkpt lat="45.62707" lon="6.78742">
        <ele>841.6</ele>
        <time>2021-07-23T08:06:46.285Z</time>
      </trkpt>
      <trkpt lat="45.62707" lon="6.78748">
        <ele>842</ele>
        <time>2021-07-23T08:06:47.285Z</time>
      </trkpt>
      <trkpt lat="45.62706" lon="6.78754">
        <ele>842.4</ele>
        <time>2021-07-23T08:06:48.285Z</time>
      </trkpt>
      <trkpt lat="45.62705" lon="6.7876">
        <ele>843.2</ele>
        <time>2021-07-23T08:06:49.285Z</time>
      </trkpt>
      <trkpt lat="45.62705" lon="6.78766">
        <ele>843.2</ele>
        <time>2021-07-23T08:06:50.285Z</time>
      </trkpt>
      <trkpt lat="45.62705" lon="6.78772">
        <ele>843.2</ele>
        <time>2021-07-23T08:06:51.285Z</time>
      </trkpt>
      <trkpt lat="45.62705" lon="6.78778">
        <ele>843.2</ele>
        <time>2021-07-23T08:06:52.285Z</time>
      </trkpt>
      <trkpt lat="45.62704" lon="6.78784">
        <ele>843.2</ele>
        <time>2021-07-23T08:06:53.285Z</time>
      </trkpt>
      <trkpt lat="45.62704" lon="6.7879">
        <ele>843.2</ele>
        <time>2021-07-23T08:06:54.285Z</time>
      </trkpt>
      <trkpt lat="45.62703" lon="6.78795">
        <ele>843.2</ele>
        <time>2021-07-23T08:06:55.285Z</time>
      </trkpt>
      <trkpt lat="45.62703" lon="6.78801">
        <ele>843.6</ele>
        <time>2021-07-23T08:06:56.285Z</time>
      </trkpt>
      <trkpt lat="45.62702" lon="6.78806">
        <ele>844</ele>
        <time>2021-07-23T08:06:57.285Z</time>
      </trkpt>
      <trkpt lat="45.62702" lon="6.78811">
        <ele>844.6</ele>
        <time>2021-07-23T08:06:58.285Z</time>
      </trkpt>
      <trkpt lat="45.62701" lon="6.78817">
        <ele>845</ele>
        <time>2021-07-23T08:06:59.285Z</time>
      </trkpt>
      <trkpt lat="45.62701" lon="6.78823">
        <ele>845.4</ele>
        <time>2021-07-23T08:07:00.285Z</time>
      </trkpt>
      <trkpt lat="45.627" lon="6.78829">
        <ele>845.4</ele>
        <time>2021-07-23T08:07:01.285Z</time>
      </trkpt>
      <trkpt lat="45.627" lon="6.78835">
        <ele>845.4</ele>
        <time>2021-07-23T08:07:02.285Z</time>
      </trkpt>
      <trkpt lat="45.627" lon="6.78841">
        <ele>845.4</ele>
        <time>2021-07-23T08:07:03.285Z</time>
      </trkpt>
      <trkpt lat="45.62699" lon="6.78847">
        <ele>845.4</ele>
        <time>2021-07-23T08:07:04.285Z</time>
      </trkpt>
      <trkpt lat="45.62699" lon="6.78852">
        <ele>845.4</ele>
        <time>2021-07-23T08:07:05.285Z</time>
      </trkpt>
      <trkpt lat="45.62699" lon="6.78858">
        <ele>845.8</ele>
        <time>2021-07-23T08:07:06.285Z</time>
      </trkpt>
      <trkpt lat="45.62698" lon="6.78864">
        <ele>846.2</ele>
        <time>2021-07-23T08:07:07.285Z</time>
      </trkpt>
      <trkpt lat="45.62697" lon="6.78869">
        <ele>846.6</ele>
        <time>2021-07-23T08:07:08.285Z</time>
      </trkpt>
      <trkpt lat="45.62696" lon="6.78875">
        <ele>847</ele>
        <time>2021-07-23T08:07:09.285Z</time>
      </trkpt>
      <trkpt lat="45.62696" lon="6.78881">
        <ele>847.6</ele>
        <time>2021-07-23T08:07:10.285Z</time>
      </trkpt>
      <trkpt lat="45.62696" lon="6.78887">
        <ele>847.6</ele>
        <time>2021-07-23T08:07:11.285Z</time>
      </trkpt>
      <trkpt lat="45.62695" lon="6.78893">
        <ele>847.6</ele>
        <time>2021-07-23T08:07:12.285Z</time>
      </trkpt>
      <trkpt lat="45.62695" lon="6.78899">
        <ele>847.6</ele>
        <time>2021-07-23T08:07:13.285Z</time>
      </trkpt>
      <trkpt lat="45.62695" lon="6.78905">
        <ele>847.6</ele>
        <time>2021-07-23T08:07:14.285Z</time>
      </trkpt>
      <trkpt lat="45.62695" lon="6.78911">
        <ele>848</ele>
        <time>2021-07-23T08:07:15.285Z</time>
      </trkpt>
      <trkpt lat="45.62694" lon="6.78917">
        <ele>848.4</ele>
        <time>2021-07-23T08:07:16.285Z</time>
      </trkpt>
      <trkpt lat="45.62694" lon="6.78923">
        <ele>848.8</ele>
        <time>2021-07-23T08:07:17.285Z</time>
      </trkpt>
      <trkpt lat="45.62694" lon="6.78928">
        <ele>849.2</ele>
        <time>2021-07-23T08:07:18.285Z</time>
      </trkpt>
      <trkpt lat="45.62693" lon="6.78934">
        <ele>849.8</ele>
        <time>2021-07-23T08:07:19.285Z</time>
      </trkpt>
      <trkpt lat="45.62693" lon="6.7894">
        <ele>849.8</ele>
        <time>2021-07-23T08:07:20.285Z</time>
      </trkpt>
      <trkpt lat="45.62693" lon="6.78945">
        <ele>849.8</ele>
        <time>2021-07-23T08:07:21.285Z</time>
      </trkpt>
      <trkpt lat="45.62692" lon="6.7895">
        <ele>849.8</ele>
        <time>2021-07-23T08:07:22.285Z</time>
      </trkpt>
      <trkpt lat="45.62692" lon="6.78955">
        <ele>849.8</ele>
        <time>2021-07-23T08:07:23.285Z</time>
      </trkpt>
      <trkpt lat="45.62691" lon="6.7896">
        <ele>849.8</ele>
        <time>2021-07-23T08:07:24.285Z</time>
      </trkpt>
      <trkpt lat="45.62691" lon="6.78965">
        <ele>850.2</ele>
        <time>2021-07-23T08:07:25.285Z</time>
      </trkpt>
      <trkpt lat="45.62691" lon="6.7897">
        <ele>850.6</ele>
        <time>2021-07-23T08:07:26.285Z</time>
      </trkpt>
      <trkpt lat="45.6269" lon="6.78974">
        <ele>851</ele>
        <time>2021-07-23T08:07:27.285Z</time>
      </trkpt>
      <trkpt lat="45.6269" lon="6.7898">
        <ele>851.4</ele>
        <time>2021-07-23T08:07:28.285Z</time>
      </trkpt>
      <trkpt lat="45.62689" lon="6.78985">
        <ele>851.8</ele>
        <time>2021-07-23T08:07:29.285Z</time>
      </trkpt>
      <trkpt lat="45.62688" lon="6.78991">
        <ele>851.8</ele>
        <time>2021-07-23T08:07:30.285Z</time>
      </trkpt>
      <trkpt lat="45.62688" lon="6.78997">
        <ele>851.8</ele>
        <time>2021-07-23T08:07:31.285Z</time>
      </trkpt>
      <trkpt lat="45.62687" lon="6.79004">
        <ele>851.8</ele>
        <time>2021-07-23T08:07:32.285Z</time>
      </trkpt>
      <trkpt lat="45.62687" lon="6.79009">
        <ele>852.2</ele>
        <time>2021-07-23T08:07:33.285Z</time>
      </trkpt>
      <trkpt lat="45.62686" lon="6.79015">
        <ele>852.6</ele>
        <time>2021-07-23T08:07:34.285Z</time>
      </trkpt>
      <trkpt lat="45.62686" lon="6.7902">
        <ele>853</ele>
        <time>2021-07-23T08:07:35.285Z</time>
      </trkpt>
      <trkpt lat="45.62685" lon="6.79027">
        <ele>853.4</ele>
        <time>2021-07-23T08:07:36.285Z</time>
      </trkpt>
      <trkpt lat="45.62685" lon="6.79032">
        <ele>853.8</ele>
        <time>2021-07-23T08:07:37.285Z</time>
      </trkpt>
      <trkpt lat="45.62684" lon="6.79037">
        <ele>853.8</ele>
        <time>2021-07-23T08:07:38.285Z</time>
      </trkpt>
      <trkpt lat="45.62683" lon="6.79042">
        <ele>853.8</ele>
        <time>2021-07-23T08:07:39.285Z</time>
      </trkpt>
      <trkpt lat="45.62682" lon="6.79048">
        <ele>853.8</ele>
        <time>2021-07-23T08:07:40.285Z</time>
      </trkpt>
      <trkpt lat="45.62682" lon="6.79053">
        <ele>853.8</ele>
        <time>2021-07-23T08:07:41.285Z</time>
      </trkpt>
      <trkpt lat="45.62681" lon="6.79059">
        <ele>853.8</ele>
        <time>2021-07-23T08:07:42.285Z</time>
      </trkpt>
      <trkpt lat="45.6268" lon="6.79064">
        <ele>854.2</ele>
        <time>2021-07-23T08:07:43.285Z</time>
      </trkpt>
      <trkpt lat="45.62679" lon="6.79069">
        <ele>854.8</ele>
        <time>2021-07-23T08:07:44.285Z</time>
      </trkpt>
      <trkpt lat="45.62679" lon="6.79075">
        <ele>855.2</ele>
        <time>2021-07-23T08:07:45.285Z</time>
      </trkpt>
      <trkpt lat="45.62678" lon="6.79081">
        <ele>855.6</ele>
        <time>2021-07-23T08:07:46.285Z</time>
      </trkpt>
      <trkpt lat="45.62678" lon="6.79088">
        <ele>856</ele>
        <time>2021-07-23T08:07:47.285Z</time>
      </trkpt>
      <trkpt lat="45.62677" lon="6.79094">
        <ele>856</ele>
        <time>2021-07-23T08:07:48.285Z</time>
      </trkpt>
      <trkpt lat="45.62676" lon="6.79099">
        <ele>856</ele>
        <time>2021-07-23T08:07:49.285Z</time>
      </trkpt>
      <trkpt lat="45.62675" lon="6.79105">
        <ele>856</ele>
        <time>2021-07-23T08:07:50.285Z</time>
      </trkpt>
      <trkpt lat="45.62674" lon="6.79111">
        <ele>856</ele>
        <time>2021-07-23T08:07:51.285Z</time>
      </trkpt>
      <trkpt lat="45.62673" lon="6.79117">
        <ele>856</ele>
        <time>2021-07-23T08:07:52.285Z</time>
      </trkpt>
      <trkpt lat="45.62672" lon="6.79123">
        <ele>856.4</ele>
        <time>2021-07-23T08:07:53.285Z</time>
      </trkpt>
      <trkpt lat="45.62671" lon="6.79129">
        <ele>856.8</ele>
        <time>2021-07-23T08:07:54.285Z</time>
      </trkpt>
      <trkpt lat="45.62669" lon="6.79135">
        <ele>857.4</ele>
        <time>2021-07-23T08:07:55.285Z</time>
      </trkpt>
      <trkpt lat="45.62668" lon="6.7914">
        <ele>857.8</ele>
        <time>2021-07-23T08:07:56.285Z</time>
      </trkpt>
      <trkpt lat="45.62667" lon="6.79144">
        <ele>858.2</ele>
        <time>2021-07-23T08:07:57.285Z</time>
      </trkpt>
      <trkpt lat="45.62665" lon="6.7915">
        <ele>858.2</ele>
        <time>2021-07-23T08:07:58.285Z</time>
      </trkpt>
      <trkpt lat="45.62663" lon="6.79155">
        <ele>858.2</ele>
        <time>2021-07-23T08:07:59.285Z</time>
      </trkpt>
      <trkpt lat="45.62661" lon="6.7916">
        <ele>858.2</ele>
        <time>2021-07-23T08:08:00.285Z</time>
      </trkpt>
      <trkpt lat="45.6266" lon="6.79164">
        <ele>858.2</ele>
        <time>2021-07-23T08:08:01.285Z</time>
      </trkpt>
      <trkpt lat="45.62658" lon="6.79169">
        <ele>858.6</ele>
        <time>2021-07-23T08:08:02.285Z</time>
      </trkpt>
      <trkpt lat="45.62657" lon="6.79174">
        <ele>859.6</ele>
        <time>2021-07-23T08:08:03.285Z</time>
      </trkpt>
      <trkpt lat="45.62655" lon="6.79179">
        <ele>860.2</ele>
        <time>2021-07-23T08:08:04.285Z</time>
      </trkpt>
      <trkpt lat="45.62653" lon="6.79184">
        <ele>860.6</ele>
        <time>2021-07-23T08:08:05.285Z</time>
      </trkpt>
      <trkpt lat="45.62652" lon="6.79189">
        <ele>860.6</ele>
        <time>2021-07-23T08:08:06.285Z</time>
      </trkpt>
      <trkpt lat="45.62651" lon="6.79194">
        <ele>860.6</ele>
        <time>2021-07-23T08:08:07.285Z</time>
      </trkpt>
      <trkpt lat="45.62649" lon="6.79199">
        <ele>860.6</ele>
        <time>2021-07-23T08:08:08.285Z</time>
      </trkpt>
      <trkpt lat="45.62648" lon="6.79205">
        <ele>860.6</ele>
        <time>2021-07-23T08:08:09.285Z</time>
      </trkpt>
      <trkpt lat="45.62647" lon="6.7921">
        <ele>860.6</ele>
        <time>2021-07-23T08:08:10.285Z</time>
      </trkpt>
      <trkpt lat="45.62646" lon="6.79215">
        <ele>860.6</ele>
        <time>2021-07-23T08:08:11.285Z</time>
      </trkpt>
      <trkpt lat="45.62645" lon="6.79221">
        <ele>860.6</ele>
        <time>2021-07-23T08:08:12.285Z</time>
      </trkpt>
      <trkpt lat="45.62644" lon="6.79227">
        <ele>861</ele>
        <time>2021-07-23T08:08:13.285Z</time>
      </trkpt>
      <trkpt lat="45.62644" lon="6.79232">
        <ele>861.4</ele>
        <time>2021-07-23T08:08:14.285Z</time>
      </trkpt>
      <trkpt lat="45.62643" lon="6.79237">
        <ele>861.8</ele>
        <time>2021-07-23T08:08:15.285Z</time>
      </trkpt>
      <trkpt lat="45.62642" lon="6.79242">
        <ele>862.2</ele>
        <time>2021-07-23T08:08:16.285Z</time>
      </trkpt>
      <trkpt lat="45.62641" lon="6.79248">
        <ele>862.6</ele>
        <time>2021-07-23T08:08:17.285Z</time>
      </trkpt>
      <trkpt lat="45.6264" lon="6.79253">
        <ele>862.6</ele>
        <time>2021-07-23T08:08:18.285Z</time>
      </trkpt>
      <trkpt lat="45.62639" lon="6.79259">
        <ele>862.6</ele>
        <time>2021-07-23T08:08:19.285Z</time>
      </trkpt>
      <trkpt lat="45.62638" lon="6.79265">
        <ele>862.6</ele>
        <time>2021-07-23T08:08:20.285Z</time>
      </trkpt>
      <trkpt lat="45.62637" lon="6.7927">
        <ele>862.6</ele>
        <time>2021-07-23T08:08:21.285Z</time>
      </trkpt>
      <trkpt lat="45.62636" lon="6.79276">
        <ele>862.6</ele>
        <time>2021-07-23T08:08:22.285Z</time>
      </trkpt>
      <trkpt lat="45.62634" lon="6.79282">
        <ele>862.6</ele>
        <time>2021-07-23T08:08:23.285Z</time>
      </trkpt>
      <trkpt lat="45.62633" lon="6.79287">
        <ele>863</ele>
        <time>2021-07-23T08:08:24.285Z</time>
      </trkpt>
      <trkpt lat="45.62632" lon="6.79292">
        <ele>863.6</ele>
        <time>2021-07-23T08:08:25.285Z</time>
      </trkpt>
      <trkpt lat="45.6263" lon="6.79297">
        <ele>864</ele>
        <time>2021-07-23T08:08:26.285Z</time>
      </trkpt>
      <trkpt lat="45.62629" lon="6.79302">
        <ele>864.4</ele>
        <time>2021-07-23T08:08:27.285Z</time>
      </trkpt>
      <trkpt lat="45.62628" lon="6.79307">
        <ele>864.8</ele>
        <time>2021-07-23T08:08:28.285Z</time>
      </trkpt>
      <trkpt lat="45.62627" lon="6.79312">
        <ele>864.8</ele>
        <time>2021-07-23T08:08:29.285Z</time>
      </trkpt>
      <trkpt lat="45.62625" lon="6.79317">
        <ele>864.8</ele>
        <time>2021-07-23T08:08:30.285Z</time>
      </trkpt>
      <trkpt lat="45.62623" lon="6.79322">
        <ele>864.8</ele>
        <time>2021-07-23T08:08:31.285Z</time>
      </trkpt>
      <trkpt lat="45.62621" lon="6.79326">
        <ele>864.8</ele>
        <time>2021-07-23T08:08:32.285Z</time>
      </trkpt>
      <trkpt lat="45.62619" lon="6.79331">
        <ele>865.2</ele>
        <time>2021-07-23T08:08:33.285Z</time>
      </trkpt>
      <trkpt lat="45.62617" lon="6.79336">
        <ele>865.6</ele>
        <time>2021-07-23T08:08:34.285Z</time>
      </trkpt>
      <trkpt lat="45.62616" lon="6.79341">
        <ele>866</ele>
        <time>2021-07-23T08:08:35.285Z</time>
      </trkpt>
      <trkpt lat="45.62614" lon="6.79345">
        <ele>866.4</ele>
        <time>2021-07-23T08:08:36.285Z</time>
      </trkpt>
      <trkpt lat="45.62613" lon="6.7935">
        <ele>866.8</ele>
        <time>2021-07-23T08:08:37.285Z</time>
      </trkpt>
      <trkpt lat="45.62611" lon="6.79355">
        <ele>866.8</ele>
        <time>2021-07-23T08:08:38.285Z</time>
      </trkpt>
      <trkpt lat="45.62608" lon="6.79359">
        <ele>866.8</ele>
        <time>2021-07-23T08:08:39.285Z</time>
      </trkpt>
      <trkpt lat="45.62606" lon="6.79363">
        <ele>866.8</ele>
        <time>2021-07-23T08:08:40.285Z</time>
      </trkpt>
      <trkpt lat="45.62603" lon="6.79367">
        <ele>866.8</ele>
        <time>2021-07-23T08:08:41.285Z</time>
      </trkpt>
      <trkpt lat="45.626" lon="6.79372">
        <ele>866.8</ele>
        <time>2021-07-23T08:08:42.285Z</time>
      </trkpt>
      <trkpt lat="45.62597" lon="6.79376">
        <ele>866.8</ele>
        <time>2021-07-23T08:08:43.285Z</time>
      </trkpt>
      <trkpt lat="45.62594" lon="6.7938">
        <ele>866.8</ele>
        <time>2021-07-23T08:08:44.285Z</time>
      </trkpt>
      <trkpt lat="45.62592" lon="6.79384">
        <ele>866.8</ele>
        <time>2021-07-23T08:08:45.285Z</time>
      </trkpt>
      <trkpt lat="45.62589" lon="6.79388">
        <ele>866.8</ele>
        <time>2021-07-23T08:08:46.285Z</time>
      </trkpt>
      <trkpt lat="45.62586" lon="6.79392">
        <ele>866.8</ele>
        <time>2021-07-23T08:08:47.285Z</time>
      </trkpt>
      <trkpt lat="45.62583" lon="6.79396">
        <ele>867.2</ele>
        <time>2021-07-23T08:08:48.285Z</time>
      </trkpt>
      <trkpt lat="45.6258" lon="6.79399">
        <ele>867.8</ele>
        <time>2021-07-23T08:08:49.285Z</time>
      </trkpt>
      <trkpt lat="45.62577" lon="6.79403">
        <ele>868.2</ele>
        <time>2021-07-23T08:08:50.285Z</time>
      </trkpt>
      <trkpt lat="45.62574" lon="6.79407">
        <ele>868.6</ele>
        <time>2021-07-23T08:08:51.285Z</time>
      </trkpt>
      <trkpt lat="45.6257" lon="6.7941">
        <ele>869</ele>
        <time>2021-07-23T08:08:52.285Z</time>
      </trkpt>
      <trkpt lat="45.62567" lon="6.79413">
        <ele>869</ele>
        <time>2021-07-23T08:08:53.285Z</time>
      </trkpt>
      <trkpt lat="45.62564" lon="6.79416">
        <ele>869</ele>
        <time>2021-07-23T08:08:54.285Z</time>
      </trkpt>
      <trkpt lat="45.6256" lon="6.79419">
        <ele>869</ele>
        <time>2021-07-23T08:08:55.285Z</time>
      </trkpt>
      <trkpt lat="45.62557" lon="6.79422">
        <ele>869</ele>
        <time>2021-07-23T08:08:56.285Z</time>
      </trkpt>
      <trkpt lat="45.62554" lon="6.79425">
        <ele>869.4</ele>
        <time>2021-07-23T08:08:57.285Z</time>
      </trkpt>
      <trkpt lat="45.62551" lon="6.79428">
        <ele>869.8</ele>
        <time>2021-07-23T08:08:58.285Z</time>
      </trkpt>
      <trkpt lat="45.62547" lon="6.79431">
        <ele>870.2</ele>
        <time>2021-07-23T08:08:59.285Z</time>
      </trkpt>
      <trkpt lat="45.62544" lon="6.79433">
        <ele>870.6</ele>
        <time>2021-07-23T08:09:00.285Z</time>
      </trkpt>
      <trkpt lat="45.62541" lon="6.79436">
        <ele>871</ele>
        <time>2021-07-23T08:09:01.285Z</time>
      </trkpt>
      <trkpt lat="45.62537" lon="6.79438">
        <ele>871</ele>
        <time>2021-07-23T08:09:02.285Z</time>
      </trkpt>
      <trkpt lat="45.62533" lon="6.79438">
        <ele>871</ele>
        <time>2021-07-23T08:09:03.285Z</time>
      </trkpt>
      <trkpt lat="45.6253" lon="6.79439">
        <ele>871</ele>
        <time>2021-07-23T08:09:04.285Z</time>
      </trkpt>
      <trkpt lat="45.62526" lon="6.79442">
        <ele>871</ele>
        <time>2021-07-23T08:09:05.285Z</time>
      </trkpt>
      <trkpt lat="45.62523" lon="6.79445">
        <ele>871</ele>
        <time>2021-07-23T08:09:06.285Z</time>
      </trkpt>
      <trkpt lat="45.62521" lon="6.7945">
        <ele>871</ele>
        <time>2021-07-23T08:09:07.285Z</time>
      </trkpt>
      <trkpt lat="45.62519" lon="6.79455">
        <ele>871</ele>
        <time>2021-07-23T08:09:08.285Z</time>
      </trkpt>
      <trkpt lat="45.62518" lon="6.7946">
        <ele>871</ele>
        <time>2021-07-23T08:09:09.285Z</time>
      </trkpt>
      <trkpt lat="45.62518" lon="6.79465">
        <ele>871</ele>
        <time>2021-07-23T08:09:10.285Z</time>
      </trkpt>
      <trkpt lat="45.62517" lon="6.7947">
        <ele>871.4</ele>
        <time>2021-07-23T08:09:11.285Z</time>
      </trkpt>
      <trkpt lat="45.62516" lon="6.79475">
        <ele>871.8</ele>
        <time>2021-07-23T08:09:12.285Z</time>
      </trkpt>
      <trkpt lat="45.62514" lon="6.7948">
        <ele>872.2</ele>
        <time>2021-07-23T08:09:13.285Z</time>
      </trkpt>
      <trkpt lat="45.62512" lon="6.79485">
        <ele>872.6</ele>
        <time>2021-07-23T08:09:14.285Z</time>
      </trkpt>
      <trkpt lat="45.6251" lon="6.7949">
        <ele>873</ele>
        <time>2021-07-23T08:09:15.285Z</time>
      </trkpt>
      <trkpt lat="45.62507" lon="6.79495">
        <ele>873</ele>
        <time>2021-07-23T08:09:16.285Z</time>
      </trkpt>
      <trkpt lat="45.62505" lon="6.795">
        <ele>873</ele>
        <time>2021-07-23T08:09:17.285Z</time>
      </trkpt>
      <trkpt lat="45.62503" lon="6.79504">
        <ele>873</ele>
        <time>2021-07-23T08:09:18.285Z</time>
      </trkpt>
      <trkpt lat="45.625" lon="6.79508">
        <ele>873</ele>
        <time>2021-07-23T08:09:19.285Z</time>
      </trkpt>
      <trkpt lat="45.62498" lon="6.79513">
        <ele>873</ele>
        <time>2021-07-23T08:09:20.285Z</time>
      </trkpt>
      <trkpt lat="45.62496" lon="6.79517">
        <ele>873.4</ele>
        <time>2021-07-23T08:09:21.285Z</time>
      </trkpt>
      <trkpt lat="45.62493" lon="6.79522">
        <ele>874</ele>
        <time>2021-07-23T08:09:22.285Z</time>
      </trkpt>
      <trkpt lat="45.62491" lon="6.79526">
        <ele>874.4</ele>
        <time>2021-07-23T08:09:23.285Z</time>
      </trkpt>
      <trkpt lat="45.62489" lon="6.79531">
        <ele>874.8</ele>
        <time>2021-07-23T08:09:24.285Z</time>
      </trkpt>
      <trkpt lat="45.62487" lon="6.79535">
        <ele>875.2</ele>
        <time>2021-07-23T08:09:25.285Z</time>
      </trkpt>
      <trkpt lat="45.62485" lon="6.7954">
        <ele>875.2</ele>
        <time>2021-07-23T08:09:26.285Z</time>
      </trkpt>
      <trkpt lat="45.62482" lon="6.79544">
        <ele>875.2</ele>
        <time>2021-07-23T08:09:27.285Z</time>
      </trkpt>
      <trkpt lat="45.6248" lon="6.79549">
        <ele>875.2</ele>
        <time>2021-07-23T08:09:28.285Z</time>
      </trkpt>
      <trkpt lat="45.62478" lon="6.79553">
        <ele>875.2</ele>
        <time>2021-07-23T08:09:29.285Z</time>
      </trkpt>
      <trkpt lat="45.62475" lon="6.79558">
        <ele>875.2</ele>
        <time>2021-07-23T08:09:30.285Z</time>
      </trkpt>
      <trkpt lat="45.62473" lon="6.79562">
        <ele>875.6</ele>
        <time>2021-07-23T08:09:31.285Z</time>
      </trkpt>
      <trkpt lat="45.62471" lon="6.79567">
        <ele>876</ele>
        <time>2021-07-23T08:09:32.285Z</time>
      </trkpt>
      <trkpt lat="45.62468" lon="6.79571">
        <ele>876.4</ele>
        <time>2021-07-23T08:09:33.285Z</time>
      </trkpt>
      <trkpt lat="45.62466" lon="6.79576">
        <ele>876.8</ele>
        <time>2021-07-23T08:09:34.285Z</time>
      </trkpt>
      <trkpt lat="45.62464" lon="6.7958">
        <ele>877.2</ele>
        <time>2021-07-23T08:09:35.285Z</time>
      </trkpt>
      <trkpt lat="45.62463" lon="6.79584">
        <ele>877.2</ele>
        <time>2021-07-23T08:09:36.285Z</time>
      </trkpt>
      <trkpt lat="45.6246" lon="6.79589">
        <ele>877.2</ele>
        <time>2021-07-23T08:09:37.285Z</time>
      </trkpt>
      <trkpt lat="45.62458" lon="6.79594">
        <ele>877.2</ele>
        <time>2021-07-23T08:09:38.285Z</time>
      </trkpt>
      <trkpt lat="45.62456" lon="6.79598">
        <ele>877.2</ele>
        <time>2021-07-23T08:09:39.285Z</time>
      </trkpt>
      <trkpt lat="45.62454" lon="6.79603">
        <ele>877.2</ele>
        <time>2021-07-23T08:09:40.285Z</time>
      </trkpt>
      <trkpt lat="45.62452" lon="6.79607">
        <ele>877.2</ele>
        <time>2021-07-23T08:09:41.285Z</time>
      </trkpt>
      <trkpt lat="45.6245" lon="6.79612">
        <ele>877.2</ele>
        <time>2021-07-23T08:09:42.285Z</time>
      </trkpt>
      <trkpt lat="45.62448" lon="6.79616">
        <ele>877.6</ele>
        <time>2021-07-23T08:09:43.285Z</time>
      </trkpt>
      <trkpt lat="45.62445" lon="6.79621">
        <ele>878</ele>
        <time>2021-07-23T08:09:44.285Z</time>
      </trkpt>
      <trkpt lat="45.62443" lon="6.79625">
        <ele>878.6</ele>
        <time>2021-07-23T08:09:45.285Z</time>
      </trkpt>
      <trkpt lat="45.6244" lon="6.7963">
        <ele>879</ele>
        <time>2021-07-23T08:09:46.285Z</time>
      </trkpt>
      <trkpt lat="45.62438" lon="6.79635">
        <ele>879.4</ele>
        <time>2021-07-23T08:09:47.285Z</time>
      </trkpt>
      <trkpt lat="45.62436" lon="6.7964">
        <ele>879.4</ele>
        <time>2021-07-23T08:09:48.285Z</time>
      </trkpt>
      <trkpt lat="45.62433" lon="6.79644">
        <ele>879.4</ele>
        <time>2021-07-23T08:09:49.285Z</time>
      </trkpt>
      <trkpt lat="45.62431" lon="6.7965">
        <ele>879.4</ele>
        <time>2021-07-23T08:09:50.285Z</time>
      </trkpt>
      <trkpt lat="45.62428" lon="6.79654">
        <ele>879.4</ele>
        <time>2021-07-23T08:09:51.285Z</time>
      </trkpt>
      <trkpt lat="45.62426" lon="6.79659">
        <ele>879.4</ele>
        <time>2021-07-23T08:09:52.285Z</time>
      </trkpt>
      <trkpt lat="45.62424" lon="6.79663">
        <ele>879.4</ele>
        <time>2021-07-23T08:09:53.285Z</time>
      </trkpt>
      <trkpt lat="45.62422" lon="6.79668">
        <ele>879.4</ele>
        <time>2021-07-23T08:09:54.285Z</time>
      </trkpt>
      <trkpt lat="45.6242" lon="6.79672">
        <ele>879.8</ele>
        <time>2021-07-23T08:09:55.285Z</time>
      </trkpt>
      <trkpt lat="45.62417" lon="6.79676">
        <ele>880.2</ele>
        <time>2021-07-23T08:09:56.285Z</time>
      </trkpt>
      <trkpt lat="45.62415" lon="6.7968">
        <ele>880.8</ele>
        <time>2021-07-23T08:09:57.285Z</time>
      </trkpt>
      <trkpt lat="45.62412" lon="6.79684">
        <ele>881.2</ele>
        <time>2021-07-23T08:09:58.285Z</time>
      </trkpt>
      <trkpt lat="45.6241" lon="6.79687">
        <ele>881.6</ele>
        <time>2021-07-23T08:09:59.285Z</time>
      </trkpt>
      <trkpt lat="45.62408" lon="6.79692">
        <ele>881.6</ele>
        <time>2021-07-23T08:10:00.285Z</time>
      </trkpt>
      <trkpt lat="45.62406" lon="6.79696">
        <ele>881.6</ele>
        <time>2021-07-23T08:10:01.285Z</time>
      </trkpt>
      <trkpt lat="45.62404" lon="6.79701">
        <ele>881.6</ele>
        <time>2021-07-23T08:10:02.285Z</time>
      </trkpt>
      <trkpt lat="45.62402" lon="6.79705">
        <ele>881.6</ele>
        <time>2021-07-23T08:10:03.285Z</time>
      </trkpt>
      <trkpt lat="45.624" lon="6.7971">
        <ele>881.6</ele>
        <time>2021-07-23T08:10:04.285Z</time>
      </trkpt>
      <trkpt lat="45.62398" lon="6.79715">
        <ele>881.6</ele>
        <time>2021-07-23T08:10:05.285Z</time>
      </trkpt>
      <trkpt lat="45.62396" lon="6.7972">
        <ele>881.6</ele>
        <time>2021-07-23T08:10:06.285Z</time>
      </trkpt>
      <trkpt lat="45.62394" lon="6.79725">
        <ele>881.6</ele>
        <time>2021-07-23T08:10:07.285Z</time>
      </trkpt>
      <trkpt lat="45.62392" lon="6.79729">
        <ele>882</ele>
        <time>2021-07-23T08:10:08.285Z</time>
      </trkpt>
      <trkpt lat="45.6239" lon="6.79734">
        <ele>882.4</ele>
        <time>2021-07-23T08:10:09.285Z</time>
      </trkpt>
      <trkpt lat="45.62388" lon="6.79739">
        <ele>883</ele>
        <time>2021-07-23T08:10:10.285Z</time>
      </trkpt>
      <trkpt lat="45.62385" lon="6.79744">
        <ele>883.4</ele>
        <time>2021-07-23T08:10:11.285Z</time>
      </trkpt>
      <trkpt lat="45.62383" lon="6.79749">
        <ele>883.8</ele>
        <time>2021-07-23T08:10:12.285Z</time>
      </trkpt>
      <trkpt lat="45.62381" lon="6.79754">
        <ele>883.8</ele>
        <time>2021-07-23T08:10:13.285Z</time>
      </trkpt>
      <trkpt lat="45.62378" lon="6.79759">
        <ele>883.8</ele>
        <time>2021-07-23T08:10:14.285Z</time>
      </trkpt>
      <trkpt lat="45.62376" lon="6.79764">
        <ele>883.8</ele>
        <time>2021-07-23T08:10:15.285Z</time>
      </trkpt>
      <trkpt lat="45.62374" lon="6.79769">
        <ele>883.8</ele>
        <time>2021-07-23T08:10:16.285Z</time>
      </trkpt>
      <trkpt lat="45.62372" lon="6.79773">
        <ele>883.8</ele>
        <time>2021-07-23T08:10:17.285Z</time>
      </trkpt>
      <trkpt lat="45.6237" lon="6.79777">
        <ele>883.8</ele>
        <time>2021-07-23T08:10:18.285Z</time>
      </trkpt>
      <trkpt lat="45.62368" lon="6.79781">
        <ele>884.2</ele>
        <time>2021-07-23T08:10:19.285Z</time>
      </trkpt>
      <trkpt lat="45.62367" lon="6.79786">
        <ele>884.6</ele>
        <time>2021-07-23T08:10:20.285Z</time>
      </trkpt>
      <trkpt lat="45.62364" lon="6.7979">
        <ele>885</ele>
        <time>2021-07-23T08:10:21.285Z</time>
      </trkpt>
      <trkpt lat="45.62362" lon="6.79795">
        <ele>885.4</ele>
        <time>2021-07-23T08:10:22.285Z</time>
      </trkpt>
      <trkpt lat="45.6236" lon="6.798">
        <ele>885.8</ele>
        <time>2021-07-23T08:10:23.285Z</time>
      </trkpt>
      <trkpt lat="45.62358" lon="6.79804">
        <ele>885.8</ele>
        <time>2021-07-23T08:10:24.285Z</time>
      </trkpt>
      <trkpt lat="45.62355" lon="6.79809">
        <ele>885.8</ele>
        <time>2021-07-23T08:10:25.285Z</time>
      </trkpt>
      <trkpt lat="45.62353" lon="6.79814">
        <ele>885.8</ele>
        <time>2021-07-23T08:10:26.285Z</time>
      </trkpt>
      <trkpt lat="45.62351" lon="6.79819">
        <ele>885.8</ele>
        <time>2021-07-23T08:10:27.285Z</time>
      </trkpt>
      <trkpt lat="45.62349" lon="6.79823">
        <ele>885.8</ele>
        <time>2021-07-23T08:10:28.285Z</time>
      </trkpt>
      <trkpt lat="45.62347" lon="6.79827">
        <ele>885.8</ele>
        <time>2021-07-23T08:10:29.285Z</time>
      </trkpt>
      <trkpt lat="45.62345" lon="6.79831">
        <ele>885.8</ele>
        <time>2021-07-23T08:10:30.285Z</time>
      </trkpt>
      <trkpt lat="45.62343" lon="6.79836">
        <ele>886.4</ele>
        <time>2021-07-23T08:10:31.285Z</time>
      </trkpt>
      <trkpt lat="45.62342" lon="6.7984">
        <ele>887.2</ele>
        <time>2021-07-23T08:10:32.285Z</time>
      </trkpt>
      <trkpt lat="45.62339" lon="6.79845">
        <ele>887.6</ele>
        <time>2021-07-23T08:10:33.285Z</time>
      </trkpt>
      <trkpt lat="45.62337" lon="6.79849">
        <ele>888.2</ele>
        <time>2021-07-23T08:10:34.285Z</time>
      </trkpt>
      <trkpt lat="45.62334" lon="6.79853">
        <ele>888.2</ele>
        <time>2021-07-23T08:10:35.285Z</time>
      </trkpt>
      <trkpt lat="45.62332" lon="6.79857">
        <ele>888.2</ele>
        <time>2021-07-23T08:10:36.285Z</time>
      </trkpt>
      <trkpt lat="45.6233" lon="6.79861">
        <ele>888.2</ele>
        <time>2021-07-23T08:10:37.285Z</time>
      </trkpt>
      <trkpt lat="45.62328" lon="6.79865">
        <ele>888.2</ele>
        <time>2021-07-23T08:10:38.285Z</time>
      </trkpt>
      <trkpt lat="45.62326" lon="6.79869">
        <ele>888.2</ele>
        <time>2021-07-23T08:10:39.285Z</time>
      </trkpt>
      <trkpt lat="45.62324" lon="6.79874">
        <ele>888.2</ele>
        <time>2021-07-23T08:10:40.285Z</time>
      </trkpt>
      <trkpt lat="45.62323" lon="6.79879">
        <ele>888.2</ele>
        <time>2021-07-23T08:10:41.285Z</time>
      </trkpt>
      <trkpt lat="45.62321" lon="6.79884">
        <ele>888.2</ele>
        <time>2021-07-23T08:10:42.285Z</time>
      </trkpt>
      <trkpt lat="45.62319" lon="6.79889">
        <ele>888.2</ele>
        <time>2021-07-23T08:10:43.285Z</time>
      </trkpt>
      <trkpt lat="45.62318" lon="6.79894">
        <ele>888.2</ele>
        <time>2021-07-23T08:10:44.285Z</time>
      </trkpt>
      <trkpt lat="45.62316" lon="6.79899">
        <ele>888.2</ele>
        <time>2021-07-23T08:10:45.285Z</time>
      </trkpt>
      <trkpt lat="45.62314" lon="6.79904">
        <ele>888.6</ele>
        <time>2021-07-23T08:10:46.285Z</time>
      </trkpt>
      <trkpt lat="45.62312" lon="6.79909">
        <ele>889</ele>
        <time>2021-07-23T08:10:47.285Z</time>
      </trkpt>
      <trkpt lat="45.6231" lon="6.79913">
        <ele>889.4</ele>
        <time>2021-07-23T08:10:48.285Z</time>
      </trkpt>
      <trkpt lat="45.62306" lon="6.79918">
        <ele>889.8</ele>
        <time>2021-07-23T08:10:49.285Z</time>
      </trkpt>
      <trkpt lat="45.62304" lon="6.79923">
        <ele>890.4</ele>
        <time>2021-07-23T08:10:50.285Z</time>
      </trkpt>
      <trkpt lat="45.62301" lon="6.79928">
        <ele>890.4</ele>
        <time>2021-07-23T08:10:51.285Z</time>
      </trkpt>
      <trkpt lat="45.62299" lon="6.79933">
        <ele>890.4</ele>
        <time>2021-07-23T08:10:52.285Z</time>
      </trkpt>
      <trkpt lat="45.62298" lon="6.79938">
        <ele>890.4</ele>
        <time>2021-07-23T08:10:53.285Z</time>
      </trkpt>
      <trkpt lat="45.62296" lon="6.79943">
        <ele>890.4</ele>
        <time>2021-07-23T08:10:54.285Z</time>
      </trkpt>
      <trkpt lat="45.62294" lon="6.79948">
        <ele>890.4</ele>
        <time>2021-07-23T08:10:55.285Z</time>
      </trkpt>
      <trkpt lat="45.62292" lon="6.79952">
        <ele>890.8</ele>
        <time>2021-07-23T08:10:56.285Z</time>
      </trkpt>
      <trkpt lat="45.62291" lon="6.79956">
        <ele>891.2</ele>
        <time>2021-07-23T08:10:57.285Z</time>
      </trkpt>
      <trkpt lat="45.62289" lon="6.7996">
        <ele>891.6</ele>
        <time>2021-07-23T08:10:58.285Z</time>
      </trkpt>
      <trkpt lat="45.62287" lon="6.79964">
        <ele>892</ele>
        <time>2021-07-23T08:10:59.285Z</time>
      </trkpt>
      <trkpt lat="45.62285" lon="6.79968">
        <ele>892.4</ele>
        <time>2021-07-23T08:11:00.285Z</time>
      </trkpt>
      <trkpt lat="45.62282" lon="6.79971">
        <ele>892.4</ele>
        <time>2021-07-23T08:11:01.285Z</time>
      </trkpt>
      <trkpt lat="45.62279" lon="6.79975">
        <ele>892.4</ele>
        <time>2021-07-23T08:11:02.285Z</time>
      </trkpt>
      <trkpt lat="45.62277" lon="6.79979">
        <ele>892.4</ele>
        <time>2021-07-23T08:11:03.285Z</time>
      </trkpt>
      <trkpt lat="45.62275" lon="6.79983">
        <ele>892.4</ele>
        <time>2021-07-23T08:11:04.285Z</time>
      </trkpt>
      <trkpt lat="45.62272" lon="6.79986">
        <ele>892.4</ele>
        <time>2021-07-23T08:11:05.285Z</time>
      </trkpt>
      <trkpt lat="45.62268" lon="6.79989">
        <ele>892.4</ele>
        <time>2021-07-23T08:11:06.285Z</time>
      </trkpt>
      <trkpt lat="45.62264" lon="6.79992">
        <ele>892.4</ele>
        <time>2021-07-23T08:11:07.285Z</time>
      </trkpt>
      <trkpt lat="45.6226" lon="6.79996">
        <ele>892.4</ele>
        <time>2021-07-23T08:11:08.285Z</time>
      </trkpt>
      <trkpt lat="45.62257" lon="6.79999">
        <ele>892.4</ele>
        <time>2021-07-23T08:11:09.285Z</time>
      </trkpt>
      <trkpt lat="45.62254" lon="6.80003">
        <ele>892.8</ele>
        <time>2021-07-23T08:11:10.285Z</time>
      </trkpt>
      <trkpt lat="45.62252" lon="6.80006">
        <ele>893.2</ele>
        <time>2021-07-23T08:11:11.285Z</time>
      </trkpt>
      <trkpt lat="45.62249" lon="6.8001">
        <ele>893.6</ele>
        <time>2021-07-23T08:11:12.285Z</time>
      </trkpt>
      <trkpt lat="45.62245" lon="6.80015">
        <ele>894</ele>
        <time>2021-07-23T08:11:13.285Z</time>
      </trkpt>
      <trkpt lat="45.6224" lon="6.80021">
        <ele>894.4</ele>
        <time>2021-07-23T08:11:14.285Z</time>
      </trkpt>
      <trkpt lat="45.62237" lon="6.80026">
        <ele>894.4</ele>
        <time>2021-07-23T08:11:15.285Z</time>
      </trkpt>
      <trkpt lat="45.62234" lon="6.80032">
        <ele>894.4</ele>
        <time>2021-07-23T08:11:16.285Z</time>
      </trkpt>
      <trkpt lat="45.6223" lon="6.80038">
        <ele>894.4</ele>
        <time>2021-07-23T08:11:17.285Z</time>
      </trkpt>
      <trkpt lat="45.62227" lon="6.80044">
        <ele>894.4</ele>
        <time>2021-07-23T08:11:18.285Z</time>
      </trkpt>
      <trkpt lat="45.62224" lon="6.80049">
        <ele>894.4</ele>
        <time>2021-07-23T08:11:19.285Z</time>
      </trkpt>
      <trkpt lat="45.62222" lon="6.80054">
        <ele>894.4</ele>
        <time>2021-07-23T08:11:20.285Z</time>
      </trkpt>
      <trkpt lat="45.62219" lon="6.80059">
        <ele>894.4</ele>
        <time>2021-07-23T08:11:21.285Z</time>
      </trkpt>
      <trkpt lat="45.62216" lon="6.80063">
        <ele>894.4</ele>
        <time>2021-07-23T08:11:22.285Z</time>
      </trkpt>
      <trkpt lat="45.62213" lon="6.80068">
        <ele>894.8</ele>
        <time>2021-07-23T08:11:23.285Z</time>
      </trkpt>
      <trkpt lat="45.6221" lon="6.80074">
        <ele>895.2</ele>
        <time>2021-07-23T08:11:24.285Z</time>
      </trkpt>
      <trkpt lat="45.62208" lon="6.80079">
        <ele>895.8</ele>
        <time>2021-07-23T08:11:25.285Z</time>
      </trkpt>
      <trkpt lat="45.62205" lon="6.80085">
        <ele>896.2</ele>
        <time>2021-07-23T08:11:26.285Z</time>
      </trkpt>
      <trkpt lat="45.62202" lon="6.80091">
        <ele>896.6</ele>
        <time>2021-07-23T08:11:27.285Z</time>
      </trkpt>
      <trkpt lat="45.62199" lon="6.80097">
        <ele>896.6</ele>
        <time>2021-07-23T08:11:28.285Z</time>
      </trkpt>
      <trkpt lat="45.62196" lon="6.80102">
        <ele>896.6</ele>
        <time>2021-07-23T08:11:29.285Z</time>
      </trkpt>
      <trkpt lat="45.62193" lon="6.80108">
        <ele>896.6</ele>
        <time>2021-07-23T08:11:30.285Z</time>
      </trkpt>
      <trkpt lat="45.6219" lon="6.80113">
        <ele>896.6</ele>
        <time>2021-07-23T08:11:31.285Z</time>
      </trkpt>
      <trkpt lat="45.62187" lon="6.80118">
        <ele>896.6</ele>
        <time>2021-07-23T08:11:32.285Z</time>
      </trkpt>
      <trkpt lat="45.62184" lon="6.80123">
        <ele>896.6</ele>
        <time>2021-07-23T08:11:33.285Z</time>
      </trkpt>
      <trkpt lat="45.62181" lon="6.80127">
        <ele>896.6</ele>
        <time>2021-07-23T08:11:34.285Z</time>
      </trkpt>
      <trkpt lat="45.62178" lon="6.80131">
        <ele>896.6</ele>
        <time>2021-07-23T08:11:35.285Z</time>
      </trkpt>
      <trkpt lat="45.62176" lon="6.80135">
        <ele>896.6</ele>
        <time>2021-07-23T08:11:36.285Z</time>
      </trkpt>
      <trkpt lat="45.62174" lon="6.80139">
        <ele>896.6</ele>
        <time>2021-07-23T08:11:37.285Z</time>
      </trkpt>
      <trkpt lat="45.62171" lon="6.80143">
        <ele>896.6</ele>
        <time>2021-07-23T08:11:38.285Z</time>
      </trkpt>
      <trkpt lat="45.62168" lon="6.80148">
        <ele>896.6</ele>
        <time>2021-07-23T08:11:39.285Z</time>
      </trkpt>
      <trkpt lat="45.62165" lon="6.80152">
        <ele>896.6</ele>
        <time>2021-07-23T08:11:40.285Z</time>
      </trkpt>
      <trkpt lat="45.62161" lon="6.80158">
        <ele>896.6</ele>
        <time>2021-07-23T08:11:41.285Z</time>
      </trkpt>
      <trkpt lat="45.62157" lon="6.80163">
        <ele>896.6</ele>
        <time>2021-07-23T08:11:42.285Z</time>
      </trkpt>
      <trkpt lat="45.62154" lon="6.80168">
        <ele>896.6</ele>
        <time>2021-07-23T08:11:43.285Z</time>
      </trkpt>
      <trkpt lat="45.6215" lon="6.80173">
        <ele>896.6</ele>
        <time>2021-07-23T08:11:44.285Z</time>
      </trkpt>
      <trkpt lat="45.62146" lon="6.80178">
        <ele>896.6</ele>
        <time>2021-07-23T08:11:45.285Z</time>
      </trkpt>
      <trkpt lat="45.62142" lon="6.80183">
        <ele>896.6</ele>
        <time>2021-07-23T08:11:46.285Z</time>
      </trkpt>
      <trkpt lat="45.62138" lon="6.80187">
        <ele>896.6</ele>
        <time>2021-07-23T08:11:47.285Z</time>
      </trkpt>
      <trkpt lat="45.62133" lon="6.80192">
        <ele>896.6</ele>
        <time>2021-07-23T08:11:48.285Z</time>
      </trkpt>
      <trkpt lat="45.62128" lon="6.80196">
        <ele>896.6</ele>
        <time>2021-07-23T08:11:49.285Z</time>
      </trkpt>
      <trkpt lat="45.62123" lon="6.80201">
        <ele>896.6</ele>
        <time>2021-07-23T08:11:50.285Z</time>
      </trkpt>
      <trkpt lat="45.62119" lon="6.80206">
        <ele>896.6</ele>
        <time>2021-07-23T08:11:51.285Z</time>
      </trkpt>
      <trkpt lat="45.62113" lon="6.8021">
        <ele>896.6</ele>
        <time>2021-07-23T08:11:52.285Z</time>
      </trkpt>
      <trkpt lat="45.62108" lon="6.80215">
        <ele>896.6</ele>
        <time>2021-07-23T08:11:53.285Z</time>
      </trkpt>
      <trkpt lat="45.62103" lon="6.80219">
        <ele>896.6</ele>
        <time>2021-07-23T08:11:54.285Z</time>
      </trkpt>
      <trkpt lat="45.62098" lon="6.80224">
        <ele>896.6</ele>
        <time>2021-07-23T08:11:55.285Z</time>
      </trkpt>
      <trkpt lat="45.62094" lon="6.80229">
        <ele>896.6</ele>
        <time>2021-07-23T08:11:56.285Z</time>
      </trkpt>
      <trkpt lat="45.62089" lon="6.80234">
        <ele>896.6</ele>
        <time>2021-07-23T08:11:57.285Z</time>
      </trkpt>
      <trkpt lat="45.62085" lon="6.80238">
        <ele>896.6</ele>
        <time>2021-07-23T08:11:58.285Z</time>
      </trkpt>
      <trkpt lat="45.6208" lon="6.80244">
        <ele>896.6</ele>
        <time>2021-07-23T08:11:59.285Z</time>
      </trkpt>
      <trkpt lat="45.62075" lon="6.8025">
        <ele>896.6</ele>
        <time>2021-07-23T08:12:00.285Z</time>
      </trkpt>
      <trkpt lat="45.6207" lon="6.80255">
        <ele>896.6</ele>
        <time>2021-07-23T08:12:01.285Z</time>
      </trkpt>
      <trkpt lat="45.62065" lon="6.80261">
        <ele>896.6</ele>
        <time>2021-07-23T08:12:02.285Z</time>
      </trkpt>
      <trkpt lat="45.62061" lon="6.80266">
        <ele>896.6</ele>
        <time>2021-07-23T08:12:03.285Z</time>
      </trkpt>
      <trkpt lat="45.62055" lon="6.80272">
        <ele>896.6</ele>
        <time>2021-07-23T08:12:04.285Z</time>
      </trkpt>
      <trkpt lat="45.6205" lon="6.80276">
        <ele>896.6</ele>
        <time>2021-07-23T08:12:05.285Z</time>
      </trkpt>
      <trkpt lat="45.62045" lon="6.80281">
        <ele>896.6</ele>
        <time>2021-07-23T08:12:06.285Z</time>
      </trkpt>
      <trkpt lat="45.62039" lon="6.80287">
        <ele>896.6</ele>
        <time>2021-07-23T08:12:07.285Z</time>
      </trkpt>
      <trkpt lat="45.62034" lon="6.80293">
        <ele>896.6</ele>
        <time>2021-07-23T08:12:08.285Z</time>
      </trkpt>
      <trkpt lat="45.62029" lon="6.80299">
        <ele>896.6</ele>
        <time>2021-07-23T08:12:09.285Z</time>
      </trkpt>
      <trkpt lat="45.62024" lon="6.80305">
        <ele>896.6</ele>
        <time>2021-07-23T08:12:10.285Z</time>
      </trkpt>
      <trkpt lat="45.62019" lon="6.80312">
        <ele>896.6</ele>
        <time>2021-07-23T08:12:11.285Z</time>
      </trkpt>
      <trkpt lat="45.62014" lon="6.80319">
        <ele>896.6</ele>
        <time>2021-07-23T08:12:12.285Z</time>
      </trkpt>
      <trkpt lat="45.6201" lon="6.80326">
        <ele>896.6</ele>
        <time>2021-07-23T08:12:13.285Z</time>
      </trkpt>
      <trkpt lat="45.62005" lon="6.80332">
        <ele>896.6</ele>
        <time>2021-07-23T08:12:14.285Z</time>
      </trkpt>
      <trkpt lat="45.62001" lon="6.80339">
        <ele>896.6</ele>
        <time>2021-07-23T08:12:15.285Z</time>
      </trkpt>
      <trkpt lat="45.61996" lon="6.80346">
        <ele>896.6</ele>
        <time>2021-07-23T08:12:16.285Z</time>
      </trkpt>
      <trkpt lat="45.61991" lon="6.80353">
        <ele>896.6</ele>
        <time>2021-07-23T08:12:17.285Z</time>
      </trkpt>
      <trkpt lat="45.61986" lon="6.8036">
        <ele>896.6</ele>
        <time>2021-07-23T08:12:18.285Z</time>
      </trkpt>
      <trkpt lat="45.61981" lon="6.80369">
        <ele>896.6</ele>
        <time>2021-07-23T08:12:19.285Z</time>
      </trkpt>
      <trkpt lat="45.61977" lon="6.80377">
        <ele>896.6</ele>
        <time>2021-07-23T08:12:20.285Z</time>
      </trkpt>
      <trkpt lat="45.61972" lon="6.80386">
        <ele>896.2</ele>
        <time>2021-07-23T08:12:21.285Z</time>
      </trkpt>
      <trkpt lat="45.61968" lon="6.80394">
        <ele>895.8</ele>
        <time>2021-07-23T08:12:22.285Z</time>
      </trkpt>
      <trkpt lat="45.61963" lon="6.80404">
        <ele>895.4</ele>
        <time>2021-07-23T08:12:23.285Z</time>
      </trkpt>
      <trkpt lat="45.61959" lon="6.80413">
        <ele>894.8</ele>
        <time>2021-07-23T08:12:24.285Z</time>
      </trkpt>
      <trkpt lat="45.61955" lon="6.80424">
        <ele>894.4</ele>
        <time>2021-07-23T08:12:25.285Z</time>
      </trkpt>
      <trkpt lat="45.6195" lon="6.80435">
        <ele>894.4</ele>
        <time>2021-07-23T08:12:26.285Z</time>
      </trkpt>
      <trkpt lat="45.61945" lon="6.80445">
        <ele>894.4</ele>
        <time>2021-07-23T08:12:27.285Z</time>
      </trkpt>
      <trkpt lat="45.61941" lon="6.80456">
        <ele>894.4</ele>
        <time>2021-07-23T08:12:28.285Z</time>
      </trkpt>
      <trkpt lat="45.61936" lon="6.80468">
        <ele>894.4</ele>
        <time>2021-07-23T08:12:29.285Z</time>
      </trkpt>
      <trkpt lat="45.61931" lon="6.80479">
        <ele>894.4</ele>
        <time>2021-07-23T08:12:30.285Z</time>
      </trkpt>
      <trkpt lat="45.61927" lon="6.8049">
        <ele>894</ele>
        <time>2021-07-23T08:12:31.285Z</time>
      </trkpt>
      <trkpt lat="45.61922" lon="6.80502">
        <ele>893.6</ele>
        <time>2021-07-23T08:12:32.285Z</time>
      </trkpt>
      <trkpt lat="45.61917" lon="6.80514">
        <ele>893</ele>
        <time>2021-07-23T08:12:33.285Z</time>
      </trkpt>
      <trkpt lat="45.61912" lon="6.80527">
        <ele>892.6</ele>
        <time>2021-07-23T08:12:34.285Z</time>
      </trkpt>
      <trkpt lat="45.61907" lon="6.80539">
        <ele>892.2</ele>
        <time>2021-07-23T08:12:35.285Z</time>
      </trkpt>
      <trkpt lat="45.61902" lon="6.80551">
        <ele>892.2</ele>
        <time>2021-07-23T08:12:36.285Z</time>
      </trkpt>
      <trkpt lat="45.61897" lon="6.80564">
        <ele>892.2</ele>
        <time>2021-07-23T08:12:37.285Z</time>
      </trkpt>
      <trkpt lat="45.61892" lon="6.80576">
        <ele>892.2</ele>
        <time>2021-07-23T08:12:38.285Z</time>
      </trkpt>
      <trkpt lat="45.61887" lon="6.80588">
        <ele>892.2</ele>
        <time>2021-07-23T08:12:39.285Z</time>
      </trkpt>
      <trkpt lat="45.61882" lon="6.806">
        <ele>892.2</ele>
        <time>2021-07-23T08:12:40.285Z</time>
      </trkpt>
      <trkpt lat="45.61877" lon="6.80612">
        <ele>891.6</ele>
        <time>2021-07-23T08:12:41.285Z</time>
      </trkpt>
      <trkpt lat="45.61871" lon="6.80625">
        <ele>891.2</ele>
        <time>2021-07-23T08:12:42.285Z</time>
      </trkpt>
      <trkpt lat="45.61866" lon="6.80637">
        <ele>890.8</ele>
        <time>2021-07-23T08:12:43.285Z</time>
      </trkpt>
      <trkpt lat="45.61862" lon="6.8065">
        <ele>890.2</ele>
        <time>2021-07-23T08:12:44.285Z</time>
      </trkpt>
      <trkpt lat="45.61857" lon="6.80662">
        <ele>889.8</ele>
        <time>2021-07-23T08:12:45.285Z</time>
      </trkpt>
      <trkpt lat="45.61851" lon="6.80674">
        <ele>889.8</ele>
        <time>2021-07-23T08:12:46.285Z</time>
      </trkpt>
      <trkpt lat="45.61846" lon="6.80686">
        <ele>889.8</ele>
        <time>2021-07-23T08:12:47.285Z</time>
      </trkpt>
      <trkpt lat="45.61841" lon="6.80699">
        <ele>889.4</ele>
        <time>2021-07-23T08:12:48.285Z</time>
      </trkpt>
      <trkpt lat="45.61836" lon="6.80712">
        <ele>889</ele>
        <time>2021-07-23T08:12:49.285Z</time>
      </trkpt>
      <trkpt lat="45.6183" lon="6.80724">
        <ele>888.4</ele>
        <time>2021-07-23T08:12:50.285Z</time>
      </trkpt>
      <trkpt lat="45.61825" lon="6.80736">
        <ele>888</ele>
        <time>2021-07-23T08:12:51.285Z</time>
      </trkpt>
      <trkpt lat="45.61819" lon="6.80749">
        <ele>887.6</ele>
        <time>2021-07-23T08:12:52.285Z</time>
      </trkpt>
      <trkpt lat="45.61814" lon="6.80761">
        <ele>887.6</ele>
        <time>2021-07-23T08:12:53.285Z</time>
      </trkpt>
      <trkpt lat="45.61809" lon="6.80774">
        <ele>887.6</ele>
        <time>2021-07-23T08:12:54.285Z</time>
      </trkpt>
      <trkpt lat="45.61805" lon="6.80786">
        <ele>887.6</ele>
        <time>2021-07-23T08:12:55.285Z</time>
      </trkpt>
      <trkpt lat="45.618" lon="6.80799">
        <ele>887.6</ele>
        <time>2021-07-23T08:12:56.285Z</time>
      </trkpt>
      <trkpt lat="45.61796" lon="6.80812">
        <ele>887.6</ele>
        <time>2021-07-23T08:12:57.285Z</time>
      </trkpt>
      <trkpt lat="45.61792" lon="6.80824">
        <ele>887.6</ele>
        <time>2021-07-23T08:12:58.285Z</time>
      </trkpt>
      <trkpt lat="45.61789" lon="6.80836">
        <ele>887.6</ele>
        <time>2021-07-23T08:12:59.285Z</time>
      </trkpt>
      <trkpt lat="45.61786" lon="6.80848">
        <ele>886.8</ele>
        <time>2021-07-23T08:13:00.285Z</time>
      </trkpt>
      <trkpt lat="45.61785" lon="6.80861">
        <ele>886.4</ele>
        <time>2021-07-23T08:13:01.285Z</time>
      </trkpt>
      <trkpt lat="45.61783" lon="6.80873">
        <ele>886</ele>
        <time>2021-07-23T08:13:02.285Z</time>
      </trkpt>
      <trkpt lat="45.6178" lon="6.80886">
        <ele>885.4</ele>
        <time>2021-07-23T08:13:03.285Z</time>
      </trkpt>
      <trkpt lat="45.61778" lon="6.80899">
        <ele>885.4</ele>
        <time>2021-07-23T08:13:04.285Z</time>
      </trkpt>
      <trkpt lat="45.61776" lon="6.80911">
        <ele>885.4</ele>
        <time>2021-07-23T08:13:05.285Z</time>
      </trkpt>
      <trkpt lat="45.61774" lon="6.80924">
        <ele>885.4</ele>
        <time>2021-07-23T08:13:06.285Z</time>
      </trkpt>
      <trkpt lat="45.61772" lon="6.80936">
        <ele>885.4</ele>
        <time>2021-07-23T08:13:07.285Z</time>
      </trkpt>
      <trkpt lat="45.6177" lon="6.80947">
        <ele>885.4</ele>
        <time>2021-07-23T08:13:08.285Z</time>
      </trkpt>
      <trkpt lat="45.61769" lon="6.80959">
        <ele>885.4</ele>
        <time>2021-07-23T08:13:09.285Z</time>
      </trkpt>
      <trkpt lat="45.61766" lon="6.80971">
        <ele>885.4</ele>
        <time>2021-07-23T08:13:10.285Z</time>
      </trkpt>
      <trkpt lat="45.61764" lon="6.80984">
        <ele>885</ele>
        <time>2021-07-23T08:13:11.285Z</time>
      </trkpt>
      <trkpt lat="45.61763" lon="6.80996">
        <ele>884.6</ele>
        <time>2021-07-23T08:13:12.285Z</time>
      </trkpt>
      <trkpt lat="45.61761" lon="6.81008">
        <ele>884.2</ele>
        <time>2021-07-23T08:13:13.285Z</time>
      </trkpt>
      <trkpt lat="45.61759" lon="6.8102">
        <ele>883.8</ele>
        <time>2021-07-23T08:13:14.285Z</time>
      </trkpt>
      <trkpt lat="45.61757" lon="6.81032">
        <ele>883.4</ele>
        <time>2021-07-23T08:13:15.285Z</time>
      </trkpt>
      <trkpt lat="45.61755" lon="6.81045">
        <ele>883.4</ele>
        <time>2021-07-23T08:13:16.285Z</time>
      </trkpt>
      <trkpt lat="45.61753" lon="6.81057">
        <ele>883.4</ele>
        <time>2021-07-23T08:13:17.285Z</time>
      </trkpt>
      <trkpt lat="45.6175" lon="6.8107">
        <ele>883.4</ele>
        <time>2021-07-23T08:13:18.285Z</time>
      </trkpt>
      <trkpt lat="45.61749" lon="6.81083">
        <ele>883.4</ele>
        <time>2021-07-23T08:13:19.285Z</time>
      </trkpt>
      <trkpt lat="45.61747" lon="6.81096">
        <ele>883.4</ele>
        <time>2021-07-23T08:13:20.285Z</time>
      </trkpt>
      <trkpt lat="45.61745" lon="6.81109">
        <ele>883.4</ele>
        <time>2021-07-23T08:13:21.285Z</time>
      </trkpt>
      <trkpt lat="45.61742" lon="6.81122">
        <ele>883.4</ele>
        <time>2021-07-23T08:13:22.285Z</time>
      </trkpt>
      <trkpt lat="45.6174" lon="6.81134">
        <ele>883.4</ele>
        <time>2021-07-23T08:13:23.285Z</time>
      </trkpt>
      <trkpt lat="45.61738" lon="6.81146">
        <ele>883.4</ele>
        <time>2021-07-23T08:13:24.285Z</time>
      </trkpt>
      <trkpt lat="45.61737" lon="6.81158">
        <ele>882.6</ele>
        <time>2021-07-23T08:13:25.285Z</time>
      </trkpt>
      <trkpt lat="45.61735" lon="6.81171">
        <ele>882.2</ele>
        <time>2021-07-23T08:13:26.285Z</time>
      </trkpt>
      <trkpt lat="45.61733" lon="6.81184">
        <ele>881.8</ele>
        <time>2021-07-23T08:13:27.285Z</time>
      </trkpt>
      <trkpt lat="45.61731" lon="6.81197">
        <ele>881.4</ele>
        <time>2021-07-23T08:13:28.285Z</time>
      </trkpt>
      <trkpt lat="45.6173" lon="6.81209">
        <ele>881.4</ele>
        <time>2021-07-23T08:13:29.285Z</time>
      </trkpt>
      <trkpt lat="45.61728" lon="6.81222">
        <ele>881.4</ele>
        <time>2021-07-23T08:13:30.285Z</time>
      </trkpt>
      <trkpt lat="45.61728" lon="6.81234">
        <ele>880.8</ele>
        <time>2021-07-23T08:13:31.285Z</time>
      </trkpt>
      <trkpt lat="45.61726" lon="6.81247">
        <ele>880.4</ele>
        <time>2021-07-23T08:13:32.285Z</time>
      </trkpt>
      <trkpt lat="45.61725" lon="6.81259">
        <ele>879.8</ele>
        <time>2021-07-23T08:13:33.285Z</time>
      </trkpt>
      <trkpt lat="45.61724" lon="6.81272">
        <ele>879.4</ele>
        <time>2021-07-23T08:13:34.285Z</time>
      </trkpt>
      <trkpt lat="45.61723" lon="6.81285">
        <ele>879</ele>
        <time>2021-07-23T08:13:35.285Z</time>
      </trkpt>
      <trkpt lat="45.61722" lon="6.81298">
        <ele>879</ele>
        <time>2021-07-23T08:13:36.285Z</time>
      </trkpt>
      <trkpt lat="45.61721" lon="6.81311">
        <ele>879</ele>
        <time>2021-07-23T08:13:37.285Z</time>
      </trkpt>
      <trkpt lat="45.61721" lon="6.81324">
        <ele>879</ele>
        <time>2021-07-23T08:13:38.285Z</time>
      </trkpt>
      <trkpt lat="45.6172" lon="6.81337">
        <ele>879</ele>
        <time>2021-07-23T08:13:39.285Z</time>
      </trkpt>
      <trkpt lat="45.61719" lon="6.8135">
        <ele>879</ele>
        <time>2021-07-23T08:13:40.285Z</time>
      </trkpt>
      <trkpt lat="45.61718" lon="6.81363">
        <ele>879</ele>
        <time>2021-07-23T08:13:41.285Z</time>
      </trkpt>
      <trkpt lat="45.61717" lon="6.81376">
        <ele>878.6</ele>
        <time>2021-07-23T08:13:42.285Z</time>
      </trkpt>
      <trkpt lat="45.61716" lon="6.8139">
        <ele>878.2</ele>
        <time>2021-07-23T08:13:43.285Z</time>
      </trkpt>
      <trkpt lat="45.61715" lon="6.81403">
        <ele>877.6</ele>
        <time>2021-07-23T08:13:44.285Z</time>
      </trkpt>
      <trkpt lat="45.61715" lon="6.81417">
        <ele>877.2</ele>
        <time>2021-07-23T08:13:45.285Z</time>
      </trkpt>
      <trkpt lat="45.61714" lon="6.8143">
        <ele>876.8</ele>
        <time>2021-07-23T08:13:46.285Z</time>
      </trkpt>
      <trkpt lat="45.61713" lon="6.81443">
        <ele>876.4</ele>
        <time>2021-07-23T08:13:47.285Z</time>
      </trkpt>
      <trkpt lat="45.61712" lon="6.81457">
        <ele>876</ele>
        <time>2021-07-23T08:13:48.285Z</time>
      </trkpt>
      <trkpt lat="45.6171" lon="6.81471">
        <ele>874.8</ele>
        <time>2021-07-23T08:13:49.285Z</time>
      </trkpt>
      <trkpt lat="45.6171" lon="6.81485">
        <ele>874.2</ele>
        <time>2021-07-23T08:13:50.285Z</time>
      </trkpt>
      <trkpt lat="45.61709" lon="6.81499">
        <ele>873.6</ele>
        <time>2021-07-23T08:13:51.285Z</time>
      </trkpt>
      <trkpt lat="45.61708" lon="6.81513">
        <ele>873</ele>
        <time>2021-07-23T08:13:52.285Z</time>
      </trkpt>
      <trkpt lat="45.61707" lon="6.81527">
        <ele>872.4</ele>
        <time>2021-07-23T08:13:53.285Z</time>
      </trkpt>
      <trkpt lat="45.61706" lon="6.81542">
        <ele>872.4</ele>
        <time>2021-07-23T08:13:54.285Z</time>
      </trkpt>
      <trkpt lat="45.61705" lon="6.81556">
        <ele>872.4</ele>
        <time>2021-07-23T08:13:55.285Z</time>
      </trkpt>
      <trkpt lat="45.61704" lon="6.81571">
        <ele>872</ele>
        <time>2021-07-23T08:13:56.285Z</time>
      </trkpt>
      <trkpt lat="45.61703" lon="6.81587">
        <ele>871.6</ele>
        <time>2021-07-23T08:13:57.285Z</time>
      </trkpt>
      <trkpt lat="45.61701" lon="6.81601">
        <ele>871</ele>
        <time>2021-07-23T08:13:58.285Z</time>
      </trkpt>
      <trkpt lat="45.61701" lon="6.81617">
        <ele>870.6</ele>
        <time>2021-07-23T08:13:59.285Z</time>
      </trkpt>
      <trkpt lat="45.617" lon="6.81633">
        <ele>870.2</ele>
        <time>2021-07-23T08:14:00.285Z</time>
      </trkpt>
      <trkpt lat="45.61698" lon="6.81648">
        <ele>869.6</ele>
        <time>2021-07-23T08:14:01.285Z</time>
      </trkpt>
      <trkpt lat="45.61696" lon="6.81663">
        <ele>869.2</ele>
        <time>2021-07-23T08:14:02.285Z</time>
      </trkpt>
      <trkpt lat="45.61693" lon="6.81678">
        <ele>868.8</ele>
        <time>2021-07-23T08:14:03.285Z</time>
      </trkpt>
      <trkpt lat="45.6169" lon="6.81693">
        <ele>868.4</ele>
        <time>2021-07-23T08:14:04.285Z</time>
      </trkpt>
      <trkpt lat="45.61686" lon="6.81707">
        <ele>867.8</ele>
        <time>2021-07-23T08:14:05.285Z</time>
      </trkpt>
      <trkpt lat="45.61681" lon="6.81721">
        <ele>867.2</ele>
        <time>2021-07-23T08:14:06.285Z</time>
      </trkpt>
      <trkpt lat="45.61677" lon="6.81736">
        <ele>866.8</ele>
        <time>2021-07-23T08:14:07.285Z</time>
      </trkpt>
      <trkpt lat="45.61672" lon="6.8175">
        <ele>866.2</ele>
        <time>2021-07-23T08:14:08.285Z</time>
      </trkpt>
      <trkpt lat="45.61667" lon="6.81764">
        <ele>865.8</ele>
        <time>2021-07-23T08:14:09.285Z</time>
      </trkpt>
      <trkpt lat="45.61662" lon="6.81778">
        <ele>865.8</ele>
        <time>2021-07-23T08:14:10.285Z</time>
      </trkpt>
      <trkpt lat="45.61657" lon="6.81792">
        <ele>865.4</ele>
        <time>2021-07-23T08:14:11.285Z</time>
      </trkpt>
      <trkpt lat="45.61652" lon="6.81806">
        <ele>865</ele>
        <time>2021-07-23T08:14:12.285Z</time>
      </trkpt>
      <trkpt lat="45.61647" lon="6.8182">
        <ele>864.4</ele>
        <time>2021-07-23T08:14:13.285Z</time>
      </trkpt>
      <trkpt lat="45.61642" lon="6.81835">
        <ele>863.6</ele>
        <time>2021-07-23T08:14:14.285Z</time>
      </trkpt>
      <trkpt lat="45.61637" lon="6.81849">
        <ele>863.6</ele>
        <time>2021-07-23T08:14:15.285Z</time>
      </trkpt>
      <trkpt lat="45.61633" lon="6.81863">
        <ele>863.2</ele>
        <time>2021-07-23T08:14:16.285Z</time>
      </trkpt>
      <trkpt lat="45.61628" lon="6.81877">
        <ele>862.8</ele>
        <time>2021-07-23T08:14:17.285Z</time>
      </trkpt>
      <trkpt lat="45.61623" lon="6.81892">
        <ele>862.2</ele>
        <time>2021-07-23T08:14:18.285Z</time>
      </trkpt>
      <trkpt lat="45.61619" lon="6.81905">
        <ele>861.8</ele>
        <time>2021-07-23T08:14:19.285Z</time>
      </trkpt>
      <trkpt lat="45.61614" lon="6.81919">
        <ele>861.4</ele>
        <time>2021-07-23T08:14:20.285Z</time>
      </trkpt>
      <trkpt lat="45.6161" lon="6.81933">
        <ele>861.4</ele>
        <time>2021-07-23T08:14:21.285Z</time>
      </trkpt>
      <trkpt lat="45.61605" lon="6.81946">
        <ele>861.4</ele>
        <time>2021-07-23T08:14:22.285Z</time>
      </trkpt>
      <trkpt lat="45.61601" lon="6.81959">
        <ele>861</ele>
        <time>2021-07-23T08:14:23.285Z</time>
      </trkpt>
      <trkpt lat="45.61597" lon="6.81971">
        <ele>860.6</ele>
        <time>2021-07-23T08:14:24.285Z</time>
      </trkpt>
      <trkpt lat="45.61593" lon="6.81983">
        <ele>860</ele>
        <time>2021-07-23T08:14:25.285Z</time>
      </trkpt>
      <trkpt lat="45.61589" lon="6.81995">
        <ele>859.6</ele>
        <time>2021-07-23T08:14:26.285Z</time>
      </trkpt>
      <trkpt lat="45.61584" lon="6.82007">
        <ele>859.2</ele>
        <time>2021-07-23T08:14:27.285Z</time>
      </trkpt>
      <trkpt lat="45.6158" lon="6.82019">
        <ele>859.2</ele>
        <time>2021-07-23T08:14:28.285Z</time>
      </trkpt>
      <trkpt lat="45.61576" lon="6.82032">
        <ele>858.8</ele>
        <time>2021-07-23T08:14:29.285Z</time>
      </trkpt>
      <trkpt lat="45.61572" lon="6.82044">
        <ele>858.4</ele>
        <time>2021-07-23T08:14:30.285Z</time>
      </trkpt>
      <trkpt lat="45.61568" lon="6.82056">
        <ele>857.8</ele>
        <time>2021-07-23T08:14:31.285Z</time>
      </trkpt>
      <trkpt lat="45.61564" lon="6.82068">
        <ele>857.4</ele>
        <time>2021-07-23T08:14:32.285Z</time>
      </trkpt>
      <trkpt lat="45.6156" lon="6.82079">
        <ele>857</ele>
        <time>2021-07-23T08:14:33.285Z</time>
      </trkpt>
      <trkpt lat="45.61556" lon="6.82091">
        <ele>857</ele>
        <time>2021-07-23T08:14:34.285Z</time>
      </trkpt>
      <trkpt lat="45.61552" lon="6.82103">
        <ele>857</ele>
        <time>2021-07-23T08:14:35.285Z</time>
      </trkpt>
      <trkpt lat="45.61548" lon="6.82115">
        <ele>857</ele>
        <time>2021-07-23T08:14:36.285Z</time>
      </trkpt>
      <trkpt lat="45.61544" lon="6.82127">
        <ele>856.6</ele>
        <time>2021-07-23T08:14:37.285Z</time>
      </trkpt>
      <trkpt lat="45.6154" lon="6.82138">
        <ele>856.2</ele>
        <time>2021-07-23T08:14:38.285Z</time>
      </trkpt>
      <trkpt lat="45.61535" lon="6.82149">
        <ele>855.4</ele>
        <time>2021-07-23T08:14:39.285Z</time>
      </trkpt>
      <trkpt lat="45.61531" lon="6.82159">
        <ele>854.8</ele>
        <time>2021-07-23T08:14:40.285Z</time>
      </trkpt>
      <trkpt lat="45.61527" lon="6.82169">
        <ele>854.8</ele>
        <time>2021-07-23T08:14:41.285Z</time>
      </trkpt>
      <trkpt lat="45.61522" lon="6.82179">
        <ele>854.8</ele>
        <time>2021-07-23T08:14:42.285Z</time>
      </trkpt>
      <trkpt lat="45.61516" lon="6.82188">
        <ele>854.8</ele>
        <time>2021-07-23T08:14:43.285Z</time>
      </trkpt>
      <trkpt lat="45.61511" lon="6.82196">
        <ele>854.8</ele>
        <time>2021-07-23T08:14:44.285Z</time>
      </trkpt>
      <trkpt lat="45.61505" lon="6.82204">
        <ele>854.8</ele>
        <time>2021-07-23T08:14:45.285Z</time>
      </trkpt>
      <trkpt lat="45.615" lon="6.82212">
        <ele>854.8</ele>
        <time>2021-07-23T08:14:46.285Z</time>
      </trkpt>
      <trkpt lat="45.61494" lon="6.8222">
        <ele>854.8</ele>
        <time>2021-07-23T08:14:47.285Z</time>
      </trkpt>
      <trkpt lat="45.61488" lon="6.82226">
        <ele>854.8</ele>
        <time>2021-07-23T08:14:48.285Z</time>
      </trkpt>
      <trkpt lat="45.61482" lon="6.82233">
        <ele>854.8</ele>
        <time>2021-07-23T08:14:49.285Z</time>
      </trkpt>
      <trkpt lat="45.61477" lon="6.8224">
        <ele>854.8</ele>
        <time>2021-07-23T08:14:50.285Z</time>
      </trkpt>
      <trkpt lat="45.61471" lon="6.82247">
        <ele>854.8</ele>
        <time>2021-07-23T08:14:51.285Z</time>
      </trkpt>
      <trkpt lat="45.61466" lon="6.82254">
        <ele>854.8</ele>
        <time>2021-07-23T08:14:52.285Z</time>
      </trkpt>
      <trkpt lat="45.61461" lon="6.82261">
        <ele>854.8</ele>
        <time>2021-07-23T08:14:53.285Z</time>
      </trkpt>
      <trkpt lat="45.61455" lon="6.82268">
        <ele>854.8</ele>
        <time>2021-07-23T08:14:54.285Z</time>
      </trkpt>
      <trkpt lat="45.6145" lon="6.82274">
        <ele>854.8</ele>
        <time>2021-07-23T08:14:55.285Z</time>
      </trkpt>
      <trkpt lat="45.61445" lon="6.82281">
        <ele>854.8</ele>
        <time>2021-07-23T08:14:56.285Z</time>
      </trkpt>
      <trkpt lat="45.6144" lon="6.82287">
        <ele>854.8</ele>
        <time>2021-07-23T08:14:57.285Z</time>
      </trkpt>
      <trkpt lat="45.61435" lon="6.82293">
        <ele>854.8</ele>
        <time>2021-07-23T08:14:58.285Z</time>
      </trkpt>
      <trkpt lat="45.6143" lon="6.82299">
        <ele>854.8</ele>
        <time>2021-07-23T08:14:59.285Z</time>
      </trkpt>
      <trkpt lat="45.61425" lon="6.82305">
        <ele>854.8</ele>
        <time>2021-07-23T08:15:00.285Z</time>
      </trkpt>
      <trkpt lat="45.6142" lon="6.82311">
        <ele>854.8</ele>
        <time>2021-07-23T08:15:01.285Z</time>
      </trkpt>
      <trkpt lat="45.61415" lon="6.82317">
        <ele>854.8</ele>
        <time>2021-07-23T08:15:02.285Z</time>
      </trkpt>
      <trkpt lat="45.61411" lon="6.82323">
        <ele>854.8</ele>
        <time>2021-07-23T08:15:03.285Z</time>
      </trkpt>
      <trkpt lat="45.61406" lon="6.82329">
        <ele>854.8</ele>
        <time>2021-07-23T08:15:04.285Z</time>
      </trkpt>
      <trkpt lat="45.61402" lon="6.82335">
        <ele>855.4</ele>
        <time>2021-07-23T08:15:05.285Z</time>
      </trkpt>
      <trkpt lat="45.61397" lon="6.82341">
        <ele>855.8</ele>
        <time>2021-07-23T08:15:06.285Z</time>
      </trkpt>
      <trkpt lat="45.61392" lon="6.82347">
        <ele>856.2</ele>
        <time>2021-07-23T08:15:07.285Z</time>
      </trkpt>
      <trkpt lat="45.61388" lon="6.82352">
        <ele>856.6</ele>
        <time>2021-07-23T08:15:08.285Z</time>
      </trkpt>
      <trkpt lat="45.61384" lon="6.82358">
        <ele>857</ele>
        <time>2021-07-23T08:15:09.285Z</time>
      </trkpt>
      <trkpt lat="45.61379" lon="6.82364">
        <ele>857</ele>
        <time>2021-07-23T08:15:10.285Z</time>
      </trkpt>
      <trkpt lat="45.61375" lon="6.82369">
        <ele>857</ele>
        <time>2021-07-23T08:15:11.285Z</time>
      </trkpt>
      <trkpt lat="45.6137" lon="6.82375">
        <ele>857</ele>
        <time>2021-07-23T08:15:12.285Z</time>
      </trkpt>
      <trkpt lat="45.61366" lon="6.82381">
        <ele>857</ele>
        <time>2021-07-23T08:15:13.285Z</time>
      </trkpt>
      <trkpt lat="45.61362" lon="6.82387">
        <ele>857</ele>
        <time>2021-07-23T08:15:14.285Z</time>
      </trkpt>
      <trkpt lat="45.61358" lon="6.82393">
        <ele>857</ele>
        <time>2021-07-23T08:15:15.285Z</time>
      </trkpt>
      <trkpt lat="45.61354" lon="6.82399">
        <ele>857</ele>
        <time>2021-07-23T08:15:16.285Z</time>
      </trkpt>
      <trkpt lat="45.6135" lon="6.82406">
        <ele>857</ele>
        <time>2021-07-23T08:15:17.285Z</time>
      </trkpt>
      <trkpt lat="45.61347" lon="6.82413">
        <ele>857.6</ele>
        <time>2021-07-23T08:15:18.285Z</time>
      </trkpt>
      <trkpt lat="45.61343" lon="6.82419">
        <ele>858</ele>
        <time>2021-07-23T08:15:19.285Z</time>
      </trkpt>
      <trkpt lat="45.61339" lon="6.82426">
        <ele>858.4</ele>
        <time>2021-07-23T08:15:20.285Z</time>
      </trkpt>
      <trkpt lat="45.61336" lon="6.82433">
        <ele>858.8</ele>
        <time>2021-07-23T08:15:21.285Z</time>
      </trkpt>
      <trkpt lat="45.61333" lon="6.8244">
        <ele>859.4</ele>
        <time>2021-07-23T08:15:22.285Z</time>
      </trkpt>
      <trkpt lat="45.6133" lon="6.82447">
        <ele>859.4</ele>
        <time>2021-07-23T08:15:23.285Z</time>
      </trkpt>
      <trkpt lat="45.61327" lon="6.82454">
        <ele>859.4</ele>
        <time>2021-07-23T08:15:24.285Z</time>
      </trkpt>
      <trkpt lat="45.61324" lon="6.82461">
        <ele>859.4</ele>
        <time>2021-07-23T08:15:25.285Z</time>
      </trkpt>
      <trkpt lat="45.61321" lon="6.82468">
        <ele>859.4</ele>
        <time>2021-07-23T08:15:26.285Z</time>
      </trkpt>
      <trkpt lat="45.61319" lon="6.82476">
        <ele>859.4</ele>
        <time>2021-07-23T08:15:27.285Z</time>
      </trkpt>
      <trkpt lat="45.61316" lon="6.82483">
        <ele>859.4</ele>
        <time>2021-07-23T08:15:28.285Z</time>
      </trkpt>
      <trkpt lat="45.61314" lon="6.82491">
        <ele>859.8</ele>
        <time>2021-07-23T08:15:29.285Z</time>
      </trkpt>
      <trkpt lat="45.61312" lon="6.82498">
        <ele>860.2</ele>
        <time>2021-07-23T08:15:30.285Z</time>
      </trkpt>
      <trkpt lat="45.61309" lon="6.82506">
        <ele>860.6</ele>
        <time>2021-07-23T08:15:31.285Z</time>
      </trkpt>
      <trkpt lat="45.61307" lon="6.82513">
        <ele>861</ele>
        <time>2021-07-23T08:15:32.285Z</time>
      </trkpt>
      <trkpt lat="45.61304" lon="6.8252">
        <ele>861.4</ele>
        <time>2021-07-23T08:15:33.285Z</time>
      </trkpt>
      <trkpt lat="45.61302" lon="6.82528">
        <ele>861.4</ele>
        <time>2021-07-23T08:15:34.285Z</time>
      </trkpt>
      <trkpt lat="45.61299" lon="6.82536">
        <ele>861.4</ele>
        <time>2021-07-23T08:15:35.285Z</time>
      </trkpt>
      <trkpt lat="45.61297" lon="6.82543">
        <ele>861.4</ele>
        <time>2021-07-23T08:15:36.285Z</time>
      </trkpt>
      <trkpt lat="45.61295" lon="6.82551">
        <ele>861.4</ele>
        <time>2021-07-23T08:15:37.285Z</time>
      </trkpt>
      <trkpt lat="45.61293" lon="6.82558">
        <ele>861.4</ele>
        <time>2021-07-23T08:15:38.285Z</time>
      </trkpt>
      <trkpt lat="45.61291" lon="6.82565">
        <ele>861.4</ele>
        <time>2021-07-23T08:15:39.285Z</time>
      </trkpt>
      <trkpt lat="45.61289" lon="6.82573">
        <ele>861.4</ele>
        <time>2021-07-23T08:15:40.285Z</time>
      </trkpt>
      <trkpt lat="45.61287" lon="6.82581">
        <ele>861.4</ele>
        <time>2021-07-23T08:15:41.285Z</time>
      </trkpt>
      <trkpt lat="45.61286" lon="6.82589">
        <ele>861.4</ele>
        <time>2021-07-23T08:15:42.285Z</time>
      </trkpt>
      <trkpt lat="45.61284" lon="6.82597">
        <ele>861.4</ele>
        <time>2021-07-23T08:15:43.285Z</time>
      </trkpt>
      <trkpt lat="45.61283" lon="6.82605">
        <ele>861.4</ele>
        <time>2021-07-23T08:15:44.285Z</time>
      </trkpt>
      <trkpt lat="45.61282" lon="6.82613">
        <ele>861.4</ele>
        <time>2021-07-23T08:15:45.285Z</time>
      </trkpt>
      <trkpt lat="45.61281" lon="6.82621">
        <ele>861.4</ele>
        <time>2021-07-23T08:15:46.285Z</time>
      </trkpt>
      <trkpt lat="45.6128" lon="6.8263">
        <ele>861.4</ele>
        <time>2021-07-23T08:15:47.285Z</time>
      </trkpt>
      <trkpt lat="45.6128" lon="6.82638">
        <ele>861.4</ele>
        <time>2021-07-23T08:15:48.285Z</time>
      </trkpt>
      <trkpt lat="45.6128" lon="6.82647">
        <ele>861.4</ele>
        <time>2021-07-23T08:15:49.285Z</time>
      </trkpt>
      <trkpt lat="45.6128" lon="6.82656">
        <ele>861.4</ele>
        <time>2021-07-23T08:15:50.285Z</time>
      </trkpt>
      <trkpt lat="45.6128" lon="6.82665">
        <ele>861.4</ele>
        <time>2021-07-23T08:15:51.285Z</time>
      </trkpt>
      <trkpt lat="45.6128" lon="6.82674">
        <ele>861.4</ele>
        <time>2021-07-23T08:15:52.285Z</time>
      </trkpt>
      <trkpt lat="45.6128" lon="6.82683">
        <ele>861.4</ele>
        <time>2021-07-23T08:15:53.285Z</time>
      </trkpt>
      <trkpt lat="45.61281" lon="6.82692">
        <ele>861.4</ele>
        <time>2021-07-23T08:15:54.285Z</time>
      </trkpt>
      <trkpt lat="45.61282" lon="6.82702">
        <ele>861.4</ele>
        <time>2021-07-23T08:15:55.285Z</time>
      </trkpt>
      <trkpt lat="45.61283" lon="6.82712">
        <ele>861.4</ele>
        <time>2021-07-23T08:15:56.285Z</time>
      </trkpt>
      <trkpt lat="45.61285" lon="6.82722">
        <ele>861.4</ele>
        <time>2021-07-23T08:15:57.285Z</time>
      </trkpt>
      <trkpt lat="45.61287" lon="6.82732">
        <ele>861.4</ele>
        <time>2021-07-23T08:15:58.285Z</time>
      </trkpt>
      <trkpt lat="45.61289" lon="6.82742">
        <ele>861.4</ele>
        <time>2021-07-23T08:15:59.285Z</time>
      </trkpt>
      <trkpt lat="45.6129" lon="6.82753">
        <ele>861.4</ele>
        <time>2021-07-23T08:16:00.285Z</time>
      </trkpt>
      <trkpt lat="45.61292" lon="6.82763">
        <ele>861.4</ele>
        <time>2021-07-23T08:16:01.285Z</time>
      </trkpt>
      <trkpt lat="45.61293" lon="6.82774">
        <ele>861.4</ele>
        <time>2021-07-23T08:16:02.285Z</time>
      </trkpt>
      <trkpt lat="45.61295" lon="6.82784">
        <ele>861.4</ele>
        <time>2021-07-23T08:16:03.285Z</time>
      </trkpt>
      <trkpt lat="45.61294" lon="6.82795">
        <ele>861.4</ele>
        <time>2021-07-23T08:16:04.285Z</time>
      </trkpt>
      <trkpt lat="45.61294" lon="6.82807">
        <ele>861.4</ele>
        <time>2021-07-23T08:16:05.285Z</time>
      </trkpt>
      <trkpt lat="45.61292" lon="6.82818">
        <ele>861.4</ele>
        <time>2021-07-23T08:16:06.285Z</time>
      </trkpt>
      <trkpt lat="45.6129" lon="6.82829">
        <ele>861.4</ele>
        <time>2021-07-23T08:16:07.285Z</time>
      </trkpt>
      <trkpt lat="45.61288" lon="6.82839">
        <ele>861.4</ele>
        <time>2021-07-23T08:16:08.285Z</time>
      </trkpt>
      <trkpt lat="45.61286" lon="6.8285">
        <ele>861.4</ele>
        <time>2021-07-23T08:16:09.285Z</time>
      </trkpt>
      <trkpt lat="45.61283" lon="6.82861">
        <ele>861.4</ele>
        <time>2021-07-23T08:16:10.285Z</time>
      </trkpt>
      <trkpt lat="45.61281" lon="6.82872">
        <ele>861.4</ele>
        <time>2021-07-23T08:16:11.285Z</time>
      </trkpt>
      <trkpt lat="45.61278" lon="6.82882">
        <ele>861.4</ele>
        <time>2021-07-23T08:16:12.285Z</time>
      </trkpt>
      <trkpt lat="45.61276" lon="6.82892">
        <ele>861.4</ele>
        <time>2021-07-23T08:16:13.285Z</time>
      </trkpt>
      <trkpt lat="45.61274" lon="6.82902">
        <ele>861.4</ele>
        <time>2021-07-23T08:16:14.285Z</time>
      </trkpt>
      <trkpt lat="45.61271" lon="6.82912">
        <ele>861.4</ele>
        <time>2021-07-23T08:16:15.285Z</time>
      </trkpt>
      <trkpt lat="45.61269" lon="6.82922">
        <ele>861.4</ele>
        <time>2021-07-23T08:16:16.285Z</time>
      </trkpt>
      <trkpt lat="45.61266" lon="6.82931">
        <ele>861.4</ele>
        <time>2021-07-23T08:16:17.285Z</time>
      </trkpt>
      <trkpt lat="45.61263" lon="6.82941">
        <ele>861.4</ele>
        <time>2021-07-23T08:16:18.285Z</time>
      </trkpt>
      <trkpt lat="45.61261" lon="6.82951">
        <ele>861.4</ele>
        <time>2021-07-23T08:16:19.285Z</time>
      </trkpt>
      <trkpt lat="45.61259" lon="6.82961">
        <ele>861.4</ele>
        <time>2021-07-23T08:16:20.285Z</time>
      </trkpt>
      <trkpt lat="45.61257" lon="6.8297">
        <ele>861.4</ele>
        <time>2021-07-23T08:16:21.285Z</time>
      </trkpt>
      <trkpt lat="45.61255" lon="6.82979">
        <ele>861.4</ele>
        <time>2021-07-23T08:16:22.285Z</time>
      </trkpt>
      <trkpt lat="45.61252" lon="6.82988">
        <ele>861.4</ele>
        <time>2021-07-23T08:16:23.285Z</time>
      </trkpt>
      <trkpt lat="45.6125" lon="6.82997">
        <ele>861.4</ele>
        <time>2021-07-23T08:16:24.285Z</time>
      </trkpt>
      <trkpt lat="45.61247" lon="6.83006">
        <ele>861.4</ele>
        <time>2021-07-23T08:16:25.285Z</time>
      </trkpt>
      <trkpt lat="45.61245" lon="6.83015">
        <ele>861.4</ele>
        <time>2021-07-23T08:16:26.285Z</time>
      </trkpt>
      <trkpt lat="45.61242" lon="6.83024">
        <ele>861.4</ele>
        <time>2021-07-23T08:16:27.285Z</time>
      </trkpt>
      <trkpt lat="45.6124" lon="6.83034">
        <ele>861.4</ele>
        <time>2021-07-23T08:16:28.285Z</time>
      </trkpt>
      <trkpt lat="45.61238" lon="6.83043">
        <ele>861.4</ele>
        <time>2021-07-23T08:16:29.285Z</time>
      </trkpt>
      <trkpt lat="45.61236" lon="6.83051">
        <ele>861.4</ele>
        <time>2021-07-23T08:16:30.285Z</time>
      </trkpt>
      <trkpt lat="45.61233" lon="6.83059">
        <ele>861.4</ele>
        <time>2021-07-23T08:16:31.285Z</time>
      </trkpt>
      <trkpt lat="45.61231" lon="6.83068">
        <ele>861.4</ele>
        <time>2021-07-23T08:16:32.285Z</time>
      </trkpt>
      <trkpt lat="45.61228" lon="6.83076">
        <ele>861.4</ele>
        <time>2021-07-23T08:16:33.285Z</time>
      </trkpt>
      <trkpt lat="45.61226" lon="6.83086">
        <ele>861.4</ele>
        <time>2021-07-23T08:16:34.285Z</time>
      </trkpt>
      <trkpt lat="45.61223" lon="6.83094">
        <ele>861.4</ele>
        <time>2021-07-23T08:16:35.285Z</time>
      </trkpt>
      <trkpt lat="45.61221" lon="6.83103">
        <ele>862</ele>
        <time>2021-07-23T08:16:36.285Z</time>
      </trkpt>
      <trkpt lat="45.61218" lon="6.83111">
        <ele>862.4</ele>
        <time>2021-07-23T08:16:37.285Z</time>
      </trkpt>
      <trkpt lat="45.61215" lon="6.8312">
        <ele>862.8</ele>
        <time>2021-07-23T08:16:38.285Z</time>
      </trkpt>
      <trkpt lat="45.61213" lon="6.83128">
        <ele>863.2</ele>
        <time>2021-07-23T08:16:39.285Z</time>
      </trkpt>
      <trkpt lat="45.6121" lon="6.83137">
        <ele>863.6</ele>
        <time>2021-07-23T08:16:40.285Z</time>
      </trkpt>
      <trkpt lat="45.61208" lon="6.83145">
        <ele>863.6</ele>
        <time>2021-07-23T08:16:41.285Z</time>
      </trkpt>
      <trkpt lat="45.61205" lon="6.83154">
        <ele>863.6</ele>
        <time>2021-07-23T08:16:42.285Z</time>
      </trkpt>
      <trkpt lat="45.61202" lon="6.83162">
        <ele>863.6</ele>
        <time>2021-07-23T08:16:43.285Z</time>
      </trkpt>
      <trkpt lat="45.612" lon="6.83171">
        <ele>863.6</ele>
        <time>2021-07-23T08:16:44.285Z</time>
      </trkpt>
      <trkpt lat="45.61198" lon="6.8318">
        <ele>863.6</ele>
        <time>2021-07-23T08:16:45.285Z</time>
      </trkpt>
      <trkpt lat="45.61195" lon="6.83189">
        <ele>863.6</ele>
        <time>2021-07-23T08:16:46.285Z</time>
      </trkpt>
      <trkpt lat="45.61192" lon="6.83197">
        <ele>863.6</ele>
        <time>2021-07-23T08:16:47.285Z</time>
      </trkpt>
      <trkpt lat="45.61189" lon="6.83206">
        <ele>863.6</ele>
        <time>2021-07-23T08:16:48.285Z</time>
      </trkpt>
      <trkpt lat="45.61186" lon="6.83215">
        <ele>863.6</ele>
        <time>2021-07-23T08:16:49.285Z</time>
      </trkpt>
      <trkpt lat="45.61183" lon="6.83223">
        <ele>863.6</ele>
        <time>2021-07-23T08:16:50.285Z</time>
      </trkpt>
      <trkpt lat="45.61181" lon="6.83231">
        <ele>863.6</ele>
        <time>2021-07-23T08:16:51.285Z</time>
      </trkpt>
      <trkpt lat="45.61178" lon="6.8324">
        <ele>863.6</ele>
        <time>2021-07-23T08:16:52.285Z</time>
      </trkpt>
      <trkpt lat="45.61175" lon="6.83248">
        <ele>863.6</ele>
        <time>2021-07-23T08:16:53.285Z</time>
      </trkpt>
      <trkpt lat="45.61172" lon="6.83257">
        <ele>863.6</ele>
        <time>2021-07-23T08:16:54.285Z</time>
      </trkpt>
      <trkpt lat="45.6117" lon="6.83265">
        <ele>863.6</ele>
        <time>2021-07-23T08:16:55.285Z</time>
      </trkpt>
      <trkpt lat="45.61167" lon="6.83274">
        <ele>863.6</ele>
        <time>2021-07-23T08:16:56.285Z</time>
      </trkpt>
      <trkpt lat="45.61164" lon="6.83283">
        <ele>863.6</ele>
        <time>2021-07-23T08:16:57.285Z</time>
      </trkpt>
      <trkpt lat="45.61162" lon="6.83291">
        <ele>863.6</ele>
        <time>2021-07-23T08:16:58.285Z</time>
      </trkpt>
      <trkpt lat="45.6116" lon="6.83299">
        <ele>863.6</ele>
        <time>2021-07-23T08:16:59.285Z</time>
      </trkpt>
      <trkpt lat="45.61157" lon="6.83307">
        <ele>863.6</ele>
        <time>2021-07-23T08:17:00.285Z</time>
      </trkpt>
      <trkpt lat="45.61155" lon="6.83315">
        <ele>863.6</ele>
        <time>2021-07-23T08:17:01.285Z</time>
      </trkpt>
      <trkpt lat="45.61152" lon="6.83323">
        <ele>863.6</ele>
        <time>2021-07-23T08:17:02.285Z</time>
      </trkpt>
      <trkpt lat="45.6115" lon="6.83331">
        <ele>863.6</ele>
        <time>2021-07-23T08:17:03.285Z</time>
      </trkpt>
      <trkpt lat="45.61147" lon="6.8334">
        <ele>863.6</ele>
        <time>2021-07-23T08:17:04.285Z</time>
      </trkpt>
      <trkpt lat="45.61145" lon="6.83348">
        <ele>863.6</ele>
        <time>2021-07-23T08:17:05.285Z</time>
      </trkpt>
      <trkpt lat="45.61142" lon="6.83357">
        <ele>863.6</ele>
        <time>2021-07-23T08:17:06.285Z</time>
      </trkpt>
      <trkpt lat="45.61139" lon="6.83365">
        <ele>863.6</ele>
        <time>2021-07-23T08:17:07.285Z</time>
      </trkpt>
      <trkpt lat="45.61137" lon="6.83373">
        <ele>863.6</ele>
        <time>2021-07-23T08:17:08.285Z</time>
      </trkpt>
      <trkpt lat="45.61134" lon="6.83381">
        <ele>863.6</ele>
        <time>2021-07-23T08:17:09.285Z</time>
      </trkpt>
      <trkpt lat="45.61132" lon="6.83389">
        <ele>863.6</ele>
        <time>2021-07-23T08:17:10.285Z</time>
      </trkpt>
      <trkpt lat="45.61129" lon="6.83397">
        <ele>863.6</ele>
        <time>2021-07-23T08:17:11.285Z</time>
      </trkpt>
      <trkpt lat="45.61126" lon="6.83405">
        <ele>863.6</ele>
        <time>2021-07-23T08:17:12.285Z</time>
      </trkpt>
      <trkpt lat="45.61123" lon="6.83413">
        <ele>863.6</ele>
        <time>2021-07-23T08:17:13.285Z</time>
      </trkpt>
      <trkpt lat="45.61121" lon="6.83421">
        <ele>863.6</ele>
        <time>2021-07-23T08:17:14.285Z</time>
      </trkpt>
      <trkpt lat="45.61119" lon="6.83429">
        <ele>864</ele>
        <time>2021-07-23T08:17:15.285Z</time>
      </trkpt>
      <trkpt lat="45.61116" lon="6.83437">
        <ele>864.6</ele>
        <time>2021-07-23T08:17:16.285Z</time>
      </trkpt>
      <trkpt lat="45.61113" lon="6.83445">
        <ele>865</ele>
        <time>2021-07-23T08:17:17.285Z</time>
      </trkpt>
      <trkpt lat="45.61111" lon="6.83453">
        <ele>865.4</ele>
        <time>2021-07-23T08:17:18.285Z</time>
      </trkpt>
      <trkpt lat="45.61108" lon="6.83462">
        <ele>865.8</ele>
        <time>2021-07-23T08:17:19.285Z</time>
      </trkpt>
      <trkpt lat="45.61106" lon="6.83471">
        <ele>865.8</ele>
        <time>2021-07-23T08:17:20.285Z</time>
      </trkpt>
      <trkpt lat="45.61103" lon="6.83479">
        <ele>865.8</ele>
        <time>2021-07-23T08:17:21.285Z</time>
      </trkpt>
      <trkpt lat="45.61101" lon="6.83487">
        <ele>865.8</ele>
        <time>2021-07-23T08:17:22.285Z</time>
      </trkpt>
      <trkpt lat="45.61099" lon="6.83496">
        <ele>865.8</ele>
        <time>2021-07-23T08:17:23.285Z</time>
      </trkpt>
      <trkpt lat="45.61096" lon="6.83504">
        <ele>865.8</ele>
        <time>2021-07-23T08:17:24.285Z</time>
      </trkpt>
      <trkpt lat="45.61094" lon="6.83512">
        <ele>865.8</ele>
        <time>2021-07-23T08:17:25.285Z</time>
      </trkpt>
      <trkpt lat="45.6109" lon="6.83521">
        <ele>865.8</ele>
        <time>2021-07-23T08:17:26.285Z</time>
      </trkpt>
      <trkpt lat="45.61088" lon="6.83529">
        <ele>865.8</ele>
        <time>2021-07-23T08:17:27.285Z</time>
      </trkpt>
      <trkpt lat="45.61085" lon="6.83538">
        <ele>865.8</ele>
        <time>2021-07-23T08:17:28.285Z</time>
      </trkpt>
      <trkpt lat="45.61082" lon="6.83546">
        <ele>865.8</ele>
        <time>2021-07-23T08:17:29.285Z</time>
      </trkpt>
      <trkpt lat="45.61079" lon="6.83554">
        <ele>865.8</ele>
        <time>2021-07-23T08:17:30.285Z</time>
      </trkpt>
      <trkpt lat="45.61076" lon="6.83562">
        <ele>865.8</ele>
        <time>2021-07-23T08:17:31.285Z</time>
      </trkpt>
      <trkpt lat="45.61072" lon="6.83571">
        <ele>865.8</ele>
        <time>2021-07-23T08:17:32.285Z</time>
      </trkpt>
      <trkpt lat="45.61069" lon="6.83579">
        <ele>865.8</ele>
        <time>2021-07-23T08:17:33.285Z</time>
      </trkpt>
      <trkpt lat="45.61065" lon="6.83588">
        <ele>865.8</ele>
        <time>2021-07-23T08:17:34.285Z</time>
      </trkpt>
      <trkpt lat="45.61061" lon="6.83595">
        <ele>865.8</ele>
        <time>2021-07-23T08:17:35.285Z</time>
      </trkpt>
      <trkpt lat="45.61056" lon="6.83602">
        <ele>865.8</ele>
        <time>2021-07-23T08:17:36.285Z</time>
      </trkpt>
      <trkpt lat="45.61051" lon="6.83609">
        <ele>865.8</ele>
        <time>2021-07-23T08:17:37.285Z</time>
      </trkpt>
      <trkpt lat="45.61046" lon="6.83616">
        <ele>865.8</ele>
        <time>2021-07-23T08:17:38.285Z</time>
      </trkpt>
      <trkpt lat="45.61042" lon="6.83622">
        <ele>865.8</ele>
        <time>2021-07-23T08:17:39.285Z</time>
      </trkpt>
      <trkpt lat="45.61037" lon="6.83628">
        <ele>865.8</ele>
        <time>2021-07-23T08:17:40.285Z</time>
      </trkpt>
      <trkpt lat="45.61032" lon="6.83635">
        <ele>865.8</ele>
        <time>2021-07-23T08:17:41.285Z</time>
      </trkpt>
      <trkpt lat="45.61027" lon="6.83641">
        <ele>865.8</ele>
        <time>2021-07-23T08:17:42.285Z</time>
      </trkpt>
      <trkpt lat="45.61022" lon="6.83647">
        <ele>865.8</ele>
        <time>2021-07-23T08:17:43.285Z</time>
      </trkpt>
      <trkpt lat="45.61017" lon="6.83655">
        <ele>865.8</ele>
        <time>2021-07-23T08:17:44.285Z</time>
      </trkpt>
      <trkpt lat="45.61012" lon="6.83661">
        <ele>865.8</ele>
        <time>2021-07-23T08:17:45.285Z</time>
      </trkpt>
      <trkpt lat="45.61007" lon="6.83668">
        <ele>865.8</ele>
        <time>2021-07-23T08:17:46.285Z</time>
      </trkpt>
      <trkpt lat="45.61001" lon="6.83674">
        <ele>865.8</ele>
        <time>2021-07-23T08:17:47.285Z</time>
      </trkpt>
      <trkpt lat="45.60996" lon="6.8368">
        <ele>865.8</ele>
        <time>2021-07-23T08:17:48.285Z</time>
      </trkpt>
      <trkpt lat="45.60991" lon="6.83686">
        <ele>865.8</ele>
        <time>2021-07-23T08:17:49.285Z</time>
      </trkpt>
      <trkpt lat="45.60986" lon="6.83693">
        <ele>865.8</ele>
        <time>2021-07-23T08:17:50.285Z</time>
      </trkpt>
      <trkpt lat="45.6098" lon="6.83699">
        <ele>865.8</ele>
        <time>2021-07-23T08:17:51.285Z</time>
      </trkpt>
      <trkpt lat="45.60975" lon="6.83706">
        <ele>865.8</ele>
        <time>2021-07-23T08:17:52.285Z</time>
      </trkpt>
      <trkpt lat="45.6097" lon="6.83712">
        <ele>865.8</ele>
        <time>2021-07-23T08:17:53.285Z</time>
      </trkpt>
      <trkpt lat="45.60967" lon="6.8372">
        <ele>865.8</ele>
        <time>2021-07-23T08:17:54.285Z</time>
      </trkpt>
      <trkpt lat="45.60963" lon="6.83728">
        <ele>865.8</ele>
        <time>2021-07-23T08:17:55.285Z</time>
      </trkpt>
      <trkpt lat="45.6096" lon="6.83736">
        <ele>865.8</ele>
        <time>2021-07-23T08:17:56.285Z</time>
      </trkpt>
      <trkpt lat="45.60956" lon="6.83744">
        <ele>865.8</ele>
        <time>2021-07-23T08:17:57.285Z</time>
      </trkpt>
      <trkpt lat="45.60953" lon="6.83753">
        <ele>865.8</ele>
        <time>2021-07-23T08:17:58.285Z</time>
      </trkpt>
      <trkpt lat="45.60951" lon="6.83761">
        <ele>865.8</ele>
        <time>2021-07-23T08:17:59.285Z</time>
      </trkpt>
      <trkpt lat="45.60948" lon="6.83769">
        <ele>865.8</ele>
        <time>2021-07-23T08:18:00.285Z</time>
      </trkpt>
      <trkpt lat="45.60945" lon="6.83777">
        <ele>865.8</ele>
        <time>2021-07-23T08:18:01.285Z</time>
      </trkpt>
      <trkpt lat="45.60943" lon="6.83785">
        <ele>865.8</ele>
        <time>2021-07-23T08:18:02.285Z</time>
      </trkpt>
      <trkpt lat="45.6094" lon="6.83794">
        <ele>865.8</ele>
        <time>2021-07-23T08:18:03.285Z</time>
      </trkpt>
      <trkpt lat="45.60937" lon="6.83802">
        <ele>865.8</ele>
        <time>2021-07-23T08:18:04.285Z</time>
      </trkpt>
      <trkpt lat="45.60934" lon="6.83809">
        <ele>865.8</ele>
        <time>2021-07-23T08:18:05.285Z</time>
      </trkpt>
      <trkpt lat="45.60932" lon="6.83817">
        <ele>865.8</ele>
        <time>2021-07-23T08:18:06.285Z</time>
      </trkpt>
      <trkpt lat="45.60929" lon="6.83825">
        <ele>865.8</ele>
        <time>2021-07-23T08:18:07.285Z</time>
      </trkpt>
      <trkpt lat="45.60926" lon="6.83832">
        <ele>865.8</ele>
        <time>2021-07-23T08:18:08.285Z</time>
      </trkpt>
      <trkpt lat="45.60923" lon="6.83839">
        <ele>865.8</ele>
        <time>2021-07-23T08:18:09.285Z</time>
      </trkpt>
      <trkpt lat="45.60921" lon="6.83846">
        <ele>865.8</ele>
        <time>2021-07-23T08:18:10.285Z</time>
      </trkpt>
      <trkpt lat="45.60917" lon="6.83853">
        <ele>865.8</ele>
        <time>2021-07-23T08:18:11.285Z</time>
      </trkpt>
      <trkpt lat="45.60914" lon="6.83859">
        <ele>865.8</ele>
        <time>2021-07-23T08:18:12.285Z</time>
      </trkpt>
      <trkpt lat="45.60911" lon="6.83865">
        <ele>865.8</ele>
        <time>2021-07-23T08:18:13.285Z</time>
      </trkpt>
      <trkpt lat="45.60907" lon="6.83872">
        <ele>865.8</ele>
        <time>2021-07-23T08:18:14.285Z</time>
      </trkpt>
      <trkpt lat="45.60904" lon="6.83877">
        <ele>865.8</ele>
        <time>2021-07-23T08:18:15.285Z</time>
      </trkpt>
      <trkpt lat="45.609" lon="6.83882">
        <ele>865.8</ele>
        <time>2021-07-23T08:18:16.285Z</time>
      </trkpt>
      <trkpt lat="45.60897" lon="6.83887">
        <ele>866.2</ele>
        <time>2021-07-23T08:18:17.285Z</time>
      </trkpt>
      <trkpt lat="45.60894" lon="6.83892">
        <ele>866.6</ele>
        <time>2021-07-23T08:18:18.285Z</time>
      </trkpt>
      <trkpt lat="45.6089" lon="6.83898">
        <ele>867</ele>
        <time>2021-07-23T08:18:19.285Z</time>
      </trkpt>
      <trkpt lat="45.60887" lon="6.83903">
        <ele>867.6</ele>
        <time>2021-07-23T08:18:20.285Z</time>
      </trkpt>
      <trkpt lat="45.60884" lon="6.83909">
        <ele>868</ele>
        <time>2021-07-23T08:18:21.285Z</time>
      </trkpt>
      <trkpt lat="45.60881" lon="6.83915">
        <ele>868</ele>
        <time>2021-07-23T08:18:22.285Z</time>
      </trkpt>
      <trkpt lat="45.60877" lon="6.83921">
        <ele>868.4</ele>
        <time>2021-07-23T08:18:23.285Z</time>
      </trkpt>
      <trkpt lat="45.60874" lon="6.83926">
        <ele>868.8</ele>
        <time>2021-07-23T08:18:24.285Z</time>
      </trkpt>
      <trkpt lat="45.60871" lon="6.83932">
        <ele>869.2</ele>
        <time>2021-07-23T08:18:25.285Z</time>
      </trkpt>
      <trkpt lat="45.60869" lon="6.83938">
        <ele>869.6</ele>
        <time>2021-07-23T08:18:26.285Z</time>
      </trkpt>
      <trkpt lat="45.60867" lon="6.83945">
        <ele>870</ele>
        <time>2021-07-23T08:18:27.285Z</time>
      </trkpt>
      <trkpt lat="45.60864" lon="6.83951">
        <ele>870</ele>
        <time>2021-07-23T08:18:28.285Z</time>
      </trkpt>
      <trkpt lat="45.60863" lon="6.83958">
        <ele>870</ele>
        <time>2021-07-23T08:18:29.285Z</time>
      </trkpt>
      <trkpt lat="45.60861" lon="6.83965">
        <ele>870</ele>
        <time>2021-07-23T08:18:30.285Z</time>
      </trkpt>
      <trkpt lat="45.60859" lon="6.83972">
        <ele>870</ele>
        <time>2021-07-23T08:18:31.285Z</time>
      </trkpt>
      <trkpt lat="45.60858" lon="6.83979">
        <ele>870</ele>
        <time>2021-07-23T08:18:32.285Z</time>
      </trkpt>
      <trkpt lat="45.60856" lon="6.83987">
        <ele>870</ele>
        <time>2021-07-23T08:18:33.285Z</time>
      </trkpt>
      <trkpt lat="45.60854" lon="6.83994">
        <ele>870</ele>
        <time>2021-07-23T08:18:34.285Z</time>
      </trkpt>
      <trkpt lat="45.60852" lon="6.84">
        <ele>870</ele>
        <time>2021-07-23T08:18:35.285Z</time>
      </trkpt>
      <trkpt lat="45.6085" lon="6.84007">
        <ele>870</ele>
        <time>2021-07-23T08:18:36.285Z</time>
      </trkpt>
      <trkpt lat="45.60849" lon="6.84014">
        <ele>870.4</ele>
        <time>2021-07-23T08:18:37.285Z</time>
      </trkpt>
      <trkpt lat="45.60847" lon="6.84021">
        <ele>871</ele>
        <time>2021-07-23T08:18:38.285Z</time>
      </trkpt>
      <trkpt lat="45.60846" lon="6.84028">
        <ele>871.4</ele>
        <time>2021-07-23T08:18:39.285Z</time>
      </trkpt>
      <trkpt lat="45.60845" lon="6.84035">
        <ele>872</ele>
        <time>2021-07-23T08:18:40.285Z</time>
      </trkpt>
      <trkpt lat="45.60844" lon="6.84042">
        <ele>872.4</ele>
        <time>2021-07-23T08:18:41.285Z</time>
      </trkpt>
      <trkpt lat="45.60842" lon="6.8405">
        <ele>872.4</ele>
        <time>2021-07-23T08:18:42.285Z</time>
      </trkpt>
      <trkpt lat="45.60841" lon="6.84057">
        <ele>872.4</ele>
        <time>2021-07-23T08:18:43.285Z</time>
      </trkpt>
      <trkpt lat="45.6084" lon="6.84064">
        <ele>872.4</ele>
        <time>2021-07-23T08:18:44.285Z</time>
      </trkpt>
      <trkpt lat="45.60838" lon="6.84071">
        <ele>872.4</ele>
        <time>2021-07-23T08:18:45.285Z</time>
      </trkpt>
      <trkpt lat="45.60837" lon="6.84079">
        <ele>872.4</ele>
        <time>2021-07-23T08:18:46.285Z</time>
      </trkpt>
      <trkpt lat="45.60835" lon="6.84086">
        <ele>872.4</ele>
        <time>2021-07-23T08:18:47.285Z</time>
      </trkpt>
      <trkpt lat="45.60834" lon="6.84093">
        <ele>872.8</ele>
        <time>2021-07-23T08:18:48.285Z</time>
      </trkpt>
      <trkpt lat="45.60833" lon="6.841">
        <ele>873.2</ele>
        <time>2021-07-23T08:18:49.285Z</time>
      </trkpt>
      <trkpt lat="45.60831" lon="6.84107">
        <ele>873.8</ele>
        <time>2021-07-23T08:18:50.285Z</time>
      </trkpt>
      <trkpt lat="45.6083" lon="6.84114">
        <ele>874.2</ele>
        <time>2021-07-23T08:18:51.285Z</time>
      </trkpt>
      <trkpt lat="45.60829" lon="6.84121">
        <ele>874.6</ele>
        <time>2021-07-23T08:18:52.285Z</time>
      </trkpt>
      <trkpt lat="45.60827" lon="6.84129">
        <ele>874.6</ele>
        <time>2021-07-23T08:18:53.285Z</time>
      </trkpt>
      <trkpt lat="45.60826" lon="6.84136">
        <ele>874.6</ele>
        <time>2021-07-23T08:18:54.285Z</time>
      </trkpt>
      <trkpt lat="45.60824" lon="6.84143">
        <ele>874.6</ele>
        <time>2021-07-23T08:18:55.285Z</time>
      </trkpt>
      <trkpt lat="45.60822" lon="6.8415">
        <ele>874.6</ele>
        <time>2021-07-23T08:18:56.285Z</time>
      </trkpt>
      <trkpt lat="45.6082" lon="6.84157">
        <ele>874.6</ele>
        <time>2021-07-23T08:18:57.285Z</time>
      </trkpt>
      <trkpt lat="45.60818" lon="6.84164">
        <ele>874.6</ele>
        <time>2021-07-23T08:18:58.285Z</time>
      </trkpt>
      <trkpt lat="45.60816" lon="6.84171">
        <ele>874.6</ele>
        <time>2021-07-23T08:18:59.285Z</time>
      </trkpt>
      <trkpt lat="45.60814" lon="6.84177">
        <ele>875</ele>
        <time>2021-07-23T08:19:00.285Z</time>
      </trkpt>
      <trkpt lat="45.60812" lon="6.84185">
        <ele>875.6</ele>
        <time>2021-07-23T08:19:01.285Z</time>
      </trkpt>
      <trkpt lat="45.6081" lon="6.84191">
        <ele>876</ele>
        <time>2021-07-23T08:19:02.285Z</time>
      </trkpt>
      <trkpt lat="45.60808" lon="6.84199">
        <ele>876.4</ele>
        <time>2021-07-23T08:19:03.285Z</time>
      </trkpt>
      <trkpt lat="45.60807" lon="6.84206">
        <ele>876.8</ele>
        <time>2021-07-23T08:19:04.285Z</time>
      </trkpt>
      <trkpt lat="45.60805" lon="6.84213">
        <ele>876.8</ele>
        <time>2021-07-23T08:19:05.285Z</time>
      </trkpt>
      <trkpt lat="45.60804" lon="6.8422">
        <ele>876.8</ele>
        <time>2021-07-23T08:19:06.285Z</time>
      </trkpt>
      <trkpt lat="45.60802" lon="6.84227">
        <ele>876.8</ele>
        <time>2021-07-23T08:19:07.285Z</time>
      </trkpt>
      <trkpt lat="45.60801" lon="6.84234">
        <ele>876.8</ele>
        <time>2021-07-23T08:19:08.285Z</time>
      </trkpt>
      <trkpt lat="45.608" lon="6.84241">
        <ele>876.8</ele>
        <time>2021-07-23T08:19:09.285Z</time>
      </trkpt>
      <trkpt lat="45.608" lon="6.84248">
        <ele>877.6</ele>
        <time>2021-07-23T08:19:10.285Z</time>
      </trkpt>
      <trkpt lat="45.608" lon="6.84256">
        <ele>878</ele>
        <time>2021-07-23T08:19:11.285Z</time>
      </trkpt>
      <trkpt lat="45.608" lon="6.84263">
        <ele>878.4</ele>
        <time>2021-07-23T08:19:12.285Z</time>
      </trkpt>
      <trkpt lat="45.608" lon="6.8427">
        <ele>878.8</ele>
        <time>2021-07-23T08:19:13.285Z</time>
      </trkpt>
      <trkpt lat="45.608" lon="6.84277">
        <ele>878.8</ele>
        <time>2021-07-23T08:19:14.285Z</time>
      </trkpt>
      <trkpt lat="45.608" lon="6.84284">
        <ele>878.8</ele>
        <time>2021-07-23T08:19:15.285Z</time>
      </trkpt>
      <trkpt lat="45.608" lon="6.84291">
        <ele>878.8</ele>
        <time>2021-07-23T08:19:16.285Z</time>
      </trkpt>
      <trkpt lat="45.60799" lon="6.84298">
        <ele>878.8</ele>
        <time>2021-07-23T08:19:17.285Z</time>
      </trkpt>
      <trkpt lat="45.60799" lon="6.84306">
        <ele>879.2</ele>
        <time>2021-07-23T08:19:18.285Z</time>
      </trkpt>
      <trkpt lat="45.60798" lon="6.84313">
        <ele>879.6</ele>
        <time>2021-07-23T08:19:19.285Z</time>
      </trkpt>
      <trkpt lat="45.60797" lon="6.8432">
        <ele>880</ele>
        <time>2021-07-23T08:19:20.285Z</time>
      </trkpt>
      <trkpt lat="45.60796" lon="6.84327">
        <ele>880.4</ele>
        <time>2021-07-23T08:19:21.285Z</time>
      </trkpt>
      <trkpt lat="45.60795" lon="6.84334">
        <ele>880.8</ele>
        <time>2021-07-23T08:19:22.285Z</time>
      </trkpt>
      <trkpt lat="45.60795" lon="6.8434">
        <ele>880.8</ele>
        <time>2021-07-23T08:19:23.285Z</time>
      </trkpt>
      <trkpt lat="45.60794" lon="6.84347">
        <ele>880.8</ele>
        <time>2021-07-23T08:19:24.285Z</time>
      </trkpt>
      <trkpt lat="45.60793" lon="6.84354">
        <ele>880.8</ele>
        <time>2021-07-23T08:19:25.285Z</time>
      </trkpt>
      <trkpt lat="45.60792" lon="6.84361">
        <ele>880.8</ele>
        <time>2021-07-23T08:19:26.285Z</time>
      </trkpt>
      <trkpt lat="45.60791" lon="6.84368">
        <ele>880.8</ele>
        <time>2021-07-23T08:19:27.285Z</time>
      </trkpt>
      <trkpt lat="45.6079" lon="6.84376">
        <ele>880.8</ele>
        <time>2021-07-23T08:19:28.285Z</time>
      </trkpt>
      <trkpt lat="45.60789" lon="6.84383">
        <ele>881.4</ele>
        <time>2021-07-23T08:19:29.285Z</time>
      </trkpt>
      <trkpt lat="45.60788" lon="6.8439">
        <ele>881.8</ele>
        <time>2021-07-23T08:19:30.285Z</time>
      </trkpt>
      <trkpt lat="45.60787" lon="6.84397">
        <ele>882.2</ele>
        <time>2021-07-23T08:19:31.285Z</time>
      </trkpt>
      <trkpt lat="45.60786" lon="6.84404">
        <ele>882.6</ele>
        <time>2021-07-23T08:19:32.285Z</time>
      </trkpt>
      <trkpt lat="45.60785" lon="6.84411">
        <ele>883</ele>
        <time>2021-07-23T08:19:33.285Z</time>
      </trkpt>
      <trkpt lat="45.60784" lon="6.84418">
        <ele>883</ele>
        <time>2021-07-23T08:19:34.285Z</time>
      </trkpt>
      <trkpt lat="45.60783" lon="6.84425">
        <ele>883</ele>
        <time>2021-07-23T08:19:35.285Z</time>
      </trkpt>
      <trkpt lat="45.60782" lon="6.84431">
        <ele>883</ele>
        <time>2021-07-23T08:19:36.285Z</time>
      </trkpt>
      <trkpt lat="45.60781" lon="6.84439">
        <ele>883</ele>
        <time>2021-07-23T08:19:37.285Z</time>
      </trkpt>
      <trkpt lat="45.6078" lon="6.84446">
        <ele>883</ele>
        <time>2021-07-23T08:19:38.285Z</time>
      </trkpt>
      <trkpt lat="45.60779" lon="6.84453">
        <ele>883</ele>
        <time>2021-07-23T08:19:39.285Z</time>
      </trkpt>
      <trkpt lat="45.60778" lon="6.8446">
        <ele>883</ele>
        <time>2021-07-23T08:19:40.285Z</time>
      </trkpt>
      <trkpt lat="45.60776" lon="6.84467">
        <ele>883</ele>
        <time>2021-07-23T08:19:41.285Z</time>
      </trkpt>
      <trkpt lat="45.60775" lon="6.84474">
        <ele>883</ele>
        <time>2021-07-23T08:19:42.285Z</time>
      </trkpt>
      <trkpt lat="45.60774" lon="6.84481">
        <ele>883</ele>
        <time>2021-07-23T08:19:43.285Z</time>
      </trkpt>
      <trkpt lat="45.60773" lon="6.84488">
        <ele>883</ele>
        <time>2021-07-23T08:19:44.285Z</time>
      </trkpt>
      <trkpt lat="45.60772" lon="6.84495">
        <ele>883</ele>
        <time>2021-07-23T08:19:45.285Z</time>
      </trkpt>
      <trkpt lat="45.60771" lon="6.84502">
        <ele>883</ele>
        <time>2021-07-23T08:19:46.285Z</time>
      </trkpt>
      <trkpt lat="45.60769" lon="6.84508">
        <ele>883</ele>
        <time>2021-07-23T08:19:47.285Z</time>
      </trkpt>
      <trkpt lat="45.60768" lon="6.84516">
        <ele>883</ele>
        <time>2021-07-23T08:19:48.285Z</time>
      </trkpt>
      <trkpt lat="45.60767" lon="6.84524">
        <ele>883</ele>
        <time>2021-07-23T08:19:49.285Z</time>
      </trkpt>
      <trkpt lat="45.60765" lon="6.84531">
        <ele>883</ele>
        <time>2021-07-23T08:19:50.285Z</time>
      </trkpt>
      <trkpt lat="45.60764" lon="6.84538">
        <ele>883</ele>
        <time>2021-07-23T08:19:51.285Z</time>
      </trkpt>
      <trkpt lat="45.60763" lon="6.84545">
        <ele>883.4</ele>
        <time>2021-07-23T08:19:52.285Z</time>
      </trkpt>
      <trkpt lat="45.60761" lon="6.84552">
        <ele>883.8</ele>
        <time>2021-07-23T08:19:53.285Z</time>
      </trkpt>
      <trkpt lat="45.60759" lon="6.84559">
        <ele>884.2</ele>
        <time>2021-07-23T08:19:54.285Z</time>
      </trkpt>
      <trkpt lat="45.60757" lon="6.84565">
        <ele>884.6</ele>
        <time>2021-07-23T08:19:55.285Z</time>
      </trkpt>
      <trkpt lat="45.60756" lon="6.84572">
        <ele>885.2</ele>
        <time>2021-07-23T08:19:56.285Z</time>
      </trkpt>
      <trkpt lat="45.60754" lon="6.84579">
        <ele>885.2</ele>
        <time>2021-07-23T08:19:57.285Z</time>
      </trkpt>
      <trkpt lat="45.60752" lon="6.84586">
        <ele>885.2</ele>
        <time>2021-07-23T08:19:58.285Z</time>
      </trkpt>
      <trkpt lat="45.6075" lon="6.84593">
        <ele>885.2</ele>
        <time>2021-07-23T08:19:59.285Z</time>
      </trkpt>
      <trkpt lat="45.60747" lon="6.84601">
        <ele>885.2</ele>
        <time>2021-07-23T08:20:00.285Z</time>
      </trkpt>
      <trkpt lat="45.60745" lon="6.84608">
        <ele>885.2</ele>
        <time>2021-07-23T08:20:01.285Z</time>
      </trkpt>
      <trkpt lat="45.60742" lon="6.84613">
        <ele>885.2</ele>
        <time>2021-07-23T08:20:02.285Z</time>
      </trkpt>
      <trkpt lat="45.60739" lon="6.84618">
        <ele>885.2</ele>
        <time>2021-07-23T08:20:03.285Z</time>
      </trkpt>
      <trkpt lat="45.60737" lon="6.84623">
        <ele>885.2</ele>
        <time>2021-07-23T08:20:04.285Z</time>
      </trkpt>
      <trkpt lat="45.60734" lon="6.84628">
        <ele>885.2</ele>
        <time>2021-07-23T08:20:05.285Z</time>
      </trkpt>
      <trkpt lat="45.60732" lon="6.84633">
        <ele>885.2</ele>
        <time>2021-07-23T08:20:06.285Z</time>
      </trkpt>
      <trkpt lat="45.60729" lon="6.84639">
        <ele>885.2</ele>
        <time>2021-07-23T08:20:07.285Z</time>
      </trkpt>
      <trkpt lat="45.60727" lon="6.84644">
        <ele>885.2</ele>
        <time>2021-07-23T08:20:08.285Z</time>
      </trkpt>
      <trkpt lat="45.60725" lon="6.8465">
        <ele>885.2</ele>
        <time>2021-07-23T08:20:09.285Z</time>
      </trkpt>
      <trkpt lat="45.60722" lon="6.84657">
        <ele>885.6</ele>
        <time>2021-07-23T08:20:10.285Z</time>
      </trkpt>
      <trkpt lat="45.6072" lon="6.84663">
        <ele>886</ele>
        <time>2021-07-23T08:20:11.285Z</time>
      </trkpt>
      <trkpt lat="45.60718" lon="6.84669">
        <ele>886.4</ele>
        <time>2021-07-23T08:20:12.285Z</time>
      </trkpt>
      <trkpt lat="45.60717" lon="6.84675">
        <ele>886.8</ele>
        <time>2021-07-23T08:20:13.285Z</time>
      </trkpt>
      <trkpt lat="45.60715" lon="6.84681">
        <ele>887.2</ele>
        <time>2021-07-23T08:20:14.285Z</time>
      </trkpt>
      <trkpt lat="45.60712" lon="6.84687">
        <ele>887.2</ele>
        <time>2021-07-23T08:20:15.285Z</time>
      </trkpt>
      <trkpt lat="45.6071" lon="6.84693">
        <ele>887.2</ele>
        <time>2021-07-23T08:20:16.285Z</time>
      </trkpt>
      <trkpt lat="45.60709" lon="6.847">
        <ele>887.2</ele>
        <time>2021-07-23T08:20:17.285Z</time>
      </trkpt>
      <trkpt lat="45.60707" lon="6.84707">
        <ele>887.6</ele>
        <time>2021-07-23T08:20:18.285Z</time>
      </trkpt>
      <trkpt lat="45.60705" lon="6.84714">
        <ele>888</ele>
        <time>2021-07-23T08:20:19.285Z</time>
      </trkpt>
      <trkpt lat="45.60703" lon="6.8472">
        <ele>888.4</ele>
        <time>2021-07-23T08:20:20.285Z</time>
      </trkpt>
      <trkpt lat="45.60701" lon="6.84727">
        <ele>888.8</ele>
        <time>2021-07-23T08:20:21.285Z</time>
      </trkpt>
      <trkpt lat="45.60699" lon="6.84734">
        <ele>889.2</ele>
        <time>2021-07-23T08:20:22.285Z</time>
      </trkpt>
      <trkpt lat="45.60698" lon="6.8474">
        <ele>889.2</ele>
        <time>2021-07-23T08:20:23.285Z</time>
      </trkpt>
      <trkpt lat="45.60697" lon="6.84747">
        <ele>889.2</ele>
        <time>2021-07-23T08:20:24.285Z</time>
      </trkpt>
      <trkpt lat="45.60695" lon="6.84753">
        <ele>889.2</ele>
        <time>2021-07-23T08:20:25.285Z</time>
      </trkpt>
      <trkpt lat="45.60693" lon="6.84759">
        <ele>889.2</ele>
        <time>2021-07-23T08:20:26.285Z</time>
      </trkpt>
      <trkpt lat="45.60692" lon="6.84765">
        <ele>889.2</ele>
        <time>2021-07-23T08:20:27.285Z</time>
      </trkpt>
      <trkpt lat="45.6069" lon="6.84771">
        <ele>889.6</ele>
        <time>2021-07-23T08:20:28.285Z</time>
      </trkpt>
      <trkpt lat="45.60688" lon="6.84777">
        <ele>890</ele>
        <time>2021-07-23T08:20:29.285Z</time>
      </trkpt>
      <trkpt lat="45.60687" lon="6.84784">
        <ele>890.6</ele>
        <time>2021-07-23T08:20:30.285Z</time>
      </trkpt>
      <trkpt lat="45.60684" lon="6.8479">
        <ele>891</ele>
        <time>2021-07-23T08:20:31.285Z</time>
      </trkpt>
      <trkpt lat="45.60682" lon="6.84797">
        <ele>891.4</ele>
        <time>2021-07-23T08:20:32.285Z</time>
      </trkpt>
      <trkpt lat="45.60681" lon="6.84803">
        <ele>891.4</ele>
        <time>2021-07-23T08:20:33.285Z</time>
      </trkpt>
      <trkpt lat="45.60679" lon="6.8481">
        <ele>891.4</ele>
        <time>2021-07-23T08:20:34.285Z</time>
      </trkpt>
      <trkpt lat="45.60677" lon="6.84816">
        <ele>891.4</ele>
        <time>2021-07-23T08:20:35.285Z</time>
      </trkpt>
      <trkpt lat="45.60676" lon="6.84822">
        <ele>891.4</ele>
        <time>2021-07-23T08:20:36.285Z</time>
      </trkpt>
      <trkpt lat="45.60674" lon="6.84828">
        <ele>891.4</ele>
        <time>2021-07-23T08:20:37.285Z</time>
      </trkpt>
      <trkpt lat="45.60672" lon="6.84834">
        <ele>891.4</ele>
        <time>2021-07-23T08:20:38.285Z</time>
      </trkpt>
      <trkpt lat="45.6067" lon="6.84841">
        <ele>891.4</ele>
        <time>2021-07-23T08:20:39.285Z</time>
      </trkpt>
      <trkpt lat="45.60669" lon="6.84847">
        <ele>891.4</ele>
        <time>2021-07-23T08:20:40.285Z</time>
      </trkpt>
      <trkpt lat="45.60667" lon="6.84854">
        <ele>891.8</ele>
        <time>2021-07-23T08:20:41.285Z</time>
      </trkpt>
      <trkpt lat="45.60666" lon="6.84861">
        <ele>892.6</ele>
        <time>2021-07-23T08:20:42.285Z</time>
      </trkpt>
      <trkpt lat="45.60665" lon="6.84868">
        <ele>893</ele>
        <time>2021-07-23T08:20:43.285Z</time>
      </trkpt>
      <trkpt lat="45.60664" lon="6.84874">
        <ele>893.4</ele>
        <time>2021-07-23T08:20:44.285Z</time>
      </trkpt>
      <trkpt lat="45.60664" lon="6.84881">
        <ele>893.4</ele>
        <time>2021-07-23T08:20:45.285Z</time>
      </trkpt>
      <trkpt lat="45.60663" lon="6.84888">
        <ele>893.4</ele>
        <time>2021-07-23T08:20:46.285Z</time>
      </trkpt>
      <trkpt lat="45.60663" lon="6.84896">
        <ele>893.4</ele>
        <time>2021-07-23T08:20:47.285Z</time>
      </trkpt>
      <trkpt lat="45.60662" lon="6.84903">
        <ele>893.4</ele>
        <time>2021-07-23T08:20:48.285Z</time>
      </trkpt>
      <trkpt lat="45.60662" lon="6.8491">
        <ele>893.4</ele>
        <time>2021-07-23T08:20:49.285Z</time>
      </trkpt>
      <trkpt lat="45.60661" lon="6.84918">
        <ele>893.4</ele>
        <time>2021-07-23T08:20:50.285Z</time>
      </trkpt>
      <trkpt lat="45.6066" lon="6.84926">
        <ele>893.4</ele>
        <time>2021-07-23T08:20:51.285Z</time>
      </trkpt>
      <trkpt lat="45.60659" lon="6.84933">
        <ele>893.4</ele>
        <time>2021-07-23T08:20:52.285Z</time>
      </trkpt>
      <trkpt lat="45.60658" lon="6.84941">
        <ele>893.4</ele>
        <time>2021-07-23T08:20:53.285Z</time>
      </trkpt>
      <trkpt lat="45.60657" lon="6.84949">
        <ele>893.4</ele>
        <time>2021-07-23T08:20:54.285Z</time>
      </trkpt>
      <trkpt lat="45.60656" lon="6.84957">
        <ele>893.4</ele>
        <time>2021-07-23T08:20:55.285Z</time>
      </trkpt>
      <trkpt lat="45.60655" lon="6.84964">
        <ele>893.4</ele>
        <time>2021-07-23T08:20:56.285Z</time>
      </trkpt>
      <trkpt lat="45.60654" lon="6.84972">
        <ele>893.4</ele>
        <time>2021-07-23T08:20:57.285Z</time>
      </trkpt>
      <trkpt lat="45.60652" lon="6.8498">
        <ele>893.4</ele>
        <time>2021-07-23T08:20:58.285Z</time>
      </trkpt>
      <trkpt lat="45.60651" lon="6.84988">
        <ele>893.4</ele>
        <time>2021-07-23T08:20:59.285Z</time>
      </trkpt>
      <trkpt lat="45.60649" lon="6.84997">
        <ele>893.4</ele>
        <time>2021-07-23T08:21:00.285Z</time>
      </trkpt>
      <trkpt lat="45.60646" lon="6.85006">
        <ele>893.4</ele>
        <time>2021-07-23T08:21:01.285Z</time>
      </trkpt>
      <trkpt lat="45.60643" lon="6.85016">
        <ele>893.4</ele>
        <time>2021-07-23T08:21:02.285Z</time>
      </trkpt>
      <trkpt lat="45.6064" lon="6.85026">
        <ele>893.4</ele>
        <time>2021-07-23T08:21:03.285Z</time>
      </trkpt>
      <trkpt lat="45.60637" lon="6.85036">
        <ele>893.4</ele>
        <time>2021-07-23T08:21:04.285Z</time>
      </trkpt>
      <trkpt lat="45.60634" lon="6.85046">
        <ele>893.4</ele>
        <time>2021-07-23T08:21:05.285Z</time>
      </trkpt>
      <trkpt lat="45.6063" lon="6.85056">
        <ele>893.4</ele>
        <time>2021-07-23T08:21:06.285Z</time>
      </trkpt>
      <trkpt lat="45.60626" lon="6.85065">
        <ele>893.4</ele>
        <time>2021-07-23T08:21:07.285Z</time>
      </trkpt>
      <trkpt lat="45.60623" lon="6.85075">
        <ele>893.4</ele>
        <time>2021-07-23T08:21:08.285Z</time>
      </trkpt>
      <trkpt lat="45.60619" lon="6.85084">
        <ele>893.4</ele>
        <time>2021-07-23T08:21:09.285Z</time>
      </trkpt>
      <trkpt lat="45.60615" lon="6.85093">
        <ele>893.4</ele>
        <time>2021-07-23T08:21:10.285Z</time>
      </trkpt>
      <trkpt lat="45.60611" lon="6.85102">
        <ele>893.4</ele>
        <time>2021-07-23T08:21:11.285Z</time>
      </trkpt>
      <trkpt lat="45.60607" lon="6.85112">
        <ele>893.4</ele>
        <time>2021-07-23T08:21:12.285Z</time>
      </trkpt>
      <trkpt lat="45.60603" lon="6.85121">
        <ele>893.4</ele>
        <time>2021-07-23T08:21:13.285Z</time>
      </trkpt>
      <trkpt lat="45.606" lon="6.85132">
        <ele>893</ele>
        <time>2021-07-23T08:21:14.285Z</time>
      </trkpt>
      <trkpt lat="45.60598" lon="6.85143">
        <ele>892.6</ele>
        <time>2021-07-23T08:21:15.285Z</time>
      </trkpt>
      <trkpt lat="45.60595" lon="6.85154">
        <ele>892.2</ele>
        <time>2021-07-23T08:21:16.285Z</time>
      </trkpt>
      <trkpt lat="45.60593" lon="6.85166">
        <ele>891.8</ele>
        <time>2021-07-23T08:21:17.285Z</time>
      </trkpt>
      <trkpt lat="45.60591" lon="6.85178">
        <ele>891.4</ele>
        <time>2021-07-23T08:21:18.285Z</time>
      </trkpt>
      <trkpt lat="45.60589" lon="6.85189">
        <ele>891.4</ele>
        <time>2021-07-23T08:21:19.285Z</time>
      </trkpt>
      <trkpt lat="45.60589" lon="6.85202">
        <ele>891.4</ele>
        <time>2021-07-23T08:21:20.285Z</time>
      </trkpt>
      <trkpt lat="45.60589" lon="6.85214">
        <ele>891.4</ele>
        <time>2021-07-23T08:21:21.285Z</time>
      </trkpt>
      <trkpt lat="45.60589" lon="6.85226">
        <ele>891.4</ele>
        <time>2021-07-23T08:21:22.285Z</time>
      </trkpt>
      <trkpt lat="45.60589" lon="6.85238">
        <ele>891</ele>
        <time>2021-07-23T08:21:23.285Z</time>
      </trkpt>
      <trkpt lat="45.60589" lon="6.85251">
        <ele>890.4</ele>
        <time>2021-07-23T08:21:24.285Z</time>
      </trkpt>
      <trkpt lat="45.60589" lon="6.85264">
        <ele>890</ele>
        <time>2021-07-23T08:21:25.285Z</time>
      </trkpt>
      <trkpt lat="45.60589" lon="6.85277">
        <ele>889.6</ele>
        <time>2021-07-23T08:21:26.285Z</time>
      </trkpt>
      <trkpt lat="45.60589" lon="6.85289">
        <ele>889.2</ele>
        <time>2021-07-23T08:21:27.285Z</time>
      </trkpt>
      <trkpt lat="45.60588" lon="6.85302">
        <ele>889.2</ele>
        <time>2021-07-23T08:21:28.285Z</time>
      </trkpt>
      <trkpt lat="45.60588" lon="6.85314">
        <ele>889.2</ele>
        <time>2021-07-23T08:21:29.285Z</time>
      </trkpt>
      <trkpt lat="45.60587" lon="6.85326">
        <ele>889.2</ele>
        <time>2021-07-23T08:21:30.285Z</time>
      </trkpt>
      <trkpt lat="45.60586" lon="6.85339">
        <ele>889.2</ele>
        <time>2021-07-23T08:21:31.285Z</time>
      </trkpt>
      <trkpt lat="45.60585" lon="6.85351">
        <ele>889.2</ele>
        <time>2021-07-23T08:21:32.285Z</time>
      </trkpt>
      <trkpt lat="45.60583" lon="6.85362">
        <ele>889.2</ele>
        <time>2021-07-23T08:21:33.285Z</time>
      </trkpt>
      <trkpt lat="45.60582" lon="6.85374">
        <ele>889.2</ele>
        <time>2021-07-23T08:21:34.285Z</time>
      </trkpt>
      <trkpt lat="45.6058" lon="6.85386">
        <ele>889.2</ele>
        <time>2021-07-23T08:21:35.285Z</time>
      </trkpt>
      <trkpt lat="45.60579" lon="6.85398">
        <ele>889.2</ele>
        <time>2021-07-23T08:21:36.285Z</time>
      </trkpt>
      <trkpt lat="45.60577" lon="6.85409">
        <ele>889.2</ele>
        <time>2021-07-23T08:21:37.285Z</time>
      </trkpt>
      <trkpt lat="45.60576" lon="6.8542">
        <ele>889.2</ele>
        <time>2021-07-23T08:21:38.285Z</time>
      </trkpt>
      <trkpt lat="45.60574" lon="6.85432">
        <ele>889.2</ele>
        <time>2021-07-23T08:21:39.285Z</time>
      </trkpt>
      <trkpt lat="45.60572" lon="6.85443">
        <ele>889.2</ele>
        <time>2021-07-23T08:21:40.285Z</time>
      </trkpt>
      <trkpt lat="45.6057" lon="6.85454">
        <ele>889.2</ele>
        <time>2021-07-23T08:21:41.285Z</time>
      </trkpt>
      <trkpt lat="45.60567" lon="6.85466">
        <ele>889.2</ele>
        <time>2021-07-23T08:21:42.285Z</time>
      </trkpt>
      <trkpt lat="45.60564" lon="6.85477">
        <ele>889.2</ele>
        <time>2021-07-23T08:21:43.285Z</time>
      </trkpt>
      <trkpt lat="45.60561" lon="6.85487">
        <ele>889.2</ele>
        <time>2021-07-23T08:21:44.285Z</time>
      </trkpt>
      <trkpt lat="45.60557" lon="6.85498">
        <ele>889.2</ele>
        <time>2021-07-23T08:21:45.285Z</time>
      </trkpt>
      <trkpt lat="45.60553" lon="6.85508">
        <ele>889.2</ele>
        <time>2021-07-23T08:21:46.285Z</time>
      </trkpt>
      <trkpt lat="45.60548" lon="6.85518">
        <ele>889.2</ele>
        <time>2021-07-23T08:21:47.285Z</time>
      </trkpt>
      <trkpt lat="45.60543" lon="6.85527">
        <ele>889.2</ele>
        <time>2021-07-23T08:21:48.285Z</time>
      </trkpt>
      <trkpt lat="45.60538" lon="6.85535">
        <ele>889.2</ele>
        <time>2021-07-23T08:21:49.285Z</time>
      </trkpt>
      <trkpt lat="45.60533" lon="6.85542">
        <ele>889.2</ele>
        <time>2021-07-23T08:21:50.285Z</time>
      </trkpt>
      <trkpt lat="45.60528" lon="6.85551">
        <ele>889.2</ele>
        <time>2021-07-23T08:21:51.285Z</time>
      </trkpt>
      <trkpt lat="45.60522" lon="6.85558">
        <ele>889.2</ele>
        <time>2021-07-23T08:21:52.285Z</time>
      </trkpt>
      <trkpt lat="45.60517" lon="6.85567">
        <ele>889.2</ele>
        <time>2021-07-23T08:21:53.285Z</time>
      </trkpt>
      <trkpt lat="45.60511" lon="6.85575">
        <ele>889.2</ele>
        <time>2021-07-23T08:21:54.285Z</time>
      </trkpt>
      <trkpt lat="45.60505" lon="6.85584">
        <ele>889.2</ele>
        <time>2021-07-23T08:21:55.285Z</time>
      </trkpt>
      <trkpt lat="45.605" lon="6.85592">
        <ele>889.2</ele>
        <time>2021-07-23T08:21:56.285Z</time>
      </trkpt>
      <trkpt lat="45.60495" lon="6.856">
        <ele>889.2</ele>
        <time>2021-07-23T08:21:57.285Z</time>
      </trkpt>
      <trkpt lat="45.60489" lon="6.85607">
        <ele>889.2</ele>
        <time>2021-07-23T08:21:58.285Z</time>
      </trkpt>
      <trkpt lat="45.60484" lon="6.85615">
        <ele>889.2</ele>
        <time>2021-07-23T08:21:59.285Z</time>
      </trkpt>
      <trkpt lat="45.60479" lon="6.85623">
        <ele>889.2</ele>
        <time>2021-07-23T08:22:00.285Z</time>
      </trkpt>
      <trkpt lat="45.60474" lon="6.85631">
        <ele>889.2</ele>
        <time>2021-07-23T08:22:01.285Z</time>
      </trkpt>
      <trkpt lat="45.60469" lon="6.85639">
        <ele>889.6</ele>
        <time>2021-07-23T08:22:02.285Z</time>
      </trkpt>
      <trkpt lat="45.60464" lon="6.85647">
        <ele>890.2</ele>
        <time>2021-07-23T08:22:03.285Z</time>
      </trkpt>
      <trkpt lat="45.60459" lon="6.85655">
        <ele>890.6</ele>
        <time>2021-07-23T08:22:04.285Z</time>
      </trkpt>
      <trkpt lat="45.60454" lon="6.85662">
        <ele>891</ele>
        <time>2021-07-23T08:22:05.285Z</time>
      </trkpt>
      <trkpt lat="45.60448" lon="6.8567">
        <ele>891.4</ele>
        <time>2021-07-23T08:22:06.285Z</time>
      </trkpt>
      <trkpt lat="45.60443" lon="6.85678">
        <ele>891.4</ele>
        <time>2021-07-23T08:22:07.285Z</time>
      </trkpt>
      <trkpt lat="45.60438" lon="6.85686">
        <ele>891.4</ele>
        <time>2021-07-23T08:22:08.285Z</time>
      </trkpt>
      <trkpt lat="45.60433" lon="6.85694">
        <ele>891.4</ele>
        <time>2021-07-23T08:22:09.285Z</time>
      </trkpt>
      <trkpt lat="45.60429" lon="6.85702">
        <ele>891.4</ele>
        <time>2021-07-23T08:22:10.285Z</time>
      </trkpt>
      <trkpt lat="45.60424" lon="6.8571">
        <ele>891.4</ele>
        <time>2021-07-23T08:22:11.285Z</time>
      </trkpt>
      <trkpt lat="45.60419" lon="6.85718">
        <ele>891.4</ele>
        <time>2021-07-23T08:22:12.285Z</time>
      </trkpt>
      <trkpt lat="45.60415" lon="6.85727">
        <ele>891.4</ele>
        <time>2021-07-23T08:22:13.285Z</time>
      </trkpt>
      <trkpt lat="45.60411" lon="6.85736">
        <ele>891.4</ele>
        <time>2021-07-23T08:22:14.285Z</time>
      </trkpt>
      <trkpt lat="45.60407" lon="6.85744">
        <ele>891.4</ele>
        <time>2021-07-23T08:22:15.285Z</time>
      </trkpt>
      <trkpt lat="45.60403" lon="6.85753">
        <ele>891.4</ele>
        <time>2021-07-23T08:22:16.285Z</time>
      </trkpt>
      <trkpt lat="45.60399" lon="6.85763">
        <ele>891.4</ele>
        <time>2021-07-23T08:22:17.285Z</time>
      </trkpt>
      <trkpt lat="45.60395" lon="6.85772">
        <ele>891.4</ele>
        <time>2021-07-23T08:22:18.285Z</time>
      </trkpt>
      <trkpt lat="45.60391" lon="6.85782">
        <ele>891.4</ele>
        <time>2021-07-23T08:22:19.285Z</time>
      </trkpt>
      <trkpt lat="45.60387" lon="6.85791">
        <ele>891.8</ele>
        <time>2021-07-23T08:22:20.285Z</time>
      </trkpt>
      <trkpt lat="45.60384" lon="6.85801">
        <ele>892.6</ele>
        <time>2021-07-23T08:22:21.285Z</time>
      </trkpt>
      <trkpt lat="45.6038" lon="6.85811">
        <ele>893</ele>
        <time>2021-07-23T08:22:22.285Z</time>
      </trkpt>
      <trkpt lat="45.60377" lon="6.8582">
        <ele>893.4</ele>
        <time>2021-07-23T08:22:23.285Z</time>
      </trkpt>
      <trkpt lat="45.60373" lon="6.85829">
        <ele>893.4</ele>
        <time>2021-07-23T08:22:24.285Z</time>
      </trkpt>
      <trkpt lat="45.60369" lon="6.85839">
        <ele>893.4</ele>
        <time>2021-07-23T08:22:25.285Z</time>
      </trkpt>
      <trkpt lat="45.60365" lon="6.85849">
        <ele>893.4</ele>
        <time>2021-07-23T08:22:26.285Z</time>
      </trkpt>
      <trkpt lat="45.60361" lon="6.85858">
        <ele>893.4</ele>
        <time>2021-07-23T08:22:27.285Z</time>
      </trkpt>
      <trkpt lat="45.60358" lon="6.85867">
        <ele>893.4</ele>
        <time>2021-07-23T08:22:28.285Z</time>
      </trkpt>
      <trkpt lat="45.60355" lon="6.85877">
        <ele>893.4</ele>
        <time>2021-07-23T08:22:29.285Z</time>
      </trkpt>
      <trkpt lat="45.60352" lon="6.85888">
        <ele>893.4</ele>
        <time>2021-07-23T08:22:30.285Z</time>
      </trkpt>
      <trkpt lat="45.6035" lon="6.85898">
        <ele>893.4</ele>
        <time>2021-07-23T08:22:31.285Z</time>
      </trkpt>
      <trkpt lat="45.60348" lon="6.8591">
        <ele>893.4</ele>
        <time>2021-07-23T08:22:32.285Z</time>
      </trkpt>
      <trkpt lat="45.60346" lon="6.85921">
        <ele>893.4</ele>
        <time>2021-07-23T08:22:33.285Z</time>
      </trkpt>
      <trkpt lat="45.60345" lon="6.85933">
        <ele>893.4</ele>
        <time>2021-07-23T08:22:34.285Z</time>
      </trkpt>
      <trkpt lat="45.60345" lon="6.85944">
        <ele>893.4</ele>
        <time>2021-07-23T08:22:35.285Z</time>
      </trkpt>
      <trkpt lat="45.60345" lon="6.85955">
        <ele>893.4</ele>
        <time>2021-07-23T08:22:36.285Z</time>
      </trkpt>
      <trkpt lat="45.60345" lon="6.85966">
        <ele>893.4</ele>
        <time>2021-07-23T08:22:37.285Z</time>
      </trkpt>
      <trkpt lat="45.60345" lon="6.85977">
        <ele>893.4</ele>
        <time>2021-07-23T08:22:38.285Z</time>
      </trkpt>
      <trkpt lat="45.60345" lon="6.85988">
        <ele>893.4</ele>
        <time>2021-07-23T08:22:39.285Z</time>
      </trkpt>
      <trkpt lat="45.60346" lon="6.85999">
        <ele>893.4</ele>
        <time>2021-07-23T08:22:40.285Z</time>
      </trkpt>
      <trkpt lat="45.60346" lon="6.8601">
        <ele>893.4</ele>
        <time>2021-07-23T08:22:41.285Z</time>
      </trkpt>
      <trkpt lat="45.60347" lon="6.86021">
        <ele>893.4</ele>
        <time>2021-07-23T08:22:42.285Z</time>
      </trkpt>
      <trkpt lat="45.60347" lon="6.86031">
        <ele>893.4</ele>
        <time>2021-07-23T08:22:43.285Z</time>
      </trkpt>
      <trkpt lat="45.60348" lon="6.86042">
        <ele>893.4</ele>
        <time>2021-07-23T08:22:44.285Z</time>
      </trkpt>
      <trkpt lat="45.60348" lon="6.86053">
        <ele>893.4</ele>
        <time>2021-07-23T08:22:45.285Z</time>
      </trkpt>
      <trkpt lat="45.60348" lon="6.86063">
        <ele>893.4</ele>
        <time>2021-07-23T08:22:46.285Z</time>
      </trkpt>
      <trkpt lat="45.60347" lon="6.86075">
        <ele>893.4</ele>
        <time>2021-07-23T08:22:47.285Z</time>
      </trkpt>
      <trkpt lat="45.60347" lon="6.86085">
        <ele>893.4</ele>
        <time>2021-07-23T08:22:48.285Z</time>
      </trkpt>
      <trkpt lat="45.60346" lon="6.86096">
        <ele>893.4</ele>
        <time>2021-07-23T08:22:49.285Z</time>
      </trkpt>
      <trkpt lat="45.60344" lon="6.86107">
        <ele>893.4</ele>
        <time>2021-07-23T08:22:50.285Z</time>
      </trkpt>
      <trkpt lat="45.60342" lon="6.86117">
        <ele>893.4</ele>
        <time>2021-07-23T08:22:51.285Z</time>
      </trkpt>
      <trkpt lat="45.6034" lon="6.86128">
        <ele>893.4</ele>
        <time>2021-07-23T08:22:52.285Z</time>
      </trkpt>
      <trkpt lat="45.60338" lon="6.86138">
        <ele>893.4</ele>
        <time>2021-07-23T08:22:53.285Z</time>
      </trkpt>
      <trkpt lat="45.60336" lon="6.86149">
        <ele>893.4</ele>
        <time>2021-07-23T08:22:54.285Z</time>
      </trkpt>
      <trkpt lat="45.60334" lon="6.86161">
        <ele>893.4</ele>
        <time>2021-07-23T08:22:55.285Z</time>
      </trkpt>
      <trkpt lat="45.60333" lon="6.86172">
        <ele>893.4</ele>
        <time>2021-07-23T08:22:56.285Z</time>
      </trkpt>
      <trkpt lat="45.6033" lon="6.86184">
        <ele>893.4</ele>
        <time>2021-07-23T08:22:57.285Z</time>
      </trkpt>
      <trkpt lat="45.60327" lon="6.86195">
        <ele>893.4</ele>
        <time>2021-07-23T08:22:58.285Z</time>
      </trkpt>
      <trkpt lat="45.60325" lon="6.86206">
        <ele>893.4</ele>
        <time>2021-07-23T08:22:59.285Z</time>
      </trkpt>
      <trkpt lat="45.60322" lon="6.86218">
        <ele>893.4</ele>
        <time>2021-07-23T08:23:00.285Z</time>
      </trkpt>
      <trkpt lat="45.6032" lon="6.86229">
        <ele>893.4</ele>
        <time>2021-07-23T08:23:01.285Z</time>
      </trkpt>
      <trkpt lat="45.60317" lon="6.86241">
        <ele>893.4</ele>
        <time>2021-07-23T08:23:02.285Z</time>
      </trkpt>
      <trkpt lat="45.60314" lon="6.86253">
        <ele>893.4</ele>
        <time>2021-07-23T08:23:03.285Z</time>
      </trkpt>
      <trkpt lat="45.60312" lon="6.86264">
        <ele>893.4</ele>
        <time>2021-07-23T08:23:04.285Z</time>
      </trkpt>
      <trkpt lat="45.60309" lon="6.86276">
        <ele>893.4</ele>
        <time>2021-07-23T08:23:05.285Z</time>
      </trkpt>
      <trkpt lat="45.60307" lon="6.86287">
        <ele>893.4</ele>
        <time>2021-07-23T08:23:06.285Z</time>
      </trkpt>
      <trkpt lat="45.60306" lon="6.86299">
        <ele>893.4</ele>
        <time>2021-07-23T08:23:07.285Z</time>
      </trkpt>
      <trkpt lat="45.60304" lon="6.8631">
        <ele>893.4</ele>
        <time>2021-07-23T08:23:08.285Z</time>
      </trkpt>
      <trkpt lat="45.60303" lon="6.86322">
        <ele>893.4</ele>
        <time>2021-07-23T08:23:09.285Z</time>
      </trkpt>
      <trkpt lat="45.60301" lon="6.86334">
        <ele>893.4</ele>
        <time>2021-07-23T08:23:10.285Z</time>
      </trkpt>
      <trkpt lat="45.603" lon="6.86346">
        <ele>893.4</ele>
        <time>2021-07-23T08:23:11.285Z</time>
      </trkpt>
      <trkpt lat="45.60298" lon="6.86357">
        <ele>893.4</ele>
        <time>2021-07-23T08:23:12.285Z</time>
      </trkpt>
      <trkpt lat="45.60297" lon="6.86369">
        <ele>893.4</ele>
        <time>2021-07-23T08:23:13.285Z</time>
      </trkpt>
      <trkpt lat="45.60295" lon="6.8638">
        <ele>893.4</ele>
        <time>2021-07-23T08:23:14.285Z</time>
      </trkpt>
      <trkpt lat="45.60293" lon="6.86392">
        <ele>893.4</ele>
        <time>2021-07-23T08:23:15.285Z</time>
      </trkpt>
      <trkpt lat="45.60291" lon="6.86403">
        <ele>893.4</ele>
        <time>2021-07-23T08:23:16.285Z</time>
      </trkpt>
      <trkpt lat="45.60289" lon="6.86415">
        <ele>893.4</ele>
        <time>2021-07-23T08:23:17.285Z</time>
      </trkpt>
      <trkpt lat="45.60286" lon="6.86426">
        <ele>893.4</ele>
        <time>2021-07-23T08:23:18.285Z</time>
      </trkpt>
      <trkpt lat="45.60283" lon="6.86437">
        <ele>893.4</ele>
        <time>2021-07-23T08:23:19.285Z</time>
      </trkpt>
      <trkpt lat="45.60281" lon="6.86448">
        <ele>893.4</ele>
        <time>2021-07-23T08:23:20.285Z</time>
      </trkpt>
      <trkpt lat="45.60278" lon="6.86459">
        <ele>893.4</ele>
        <time>2021-07-23T08:23:21.285Z</time>
      </trkpt>
      <trkpt lat="45.60274" lon="6.8647">
        <ele>893.4</ele>
        <time>2021-07-23T08:23:22.285Z</time>
      </trkpt>
      <trkpt lat="45.6027" lon="6.86481">
        <ele>893.4</ele>
        <time>2021-07-23T08:23:23.285Z</time>
      </trkpt>
      <trkpt lat="45.60266" lon="6.86492">
        <ele>893.4</ele>
        <time>2021-07-23T08:23:24.285Z</time>
      </trkpt>
      <trkpt lat="45.60261" lon="6.86502">
        <ele>893.4</ele>
        <time>2021-07-23T08:23:25.285Z</time>
      </trkpt>
      <trkpt lat="45.60256" lon="6.86511">
        <ele>893.4</ele>
        <time>2021-07-23T08:23:26.285Z</time>
      </trkpt>
      <trkpt lat="45.60251" lon="6.8652">
        <ele>893.4</ele>
        <time>2021-07-23T08:23:27.285Z</time>
      </trkpt>
      <trkpt lat="45.60245" lon="6.86529">
        <ele>893.4</ele>
        <time>2021-07-23T08:23:28.285Z</time>
      </trkpt>
      <trkpt lat="45.60239" lon="6.86536">
        <ele>893.4</ele>
        <time>2021-07-23T08:23:29.285Z</time>
      </trkpt>
      <trkpt lat="45.60233" lon="6.86544">
        <ele>893.4</ele>
        <time>2021-07-23T08:23:30.285Z</time>
      </trkpt>
      <trkpt lat="45.60226" lon="6.86551">
        <ele>893.4</ele>
        <time>2021-07-23T08:23:31.285Z</time>
      </trkpt>
      <trkpt lat="45.60219" lon="6.86558">
        <ele>893.4</ele>
        <time>2021-07-23T08:23:32.285Z</time>
      </trkpt>
      <trkpt lat="45.60213" lon="6.86565">
        <ele>893.4</ele>
        <time>2021-07-23T08:23:33.285Z</time>
      </trkpt>
      <trkpt lat="45.60206" lon="6.86572">
        <ele>893.4</ele>
        <time>2021-07-23T08:23:34.285Z</time>
      </trkpt>
      <trkpt lat="45.60199" lon="6.86578">
        <ele>893.4</ele>
        <time>2021-07-23T08:23:35.285Z</time>
      </trkpt>
      <trkpt lat="45.60192" lon="6.86585">
        <ele>893.4</ele>
        <time>2021-07-23T08:23:36.285Z</time>
      </trkpt>
      <trkpt lat="45.60186" lon="6.86591">
        <ele>893.4</ele>
        <time>2021-07-23T08:23:37.285Z</time>
      </trkpt>
      <trkpt lat="45.60179" lon="6.86599">
        <ele>893.4</ele>
        <time>2021-07-23T08:23:38.285Z</time>
      </trkpt>
      <trkpt lat="45.60172" lon="6.86606">
        <ele>893.4</ele>
        <time>2021-07-23T08:23:39.285Z</time>
      </trkpt>
      <trkpt lat="45.60166" lon="6.86613">
        <ele>893.4</ele>
        <time>2021-07-23T08:23:40.285Z</time>
      </trkpt>
      <trkpt lat="45.60159" lon="6.8662">
        <ele>893.4</ele>
        <time>2021-07-23T08:23:41.285Z</time>
      </trkpt>
      <trkpt lat="45.60152" lon="6.86626">
        <ele>893.4</ele>
        <time>2021-07-23T08:23:42.285Z</time>
      </trkpt>
      <trkpt lat="45.60146" lon="6.86633">
        <ele>893.4</ele>
        <time>2021-07-23T08:23:43.285Z</time>
      </trkpt>
      <trkpt lat="45.60139" lon="6.8664">
        <ele>893.4</ele>
        <time>2021-07-23T08:23:44.285Z</time>
      </trkpt>
      <trkpt lat="45.60132" lon="6.86646">
        <ele>893.4</ele>
        <time>2021-07-23T08:23:45.285Z</time>
      </trkpt>
      <trkpt lat="45.60126" lon="6.86653">
        <ele>893.4</ele>
        <time>2021-07-23T08:23:46.285Z</time>
      </trkpt>
      <trkpt lat="45.60119" lon="6.8666">
        <ele>893.4</ele>
        <time>2021-07-23T08:23:47.285Z</time>
      </trkpt>
      <trkpt lat="45.60113" lon="6.86667">
        <ele>893.4</ele>
        <time>2021-07-23T08:23:48.285Z</time>
      </trkpt>
      <trkpt lat="45.60106" lon="6.86673">
        <ele>893.4</ele>
        <time>2021-07-23T08:23:49.285Z</time>
      </trkpt>
      <trkpt lat="45.601" lon="6.8668">
        <ele>893.4</ele>
        <time>2021-07-23T08:23:50.285Z</time>
      </trkpt>
      <trkpt lat="45.60094" lon="6.86686">
        <ele>893.4</ele>
        <time>2021-07-23T08:23:51.285Z</time>
      </trkpt>
      <trkpt lat="45.60087" lon="6.86693">
        <ele>893.4</ele>
        <time>2021-07-23T08:23:52.285Z</time>
      </trkpt>
      <trkpt lat="45.60081" lon="6.867">
        <ele>893.4</ele>
        <time>2021-07-23T08:23:53.285Z</time>
      </trkpt>
      <trkpt lat="45.60074" lon="6.86706">
        <ele>893.4</ele>
        <time>2021-07-23T08:23:54.285Z</time>
      </trkpt>
      <trkpt lat="45.60068" lon="6.86713">
        <ele>893.4</ele>
        <time>2021-07-23T08:23:55.285Z</time>
      </trkpt>
      <trkpt lat="45.60062" lon="6.86719">
        <ele>893.8</ele>
        <time>2021-07-23T08:23:56.285Z</time>
      </trkpt>
      <trkpt lat="45.60056" lon="6.86726">
        <ele>894.2</ele>
        <time>2021-07-23T08:23:57.285Z</time>
      </trkpt>
      <trkpt lat="45.6005" lon="6.86732">
        <ele>894.8</ele>
        <time>2021-07-23T08:23:58.285Z</time>
      </trkpt>
      <trkpt lat="45.60043" lon="6.86739">
        <ele>895.6</ele>
        <time>2021-07-23T08:23:59.285Z</time>
      </trkpt>
      <trkpt lat="45.60037" lon="6.86746">
        <ele>895.6</ele>
        <time>2021-07-23T08:24:00.285Z</time>
      </trkpt>
      <trkpt lat="45.60031" lon="6.86753">
        <ele>895.6</ele>
        <time>2021-07-23T08:24:01.285Z</time>
      </trkpt>
      <trkpt lat="45.60025" lon="6.86761">
        <ele>895.6</ele>
        <time>2021-07-23T08:24:02.285Z</time>
      </trkpt>
      <trkpt lat="45.6002" lon="6.86769">
        <ele>895.6</ele>
        <time>2021-07-23T08:24:03.285Z</time>
      </trkpt>
      <trkpt lat="45.60014" lon="6.86777">
        <ele>895.6</ele>
        <time>2021-07-23T08:24:04.285Z</time>
      </trkpt>
      <trkpt lat="45.60009" lon="6.86786">
        <ele>895.6</ele>
        <time>2021-07-23T08:24:05.285Z</time>
      </trkpt>
      <trkpt lat="45.60004" lon="6.86795">
        <ele>895.6</ele>
        <time>2021-07-23T08:24:06.285Z</time>
      </trkpt>
      <trkpt lat="45.6" lon="6.86803">
        <ele>895.6</ele>
        <time>2021-07-23T08:24:07.285Z</time>
      </trkpt>
      <trkpt lat="45.59996" lon="6.86811">
        <ele>895.6</ele>
        <time>2021-07-23T08:24:08.285Z</time>
      </trkpt>
      <trkpt lat="45.59992" lon="6.86819">
        <ele>895.6</ele>
        <time>2021-07-23T08:24:09.285Z</time>
      </trkpt>
      <trkpt lat="45.59988" lon="6.86828">
        <ele>895.6</ele>
        <time>2021-07-23T08:24:10.285Z</time>
      </trkpt>
      <trkpt lat="45.59984" lon="6.86838">
        <ele>895.6</ele>
        <time>2021-07-23T08:24:11.285Z</time>
      </trkpt>
      <trkpt lat="45.5998" lon="6.86848">
        <ele>895.6</ele>
        <time>2021-07-23T08:24:12.285Z</time>
      </trkpt>
      <trkpt lat="45.59976" lon="6.86857">
        <ele>895.6</ele>
        <time>2021-07-23T08:24:13.285Z</time>
      </trkpt>
      <trkpt lat="45.59973" lon="6.86867">
        <ele>895.6</ele>
        <time>2021-07-23T08:24:14.285Z</time>
      </trkpt>
      <trkpt lat="45.5997" lon="6.86877">
        <ele>895.6</ele>
        <time>2021-07-23T08:24:15.285Z</time>
      </trkpt>
      <trkpt lat="45.59967" lon="6.86888">
        <ele>896</ele>
        <time>2021-07-23T08:24:16.285Z</time>
      </trkpt>
      <trkpt lat="45.59964" lon="6.86898">
        <ele>896.4</ele>
        <time>2021-07-23T08:24:17.285Z</time>
      </trkpt>
      <trkpt lat="45.59962" lon="6.86909">
        <ele>896.8</ele>
        <time>2021-07-23T08:24:18.285Z</time>
      </trkpt>
      <trkpt lat="45.5996" lon="6.8692">
        <ele>897.2</ele>
        <time>2021-07-23T08:24:19.285Z</time>
      </trkpt>
      <trkpt lat="45.59958" lon="6.86931">
        <ele>897.6</ele>
        <time>2021-07-23T08:24:20.285Z</time>
      </trkpt>
      <trkpt lat="45.59957" lon="6.86942">
        <ele>897.6</ele>
        <time>2021-07-23T08:24:21.285Z</time>
      </trkpt>
      <trkpt lat="45.59955" lon="6.86953">
        <ele>897.6</ele>
        <time>2021-07-23T08:24:22.285Z</time>
      </trkpt>
      <trkpt lat="45.59953" lon="6.86963">
        <ele>897.6</ele>
        <time>2021-07-23T08:24:23.285Z</time>
      </trkpt>
      <trkpt lat="45.59951" lon="6.86973">
        <ele>897.6</ele>
        <time>2021-07-23T08:24:24.285Z</time>
      </trkpt>
      <trkpt lat="45.59948" lon="6.86983">
        <ele>897.6</ele>
        <time>2021-07-23T08:24:25.285Z</time>
      </trkpt>
      <trkpt lat="45.59946" lon="6.86994">
        <ele>897.6</ele>
        <time>2021-07-23T08:24:26.285Z</time>
      </trkpt>
      <trkpt lat="45.59943" lon="6.87003">
        <ele>897.6</ele>
        <time>2021-07-23T08:24:27.285Z</time>
      </trkpt>
      <trkpt lat="45.59941" lon="6.87013">
        <ele>897.6</ele>
        <time>2021-07-23T08:24:28.285Z</time>
      </trkpt>
      <trkpt lat="45.59939" lon="6.87022">
        <ele>897.6</ele>
        <time>2021-07-23T08:24:29.285Z</time>
      </trkpt>
      <trkpt lat="45.59936" lon="6.87031">
        <ele>897.6</ele>
        <time>2021-07-23T08:24:30.285Z</time>
      </trkpt>
      <trkpt lat="45.59934" lon="6.8704">
        <ele>897.6</ele>
        <time>2021-07-23T08:24:31.285Z</time>
      </trkpt>
      <trkpt lat="45.59931" lon="6.87049">
        <ele>897.6</ele>
        <time>2021-07-23T08:24:32.285Z</time>
      </trkpt>
      <trkpt lat="45.59929" lon="6.87058">
        <ele>897.6</ele>
        <time>2021-07-23T08:24:33.285Z</time>
      </trkpt>
      <trkpt lat="45.59926" lon="6.87066">
        <ele>897.6</ele>
        <time>2021-07-23T08:24:34.285Z</time>
      </trkpt>
      <trkpt lat="45.59924" lon="6.87074">
        <ele>898.2</ele>
        <time>2021-07-23T08:24:35.285Z</time>
      </trkpt>
      <trkpt lat="45.59921" lon="6.87083">
        <ele>898.6</ele>
        <time>2021-07-23T08:24:36.285Z</time>
      </trkpt>
      <trkpt lat="45.59918" lon="6.87091">
        <ele>899</ele>
        <time>2021-07-23T08:24:37.285Z</time>
      </trkpt>
      <trkpt lat="45.59915" lon="6.87099">
        <ele>899.4</ele>
        <time>2021-07-23T08:24:38.285Z</time>
      </trkpt>
      <trkpt lat="45.59913" lon="6.87107">
        <ele>899.8</ele>
        <time>2021-07-23T08:24:39.285Z</time>
      </trkpt>
      <trkpt lat="45.5991" lon="6.87116">
        <ele>899.8</ele>
        <time>2021-07-23T08:24:40.285Z</time>
      </trkpt>
      <trkpt lat="45.59908" lon="6.87124">
        <ele>899.8</ele>
        <time>2021-07-23T08:24:41.285Z</time>
      </trkpt>
      <trkpt lat="45.59906" lon="6.87132">
        <ele>899.8</ele>
        <time>2021-07-23T08:24:42.285Z</time>
      </trkpt>
      <trkpt lat="45.59903" lon="6.87141">
        <ele>899.8</ele>
        <time>2021-07-23T08:24:43.285Z</time>
      </trkpt>
      <trkpt lat="45.59901" lon="6.87148">
        <ele>899.8</ele>
        <time>2021-07-23T08:24:44.285Z</time>
      </trkpt>
      <trkpt lat="45.59899" lon="6.87156">
        <ele>899.8</ele>
        <time>2021-07-23T08:24:45.285Z</time>
      </trkpt>
      <trkpt lat="45.59897" lon="6.87164">
        <ele>899.8</ele>
        <time>2021-07-23T08:24:46.285Z</time>
      </trkpt>
      <trkpt lat="45.59895" lon="6.87172">
        <ele>899.8</ele>
        <time>2021-07-23T08:24:47.285Z</time>
      </trkpt>
      <trkpt lat="45.59893" lon="6.87179">
        <ele>899.8</ele>
        <time>2021-07-23T08:24:48.285Z</time>
      </trkpt>
      <trkpt lat="45.5989" lon="6.87187">
        <ele>899.8</ele>
        <time>2021-07-23T08:24:49.285Z</time>
      </trkpt>
      <trkpt lat="45.59889" lon="6.87195">
        <ele>899.8</ele>
        <time>2021-07-23T08:24:50.285Z</time>
      </trkpt>
      <trkpt lat="45.59887" lon="6.87204">
        <ele>899.8</ele>
        <time>2021-07-23T08:24:51.285Z</time>
      </trkpt>
      <trkpt lat="45.59885" lon="6.87213">
        <ele>899.8</ele>
        <time>2021-07-23T08:24:52.285Z</time>
      </trkpt>
      <trkpt lat="45.59882" lon="6.87221">
        <ele>899.8</ele>
        <time>2021-07-23T08:24:53.285Z</time>
      </trkpt>
      <trkpt lat="45.5988" lon="6.87229">
        <ele>899.8</ele>
        <time>2021-07-23T08:24:54.285Z</time>
      </trkpt>
      <trkpt lat="45.59878" lon="6.87237">
        <ele>899.8</ele>
        <time>2021-07-23T08:24:55.285Z</time>
      </trkpt>
      <trkpt lat="45.59876" lon="6.87245">
        <ele>899.8</ele>
        <time>2021-07-23T08:24:56.285Z</time>
      </trkpt>
      <trkpt lat="45.59874" lon="6.87253">
        <ele>899.8</ele>
        <time>2021-07-23T08:24:57.285Z</time>
      </trkpt>
      <trkpt lat="45.59872" lon="6.87261">
        <ele>899.8</ele>
        <time>2021-07-23T08:24:58.285Z</time>
      </trkpt>
      <trkpt lat="45.5987" lon="6.87269">
        <ele>899.8</ele>
        <time>2021-07-23T08:24:59.285Z</time>
      </trkpt>
      <trkpt lat="45.59868" lon="6.87278">
        <ele>899.8</ele>
        <time>2021-07-23T08:25:00.285Z</time>
      </trkpt>
      <trkpt lat="45.59865" lon="6.87286">
        <ele>899.8</ele>
        <time>2021-07-23T08:25:01.285Z</time>
      </trkpt>
      <trkpt lat="45.59863" lon="6.87294">
        <ele>899.8</ele>
        <time>2021-07-23T08:25:02.285Z</time>
      </trkpt>
      <trkpt lat="45.59861" lon="6.87302">
        <ele>900.2</ele>
        <time>2021-07-23T08:25:03.285Z</time>
      </trkpt>
      <trkpt lat="45.59859" lon="6.8731">
        <ele>900.6</ele>
        <time>2021-07-23T08:25:04.285Z</time>
      </trkpt>
      <trkpt lat="45.59857" lon="6.87318">
        <ele>901.2</ele>
        <time>2021-07-23T08:25:05.285Z</time>
      </trkpt>
      <trkpt lat="45.59855" lon="6.87326">
        <ele>901.6</ele>
        <time>2021-07-23T08:25:06.285Z</time>
      </trkpt>
      <trkpt lat="45.59852" lon="6.87334">
        <ele>902</ele>
        <time>2021-07-23T08:25:07.285Z</time>
      </trkpt>
      <trkpt lat="45.5985" lon="6.87342">
        <ele>902</ele>
        <time>2021-07-23T08:25:08.285Z</time>
      </trkpt>
      <trkpt lat="45.59848" lon="6.8735">
        <ele>902</ele>
        <time>2021-07-23T08:25:09.285Z</time>
      </trkpt>
      <trkpt lat="45.59846" lon="6.87357">
        <ele>902</ele>
        <time>2021-07-23T08:25:10.285Z</time>
      </trkpt>
      <trkpt lat="45.59844" lon="6.87366">
        <ele>902</ele>
        <time>2021-07-23T08:25:11.285Z</time>
      </trkpt>
      <trkpt lat="45.59842" lon="6.87374">
        <ele>902</ele>
        <time>2021-07-23T08:25:12.285Z</time>
      </trkpt>
      <trkpt lat="45.5984" lon="6.87382">
        <ele>902</ele>
        <time>2021-07-23T08:25:13.285Z</time>
      </trkpt>
      <trkpt lat="45.59838" lon="6.87389">
        <ele>902</ele>
        <time>2021-07-23T08:25:14.285Z</time>
      </trkpt>
      <trkpt lat="45.59836" lon="6.87396">
        <ele>902</ele>
        <time>2021-07-23T08:25:15.285Z</time>
      </trkpt>
      <trkpt lat="45.59834" lon="6.87404">
        <ele>902</ele>
        <time>2021-07-23T08:25:16.285Z</time>
      </trkpt>
      <trkpt lat="45.59832" lon="6.87411">
        <ele>902</ele>
        <time>2021-07-23T08:25:17.285Z</time>
      </trkpt>
      <trkpt lat="45.59831" lon="6.87418">
        <ele>902</ele>
        <time>2021-07-23T08:25:18.285Z</time>
      </trkpt>
      <trkpt lat="45.59829" lon="6.87425">
        <ele>902</ele>
        <time>2021-07-23T08:25:19.285Z</time>
      </trkpt>
      <trkpt lat="45.59827" lon="6.87432">
        <ele>902</ele>
        <time>2021-07-23T08:25:20.285Z</time>
      </trkpt>
      <trkpt lat="45.59826" lon="6.8744">
        <ele>902</ele>
        <time>2021-07-23T08:25:21.285Z</time>
      </trkpt>
      <trkpt lat="45.59824" lon="6.87447">
        <ele>902</ele>
        <time>2021-07-23T08:25:22.285Z</time>
      </trkpt>
      <trkpt lat="45.59822" lon="6.87454">
        <ele>902</ele>
        <time>2021-07-23T08:25:23.285Z</time>
      </trkpt>
      <trkpt lat="45.5982" lon="6.87461">
        <ele>902.4</ele>
        <time>2021-07-23T08:25:24.285Z</time>
      </trkpt>
      <trkpt lat="45.59818" lon="6.87468">
        <ele>902.8</ele>
        <time>2021-07-23T08:25:25.285Z</time>
      </trkpt>
      <trkpt lat="45.59816" lon="6.87475">
        <ele>903.2</ele>
        <time>2021-07-23T08:25:26.285Z</time>
      </trkpt>
      <trkpt lat="45.59815" lon="6.87482">
        <ele>903.6</ele>
        <time>2021-07-23T08:25:27.285Z</time>
      </trkpt>
      <trkpt lat="45.59813" lon="6.87488">
        <ele>904</ele>
        <time>2021-07-23T08:25:28.285Z</time>
      </trkpt>
      <trkpt lat="45.59811" lon="6.87494">
        <ele>904</ele>
        <time>2021-07-23T08:25:29.285Z</time>
      </trkpt>
      <trkpt lat="45.59809" lon="6.87501">
        <ele>904</ele>
        <time>2021-07-23T08:25:30.285Z</time>
      </trkpt>
      <trkpt lat="45.59807" lon="6.87508">
        <ele>904</ele>
        <time>2021-07-23T08:25:31.285Z</time>
      </trkpt>
      <trkpt lat="45.59806" lon="6.87514">
        <ele>904</ele>
        <time>2021-07-23T08:25:32.285Z</time>
      </trkpt>
      <trkpt lat="45.59804" lon="6.87521">
        <ele>904</ele>
        <time>2021-07-23T08:25:33.285Z</time>
      </trkpt>
      <trkpt lat="45.59803" lon="6.87528">
        <ele>904</ele>
        <time>2021-07-23T08:25:34.285Z</time>
      </trkpt>
      <trkpt lat="45.59801" lon="6.87535">
        <ele>904</ele>
        <time>2021-07-23T08:25:35.285Z</time>
      </trkpt>
      <trkpt lat="45.59799" lon="6.87542">
        <ele>904.4</ele>
        <time>2021-07-23T08:25:36.285Z</time>
      </trkpt>
      <trkpt lat="45.59798" lon="6.87549">
        <ele>904.8</ele>
        <time>2021-07-23T08:25:37.285Z</time>
      </trkpt>
      <trkpt lat="45.59796" lon="6.87557">
        <ele>905.6</ele>
        <time>2021-07-23T08:25:38.285Z</time>
      </trkpt>
      <trkpt lat="45.59795" lon="6.87564">
        <ele>906</ele>
        <time>2021-07-23T08:25:39.285Z</time>
      </trkpt>
      <trkpt lat="45.59793" lon="6.87571">
        <ele>906</ele>
        <time>2021-07-23T08:25:40.285Z</time>
      </trkpt>
      <trkpt lat="45.59791" lon="6.87578">
        <ele>906</ele>
        <time>2021-07-23T08:25:41.285Z</time>
      </trkpt>
      <trkpt lat="45.59789" lon="6.87585">
        <ele>906</ele>
        <time>2021-07-23T08:25:42.285Z</time>
      </trkpt>
      <trkpt lat="45.59787" lon="6.87592">
        <ele>906</ele>
        <time>2021-07-23T08:25:43.285Z</time>
      </trkpt>
      <trkpt lat="45.59786" lon="6.87599">
        <ele>906</ele>
        <time>2021-07-23T08:25:44.285Z</time>
      </trkpt>
      <trkpt lat="45.59784" lon="6.87605">
        <ele>906</ele>
        <time>2021-07-23T08:25:45.285Z</time>
      </trkpt>
      <trkpt lat="45.59783" lon="6.87612">
        <ele>906.6</ele>
        <time>2021-07-23T08:25:46.285Z</time>
      </trkpt>
      <trkpt lat="45.59781" lon="6.87618">
        <ele>907</ele>
        <time>2021-07-23T08:25:47.285Z</time>
      </trkpt>
      <trkpt lat="45.5978" lon="6.87625">
        <ele>907.4</ele>
        <time>2021-07-23T08:25:48.285Z</time>
      </trkpt>
      <trkpt lat="45.59778" lon="6.87631">
        <ele>907.8</ele>
        <time>2021-07-23T08:25:49.285Z</time>
      </trkpt>
      <trkpt lat="45.59777" lon="6.87637">
        <ele>908.2</ele>
        <time>2021-07-23T08:25:50.285Z</time>
      </trkpt>
      <trkpt lat="45.59776" lon="6.87644">
        <ele>908.2</ele>
        <time>2021-07-23T08:25:51.285Z</time>
      </trkpt>
      <trkpt lat="45.59775" lon="6.8765">
        <ele>908.2</ele>
        <time>2021-07-23T08:25:52.285Z</time>
      </trkpt>
      <trkpt lat="45.59774" lon="6.87656">
        <ele>908.2</ele>
        <time>2021-07-23T08:25:53.285Z</time>
      </trkpt>
      <trkpt lat="45.59773" lon="6.87663">
        <ele>908.2</ele>
        <time>2021-07-23T08:25:54.285Z</time>
      </trkpt>
      <trkpt lat="45.59772" lon="6.8767">
        <ele>908.2</ele>
        <time>2021-07-23T08:25:55.285Z</time>
      </trkpt>
      <trkpt lat="45.59771" lon="6.87677">
        <ele>908.6</ele>
        <time>2021-07-23T08:25:56.285Z</time>
      </trkpt>
      <trkpt lat="45.5977" lon="6.87683">
        <ele>909.2</ele>
        <time>2021-07-23T08:25:57.285Z</time>
      </trkpt>
      <trkpt lat="45.59769" lon="6.8769">
        <ele>909.6</ele>
        <time>2021-07-23T08:25:58.285Z</time>
      </trkpt>
      <trkpt lat="45.59768" lon="6.87697">
        <ele>910</ele>
        <time>2021-07-23T08:25:59.285Z</time>
      </trkpt>
      <trkpt lat="45.59767" lon="6.87703">
        <ele>910.6</ele>
        <time>2021-07-23T08:26:00.285Z</time>
      </trkpt>
      <trkpt lat="45.59766" lon="6.8771">
        <ele>910.6</ele>
        <time>2021-07-23T08:26:01.285Z</time>
      </trkpt>
      <trkpt lat="45.59765" lon="6.87717">
        <ele>910.6</ele>
        <time>2021-07-23T08:26:02.285Z</time>
      </trkpt>
      <trkpt lat="45.59764" lon="6.87723">
        <ele>911.4</ele>
        <time>2021-07-23T08:26:03.285Z</time>
      </trkpt>
      <trkpt lat="45.59764" lon="6.8773">
        <ele>911.8</ele>
        <time>2021-07-23T08:26:04.285Z</time>
      </trkpt>
      <trkpt lat="45.59764" lon="6.87736">
        <ele>912.2</ele>
        <time>2021-07-23T08:26:05.285Z</time>
      </trkpt>
      <trkpt lat="45.59763" lon="6.87743">
        <ele>912.6</ele>
        <time>2021-07-23T08:26:06.285Z</time>
      </trkpt>
      <trkpt lat="45.59761" lon="6.87749">
        <ele>912.6</ele>
        <time>2021-07-23T08:26:07.285Z</time>
      </trkpt>
      <trkpt lat="45.59761" lon="6.87755">
        <ele>912.6</ele>
        <time>2021-07-23T08:26:08.285Z</time>
      </trkpt>
      <trkpt lat="45.5976" lon="6.87761">
        <ele>913</ele>
        <time>2021-07-23T08:26:09.285Z</time>
      </trkpt>
      <trkpt lat="45.59759" lon="6.87767">
        <ele>913.4</ele>
        <time>2021-07-23T08:26:10.285Z</time>
      </trkpt>
      <trkpt lat="45.59757" lon="6.87773">
        <ele>913.8</ele>
        <time>2021-07-23T08:26:11.285Z</time>
      </trkpt>
      <trkpt lat="45.59756" lon="6.87778">
        <ele>914.2</ele>
        <time>2021-07-23T08:26:12.285Z</time>
      </trkpt>
      <trkpt lat="45.59756" lon="6.87784">
        <ele>914.6</ele>
        <time>2021-07-23T08:26:13.285Z</time>
      </trkpt>
      <trkpt lat="45.59755" lon="6.87791">
        <ele>914.6</ele>
        <time>2021-07-23T08:26:14.285Z</time>
      </trkpt>
      <trkpt lat="45.59754" lon="6.87796">
        <ele>914.6</ele>
        <time>2021-07-23T08:26:15.285Z</time>
      </trkpt>
      <trkpt lat="45.59754" lon="6.87801">
        <ele>915</ele>
        <time>2021-07-23T08:26:16.285Z</time>
      </trkpt>
      <trkpt lat="45.59753" lon="6.87807">
        <ele>915.4</ele>
        <time>2021-07-23T08:26:17.285Z</time>
      </trkpt>
      <trkpt lat="45.59752" lon="6.87812">
        <ele>916</ele>
        <time>2021-07-23T08:26:18.285Z</time>
      </trkpt>
      <trkpt lat="45.59752" lon="6.87817">
        <ele>916.4</ele>
        <time>2021-07-23T08:26:19.285Z</time>
      </trkpt>
      <trkpt lat="45.59751" lon="6.87823">
        <ele>916.8</ele>
        <time>2021-07-23T08:26:20.285Z</time>
      </trkpt>
      <trkpt lat="45.5975" lon="6.87829">
        <ele>916.8</ele>
        <time>2021-07-23T08:26:21.285Z</time>
      </trkpt>
      <trkpt lat="45.59749" lon="6.87834">
        <ele>916.8</ele>
        <time>2021-07-23T08:26:22.285Z</time>
      </trkpt>
      <trkpt lat="45.59748" lon="6.87839">
        <ele>916.8</ele>
        <time>2021-07-23T08:26:23.285Z</time>
      </trkpt>
      <trkpt lat="45.59747" lon="6.87844">
        <ele>917.2</ele>
        <time>2021-07-23T08:26:24.285Z</time>
      </trkpt>
      <trkpt lat="45.59747" lon="6.87849">
        <ele>917.6</ele>
        <time>2021-07-23T08:26:25.285Z</time>
      </trkpt>
      <trkpt lat="45.59746" lon="6.87854">
        <ele>918</ele>
        <time>2021-07-23T08:26:26.285Z</time>
      </trkpt>
      <trkpt lat="45.59745" lon="6.87859">
        <ele>918.8</ele>
        <time>2021-07-23T08:26:27.285Z</time>
      </trkpt>
      <trkpt lat="45.59745" lon="6.87864">
        <ele>918.8</ele>
        <time>2021-07-23T08:26:28.285Z</time>
      </trkpt>
      <trkpt lat="45.59744" lon="6.87869">
        <ele>918.8</ele>
        <time>2021-07-23T08:26:29.285Z</time>
      </trkpt>
      <trkpt lat="45.59743" lon="6.87874">
        <ele>919.2</ele>
        <time>2021-07-23T08:26:30.285Z</time>
      </trkpt>
      <trkpt lat="45.59743" lon="6.8788">
        <ele>919.8</ele>
        <time>2021-07-23T08:26:31.285Z</time>
      </trkpt>
      <trkpt lat="45.59742" lon="6.87885">
        <ele>920.2</ele>
        <time>2021-07-23T08:26:32.285Z</time>
      </trkpt>
      <trkpt lat="45.59741" lon="6.8789">
        <ele>920.6</ele>
        <time>2021-07-23T08:26:33.285Z</time>
      </trkpt>
      <trkpt lat="45.5974" lon="6.87895">
        <ele>921</ele>
        <time>2021-07-23T08:26:34.285Z</time>
      </trkpt>
      <trkpt lat="45.59739" lon="6.879">
        <ele>921</ele>
        <time>2021-07-23T08:26:35.285Z</time>
      </trkpt>
      <trkpt lat="45.59739" lon="6.87906">
        <ele>921</ele>
        <time>2021-07-23T08:26:36.285Z</time>
      </trkpt>
      <trkpt lat="45.59738" lon="6.87911">
        <ele>921.4</ele>
        <time>2021-07-23T08:26:37.285Z</time>
      </trkpt>
      <trkpt lat="45.59738" lon="6.87916">
        <ele>921.8</ele>
        <time>2021-07-23T08:26:38.285Z</time>
      </trkpt>
      <trkpt lat="45.59737" lon="6.87922">
        <ele>922.2</ele>
        <time>2021-07-23T08:26:39.285Z</time>
      </trkpt>
      <trkpt lat="45.59737" lon="6.87927">
        <ele>922.6</ele>
        <time>2021-07-23T08:26:40.285Z</time>
      </trkpt>
      <trkpt lat="45.59737" lon="6.87933">
        <ele>923</ele>
        <time>2021-07-23T08:26:41.285Z</time>
      </trkpt>
      <trkpt lat="45.59736" lon="6.87939">
        <ele>923</ele>
        <time>2021-07-23T08:26:42.285Z</time>
      </trkpt>
      <trkpt lat="45.59735" lon="6.87944">
        <ele>923</ele>
        <time>2021-07-23T08:26:43.285Z</time>
      </trkpt>
      <trkpt lat="45.59734" lon="6.8795">
        <ele>923</ele>
        <time>2021-07-23T08:26:44.285Z</time>
      </trkpt>
      <trkpt lat="45.59733" lon="6.87954">
        <ele>923</ele>
        <time>2021-07-23T08:26:45.285Z</time>
      </trkpt>
      <trkpt lat="45.59731" lon="6.87959">
        <ele>923.4</ele>
        <time>2021-07-23T08:26:46.285Z</time>
      </trkpt>
      <trkpt lat="45.5973" lon="6.87963">
        <ele>923.8</ele>
        <time>2021-07-23T08:26:47.285Z</time>
      </trkpt>
      <trkpt lat="45.59727" lon="6.87966">
        <ele>924.2</ele>
        <time>2021-07-23T08:26:48.285Z</time>
      </trkpt>
      <trkpt lat="45.59725" lon="6.8797">
        <ele>924.6</ele>
        <time>2021-07-23T08:26:49.285Z</time>
      </trkpt>
      <trkpt lat="45.59722" lon="6.87971">
        <ele>925</ele>
        <time>2021-07-23T08:26:50.285Z</time>
      </trkpt>
      <trkpt lat="45.59719" lon="6.87972">
        <ele>925</ele>
        <time>2021-07-23T08:26:51.285Z</time>
      </trkpt>
      <trkpt lat="45.59716" lon="6.87973">
        <ele>925</ele>
        <time>2021-07-23T08:26:52.285Z</time>
      </trkpt>
      <trkpt lat="45.59712" lon="6.87974">
        <ele>925.4</ele>
        <time>2021-07-23T08:26:53.285Z</time>
      </trkpt>
      <trkpt lat="45.59709" lon="6.87975">
        <ele>925.8</ele>
        <time>2021-07-23T08:26:54.285Z</time>
      </trkpt>
      <trkpt lat="45.59706" lon="6.87977">
        <ele>926.2</ele>
        <time>2021-07-23T08:26:55.285Z</time>
      </trkpt>
      <trkpt lat="45.59703" lon="6.8798">
        <ele>926.6</ele>
        <time>2021-07-23T08:26:56.285Z</time>
      </trkpt>
      <trkpt lat="45.597" lon="6.87983">
        <ele>927</ele>
        <time>2021-07-23T08:26:57.285Z</time>
      </trkpt>
      <trkpt lat="45.59698" lon="6.87986">
        <ele>927</ele>
        <time>2021-07-23T08:26:58.285Z</time>
      </trkpt>
      <trkpt lat="45.59695" lon="6.87988">
        <ele>927</ele>
        <time>2021-07-23T08:26:59.285Z</time>
      </trkpt>
      <trkpt lat="45.59693" lon="6.87992">
        <ele>927</ele>
        <time>2021-07-23T08:27:00.285Z</time>
      </trkpt>
      <trkpt lat="45.5969" lon="6.87995">
        <ele>927.6</ele>
        <time>2021-07-23T08:27:01.285Z</time>
      </trkpt>
      <trkpt lat="45.59688" lon="6.87998">
        <ele>928</ele>
        <time>2021-07-23T08:27:02.285Z</time>
      </trkpt>
      <trkpt lat="45.59685" lon="6.88">
        <ele>928.4</ele>
        <time>2021-07-23T08:27:03.285Z</time>
      </trkpt>
      <trkpt lat="45.59682" lon="6.88003">
        <ele>928.8</ele>
        <time>2021-07-23T08:27:04.285Z</time>
      </trkpt>
      <trkpt lat="45.5968" lon="6.88006">
        <ele>929.2</ele>
        <time>2021-07-23T08:27:05.285Z</time>
      </trkpt>
      <trkpt lat="45.59677" lon="6.88009">
        <ele>929.2</ele>
        <time>2021-07-23T08:27:06.285Z</time>
      </trkpt>
      <trkpt lat="45.59674" lon="6.88011">
        <ele>929.2</ele>
        <time>2021-07-23T08:27:07.285Z</time>
      </trkpt>
      <trkpt lat="45.59671" lon="6.88014">
        <ele>929.2</ele>
        <time>2021-07-23T08:27:08.285Z</time>
      </trkpt>
      <trkpt lat="45.59669" lon="6.88016">
        <ele>929.6</ele>
        <time>2021-07-23T08:27:09.285Z</time>
      </trkpt>
      <trkpt lat="45.59666" lon="6.88018">
        <ele>930</ele>
        <time>2021-07-23T08:27:10.285Z</time>
      </trkpt>
      <trkpt lat="45.59663" lon="6.8802">
        <ele>930.4</ele>
        <time>2021-07-23T08:27:11.285Z</time>
      </trkpt>
      <trkpt lat="45.5966" lon="6.88023">
        <ele>931</ele>
        <time>2021-07-23T08:27:12.285Z</time>
      </trkpt>
      <trkpt lat="45.59658" lon="6.88025">
        <ele>931.4</ele>
        <time>2021-07-23T08:27:13.285Z</time>
      </trkpt>
      <trkpt lat="45.59655" lon="6.88028">
        <ele>931.4</ele>
        <time>2021-07-23T08:27:14.285Z</time>
      </trkpt>
      <trkpt lat="45.59652" lon="6.8803">
        <ele>931.4</ele>
        <time>2021-07-23T08:27:15.285Z</time>
      </trkpt>
      <trkpt lat="45.5965" lon="6.88033">
        <ele>931.4</ele>
        <time>2021-07-23T08:27:16.285Z</time>
      </trkpt>
      <trkpt lat="45.59647" lon="6.88036">
        <ele>931.4</ele>
        <time>2021-07-23T08:27:17.285Z</time>
      </trkpt>
      <trkpt lat="45.59644" lon="6.88039">
        <ele>931.8</ele>
        <time>2021-07-23T08:27:18.285Z</time>
      </trkpt>
      <trkpt lat="45.59642" lon="6.88041">
        <ele>932.2</ele>
        <time>2021-07-23T08:27:19.285Z</time>
      </trkpt>
      <trkpt lat="45.59639" lon="6.88044">
        <ele>932.6</ele>
        <time>2021-07-23T08:27:20.285Z</time>
      </trkpt>
      <trkpt lat="45.59636" lon="6.88047">
        <ele>933</ele>
        <time>2021-07-23T08:27:21.285Z</time>
      </trkpt>
      <trkpt lat="45.59633" lon="6.88049">
        <ele>933.4</ele>
        <time>2021-07-23T08:27:22.285Z</time>
      </trkpt>
      <trkpt lat="45.59631" lon="6.88052">
        <ele>933.4</ele>
        <time>2021-07-23T08:27:23.285Z</time>
      </trkpt>
      <trkpt lat="45.59628" lon="6.88054">
        <ele>933.4</ele>
        <time>2021-07-23T08:27:24.285Z</time>
      </trkpt>
      <trkpt lat="45.59625" lon="6.88056">
        <ele>933.4</ele>
        <time>2021-07-23T08:27:25.285Z</time>
      </trkpt>
      <trkpt lat="45.59622" lon="6.88058">
        <ele>933.8</ele>
        <time>2021-07-23T08:27:26.285Z</time>
      </trkpt>
      <trkpt lat="45.59619" lon="6.8806">
        <ele>934.4</ele>
        <time>2021-07-23T08:27:27.285Z</time>
      </trkpt>
      <trkpt lat="45.59617" lon="6.88062">
        <ele>934.8</ele>
        <time>2021-07-23T08:27:28.285Z</time>
      </trkpt>
      <trkpt lat="45.59614" lon="6.88064">
        <ele>935.2</ele>
        <time>2021-07-23T08:27:29.285Z</time>
      </trkpt>
      <trkpt lat="45.59611" lon="6.88066">
        <ele>935.6</ele>
        <time>2021-07-23T08:27:30.285Z</time>
      </trkpt>
      <trkpt lat="45.59609" lon="6.88069">
        <ele>935.6</ele>
        <time>2021-07-23T08:27:31.285Z</time>
      </trkpt>
      <trkpt lat="45.59606" lon="6.88071">
        <ele>935.6</ele>
        <time>2021-07-23T08:27:32.285Z</time>
      </trkpt>
      <trkpt lat="45.59604" lon="6.88074">
        <ele>935.6</ele>
        <time>2021-07-23T08:27:33.285Z</time>
      </trkpt>
      <trkpt lat="45.59601" lon="6.88076">
        <ele>935.6</ele>
        <time>2021-07-23T08:27:34.285Z</time>
      </trkpt>
      <trkpt lat="45.59598" lon="6.88079">
        <ele>936</ele>
        <time>2021-07-23T08:27:35.285Z</time>
      </trkpt>
      <trkpt lat="45.59596" lon="6.88081">
        <ele>936.4</ele>
        <time>2021-07-23T08:27:36.285Z</time>
      </trkpt>
      <trkpt lat="45.59593" lon="6.88083">
        <ele>936.8</ele>
        <time>2021-07-23T08:27:37.285Z</time>
      </trkpt>
      <trkpt lat="45.5959" lon="6.88086">
        <ele>937.4</ele>
        <time>2021-07-23T08:27:38.285Z</time>
      </trkpt>
      <trkpt lat="45.59587" lon="6.88089">
        <ele>937.8</ele>
        <time>2021-07-23T08:27:39.285Z</time>
      </trkpt>
      <trkpt lat="45.59585" lon="6.88091">
        <ele>937.8</ele>
        <time>2021-07-23T08:27:40.285Z</time>
      </trkpt>
      <trkpt lat="45.59582" lon="6.88093">
        <ele>937.8</ele>
        <time>2021-07-23T08:27:41.285Z</time>
      </trkpt>
      <trkpt lat="45.59579" lon="6.88096">
        <ele>937.8</ele>
        <time>2021-07-23T08:27:42.285Z</time>
      </trkpt>
      <trkpt lat="45.59577" lon="6.88099">
        <ele>938.2</ele>
        <time>2021-07-23T08:27:43.285Z</time>
      </trkpt>
      <trkpt lat="45.59575" lon="6.88101">
        <ele>938.6</ele>
        <time>2021-07-23T08:27:44.285Z</time>
      </trkpt>
      <trkpt lat="45.59572" lon="6.88104">
        <ele>939</ele>
        <time>2021-07-23T08:27:45.285Z</time>
      </trkpt>
      <trkpt lat="45.59569" lon="6.88106">
        <ele>939.4</ele>
        <time>2021-07-23T08:27:46.285Z</time>
      </trkpt>
      <trkpt lat="45.59566" lon="6.88108">
        <ele>939.8</ele>
        <time>2021-07-23T08:27:47.285Z</time>
      </trkpt>
      <trkpt lat="45.59563" lon="6.8811">
        <ele>939.8</ele>
        <time>2021-07-23T08:27:48.285Z</time>
      </trkpt>
      <trkpt lat="45.5956" lon="6.88112">
        <ele>939.8</ele>
        <time>2021-07-23T08:27:49.285Z</time>
      </trkpt>
      <trkpt lat="45.59557" lon="6.88114">
        <ele>939.8</ele>
        <time>2021-07-23T08:27:50.285Z</time>
      </trkpt>
      <trkpt lat="45.59555" lon="6.88116">
        <ele>939.8</ele>
        <time>2021-07-23T08:27:51.285Z</time>
      </trkpt>
      <trkpt lat="45.59551" lon="6.88117">
        <ele>940.2</ele>
        <time>2021-07-23T08:27:52.285Z</time>
      </trkpt>
      <trkpt lat="45.59548" lon="6.88118">
        <ele>940.6</ele>
        <time>2021-07-23T08:27:53.285Z</time>
      </trkpt>
      <trkpt lat="45.59545" lon="6.88119">
        <ele>941.2</ele>
        <time>2021-07-23T08:27:54.285Z</time>
      </trkpt>
      <trkpt lat="45.59542" lon="6.88119">
        <ele>941.6</ele>
        <time>2021-07-23T08:27:55.285Z</time>
      </trkpt>
      <trkpt lat="45.59539" lon="6.88119">
        <ele>942</ele>
        <time>2021-07-23T08:27:56.285Z</time>
      </trkpt>
      <trkpt lat="45.59536" lon="6.88118">
        <ele>942</ele>
        <time>2021-07-23T08:27:57.285Z</time>
      </trkpt>
      <trkpt lat="45.59533" lon="6.88117">
        <ele>942</ele>
        <time>2021-07-23T08:27:58.285Z</time>
      </trkpt>
      <trkpt lat="45.5953" lon="6.88116">
        <ele>942</ele>
        <time>2021-07-23T08:27:59.285Z</time>
      </trkpt>
      <trkpt lat="45.59527" lon="6.88113">
        <ele>942.4</ele>
        <time>2021-07-23T08:28:00.285Z</time>
      </trkpt>
      <trkpt lat="45.59524" lon="6.88111">
        <ele>942.8</ele>
        <time>2021-07-23T08:28:01.285Z</time>
      </trkpt>
      <trkpt lat="45.59521" lon="6.88108">
        <ele>943.2</ele>
        <time>2021-07-23T08:28:02.285Z</time>
      </trkpt>
      <trkpt lat="45.59519" lon="6.88105">
        <ele>943.6</ele>
        <time>2021-07-23T08:28:03.285Z</time>
      </trkpt>
      <trkpt lat="45.59517" lon="6.88102">
        <ele>944.2</ele>
        <time>2021-07-23T08:28:04.285Z</time>
      </trkpt>
      <trkpt lat="45.59514" lon="6.88099">
        <ele>944.2</ele>
        <time>2021-07-23T08:28:05.285Z</time>
      </trkpt>
      <trkpt lat="45.59512" lon="6.88097">
        <ele>944.2</ele>
        <time>2021-07-23T08:28:06.285Z</time>
      </trkpt>
      <trkpt lat="45.59509" lon="6.88094">
        <ele>944.6</ele>
        <time>2021-07-23T08:28:07.285Z</time>
      </trkpt>
      <trkpt lat="45.59507" lon="6.88091">
        <ele>945</ele>
        <time>2021-07-23T08:28:08.285Z</time>
      </trkpt>
      <trkpt lat="45.59504" lon="6.88089">
        <ele>945.4</ele>
        <time>2021-07-23T08:28:09.285Z</time>
      </trkpt>
      <trkpt lat="45.59501" lon="6.88087">
        <ele>945.8</ele>
        <time>2021-07-23T08:28:10.285Z</time>
      </trkpt>
      <trkpt lat="45.59498" lon="6.88084">
        <ele>946.2</ele>
        <time>2021-07-23T08:28:11.285Z</time>
      </trkpt>
      <trkpt lat="45.59495" lon="6.88083">
        <ele>946.2</ele>
        <time>2021-07-23T08:28:12.285Z</time>
      </trkpt>
      <trkpt lat="45.59493" lon="6.88081">
        <ele>946.2</ele>
        <time>2021-07-23T08:28:13.285Z</time>
      </trkpt>
      <trkpt lat="45.5949" lon="6.8808">
        <ele>946.2</ele>
        <time>2021-07-23T08:28:14.285Z</time>
      </trkpt>
      <trkpt lat="45.59487" lon="6.88079">
        <ele>946.2</ele>
        <time>2021-07-23T08:28:15.285Z</time>
      </trkpt>
      <trkpt lat="45.59484" lon="6.88078">
        <ele>946.6</ele>
        <time>2021-07-23T08:28:16.285Z</time>
      </trkpt>
      <trkpt lat="45.59481" lon="6.88077">
        <ele>947.2</ele>
        <time>2021-07-23T08:28:17.285Z</time>
      </trkpt>
      <trkpt lat="45.59478" lon="6.88077">
        <ele>947.6</ele>
        <time>2021-07-23T08:28:18.285Z</time>
      </trkpt>
      <trkpt lat="45.59475" lon="6.88076">
        <ele>948</ele>
        <time>2021-07-23T08:28:19.285Z</time>
      </trkpt>
      <trkpt lat="45.59472" lon="6.88075">
        <ele>948.4</ele>
        <time>2021-07-23T08:28:20.285Z</time>
      </trkpt>
      <trkpt lat="45.59469" lon="6.88075">
        <ele>948.4</ele>
        <time>2021-07-23T08:28:21.285Z</time>
      </trkpt>
      <trkpt lat="45.59466" lon="6.88074">
        <ele>948.4</ele>
        <time>2021-07-23T08:28:22.285Z</time>
      </trkpt>
      <trkpt lat="45.59463" lon="6.88073">
        <ele>948.4</ele>
        <time>2021-07-23T08:28:23.285Z</time>
      </trkpt>
      <trkpt lat="45.59459" lon="6.88073">
        <ele>948.4</ele>
        <time>2021-07-23T08:28:24.285Z</time>
      </trkpt>
      <trkpt lat="45.59456" lon="6.88073">
        <ele>948.4</ele>
        <time>2021-07-23T08:28:25.285Z</time>
      </trkpt>
      <trkpt lat="45.59453" lon="6.88072">
        <ele>948.4</ele>
        <time>2021-07-23T08:28:26.285Z</time>
      </trkpt>
      <trkpt lat="45.5945" lon="6.88072">
        <ele>948.8</ele>
        <time>2021-07-23T08:28:27.285Z</time>
      </trkpt>
      <trkpt lat="45.59447" lon="6.88071">
        <ele>949.4</ele>
        <time>2021-07-23T08:28:28.285Z</time>
      </trkpt>
      <trkpt lat="45.59444" lon="6.88071">
        <ele>949.8</ele>
        <time>2021-07-23T08:28:29.285Z</time>
      </trkpt>
      <trkpt lat="45.59441" lon="6.88071">
        <ele>950.6</ele>
        <time>2021-07-23T08:28:30.285Z</time>
      </trkpt>
      <trkpt lat="45.59438" lon="6.88071">
        <ele>950.6</ele>
        <time>2021-07-23T08:28:31.285Z</time>
      </trkpt>
      <trkpt lat="45.59435" lon="6.8807">
        <ele>950.6</ele>
        <time>2021-07-23T08:28:32.285Z</time>
      </trkpt>
      <trkpt lat="45.59432" lon="6.88069">
        <ele>950.6</ele>
        <time>2021-07-23T08:28:33.285Z</time>
      </trkpt>
      <trkpt lat="45.59429" lon="6.88069">
        <ele>950.6</ele>
        <time>2021-07-23T08:28:34.285Z</time>
      </trkpt>
      <trkpt lat="45.59426" lon="6.88068">
        <ele>951</ele>
        <time>2021-07-23T08:28:35.285Z</time>
      </trkpt>
      <trkpt lat="45.59423" lon="6.88069">
        <ele>951.4</ele>
        <time>2021-07-23T08:28:36.285Z</time>
      </trkpt>
      <trkpt lat="45.5942" lon="6.88069">
        <ele>951.8</ele>
        <time>2021-07-23T08:28:37.285Z</time>
      </trkpt>
      <trkpt lat="45.59417" lon="6.88069">
        <ele>952.2</ele>
        <time>2021-07-23T08:28:38.285Z</time>
      </trkpt>
      <trkpt lat="45.59414" lon="6.88069">
        <ele>952.8</ele>
        <time>2021-07-23T08:28:39.285Z</time>
      </trkpt>
      <trkpt lat="45.59411" lon="6.8807">
        <ele>952.8</ele>
        <time>2021-07-23T08:28:40.285Z</time>
      </trkpt>
      <trkpt lat="45.59408" lon="6.88072">
        <ele>952.8</ele>
        <time>2021-07-23T08:28:41.285Z</time>
      </trkpt>
      <trkpt lat="45.59405" lon="6.88073">
        <ele>952.8</ele>
        <time>2021-07-23T08:28:42.285Z</time>
      </trkpt>
      <trkpt lat="45.59403" lon="6.88076">
        <ele>953.2</ele>
        <time>2021-07-23T08:28:43.285Z</time>
      </trkpt>
      <trkpt lat="45.594" lon="6.88078">
        <ele>953.6</ele>
        <time>2021-07-23T08:28:44.285Z</time>
      </trkpt>
      <trkpt lat="45.59398" lon="6.88081">
        <ele>954</ele>
        <time>2021-07-23T08:28:45.285Z</time>
      </trkpt>
      <trkpt lat="45.59395" lon="6.88083">
        <ele>954.4</ele>
        <time>2021-07-23T08:28:46.285Z</time>
      </trkpt>
      <trkpt lat="45.59392" lon="6.88085">
        <ele>955</ele>
        <time>2021-07-23T08:28:47.285Z</time>
      </trkpt>
      <trkpt lat="45.5939" lon="6.88087">
        <ele>955</ele>
        <time>2021-07-23T08:28:48.285Z</time>
      </trkpt>
      <trkpt lat="45.59387" lon="6.88088">
        <ele>955</ele>
        <time>2021-07-23T08:28:49.285Z</time>
      </trkpt>
      <trkpt lat="45.59385" lon="6.8809">
        <ele>955</ele>
        <time>2021-07-23T08:28:50.285Z</time>
      </trkpt>
      <trkpt lat="45.59382" lon="6.88091">
        <ele>955</ele>
        <time>2021-07-23T08:28:51.285Z</time>
      </trkpt>
      <trkpt lat="45.59379" lon="6.88093">
        <ele>955</ele>
        <time>2021-07-23T08:28:52.285Z</time>
      </trkpt>
      <trkpt lat="45.59377" lon="6.88094">
        <ele>955.4</ele>
        <time>2021-07-23T08:28:53.285Z</time>
      </trkpt>
      <trkpt lat="45.59374" lon="6.88096">
        <ele>955.8</ele>
        <time>2021-07-23T08:28:54.285Z</time>
      </trkpt>
      <trkpt lat="45.59371" lon="6.88097">
        <ele>956.6</ele>
        <time>2021-07-23T08:28:55.285Z</time>
      </trkpt>
      <trkpt lat="45.59368" lon="6.88098">
        <ele>957</ele>
        <time>2021-07-23T08:28:56.285Z</time>
      </trkpt>
      <trkpt lat="45.59365" lon="6.88099">
        <ele>957</ele>
        <time>2021-07-23T08:28:57.285Z</time>
      </trkpt>
      <trkpt lat="45.59362" lon="6.88101">
        <ele>957</ele>
        <time>2021-07-23T08:28:58.285Z</time>
      </trkpt>
      <trkpt lat="45.59359" lon="6.88102">
        <ele>957</ele>
        <time>2021-07-23T08:28:59.285Z</time>
      </trkpt>
      <trkpt lat="45.59355" lon="6.88102">
        <ele>957</ele>
        <time>2021-07-23T08:29:00.285Z</time>
      </trkpt>
      <trkpt lat="45.59352" lon="6.88103">
        <ele>957.4</ele>
        <time>2021-07-23T08:29:01.285Z</time>
      </trkpt>
      <trkpt lat="45.59349" lon="6.88103">
        <ele>957.8</ele>
        <time>2021-07-23T08:29:02.285Z</time>
      </trkpt>
      <trkpt lat="45.59346" lon="6.88105">
        <ele>958.2</ele>
        <time>2021-07-23T08:29:03.285Z</time>
      </trkpt>
      <trkpt lat="45.59342" lon="6.88106">
        <ele>958.6</ele>
        <time>2021-07-23T08:29:04.285Z</time>
      </trkpt>
      <trkpt lat="45.59339" lon="6.88107">
        <ele>959</ele>
        <time>2021-07-23T08:29:05.285Z</time>
      </trkpt>
      <trkpt lat="45.59336" lon="6.88108">
        <ele>959</ele>
        <time>2021-07-23T08:29:06.285Z</time>
      </trkpt>
      <trkpt lat="45.59332" lon="6.88109">
        <ele>959</ele>
        <time>2021-07-23T08:29:07.285Z</time>
      </trkpt>
      <trkpt lat="45.59329" lon="6.88109">
        <ele>959.4</ele>
        <time>2021-07-23T08:29:08.285Z</time>
      </trkpt>
      <trkpt lat="45.59326" lon="6.8811">
        <ele>959.8</ele>
        <time>2021-07-23T08:29:09.285Z</time>
      </trkpt>
      <trkpt lat="45.59322" lon="6.88111">
        <ele>960.2</ele>
        <time>2021-07-23T08:29:10.285Z</time>
      </trkpt>
      <trkpt lat="45.59319" lon="6.88111">
        <ele>960.6</ele>
        <time>2021-07-23T08:29:11.285Z</time>
      </trkpt>
      <trkpt lat="45.59316" lon="6.8811">
        <ele>961.2</ele>
        <time>2021-07-23T08:29:12.285Z</time>
      </trkpt>
      <trkpt lat="45.59312" lon="6.88109">
        <ele>961.2</ele>
        <time>2021-07-23T08:29:13.285Z</time>
      </trkpt>
      <trkpt lat="45.59309" lon="6.88108">
        <ele>961.2</ele>
        <time>2021-07-23T08:29:14.285Z</time>
      </trkpt>
      <trkpt lat="45.59306" lon="6.88108">
        <ele>961.2</ele>
        <time>2021-07-23T08:29:15.285Z</time>
      </trkpt>
      <trkpt lat="45.59303" lon="6.88108">
        <ele>961.2</ele>
        <time>2021-07-23T08:29:16.285Z</time>
      </trkpt>
      <trkpt lat="45.593" lon="6.88108">
        <ele>961.6</ele>
        <time>2021-07-23T08:29:17.285Z</time>
      </trkpt>
      <trkpt lat="45.59296" lon="6.88108">
        <ele>962</ele>
        <time>2021-07-23T08:29:18.285Z</time>
      </trkpt>
      <trkpt lat="45.59293" lon="6.88107">
        <ele>962.4</ele>
        <time>2021-07-23T08:29:19.285Z</time>
      </trkpt>
      <trkpt lat="45.5929" lon="6.88107">
        <ele>963.2</ele>
        <time>2021-07-23T08:29:20.285Z</time>
      </trkpt>
      <trkpt lat="45.59287" lon="6.88106">
        <ele>963.2</ele>
        <time>2021-07-23T08:29:21.285Z</time>
      </trkpt>
      <trkpt lat="45.59284" lon="6.88104">
        <ele>963.2</ele>
        <time>2021-07-23T08:29:22.285Z</time>
      </trkpt>
      <trkpt lat="45.5928" lon="6.88103">
        <ele>963.2</ele>
        <time>2021-07-23T08:29:23.285Z</time>
      </trkpt>
      <trkpt lat="45.59277" lon="6.88101">
        <ele>963.2</ele>
        <time>2021-07-23T08:29:24.285Z</time>
      </trkpt>
      <trkpt lat="45.59274" lon="6.88099">
        <ele>963.2</ele>
        <time>2021-07-23T08:29:25.285Z</time>
      </trkpt>
      <trkpt lat="45.59272" lon="6.88097">
        <ele>963.2</ele>
        <time>2021-07-23T08:29:26.285Z</time>
      </trkpt>
      <trkpt lat="45.59269" lon="6.88095">
        <ele>963.2</ele>
        <time>2021-07-23T08:29:27.285Z</time>
      </trkpt>
      <trkpt lat="45.59267" lon="6.88093">
        <ele>963.6</ele>
        <time>2021-07-23T08:29:28.285Z</time>
      </trkpt>
      <trkpt lat="45.59264" lon="6.88091">
        <ele>964</ele>
        <time>2021-07-23T08:29:29.285Z</time>
      </trkpt>
      <trkpt lat="45.59261" lon="6.88088">
        <ele>964.4</ele>
        <time>2021-07-23T08:29:30.285Z</time>
      </trkpt>
      <trkpt lat="45.59258" lon="6.88085">
        <ele>964.8</ele>
        <time>2021-07-23T08:29:31.285Z</time>
      </trkpt>
      <trkpt lat="45.59255" lon="6.88082">
        <ele>965.2</ele>
        <time>2021-07-23T08:29:32.285Z</time>
      </trkpt>
      <trkpt lat="45.59253" lon="6.88079">
        <ele>965.2</ele>
        <time>2021-07-23T08:29:33.285Z</time>
      </trkpt>
      <trkpt lat="45.5925" lon="6.88076">
        <ele>965.2</ele>
        <time>2021-07-23T08:29:34.285Z</time>
      </trkpt>
      <trkpt lat="45.59247" lon="6.88073">
        <ele>965.2</ele>
        <time>2021-07-23T08:29:35.285Z</time>
      </trkpt>
      <trkpt lat="45.59245" lon="6.8807">
        <ele>965.2</ele>
        <time>2021-07-23T08:29:36.285Z</time>
      </trkpt>
      <trkpt lat="45.59242" lon="6.88068">
        <ele>965.2</ele>
        <time>2021-07-23T08:29:37.285Z</time>
      </trkpt>
      <trkpt lat="45.5924" lon="6.88066">
        <ele>965.2</ele>
        <time>2021-07-23T08:29:38.285Z</time>
      </trkpt>
      <trkpt lat="45.59237" lon="6.88063">
        <ele>965.2</ele>
        <time>2021-07-23T08:29:39.285Z</time>
      </trkpt>
      <trkpt lat="45.59234" lon="6.88061">
        <ele>965.2</ele>
        <time>2021-07-23T08:29:40.285Z</time>
      </trkpt>
      <trkpt lat="45.59231" lon="6.8806">
        <ele>965.2</ele>
        <time>2021-07-23T08:29:41.285Z</time>
      </trkpt>
      <trkpt lat="45.59228" lon="6.88058">
        <ele>965.8</ele>
        <time>2021-07-23T08:29:42.285Z</time>
      </trkpt>
      <trkpt lat="45.59224" lon="6.88059">
        <ele>966.2</ele>
        <time>2021-07-23T08:29:43.285Z</time>
      </trkpt>
      <trkpt lat="45.59221" lon="6.88059">
        <ele>966.6</ele>
        <time>2021-07-23T08:29:44.285Z</time>
      </trkpt>
      <trkpt lat="45.59218" lon="6.88061">
        <ele>967.4</ele>
        <time>2021-07-23T08:29:45.285Z</time>
      </trkpt>
      <trkpt lat="45.59215" lon="6.88064">
        <ele>967.4</ele>
        <time>2021-07-23T08:29:46.285Z</time>
      </trkpt>
      <trkpt lat="45.59212" lon="6.88067">
        <ele>967.4</ele>
        <time>2021-07-23T08:29:47.285Z</time>
      </trkpt>
      <trkpt lat="45.5921" lon="6.88071">
        <ele>967.4</ele>
        <time>2021-07-23T08:29:48.285Z</time>
      </trkpt>
      <trkpt lat="45.59209" lon="6.88075">
        <ele>967.4</ele>
        <time>2021-07-23T08:29:49.285Z</time>
      </trkpt>
      <trkpt lat="45.59208" lon="6.8808">
        <ele>967.4</ele>
        <time>2021-07-23T08:29:50.285Z</time>
      </trkpt>
      <trkpt lat="45.59208" lon="6.88084">
        <ele>967.4</ele>
        <time>2021-07-23T08:29:51.285Z</time>
      </trkpt>
      <trkpt lat="45.59208" lon="6.88089">
        <ele>967.4</ele>
        <time>2021-07-23T08:29:52.285Z</time>
      </trkpt>
      <trkpt lat="45.59209" lon="6.88094">
        <ele>967.4</ele>
        <time>2021-07-23T08:29:53.285Z</time>
      </trkpt>
      <trkpt lat="45.59211" lon="6.88097">
        <ele>967.4</ele>
        <time>2021-07-23T08:29:54.285Z</time>
      </trkpt>
      <trkpt lat="45.59212" lon="6.88101">
        <ele>967.4</ele>
        <time>2021-07-23T08:29:55.285Z</time>
      </trkpt>
      <trkpt lat="45.59215" lon="6.88103">
        <ele>967.8</ele>
        <time>2021-07-23T08:29:56.285Z</time>
      </trkpt>
      <trkpt lat="45.59218" lon="6.88105">
        <ele>968.2</ele>
        <time>2021-07-23T08:29:57.285Z</time>
      </trkpt>
      <trkpt lat="45.59221" lon="6.88107">
        <ele>968.6</ele>
        <time>2021-07-23T08:29:58.285Z</time>
      </trkpt>
      <trkpt lat="45.59224" lon="6.88108">
        <ele>969</ele>
        <time>2021-07-23T08:29:59.285Z</time>
      </trkpt>
      <trkpt lat="45.59228" lon="6.8811">
        <ele>969.4</ele>
        <time>2021-07-23T08:30:00.285Z</time>
      </trkpt>
      <trkpt lat="45.59232" lon="6.88111">
        <ele>969.4</ele>
        <time>2021-07-23T08:30:01.285Z</time>
      </trkpt>
      <trkpt lat="45.59235" lon="6.88112">
        <ele>969.4</ele>
        <time>2021-07-23T08:30:02.285Z</time>
      </trkpt>
      <trkpt lat="45.59239" lon="6.88113">
        <ele>969.4</ele>
        <time>2021-07-23T08:30:03.285Z</time>
      </trkpt>
      <trkpt lat="45.59243" lon="6.88114">
        <ele>969.4</ele>
        <time>2021-07-23T08:30:04.285Z</time>
      </trkpt>
      <trkpt lat="45.59246" lon="6.88115">
        <ele>969.4</ele>
        <time>2021-07-23T08:30:05.285Z</time>
      </trkpt>
      <trkpt lat="45.59249" lon="6.88117">
        <ele>969.4</ele>
        <time>2021-07-23T08:30:06.285Z</time>
      </trkpt>
      <trkpt lat="45.59253" lon="6.88119">
        <ele>969.4</ele>
        <time>2021-07-23T08:30:07.285Z</time>
      </trkpt>
      <trkpt lat="45.59256" lon="6.8812">
        <ele>969.4</ele>
        <time>2021-07-23T08:30:08.285Z</time>
      </trkpt>
      <trkpt lat="45.5926" lon="6.88122">
        <ele>969.4</ele>
        <time>2021-07-23T08:30:09.285Z</time>
      </trkpt>
      <trkpt lat="45.59263" lon="6.88124">
        <ele>969.4</ele>
        <time>2021-07-23T08:30:10.285Z</time>
      </trkpt>
      <trkpt lat="45.59266" lon="6.88126">
        <ele>969.4</ele>
        <time>2021-07-23T08:30:11.285Z</time>
      </trkpt>
      <trkpt lat="45.5927" lon="6.88128">
        <ele>969.4</ele>
        <time>2021-07-23T08:30:12.285Z</time>
      </trkpt>
      <trkpt lat="45.59273" lon="6.88131">
        <ele>969.4</ele>
        <time>2021-07-23T08:30:13.285Z</time>
      </trkpt>
      <trkpt lat="45.59276" lon="6.88133">
        <ele>969.8</ele>
        <time>2021-07-23T08:30:14.285Z</time>
      </trkpt>
      <trkpt lat="45.5928" lon="6.88136">
        <ele>970.2</ele>
        <time>2021-07-23T08:30:15.285Z</time>
      </trkpt>
      <trkpt lat="45.59283" lon="6.88138">
        <ele>970.6</ele>
        <time>2021-07-23T08:30:16.285Z</time>
      </trkpt>
      <trkpt lat="45.59286" lon="6.8814">
        <ele>971.2</ele>
        <time>2021-07-23T08:30:17.285Z</time>
      </trkpt>
      <trkpt lat="45.59289" lon="6.88143">
        <ele>971.6</ele>
        <time>2021-07-23T08:30:18.285Z</time>
      </trkpt>
      <trkpt lat="45.59292" lon="6.88144">
        <ele>971.6</ele>
        <time>2021-07-23T08:30:19.285Z</time>
      </trkpt>
      <trkpt lat="45.59294" lon="6.88146">
        <ele>971.6</ele>
        <time>2021-07-23T08:30:20.285Z</time>
      </trkpt>
      <trkpt lat="45.59297" lon="6.88147">
        <ele>971.6</ele>
        <time>2021-07-23T08:30:21.285Z</time>
      </trkpt>
      <trkpt lat="45.593" lon="6.88148">
        <ele>971.6</ele>
        <time>2021-07-23T08:30:22.285Z</time>
      </trkpt>
      <trkpt lat="45.59303" lon="6.8815">
        <ele>972</ele>
        <time>2021-07-23T08:30:23.285Z</time>
      </trkpt>
      <trkpt lat="45.59307" lon="6.88152">
        <ele>972.4</ele>
        <time>2021-07-23T08:30:24.285Z</time>
      </trkpt>
      <trkpt lat="45.59309" lon="6.88153">
        <ele>972.8</ele>
        <time>2021-07-23T08:30:25.285Z</time>
      </trkpt>
      <trkpt lat="45.59312" lon="6.88155">
        <ele>973.2</ele>
        <time>2021-07-23T08:30:26.285Z</time>
      </trkpt>
      <trkpt lat="45.59316" lon="6.88155">
        <ele>973.6</ele>
        <time>2021-07-23T08:30:27.285Z</time>
      </trkpt>
      <trkpt lat="45.59319" lon="6.88155">
        <ele>973.6</ele>
        <time>2021-07-23T08:30:28.285Z</time>
      </trkpt>
      <trkpt lat="45.59323" lon="6.88155">
        <ele>973.6</ele>
        <time>2021-07-23T08:30:29.285Z</time>
      </trkpt>
      <trkpt lat="45.59326" lon="6.88156">
        <ele>973.6</ele>
        <time>2021-07-23T08:30:30.285Z</time>
      </trkpt>
      <trkpt lat="45.5933" lon="6.88155">
        <ele>973.6</ele>
        <time>2021-07-23T08:30:31.285Z</time>
      </trkpt>
      <trkpt lat="45.59333" lon="6.88155">
        <ele>974</ele>
        <time>2021-07-23T08:30:32.285Z</time>
      </trkpt>
      <trkpt lat="45.59336" lon="6.88155">
        <ele>974.4</ele>
        <time>2021-07-23T08:30:33.285Z</time>
      </trkpt>
      <trkpt lat="45.5934" lon="6.88155">
        <ele>975.2</ele>
        <time>2021-07-23T08:30:34.285Z</time>
      </trkpt>
      <trkpt lat="45.59344" lon="6.88155">
        <ele>975.6</ele>
        <time>2021-07-23T08:30:35.285Z</time>
      </trkpt>
      <trkpt lat="45.59347" lon="6.88155">
        <ele>975.6</ele>
        <time>2021-07-23T08:30:36.285Z</time>
      </trkpt>
      <trkpt lat="45.59351" lon="6.88155">
        <ele>975.6</ele>
        <time>2021-07-23T08:30:37.285Z</time>
      </trkpt>
      <trkpt lat="45.59354" lon="6.88155">
        <ele>975.6</ele>
        <time>2021-07-23T08:30:38.285Z</time>
      </trkpt>
      <trkpt lat="45.59357" lon="6.88155">
        <ele>975.6</ele>
        <time>2021-07-23T08:30:39.285Z</time>
      </trkpt>
      <trkpt lat="45.5936" lon="6.88155">
        <ele>975.6</ele>
        <time>2021-07-23T08:30:40.285Z</time>
      </trkpt>
      <trkpt lat="45.59363" lon="6.88156">
        <ele>975.6</ele>
        <time>2021-07-23T08:30:41.285Z</time>
      </trkpt>
      <trkpt lat="45.59367" lon="6.88156">
        <ele>975.6</ele>
        <time>2021-07-23T08:30:42.285Z</time>
      </trkpt>
      <trkpt lat="45.5937" lon="6.88157">
        <ele>976</ele>
        <time>2021-07-23T08:30:43.285Z</time>
      </trkpt>
      <trkpt lat="45.59373" lon="6.88157">
        <ele>976.4</ele>
        <time>2021-07-23T08:30:44.285Z</time>
      </trkpt>
      <trkpt lat="45.59376" lon="6.88157">
        <ele>976.8</ele>
        <time>2021-07-23T08:30:45.285Z</time>
      </trkpt>
      <trkpt lat="45.59379" lon="6.88158">
        <ele>977.4</ele>
        <time>2021-07-23T08:30:46.285Z</time>
      </trkpt>
      <trkpt lat="45.59382" lon="6.88158">
        <ele>977.8</ele>
        <time>2021-07-23T08:30:47.285Z</time>
      </trkpt>
      <trkpt lat="45.59385" lon="6.88158">
        <ele>977.8</ele>
        <time>2021-07-23T08:30:48.285Z</time>
      </trkpt>
      <trkpt lat="45.59388" lon="6.88157">
        <ele>977.8</ele>
        <time>2021-07-23T08:30:49.285Z</time>
      </trkpt>
      <trkpt lat="45.59391" lon="6.88157">
        <ele>977.8</ele>
        <time>2021-07-23T08:30:50.285Z</time>
      </trkpt>
      <trkpt lat="45.59394" lon="6.88157">
        <ele>977.8</ele>
        <time>2021-07-23T08:30:51.285Z</time>
      </trkpt>
      <trkpt lat="45.59398" lon="6.88157">
        <ele>977.8</ele>
        <time>2021-07-23T08:30:52.285Z</time>
      </trkpt>
      <trkpt lat="45.59401" lon="6.88156">
        <ele>978.2</ele>
        <time>2021-07-23T08:30:53.285Z</time>
      </trkpt>
      <trkpt lat="45.59404" lon="6.88156">
        <ele>978.8</ele>
        <time>2021-07-23T08:30:54.285Z</time>
      </trkpt>
      <trkpt lat="45.59406" lon="6.88156">
        <ele>979.2</ele>
        <time>2021-07-23T08:30:55.285Z</time>
      </trkpt>
      <trkpt lat="45.59409" lon="6.88156">
        <ele>979.8</ele>
        <time>2021-07-23T08:30:56.285Z</time>
      </trkpt>
      <trkpt lat="45.59412" lon="6.88155">
        <ele>980.2</ele>
        <time>2021-07-23T08:30:57.285Z</time>
      </trkpt>
      <trkpt lat="45.59415" lon="6.88155">
        <ele>980.2</ele>
        <time>2021-07-23T08:30:58.285Z</time>
      </trkpt>
      <trkpt lat="45.59418" lon="6.88155">
        <ele>980.2</ele>
        <time>2021-07-23T08:30:59.285Z</time>
      </trkpt>
      <trkpt lat="45.5942" lon="6.88155">
        <ele>980.2</ele>
        <time>2021-07-23T08:31:00.285Z</time>
      </trkpt>
      <trkpt lat="45.59423" lon="6.88155">
        <ele>980.2</ele>
        <time>2021-07-23T08:31:01.285Z</time>
      </trkpt>
      <trkpt lat="45.59426" lon="6.88156">
        <ele>980.6</ele>
        <time>2021-07-23T08:31:02.285Z</time>
      </trkpt>
      <trkpt lat="45.59429" lon="6.88158">
        <ele>981</ele>
        <time>2021-07-23T08:31:03.285Z</time>
      </trkpt>
      <trkpt lat="45.59432" lon="6.88159">
        <ele>981.4</ele>
        <time>2021-07-23T08:31:04.285Z</time>
      </trkpt>
      <trkpt lat="45.59436" lon="6.88161">
        <ele>982</ele>
        <time>2021-07-23T08:31:05.285Z</time>
      </trkpt>
      <trkpt lat="45.59439" lon="6.88162">
        <ele>982.4</ele>
        <time>2021-07-23T08:31:06.285Z</time>
      </trkpt>
      <trkpt lat="45.59443" lon="6.88164">
        <ele>982.4</ele>
        <time>2021-07-23T08:31:07.285Z</time>
      </trkpt>
      <trkpt lat="45.59446" lon="6.88165">
        <ele>982.4</ele>
        <time>2021-07-23T08:31:08.285Z</time>
      </trkpt>
      <trkpt lat="45.5945" lon="6.88166">
        <ele>982.4</ele>
        <time>2021-07-23T08:31:09.285Z</time>
      </trkpt>
      <trkpt lat="45.59453" lon="6.88168">
        <ele>982.4</ele>
        <time>2021-07-23T08:31:10.285Z</time>
      </trkpt>
      <trkpt lat="45.59455" lon="6.88169">
        <ele>982.4</ele>
        <time>2021-07-23T08:31:11.285Z</time>
      </trkpt>
      <trkpt lat="45.59458" lon="6.88171">
        <ele>982.8</ele>
        <time>2021-07-23T08:31:12.285Z</time>
      </trkpt>
      <trkpt lat="45.59461" lon="6.88172">
        <ele>983.2</ele>
        <time>2021-07-23T08:31:13.285Z</time>
      </trkpt>
      <trkpt lat="45.59464" lon="6.88174">
        <ele>983.6</ele>
        <time>2021-07-23T08:31:14.285Z</time>
      </trkpt>
      <trkpt lat="45.59467" lon="6.88176">
        <ele>984</ele>
        <time>2021-07-23T08:31:15.285Z</time>
      </trkpt>
      <trkpt lat="45.5947" lon="6.88178">
        <ele>984.4</ele>
        <time>2021-07-23T08:31:16.285Z</time>
      </trkpt>
      <trkpt lat="45.59473" lon="6.88181">
        <ele>984.4</ele>
        <time>2021-07-23T08:31:17.285Z</time>
      </trkpt>
      <trkpt lat="45.59475" lon="6.88183">
        <ele>984.4</ele>
        <time>2021-07-23T08:31:18.285Z</time>
      </trkpt>
      <trkpt lat="45.59477" lon="6.88185">
        <ele>984.4</ele>
        <time>2021-07-23T08:31:19.285Z</time>
      </trkpt>
      <trkpt lat="45.5948" lon="6.88188">
        <ele>984.4</ele>
        <time>2021-07-23T08:31:20.285Z</time>
      </trkpt>
      <trkpt lat="45.59481" lon="6.88191">
        <ele>984.4</ele>
        <time>2021-07-23T08:31:21.285Z</time>
      </trkpt>
      <trkpt lat="45.59483" lon="6.88194">
        <ele>984.8</ele>
        <time>2021-07-23T08:31:22.285Z</time>
      </trkpt>
      <trkpt lat="45.59485" lon="6.88197">
        <ele>985.6</ele>
        <time>2021-07-23T08:31:23.285Z</time>
      </trkpt>
      <trkpt lat="45.59488" lon="6.88201">
        <ele>986</ele>
        <time>2021-07-23T08:31:24.285Z</time>
      </trkpt>
      <trkpt lat="45.5949" lon="6.88204">
        <ele>986.4</ele>
        <time>2021-07-23T08:31:25.285Z</time>
      </trkpt>
      <trkpt lat="45.59492" lon="6.88207">
        <ele>986.4</ele>
        <time>2021-07-23T08:31:26.285Z</time>
      </trkpt>
      <trkpt lat="45.59495" lon="6.8821">
        <ele>986.4</ele>
        <time>2021-07-23T08:31:27.285Z</time>
      </trkpt>
      <trkpt lat="45.59497" lon="6.88213">
        <ele>986.8</ele>
        <time>2021-07-23T08:31:28.285Z</time>
      </trkpt>
      <trkpt lat="45.59499" lon="6.88216">
        <ele>987.4</ele>
        <time>2021-07-23T08:31:29.285Z</time>
      </trkpt>
      <trkpt lat="45.59501" lon="6.88218">
        <ele>987.8</ele>
        <time>2021-07-23T08:31:30.285Z</time>
      </trkpt>
      <trkpt lat="45.59503" lon="6.88221">
        <ele>988.2</ele>
        <time>2021-07-23T08:31:31.285Z</time>
      </trkpt>
      <trkpt lat="45.59505" lon="6.88224">
        <ele>988.6</ele>
        <time>2021-07-23T08:31:32.285Z</time>
      </trkpt>
      <trkpt lat="45.59507" lon="6.88227">
        <ele>988.6</ele>
        <time>2021-07-23T08:31:33.285Z</time>
      </trkpt>
      <trkpt lat="45.5951" lon="6.88229">
        <ele>988.6</ele>
        <time>2021-07-23T08:31:34.285Z</time>
      </trkpt>
      <trkpt lat="45.59512" lon="6.88232">
        <ele>989</ele>
        <time>2021-07-23T08:31:35.285Z</time>
      </trkpt>
      <trkpt lat="45.59515" lon="6.88233">
        <ele>989.4</ele>
        <time>2021-07-23T08:31:36.285Z</time>
      </trkpt>
      <trkpt lat="45.59518" lon="6.88234">
        <ele>990</ele>
        <time>2021-07-23T08:31:37.285Z</time>
      </trkpt>
      <trkpt lat="45.59521" lon="6.88235">
        <ele>990.4</ele>
        <time>2021-07-23T08:31:38.285Z</time>
      </trkpt>
      <trkpt lat="45.59523" lon="6.88236">
        <ele>990.8</ele>
        <time>2021-07-23T08:31:39.285Z</time>
      </trkpt>
      <trkpt lat="45.59526" lon="6.88236">
        <ele>990.8</ele>
        <time>2021-07-23T08:31:40.285Z</time>
      </trkpt>
      <trkpt lat="45.59528" lon="6.88236">
        <ele>990.8</ele>
        <time>2021-07-23T08:31:41.285Z</time>
      </trkpt>
      <trkpt lat="45.59531" lon="6.88236">
        <ele>990.8</ele>
        <time>2021-07-23T08:31:42.285Z</time>
      </trkpt>
      <trkpt lat="45.59534" lon="6.88236">
        <ele>990.8</ele>
        <time>2021-07-23T08:31:43.285Z</time>
      </trkpt>
      <trkpt lat="45.59537" lon="6.88236">
        <ele>990.8</ele>
        <time>2021-07-23T08:31:44.285Z</time>
      </trkpt>
      <trkpt lat="45.5954" lon="6.88236">
        <ele>991.2</ele>
        <time>2021-07-23T08:31:45.285Z</time>
      </trkpt>
      <trkpt lat="45.59544" lon="6.88235">
        <ele>991.6</ele>
        <time>2021-07-23T08:31:46.285Z</time>
      </trkpt>
      <trkpt lat="45.59546" lon="6.88235">
        <ele>992</ele>
        <time>2021-07-23T08:31:47.285Z</time>
      </trkpt>
      <trkpt lat="45.59549" lon="6.88235">
        <ele>992.8</ele>
        <time>2021-07-23T08:31:48.285Z</time>
      </trkpt>
      <trkpt lat="45.59552" lon="6.88234">
        <ele>992.8</ele>
        <time>2021-07-23T08:31:49.285Z</time>
      </trkpt>
      <trkpt lat="45.59555" lon="6.88234">
        <ele>992.8</ele>
        <time>2021-07-23T08:31:50.285Z</time>
      </trkpt>
      <trkpt lat="45.59558" lon="6.88234">
        <ele>992.8</ele>
        <time>2021-07-23T08:31:51.285Z</time>
      </trkpt>
      <trkpt lat="45.5956" lon="6.88234">
        <ele>992.8</ele>
        <time>2021-07-23T08:31:52.285Z</time>
      </trkpt>
      <trkpt lat="45.59563" lon="6.88234">
        <ele>992.8</ele>
        <time>2021-07-23T08:31:53.285Z</time>
      </trkpt>
      <trkpt lat="45.59566" lon="6.88234">
        <ele>992.8</ele>
        <time>2021-07-23T08:31:54.285Z</time>
      </trkpt>
      <trkpt lat="45.59569" lon="6.88233">
        <ele>993.2</ele>
        <time>2021-07-23T08:31:55.285Z</time>
      </trkpt>
      <trkpt lat="45.59572" lon="6.88232">
        <ele>993.6</ele>
        <time>2021-07-23T08:31:56.285Z</time>
      </trkpt>
      <trkpt lat="45.59575" lon="6.88231">
        <ele>994</ele>
        <time>2021-07-23T08:31:57.285Z</time>
      </trkpt>
      <trkpt lat="45.59578" lon="6.8823">
        <ele>994.4</ele>
        <time>2021-07-23T08:31:58.285Z</time>
      </trkpt>
      <trkpt lat="45.5958" lon="6.8823">
        <ele>994.8</ele>
        <time>2021-07-23T08:31:59.285Z</time>
      </trkpt>
      <trkpt lat="45.59583" lon="6.88229">
        <ele>994.8</ele>
        <time>2021-07-23T08:32:00.285Z</time>
      </trkpt>
      <trkpt lat="45.59586" lon="6.88228">
        <ele>994.8</ele>
        <time>2021-07-23T08:32:01.285Z</time>
      </trkpt>
      <trkpt lat="45.59589" lon="6.88227">
        <ele>994.8</ele>
        <time>2021-07-23T08:32:02.285Z</time>
      </trkpt>
      <trkpt lat="45.59592" lon="6.88226">
        <ele>994.8</ele>
        <time>2021-07-23T08:32:03.285Z</time>
      </trkpt>
      <trkpt lat="45.59595" lon="6.88225">
        <ele>994.8</ele>
        <time>2021-07-23T08:32:04.285Z</time>
      </trkpt>
      <trkpt lat="45.59598" lon="6.88225">
        <ele>994.8</ele>
        <time>2021-07-23T08:32:05.285Z</time>
      </trkpt>
      <trkpt lat="45.59601" lon="6.88225">
        <ele>995.2</ele>
        <time>2021-07-23T08:32:06.285Z</time>
      </trkpt>
      <trkpt lat="45.59605" lon="6.88226">
        <ele>995.6</ele>
        <time>2021-07-23T08:32:07.285Z</time>
      </trkpt>
      <trkpt lat="45.59608" lon="6.88229">
        <ele>996</ele>
        <time>2021-07-23T08:32:08.285Z</time>
      </trkpt>
      <trkpt lat="45.5961" lon="6.88233">
        <ele>996.4</ele>
        <time>2021-07-23T08:32:09.285Z</time>
      </trkpt>
      <trkpt lat="45.59612" lon="6.88237">
        <ele>997</ele>
        <time>2021-07-23T08:32:10.285Z</time>
      </trkpt>
      <trkpt lat="45.59613" lon="6.88241">
        <ele>997</ele>
        <time>2021-07-23T08:32:11.285Z</time>
      </trkpt>
      <trkpt lat="45.59613" lon="6.88246">
        <ele>997</ele>
        <time>2021-07-23T08:32:12.285Z</time>
      </trkpt>
      <trkpt lat="45.59612" lon="6.88251">
        <ele>997</ele>
        <time>2021-07-23T08:32:13.285Z</time>
      </trkpt>
      <trkpt lat="45.59609" lon="6.88254">
        <ele>997</ele>
        <time>2021-07-23T08:32:14.285Z</time>
      </trkpt>
      <trkpt lat="45.59607" lon="6.88258">
        <ele>997</ele>
        <time>2021-07-23T08:32:15.285Z</time>
      </trkpt>
      <trkpt lat="45.59604" lon="6.8826">
        <ele>997.4</ele>
        <time>2021-07-23T08:32:16.285Z</time>
      </trkpt>
      <trkpt lat="45.59601" lon="6.88261">
        <ele>997.8</ele>
        <time>2021-07-23T08:32:17.285Z</time>
      </trkpt>
      <trkpt lat="45.59598" lon="6.88261">
        <ele>998.2</ele>
        <time>2021-07-23T08:32:18.285Z</time>
      </trkpt>
      <trkpt lat="45.59594" lon="6.8826">
        <ele>998.6</ele>
        <time>2021-07-23T08:32:19.285Z</time>
      </trkpt>
      <trkpt lat="45.59591" lon="6.88258">
        <ele>999</ele>
        <time>2021-07-23T08:32:20.285Z</time>
      </trkpt>
      <trkpt lat="45.59587" lon="6.88256">
        <ele>999</ele>
        <time>2021-07-23T08:32:21.285Z</time>
      </trkpt>
      <trkpt lat="45.59583" lon="6.88255">
        <ele>999</ele>
        <time>2021-07-23T08:32:22.285Z</time>
      </trkpt>
      <trkpt lat="45.5958" lon="6.88253">
        <ele>999</ele>
        <time>2021-07-23T08:32:23.285Z</time>
      </trkpt>
      <trkpt lat="45.59576" lon="6.88253">
        <ele>999</ele>
        <time>2021-07-23T08:32:24.285Z</time>
      </trkpt>
      <trkpt lat="45.59573" lon="6.88251">
        <ele>999</ele>
        <time>2021-07-23T08:32:25.285Z</time>
      </trkpt>
      <trkpt lat="45.5957" lon="6.88251">
        <ele>999</ele>
        <time>2021-07-23T08:32:26.285Z</time>
      </trkpt>
      <trkpt lat="45.59567" lon="6.8825">
        <ele>999</ele>
        <time>2021-07-23T08:32:27.285Z</time>
      </trkpt>
      <trkpt lat="45.59563" lon="6.8825">
        <ele>999.4</ele>
        <time>2021-07-23T08:32:28.285Z</time>
      </trkpt>
      <trkpt lat="45.59561" lon="6.88249">
        <ele>999.8</ele>
        <time>2021-07-23T08:32:29.285Z</time>
      </trkpt>
      <trkpt lat="45.59557" lon="6.8825">
        <ele>1000.2</ele>
        <time>2021-07-23T08:32:30.285Z</time>
      </trkpt>
      <trkpt lat="45.59554" lon="6.8825">
        <ele>1000.8</ele>
        <time>2021-07-23T08:32:31.285Z</time>
      </trkpt>
      <trkpt lat="45.5955" lon="6.88251">
        <ele>1001.2</ele>
        <time>2021-07-23T08:32:32.285Z</time>
      </trkpt>
      <trkpt lat="45.59547" lon="6.88251">
        <ele>1001.2</ele>
        <time>2021-07-23T08:32:33.285Z</time>
      </trkpt>
      <trkpt lat="45.59544" lon="6.88251">
        <ele>1001.2</ele>
        <time>2021-07-23T08:32:34.285Z</time>
      </trkpt>
      <trkpt lat="45.59541" lon="6.88252">
        <ele>1001.6</ele>
        <time>2021-07-23T08:32:35.285Z</time>
      </trkpt>
      <trkpt lat="45.59538" lon="6.88253">
        <ele>1002.4</ele>
        <time>2021-07-23T08:32:36.285Z</time>
      </trkpt>
      <trkpt lat="45.59535" lon="6.88254">
        <ele>1002.8</ele>
        <time>2021-07-23T08:32:37.285Z</time>
      </trkpt>
      <trkpt lat="45.59532" lon="6.88255">
        <ele>1003.2</ele>
        <time>2021-07-23T08:32:38.285Z</time>
      </trkpt>
      <trkpt lat="45.59529" lon="6.88256">
        <ele>1003.2</ele>
        <time>2021-07-23T08:32:39.285Z</time>
      </trkpt>
      <trkpt lat="45.59526" lon="6.88256">
        <ele>1003.2</ele>
        <time>2021-07-23T08:32:40.285Z</time>
      </trkpt>
      <trkpt lat="45.59523" lon="6.88257">
        <ele>1003.2</ele>
        <time>2021-07-23T08:32:41.285Z</time>
      </trkpt>
      <trkpt lat="45.5952" lon="6.88257">
        <ele>1003.2</ele>
        <time>2021-07-23T08:32:42.285Z</time>
      </trkpt>
      <trkpt lat="45.59517" lon="6.88257">
        <ele>1003.6</ele>
        <time>2021-07-23T08:32:43.285Z</time>
      </trkpt>
      <trkpt lat="45.59513" lon="6.88257">
        <ele>1004</ele>
        <time>2021-07-23T08:32:44.285Z</time>
      </trkpt>
      <trkpt lat="45.5951" lon="6.88257">
        <ele>1004.4</ele>
        <time>2021-07-23T08:32:45.285Z</time>
      </trkpt>
      <trkpt lat="45.59507" lon="6.88256">
        <ele>1004.8</ele>
        <time>2021-07-23T08:32:46.285Z</time>
      </trkpt>
      <trkpt lat="45.59504" lon="6.88255">
        <ele>1005.2</ele>
        <time>2021-07-23T08:32:47.285Z</time>
      </trkpt>
      <trkpt lat="45.59501" lon="6.88253">
        <ele>1005.2</ele>
        <time>2021-07-23T08:32:48.285Z</time>
      </trkpt>
      <trkpt lat="45.59498" lon="6.88251">
        <ele>1005.2</ele>
        <time>2021-07-23T08:32:49.285Z</time>
      </trkpt>
      <trkpt lat="45.59495" lon="6.88249">
        <ele>1005.2</ele>
        <time>2021-07-23T08:32:50.285Z</time>
      </trkpt>
      <trkpt lat="45.59492" lon="6.88246">
        <ele>1005.2</ele>
        <time>2021-07-23T08:32:51.285Z</time>
      </trkpt>
      <trkpt lat="45.59488" lon="6.88244">
        <ele>1005.2</ele>
        <time>2021-07-23T08:32:52.285Z</time>
      </trkpt>
      <trkpt lat="45.59485" lon="6.88242">
        <ele>1005.2</ele>
        <time>2021-07-23T08:32:53.285Z</time>
      </trkpt>
      <trkpt lat="45.59482" lon="6.8824">
        <ele>1005.6</ele>
        <time>2021-07-23T08:32:54.285Z</time>
      </trkpt>
      <trkpt lat="45.59478" lon="6.88239">
        <ele>1006</ele>
        <time>2021-07-23T08:32:55.285Z</time>
      </trkpt>
      <trkpt lat="45.59475" lon="6.88238">
        <ele>1006.6</ele>
        <time>2021-07-23T08:32:56.285Z</time>
      </trkpt>
      <trkpt lat="45.59471" lon="6.88237">
        <ele>1007</ele>
        <time>2021-07-23T08:32:57.285Z</time>
      </trkpt>
      <trkpt lat="45.59467" lon="6.88236">
        <ele>1007.4</ele>
        <time>2021-07-23T08:32:58.285Z</time>
      </trkpt>
      <trkpt lat="45.59464" lon="6.88236">
        <ele>1007.4</ele>
        <time>2021-07-23T08:32:59.285Z</time>
      </trkpt>
      <trkpt lat="45.5946" lon="6.88235">
        <ele>1007.4</ele>
        <time>2021-07-23T08:33:00.285Z</time>
      </trkpt>
      <trkpt lat="45.59457" lon="6.88235">
        <ele>1007.4</ele>
        <time>2021-07-23T08:33:01.285Z</time>
      </trkpt>
      <trkpt lat="45.59453" lon="6.88235">
        <ele>1007.8</ele>
        <time>2021-07-23T08:33:02.285Z</time>
      </trkpt>
      <trkpt lat="45.5945" lon="6.88235">
        <ele>1008.2</ele>
        <time>2021-07-23T08:33:03.285Z</time>
      </trkpt>
      <trkpt lat="45.59447" lon="6.88236">
        <ele>1008.6</ele>
        <time>2021-07-23T08:33:04.285Z</time>
      </trkpt>
      <trkpt lat="45.59444" lon="6.88236">
        <ele>1009</ele>
        <time>2021-07-23T08:33:05.285Z</time>
      </trkpt>
      <trkpt lat="45.59441" lon="6.88235">
        <ele>1009.4</ele>
        <time>2021-07-23T08:33:06.285Z</time>
      </trkpt>
      <trkpt lat="45.59438" lon="6.88236">
        <ele>1009.4</ele>
        <time>2021-07-23T08:33:07.285Z</time>
      </trkpt>
      <trkpt lat="45.59434" lon="6.88236">
        <ele>1009.4</ele>
        <time>2021-07-23T08:33:08.285Z</time>
      </trkpt>
      <trkpt lat="45.59431" lon="6.88237">
        <ele>1009.4</ele>
        <time>2021-07-23T08:33:09.285Z</time>
      </trkpt>
      <trkpt lat="45.59428" lon="6.88237">
        <ele>1009.4</ele>
        <time>2021-07-23T08:33:10.285Z</time>
      </trkpt>
      <trkpt lat="45.59425" lon="6.88237">
        <ele>1009.8</ele>
        <time>2021-07-23T08:33:11.285Z</time>
      </trkpt>
      <trkpt lat="45.59422" lon="6.88238">
        <ele>1010.2</ele>
        <time>2021-07-23T08:33:12.285Z</time>
      </trkpt>
      <trkpt lat="45.59419" lon="6.88238">
        <ele>1010.6</ele>
        <time>2021-07-23T08:33:13.285Z</time>
      </trkpt>
      <trkpt lat="45.59416" lon="6.88238">
        <ele>1011</ele>
        <time>2021-07-23T08:33:14.285Z</time>
      </trkpt>
      <trkpt lat="45.59413" lon="6.88237">
        <ele>1011.4</ele>
        <time>2021-07-23T08:33:15.285Z</time>
      </trkpt>
      <trkpt lat="45.5941" lon="6.88237">
        <ele>1011.4</ele>
        <time>2021-07-23T08:33:16.285Z</time>
      </trkpt>
      <trkpt lat="45.59407" lon="6.88237">
        <ele>1011.4</ele>
        <time>2021-07-23T08:33:17.285Z</time>
      </trkpt>
      <trkpt lat="45.59403" lon="6.88237">
        <ele>1011.4</ele>
        <time>2021-07-23T08:33:18.285Z</time>
      </trkpt>
      <trkpt lat="45.594" lon="6.88237">
        <ele>1011.4</ele>
        <time>2021-07-23T08:33:19.285Z</time>
      </trkpt>
      <trkpt lat="45.59397" lon="6.88237">
        <ele>1011.8</ele>
        <time>2021-07-23T08:33:20.285Z</time>
      </trkpt>
      <trkpt lat="45.59394" lon="6.88237">
        <ele>1012.2</ele>
        <time>2021-07-23T08:33:21.285Z</time>
      </trkpt>
      <trkpt lat="45.59391" lon="6.88237">
        <ele>1012.6</ele>
        <time>2021-07-23T08:33:22.285Z</time>
      </trkpt>
      <trkpt lat="45.59387" lon="6.88237">
        <ele>1013</ele>
        <time>2021-07-23T08:33:23.285Z</time>
      </trkpt>
      <trkpt lat="45.59384" lon="6.88237">
        <ele>1013.4</ele>
        <time>2021-07-23T08:33:24.285Z</time>
      </trkpt>
      <trkpt lat="45.59381" lon="6.88237">
        <ele>1013.4</ele>
        <time>2021-07-23T08:33:25.285Z</time>
      </trkpt>
      <trkpt lat="45.59378" lon="6.88236">
        <ele>1013.4</ele>
        <time>2021-07-23T08:33:26.285Z</time>
      </trkpt>
      <trkpt lat="45.59375" lon="6.88236">
        <ele>1013.4</ele>
        <time>2021-07-23T08:33:27.285Z</time>
      </trkpt>
      <trkpt lat="45.59371" lon="6.88236">
        <ele>1013.4</ele>
        <time>2021-07-23T08:33:28.285Z</time>
      </trkpt>
      <trkpt lat="45.59368" lon="6.88236">
        <ele>1013.4</ele>
        <time>2021-07-23T08:33:29.285Z</time>
      </trkpt>
      <trkpt lat="45.59365" lon="6.88235">
        <ele>1013.8</ele>
        <time>2021-07-23T08:33:30.285Z</time>
      </trkpt>
      <trkpt lat="45.59361" lon="6.88235">
        <ele>1014.4</ele>
        <time>2021-07-23T08:33:31.285Z</time>
      </trkpt>
      <trkpt lat="45.59358" lon="6.88236">
        <ele>1014.8</ele>
        <time>2021-07-23T08:33:32.285Z</time>
      </trkpt>
      <trkpt lat="45.59355" lon="6.88236">
        <ele>1015.2</ele>
        <time>2021-07-23T08:33:33.285Z</time>
      </trkpt>
      <trkpt lat="45.59352" lon="6.88236">
        <ele>1015.6</ele>
        <time>2021-07-23T08:33:34.285Z</time>
      </trkpt>
      <trkpt lat="45.59349" lon="6.88236">
        <ele>1015.6</ele>
        <time>2021-07-23T08:33:35.285Z</time>
      </trkpt>
      <trkpt lat="45.59346" lon="6.88237">
        <ele>1015.6</ele>
        <time>2021-07-23T08:33:36.285Z</time>
      </trkpt>
      <trkpt lat="45.59343" lon="6.88237">
        <ele>1015.6</ele>
        <time>2021-07-23T08:33:37.285Z</time>
      </trkpt>
      <trkpt lat="45.5934" lon="6.88238">
        <ele>1015.6</ele>
        <time>2021-07-23T08:33:38.285Z</time>
      </trkpt>
      <trkpt lat="45.59337" lon="6.88238">
        <ele>1016</ele>
        <time>2021-07-23T08:33:39.285Z</time>
      </trkpt>
      <trkpt lat="45.59333" lon="6.88238">
        <ele>1016.4</ele>
        <time>2021-07-23T08:33:40.285Z</time>
      </trkpt>
      <trkpt lat="45.5933" lon="6.88238">
        <ele>1016.8</ele>
        <time>2021-07-23T08:33:41.285Z</time>
      </trkpt>
      <trkpt lat="45.59327" lon="6.88238">
        <ele>1017.2</ele>
        <time>2021-07-23T08:33:42.285Z</time>
      </trkpt>
      <trkpt lat="45.59324" lon="6.8824">
        <ele>1017.6</ele>
        <time>2021-07-23T08:33:43.285Z</time>
      </trkpt>
      <trkpt lat="45.59321" lon="6.88242">
        <ele>1017.6</ele>
        <time>2021-07-23T08:33:44.285Z</time>
      </trkpt>
      <trkpt lat="45.59318" lon="6.88243">
        <ele>1017.6</ele>
        <time>2021-07-23T08:33:45.285Z</time>
      </trkpt>
      <trkpt lat="45.59315" lon="6.88244">
        <ele>1017.6</ele>
        <time>2021-07-23T08:33:46.285Z</time>
      </trkpt>
      <trkpt lat="45.59312" lon="6.88246">
        <ele>1018</ele>
        <time>2021-07-23T08:33:47.285Z</time>
      </trkpt>
      <trkpt lat="45.59309" lon="6.88247">
        <ele>1018.4</ele>
        <time>2021-07-23T08:33:48.285Z</time>
      </trkpt>
      <trkpt lat="45.59307" lon="6.88248">
        <ele>1018.8</ele>
        <time>2021-07-23T08:33:49.285Z</time>
      </trkpt>
      <trkpt lat="45.59304" lon="6.8825">
        <ele>1019.6</ele>
        <time>2021-07-23T08:33:50.285Z</time>
      </trkpt>
      <trkpt lat="45.59301" lon="6.88251">
        <ele>1019.6</ele>
        <time>2021-07-23T08:33:51.285Z</time>
      </trkpt>
      <trkpt lat="45.59298" lon="6.88252">
        <ele>1019.6</ele>
        <time>2021-07-23T08:33:52.285Z</time>
      </trkpt>
      <trkpt lat="45.59295" lon="6.88253">
        <ele>1019.6</ele>
        <time>2021-07-23T08:33:53.285Z</time>
      </trkpt>
      <trkpt lat="45.59292" lon="6.88254">
        <ele>1020</ele>
        <time>2021-07-23T08:33:54.285Z</time>
      </trkpt>
      <trkpt lat="45.59289" lon="6.88255">
        <ele>1020.4</ele>
        <time>2021-07-23T08:33:55.285Z</time>
      </trkpt>
      <trkpt lat="45.59285" lon="6.88256">
        <ele>1020.8</ele>
        <time>2021-07-23T08:33:56.285Z</time>
      </trkpt>
      <trkpt lat="45.59282" lon="6.88256">
        <ele>1021.2</ele>
        <time>2021-07-23T08:33:57.285Z</time>
      </trkpt>
      <trkpt lat="45.59279" lon="6.88257">
        <ele>1021.6</ele>
        <time>2021-07-23T08:33:58.285Z</time>
      </trkpt>
      <trkpt lat="45.59275" lon="6.88257">
        <ele>1021.6</ele>
        <time>2021-07-23T08:33:59.285Z</time>
      </trkpt>
      <trkpt lat="45.59272" lon="6.88257">
        <ele>1021.6</ele>
        <time>2021-07-23T08:34:00.285Z</time>
      </trkpt>
      <trkpt lat="45.59269" lon="6.88257">
        <ele>1021.6</ele>
        <time>2021-07-23T08:34:01.285Z</time>
      </trkpt>
      <trkpt lat="45.59266" lon="6.88256">
        <ele>1021.6</ele>
        <time>2021-07-23T08:34:02.285Z</time>
      </trkpt>
      <trkpt lat="45.59263" lon="6.88255">
        <ele>1021.6</ele>
        <time>2021-07-23T08:34:03.285Z</time>
      </trkpt>
      <trkpt lat="45.5926" lon="6.88253">
        <ele>1022</ele>
        <time>2021-07-23T08:34:04.285Z</time>
      </trkpt>
      <trkpt lat="45.59257" lon="6.88252">
        <ele>1022.4</ele>
        <time>2021-07-23T08:34:05.285Z</time>
      </trkpt>
      <trkpt lat="45.59254" lon="6.88252">
        <ele>1022.8</ele>
        <time>2021-07-23T08:34:06.285Z</time>
      </trkpt>
      <trkpt lat="45.59251" lon="6.88251">
        <ele>1023.4</ele>
        <time>2021-07-23T08:34:07.285Z</time>
      </trkpt>
      <trkpt lat="45.59248" lon="6.8825">
        <ele>1023.8</ele>
        <time>2021-07-23T08:34:08.285Z</time>
      </trkpt>
      <trkpt lat="45.59246" lon="6.8825">
        <ele>1023.8</ele>
        <time>2021-07-23T08:34:09.285Z</time>
      </trkpt>
      <trkpt lat="45.59243" lon="6.88249">
        <ele>1023.8</ele>
        <time>2021-07-23T08:34:10.285Z</time>
      </trkpt>
      <trkpt lat="45.5924" lon="6.88249">
        <ele>1024.2</ele>
        <time>2021-07-23T08:34:11.285Z</time>
      </trkpt>
      <trkpt lat="45.59237" lon="6.88249">
        <ele>1024.6</ele>
        <time>2021-07-23T08:34:12.285Z</time>
      </trkpt>
      <trkpt lat="45.59234" lon="6.88249">
        <ele>1025</ele>
        <time>2021-07-23T08:34:13.285Z</time>
      </trkpt>
      <trkpt lat="45.59232" lon="6.88249">
        <ele>1025.4</ele>
        <time>2021-07-23T08:34:14.285Z</time>
      </trkpt>
      <trkpt lat="45.59229" lon="6.88248">
        <ele>1025.8</ele>
        <time>2021-07-23T08:34:15.285Z</time>
      </trkpt>
      <trkpt lat="45.59226" lon="6.88249">
        <ele>1025.8</ele>
        <time>2021-07-23T08:34:16.285Z</time>
      </trkpt>
      <trkpt lat="45.59223" lon="6.88249">
        <ele>1025.8</ele>
        <time>2021-07-23T08:34:17.285Z</time>
      </trkpt>
      <trkpt lat="45.59221" lon="6.88249">
        <ele>1026.2</ele>
        <time>2021-07-23T08:34:18.285Z</time>
      </trkpt>
      <trkpt lat="45.59218" lon="6.88249">
        <ele>1026.6</ele>
        <time>2021-07-23T08:34:19.285Z</time>
      </trkpt>
      <trkpt lat="45.59215" lon="6.8825">
        <ele>1027</ele>
        <time>2021-07-23T08:34:20.285Z</time>
      </trkpt>
      <trkpt lat="45.59212" lon="6.8825">
        <ele>1027.4</ele>
        <time>2021-07-23T08:34:21.285Z</time>
      </trkpt>
      <trkpt lat="45.5921" lon="6.88251">
        <ele>1027.8</ele>
        <time>2021-07-23T08:34:22.285Z</time>
      </trkpt>
      <trkpt lat="45.59207" lon="6.88251">
        <ele>1027.8</ele>
        <time>2021-07-23T08:34:23.285Z</time>
      </trkpt>
      <trkpt lat="45.59204" lon="6.88252">
        <ele>1027.8</ele>
        <time>2021-07-23T08:34:24.285Z</time>
      </trkpt>
      <trkpt lat="45.59202" lon="6.88252">
        <ele>1027.8</ele>
        <time>2021-07-23T08:34:25.285Z</time>
      </trkpt>
      <trkpt lat="45.59199" lon="6.88252">
        <ele>1027.8</ele>
        <time>2021-07-23T08:34:26.285Z</time>
      </trkpt>
      <trkpt lat="45.59196" lon="6.88252">
        <ele>1028.2</ele>
        <time>2021-07-23T08:34:27.285Z</time>
      </trkpt>
      <trkpt lat="45.59193" lon="6.88252">
        <ele>1028.8</ele>
        <time>2021-07-23T08:34:28.285Z</time>
      </trkpt>
      <trkpt lat="45.59191" lon="6.88253">
        <ele>1029.2</ele>
        <time>2021-07-23T08:34:29.285Z</time>
      </trkpt>
      <trkpt lat="45.59188" lon="6.88253">
        <ele>1029.6</ele>
        <time>2021-07-23T08:34:30.285Z</time>
      </trkpt>
      <trkpt lat="45.59185" lon="6.88254">
        <ele>1030</ele>
        <time>2021-07-23T08:34:31.285Z</time>
      </trkpt>
      <trkpt lat="45.59182" lon="6.88254">
        <ele>1030</ele>
        <time>2021-07-23T08:34:32.285Z</time>
      </trkpt>
      <trkpt lat="45.59179" lon="6.88255">
        <ele>1030</ele>
        <time>2021-07-23T08:34:33.285Z</time>
      </trkpt>
      <trkpt lat="45.59176" lon="6.88255">
        <ele>1030</ele>
        <time>2021-07-23T08:34:34.285Z</time>
      </trkpt>
      <trkpt lat="45.59174" lon="6.88255">
        <ele>1030</ele>
        <time>2021-07-23T08:34:35.285Z</time>
      </trkpt>
      <trkpt lat="45.59171" lon="6.88255">
        <ele>1030.4</ele>
        <time>2021-07-23T08:34:36.285Z</time>
      </trkpt>
      <trkpt lat="45.59168" lon="6.88255">
        <ele>1030.8</ele>
        <time>2021-07-23T08:34:37.285Z</time>
      </trkpt>
      <trkpt lat="45.59165" lon="6.88256">
        <ele>1031.2</ele>
        <time>2021-07-23T08:34:38.285Z</time>
      </trkpt>
      <trkpt lat="45.59162" lon="6.88256">
        <ele>1031.6</ele>
        <time>2021-07-23T08:34:39.285Z</time>
      </trkpt>
      <trkpt lat="45.59159" lon="6.88256">
        <ele>1032</ele>
        <time>2021-07-23T08:34:40.285Z</time>
      </trkpt>
      <trkpt lat="45.59156" lon="6.88256">
        <ele>1032</ele>
        <time>2021-07-23T08:34:41.285Z</time>
      </trkpt>
      <trkpt lat="45.59154" lon="6.88257">
        <ele>1032</ele>
        <time>2021-07-23T08:34:42.285Z</time>
      </trkpt>
      <trkpt lat="45.59151" lon="6.88257">
        <ele>1032</ele>
        <time>2021-07-23T08:34:43.285Z</time>
      </trkpt>
      <trkpt lat="45.59148" lon="6.88257">
        <ele>1032.4</ele>
        <time>2021-07-23T08:34:44.285Z</time>
      </trkpt>
      <trkpt lat="45.59145" lon="6.88257">
        <ele>1032.8</ele>
        <time>2021-07-23T08:34:45.285Z</time>
      </trkpt>
      <trkpt lat="45.59143" lon="6.88257">
        <ele>1033.2</ele>
        <time>2021-07-23T08:34:46.285Z</time>
      </trkpt>
      <trkpt lat="45.5914" lon="6.88257">
        <ele>1033.8</ele>
        <time>2021-07-23T08:34:47.285Z</time>
      </trkpt>
      <trkpt lat="45.59137" lon="6.88257">
        <ele>1034.2</ele>
        <time>2021-07-23T08:34:48.285Z</time>
      </trkpt>
      <trkpt lat="45.59134" lon="6.88257">
        <ele>1034.2</ele>
        <time>2021-07-23T08:34:49.285Z</time>
      </trkpt>
      <trkpt lat="45.59131" lon="6.88258">
        <ele>1034.2</ele>
        <time>2021-07-23T08:34:50.285Z</time>
      </trkpt>
      <trkpt lat="45.59128" lon="6.88258">
        <ele>1034.2</ele>
        <time>2021-07-23T08:34:51.285Z</time>
      </trkpt>
      <trkpt lat="45.59126" lon="6.88259">
        <ele>1034.2</ele>
        <time>2021-07-23T08:34:52.285Z</time>
      </trkpt>
      <trkpt lat="45.59123" lon="6.8826">
        <ele>1034.2</ele>
        <time>2021-07-23T08:34:53.285Z</time>
      </trkpt>
      <trkpt lat="45.5912" lon="6.88262">
        <ele>1034.2</ele>
        <time>2021-07-23T08:34:54.285Z</time>
      </trkpt>
      <trkpt lat="45.59117" lon="6.88262">
        <ele>1034.6</ele>
        <time>2021-07-23T08:34:55.285Z</time>
      </trkpt>
      <trkpt lat="45.59115" lon="6.88264">
        <ele>1035</ele>
        <time>2021-07-23T08:34:56.285Z</time>
      </trkpt>
      <trkpt lat="45.59112" lon="6.88265">
        <ele>1035.4</ele>
        <time>2021-07-23T08:34:57.285Z</time>
      </trkpt>
      <trkpt lat="45.5911" lon="6.88266">
        <ele>1035.8</ele>
        <time>2021-07-23T08:34:58.285Z</time>
      </trkpt>
      <trkpt lat="45.59107" lon="6.88268">
        <ele>1036.4</ele>
        <time>2021-07-23T08:34:59.285Z</time>
      </trkpt>
      <trkpt lat="45.59105" lon="6.88269">
        <ele>1036.4</ele>
        <time>2021-07-23T08:35:00.285Z</time>
      </trkpt>
      <trkpt lat="45.59102" lon="6.8827">
        <ele>1036.4</ele>
        <time>2021-07-23T08:35:01.285Z</time>
      </trkpt>
      <trkpt lat="45.59099" lon="6.88272">
        <ele>1036.4</ele>
        <time>2021-07-23T08:35:02.285Z</time>
      </trkpt>
      <trkpt lat="45.59097" lon="6.88273">
        <ele>1036.4</ele>
        <time>2021-07-23T08:35:03.285Z</time>
      </trkpt>
      <trkpt lat="45.59094" lon="6.88275">
        <ele>1037.2</ele>
        <time>2021-07-23T08:35:04.285Z</time>
      </trkpt>
      <trkpt lat="45.59092" lon="6.88276">
        <ele>1037.6</ele>
        <time>2021-07-23T08:35:05.285Z</time>
      </trkpt>
      <trkpt lat="45.5909" lon="6.88278">
        <ele>1038</ele>
        <time>2021-07-23T08:35:06.285Z</time>
      </trkpt>
      <trkpt lat="45.59087" lon="6.88279">
        <ele>1038.4</ele>
        <time>2021-07-23T08:35:07.285Z</time>
      </trkpt>
      <trkpt lat="45.59085" lon="6.88281">
        <ele>1038.4</ele>
        <time>2021-07-23T08:35:08.285Z</time>
      </trkpt>
      <trkpt lat="45.59082" lon="6.88283">
        <ele>1038.4</ele>
        <time>2021-07-23T08:35:09.285Z</time>
      </trkpt>
      <trkpt lat="45.59079" lon="6.88284">
        <ele>1038.4</ele>
        <time>2021-07-23T08:35:10.285Z</time>
      </trkpt>
      <trkpt lat="45.59077" lon="6.88285">
        <ele>1038.8</ele>
        <time>2021-07-23T08:35:11.285Z</time>
      </trkpt>
      <trkpt lat="45.59074" lon="6.88286">
        <ele>1039.2</ele>
        <time>2021-07-23T08:35:12.285Z</time>
      </trkpt>
      <trkpt lat="45.59071" lon="6.88287">
        <ele>1039.8</ele>
        <time>2021-07-23T08:35:13.285Z</time>
      </trkpt>
      <trkpt lat="45.59069" lon="6.88288">
        <ele>1040.2</ele>
        <time>2021-07-23T08:35:14.285Z</time>
      </trkpt>
      <trkpt lat="45.59067" lon="6.88289">
        <ele>1040.6</ele>
        <time>2021-07-23T08:35:15.285Z</time>
      </trkpt>
      <trkpt lat="45.59064" lon="6.88291">
        <ele>1040.6</ele>
        <time>2021-07-23T08:35:16.285Z</time>
      </trkpt>
      <trkpt lat="45.59062" lon="6.88293">
        <ele>1040.6</ele>
        <time>2021-07-23T08:35:17.285Z</time>
      </trkpt>
      <trkpt lat="45.59059" lon="6.88294">
        <ele>1040.6</ele>
        <time>2021-07-23T08:35:18.285Z</time>
      </trkpt>
      <trkpt lat="45.59057" lon="6.88296">
        <ele>1040.6</ele>
        <time>2021-07-23T08:35:19.285Z</time>
      </trkpt>
      <trkpt lat="45.59055" lon="6.88298">
        <ele>1040.6</ele>
        <time>2021-07-23T08:35:20.285Z</time>
      </trkpt>
      <trkpt lat="45.59053" lon="6.88301">
        <ele>1040.6</ele>
        <time>2021-07-23T08:35:21.285Z</time>
      </trkpt>
      <trkpt lat="45.5905" lon="6.88304">
        <ele>1041</ele>
        <time>2021-07-23T08:35:22.285Z</time>
      </trkpt>
      <trkpt lat="45.59048" lon="6.88307">
        <ele>1041.4</ele>
        <time>2021-07-23T08:35:23.285Z</time>
      </trkpt>
      <trkpt lat="45.59047" lon="6.8831">
        <ele>1042</ele>
        <time>2021-07-23T08:35:24.285Z</time>
      </trkpt>
      <trkpt lat="45.59045" lon="6.88314">
        <ele>1042.4</ele>
        <time>2021-07-23T08:35:25.285Z</time>
      </trkpt>
      <trkpt lat="45.59044" lon="6.88318">
        <ele>1042.8</ele>
        <time>2021-07-23T08:35:26.285Z</time>
      </trkpt>
      <trkpt lat="45.59043" lon="6.88321">
        <ele>1042.8</ele>
        <time>2021-07-23T08:35:27.285Z</time>
      </trkpt>
      <trkpt lat="45.59042" lon="6.88325">
        <ele>1042.8</ele>
        <time>2021-07-23T08:35:28.285Z</time>
      </trkpt>
      <trkpt lat="45.59041" lon="6.88328">
        <ele>1043.2</ele>
        <time>2021-07-23T08:35:29.285Z</time>
      </trkpt>
      <trkpt lat="45.59041" lon="6.88332">
        <ele>1043.6</ele>
        <time>2021-07-23T08:35:30.285Z</time>
      </trkpt>
      <trkpt lat="45.5904" lon="6.88336">
        <ele>1044</ele>
        <time>2021-07-23T08:35:31.285Z</time>
      </trkpt>
      <trkpt lat="45.59039" lon="6.8834">
        <ele>1044.6</ele>
        <time>2021-07-23T08:35:32.285Z</time>
      </trkpt>
      <trkpt lat="45.59039" lon="6.88345">
        <ele>1045</ele>
        <time>2021-07-23T08:35:33.285Z</time>
      </trkpt>
      <trkpt lat="45.59038" lon="6.88351">
        <ele>1045</ele>
        <time>2021-07-23T08:35:34.285Z</time>
      </trkpt>
      <trkpt lat="45.59038" lon="6.88356">
        <ele>1045</ele>
        <time>2021-07-23T08:35:35.285Z</time>
      </trkpt>
      <trkpt lat="45.59037" lon="6.88362">
        <ele>1045</ele>
        <time>2021-07-23T08:35:36.285Z</time>
      </trkpt>
      <trkpt lat="45.59036" lon="6.88367">
        <ele>1045</ele>
        <time>2021-07-23T08:35:37.285Z</time>
      </trkpt>
      <trkpt lat="45.59035" lon="6.88371">
        <ele>1045</ele>
        <time>2021-07-23T08:35:38.285Z</time>
      </trkpt>
      <trkpt lat="45.59035" lon="6.88376">
        <ele>1045</ele>
        <time>2021-07-23T08:35:39.285Z</time>
      </trkpt>
      <trkpt lat="45.59034" lon="6.88381">
        <ele>1045</ele>
        <time>2021-07-23T08:35:40.285Z</time>
      </trkpt>
      <trkpt lat="45.59033" lon="6.88386">
        <ele>1045</ele>
        <time>2021-07-23T08:35:41.285Z</time>
      </trkpt>
      <trkpt lat="45.59031" lon="6.88391">
        <ele>1045</ele>
        <time>2021-07-23T08:35:42.285Z</time>
      </trkpt>
      <trkpt lat="45.59029" lon="6.88397">
        <ele>1045</ele>
        <time>2021-07-23T08:35:43.285Z</time>
      </trkpt>
      <trkpt lat="45.59026" lon="6.88401">
        <ele>1045</ele>
        <time>2021-07-23T08:35:44.285Z</time>
      </trkpt>
      <trkpt lat="45.59023" lon="6.88405">
        <ele>1045</ele>
        <time>2021-07-23T08:35:45.285Z</time>
      </trkpt>
      <trkpt lat="45.59019" lon="6.88408">
        <ele>1045</ele>
        <time>2021-07-23T08:35:46.285Z</time>
      </trkpt>
      <trkpt lat="45.59015" lon="6.8841">
        <ele>1045</ele>
        <time>2021-07-23T08:35:47.285Z</time>
      </trkpt>
      <trkpt lat="45.59011" lon="6.88412">
        <ele>1045</ele>
        <time>2021-07-23T08:35:48.285Z</time>
      </trkpt>
      <trkpt lat="45.59007" lon="6.88412">
        <ele>1045</ele>
        <time>2021-07-23T08:35:49.285Z</time>
      </trkpt>
      <trkpt lat="45.59003" lon="6.88411">
        <ele>1045.4</ele>
        <time>2021-07-23T08:35:50.285Z</time>
      </trkpt>
      <trkpt lat="45.59" lon="6.88409">
        <ele>1045.8</ele>
        <time>2021-07-23T08:35:51.285Z</time>
      </trkpt>
      <trkpt lat="45.58996" lon="6.88407">
        <ele>1046.4</ele>
        <time>2021-07-23T08:35:52.285Z</time>
      </trkpt>
      <trkpt lat="45.58993" lon="6.88404">
        <ele>1046.8</ele>
        <time>2021-07-23T08:35:53.285Z</time>
      </trkpt>
      <trkpt lat="45.5899" lon="6.88401">
        <ele>1047.2</ele>
        <time>2021-07-23T08:35:54.285Z</time>
      </trkpt>
      <trkpt lat="45.58987" lon="6.88399">
        <ele>1047.2</ele>
        <time>2021-07-23T08:35:55.285Z</time>
      </trkpt>
      <trkpt lat="45.58981" lon="6.88393">
        <ele>1047.2</ele>
        <time>2021-07-23T08:35:56.285Z</time>
      </trkpt>
      <trkpt lat="45.58981" lon="6.88393">
        <ele>1047.2</ele>
        <time>2021-07-23T08:35:57.285Z</time>
      </trkpt>
      <trkpt lat="45.58979" lon="6.8839">
        <ele>1047.2</ele>
        <time>2021-07-23T08:35:58.285Z</time>
      </trkpt>
      <trkpt lat="45.58976" lon="6.88387">
        <ele>1047.2</ele>
        <time>2021-07-23T08:35:59.285Z</time>
      </trkpt>
      <trkpt lat="45.58974" lon="6.88383">
        <ele>1047.8</ele>
        <time>2021-07-23T08:36:00.285Z</time>
      </trkpt>
      <trkpt lat="45.58971" lon="6.8838">
        <ele>1048.2</ele>
        <time>2021-07-23T08:36:01.285Z</time>
      </trkpt>
      <trkpt lat="45.58969" lon="6.88376">
        <ele>1048.6</ele>
        <time>2021-07-23T08:36:02.285Z</time>
      </trkpt>
      <trkpt lat="45.58967" lon="6.88373">
        <ele>1049</ele>
        <time>2021-07-23T08:36:03.285Z</time>
      </trkpt>
      <trkpt lat="45.58964" lon="6.8837">
        <ele>1049.6</ele>
        <time>2021-07-23T08:36:04.285Z</time>
      </trkpt>
      <trkpt lat="45.58962" lon="6.88366">
        <ele>1049.6</ele>
        <time>2021-07-23T08:36:05.285Z</time>
      </trkpt>
      <trkpt lat="45.5896" lon="6.88363">
        <ele>1049.6</ele>
        <time>2021-07-23T08:36:06.285Z</time>
      </trkpt>
      <trkpt lat="45.58957" lon="6.8836">
        <ele>1049.6</ele>
        <time>2021-07-23T08:36:07.285Z</time>
      </trkpt>
      <trkpt lat="45.58955" lon="6.88357">
        <ele>1050</ele>
        <time>2021-07-23T08:36:08.285Z</time>
      </trkpt>
      <trkpt lat="45.58953" lon="6.88354">
        <ele>1050.4</ele>
        <time>2021-07-23T08:36:09.285Z</time>
      </trkpt>
      <trkpt lat="45.5895" lon="6.88351">
        <ele>1050.8</ele>
        <time>2021-07-23T08:36:10.285Z</time>
      </trkpt>
      <trkpt lat="45.58947" lon="6.88349">
        <ele>1051.2</ele>
        <time>2021-07-23T08:36:11.285Z</time>
      </trkpt>
      <trkpt lat="45.58944" lon="6.88346">
        <ele>1051.6</ele>
        <time>2021-07-23T08:36:12.285Z</time>
      </trkpt>
      <trkpt lat="45.58941" lon="6.88344">
        <ele>1051.6</ele>
        <time>2021-07-23T08:36:13.285Z</time>
      </trkpt>
      <trkpt lat="45.58938" lon="6.88342">
        <ele>1051.6</ele>
        <time>2021-07-23T08:36:14.285Z</time>
      </trkpt>
      <trkpt lat="45.58935" lon="6.8834">
        <ele>1051.6</ele>
        <time>2021-07-23T08:36:15.285Z</time>
      </trkpt>
      <trkpt lat="45.58932" lon="6.8834">
        <ele>1051.6</ele>
        <time>2021-07-23T08:36:16.285Z</time>
      </trkpt>
      <trkpt lat="45.58929" lon="6.88339">
        <ele>1051.6</ele>
        <time>2021-07-23T08:36:17.285Z</time>
      </trkpt>
      <trkpt lat="45.58925" lon="6.88339">
        <ele>1051.6</ele>
        <time>2021-07-23T08:36:18.285Z</time>
      </trkpt>
      <trkpt lat="45.58922" lon="6.88339">
        <ele>1052.2</ele>
        <time>2021-07-23T08:36:19.285Z</time>
      </trkpt>
      <trkpt lat="45.58919" lon="6.88338">
        <ele>1052.6</ele>
        <time>2021-07-23T08:36:20.285Z</time>
      </trkpt>
      <trkpt lat="45.58916" lon="6.88339">
        <ele>1053</ele>
        <time>2021-07-23T08:36:21.285Z</time>
      </trkpt>
      <trkpt lat="45.58913" lon="6.88339">
        <ele>1053.4</ele>
        <time>2021-07-23T08:36:22.285Z</time>
      </trkpt>
      <trkpt lat="45.5891" lon="6.88339">
        <ele>1054</ele>
        <time>2021-07-23T08:36:23.285Z</time>
      </trkpt>
      <trkpt lat="45.58906" lon="6.88339">
        <ele>1054</ele>
        <time>2021-07-23T08:36:24.285Z</time>
      </trkpt>
      <trkpt lat="45.58903" lon="6.8834">
        <ele>1054</ele>
        <time>2021-07-23T08:36:25.285Z</time>
      </trkpt>
      <trkpt lat="45.58899" lon="6.88341">
        <ele>1054</ele>
        <time>2021-07-23T08:36:26.285Z</time>
      </trkpt>
      <trkpt lat="45.58896" lon="6.88342">
        <ele>1054</ele>
        <time>2021-07-23T08:36:27.285Z</time>
      </trkpt>
      <trkpt lat="45.58893" lon="6.88343">
        <ele>1054</ele>
        <time>2021-07-23T08:36:28.285Z</time>
      </trkpt>
      <trkpt lat="45.5889" lon="6.88343">
        <ele>1054.4</ele>
        <time>2021-07-23T08:36:29.285Z</time>
      </trkpt>
      <trkpt lat="45.58887" lon="6.88344">
        <ele>1054.8</ele>
        <time>2021-07-23T08:36:30.285Z</time>
      </trkpt>
      <trkpt lat="45.58884" lon="6.88345">
        <ele>1055.2</ele>
        <time>2021-07-23T08:36:31.285Z</time>
      </trkpt>
      <trkpt lat="45.58881" lon="6.88347">
        <ele>1055.8</ele>
        <time>2021-07-23T08:36:32.285Z</time>
      </trkpt>
      <trkpt lat="45.58878" lon="6.88349">
        <ele>1056.2</ele>
        <time>2021-07-23T08:36:33.285Z</time>
      </trkpt>
      <trkpt lat="45.58876" lon="6.88351">
        <ele>1056.2</ele>
        <time>2021-07-23T08:36:34.285Z</time>
      </trkpt>
      <trkpt lat="45.58873" lon="6.88353">
        <ele>1056.2</ele>
        <time>2021-07-23T08:36:35.285Z</time>
      </trkpt>
      <trkpt lat="45.58871" lon="6.88356">
        <ele>1056.2</ele>
        <time>2021-07-23T08:36:36.285Z</time>
      </trkpt>
      <trkpt lat="45.58868" lon="6.88359">
        <ele>1057</ele>
        <time>2021-07-23T08:36:37.285Z</time>
      </trkpt>
      <trkpt lat="45.58866" lon="6.88362">
        <ele>1057.4</ele>
        <time>2021-07-23T08:36:38.285Z</time>
      </trkpt>
      <trkpt lat="45.58864" lon="6.88366">
        <ele>1057.8</ele>
        <time>2021-07-23T08:36:39.285Z</time>
      </trkpt>
      <trkpt lat="45.58862" lon="6.88369">
        <ele>1058.2</ele>
        <time>2021-07-23T08:36:40.285Z</time>
      </trkpt>
      <trkpt lat="45.58861" lon="6.88373">
        <ele>1058.2</ele>
        <time>2021-07-23T08:36:41.285Z</time>
      </trkpt>
      <trkpt lat="45.5886" lon="6.88377">
        <ele>1058.6</ele>
        <time>2021-07-23T08:36:42.285Z</time>
      </trkpt>
      <trkpt lat="45.58859" lon="6.8838">
        <ele>1059.2</ele>
        <time>2021-07-23T08:36:43.285Z</time>
      </trkpt>
      <trkpt lat="45.58858" lon="6.88384">
        <ele>1059.6</ele>
        <time>2021-07-23T08:36:44.285Z</time>
      </trkpt>
      <trkpt lat="45.58856" lon="6.88388">
        <ele>1060</ele>
        <time>2021-07-23T08:36:45.285Z</time>
      </trkpt>
      <trkpt lat="45.58855" lon="6.88391">
        <ele>1060.4</ele>
        <time>2021-07-23T08:36:46.285Z</time>
      </trkpt>
      <trkpt lat="45.58855" lon="6.88395">
        <ele>1060.4</ele>
        <time>2021-07-23T08:36:47.285Z</time>
      </trkpt>
      <trkpt lat="45.58854" lon="6.88398">
        <ele>1060.4</ele>
        <time>2021-07-23T08:36:48.285Z</time>
      </trkpt>
      <trkpt lat="45.58853" lon="6.88402">
        <ele>1060.4</ele>
        <time>2021-07-23T08:36:49.285Z</time>
      </trkpt>
      <trkpt lat="45.58853" lon="6.88406">
        <ele>1060.4</ele>
        <time>2021-07-23T08:36:50.285Z</time>
      </trkpt>
      <trkpt lat="45.58852" lon="6.8841">
        <ele>1060.4</ele>
        <time>2021-07-23T08:36:51.285Z</time>
      </trkpt>
      <trkpt lat="45.58852" lon="6.88414">
        <ele>1060.8</ele>
        <time>2021-07-23T08:36:52.285Z</time>
      </trkpt>
      <trkpt lat="45.58851" lon="6.88417">
        <ele>1061.4</ele>
        <time>2021-07-23T08:36:53.285Z</time>
      </trkpt>
      <trkpt lat="45.58851" lon="6.88421">
        <ele>1061.8</ele>
        <time>2021-07-23T08:36:54.285Z</time>
      </trkpt>
      <trkpt lat="45.5885" lon="6.88425">
        <ele>1062.2</ele>
        <time>2021-07-23T08:36:55.285Z</time>
      </trkpt>
      <trkpt lat="45.58849" lon="6.88429">
        <ele>1062.6</ele>
        <time>2021-07-23T08:36:56.285Z</time>
      </trkpt>
      <trkpt lat="45.58849" lon="6.88433">
        <ele>1062.6</ele>
        <time>2021-07-23T08:36:57.285Z</time>
      </trkpt>
      <trkpt lat="45.58848" lon="6.88437">
        <ele>1062.6</ele>
        <time>2021-07-23T08:36:58.285Z</time>
      </trkpt>
      <trkpt lat="45.58846" lon="6.8844">
        <ele>1062.6</ele>
        <time>2021-07-23T08:36:59.285Z</time>
      </trkpt>
      <trkpt lat="45.58844" lon="6.88443">
        <ele>1062.6</ele>
        <time>2021-07-23T08:37:00.285Z</time>
      </trkpt>
      <trkpt lat="45.58842" lon="6.88445">
        <ele>1063</ele>
        <time>2021-07-23T08:37:01.285Z</time>
      </trkpt>
      <trkpt lat="45.5884" lon="6.88447">
        <ele>1064</ele>
        <time>2021-07-23T08:37:02.285Z</time>
      </trkpt>
      <trkpt lat="45.58838" lon="6.88449">
        <ele>1064.4</ele>
        <time>2021-07-23T08:37:03.285Z</time>
      </trkpt>
      <trkpt lat="45.58835" lon="6.88451">
        <ele>1064.8</ele>
        <time>2021-07-23T08:37:04.285Z</time>
      </trkpt>
      <trkpt lat="45.58833" lon="6.88454">
        <ele>1064.8</ele>
        <time>2021-07-23T08:37:05.285Z</time>
      </trkpt>
      <trkpt lat="45.58831" lon="6.88455">
        <ele>1064.8</ele>
        <time>2021-07-23T08:37:06.285Z</time>
      </trkpt>
      <trkpt lat="45.58829" lon="6.88457">
        <ele>1064.8</ele>
        <time>2021-07-23T08:37:07.285Z</time>
      </trkpt>
      <trkpt lat="45.58826" lon="6.88458">
        <ele>1065.2</ele>
        <time>2021-07-23T08:37:08.285Z</time>
      </trkpt>
      <trkpt lat="45.58824" lon="6.8846">
        <ele>1065.6</ele>
        <time>2021-07-23T08:37:09.285Z</time>
      </trkpt>
      <trkpt lat="45.58821" lon="6.88462">
        <ele>1066</ele>
        <time>2021-07-23T08:37:10.285Z</time>
      </trkpt>
      <trkpt lat="45.58818" lon="6.88463">
        <ele>1066.4</ele>
        <time>2021-07-23T08:37:11.285Z</time>
      </trkpt>
      <trkpt lat="45.58816" lon="6.88465">
        <ele>1066.8</ele>
        <time>2021-07-23T08:37:12.285Z</time>
      </trkpt>
      <trkpt lat="45.58814" lon="6.88467">
        <ele>1066.8</ele>
        <time>2021-07-23T08:37:13.285Z</time>
      </trkpt>
      <trkpt lat="45.58811" lon="6.88469">
        <ele>1066.8</ele>
        <time>2021-07-23T08:37:14.285Z</time>
      </trkpt>
      <trkpt lat="45.58808" lon="6.88472">
        <ele>1066.8</ele>
        <time>2021-07-23T08:37:15.285Z</time>
      </trkpt>
      <trkpt lat="45.58805" lon="6.88474">
        <ele>1066.8</ele>
        <time>2021-07-23T08:37:16.285Z</time>
      </trkpt>
      <trkpt lat="45.58802" lon="6.88477">
        <ele>1066.8</ele>
        <time>2021-07-23T08:37:17.285Z</time>
      </trkpt>
      <trkpt lat="45.58799" lon="6.88479">
        <ele>1066.8</ele>
        <time>2021-07-23T08:37:18.285Z</time>
      </trkpt>
      <trkpt lat="45.58795" lon="6.88482">
        <ele>1066.8</ele>
        <time>2021-07-23T08:37:19.285Z</time>
      </trkpt>
      <trkpt lat="45.58792" lon="6.88484">
        <ele>1066.8</ele>
        <time>2021-07-23T08:37:20.285Z</time>
      </trkpt>
      <trkpt lat="45.58789" lon="6.88486">
        <ele>1067.2</ele>
        <time>2021-07-23T08:37:21.285Z</time>
      </trkpt>
      <trkpt lat="45.58786" lon="6.88488">
        <ele>1067.6</ele>
        <time>2021-07-23T08:37:22.285Z</time>
      </trkpt>
      <trkpt lat="45.58783" lon="6.8849">
        <ele>1068</ele>
        <time>2021-07-23T08:37:23.285Z</time>
      </trkpt>
      <trkpt lat="45.58779" lon="6.88493">
        <ele>1068.6</ele>
        <time>2021-07-23T08:37:24.285Z</time>
      </trkpt>
      <trkpt lat="45.58776" lon="6.88494">
        <ele>1069</ele>
        <time>2021-07-23T08:37:25.285Z</time>
      </trkpt>
      <trkpt lat="45.58773" lon="6.88495">
        <ele>1069</ele>
        <time>2021-07-23T08:37:26.285Z</time>
      </trkpt>
      <trkpt lat="45.5877" lon="6.88495">
        <ele>1069</ele>
        <time>2021-07-23T08:37:27.285Z</time>
      </trkpt>
      <trkpt lat="45.58766" lon="6.88495">
        <ele>1069</ele>
        <time>2021-07-23T08:37:28.285Z</time>
      </trkpt>
      <trkpt lat="45.58763" lon="6.88494">
        <ele>1069</ele>
        <time>2021-07-23T08:37:29.285Z</time>
      </trkpt>
      <trkpt lat="45.5876" lon="6.88493">
        <ele>1069.4</ele>
        <time>2021-07-23T08:37:30.285Z</time>
      </trkpt>
      <trkpt lat="45.58757" lon="6.88492">
        <ele>1069.8</ele>
        <time>2021-07-23T08:37:31.285Z</time>
      </trkpt>
      <trkpt lat="45.58754" lon="6.8849">
        <ele>1070.4</ele>
        <time>2021-07-23T08:37:32.285Z</time>
      </trkpt>
      <trkpt lat="45.58752" lon="6.88489">
        <ele>1070.8</ele>
        <time>2021-07-23T08:37:33.285Z</time>
      </trkpt>
      <trkpt lat="45.58749" lon="6.88488">
        <ele>1071.2</ele>
        <time>2021-07-23T08:37:34.285Z</time>
      </trkpt>
      <trkpt lat="45.58746" lon="6.88487">
        <ele>1071.2</ele>
        <time>2021-07-23T08:37:35.285Z</time>
      </trkpt>
      <trkpt lat="45.58743" lon="6.88486">
        <ele>1071.2</ele>
        <time>2021-07-23T08:37:36.285Z</time>
      </trkpt>
      <trkpt lat="45.58741" lon="6.88485">
        <ele>1071.2</ele>
        <time>2021-07-23T08:37:37.285Z</time>
      </trkpt>
      <trkpt lat="45.58738" lon="6.88484">
        <ele>1071.6</ele>
        <time>2021-07-23T08:37:38.285Z</time>
      </trkpt>
      <trkpt lat="45.58736" lon="6.88482">
        <ele>1072</ele>
        <time>2021-07-23T08:37:39.285Z</time>
      </trkpt>
      <trkpt lat="45.58733" lon="6.8848">
        <ele>1072.4</ele>
        <time>2021-07-23T08:37:40.285Z</time>
      </trkpt>
      <trkpt lat="45.5873" lon="6.88479">
        <ele>1072.8</ele>
        <time>2021-07-23T08:37:41.285Z</time>
      </trkpt>
      <trkpt lat="45.58728" lon="6.88478">
        <ele>1073.2</ele>
        <time>2021-07-23T08:37:42.285Z</time>
      </trkpt>
      <trkpt lat="45.58725" lon="6.88476">
        <ele>1073.2</ele>
        <time>2021-07-23T08:37:43.285Z</time>
      </trkpt>
      <trkpt lat="45.58722" lon="6.88475">
        <ele>1073.2</ele>
        <time>2021-07-23T08:37:44.285Z</time>
      </trkpt>
      <trkpt lat="45.5872" lon="6.88473">
        <ele>1073.8</ele>
        <time>2021-07-23T08:37:45.285Z</time>
      </trkpt>
      <trkpt lat="45.58717" lon="6.88472">
        <ele>1074.2</ele>
        <time>2021-07-23T08:37:46.285Z</time>
      </trkpt>
      <trkpt lat="45.58714" lon="6.8847">
        <ele>1074.6</ele>
        <time>2021-07-23T08:37:47.285Z</time>
      </trkpt>
      <trkpt lat="45.58711" lon="6.88469">
        <ele>1075</ele>
        <time>2021-07-23T08:37:48.285Z</time>
      </trkpt>
      <trkpt lat="45.58708" lon="6.88468">
        <ele>1075.4</ele>
        <time>2021-07-23T08:37:49.285Z</time>
      </trkpt>
      <trkpt lat="45.58705" lon="6.88467">
        <ele>1075.4</ele>
        <time>2021-07-23T08:37:50.285Z</time>
      </trkpt>
      <trkpt lat="45.58703" lon="6.88467">
        <ele>1075.4</ele>
        <time>2021-07-23T08:37:51.285Z</time>
      </trkpt>
      <trkpt lat="45.587" lon="6.88465">
        <ele>1075.4</ele>
        <time>2021-07-23T08:37:52.285Z</time>
      </trkpt>
      <trkpt lat="45.58697" lon="6.88464">
        <ele>1075.4</ele>
        <time>2021-07-23T08:37:53.285Z</time>
      </trkpt>
      <trkpt lat="45.58695" lon="6.88463">
        <ele>1075.8</ele>
        <time>2021-07-23T08:37:54.285Z</time>
      </trkpt>
      <trkpt lat="45.58692" lon="6.88461">
        <ele>1076.2</ele>
        <time>2021-07-23T08:37:55.285Z</time>
      </trkpt>
      <trkpt lat="45.58689" lon="6.8846">
        <ele>1076.6</ele>
        <time>2021-07-23T08:37:56.285Z</time>
      </trkpt>
      <trkpt lat="45.58686" lon="6.88459">
        <ele>1077</ele>
        <time>2021-07-23T08:37:57.285Z</time>
      </trkpt>
      <trkpt lat="45.58683" lon="6.88459">
        <ele>1077.6</ele>
        <time>2021-07-23T08:37:58.285Z</time>
      </trkpt>
      <trkpt lat="45.5868" lon="6.88457">
        <ele>1077.6</ele>
        <time>2021-07-23T08:37:59.285Z</time>
      </trkpt>
      <trkpt lat="45.58678" lon="6.88456">
        <ele>1077.6</ele>
        <time>2021-07-23T08:38:00.285Z</time>
      </trkpt>
      <trkpt lat="45.58675" lon="6.88455">
        <ele>1077.6</ele>
        <time>2021-07-23T08:38:01.285Z</time>
      </trkpt>
      <trkpt lat="45.58673" lon="6.88453">
        <ele>1077.6</ele>
        <time>2021-07-23T08:38:02.285Z</time>
      </trkpt>
      <trkpt lat="45.5867" lon="6.88452">
        <ele>1078</ele>
        <time>2021-07-23T08:38:03.285Z</time>
      </trkpt>
      <trkpt lat="45.58667" lon="6.88451">
        <ele>1078.4</ele>
        <time>2021-07-23T08:38:04.285Z</time>
      </trkpt>
      <trkpt lat="45.58665" lon="6.88449">
        <ele>1078.8</ele>
        <time>2021-07-23T08:38:05.285Z</time>
      </trkpt>
      <trkpt lat="45.58662" lon="6.88448">
        <ele>1079.2</ele>
        <time>2021-07-23T08:38:06.285Z</time>
      </trkpt>
      <trkpt lat="45.58659" lon="6.88446">
        <ele>1079.6</ele>
        <time>2021-07-23T08:38:07.285Z</time>
      </trkpt>
      <trkpt lat="45.58657" lon="6.88445">
        <ele>1079.6</ele>
        <time>2021-07-23T08:38:08.285Z</time>
      </trkpt>
      <trkpt lat="45.58655" lon="6.88444">
        <ele>1079.6</ele>
        <time>2021-07-23T08:38:09.285Z</time>
      </trkpt>
      <trkpt lat="45.58653" lon="6.88442">
        <ele>1079.6</ele>
        <time>2021-07-23T08:38:10.285Z</time>
      </trkpt>
      <trkpt lat="45.5865" lon="6.88441">
        <ele>1080.2</ele>
        <time>2021-07-23T08:38:11.285Z</time>
      </trkpt>
      <trkpt lat="45.58648" lon="6.8844">
        <ele>1080.6</ele>
        <time>2021-07-23T08:38:12.285Z</time>
      </trkpt>
      <trkpt lat="45.58645" lon="6.88439">
        <ele>1081</ele>
        <time>2021-07-23T08:38:13.285Z</time>
      </trkpt>
      <trkpt lat="45.58642" lon="6.88439">
        <ele>1081.4</ele>
        <time>2021-07-23T08:38:14.285Z</time>
      </trkpt>
      <trkpt lat="45.5864" lon="6.88438">
        <ele>1082</ele>
        <time>2021-07-23T08:38:15.285Z</time>
      </trkpt>
      <trkpt lat="45.58637" lon="6.88437">
        <ele>1082</ele>
        <time>2021-07-23T08:38:16.285Z</time>
      </trkpt>
      <trkpt lat="45.58634" lon="6.88437">
        <ele>1082</ele>
        <time>2021-07-23T08:38:17.285Z</time>
      </trkpt>
      <trkpt lat="45.58632" lon="6.88436">
        <ele>1082</ele>
        <time>2021-07-23T08:38:18.285Z</time>
      </trkpt>
      <trkpt lat="45.58629" lon="6.88436">
        <ele>1082</ele>
        <time>2021-07-23T08:38:19.285Z</time>
      </trkpt>
      <trkpt lat="45.58627" lon="6.88436">
        <ele>1082.4</ele>
        <time>2021-07-23T08:38:20.285Z</time>
      </trkpt>
      <trkpt lat="45.58624" lon="6.88437">
        <ele>1082.8</ele>
        <time>2021-07-23T08:38:21.285Z</time>
      </trkpt>
      <trkpt lat="45.58621" lon="6.88437">
        <ele>1083.2</ele>
        <time>2021-07-23T08:38:22.285Z</time>
      </trkpt>
      <trkpt lat="45.58618" lon="6.88436">
        <ele>1083.6</ele>
        <time>2021-07-23T08:38:23.285Z</time>
      </trkpt>
      <trkpt lat="45.58616" lon="6.88436">
        <ele>1084</ele>
        <time>2021-07-23T08:38:24.285Z</time>
      </trkpt>
      <trkpt lat="45.58613" lon="6.88436">
        <ele>1084</ele>
        <time>2021-07-23T08:38:25.285Z</time>
      </trkpt>
      <trkpt lat="45.5861" lon="6.88437">
        <ele>1084</ele>
        <time>2021-07-23T08:38:26.285Z</time>
      </trkpt>
      <trkpt lat="45.58607" lon="6.88439">
        <ele>1084</ele>
        <time>2021-07-23T08:38:27.285Z</time>
      </trkpt>
      <trkpt lat="45.58604" lon="6.8844">
        <ele>1084</ele>
        <time>2021-07-23T08:38:28.285Z</time>
      </trkpt>
      <trkpt lat="45.58602" lon="6.88441">
        <ele>1084</ele>
        <time>2021-07-23T08:38:29.285Z</time>
      </trkpt>
      <trkpt lat="45.58599" lon="6.88443">
        <ele>1084</ele>
        <time>2021-07-23T08:38:30.285Z</time>
      </trkpt>
      <trkpt lat="45.58597" lon="6.88445">
        <ele>1084</ele>
        <time>2021-07-23T08:38:31.285Z</time>
      </trkpt>
      <trkpt lat="45.58595" lon="6.88447">
        <ele>1084</ele>
        <time>2021-07-23T08:38:32.285Z</time>
      </trkpt>
      <trkpt lat="45.58592" lon="6.8845">
        <ele>1084.6</ele>
        <time>2021-07-23T08:38:33.285Z</time>
      </trkpt>
      <trkpt lat="45.5859" lon="6.88452">
        <ele>1085</ele>
        <time>2021-07-23T08:38:34.285Z</time>
      </trkpt>
      <trkpt lat="45.58587" lon="6.88454">
        <ele>1085.6</ele>
        <time>2021-07-23T08:38:35.285Z</time>
      </trkpt>
      <trkpt lat="45.58585" lon="6.88457">
        <ele>1086</ele>
        <time>2021-07-23T08:38:36.285Z</time>
      </trkpt>
      <trkpt lat="45.58582" lon="6.88459">
        <ele>1086.6</ele>
        <time>2021-07-23T08:38:37.285Z</time>
      </trkpt>
      <trkpt lat="45.5858" lon="6.8846">
        <ele>1086.6</ele>
        <time>2021-07-23T08:38:38.285Z</time>
      </trkpt>
      <trkpt lat="45.58578" lon="6.88462">
        <ele>1086.6</ele>
        <time>2021-07-23T08:38:39.285Z</time>
      </trkpt>
      <trkpt lat="45.58575" lon="6.88464">
        <ele>1086.6</ele>
        <time>2021-07-23T08:38:40.285Z</time>
      </trkpt>
      <trkpt lat="45.58573" lon="6.88467">
        <ele>1086.6</ele>
        <time>2021-07-23T08:38:41.285Z</time>
      </trkpt>
      <trkpt lat="45.5857" lon="6.88469">
        <ele>1086.6</ele>
        <time>2021-07-23T08:38:42.285Z</time>
      </trkpt>
      <trkpt lat="45.58568" lon="6.88471">
        <ele>1086.6</ele>
        <time>2021-07-23T08:38:43.285Z</time>
      </trkpt>
      <trkpt lat="45.58566" lon="6.88473">
        <ele>1086.6</ele>
        <time>2021-07-23T08:38:44.285Z</time>
      </trkpt>
      <trkpt lat="45.58564" lon="6.88475">
        <ele>1086.6</ele>
        <time>2021-07-23T08:38:45.285Z</time>
      </trkpt>
      <trkpt lat="45.58561" lon="6.88478">
        <ele>1087</ele>
        <time>2021-07-23T08:38:46.285Z</time>
      </trkpt>
      <trkpt lat="45.58559" lon="6.88479">
        <ele>1087.4</ele>
        <time>2021-07-23T08:38:47.285Z</time>
      </trkpt>
      <trkpt lat="45.58556" lon="6.88481">
        <ele>1087.8</ele>
        <time>2021-07-23T08:38:48.285Z</time>
      </trkpt>
      <trkpt lat="45.58554" lon="6.88483">
        <ele>1088.2</ele>
        <time>2021-07-23T08:38:49.285Z</time>
      </trkpt>
      <trkpt lat="45.58552" lon="6.88485">
        <ele>1088.8</ele>
        <time>2021-07-23T08:38:50.285Z</time>
      </trkpt>
      <trkpt lat="45.58549" lon="6.88487">
        <ele>1088.8</ele>
        <time>2021-07-23T08:38:51.285Z</time>
      </trkpt>
      <trkpt lat="45.58547" lon="6.88489">
        <ele>1088.8</ele>
        <time>2021-07-23T08:38:52.285Z</time>
      </trkpt>
      <trkpt lat="45.58545" lon="6.88491">
        <ele>1088.8</ele>
        <time>2021-07-23T08:38:53.285Z</time>
      </trkpt>
      <trkpt lat="45.58542" lon="6.88493">
        <ele>1088.8</ele>
        <time>2021-07-23T08:38:54.285Z</time>
      </trkpt>
      <trkpt lat="45.5854" lon="6.88494">
        <ele>1088.8</ele>
        <time>2021-07-23T08:38:55.285Z</time>
      </trkpt>
      <trkpt lat="45.58538" lon="6.88496">
        <ele>1088.8</ele>
        <time>2021-07-23T08:38:56.285Z</time>
      </trkpt>
      <trkpt lat="45.58534" lon="6.88498">
        <ele>1089.2</ele>
        <time>2021-07-23T08:38:57.285Z</time>
      </trkpt>
      <trkpt lat="45.58532" lon="6.885">
        <ele>1089.6</ele>
        <time>2021-07-23T08:38:58.285Z</time>
      </trkpt>
      <trkpt lat="45.5853" lon="6.88502">
        <ele>1090</ele>
        <time>2021-07-23T08:38:59.285Z</time>
      </trkpt>
      <trkpt lat="45.58527" lon="6.88503">
        <ele>1090.4</ele>
        <time>2021-07-23T08:39:00.285Z</time>
      </trkpt>
      <trkpt lat="45.58525" lon="6.88504">
        <ele>1090.8</ele>
        <time>2021-07-23T08:39:01.285Z</time>
      </trkpt>
      <trkpt lat="45.58522" lon="6.88506">
        <ele>1090.8</ele>
        <time>2021-07-23T08:39:02.285Z</time>
      </trkpt>
      <trkpt lat="45.58519" lon="6.88506">
        <ele>1090.8</ele>
        <time>2021-07-23T08:39:03.285Z</time>
      </trkpt>
      <trkpt lat="45.58517" lon="6.88507">
        <ele>1090.8</ele>
        <time>2021-07-23T08:39:04.285Z</time>
      </trkpt>
      <trkpt lat="45.58514" lon="6.88508">
        <ele>1090.8</ele>
        <time>2021-07-23T08:39:05.285Z</time>
      </trkpt>
      <trkpt lat="45.58512" lon="6.88508">
        <ele>1091.2</ele>
        <time>2021-07-23T08:39:06.285Z</time>
      </trkpt>
      <trkpt lat="45.58509" lon="6.88507">
        <ele>1091.6</ele>
        <time>2021-07-23T08:39:07.285Z</time>
      </trkpt>
      <trkpt lat="45.58506" lon="6.88507">
        <ele>1092</ele>
        <time>2021-07-23T08:39:08.285Z</time>
      </trkpt>
      <trkpt lat="45.58504" lon="6.88507">
        <ele>1092.4</ele>
        <time>2021-07-23T08:39:09.285Z</time>
      </trkpt>
      <trkpt lat="45.58501" lon="6.88506">
        <ele>1092.8</ele>
        <time>2021-07-23T08:39:10.285Z</time>
      </trkpt>
      <trkpt lat="45.58499" lon="6.88505">
        <ele>1092.8</ele>
        <time>2021-07-23T08:39:11.285Z</time>
      </trkpt>
      <trkpt lat="45.58496" lon="6.88504">
        <ele>1092.8</ele>
        <time>2021-07-23T08:39:12.285Z</time>
      </trkpt>
      <trkpt lat="45.58494" lon="6.88503">
        <ele>1092.8</ele>
        <time>2021-07-23T08:39:13.285Z</time>
      </trkpt>
      <trkpt lat="45.58491" lon="6.88502">
        <ele>1092.8</ele>
        <time>2021-07-23T08:39:14.285Z</time>
      </trkpt>
      <trkpt lat="45.58488" lon="6.885">
        <ele>1093.2</ele>
        <time>2021-07-23T08:39:15.285Z</time>
      </trkpt>
      <trkpt lat="45.58485" lon="6.88499">
        <ele>1093.6</ele>
        <time>2021-07-23T08:39:16.285Z</time>
      </trkpt>
      <trkpt lat="45.58483" lon="6.88498">
        <ele>1094.2</ele>
        <time>2021-07-23T08:39:17.285Z</time>
      </trkpt>
      <trkpt lat="45.5848" lon="6.88497">
        <ele>1094.6</ele>
        <time>2021-07-23T08:39:18.285Z</time>
      </trkpt>
      <trkpt lat="45.58477" lon="6.88496">
        <ele>1095</ele>
        <time>2021-07-23T08:39:19.285Z</time>
      </trkpt>
      <trkpt lat="45.58475" lon="6.88495">
        <ele>1095</ele>
        <time>2021-07-23T08:39:20.285Z</time>
      </trkpt>
      <trkpt lat="45.58472" lon="6.88495">
        <ele>1095</ele>
        <time>2021-07-23T08:39:21.285Z</time>
      </trkpt>
      <trkpt lat="45.58469" lon="6.88494">
        <ele>1095</ele>
        <time>2021-07-23T08:39:22.285Z</time>
      </trkpt>
      <trkpt lat="45.58467" lon="6.88493">
        <ele>1095</ele>
        <time>2021-07-23T08:39:23.285Z</time>
      </trkpt>
      <trkpt lat="45.58464" lon="6.88492">
        <ele>1095.4</ele>
        <time>2021-07-23T08:39:24.285Z</time>
      </trkpt>
      <trkpt lat="45.58461" lon="6.88492">
        <ele>1095.8</ele>
        <time>2021-07-23T08:39:25.285Z</time>
      </trkpt>
      <trkpt lat="45.58459" lon="6.88491">
        <ele>1096.2</ele>
        <time>2021-07-23T08:39:26.285Z</time>
      </trkpt>
      <trkpt lat="45.58456" lon="6.88491">
        <ele>1096.6</ele>
        <time>2021-07-23T08:39:27.285Z</time>
      </trkpt>
      <trkpt lat="45.58453" lon="6.88491">
        <ele>1097</ele>
        <time>2021-07-23T08:39:28.285Z</time>
      </trkpt>
      <trkpt lat="45.58451" lon="6.88491">
        <ele>1097</ele>
        <time>2021-07-23T08:39:29.285Z</time>
      </trkpt>
      <trkpt lat="45.58448" lon="6.88491">
        <ele>1097</ele>
        <time>2021-07-23T08:39:30.285Z</time>
      </trkpt>
      <trkpt lat="45.58446" lon="6.88491">
        <ele>1097</ele>
        <time>2021-07-23T08:39:31.285Z</time>
      </trkpt>
      <trkpt lat="45.58443" lon="6.88491">
        <ele>1097.6</ele>
        <time>2021-07-23T08:39:32.285Z</time>
      </trkpt>
      <trkpt lat="45.5844" lon="6.88492">
        <ele>1098</ele>
        <time>2021-07-23T08:39:33.285Z</time>
      </trkpt>
      <trkpt lat="45.58437" lon="6.88492">
        <ele>1098.4</ele>
        <time>2021-07-23T08:39:34.285Z</time>
      </trkpt>
      <trkpt lat="45.58435" lon="6.88492">
        <ele>1098.8</ele>
        <time>2021-07-23T08:39:35.285Z</time>
      </trkpt>
      <trkpt lat="45.58432" lon="6.88492">
        <ele>1099.2</ele>
        <time>2021-07-23T08:39:36.285Z</time>
      </trkpt>
      <trkpt lat="45.58429" lon="6.88492">
        <ele>1099.2</ele>
        <time>2021-07-23T08:39:37.285Z</time>
      </trkpt>
      <trkpt lat="45.58427" lon="6.88493">
        <ele>1099.2</ele>
        <time>2021-07-23T08:39:38.285Z</time>
      </trkpt>
      <trkpt lat="45.58424" lon="6.88492">
        <ele>1099.2</ele>
        <time>2021-07-23T08:39:39.285Z</time>
      </trkpt>
      <trkpt lat="45.58421" lon="6.88493">
        <ele>1099.2</ele>
        <time>2021-07-23T08:39:40.285Z</time>
      </trkpt>
      <trkpt lat="45.58418" lon="6.88493">
        <ele>1099.2</ele>
        <time>2021-07-23T08:39:41.285Z</time>
      </trkpt>
      <trkpt lat="45.58415" lon="6.88494">
        <ele>1099.8</ele>
        <time>2021-07-23T08:39:42.285Z</time>
      </trkpt>
      <trkpt lat="45.58412" lon="6.88494">
        <ele>1100.2</ele>
        <time>2021-07-23T08:39:43.285Z</time>
      </trkpt>
      <trkpt lat="45.5841" lon="6.88493">
        <ele>1100.8</ele>
        <time>2021-07-23T08:39:44.285Z</time>
      </trkpt>
      <trkpt lat="45.58407" lon="6.88494">
        <ele>1101.2</ele>
        <time>2021-07-23T08:39:45.285Z</time>
      </trkpt>
      <trkpt lat="45.58405" lon="6.88494">
        <ele>1101.8</ele>
        <time>2021-07-23T08:39:46.285Z</time>
      </trkpt>
      <trkpt lat="45.58402" lon="6.88494">
        <ele>1101.8</ele>
        <time>2021-07-23T08:39:47.285Z</time>
      </trkpt>
      <trkpt lat="45.58399" lon="6.88494">
        <ele>1101.8</ele>
        <time>2021-07-23T08:39:48.285Z</time>
      </trkpt>
      <trkpt lat="45.58397" lon="6.88493">
        <ele>1101.8</ele>
        <time>2021-07-23T08:39:49.285Z</time>
      </trkpt>
      <trkpt lat="45.58394" lon="6.88493">
        <ele>1101.8</ele>
        <time>2021-07-23T08:39:50.285Z</time>
      </trkpt>
      <trkpt lat="45.58391" lon="6.88492">
        <ele>1101.8</ele>
        <time>2021-07-23T08:39:51.285Z</time>
      </trkpt>
      <trkpt lat="45.58389" lon="6.88491">
        <ele>1102.2</ele>
        <time>2021-07-23T08:39:52.285Z</time>
      </trkpt>
      <trkpt lat="45.58387" lon="6.88489">
        <ele>1102.6</ele>
        <time>2021-07-23T08:39:53.285Z</time>
      </trkpt>
      <trkpt lat="45.58384" lon="6.88487">
        <ele>1103</ele>
        <time>2021-07-23T08:39:54.285Z</time>
      </trkpt>
      <trkpt lat="45.58381" lon="6.88486">
        <ele>1103.8</ele>
        <time>2021-07-23T08:39:55.285Z</time>
      </trkpt>
      <trkpt lat="45.58379" lon="6.88484">
        <ele>1103.8</ele>
        <time>2021-07-23T08:39:56.285Z</time>
      </trkpt>
      <trkpt lat="45.58376" lon="6.88483">
        <ele>1103.8</ele>
        <time>2021-07-23T08:39:57.285Z</time>
      </trkpt>
      <trkpt lat="45.58373" lon="6.88482">
        <ele>1104.2</ele>
        <time>2021-07-23T08:39:58.285Z</time>
      </trkpt>
      <trkpt lat="45.58371" lon="6.8848">
        <ele>1104.6</ele>
        <time>2021-07-23T08:39:59.285Z</time>
      </trkpt>
      <trkpt lat="45.58368" lon="6.88479">
        <ele>1105</ele>
        <time>2021-07-23T08:40:00.285Z</time>
      </trkpt>
      <trkpt lat="45.58366" lon="6.88478">
        <ele>1105.6</ele>
        <time>2021-07-23T08:40:01.285Z</time>
      </trkpt>
      <trkpt lat="45.58363" lon="6.88477">
        <ele>1106</ele>
        <time>2021-07-23T08:40:02.285Z</time>
      </trkpt>
      <trkpt lat="45.58361" lon="6.88477">
        <ele>1106</ele>
        <time>2021-07-23T08:40:03.285Z</time>
      </trkpt>
      <trkpt lat="45.58358" lon="6.88477">
        <ele>1106</ele>
        <time>2021-07-23T08:40:04.285Z</time>
      </trkpt>
      <trkpt lat="45.58356" lon="6.88477">
        <ele>1106</ele>
        <time>2021-07-23T08:40:05.285Z</time>
      </trkpt>
      <trkpt lat="45.58353" lon="6.88475">
        <ele>1106.4</ele>
        <time>2021-07-23T08:40:06.285Z</time>
      </trkpt>
      <trkpt lat="45.5835" lon="6.88475">
        <ele>1106.8</ele>
        <time>2021-07-23T08:40:07.285Z</time>
      </trkpt>
      <trkpt lat="45.58348" lon="6.88474">
        <ele>1107.2</ele>
        <time>2021-07-23T08:40:08.285Z</time>
      </trkpt>
      <trkpt lat="45.58345" lon="6.88472">
        <ele>1107.6</ele>
        <time>2021-07-23T08:40:09.285Z</time>
      </trkpt>
      <trkpt lat="45.58342" lon="6.88471">
        <ele>1108</ele>
        <time>2021-07-23T08:40:10.285Z</time>
      </trkpt>
      <trkpt lat="45.5834" lon="6.88469">
        <ele>1108</ele>
        <time>2021-07-23T08:40:11.285Z</time>
      </trkpt>
      <trkpt lat="45.58337" lon="6.88468">
        <ele>1108</ele>
        <time>2021-07-23T08:40:12.285Z</time>
      </trkpt>
      <trkpt lat="45.58335" lon="6.88466">
        <ele>1108</ele>
        <time>2021-07-23T08:40:13.285Z</time>
      </trkpt>
      <trkpt lat="45.58333" lon="6.88464">
        <ele>1108</ele>
        <time>2021-07-23T08:40:14.285Z</time>
      </trkpt>
      <trkpt lat="45.5833" lon="6.88461">
        <ele>1108.4</ele>
        <time>2021-07-23T08:40:15.285Z</time>
      </trkpt>
      <trkpt lat="45.58328" lon="6.88459">
        <ele>1108.8</ele>
        <time>2021-07-23T08:40:16.285Z</time>
      </trkpt>
      <trkpt lat="45.58326" lon="6.88456">
        <ele>1109.4</ele>
        <time>2021-07-23T08:40:17.285Z</time>
      </trkpt>
      <trkpt lat="45.58324" lon="6.88454">
        <ele>1109.8</ele>
        <time>2021-07-23T08:40:18.285Z</time>
      </trkpt>
      <trkpt lat="45.58322" lon="6.8845">
        <ele>1110.2</ele>
        <time>2021-07-23T08:40:19.285Z</time>
      </trkpt>
      <trkpt lat="45.5832" lon="6.88447">
        <ele>1110.2</ele>
        <time>2021-07-23T08:40:20.285Z</time>
      </trkpt>
      <trkpt lat="45.58318" lon="6.88445">
        <ele>1110.6</ele>
        <time>2021-07-23T08:40:21.285Z</time>
      </trkpt>
      <trkpt lat="45.58316" lon="6.88442">
        <ele>1111</ele>
        <time>2021-07-23T08:40:22.285Z</time>
      </trkpt>
      <trkpt lat="45.58315" lon="6.8844">
        <ele>1111.4</ele>
        <time>2021-07-23T08:40:23.285Z</time>
      </trkpt>
      <trkpt lat="45.58313" lon="6.88438">
        <ele>1111.8</ele>
        <time>2021-07-23T08:40:24.285Z</time>
      </trkpt>
      <trkpt lat="45.58312" lon="6.88435">
        <ele>1112.2</ele>
        <time>2021-07-23T08:40:25.285Z</time>
      </trkpt>
      <trkpt lat="45.5831" lon="6.88432">
        <ele>1112.2</ele>
        <time>2021-07-23T08:40:26.285Z</time>
      </trkpt>
      <trkpt lat="45.58308" lon="6.8843">
        <ele>1112.2</ele>
        <time>2021-07-23T08:40:27.285Z</time>
      </trkpt>
      <trkpt lat="45.58307" lon="6.88426">
        <ele>1112.8</ele>
        <time>2021-07-23T08:40:28.285Z</time>
      </trkpt>
      <trkpt lat="45.58306" lon="6.88424">
        <ele>1113.2</ele>
        <time>2021-07-23T08:40:29.285Z</time>
      </trkpt>
      <trkpt lat="45.58304" lon="6.88422">
        <ele>1113.8</ele>
        <time>2021-07-23T08:40:30.285Z</time>
      </trkpt>
      <trkpt lat="45.58302" lon="6.8842">
        <ele>1114.2</ele>
        <time>2021-07-23T08:40:31.285Z</time>
      </trkpt>
      <trkpt lat="45.583" lon="6.88418">
        <ele>1114.8</ele>
        <time>2021-07-23T08:40:32.285Z</time>
      </trkpt>
      <trkpt lat="45.58298" lon="6.88416">
        <ele>1114.8</ele>
        <time>2021-07-23T08:40:33.285Z</time>
      </trkpt>
      <trkpt lat="45.58294" lon="6.88414">
        <ele>1114.8</ele>
        <time>2021-07-23T08:40:34.285Z</time>
      </trkpt>
      <trkpt lat="45.58291" lon="6.88414">
        <ele>1114.8</ele>
        <time>2021-07-23T08:40:35.285Z</time>
      </trkpt>
      <trkpt lat="45.58288" lon="6.88414">
        <ele>1114.8</ele>
        <time>2021-07-23T08:40:36.285Z</time>
      </trkpt>
      <trkpt lat="45.58284" lon="6.88413">
        <ele>1114.8</ele>
        <time>2021-07-23T08:40:37.285Z</time>
      </trkpt>
      <trkpt lat="45.5828" lon="6.88413">
        <ele>1114.8</ele>
        <time>2021-07-23T08:40:38.285Z</time>
      </trkpt>
      <trkpt lat="45.58277" lon="6.88412">
        <ele>1114.8</ele>
        <time>2021-07-23T08:40:39.285Z</time>
      </trkpt>
      <trkpt lat="45.58273" lon="6.88412">
        <ele>1114.8</ele>
        <time>2021-07-23T08:40:40.285Z</time>
      </trkpt>
      <trkpt lat="45.5827" lon="6.88412">
        <ele>1115.2</ele>
        <time>2021-07-23T08:40:41.285Z</time>
      </trkpt>
      <trkpt lat="45.58267" lon="6.88412">
        <ele>1115.6</ele>
        <time>2021-07-23T08:40:42.285Z</time>
      </trkpt>
      <trkpt lat="45.58264" lon="6.88412">
        <ele>1116</ele>
        <time>2021-07-23T08:40:43.285Z</time>
      </trkpt>
      <trkpt lat="45.58262" lon="6.88411">
        <ele>1116.4</ele>
        <time>2021-07-23T08:40:44.285Z</time>
      </trkpt>
      <trkpt lat="45.58259" lon="6.88411">
        <ele>1116.8</ele>
        <time>2021-07-23T08:40:45.285Z</time>
      </trkpt>
      <trkpt lat="45.58257" lon="6.8841">
        <ele>1116.8</ele>
        <time>2021-07-23T08:40:46.285Z</time>
      </trkpt>
      <trkpt lat="45.58254" lon="6.8841">
        <ele>1116.8</ele>
        <time>2021-07-23T08:40:47.285Z</time>
      </trkpt>
      <trkpt lat="45.58251" lon="6.88411">
        <ele>1116.8</ele>
        <time>2021-07-23T08:40:48.285Z</time>
      </trkpt>
      <trkpt lat="45.58248" lon="6.88411">
        <ele>1117.2</ele>
        <time>2021-07-23T08:40:49.285Z</time>
      </trkpt>
      <trkpt lat="45.58246" lon="6.8841">
        <ele>1117.6</ele>
        <time>2021-07-23T08:40:50.285Z</time>
      </trkpt>
      <trkpt lat="45.58243" lon="6.88411">
        <ele>1118</ele>
        <time>2021-07-23T08:40:51.285Z</time>
      </trkpt>
      <trkpt lat="45.58241" lon="6.88411">
        <ele>1118.4</ele>
        <time>2021-07-23T08:40:52.285Z</time>
      </trkpt>
      <trkpt lat="45.58238" lon="6.88412">
        <ele>1118.8</ele>
        <time>2021-07-23T08:40:53.285Z</time>
      </trkpt>
      <trkpt lat="45.58235" lon="6.88412">
        <ele>1118.8</ele>
        <time>2021-07-23T08:40:54.285Z</time>
      </trkpt>
      <trkpt lat="45.58232" lon="6.88413">
        <ele>1118.8</ele>
        <time>2021-07-23T08:40:55.285Z</time>
      </trkpt>
      <trkpt lat="45.5823" lon="6.88413">
        <ele>1118.8</ele>
        <time>2021-07-23T08:40:56.285Z</time>
      </trkpt>
      <trkpt lat="45.58227" lon="6.88413">
        <ele>1118.8</ele>
        <time>2021-07-23T08:40:57.285Z</time>
      </trkpt>
      <trkpt lat="45.58224" lon="6.88413">
        <ele>1118.8</ele>
        <time>2021-07-23T08:40:58.285Z</time>
      </trkpt>
      <trkpt lat="45.58221" lon="6.88413">
        <ele>1118.8</ele>
        <time>2021-07-23T08:40:59.285Z</time>
      </trkpt>
      <trkpt lat="45.58219" lon="6.88413">
        <ele>1118.8</ele>
        <time>2021-07-23T08:41:00.285Z</time>
      </trkpt>
      <trkpt lat="45.58216" lon="6.88413">
        <ele>1119.2</ele>
        <time>2021-07-23T08:41:01.285Z</time>
      </trkpt>
      <trkpt lat="45.58213" lon="6.88412">
        <ele>1119.6</ele>
        <time>2021-07-23T08:41:02.285Z</time>
      </trkpt>
      <trkpt lat="45.5821" lon="6.88412">
        <ele>1120</ele>
        <time>2021-07-23T08:41:03.285Z</time>
      </trkpt>
      <trkpt lat="45.58207" lon="6.88412">
        <ele>1120.4</ele>
        <time>2021-07-23T08:41:04.285Z</time>
      </trkpt>
      <trkpt lat="45.58204" lon="6.88412">
        <ele>1120.8</ele>
        <time>2021-07-23T08:41:05.285Z</time>
      </trkpt>
      <trkpt lat="45.58202" lon="6.88411">
        <ele>1120.8</ele>
        <time>2021-07-23T08:41:06.285Z</time>
      </trkpt>
      <trkpt lat="45.58199" lon="6.8841">
        <ele>1120.8</ele>
        <time>2021-07-23T08:41:07.285Z</time>
      </trkpt>
      <trkpt lat="45.58197" lon="6.8841">
        <ele>1120.8</ele>
        <time>2021-07-23T08:41:08.285Z</time>
      </trkpt>
      <trkpt lat="45.58195" lon="6.88408">
        <ele>1120.8</ele>
        <time>2021-07-23T08:41:09.285Z</time>
      </trkpt>
      <trkpt lat="45.58192" lon="6.88408">
        <ele>1121.4</ele>
        <time>2021-07-23T08:41:10.285Z</time>
      </trkpt>
      <trkpt lat="45.58189" lon="6.88407">
        <ele>1121.8</ele>
        <time>2021-07-23T08:41:11.285Z</time>
      </trkpt>
      <trkpt lat="45.58187" lon="6.88406">
        <ele>1122.2</ele>
        <time>2021-07-23T08:41:12.285Z</time>
      </trkpt>
      <trkpt lat="45.58184" lon="6.88405">
        <ele>1122.6</ele>
        <time>2021-07-23T08:41:13.285Z</time>
      </trkpt>
      <trkpt lat="45.58181" lon="6.88404">
        <ele>1123</ele>
        <time>2021-07-23T08:41:14.285Z</time>
      </trkpt>
      <trkpt lat="45.58179" lon="6.88403">
        <ele>1123</ele>
        <time>2021-07-23T08:41:15.285Z</time>
      </trkpt>
      <trkpt lat="45.58177" lon="6.88401">
        <ele>1123</ele>
        <time>2021-07-23T08:41:16.285Z</time>
      </trkpt>
      <trkpt lat="45.58173" lon="6.88399">
        <ele>1123</ele>
        <time>2021-07-23T08:41:17.285Z</time>
      </trkpt>
      <trkpt lat="45.58171" lon="6.88397">
        <ele>1123</ele>
        <time>2021-07-23T08:41:18.285Z</time>
      </trkpt>
      <trkpt lat="45.58168" lon="6.88396">
        <ele>1123</ele>
        <time>2021-07-23T08:41:19.285Z</time>
      </trkpt>
      <trkpt lat="45.58165" lon="6.88395">
        <ele>1123.6</ele>
        <time>2021-07-23T08:41:20.285Z</time>
      </trkpt>
      <trkpt lat="45.58163" lon="6.88393">
        <ele>1124</ele>
        <time>2021-07-23T08:41:21.285Z</time>
      </trkpt>
      <trkpt lat="45.5816" lon="6.88393">
        <ele>1124.4</ele>
        <time>2021-07-23T08:41:22.285Z</time>
      </trkpt>
      <trkpt lat="45.58158" lon="6.88391">
        <ele>1124.8</ele>
        <time>2021-07-23T08:41:23.285Z</time>
      </trkpt>
      <trkpt lat="45.58155" lon="6.8839">
        <ele>1125.4</ele>
        <time>2021-07-23T08:41:24.285Z</time>
      </trkpt>
      <trkpt lat="45.58153" lon="6.88388">
        <ele>1125.4</ele>
        <time>2021-07-23T08:41:25.285Z</time>
      </trkpt>
      <trkpt lat="45.5815" lon="6.88387">
        <ele>1125.4</ele>
        <time>2021-07-23T08:41:26.285Z</time>
      </trkpt>
      <trkpt lat="45.58148" lon="6.88386">
        <ele>1125.4</ele>
        <time>2021-07-23T08:41:27.285Z</time>
      </trkpt>
      <trkpt lat="45.58145" lon="6.88385">
        <ele>1125.4</ele>
        <time>2021-07-23T08:41:28.285Z</time>
      </trkpt>
      <trkpt lat="45.58142" lon="6.88384">
        <ele>1125.4</ele>
        <time>2021-07-23T08:41:29.285Z</time>
      </trkpt>
      <trkpt lat="45.5814" lon="6.88382">
        <ele>1125.8</ele>
        <time>2021-07-23T08:41:30.285Z</time>
      </trkpt>
      <trkpt lat="45.58137" lon="6.88381">
        <ele>1126.2</ele>
        <time>2021-07-23T08:41:31.285Z</time>
      </trkpt>
      <trkpt lat="45.58135" lon="6.8838">
        <ele>1126.6</ele>
        <time>2021-07-23T08:41:32.285Z</time>
      </trkpt>
      <trkpt lat="45.58132" lon="6.88379">
        <ele>1127.2</ele>
        <time>2021-07-23T08:41:33.285Z</time>
      </trkpt>
      <trkpt lat="45.58129" lon="6.88378">
        <ele>1127.6</ele>
        <time>2021-07-23T08:41:34.285Z</time>
      </trkpt>
      <trkpt lat="45.58126" lon="6.88377">
        <ele>1127.6</ele>
        <time>2021-07-23T08:41:35.285Z</time>
      </trkpt>
      <trkpt lat="45.58124" lon="6.88376">
        <ele>1127.6</ele>
        <time>2021-07-23T08:41:36.285Z</time>
      </trkpt>
      <trkpt lat="45.58121" lon="6.88375">
        <ele>1127.6</ele>
        <time>2021-07-23T08:41:37.285Z</time>
      </trkpt>
      <trkpt lat="45.58119" lon="6.88374">
        <ele>1128</ele>
        <time>2021-07-23T08:41:38.285Z</time>
      </trkpt>
      <trkpt lat="45.58116" lon="6.88374">
        <ele>1128.4</ele>
        <time>2021-07-23T08:41:39.285Z</time>
      </trkpt>
      <trkpt lat="45.58113" lon="6.88373">
        <ele>1128.8</ele>
        <time>2021-07-23T08:41:40.285Z</time>
      </trkpt>
      <trkpt lat="45.58111" lon="6.88372">
        <ele>1129.2</ele>
        <time>2021-07-23T08:41:41.285Z</time>
      </trkpt>
      <trkpt lat="45.58108" lon="6.88372">
        <ele>1129.6</ele>
        <time>2021-07-23T08:41:42.285Z</time>
      </trkpt>
      <trkpt lat="45.58105" lon="6.88372">
        <ele>1129.6</ele>
        <time>2021-07-23T08:41:43.285Z</time>
      </trkpt>
      <trkpt lat="45.58102" lon="6.88371">
        <ele>1129.6</ele>
        <time>2021-07-23T08:41:44.285Z</time>
      </trkpt>
      <trkpt lat="45.581" lon="6.8837">
        <ele>1129.6</ele>
        <time>2021-07-23T08:41:45.285Z</time>
      </trkpt>
      <trkpt lat="45.58097" lon="6.8837">
        <ele>1129.6</ele>
        <time>2021-07-23T08:41:46.285Z</time>
      </trkpt>
      <trkpt lat="45.58095" lon="6.8837">
        <ele>1129.6</ele>
        <time>2021-07-23T08:41:47.285Z</time>
      </trkpt>
      <trkpt lat="45.58093" lon="6.8837">
        <ele>1130</ele>
        <time>2021-07-23T08:41:48.285Z</time>
      </trkpt>
      <trkpt lat="45.5809" lon="6.8837">
        <ele>1130.4</ele>
        <time>2021-07-23T08:41:49.285Z</time>
      </trkpt>
      <trkpt lat="45.58087" lon="6.8837">
        <ele>1130.8</ele>
        <time>2021-07-23T08:41:50.285Z</time>
      </trkpt>
      <trkpt lat="45.58085" lon="6.8837">
        <ele>1131.2</ele>
        <time>2021-07-23T08:41:51.285Z</time>
      </trkpt>
      <trkpt lat="45.58082" lon="6.8837">
        <ele>1131.6</ele>
        <time>2021-07-23T08:41:52.285Z</time>
      </trkpt>
      <trkpt lat="45.5808" lon="6.8837">
        <ele>1131.6</ele>
        <time>2021-07-23T08:41:53.285Z</time>
      </trkpt>
      <trkpt lat="45.58077" lon="6.88369">
        <ele>1131.6</ele>
        <time>2021-07-23T08:41:54.285Z</time>
      </trkpt>
      <trkpt lat="45.58075" lon="6.8837">
        <ele>1131.6</ele>
        <time>2021-07-23T08:41:55.285Z</time>
      </trkpt>
      <trkpt lat="45.58073" lon="6.8837">
        <ele>1131.6</ele>
        <time>2021-07-23T08:41:56.285Z</time>
      </trkpt>
      <trkpt lat="45.58069" lon="6.88369">
        <ele>1131.6</ele>
        <time>2021-07-23T08:41:57.285Z</time>
      </trkpt>
      <trkpt lat="45.58067" lon="6.88369">
        <ele>1131.6</ele>
        <time>2021-07-23T08:41:58.285Z</time>
      </trkpt>
      <trkpt lat="45.58065" lon="6.88369">
        <ele>1132</ele>
        <time>2021-07-23T08:41:59.285Z</time>
      </trkpt>
      <trkpt lat="45.58062" lon="6.88369">
        <ele>1132.4</ele>
        <time>2021-07-23T08:42:00.285Z</time>
      </trkpt>
      <trkpt lat="45.5806" lon="6.88369">
        <ele>1132.8</ele>
        <time>2021-07-23T08:42:01.285Z</time>
      </trkpt>
      <trkpt lat="45.58058" lon="6.88369">
        <ele>1133.2</ele>
        <time>2021-07-23T08:42:02.285Z</time>
      </trkpt>
      <trkpt lat="45.58055" lon="6.88369">
        <ele>1133.6</ele>
        <time>2021-07-23T08:42:03.285Z</time>
      </trkpt>
      <trkpt lat="45.58052" lon="6.88369">
        <ele>1133.6</ele>
        <time>2021-07-23T08:42:04.285Z</time>
      </trkpt>
      <trkpt lat="45.58049" lon="6.88369">
        <ele>1133.6</ele>
        <time>2021-07-23T08:42:05.285Z</time>
      </trkpt>
      <trkpt lat="45.58046" lon="6.8837">
        <ele>1133.6</ele>
        <time>2021-07-23T08:42:06.285Z</time>
      </trkpt>
      <trkpt lat="45.58044" lon="6.8837">
        <ele>1133.6</ele>
        <time>2021-07-23T08:42:07.285Z</time>
      </trkpt>
      <trkpt lat="45.58041" lon="6.8837">
        <ele>1133.6</ele>
        <time>2021-07-23T08:42:08.285Z</time>
      </trkpt>
      <trkpt lat="45.58038" lon="6.8837">
        <ele>1134</ele>
        <time>2021-07-23T08:42:09.285Z</time>
      </trkpt>
      <trkpt lat="45.58036" lon="6.8837">
        <ele>1134.4</ele>
        <time>2021-07-23T08:42:10.285Z</time>
      </trkpt>
      <trkpt lat="45.58034" lon="6.8837">
        <ele>1134.8</ele>
        <time>2021-07-23T08:42:11.285Z</time>
      </trkpt>
      <trkpt lat="45.58031" lon="6.88371">
        <ele>1135.2</ele>
        <time>2021-07-23T08:42:12.285Z</time>
      </trkpt>
      <trkpt lat="45.58029" lon="6.88371">
        <ele>1135.6</ele>
        <time>2021-07-23T08:42:13.285Z</time>
      </trkpt>
      <trkpt lat="45.58027" lon="6.88372">
        <ele>1135.6</ele>
        <time>2021-07-23T08:42:14.285Z</time>
      </trkpt>
      <trkpt lat="45.58025" lon="6.88372">
        <ele>1135.6</ele>
        <time>2021-07-23T08:42:15.285Z</time>
      </trkpt>
      <trkpt lat="45.58023" lon="6.88373">
        <ele>1135.6</ele>
        <time>2021-07-23T08:42:16.285Z</time>
      </trkpt>
      <trkpt lat="45.5802" lon="6.88373">
        <ele>1135.6</ele>
        <time>2021-07-23T08:42:17.285Z</time>
      </trkpt>
      <trkpt lat="45.58018" lon="6.88374">
        <ele>1135.6</ele>
        <time>2021-07-23T08:42:18.285Z</time>
      </trkpt>
      <trkpt lat="45.58016" lon="6.88375">
        <ele>1135.6</ele>
        <time>2021-07-23T08:42:19.285Z</time>
      </trkpt>
      <trkpt lat="45.58012" lon="6.88376">
        <ele>1136.2</ele>
        <time>2021-07-23T08:42:20.285Z</time>
      </trkpt>
      <trkpt lat="45.58009" lon="6.88378">
        <ele>1136.6</ele>
        <time>2021-07-23T08:42:21.285Z</time>
      </trkpt>
      <trkpt lat="45.58006" lon="6.88379">
        <ele>1137</ele>
        <time>2021-07-23T08:42:22.285Z</time>
      </trkpt>
      <trkpt lat="45.58004" lon="6.8838">
        <ele>1137.4</ele>
        <time>2021-07-23T08:42:23.285Z</time>
      </trkpt>
      <trkpt lat="45.58" lon="6.88381">
        <ele>1137.8</ele>
        <time>2021-07-23T08:42:24.285Z</time>
      </trkpt>
      <trkpt lat="45.57997" lon="6.88383">
        <ele>1137.8</ele>
        <time>2021-07-23T08:42:25.285Z</time>
      </trkpt>
      <trkpt lat="45.57994" lon="6.88384">
        <ele>1137.8</ele>
        <time>2021-07-23T08:42:26.285Z</time>
      </trkpt>
      <trkpt lat="45.5799" lon="6.88385">
        <ele>1137.8</ele>
        <time>2021-07-23T08:42:27.285Z</time>
      </trkpt>
      <trkpt lat="45.57987" lon="6.88385">
        <ele>1137.8</ele>
        <time>2021-07-23T08:42:28.285Z</time>
      </trkpt>
      <trkpt lat="45.57984" lon="6.88385">
        <ele>1137.8</ele>
        <time>2021-07-23T08:42:29.285Z</time>
      </trkpt>
      <trkpt lat="45.57981" lon="6.88385">
        <ele>1137.8</ele>
        <time>2021-07-23T08:42:30.285Z</time>
      </trkpt>
      <trkpt lat="45.57979" lon="6.88384">
        <ele>1138.2</ele>
        <time>2021-07-23T08:42:31.285Z</time>
      </trkpt>
      <trkpt lat="45.57976" lon="6.88383">
        <ele>1138.6</ele>
        <time>2021-07-23T08:42:32.285Z</time>
      </trkpt>
      <trkpt lat="45.57973" lon="6.88381">
        <ele>1139</ele>
        <time>2021-07-23T08:42:33.285Z</time>
      </trkpt>
      <trkpt lat="45.5797" lon="6.8838">
        <ele>1139.4</ele>
        <time>2021-07-23T08:42:34.285Z</time>
      </trkpt>
      <trkpt lat="45.57968" lon="6.88377">
        <ele>1139.8</ele>
        <time>2021-07-23T08:42:35.285Z</time>
      </trkpt>
      <trkpt lat="45.57965" lon="6.88375">
        <ele>1139.8</ele>
        <time>2021-07-23T08:42:36.285Z</time>
      </trkpt>
      <trkpt lat="45.57962" lon="6.88374">
        <ele>1139.8</ele>
        <time>2021-07-23T08:42:37.285Z</time>
      </trkpt>
      <trkpt lat="45.57959" lon="6.88372">
        <ele>1139.8</ele>
        <time>2021-07-23T08:42:38.285Z</time>
      </trkpt>
      <trkpt lat="45.57957" lon="6.88371">
        <ele>1139.8</ele>
        <time>2021-07-23T08:42:39.285Z</time>
      </trkpt>
      <trkpt lat="45.57954" lon="6.88369">
        <ele>1139.8</ele>
        <time>2021-07-23T08:42:40.285Z</time>
      </trkpt>
      <trkpt lat="45.57952" lon="6.88367">
        <ele>1139.8</ele>
        <time>2021-07-23T08:42:41.285Z</time>
      </trkpt>
      <trkpt lat="45.57949" lon="6.88364">
        <ele>1139.8</ele>
        <time>2021-07-23T08:42:42.285Z</time>
      </trkpt>
      <trkpt lat="45.57947" lon="6.88361">
        <ele>1140.2</ele>
        <time>2021-07-23T08:42:43.285Z</time>
      </trkpt>
      <trkpt lat="45.57944" lon="6.88358">
        <ele>1140.6</ele>
        <time>2021-07-23T08:42:44.285Z</time>
      </trkpt>
      <trkpt lat="45.57942" lon="6.88354">
        <ele>1141.2</ele>
        <time>2021-07-23T08:42:45.285Z</time>
      </trkpt>
      <trkpt lat="45.57939" lon="6.88351">
        <ele>1141.6</ele>
        <time>2021-07-23T08:42:46.285Z</time>
      </trkpt>
      <trkpt lat="45.57937" lon="6.88349">
        <ele>1142</ele>
        <time>2021-07-23T08:42:47.285Z</time>
      </trkpt>
      <trkpt lat="45.57934" lon="6.88346">
        <ele>1142</ele>
        <time>2021-07-23T08:42:48.285Z</time>
      </trkpt>
      <trkpt lat="45.57932" lon="6.88343">
        <ele>1142</ele>
        <time>2021-07-23T08:42:49.285Z</time>
      </trkpt>
      <trkpt lat="45.5793" lon="6.8834">
        <ele>1142</ele>
        <time>2021-07-23T08:42:50.285Z</time>
      </trkpt>
      <trkpt lat="45.57928" lon="6.88337">
        <ele>1142</ele>
        <time>2021-07-23T08:42:51.285Z</time>
      </trkpt>
      <trkpt lat="45.57926" lon="6.88334">
        <ele>1142</ele>
        <time>2021-07-23T08:42:52.285Z</time>
      </trkpt>
      <trkpt lat="45.57924" lon="6.88332">
        <ele>1142</ele>
        <time>2021-07-23T08:42:53.285Z</time>
      </trkpt>
      <trkpt lat="45.57922" lon="6.88328">
        <ele>1142.4</ele>
        <time>2021-07-23T08:42:54.285Z</time>
      </trkpt>
      <trkpt lat="45.57919" lon="6.88326">
        <ele>1142.8</ele>
        <time>2021-07-23T08:42:55.285Z</time>
      </trkpt>
      <trkpt lat="45.57917" lon="6.88323">
        <ele>1143.2</ele>
        <time>2021-07-23T08:42:56.285Z</time>
      </trkpt>
      <trkpt lat="45.57915" lon="6.8832">
        <ele>1143.8</ele>
        <time>2021-07-23T08:42:57.285Z</time>
      </trkpt>
      <trkpt lat="45.57913" lon="6.88317">
        <ele>1144.2</ele>
        <time>2021-07-23T08:42:58.285Z</time>
      </trkpt>
      <trkpt lat="45.57911" lon="6.88314">
        <ele>1144.2</ele>
        <time>2021-07-23T08:42:59.285Z</time>
      </trkpt>
      <trkpt lat="45.57909" lon="6.88312">
        <ele>1144.2</ele>
        <time>2021-07-23T08:43:00.285Z</time>
      </trkpt>
      <trkpt lat="45.57907" lon="6.88309">
        <ele>1144.2</ele>
        <time>2021-07-23T08:43:01.285Z</time>
      </trkpt>
      <trkpt lat="45.57905" lon="6.88305">
        <ele>1144.6</ele>
        <time>2021-07-23T08:43:02.285Z</time>
      </trkpt>
      <trkpt lat="45.57903" lon="6.88303">
        <ele>1145</ele>
        <time>2021-07-23T08:43:03.285Z</time>
      </trkpt>
      <trkpt lat="45.57901" lon="6.883">
        <ele>1145.4</ele>
        <time>2021-07-23T08:43:04.285Z</time>
      </trkpt>
      <trkpt lat="45.57899" lon="6.88297">
        <ele>1146</ele>
        <time>2021-07-23T08:43:05.285Z</time>
      </trkpt>
      <trkpt lat="45.57898" lon="6.88293">
        <ele>1146.4</ele>
        <time>2021-07-23T08:43:06.285Z</time>
      </trkpt>
      <trkpt lat="45.57896" lon="6.8829">
        <ele>1146.4</ele>
        <time>2021-07-23T08:43:07.285Z</time>
      </trkpt>
      <trkpt lat="45.57894" lon="6.88287">
        <ele>1146.4</ele>
        <time>2021-07-23T08:43:08.285Z</time>
      </trkpt>
      <trkpt lat="45.57892" lon="6.88285">
        <ele>1146.4</ele>
        <time>2021-07-23T08:43:09.285Z</time>
      </trkpt>
      <trkpt lat="45.5789" lon="6.88281">
        <ele>1146.4</ele>
        <time>2021-07-23T08:43:10.285Z</time>
      </trkpt>
      <trkpt lat="45.57888" lon="6.88279">
        <ele>1146.4</ele>
        <time>2021-07-23T08:43:11.285Z</time>
      </trkpt>
      <trkpt lat="45.57887" lon="6.88276">
        <ele>1146.4</ele>
        <time>2021-07-23T08:43:12.285Z</time>
      </trkpt>
      <trkpt lat="45.57885" lon="6.88273">
        <ele>1146.4</ele>
        <time>2021-07-23T08:43:13.285Z</time>
      </trkpt>
      <trkpt lat="45.57883" lon="6.8827">
        <ele>1146.8</ele>
        <time>2021-07-23T08:43:14.285Z</time>
      </trkpt>
      <trkpt lat="45.57881" lon="6.88267">
        <ele>1147.2</ele>
        <time>2021-07-23T08:43:15.285Z</time>
      </trkpt>
      <trkpt lat="45.57879" lon="6.88264">
        <ele>1147.6</ele>
        <time>2021-07-23T08:43:16.285Z</time>
      </trkpt>
      <trkpt lat="45.57878" lon="6.88261">
        <ele>1148</ele>
        <time>2021-07-23T08:43:17.285Z</time>
      </trkpt>
      <trkpt lat="45.57876" lon="6.88258">
        <ele>1148.4</ele>
        <time>2021-07-23T08:43:18.285Z</time>
      </trkpt>
      <trkpt lat="45.57874" lon="6.88255">
        <ele>1148.4</ele>
        <time>2021-07-23T08:43:19.285Z</time>
      </trkpt>
      <trkpt lat="45.57872" lon="6.88252">
        <ele>1148.4</ele>
        <time>2021-07-23T08:43:20.285Z</time>
      </trkpt>
      <trkpt lat="45.57871" lon="6.88249">
        <ele>1148.4</ele>
        <time>2021-07-23T08:43:21.285Z</time>
      </trkpt>
      <trkpt lat="45.5787" lon="6.88245">
        <ele>1148.4</ele>
        <time>2021-07-23T08:43:22.285Z</time>
      </trkpt>
      <trkpt lat="45.57868" lon="6.88242">
        <ele>1148.4</ele>
        <time>2021-07-23T08:43:23.285Z</time>
      </trkpt>
      <trkpt lat="45.57868" lon="6.88239">
        <ele>1148.4</ele>
        <time>2021-07-23T08:43:24.285Z</time>
      </trkpt>
      <trkpt lat="45.57867" lon="6.88234">
        <ele>1148.8</ele>
        <time>2021-07-23T08:43:25.285Z</time>
      </trkpt>
      <trkpt lat="45.57867" lon="6.88231">
        <ele>1149.2</ele>
        <time>2021-07-23T08:43:26.285Z</time>
      </trkpt>
      <trkpt lat="45.57866" lon="6.88227">
        <ele>1149.6</ele>
        <time>2021-07-23T08:43:27.285Z</time>
      </trkpt>
      <trkpt lat="45.57866" lon="6.88223">
        <ele>1150</ele>
        <time>2021-07-23T08:43:28.285Z</time>
      </trkpt>
      <trkpt lat="45.57865" lon="6.88218">
        <ele>1150.4</ele>
        <time>2021-07-23T08:43:29.285Z</time>
      </trkpt>
      <trkpt lat="45.57864" lon="6.88215">
        <ele>1150.4</ele>
        <time>2021-07-23T08:43:30.285Z</time>
      </trkpt>
      <trkpt lat="45.57861" lon="6.88211">
        <ele>1150.4</ele>
        <time>2021-07-23T08:43:31.285Z</time>
      </trkpt>
      <trkpt lat="45.57859" lon="6.88209">
        <ele>1150.4</ele>
        <time>2021-07-23T08:43:32.285Z</time>
      </trkpt>
      <trkpt lat="45.57856" lon="6.88207">
        <ele>1150.4</ele>
        <time>2021-07-23T08:43:33.285Z</time>
      </trkpt>
      <trkpt lat="45.57853" lon="6.88206">
        <ele>1150.4</ele>
        <time>2021-07-23T08:43:34.285Z</time>
      </trkpt>
      <trkpt lat="45.57849" lon="6.88207">
        <ele>1150.4</ele>
        <time>2021-07-23T08:43:35.285Z</time>
      </trkpt>
      <trkpt lat="45.57846" lon="6.88208">
        <ele>1150.4</ele>
        <time>2021-07-23T08:43:36.285Z</time>
      </trkpt>
      <trkpt lat="45.57843" lon="6.8821">
        <ele>1150.4</ele>
        <time>2021-07-23T08:43:37.285Z</time>
      </trkpt>
      <trkpt lat="45.5784" lon="6.88213">
        <ele>1150.4</ele>
        <time>2021-07-23T08:43:38.285Z</time>
      </trkpt>
      <trkpt lat="45.57837" lon="6.88218">
        <ele>1150.4</ele>
        <time>2021-07-23T08:43:39.285Z</time>
      </trkpt>
      <trkpt lat="45.57836" lon="6.88222">
        <ele>1150.4</ele>
        <time>2021-07-23T08:43:40.285Z</time>
      </trkpt>
      <trkpt lat="45.57835" lon="6.88228">
        <ele>1150.4</ele>
        <time>2021-07-23T08:43:41.285Z</time>
      </trkpt>
      <trkpt lat="45.57835" lon="6.88233">
        <ele>1150.4</ele>
        <time>2021-07-23T08:43:42.285Z</time>
      </trkpt>
      <trkpt lat="45.57835" lon="6.8824">
        <ele>1150.4</ele>
        <time>2021-07-23T08:43:43.285Z</time>
      </trkpt>
      <trkpt lat="45.57835" lon="6.88247">
        <ele>1150.4</ele>
        <time>2021-07-23T08:43:44.285Z</time>
      </trkpt>
      <trkpt lat="45.57836" lon="6.88254">
        <ele>1150.4</ele>
        <time>2021-07-23T08:43:45.285Z</time>
      </trkpt>
      <trkpt lat="45.57836" lon="6.8826">
        <ele>1150.4</ele>
        <time>2021-07-23T08:43:46.285Z</time>
      </trkpt>
      <trkpt lat="45.57836" lon="6.88268">
        <ele>1150.8</ele>
        <time>2021-07-23T08:43:47.285Z</time>
      </trkpt>
      <trkpt lat="45.57837" lon="6.88274">
        <ele>1151.2</ele>
        <time>2021-07-23T08:43:48.285Z</time>
      </trkpt>
      <trkpt lat="45.57837" lon="6.88281">
        <ele>1151.6</ele>
        <time>2021-07-23T08:43:49.285Z</time>
      </trkpt>
      <trkpt lat="45.57838" lon="6.88288">
        <ele>1152</ele>
        <time>2021-07-23T08:43:50.285Z</time>
      </trkpt>
      <trkpt lat="45.5784" lon="6.88294">
        <ele>1152.4</ele>
        <time>2021-07-23T08:43:51.285Z</time>
      </trkpt>
      <trkpt lat="45.57842" lon="6.88298">
        <ele>1152.4</ele>
        <time>2021-07-23T08:43:52.285Z</time>
      </trkpt>
      <trkpt lat="45.57845" lon="6.88303">
        <ele>1152.4</ele>
        <time>2021-07-23T08:43:53.285Z</time>
      </trkpt>
      <trkpt lat="45.57848" lon="6.88308">
        <ele>1152.4</ele>
        <time>2021-07-23T08:43:54.285Z</time>
      </trkpt>
      <trkpt lat="45.5785" lon="6.88313">
        <ele>1152.4</ele>
        <time>2021-07-23T08:43:55.285Z</time>
      </trkpt>
      <trkpt lat="45.57853" lon="6.88317">
        <ele>1152.4</ele>
        <time>2021-07-23T08:43:56.285Z</time>
      </trkpt>
      <trkpt lat="45.57856" lon="6.88322">
        <ele>1152.4</ele>
        <time>2021-07-23T08:43:57.285Z</time>
      </trkpt>
      <trkpt lat="45.57858" lon="6.88326">
        <ele>1152.4</ele>
        <time>2021-07-23T08:43:58.285Z</time>
      </trkpt>
      <trkpt lat="45.57861" lon="6.88331">
        <ele>1152.4</ele>
        <time>2021-07-23T08:43:59.285Z</time>
      </trkpt>
      <trkpt lat="45.57863" lon="6.88335">
        <ele>1152.4</ele>
        <time>2021-07-23T08:44:00.285Z</time>
      </trkpt>
      <trkpt lat="45.57866" lon="6.88341">
        <ele>1152.4</ele>
        <time>2021-07-23T08:44:01.285Z</time>
      </trkpt>
      <trkpt lat="45.57868" lon="6.88345">
        <ele>1152.4</ele>
        <time>2021-07-23T08:44:02.285Z</time>
      </trkpt>
      <trkpt lat="45.5787" lon="6.88349">
        <ele>1152.4</ele>
        <time>2021-07-23T08:44:03.285Z</time>
      </trkpt>
      <trkpt lat="45.57873" lon="6.88354">
        <ele>1152.4</ele>
        <time>2021-07-23T08:44:04.285Z</time>
      </trkpt>
      <trkpt lat="45.57875" lon="6.88358">
        <ele>1152.4</ele>
        <time>2021-07-23T08:44:05.285Z</time>
      </trkpt>
      <trkpt lat="45.57878" lon="6.88361">
        <ele>1152.4</ele>
        <time>2021-07-23T08:44:06.285Z</time>
      </trkpt>
      <trkpt lat="45.5788" lon="6.88365">
        <ele>1152.4</ele>
        <time>2021-07-23T08:44:07.285Z</time>
      </trkpt>
      <trkpt lat="45.57882" lon="6.88369">
        <ele>1152.8</ele>
        <time>2021-07-23T08:44:08.285Z</time>
      </trkpt>
      <trkpt lat="45.57884" lon="6.88374">
        <ele>1153.2</ele>
        <time>2021-07-23T08:44:09.285Z</time>
      </trkpt>
      <trkpt lat="45.57887" lon="6.88377">
        <ele>1153.6</ele>
        <time>2021-07-23T08:44:10.285Z</time>
      </trkpt>
      <trkpt lat="45.57889" lon="6.88381">
        <ele>1154</ele>
        <time>2021-07-23T08:44:11.285Z</time>
      </trkpt>
      <trkpt lat="45.57891" lon="6.88385">
        <ele>1154.4</ele>
        <time>2021-07-23T08:44:12.285Z</time>
      </trkpt>
      <trkpt lat="45.57893" lon="6.88388">
        <ele>1154.4</ele>
        <time>2021-07-23T08:44:13.285Z</time>
      </trkpt>
      <trkpt lat="45.57896" lon="6.88392">
        <ele>1154.4</ele>
        <time>2021-07-23T08:44:14.285Z</time>
      </trkpt>
      <trkpt lat="45.57898" lon="6.88396">
        <ele>1154.4</ele>
        <time>2021-07-23T08:44:15.285Z</time>
      </trkpt>
      <trkpt lat="45.579" lon="6.884">
        <ele>1154.4</ele>
        <time>2021-07-23T08:44:16.285Z</time>
      </trkpt>
      <trkpt lat="45.57902" lon="6.88404">
        <ele>1154.4</ele>
        <time>2021-07-23T08:44:17.285Z</time>
      </trkpt>
      <trkpt lat="45.57904" lon="6.88408">
        <ele>1154.4</ele>
        <time>2021-07-23T08:44:18.285Z</time>
      </trkpt>
      <trkpt lat="45.57906" lon="6.88412">
        <ele>1154.4</ele>
        <time>2021-07-23T08:44:19.285Z</time>
      </trkpt>
      <trkpt lat="45.57908" lon="6.88415">
        <ele>1154.8</ele>
        <time>2021-07-23T08:44:20.285Z</time>
      </trkpt>
      <trkpt lat="45.5791" lon="6.88419">
        <ele>1155.4</ele>
        <time>2021-07-23T08:44:21.285Z</time>
      </trkpt>
      <trkpt lat="45.57913" lon="6.88424">
        <ele>1155.8</ele>
        <time>2021-07-23T08:44:22.285Z</time>
      </trkpt>
      <trkpt lat="45.57915" lon="6.88427">
        <ele>1156.2</ele>
        <time>2021-07-23T08:44:23.285Z</time>
      </trkpt>
      <trkpt lat="45.57918" lon="6.88432">
        <ele>1156.6</ele>
        <time>2021-07-23T08:44:24.285Z</time>
      </trkpt>
      <trkpt lat="45.5792" lon="6.88435">
        <ele>1156.6</ele>
        <time>2021-07-23T08:44:25.285Z</time>
      </trkpt>
      <trkpt lat="45.57922" lon="6.88438">
        <ele>1156.6</ele>
        <time>2021-07-23T08:44:26.285Z</time>
      </trkpt>
      <trkpt lat="45.57925" lon="6.88442">
        <ele>1156.6</ele>
        <time>2021-07-23T08:44:27.285Z</time>
      </trkpt>
      <trkpt lat="45.57928" lon="6.88445">
        <ele>1156.6</ele>
        <time>2021-07-23T08:44:28.285Z</time>
      </trkpt>
      <trkpt lat="45.5793" lon="6.88448">
        <ele>1156.6</ele>
        <time>2021-07-23T08:44:29.285Z</time>
      </trkpt>
      <trkpt lat="45.57933" lon="6.8845">
        <ele>1156.6</ele>
        <time>2021-07-23T08:44:30.285Z</time>
      </trkpt>
      <trkpt lat="45.57936" lon="6.88453">
        <ele>1156.6</ele>
        <time>2021-07-23T08:44:31.285Z</time>
      </trkpt>
      <trkpt lat="45.57939" lon="6.88455">
        <ele>1157</ele>
        <time>2021-07-23T08:44:32.285Z</time>
      </trkpt>
      <trkpt lat="45.57942" lon="6.88457">
        <ele>1157.4</ele>
        <time>2021-07-23T08:44:33.285Z</time>
      </trkpt>
      <trkpt lat="45.57945" lon="6.88459">
        <ele>1157.8</ele>
        <time>2021-07-23T08:44:34.285Z</time>
      </trkpt>
      <trkpt lat="45.57948" lon="6.88461">
        <ele>1158.2</ele>
        <time>2021-07-23T08:44:35.285Z</time>
      </trkpt>
      <trkpt lat="45.57951" lon="6.88463">
        <ele>1158.6</ele>
        <time>2021-07-23T08:44:36.285Z</time>
      </trkpt>
      <trkpt lat="45.57954" lon="6.88465">
        <ele>1158.6</ele>
        <time>2021-07-23T08:44:37.285Z</time>
      </trkpt>
      <trkpt lat="45.57957" lon="6.88466">
        <ele>1158.6</ele>
        <time>2021-07-23T08:44:38.285Z</time>
      </trkpt>
      <trkpt lat="45.57959" lon="6.88467">
        <ele>1158.6</ele>
        <time>2021-07-23T08:44:39.285Z</time>
      </trkpt>
      <trkpt lat="45.57962" lon="6.88468">
        <ele>1158.6</ele>
        <time>2021-07-23T08:44:40.285Z</time>
      </trkpt>
      <trkpt lat="45.57965" lon="6.8847">
        <ele>1158.6</ele>
        <time>2021-07-23T08:44:41.285Z</time>
      </trkpt>
      <trkpt lat="45.57968" lon="6.88471">
        <ele>1158.6</ele>
        <time>2021-07-23T08:44:42.285Z</time>
      </trkpt>
      <trkpt lat="45.5797" lon="6.88472">
        <ele>1158.6</ele>
        <time>2021-07-23T08:44:43.285Z</time>
      </trkpt>
      <trkpt lat="45.57972" lon="6.88475">
        <ele>1158.6</ele>
        <time>2021-07-23T08:44:44.285Z</time>
      </trkpt>
      <trkpt lat="45.57974" lon="6.88479">
        <ele>1159</ele>
        <time>2021-07-23T08:44:45.285Z</time>
      </trkpt>
      <trkpt lat="45.57976" lon="6.88481">
        <ele>1159.6</ele>
        <time>2021-07-23T08:44:46.285Z</time>
      </trkpt>
      <trkpt lat="45.57987" lon="6.88476">
        <ele>1160</ele>
        <time>2021-07-23T08:44:47.285Z</time>
      </trkpt>
      <trkpt lat="45.57987" lon="6.88476">
        <ele>1160.4</ele>
        <time>2021-07-23T08:44:48.285Z</time>
      </trkpt>
      <trkpt lat="45.57984" lon="6.88476">
        <ele>1160.8</ele>
        <time>2021-07-23T08:44:49.285Z</time>
      </trkpt>
      <trkpt lat="45.57982" lon="6.88476">
        <ele>1160.8</ele>
        <time>2021-07-23T08:44:50.285Z</time>
      </trkpt>
      <trkpt lat="45.57979" lon="6.88475">
        <ele>1160.8</ele>
        <time>2021-07-23T08:44:51.285Z</time>
      </trkpt>
      <trkpt lat="45.57976" lon="6.88474">
        <ele>1160.8</ele>
        <time>2021-07-23T08:44:52.285Z</time>
      </trkpt>
      <trkpt lat="45.57973" lon="6.88472">
        <ele>1160.8</ele>
        <time>2021-07-23T08:44:53.285Z</time>
      </trkpt>
      <trkpt lat="45.5797" lon="6.8847">
        <ele>1161.2</ele>
        <time>2021-07-23T08:44:54.285Z</time>
      </trkpt>
      <trkpt lat="45.57967" lon="6.88469">
        <ele>1161.8</ele>
        <time>2021-07-23T08:44:55.285Z</time>
      </trkpt>
      <trkpt lat="45.57964" lon="6.88467">
        <ele>1162.2</ele>
        <time>2021-07-23T08:44:56.285Z</time>
      </trkpt>
      <trkpt lat="45.57961" lon="6.88465">
        <ele>1162.8</ele>
        <time>2021-07-23T08:44:57.285Z</time>
      </trkpt>
      <trkpt lat="45.57958" lon="6.88463">
        <ele>1163.2</ele>
        <time>2021-07-23T08:44:58.285Z</time>
      </trkpt>
      <trkpt lat="45.57955" lon="6.88462">
        <ele>1163.2</ele>
        <time>2021-07-23T08:44:59.285Z</time>
      </trkpt>
      <trkpt lat="45.57953" lon="6.88459">
        <ele>1163.2</ele>
        <time>2021-07-23T08:45:00.285Z</time>
      </trkpt>
      <trkpt lat="45.57951" lon="6.88456">
        <ele>1163.2</ele>
        <time>2021-07-23T08:45:01.285Z</time>
      </trkpt>
      <trkpt lat="45.57949" lon="6.88453">
        <ele>1163.2</ele>
        <time>2021-07-23T08:45:02.285Z</time>
      </trkpt>
      <trkpt lat="45.57946" lon="6.8845">
        <ele>1163.6</ele>
        <time>2021-07-23T08:45:03.285Z</time>
      </trkpt>
      <trkpt lat="45.57943" lon="6.88448">
        <ele>1164</ele>
        <time>2021-07-23T08:45:04.285Z</time>
      </trkpt>
      <trkpt lat="45.5794" lon="6.88446">
        <ele>1164.4</ele>
        <time>2021-07-23T08:45:05.285Z</time>
      </trkpt>
      <trkpt lat="45.57937" lon="6.88444">
        <ele>1165</ele>
        <time>2021-07-23T08:45:06.285Z</time>
      </trkpt>
      <trkpt lat="45.57934" lon="6.88441">
        <ele>1165.4</ele>
        <time>2021-07-23T08:45:07.285Z</time>
      </trkpt>
      <trkpt lat="45.57931" lon="6.88439">
        <ele>1165.4</ele>
        <time>2021-07-23T08:45:08.285Z</time>
      </trkpt>
      <trkpt lat="45.57928" lon="6.88436">
        <ele>1165.4</ele>
        <time>2021-07-23T08:45:09.285Z</time>
      </trkpt>
      <trkpt lat="45.57926" lon="6.88434">
        <ele>1165.4</ele>
        <time>2021-07-23T08:45:10.285Z</time>
      </trkpt>
      <trkpt lat="45.57923" lon="6.88431">
        <ele>1165.4</ele>
        <time>2021-07-23T08:45:11.285Z</time>
      </trkpt>
      <trkpt lat="45.5792" lon="6.88429">
        <ele>1165.8</ele>
        <time>2021-07-23T08:45:12.285Z</time>
      </trkpt>
      <trkpt lat="45.57917" lon="6.88426">
        <ele>1166.2</ele>
        <time>2021-07-23T08:45:13.285Z</time>
      </trkpt>
      <trkpt lat="45.57915" lon="6.88424">
        <ele>1166.6</ele>
        <time>2021-07-23T08:45:14.285Z</time>
      </trkpt>
      <trkpt lat="45.57913" lon="6.88422">
        <ele>1167.2</ele>
        <time>2021-07-23T08:45:15.285Z</time>
      </trkpt>
      <trkpt lat="45.57909" lon="6.88419">
        <ele>1167.6</ele>
        <time>2021-07-23T08:45:16.285Z</time>
      </trkpt>
      <trkpt lat="45.57906" lon="6.88417">
        <ele>1167.6</ele>
        <time>2021-07-23T08:45:17.285Z</time>
      </trkpt>
      <trkpt lat="45.57904" lon="6.88415">
        <ele>1167.6</ele>
        <time>2021-07-23T08:45:18.285Z</time>
      </trkpt>
      <trkpt lat="45.57901" lon="6.88413">
        <ele>1167.6</ele>
        <time>2021-07-23T08:45:19.285Z</time>
      </trkpt>
      <trkpt lat="45.579" lon="6.8841">
        <ele>1168</ele>
        <time>2021-07-23T08:45:20.285Z</time>
      </trkpt>
      <trkpt lat="45.57898" lon="6.88408">
        <ele>1168.4</ele>
        <time>2021-07-23T08:45:21.285Z</time>
      </trkpt>
      <trkpt lat="45.57896" lon="6.88406">
        <ele>1168.8</ele>
        <time>2021-07-23T08:45:22.285Z</time>
      </trkpt>
      <trkpt lat="45.57893" lon="6.88404">
        <ele>1169.4</ele>
        <time>2021-07-23T08:45:23.285Z</time>
      </trkpt>
      <trkpt lat="45.57891" lon="6.88402">
        <ele>1169.8</ele>
        <time>2021-07-23T08:45:24.285Z</time>
      </trkpt>
      <trkpt lat="45.57888" lon="6.884">
        <ele>1169.8</ele>
        <time>2021-07-23T08:45:25.285Z</time>
      </trkpt>
      <trkpt lat="45.57886" lon="6.88398">
        <ele>1169.8</ele>
        <time>2021-07-23T08:45:26.285Z</time>
      </trkpt>
      <trkpt lat="45.57883" lon="6.88396">
        <ele>1169.8</ele>
        <time>2021-07-23T08:45:27.285Z</time>
      </trkpt>
      <trkpt lat="45.57881" lon="6.88394">
        <ele>1169.8</ele>
        <time>2021-07-23T08:45:28.285Z</time>
      </trkpt>
      <trkpt lat="45.57879" lon="6.88391">
        <ele>1170.2</ele>
        <time>2021-07-23T08:45:29.285Z</time>
      </trkpt>
      <trkpt lat="45.57877" lon="6.88389">
        <ele>1170.6</ele>
        <time>2021-07-23T08:45:30.285Z</time>
      </trkpt>
      <trkpt lat="45.57874" lon="6.88387">
        <ele>1171</ele>
        <time>2021-07-23T08:45:31.285Z</time>
      </trkpt>
      <trkpt lat="45.57872" lon="6.88385">
        <ele>1171.4</ele>
        <time>2021-07-23T08:45:32.285Z</time>
      </trkpt>
      <trkpt lat="45.5787" lon="6.88383">
        <ele>1171.8</ele>
        <time>2021-07-23T08:45:33.285Z</time>
      </trkpt>
      <trkpt lat="45.57868" lon="6.88381">
        <ele>1171.8</ele>
        <time>2021-07-23T08:45:34.285Z</time>
      </trkpt>
      <trkpt lat="45.57865" lon="6.88378">
        <ele>1171.8</ele>
        <time>2021-07-23T08:45:35.285Z</time>
      </trkpt>
      <trkpt lat="45.57863" lon="6.88377">
        <ele>1171.8</ele>
        <time>2021-07-23T08:45:36.285Z</time>
      </trkpt>
      <trkpt lat="45.57861" lon="6.88375">
        <ele>1171.8</ele>
        <time>2021-07-23T08:45:37.285Z</time>
      </trkpt>
      <trkpt lat="45.57858" lon="6.88373">
        <ele>1172.2</ele>
        <time>2021-07-23T08:45:38.285Z</time>
      </trkpt>
      <trkpt lat="45.57855" lon="6.88372">
        <ele>1172.6</ele>
        <time>2021-07-23T08:45:39.285Z</time>
      </trkpt>
      <trkpt lat="45.57853" lon="6.8837">
        <ele>1173.6</ele>
        <time>2021-07-23T08:45:40.285Z</time>
      </trkpt>
      <trkpt lat="45.5785" lon="6.88367">
        <ele>1174</ele>
        <time>2021-07-23T08:45:41.285Z</time>
      </trkpt>
      <trkpt lat="45.57848" lon="6.88365">
        <ele>1174</ele>
        <time>2021-07-23T08:45:42.285Z</time>
      </trkpt>
      <trkpt lat="45.57846" lon="6.88363">
        <ele>1174</ele>
        <time>2021-07-23T08:45:43.285Z</time>
      </trkpt>
      <trkpt lat="45.57844" lon="6.88361">
        <ele>1174</ele>
        <time>2021-07-23T08:45:44.285Z</time>
      </trkpt>
      <trkpt lat="45.57842" lon="6.88359">
        <ele>1174</ele>
        <time>2021-07-23T08:45:45.285Z</time>
      </trkpt>
      <trkpt lat="45.5784" lon="6.88356">
        <ele>1174.4</ele>
        <time>2021-07-23T08:45:46.285Z</time>
      </trkpt>
      <trkpt lat="45.57838" lon="6.88354">
        <ele>1174.8</ele>
        <time>2021-07-23T08:45:47.285Z</time>
      </trkpt>
      <trkpt lat="45.57835" lon="6.88351">
        <ele>1175.2</ele>
        <time>2021-07-23T08:45:48.285Z</time>
      </trkpt>
      <trkpt lat="45.57833" lon="6.88349">
        <ele>1175.6</ele>
        <time>2021-07-23T08:45:49.285Z</time>
      </trkpt>
      <trkpt lat="45.57831" lon="6.88347">
        <ele>1176</ele>
        <time>2021-07-23T08:45:50.285Z</time>
      </trkpt>
      <trkpt lat="45.57829" lon="6.88344">
        <ele>1176</ele>
        <time>2021-07-23T08:45:51.285Z</time>
      </trkpt>
      <trkpt lat="45.57827" lon="6.88341">
        <ele>1176</ele>
        <time>2021-07-23T08:45:52.285Z</time>
      </trkpt>
      <trkpt lat="45.57825" lon="6.88339">
        <ele>1176</ele>
        <time>2021-07-23T08:45:53.285Z</time>
      </trkpt>
      <trkpt lat="45.57823" lon="6.88336">
        <ele>1176.4</ele>
        <time>2021-07-23T08:45:54.285Z</time>
      </trkpt>
      <trkpt lat="45.57821" lon="6.88334">
        <ele>1176.8</ele>
        <time>2021-07-23T08:45:55.285Z</time>
      </trkpt>
      <trkpt lat="45.57818" lon="6.88331">
        <ele>1177.2</ele>
        <time>2021-07-23T08:45:56.285Z</time>
      </trkpt>
      <trkpt lat="45.57816" lon="6.88329">
        <ele>1177.6</ele>
        <time>2021-07-23T08:45:57.285Z</time>
      </trkpt>
      <trkpt lat="45.57813" lon="6.88326">
        <ele>1178</ele>
        <time>2021-07-23T08:45:58.285Z</time>
      </trkpt>
      <trkpt lat="45.57811" lon="6.88324">
        <ele>1178</ele>
        <time>2021-07-23T08:45:59.285Z</time>
      </trkpt>
      <trkpt lat="45.57808" lon="6.88321">
        <ele>1178</ele>
        <time>2021-07-23T08:46:00.285Z</time>
      </trkpt>
      <trkpt lat="45.57806" lon="6.88319">
        <ele>1178.4</ele>
        <time>2021-07-23T08:46:01.285Z</time>
      </trkpt>
      <trkpt lat="45.57803" lon="6.88317">
        <ele>1178.8</ele>
        <time>2021-07-23T08:46:02.285Z</time>
      </trkpt>
      <trkpt lat="45.57801" lon="6.88314">
        <ele>1179.2</ele>
        <time>2021-07-23T08:46:03.285Z</time>
      </trkpt>
      <trkpt lat="45.57799" lon="6.88312">
        <ele>1179.6</ele>
        <time>2021-07-23T08:46:04.285Z</time>
      </trkpt>
      <trkpt lat="45.57797" lon="6.88309">
        <ele>1180</ele>
        <time>2021-07-23T08:46:05.285Z</time>
      </trkpt>
      <trkpt lat="45.57795" lon="6.88307">
        <ele>1180</ele>
        <time>2021-07-23T08:46:06.285Z</time>
      </trkpt>
      <trkpt lat="45.57793" lon="6.88305">
        <ele>1180</ele>
        <time>2021-07-23T08:46:07.285Z</time>
      </trkpt>
      <trkpt lat="45.57791" lon="6.88303">
        <ele>1180.6</ele>
        <time>2021-07-23T08:46:08.285Z</time>
      </trkpt>
      <trkpt lat="45.57789" lon="6.88301">
        <ele>1181</ele>
        <time>2021-07-23T08:46:09.285Z</time>
      </trkpt>
      <trkpt lat="45.57787" lon="6.883">
        <ele>1181.4</ele>
        <time>2021-07-23T08:46:10.285Z</time>
      </trkpt>
      <trkpt lat="45.57785" lon="6.88299">
        <ele>1182</ele>
        <time>2021-07-23T08:46:11.285Z</time>
      </trkpt>
      <trkpt lat="45.57783" lon="6.88299">
        <ele>1182.4</ele>
        <time>2021-07-23T08:46:12.285Z</time>
      </trkpt>
      <trkpt lat="45.5778" lon="6.88299">
        <ele>1182.4</ele>
        <time>2021-07-23T08:46:13.285Z</time>
      </trkpt>
      <trkpt lat="45.57792" lon="6.88288">
        <ele>1182.4</ele>
        <time>2021-07-23T08:46:14.285Z</time>
      </trkpt>
      <trkpt lat="45.57792" lon="6.88287">
        <ele>1182.4</ele>
        <time>2021-07-23T08:46:15.285Z</time>
      </trkpt>
      <trkpt lat="45.5779" lon="6.88286">
        <ele>1182.4</ele>
        <time>2021-07-23T08:46:16.285Z</time>
      </trkpt>
      <trkpt lat="45.57788" lon="6.88286">
        <ele>1182.4</ele>
        <time>2021-07-23T08:46:17.285Z</time>
      </trkpt>
      <trkpt lat="45.57785" lon="6.88287">
        <ele>1182.8</ele>
        <time>2021-07-23T08:46:18.285Z</time>
      </trkpt>
      <trkpt lat="45.57783" lon="6.88286">
        <ele>1183.2</ele>
        <time>2021-07-23T08:46:19.285Z</time>
      </trkpt>
      <trkpt lat="45.57781" lon="6.88287">
        <ele>1183.6</ele>
        <time>2021-07-23T08:46:20.285Z</time>
      </trkpt>
      <trkpt lat="45.57778" lon="6.88287">
        <ele>1184</ele>
        <time>2021-07-23T08:46:21.285Z</time>
      </trkpt>
      <trkpt lat="45.57776" lon="6.88287">
        <ele>1184.6</ele>
        <time>2021-07-23T08:46:22.285Z</time>
      </trkpt>
      <trkpt lat="45.57773" lon="6.88286">
        <ele>1184.6</ele>
        <time>2021-07-23T08:46:23.285Z</time>
      </trkpt>
      <trkpt lat="45.5777" lon="6.88286">
        <ele>1184.6</ele>
        <time>2021-07-23T08:46:24.285Z</time>
      </trkpt>
      <trkpt lat="45.57768" lon="6.88286">
        <ele>1184.6</ele>
        <time>2021-07-23T08:46:25.285Z</time>
      </trkpt>
      <trkpt lat="45.57765" lon="6.88285">
        <ele>1184.6</ele>
        <time>2021-07-23T08:46:26.285Z</time>
      </trkpt>
      <trkpt lat="45.57763" lon="6.88285">
        <ele>1185</ele>
        <time>2021-07-23T08:46:27.285Z</time>
      </trkpt>
      <trkpt lat="45.57761" lon="6.88284">
        <ele>1185.4</ele>
        <time>2021-07-23T08:46:28.285Z</time>
      </trkpt>
      <trkpt lat="45.57758" lon="6.88284">
        <ele>1185.8</ele>
        <time>2021-07-23T08:46:29.285Z</time>
      </trkpt>
      <trkpt lat="45.57755" lon="6.88284">
        <ele>1186.8</ele>
        <time>2021-07-23T08:46:30.285Z</time>
      </trkpt>
      <trkpt lat="45.57753" lon="6.88284">
        <ele>1186.8</ele>
        <time>2021-07-23T08:46:31.285Z</time>
      </trkpt>
      <trkpt lat="45.5775" lon="6.88283">
        <ele>1186.8</ele>
        <time>2021-07-23T08:46:32.285Z</time>
      </trkpt>
      <trkpt lat="45.57748" lon="6.88283">
        <ele>1186.8</ele>
        <time>2021-07-23T08:46:33.285Z</time>
      </trkpt>
      <trkpt lat="45.57745" lon="6.88282">
        <ele>1187.2</ele>
        <time>2021-07-23T08:46:34.285Z</time>
      </trkpt>
      <trkpt lat="45.57743" lon="6.88282">
        <ele>1187.6</ele>
        <time>2021-07-23T08:46:35.285Z</time>
      </trkpt>
      <trkpt lat="45.5774" lon="6.88282">
        <ele>1188</ele>
        <time>2021-07-23T08:46:36.285Z</time>
      </trkpt>
      <trkpt lat="45.57738" lon="6.88282">
        <ele>1188.4</ele>
        <time>2021-07-23T08:46:37.285Z</time>
      </trkpt>
      <trkpt lat="45.57735" lon="6.88283">
        <ele>1188.8</ele>
        <time>2021-07-23T08:46:38.285Z</time>
      </trkpt>
      <trkpt lat="45.57733" lon="6.88284">
        <ele>1188.8</ele>
        <time>2021-07-23T08:46:39.285Z</time>
      </trkpt>
      <trkpt lat="45.5773" lon="6.88284">
        <ele>1188.8</ele>
        <time>2021-07-23T08:46:40.285Z</time>
      </trkpt>
      <trkpt lat="45.57727" lon="6.88285">
        <ele>1188.8</ele>
        <time>2021-07-23T08:46:41.285Z</time>
      </trkpt>
      <trkpt lat="45.57725" lon="6.88286">
        <ele>1189.4</ele>
        <time>2021-07-23T08:46:42.285Z</time>
      </trkpt>
      <trkpt lat="45.57722" lon="6.88287">
        <ele>1189.8</ele>
        <time>2021-07-23T08:46:43.285Z</time>
      </trkpt>
      <trkpt lat="45.57719" lon="6.88289">
        <ele>1190.2</ele>
        <time>2021-07-23T08:46:44.285Z</time>
      </trkpt>
      <trkpt lat="45.57717" lon="6.8829">
        <ele>1190.6</ele>
        <time>2021-07-23T08:46:45.285Z</time>
      </trkpt>
      <trkpt lat="45.57714" lon="6.88292">
        <ele>1191.2</ele>
        <time>2021-07-23T08:46:46.285Z</time>
      </trkpt>
      <trkpt lat="45.57712" lon="6.88294">
        <ele>1191.2</ele>
        <time>2021-07-23T08:46:47.285Z</time>
      </trkpt>
      <trkpt lat="45.57709" lon="6.88296">
        <ele>1191.2</ele>
        <time>2021-07-23T08:46:48.285Z</time>
      </trkpt>
      <trkpt lat="45.57706" lon="6.88297">
        <ele>1191.2</ele>
        <time>2021-07-23T08:46:49.285Z</time>
      </trkpt>
      <trkpt lat="45.57704" lon="6.88299">
        <ele>1191.2</ele>
        <time>2021-07-23T08:46:50.285Z</time>
      </trkpt>
      <trkpt lat="45.57701" lon="6.88301">
        <ele>1191.2</ele>
        <time>2021-07-23T08:46:51.285Z</time>
      </trkpt>
      <trkpt lat="45.57699" lon="6.88303">
        <ele>1191.2</ele>
        <time>2021-07-23T08:46:52.285Z</time>
      </trkpt>
      <trkpt lat="45.57696" lon="6.88305">
        <ele>1191.6</ele>
        <time>2021-07-23T08:46:53.285Z</time>
      </trkpt>
      <trkpt lat="45.57694" lon="6.88307">
        <ele>1192</ele>
        <time>2021-07-23T08:46:54.285Z</time>
      </trkpt>
      <trkpt lat="45.57693" lon="6.88308">
        <ele>1192.8</ele>
        <time>2021-07-23T08:46:55.285Z</time>
      </trkpt>
      <trkpt lat="45.57691" lon="6.88309">
        <ele>1193.2</ele>
        <time>2021-07-23T08:46:56.285Z</time>
      </trkpt>
      <trkpt lat="45.57689" lon="6.8831">
        <ele>1193.2</ele>
        <time>2021-07-23T08:46:57.285Z</time>
      </trkpt>
      <trkpt lat="45.57687" lon="6.88311">
        <ele>1193.2</ele>
        <time>2021-07-23T08:46:58.285Z</time>
      </trkpt>
      <trkpt lat="45.57684" lon="6.88312">
        <ele>1193.2</ele>
        <time>2021-07-23T08:46:59.285Z</time>
      </trkpt>
      <trkpt lat="45.57682" lon="6.88314">
        <ele>1193.2</ele>
        <time>2021-07-23T08:47:00.285Z</time>
      </trkpt>
      <trkpt lat="45.57679" lon="6.88316">
        <ele>1193.2</ele>
        <time>2021-07-23T08:47:01.285Z</time>
      </trkpt>
      <trkpt lat="45.57677" lon="6.88318">
        <ele>1193.6</ele>
        <time>2021-07-23T08:47:02.285Z</time>
      </trkpt>
      <trkpt lat="45.57674" lon="6.8832">
        <ele>1194</ele>
        <time>2021-07-23T08:47:03.285Z</time>
      </trkpt>
      <trkpt lat="45.57672" lon="6.88322">
        <ele>1194.6</ele>
        <time>2021-07-23T08:47:04.285Z</time>
      </trkpt>
      <trkpt lat="45.57669" lon="6.88324">
        <ele>1195</ele>
        <time>2021-07-23T08:47:05.285Z</time>
      </trkpt>
      <trkpt lat="45.57667" lon="6.88326">
        <ele>1195.4</ele>
        <time>2021-07-23T08:47:06.285Z</time>
      </trkpt>
      <trkpt lat="45.57665" lon="6.88328">
        <ele>1195.4</ele>
        <time>2021-07-23T08:47:07.285Z</time>
      </trkpt>
      <trkpt lat="45.57662" lon="6.8833">
        <ele>1195.4</ele>
        <time>2021-07-23T08:47:08.285Z</time>
      </trkpt>
      <trkpt lat="45.5766" lon="6.88332">
        <ele>1195.4</ele>
        <time>2021-07-23T08:47:09.285Z</time>
      </trkpt>
      <trkpt lat="45.57658" lon="6.88334">
        <ele>1195.4</ele>
        <time>2021-07-23T08:47:10.285Z</time>
      </trkpt>
      <trkpt lat="45.57656" lon="6.88336">
        <ele>1195.4</ele>
        <time>2021-07-23T08:47:11.285Z</time>
      </trkpt>
      <trkpt lat="45.57654" lon="6.88338">
        <ele>1196</ele>
        <time>2021-07-23T08:47:12.285Z</time>
      </trkpt>
      <trkpt lat="45.57652" lon="6.88341">
        <ele>1196.4</ele>
        <time>2021-07-23T08:47:13.285Z</time>
      </trkpt>
      <trkpt lat="45.5765" lon="6.88343">
        <ele>1196.8</ele>
        <time>2021-07-23T08:47:14.285Z</time>
      </trkpt>
      <trkpt lat="45.57648" lon="6.88346">
        <ele>1197.2</ele>
        <time>2021-07-23T08:47:15.285Z</time>
      </trkpt>
      <trkpt lat="45.57647" lon="6.88349">
        <ele>1197.6</ele>
        <time>2021-07-23T08:47:16.285Z</time>
      </trkpt>
      <trkpt lat="45.57645" lon="6.88352">
        <ele>1197.6</ele>
        <time>2021-07-23T08:47:17.285Z</time>
      </trkpt>
      <trkpt lat="45.57643" lon="6.88356">
        <ele>1197.6</ele>
        <time>2021-07-23T08:47:18.285Z</time>
      </trkpt>
      <trkpt lat="45.57642" lon="6.88359">
        <ele>1197.6</ele>
        <time>2021-07-23T08:47:19.285Z</time>
      </trkpt>
      <trkpt lat="45.5764" lon="6.88362">
        <ele>1197.6</ele>
        <time>2021-07-23T08:47:20.285Z</time>
      </trkpt>
      <trkpt lat="45.57639" lon="6.88365">
        <ele>1198</ele>
        <time>2021-07-23T08:47:21.285Z</time>
      </trkpt>
      <trkpt lat="45.57638" lon="6.88368">
        <ele>1198.4</ele>
        <time>2021-07-23T08:47:22.285Z</time>
      </trkpt>
      <trkpt lat="45.57636" lon="6.88372">
        <ele>1198.8</ele>
        <time>2021-07-23T08:47:23.285Z</time>
      </trkpt>
      <trkpt lat="45.57635" lon="6.88375">
        <ele>1199.4</ele>
        <time>2021-07-23T08:47:24.285Z</time>
      </trkpt>
      <trkpt lat="45.57634" lon="6.88379">
        <ele>1199.8</ele>
        <time>2021-07-23T08:47:25.285Z</time>
      </trkpt>
      <trkpt lat="45.57633" lon="6.88383">
        <ele>1199.8</ele>
        <time>2021-07-23T08:47:26.285Z</time>
      </trkpt>
      <trkpt lat="45.57632" lon="6.88387">
        <ele>1199.8</ele>
        <time>2021-07-23T08:47:27.285Z</time>
      </trkpt>
      <trkpt lat="45.57631" lon="6.8839">
        <ele>1199.8</ele>
        <time>2021-07-23T08:47:28.285Z</time>
      </trkpt>
      <trkpt lat="45.57629" lon="6.88394">
        <ele>1199.8</ele>
        <time>2021-07-23T08:47:29.285Z</time>
      </trkpt>
      <trkpt lat="45.57627" lon="6.88398">
        <ele>1199.8</ele>
        <time>2021-07-23T08:47:30.285Z</time>
      </trkpt>
      <trkpt lat="45.57626" lon="6.88401">
        <ele>1199.8</ele>
        <time>2021-07-23T08:47:31.285Z</time>
      </trkpt>
      <trkpt lat="45.57624" lon="6.88403">
        <ele>1200.2</ele>
        <time>2021-07-23T08:47:32.285Z</time>
      </trkpt>
      <trkpt lat="45.57622" lon="6.88406">
        <ele>1200.6</ele>
        <time>2021-07-23T08:47:33.285Z</time>
      </trkpt>
      <trkpt lat="45.57621" lon="6.88408">
        <ele>1201</ele>
        <time>2021-07-23T08:47:34.285Z</time>
      </trkpt>
      <trkpt lat="45.57619" lon="6.8841">
        <ele>1201.4</ele>
        <time>2021-07-23T08:47:35.285Z</time>
      </trkpt>
      <trkpt lat="45.57617" lon="6.88413">
        <ele>1202</ele>
        <time>2021-07-23T08:47:36.285Z</time>
      </trkpt>
      <trkpt lat="45.57615" lon="6.88415">
        <ele>1202</ele>
        <time>2021-07-23T08:47:37.285Z</time>
      </trkpt>
      <trkpt lat="45.57613" lon="6.88418">
        <ele>1202</ele>
        <time>2021-07-23T08:47:38.285Z</time>
      </trkpt>
      <trkpt lat="45.57611" lon="6.88419">
        <ele>1202</ele>
        <time>2021-07-23T08:47:39.285Z</time>
      </trkpt>
      <trkpt lat="45.57609" lon="6.88421">
        <ele>1202.4</ele>
        <time>2021-07-23T08:47:40.285Z</time>
      </trkpt>
      <trkpt lat="45.57606" lon="6.88422">
        <ele>1202.8</ele>
        <time>2021-07-23T08:47:41.285Z</time>
      </trkpt>
      <trkpt lat="45.57604" lon="6.88423">
        <ele>1203.2</ele>
        <time>2021-07-23T08:47:42.285Z</time>
      </trkpt>
      <trkpt lat="45.57602" lon="6.88424">
        <ele>1203.6</ele>
        <time>2021-07-23T08:47:43.285Z</time>
      </trkpt>
      <trkpt lat="45.57599" lon="6.88425">
        <ele>1204</ele>
        <time>2021-07-23T08:47:44.285Z</time>
      </trkpt>
      <trkpt lat="45.57596" lon="6.88426">
        <ele>1204</ele>
        <time>2021-07-23T08:47:45.285Z</time>
      </trkpt>
      <trkpt lat="45.57594" lon="6.88425">
        <ele>1204</ele>
        <time>2021-07-23T08:47:46.285Z</time>
      </trkpt>
      <trkpt lat="45.57592" lon="6.88426">
        <ele>1204</ele>
        <time>2021-07-23T08:47:47.285Z</time>
      </trkpt>
      <trkpt lat="45.57589" lon="6.88426">
        <ele>1204.4</ele>
        <time>2021-07-23T08:47:48.285Z</time>
      </trkpt>
      <trkpt lat="45.57587" lon="6.88427">
        <ele>1204.8</ele>
        <time>2021-07-23T08:47:49.285Z</time>
      </trkpt>
      <trkpt lat="45.57585" lon="6.88428">
        <ele>1205.4</ele>
        <time>2021-07-23T08:47:50.285Z</time>
      </trkpt>
      <trkpt lat="45.57582" lon="6.88429">
        <ele>1205.8</ele>
        <time>2021-07-23T08:47:51.285Z</time>
      </trkpt>
      <trkpt lat="45.5758" lon="6.8843">
        <ele>1206.2</ele>
        <time>2021-07-23T08:47:52.285Z</time>
      </trkpt>
      <trkpt lat="45.57578" lon="6.88431">
        <ele>1206.2</ele>
        <time>2021-07-23T08:47:53.285Z</time>
      </trkpt>
      <trkpt lat="45.57575" lon="6.88432">
        <ele>1206.2</ele>
        <time>2021-07-23T08:47:54.285Z</time>
      </trkpt>
      <trkpt lat="45.57573" lon="6.88433">
        <ele>1206.2</ele>
        <time>2021-07-23T08:47:55.285Z</time>
      </trkpt>
      <trkpt lat="45.5757" lon="6.88433">
        <ele>1206.2</ele>
        <time>2021-07-23T08:47:56.285Z</time>
      </trkpt>
      <trkpt lat="45.57568" lon="6.88434">
        <ele>1206.2</ele>
        <time>2021-07-23T08:47:57.285Z</time>
      </trkpt>
      <trkpt lat="45.57566" lon="6.88434">
        <ele>1206.6</ele>
        <time>2021-07-23T08:47:58.285Z</time>
      </trkpt>
      <trkpt lat="45.57563" lon="6.88436">
        <ele>1207</ele>
        <time>2021-07-23T08:47:59.285Z</time>
      </trkpt>
      <trkpt lat="45.57561" lon="6.88437">
        <ele>1207.4</ele>
        <time>2021-07-23T08:48:00.285Z</time>
      </trkpt>
      <trkpt lat="45.57559" lon="6.88437">
        <ele>1207.8</ele>
        <time>2021-07-23T08:48:01.285Z</time>
      </trkpt>
      <trkpt lat="45.57557" lon="6.88438">
        <ele>1208.2</ele>
        <time>2021-07-23T08:48:02.285Z</time>
      </trkpt>
      <trkpt lat="45.57554" lon="6.88438">
        <ele>1208.2</ele>
        <time>2021-07-23T08:48:03.285Z</time>
      </trkpt>
      <trkpt lat="45.57552" lon="6.88438">
        <ele>1208.2</ele>
        <time>2021-07-23T08:48:04.285Z</time>
      </trkpt>
      <trkpt lat="45.5755" lon="6.88439">
        <ele>1208.2</ele>
        <time>2021-07-23T08:48:05.285Z</time>
      </trkpt>
      <trkpt lat="45.57547" lon="6.88438">
        <ele>1208.2</ele>
        <time>2021-07-23T08:48:06.285Z</time>
      </trkpt>
      <trkpt lat="45.57545" lon="6.88438">
        <ele>1208.2</ele>
        <time>2021-07-23T08:48:07.285Z</time>
      </trkpt>
      <trkpt lat="45.57543" lon="6.88437">
        <ele>1208.8</ele>
        <time>2021-07-23T08:48:08.285Z</time>
      </trkpt>
      <trkpt lat="45.5754" lon="6.88436">
        <ele>1209.6</ele>
        <time>2021-07-23T08:48:09.285Z</time>
      </trkpt>
      <trkpt lat="45.57538" lon="6.88436">
        <ele>1210</ele>
        <time>2021-07-23T08:48:10.285Z</time>
      </trkpt>
      <trkpt lat="45.57536" lon="6.88435">
        <ele>1210.4</ele>
        <time>2021-07-23T08:48:11.285Z</time>
      </trkpt>
      <trkpt lat="45.57534" lon="6.88434">
        <ele>1210.4</ele>
        <time>2021-07-23T08:48:12.285Z</time>
      </trkpt>
      <trkpt lat="45.57532" lon="6.88433">
        <ele>1210.4</ele>
        <time>2021-07-23T08:48:13.285Z</time>
      </trkpt>
      <trkpt lat="45.5753" lon="6.88432">
        <ele>1210.4</ele>
        <time>2021-07-23T08:48:14.285Z</time>
      </trkpt>
      <trkpt lat="45.57528" lon="6.88431">
        <ele>1210.8</ele>
        <time>2021-07-23T08:48:15.285Z</time>
      </trkpt>
      <trkpt lat="45.57526" lon="6.8843">
        <ele>1211.4</ele>
        <time>2021-07-23T08:48:16.285Z</time>
      </trkpt>
      <trkpt lat="45.57523" lon="6.88429">
        <ele>1211.8</ele>
        <time>2021-07-23T08:48:17.285Z</time>
      </trkpt>
      <trkpt lat="45.57521" lon="6.88429">
        <ele>1212.2</ele>
        <time>2021-07-23T08:48:18.285Z</time>
      </trkpt>
      <trkpt lat="45.57519" lon="6.88428">
        <ele>1212.6</ele>
        <time>2021-07-23T08:48:19.285Z</time>
      </trkpt>
      <trkpt lat="45.57517" lon="6.88427">
        <ele>1212.6</ele>
        <time>2021-07-23T08:48:20.285Z</time>
      </trkpt>
      <trkpt lat="45.57515" lon="6.88426">
        <ele>1212.6</ele>
        <time>2021-07-23T08:48:21.285Z</time>
      </trkpt>
      <trkpt lat="45.57513" lon="6.88426">
        <ele>1212.6</ele>
        <time>2021-07-23T08:48:22.285Z</time>
      </trkpt>
      <trkpt lat="45.5751" lon="6.88425">
        <ele>1213</ele>
        <time>2021-07-23T08:48:23.285Z</time>
      </trkpt>
      <trkpt lat="45.57508" lon="6.88425">
        <ele>1213.4</ele>
        <time>2021-07-23T08:48:24.285Z</time>
      </trkpt>
      <trkpt lat="45.57506" lon="6.88424">
        <ele>1213.8</ele>
        <time>2021-07-23T08:48:25.285Z</time>
      </trkpt>
      <trkpt lat="45.57503" lon="6.88423">
        <ele>1214.2</ele>
        <time>2021-07-23T08:48:26.285Z</time>
      </trkpt>
      <trkpt lat="45.57501" lon="6.88422">
        <ele>1214.6</ele>
        <time>2021-07-23T08:48:27.285Z</time>
      </trkpt>
      <trkpt lat="45.57499" lon="6.88422">
        <ele>1214.6</ele>
        <time>2021-07-23T08:48:28.285Z</time>
      </trkpt>
      <trkpt lat="45.57496" lon="6.88421">
        <ele>1214.6</ele>
        <time>2021-07-23T08:48:29.285Z</time>
      </trkpt>
      <trkpt lat="45.57494" lon="6.88421">
        <ele>1215</ele>
        <time>2021-07-23T08:48:30.285Z</time>
      </trkpt>
      <trkpt lat="45.57492" lon="6.88421">
        <ele>1215.4</ele>
        <time>2021-07-23T08:48:31.285Z</time>
      </trkpt>
      <trkpt lat="45.5749" lon="6.88421">
        <ele>1215.8</ele>
        <time>2021-07-23T08:48:32.285Z</time>
      </trkpt>
      <trkpt lat="45.57487" lon="6.88422">
        <ele>1216.2</ele>
        <time>2021-07-23T08:48:33.285Z</time>
      </trkpt>
      <trkpt lat="45.57485" lon="6.88422">
        <ele>1216.6</ele>
        <time>2021-07-23T08:48:34.285Z</time>
      </trkpt>
      <trkpt lat="45.57483" lon="6.88423">
        <ele>1216.6</ele>
        <time>2021-07-23T08:48:35.285Z</time>
      </trkpt>
      <trkpt lat="45.5748" lon="6.88425">
        <ele>1216.6</ele>
        <time>2021-07-23T08:48:36.285Z</time>
      </trkpt>
      <trkpt lat="45.57478" lon="6.88426">
        <ele>1216.6</ele>
        <time>2021-07-23T08:48:37.285Z</time>
      </trkpt>
      <trkpt lat="45.57476" lon="6.88428">
        <ele>1216.6</ele>
        <time>2021-07-23T08:48:38.285Z</time>
      </trkpt>
      <trkpt lat="45.57474" lon="6.88429">
        <ele>1216.6</ele>
        <time>2021-07-23T08:48:39.285Z</time>
      </trkpt>
      <trkpt lat="45.57472" lon="6.8843">
        <ele>1216.6</ele>
        <time>2021-07-23T08:48:40.285Z</time>
      </trkpt>
      <trkpt lat="45.5747" lon="6.88431">
        <ele>1217</ele>
        <time>2021-07-23T08:48:41.285Z</time>
      </trkpt>
      <trkpt lat="45.57469" lon="6.88431">
        <ele>1217.4</ele>
        <time>2021-07-23T08:48:42.285Z</time>
      </trkpt>
      <trkpt lat="45.57467" lon="6.88432">
        <ele>1217.8</ele>
        <time>2021-07-23T08:48:43.285Z</time>
      </trkpt>
      <trkpt lat="45.57466" lon="6.88432">
        <ele>1218.2</ele>
        <time>2021-07-23T08:48:44.285Z</time>
      </trkpt>
      <trkpt lat="45.57465" lon="6.88432">
        <ele>1218.6</ele>
        <time>2021-07-23T08:48:45.285Z</time>
      </trkpt>
      <trkpt lat="45.57465" lon="6.88432">
        <ele>1218.6</ele>
        <time>2021-07-23T08:48:46.285Z</time>
      </trkpt>
      <trkpt lat="45.57442" lon="6.88447">
        <ele>1218.6</ele>
        <time>2021-07-23T08:48:47.285Z</time>
      </trkpt>
      <trkpt lat="45.57441" lon="6.88449">
        <ele>1218.6</ele>
        <time>2021-07-23T08:48:48.285Z</time>
      </trkpt>
      <trkpt lat="45.57439" lon="6.88451">
        <ele>1218.6</ele>
        <time>2021-07-23T08:48:49.285Z</time>
      </trkpt>
      <trkpt lat="45.57437" lon="6.88453">
        <ele>1218.6</ele>
        <time>2021-07-23T08:48:50.285Z</time>
      </trkpt>
      <trkpt lat="45.57435" lon="6.88454">
        <ele>1219</ele>
        <time>2021-07-23T08:48:51.285Z</time>
      </trkpt>
      <trkpt lat="45.57433" lon="6.88456">
        <ele>1219.4</ele>
        <time>2021-07-23T08:48:52.285Z</time>
      </trkpt>
      <trkpt lat="45.57432" lon="6.88457">
        <ele>1219.8</ele>
        <time>2021-07-23T08:48:53.285Z</time>
      </trkpt>
      <trkpt lat="45.5743" lon="6.88459">
        <ele>1220.2</ele>
        <time>2021-07-23T08:48:54.285Z</time>
      </trkpt>
      <trkpt lat="45.57428" lon="6.88461">
        <ele>1220.6</ele>
        <time>2021-07-23T08:48:55.285Z</time>
      </trkpt>
      <trkpt lat="45.57425" lon="6.88463">
        <ele>1220.6</ele>
        <time>2021-07-23T08:48:56.285Z</time>
      </trkpt>
      <trkpt lat="45.57424" lon="6.88465">
        <ele>1220.6</ele>
        <time>2021-07-23T08:48:57.285Z</time>
      </trkpt>
      <trkpt lat="45.57422" lon="6.88466">
        <ele>1220.6</ele>
        <time>2021-07-23T08:48:58.285Z</time>
      </trkpt>
      <trkpt lat="45.5742" lon="6.88468">
        <ele>1220.6</ele>
        <time>2021-07-23T08:48:59.285Z</time>
      </trkpt>
      <trkpt lat="45.57418" lon="6.8847">
        <ele>1220.6</ele>
        <time>2021-07-23T08:49:00.285Z</time>
      </trkpt>
      <trkpt lat="45.57416" lon="6.88472">
        <ele>1221</ele>
        <time>2021-07-23T08:49:01.285Z</time>
      </trkpt>
      <trkpt lat="45.57414" lon="6.88474">
        <ele>1221.4</ele>
        <time>2021-07-23T08:49:02.285Z</time>
      </trkpt>
      <trkpt lat="45.57413" lon="6.88476">
        <ele>1222</ele>
        <time>2021-07-23T08:49:03.285Z</time>
      </trkpt>
      <trkpt lat="45.57411" lon="6.88477">
        <ele>1222.4</ele>
        <time>2021-07-23T08:49:04.285Z</time>
      </trkpt>
      <trkpt lat="45.57409" lon="6.88479">
        <ele>1222.8</ele>
        <time>2021-07-23T08:49:05.285Z</time>
      </trkpt>
      <trkpt lat="45.57407" lon="6.88481">
        <ele>1222.8</ele>
        <time>2021-07-23T08:49:06.285Z</time>
      </trkpt>
      <trkpt lat="45.57405" lon="6.88483">
        <ele>1222.8</ele>
        <time>2021-07-23T08:49:07.285Z</time>
      </trkpt>
      <trkpt lat="45.57403" lon="6.88485">
        <ele>1222.8</ele>
        <time>2021-07-23T08:49:08.285Z</time>
      </trkpt>
      <trkpt lat="45.57401" lon="6.88487">
        <ele>1222.8</ele>
        <time>2021-07-23T08:49:09.285Z</time>
      </trkpt>
      <trkpt lat="45.57399" lon="6.88489">
        <ele>1222.8</ele>
        <time>2021-07-23T08:49:10.285Z</time>
      </trkpt>
      <trkpt lat="45.57396" lon="6.88491">
        <ele>1222.8</ele>
        <time>2021-07-23T08:49:11.285Z</time>
      </trkpt>
      <trkpt lat="45.57394" lon="6.88494">
        <ele>1222.8</ele>
        <time>2021-07-23T08:49:12.285Z</time>
      </trkpt>
      <trkpt lat="45.57392" lon="6.88496">
        <ele>1222.8</ele>
        <time>2021-07-23T08:49:13.285Z</time>
      </trkpt>
      <trkpt lat="45.5739" lon="6.88499">
        <ele>1223.2</ele>
        <time>2021-07-23T08:49:14.285Z</time>
      </trkpt>
      <trkpt lat="45.57388" lon="6.88501">
        <ele>1223.6</ele>
        <time>2021-07-23T08:49:15.285Z</time>
      </trkpt>
      <trkpt lat="45.57386" lon="6.88503">
        <ele>1224</ele>
        <time>2021-07-23T08:49:16.285Z</time>
      </trkpt>
      <trkpt lat="45.57384" lon="6.88505">
        <ele>1224.6</ele>
        <time>2021-07-23T08:49:17.285Z</time>
      </trkpt>
      <trkpt lat="45.57382" lon="6.88507">
        <ele>1225</ele>
        <time>2021-07-23T08:49:18.285Z</time>
      </trkpt>
      <trkpt lat="45.5738" lon="6.88509">
        <ele>1225</ele>
        <time>2021-07-23T08:49:19.285Z</time>
      </trkpt>
      <trkpt lat="45.57377" lon="6.88511">
        <ele>1225</ele>
        <time>2021-07-23T08:49:20.285Z</time>
      </trkpt>
      <trkpt lat="45.57375" lon="6.88512">
        <ele>1225</ele>
        <time>2021-07-23T08:49:21.285Z</time>
      </trkpt>
      <trkpt lat="45.57373" lon="6.88514">
        <ele>1225</ele>
        <time>2021-07-23T08:49:22.285Z</time>
      </trkpt>
      <trkpt lat="45.57371" lon="6.88516">
        <ele>1225</ele>
        <time>2021-07-23T08:49:23.285Z</time>
      </trkpt>
      <trkpt lat="45.57368" lon="6.88517">
        <ele>1225</ele>
        <time>2021-07-23T08:49:24.285Z</time>
      </trkpt>
      <trkpt lat="45.57366" lon="6.88519">
        <ele>1225.4</ele>
        <time>2021-07-23T08:49:25.285Z</time>
      </trkpt>
      <trkpt lat="45.57364" lon="6.8852">
        <ele>1225.8</ele>
        <time>2021-07-23T08:49:26.285Z</time>
      </trkpt>
      <trkpt lat="45.57362" lon="6.88521">
        <ele>1226.2</ele>
        <time>2021-07-23T08:49:27.285Z</time>
      </trkpt>
      <trkpt lat="45.57359" lon="6.88522">
        <ele>1226.6</ele>
        <time>2021-07-23T08:49:28.285Z</time>
      </trkpt>
      <trkpt lat="45.57357" lon="6.88523">
        <ele>1227.2</ele>
        <time>2021-07-23T08:49:29.285Z</time>
      </trkpt>
      <trkpt lat="45.57354" lon="6.88524">
        <ele>1227.2</ele>
        <time>2021-07-23T08:49:30.285Z</time>
      </trkpt>
      <trkpt lat="45.57352" lon="6.88525">
        <ele>1227.2</ele>
        <time>2021-07-23T08:49:31.285Z</time>
      </trkpt>
      <trkpt lat="45.5735" lon="6.88525">
        <ele>1227.2</ele>
        <time>2021-07-23T08:49:32.285Z</time>
      </trkpt>
      <trkpt lat="45.57347" lon="6.88526">
        <ele>1227.2</ele>
        <time>2021-07-23T08:49:33.285Z</time>
      </trkpt>
      <trkpt lat="45.57345" lon="6.88527">
        <ele>1227.2</ele>
        <time>2021-07-23T08:49:34.285Z</time>
      </trkpt>
      <trkpt lat="45.57342" lon="6.88528">
        <ele>1227.2</ele>
        <time>2021-07-23T08:49:35.285Z</time>
      </trkpt>
      <trkpt lat="45.5734" lon="6.8853">
        <ele>1227.6</ele>
        <time>2021-07-23T08:49:36.285Z</time>
      </trkpt>
      <trkpt lat="45.57337" lon="6.88531">
        <ele>1228</ele>
        <time>2021-07-23T08:49:37.285Z</time>
      </trkpt>
      <trkpt lat="45.57334" lon="6.88533">
        <ele>1228.4</ele>
        <time>2021-07-23T08:49:38.285Z</time>
      </trkpt>
      <trkpt lat="45.57332" lon="6.88535">
        <ele>1229</ele>
        <time>2021-07-23T08:49:39.285Z</time>
      </trkpt>
      <trkpt lat="45.5733" lon="6.88537">
        <ele>1229.4</ele>
        <time>2021-07-23T08:49:40.285Z</time>
      </trkpt>
      <trkpt lat="45.57328" lon="6.8854">
        <ele>1229.4</ele>
        <time>2021-07-23T08:49:41.285Z</time>
      </trkpt>
      <trkpt lat="45.57327" lon="6.88542">
        <ele>1229.4</ele>
        <time>2021-07-23T08:49:42.285Z</time>
      </trkpt>
      <trkpt lat="45.57325" lon="6.88544">
        <ele>1229.4</ele>
        <time>2021-07-23T08:49:43.285Z</time>
      </trkpt>
      <trkpt lat="45.57323" lon="6.88547">
        <ele>1229.4</ele>
        <time>2021-07-23T08:49:44.285Z</time>
      </trkpt>
      <trkpt lat="45.57321" lon="6.88549">
        <ele>1229.4</ele>
        <time>2021-07-23T08:49:45.285Z</time>
      </trkpt>
      <trkpt lat="45.5732" lon="6.88552">
        <ele>1229.4</ele>
        <time>2021-07-23T08:49:46.285Z</time>
      </trkpt>
      <trkpt lat="45.57318" lon="6.88554">
        <ele>1229.8</ele>
        <time>2021-07-23T08:49:47.285Z</time>
      </trkpt>
      <trkpt lat="45.57316" lon="6.88557">
        <ele>1230.2</ele>
        <time>2021-07-23T08:49:48.285Z</time>
      </trkpt>
      <trkpt lat="45.57314" lon="6.8856">
        <ele>1230.8</ele>
        <time>2021-07-23T08:49:49.285Z</time>
      </trkpt>
      <trkpt lat="45.57313" lon="6.88563">
        <ele>1231.2</ele>
        <time>2021-07-23T08:49:50.285Z</time>
      </trkpt>
      <trkpt lat="45.57311" lon="6.88565">
        <ele>1231.6</ele>
        <time>2021-07-23T08:49:51.285Z</time>
      </trkpt>
      <trkpt lat="45.5731" lon="6.88568">
        <ele>1231.6</ele>
        <time>2021-07-23T08:49:52.285Z</time>
      </trkpt>
      <trkpt lat="45.57308" lon="6.88571">
        <ele>1231.6</ele>
        <time>2021-07-23T08:49:53.285Z</time>
      </trkpt>
      <trkpt lat="45.57307" lon="6.88573">
        <ele>1231.6</ele>
        <time>2021-07-23T08:49:54.285Z</time>
      </trkpt>
      <trkpt lat="45.57305" lon="6.88576">
        <ele>1232</ele>
        <time>2021-07-23T08:49:55.285Z</time>
      </trkpt>
      <trkpt lat="45.57304" lon="6.88579">
        <ele>1232.4</ele>
        <time>2021-07-23T08:49:56.285Z</time>
      </trkpt>
      <trkpt lat="45.57302" lon="6.88582">
        <ele>1232.8</ele>
        <time>2021-07-23T08:49:57.285Z</time>
      </trkpt>
      <trkpt lat="45.57301" lon="6.88585">
        <ele>1233.2</ele>
        <time>2021-07-23T08:49:58.285Z</time>
      </trkpt>
      <trkpt lat="45.57299" lon="6.88587">
        <ele>1233.6</ele>
        <time>2021-07-23T08:49:59.285Z</time>
      </trkpt>
      <trkpt lat="45.57297" lon="6.8859">
        <ele>1233.6</ele>
        <time>2021-07-23T08:50:00.285Z</time>
      </trkpt>
      <trkpt lat="45.57296" lon="6.88592">
        <ele>1233.6</ele>
        <time>2021-07-23T08:50:01.285Z</time>
      </trkpt>
      <trkpt lat="45.57294" lon="6.88594">
        <ele>1233.6</ele>
        <time>2021-07-23T08:50:02.285Z</time>
      </trkpt>
      <trkpt lat="45.57293" lon="6.88596">
        <ele>1233.6</ele>
        <time>2021-07-23T08:50:03.285Z</time>
      </trkpt>
      <trkpt lat="45.57291" lon="6.88598">
        <ele>1233.6</ele>
        <time>2021-07-23T08:50:04.285Z</time>
      </trkpt>
      <trkpt lat="45.57289" lon="6.886">
        <ele>1234</ele>
        <time>2021-07-23T08:50:05.285Z</time>
      </trkpt>
      <trkpt lat="45.57287" lon="6.88602">
        <ele>1234.6</ele>
        <time>2021-07-23T08:50:06.285Z</time>
      </trkpt>
      <trkpt lat="45.57285" lon="6.88604">
        <ele>1235</ele>
        <time>2021-07-23T08:50:07.285Z</time>
      </trkpt>
      <trkpt lat="45.57283" lon="6.88606">
        <ele>1235.4</ele>
        <time>2021-07-23T08:50:08.285Z</time>
      </trkpt>
      <trkpt lat="45.57281" lon="6.88607">
        <ele>1235.8</ele>
        <time>2021-07-23T08:50:09.285Z</time>
      </trkpt>
      <trkpt lat="45.57279" lon="6.88608">
        <ele>1235.8</ele>
        <time>2021-07-23T08:50:10.285Z</time>
      </trkpt>
      <trkpt lat="45.57277" lon="6.8861">
        <ele>1235.8</ele>
        <time>2021-07-23T08:50:11.285Z</time>
      </trkpt>
      <trkpt lat="45.57275" lon="6.88611">
        <ele>1235.8</ele>
        <time>2021-07-23T08:50:12.285Z</time>
      </trkpt>
      <trkpt lat="45.57272" lon="6.88612">
        <ele>1236.2</ele>
        <time>2021-07-23T08:50:13.285Z</time>
      </trkpt>
      <trkpt lat="45.5727" lon="6.88613">
        <ele>1236.6</ele>
        <time>2021-07-23T08:50:14.285Z</time>
      </trkpt>
      <trkpt lat="45.57268" lon="6.88614">
        <ele>1237.2</ele>
        <time>2021-07-23T08:50:15.285Z</time>
      </trkpt>
      <trkpt lat="45.57265" lon="6.88615">
        <ele>1237.6</ele>
        <time>2021-07-23T08:50:16.285Z</time>
      </trkpt>
      <trkpt lat="45.57263" lon="6.88615">
        <ele>1238</ele>
        <time>2021-07-23T08:50:17.285Z</time>
      </trkpt>
      <trkpt lat="45.57261" lon="6.88616">
        <ele>1238</ele>
        <time>2021-07-23T08:50:18.285Z</time>
      </trkpt>
      <trkpt lat="45.57258" lon="6.88616">
        <ele>1238</ele>
        <time>2021-07-23T08:50:19.285Z</time>
      </trkpt>
      <trkpt lat="45.57256" lon="6.88617">
        <ele>1238</ele>
        <time>2021-07-23T08:50:20.285Z</time>
      </trkpt>
      <trkpt lat="45.57254" lon="6.88617">
        <ele>1238</ele>
        <time>2021-07-23T08:50:21.285Z</time>
      </trkpt>
      <trkpt lat="45.57252" lon="6.88617">
        <ele>1238</ele>
        <time>2021-07-23T08:50:22.285Z</time>
      </trkpt>
      <trkpt lat="45.57249" lon="6.88618">
        <ele>1238</ele>
        <time>2021-07-23T08:50:23.285Z</time>
      </trkpt>
      <trkpt lat="45.57247" lon="6.88618">
        <ele>1238.4</ele>
        <time>2021-07-23T08:50:24.285Z</time>
      </trkpt>
      <trkpt lat="45.57245" lon="6.88618">
        <ele>1239</ele>
        <time>2021-07-23T08:50:25.285Z</time>
      </trkpt>
      <trkpt lat="45.57242" lon="6.88618">
        <ele>1239.4</ele>
        <time>2021-07-23T08:50:26.285Z</time>
      </trkpt>
      <trkpt lat="45.5724" lon="6.88618">
        <ele>1239.8</ele>
        <time>2021-07-23T08:50:27.285Z</time>
      </trkpt>
      <trkpt lat="45.57237" lon="6.88619">
        <ele>1240.2</ele>
        <time>2021-07-23T08:50:28.285Z</time>
      </trkpt>
      <trkpt lat="45.57235" lon="6.88619">
        <ele>1240.2</ele>
        <time>2021-07-23T08:50:29.285Z</time>
      </trkpt>
      <trkpt lat="45.57233" lon="6.88619">
        <ele>1240.2</ele>
        <time>2021-07-23T08:50:30.285Z</time>
      </trkpt>
      <trkpt lat="45.5723" lon="6.8862">
        <ele>1240.2</ele>
        <time>2021-07-23T08:50:31.285Z</time>
      </trkpt>
      <trkpt lat="45.57227" lon="6.88621">
        <ele>1240.2</ele>
        <time>2021-07-23T08:50:32.285Z</time>
      </trkpt>
      <trkpt lat="45.57224" lon="6.88623">
        <ele>1240.2</ele>
        <time>2021-07-23T08:50:33.285Z</time>
      </trkpt>
      <trkpt lat="45.57221" lon="6.88624">
        <ele>1240.2</ele>
        <time>2021-07-23T08:50:34.285Z</time>
      </trkpt>
      <trkpt lat="45.57218" lon="6.88626">
        <ele>1240.8</ele>
        <time>2021-07-23T08:50:35.285Z</time>
      </trkpt>
      <trkpt lat="45.57215" lon="6.88627">
        <ele>1241.2</ele>
        <time>2021-07-23T08:50:36.285Z</time>
      </trkpt>
      <trkpt lat="45.57211" lon="6.88628">
        <ele>1241.6</ele>
        <time>2021-07-23T08:50:37.285Z</time>
      </trkpt>
      <trkpt lat="45.57208" lon="6.88629">
        <ele>1242</ele>
        <time>2021-07-23T08:50:38.285Z</time>
      </trkpt>
      <trkpt lat="45.57204" lon="6.8863">
        <ele>1242.4</ele>
        <time>2021-07-23T08:50:39.285Z</time>
      </trkpt>
      <trkpt lat="45.57201" lon="6.88631">
        <ele>1242.4</ele>
        <time>2021-07-23T08:50:40.285Z</time>
      </trkpt>
      <trkpt lat="45.57198" lon="6.88632">
        <ele>1242.4</ele>
        <time>2021-07-23T08:50:41.285Z</time>
      </trkpt>
      <trkpt lat="45.57194" lon="6.88633">
        <ele>1242.4</ele>
        <time>2021-07-23T08:50:42.285Z</time>
      </trkpt>
      <trkpt lat="45.57191" lon="6.88634">
        <ele>1242.4</ele>
        <time>2021-07-23T08:50:43.285Z</time>
      </trkpt>
      <trkpt lat="45.57187" lon="6.88635">
        <ele>1242.4</ele>
        <time>2021-07-23T08:50:44.285Z</time>
      </trkpt>
      <trkpt lat="45.57183" lon="6.88636">
        <ele>1242.4</ele>
        <time>2021-07-23T08:50:45.285Z</time>
      </trkpt>
      <trkpt lat="45.57179" lon="6.88638">
        <ele>1242.4</ele>
        <time>2021-07-23T08:50:46.285Z</time>
      </trkpt>
      <trkpt lat="45.57175" lon="6.88639">
        <ele>1242.4</ele>
        <time>2021-07-23T08:50:47.285Z</time>
      </trkpt>
      <trkpt lat="45.57171" lon="6.8864">
        <ele>1242.4</ele>
        <time>2021-07-23T08:50:48.285Z</time>
      </trkpt>
      <trkpt lat="45.57167" lon="6.88641">
        <ele>1242.4</ele>
        <time>2021-07-23T08:50:49.285Z</time>
      </trkpt>
      <trkpt lat="45.57163" lon="6.88642">
        <ele>1242.4</ele>
        <time>2021-07-23T08:50:50.285Z</time>
      </trkpt>
      <trkpt lat="45.57159" lon="6.88644">
        <ele>1242.4</ele>
        <time>2021-07-23T08:50:51.285Z</time>
      </trkpt>
      <trkpt lat="45.57154" lon="6.88645">
        <ele>1242.4</ele>
        <time>2021-07-23T08:50:52.285Z</time>
      </trkpt>
      <trkpt lat="45.5715" lon="6.88646">
        <ele>1242.4</ele>
        <time>2021-07-23T08:50:53.285Z</time>
      </trkpt>
      <trkpt lat="45.57146" lon="6.88648">
        <ele>1242.8</ele>
        <time>2021-07-23T08:50:54.285Z</time>
      </trkpt>
      <trkpt lat="45.57142" lon="6.88651">
        <ele>1243.2</ele>
        <time>2021-07-23T08:50:55.285Z</time>
      </trkpt>
      <trkpt lat="45.57138" lon="6.88653">
        <ele>1243.6</ele>
        <time>2021-07-23T08:50:56.285Z</time>
      </trkpt>
      <trkpt lat="45.57134" lon="6.88655">
        <ele>1244</ele>
        <time>2021-07-23T08:50:57.285Z</time>
      </trkpt>
      <trkpt lat="45.5713" lon="6.88657">
        <ele>1244.6</ele>
        <time>2021-07-23T08:50:58.285Z</time>
      </trkpt>
      <trkpt lat="45.57126" lon="6.8866">
        <ele>1244.6</ele>
        <time>2021-07-23T08:50:59.285Z</time>
      </trkpt>
      <trkpt lat="45.57122" lon="6.88663">
        <ele>1244.6</ele>
        <time>2021-07-23T08:51:00.285Z</time>
      </trkpt>
      <trkpt lat="45.57117" lon="6.88665">
        <ele>1244.6</ele>
        <time>2021-07-23T08:51:01.285Z</time>
      </trkpt>
      <trkpt lat="45.57113" lon="6.88668">
        <ele>1244.6</ele>
        <time>2021-07-23T08:51:02.285Z</time>
      </trkpt>
      <trkpt lat="45.5711" lon="6.8867">
        <ele>1244.6</ele>
        <time>2021-07-23T08:51:03.285Z</time>
      </trkpt>
      <trkpt lat="45.57106" lon="6.88673">
        <ele>1244.6</ele>
        <time>2021-07-23T08:51:04.285Z</time>
      </trkpt>
      <trkpt lat="45.57102" lon="6.88675">
        <ele>1244.6</ele>
        <time>2021-07-23T08:51:05.285Z</time>
      </trkpt>
      <trkpt lat="45.57098" lon="6.88678">
        <ele>1244.6</ele>
        <time>2021-07-23T08:51:06.285Z</time>
      </trkpt>
      <trkpt lat="45.57095" lon="6.8868">
        <ele>1244.6</ele>
        <time>2021-07-23T08:51:07.285Z</time>
      </trkpt>
      <trkpt lat="45.57091" lon="6.88683">
        <ele>1244.6</ele>
        <time>2021-07-23T08:51:08.285Z</time>
      </trkpt>
      <trkpt lat="45.57087" lon="6.88685">
        <ele>1244.6</ele>
        <time>2021-07-23T08:51:09.285Z</time>
      </trkpt>
      <trkpt lat="45.57084" lon="6.88687">
        <ele>1244.6</ele>
        <time>2021-07-23T08:51:10.285Z</time>
      </trkpt>
      <trkpt lat="45.5708" lon="6.88689">
        <ele>1244.6</ele>
        <time>2021-07-23T08:51:11.285Z</time>
      </trkpt>
      <trkpt lat="45.57077" lon="6.88691">
        <ele>1245</ele>
        <time>2021-07-23T08:51:12.285Z</time>
      </trkpt>
      <trkpt lat="45.57074" lon="6.88694">
        <ele>1245.4</ele>
        <time>2021-07-23T08:51:13.285Z</time>
      </trkpt>
      <trkpt lat="45.57071" lon="6.88696">
        <ele>1245.8</ele>
        <time>2021-07-23T08:51:14.285Z</time>
      </trkpt>
      <trkpt lat="45.57067" lon="6.88697">
        <ele>1246.2</ele>
        <time>2021-07-23T08:51:15.285Z</time>
      </trkpt>
      <trkpt lat="45.57064" lon="6.88699">
        <ele>1246.6</ele>
        <time>2021-07-23T08:51:16.285Z</time>
      </trkpt>
      <trkpt lat="45.57061" lon="6.88701">
        <ele>1246.6</ele>
        <time>2021-07-23T08:51:17.285Z</time>
      </trkpt>
      <trkpt lat="45.57058" lon="6.88703">
        <ele>1246.6</ele>
        <time>2021-07-23T08:51:18.285Z</time>
      </trkpt>
      <trkpt lat="45.57055" lon="6.88705">
        <ele>1246.6</ele>
        <time>2021-07-23T08:51:19.285Z</time>
      </trkpt>
      <trkpt lat="45.57052" lon="6.88707">
        <ele>1246.6</ele>
        <time>2021-07-23T08:51:20.285Z</time>
      </trkpt>
      <trkpt lat="45.57049" lon="6.88709">
        <ele>1247</ele>
        <time>2021-07-23T08:51:21.285Z</time>
      </trkpt>
      <trkpt lat="45.57047" lon="6.88712">
        <ele>1247.4</ele>
        <time>2021-07-23T08:51:22.285Z</time>
      </trkpt>
      <trkpt lat="45.57044" lon="6.88715">
        <ele>1248.2</ele>
        <time>2021-07-23T08:51:23.285Z</time>
      </trkpt>
      <trkpt lat="45.57041" lon="6.88718">
        <ele>1248.6</ele>
        <time>2021-07-23T08:51:24.285Z</time>
      </trkpt>
      <trkpt lat="45.57039" lon="6.88721">
        <ele>1248.6</ele>
        <time>2021-07-23T08:51:25.285Z</time>
      </trkpt>
      <trkpt lat="45.57036" lon="6.88724">
        <ele>1248.6</ele>
        <time>2021-07-23T08:51:26.285Z</time>
      </trkpt>
      <trkpt lat="45.57034" lon="6.88727">
        <ele>1248.6</ele>
        <time>2021-07-23T08:51:27.285Z</time>
      </trkpt>
      <trkpt lat="45.57031" lon="6.8873">
        <ele>1248.6</ele>
        <time>2021-07-23T08:51:28.285Z</time>
      </trkpt>
      <trkpt lat="45.57029" lon="6.88733">
        <ele>1249</ele>
        <time>2021-07-23T08:51:29.285Z</time>
      </trkpt>
      <trkpt lat="45.57026" lon="6.88736">
        <ele>1249.4</ele>
        <time>2021-07-23T08:51:30.285Z</time>
      </trkpt>
      <trkpt lat="45.57024" lon="6.88739">
        <ele>1249.8</ele>
        <time>2021-07-23T08:51:31.285Z</time>
      </trkpt>
      <trkpt lat="45.57022" lon="6.88742">
        <ele>1250.2</ele>
        <time>2021-07-23T08:51:32.285Z</time>
      </trkpt>
      <trkpt lat="45.5702" lon="6.88745">
        <ele>1250.6</ele>
        <time>2021-07-23T08:51:33.285Z</time>
      </trkpt>
      <trkpt lat="45.57017" lon="6.88748">
        <ele>1250.6</ele>
        <time>2021-07-23T08:51:34.285Z</time>
      </trkpt>
      <trkpt lat="45.57015" lon="6.88751">
        <ele>1250.6</ele>
        <time>2021-07-23T08:51:35.285Z</time>
      </trkpt>
      <trkpt lat="45.57013" lon="6.88754">
        <ele>1250.6</ele>
        <time>2021-07-23T08:51:36.285Z</time>
      </trkpt>
      <trkpt lat="45.57011" lon="6.88757">
        <ele>1250.6</ele>
        <time>2021-07-23T08:51:37.285Z</time>
      </trkpt>
      <trkpt lat="45.57009" lon="6.8876">
        <ele>1250.6</ele>
        <time>2021-07-23T08:51:38.285Z</time>
      </trkpt>
      <trkpt lat="45.57007" lon="6.88764">
        <ele>1251.2</ele>
        <time>2021-07-23T08:51:39.285Z</time>
      </trkpt>
      <trkpt lat="45.57006" lon="6.88767">
        <ele>1251.6</ele>
        <time>2021-07-23T08:51:40.285Z</time>
      </trkpt>
      <trkpt lat="45.57004" lon="6.8877">
        <ele>1252</ele>
        <time>2021-07-23T08:51:41.285Z</time>
      </trkpt>
      <trkpt lat="45.57002" lon="6.88773">
        <ele>1252.4</ele>
        <time>2021-07-23T08:51:42.285Z</time>
      </trkpt>
      <trkpt lat="45.57" lon="6.88776">
        <ele>1252.8</ele>
        <time>2021-07-23T08:51:43.285Z</time>
      </trkpt>
      <trkpt lat="45.56997" lon="6.88779">
        <ele>1252.8</ele>
        <time>2021-07-23T08:51:44.285Z</time>
      </trkpt>
      <trkpt lat="45.56995" lon="6.88782">
        <ele>1252.8</ele>
        <time>2021-07-23T08:51:45.285Z</time>
      </trkpt>
      <trkpt lat="45.56993" lon="6.88785">
        <ele>1252.8</ele>
        <time>2021-07-23T08:51:46.285Z</time>
      </trkpt>
      <trkpt lat="45.56991" lon="6.88787">
        <ele>1252.8</ele>
        <time>2021-07-23T08:51:47.285Z</time>
      </trkpt>
      <trkpt lat="45.56989" lon="6.8879">
        <ele>1253.2</ele>
        <time>2021-07-23T08:51:48.285Z</time>
      </trkpt>
      <trkpt lat="45.56987" lon="6.88793">
        <ele>1253.6</ele>
        <time>2021-07-23T08:51:49.285Z</time>
      </trkpt>
      <trkpt lat="45.56984" lon="6.88795">
        <ele>1254</ele>
        <time>2021-07-23T08:51:50.285Z</time>
      </trkpt>
      <trkpt lat="45.56982" lon="6.88798">
        <ele>1254.6</ele>
        <time>2021-07-23T08:51:51.285Z</time>
      </trkpt>
      <trkpt lat="45.56979" lon="6.888">
        <ele>1255</ele>
        <time>2021-07-23T08:51:52.285Z</time>
      </trkpt>
      <trkpt lat="45.56977" lon="6.88803">
        <ele>1255</ele>
        <time>2021-07-23T08:51:53.285Z</time>
      </trkpt>
      <trkpt lat="45.56975" lon="6.88806">
        <ele>1255</ele>
        <time>2021-07-23T08:51:54.285Z</time>
      </trkpt>
      <trkpt lat="45.56972" lon="6.88808">
        <ele>1255</ele>
        <time>2021-07-23T08:51:55.285Z</time>
      </trkpt>
      <trkpt lat="45.5697" lon="6.88811">
        <ele>1255</ele>
        <time>2021-07-23T08:51:56.285Z</time>
      </trkpt>
      <trkpt lat="45.56968" lon="6.88814">
        <ele>1255.4</ele>
        <time>2021-07-23T08:51:57.285Z</time>
      </trkpt>
      <trkpt lat="45.56966" lon="6.88817">
        <ele>1255.8</ele>
        <time>2021-07-23T08:51:58.285Z</time>
      </trkpt>
      <trkpt lat="45.56963" lon="6.88819">
        <ele>1256.4</ele>
        <time>2021-07-23T08:51:59.285Z</time>
      </trkpt>
      <trkpt lat="45.56961" lon="6.88822">
        <ele>1256.8</ele>
        <time>2021-07-23T08:52:00.285Z</time>
      </trkpt>
      <trkpt lat="45.56958" lon="6.88824">
        <ele>1257.2</ele>
        <time>2021-07-23T08:52:01.285Z</time>
      </trkpt>
      <trkpt lat="45.56955" lon="6.88826">
        <ele>1257.2</ele>
        <time>2021-07-23T08:52:02.285Z</time>
      </trkpt>
      <trkpt lat="45.56953" lon="6.88828">
        <ele>1257.2</ele>
        <time>2021-07-23T08:52:03.285Z</time>
      </trkpt>
      <trkpt lat="45.5695" lon="6.88831">
        <ele>1257.2</ele>
        <time>2021-07-23T08:52:04.285Z</time>
      </trkpt>
      <trkpt lat="45.56947" lon="6.88834">
        <ele>1257.2</ele>
        <time>2021-07-23T08:52:05.285Z</time>
      </trkpt>
      <trkpt lat="45.56945" lon="6.88836">
        <ele>1257.6</ele>
        <time>2021-07-23T08:52:06.285Z</time>
      </trkpt>
      <trkpt lat="45.56942" lon="6.88839">
        <ele>1258</ele>
        <time>2021-07-23T08:52:07.285Z</time>
      </trkpt>
      <trkpt lat="45.56939" lon="6.88842">
        <ele>1258.6</ele>
        <time>2021-07-23T08:52:08.285Z</time>
      </trkpt>
      <trkpt lat="45.56937" lon="6.88844">
        <ele>1259</ele>
        <time>2021-07-23T08:52:09.285Z</time>
      </trkpt>
      <trkpt lat="45.56934" lon="6.88846">
        <ele>1259.4</ele>
        <time>2021-07-23T08:52:10.285Z</time>
      </trkpt>
      <trkpt lat="45.56932" lon="6.88848">
        <ele>1259.4</ele>
        <time>2021-07-23T08:52:11.285Z</time>
      </trkpt>
      <trkpt lat="45.56929" lon="6.8885">
        <ele>1259.4</ele>
        <time>2021-07-23T08:52:12.285Z</time>
      </trkpt>
      <trkpt lat="45.56927" lon="6.88853">
        <ele>1259.4</ele>
        <time>2021-07-23T08:52:13.285Z</time>
      </trkpt>
      <trkpt lat="45.56925" lon="6.88855">
        <ele>1259.8</ele>
        <time>2021-07-23T08:52:14.285Z</time>
      </trkpt>
      <trkpt lat="45.56922" lon="6.88858">
        <ele>1260.2</ele>
        <time>2021-07-23T08:52:15.285Z</time>
      </trkpt>
      <trkpt lat="45.5692" lon="6.8886">
        <ele>1260.6</ele>
        <time>2021-07-23T08:52:16.285Z</time>
      </trkpt>
      <trkpt lat="45.56917" lon="6.88862">
        <ele>1261</ele>
        <time>2021-07-23T08:52:17.285Z</time>
      </trkpt>
      <trkpt lat="45.56915" lon="6.88865">
        <ele>1261.4</ele>
        <time>2021-07-23T08:52:18.285Z</time>
      </trkpt>
      <trkpt lat="45.56913" lon="6.88867">
        <ele>1261.4</ele>
        <time>2021-07-23T08:52:19.285Z</time>
      </trkpt>
      <trkpt lat="45.5691" lon="6.88869">
        <ele>1261.4</ele>
        <time>2021-07-23T08:52:20.285Z</time>
      </trkpt>
      <trkpt lat="45.56908" lon="6.88871">
        <ele>1261.4</ele>
        <time>2021-07-23T08:52:21.285Z</time>
      </trkpt>
      <trkpt lat="45.56905" lon="6.88873">
        <ele>1261.4</ele>
        <time>2021-07-23T08:52:22.285Z</time>
      </trkpt>
      <trkpt lat="45.56903" lon="6.88874">
        <ele>1261.4</ele>
        <time>2021-07-23T08:52:23.285Z</time>
      </trkpt>
      <trkpt lat="45.569" lon="6.88876">
        <ele>1262</ele>
        <time>2021-07-23T08:52:24.285Z</time>
      </trkpt>
      <trkpt lat="45.56898" lon="6.88876">
        <ele>1262.4</ele>
        <time>2021-07-23T08:52:25.285Z</time>
      </trkpt>
      <trkpt lat="45.56895" lon="6.88877">
        <ele>1262.8</ele>
        <time>2021-07-23T08:52:26.285Z</time>
      </trkpt>
      <trkpt lat="45.56892" lon="6.88878">
        <ele>1263.2</ele>
        <time>2021-07-23T08:52:27.285Z</time>
      </trkpt>
      <trkpt lat="45.5689" lon="6.88878">
        <ele>1263.6</ele>
        <time>2021-07-23T08:52:28.285Z</time>
      </trkpt>
      <trkpt lat="45.56887" lon="6.88879">
        <ele>1263.6</ele>
        <time>2021-07-23T08:52:29.285Z</time>
      </trkpt>
      <trkpt lat="45.56884" lon="6.88881">
        <ele>1263.6</ele>
        <time>2021-07-23T08:52:30.285Z</time>
      </trkpt>
      <trkpt lat="45.56882" lon="6.88882">
        <ele>1263.6</ele>
        <time>2021-07-23T08:52:31.285Z</time>
      </trkpt>
      <trkpt lat="45.56879" lon="6.88883">
        <ele>1264</ele>
        <time>2021-07-23T08:52:32.285Z</time>
      </trkpt>
      <trkpt lat="45.56877" lon="6.88885">
        <ele>1264.4</ele>
        <time>2021-07-23T08:52:33.285Z</time>
      </trkpt>
      <trkpt lat="45.56874" lon="6.88885">
        <ele>1265</ele>
        <time>2021-07-23T08:52:34.285Z</time>
      </trkpt>
      <trkpt lat="45.56872" lon="6.88886">
        <ele>1265.4</ele>
        <time>2021-07-23T08:52:35.285Z</time>
      </trkpt>
      <trkpt lat="45.56869" lon="6.88888">
        <ele>1265.8</ele>
        <time>2021-07-23T08:52:36.285Z</time>
      </trkpt>
      <trkpt lat="45.56866" lon="6.88889">
        <ele>1265.8</ele>
        <time>2021-07-23T08:52:37.285Z</time>
      </trkpt>
      <trkpt lat="45.56863" lon="6.8889">
        <ele>1265.8</ele>
        <time>2021-07-23T08:52:38.285Z</time>
      </trkpt>
      <trkpt lat="45.5686" lon="6.88891">
        <ele>1265.8</ele>
        <time>2021-07-23T08:52:39.285Z</time>
      </trkpt>
      <trkpt lat="45.56858" lon="6.88893">
        <ele>1265.8</ele>
        <time>2021-07-23T08:52:40.285Z</time>
      </trkpt>
      <trkpt lat="45.56855" lon="6.88894">
        <ele>1266.2</ele>
        <time>2021-07-23T08:52:41.285Z</time>
      </trkpt>
      <trkpt lat="45.56852" lon="6.88896">
        <ele>1266.6</ele>
        <time>2021-07-23T08:52:42.285Z</time>
      </trkpt>
      <trkpt lat="45.5685" lon="6.88897">
        <ele>1267</ele>
        <time>2021-07-23T08:52:43.285Z</time>
      </trkpt>
      <trkpt lat="45.56847" lon="6.88898">
        <ele>1267.4</ele>
        <time>2021-07-23T08:52:44.285Z</time>
      </trkpt>
      <trkpt lat="45.56844" lon="6.889">
        <ele>1267.8</ele>
        <time>2021-07-23T08:52:45.285Z</time>
      </trkpt>
      <trkpt lat="45.56842" lon="6.88902">
        <ele>1267.8</ele>
        <time>2021-07-23T08:52:46.285Z</time>
      </trkpt>
      <trkpt lat="45.56839" lon="6.88904">
        <ele>1267.8</ele>
        <time>2021-07-23T08:52:47.285Z</time>
      </trkpt>
      <trkpt lat="45.56836" lon="6.88906">
        <ele>1267.8</ele>
        <time>2021-07-23T08:52:48.285Z</time>
      </trkpt>
      <trkpt lat="45.56834" lon="6.88907">
        <ele>1267.8</ele>
        <time>2021-07-23T08:52:49.285Z</time>
      </trkpt>
      <trkpt lat="45.56831" lon="6.88909">
        <ele>1267.8</ele>
        <time>2021-07-23T08:52:50.285Z</time>
      </trkpt>
      <trkpt lat="45.56828" lon="6.88911">
        <ele>1268.2</ele>
        <time>2021-07-23T08:52:51.285Z</time>
      </trkpt>
      <trkpt lat="45.56826" lon="6.88913">
        <ele>1268.6</ele>
        <time>2021-07-23T08:52:52.285Z</time>
      </trkpt>
      <trkpt lat="45.56823" lon="6.88914">
        <ele>1269</ele>
        <time>2021-07-23T08:52:53.285Z</time>
      </trkpt>
      <trkpt lat="45.56821" lon="6.88916">
        <ele>1269.4</ele>
        <time>2021-07-23T08:52:54.285Z</time>
      </trkpt>
      <trkpt lat="45.56818" lon="6.88917">
        <ele>1270</ele>
        <time>2021-07-23T08:52:55.285Z</time>
      </trkpt>
      <trkpt lat="45.56816" lon="6.88919">
        <ele>1270</ele>
        <time>2021-07-23T08:52:56.285Z</time>
      </trkpt>
      <trkpt lat="45.56813" lon="6.8892">
        <ele>1270</ele>
        <time>2021-07-23T08:52:57.285Z</time>
      </trkpt>
      <trkpt lat="45.5681" lon="6.88921">
        <ele>1270</ele>
        <time>2021-07-23T08:52:58.285Z</time>
      </trkpt>
      <trkpt lat="45.56808" lon="6.88922">
        <ele>1270.4</ele>
        <time>2021-07-23T08:52:59.285Z</time>
      </trkpt>
      <trkpt lat="45.56805" lon="6.88922">
        <ele>1270.8</ele>
        <time>2021-07-23T08:53:00.285Z</time>
      </trkpt>
      <trkpt lat="45.56802" lon="6.88924">
        <ele>1271.2</ele>
        <time>2021-07-23T08:53:01.285Z</time>
      </trkpt>
      <trkpt lat="45.568" lon="6.88925">
        <ele>1272</ele>
        <time>2021-07-23T08:53:02.285Z</time>
      </trkpt>
      <trkpt lat="45.56797" lon="6.88927">
        <ele>1272</ele>
        <time>2021-07-23T08:53:03.285Z</time>
      </trkpt>
      <trkpt lat="45.56794" lon="6.88928">
        <ele>1272</ele>
        <time>2021-07-23T08:53:04.285Z</time>
      </trkpt>
      <trkpt lat="45.56792" lon="6.8893">
        <ele>1272</ele>
        <time>2021-07-23T08:53:05.285Z</time>
      </trkpt>
      <trkpt lat="45.56789" lon="6.88931">
        <ele>1272</ele>
        <time>2021-07-23T08:53:06.285Z</time>
      </trkpt>
      <trkpt lat="45.56786" lon="6.88932">
        <ele>1272</ele>
        <time>2021-07-23T08:53:07.285Z</time>
      </trkpt>
      <trkpt lat="45.56784" lon="6.88934">
        <ele>1272</ele>
        <time>2021-07-23T08:53:08.285Z</time>
      </trkpt>
      <trkpt lat="45.56781" lon="6.88935">
        <ele>1272.4</ele>
        <time>2021-07-23T08:53:09.285Z</time>
      </trkpt>
      <trkpt lat="45.56778" lon="6.88935">
        <ele>1272.8</ele>
        <time>2021-07-23T08:53:10.285Z</time>
      </trkpt>
      <trkpt lat="45.56775" lon="6.88936">
        <ele>1273.2</ele>
        <time>2021-07-23T08:53:11.285Z</time>
      </trkpt>
      <trkpt lat="45.56773" lon="6.88937">
        <ele>1273.6</ele>
        <time>2021-07-23T08:53:12.285Z</time>
      </trkpt>
      <trkpt lat="45.5677" lon="6.88938">
        <ele>1274</ele>
        <time>2021-07-23T08:53:13.285Z</time>
      </trkpt>
      <trkpt lat="45.56767" lon="6.88939">
        <ele>1274</ele>
        <time>2021-07-23T08:53:14.285Z</time>
      </trkpt>
      <trkpt lat="45.56765" lon="6.8894">
        <ele>1274</ele>
        <time>2021-07-23T08:53:15.285Z</time>
      </trkpt>
      <trkpt lat="45.56762" lon="6.8894">
        <ele>1274</ele>
        <time>2021-07-23T08:53:16.285Z</time>
      </trkpt>
      <trkpt lat="45.56759" lon="6.88941">
        <ele>1274</ele>
        <time>2021-07-23T08:53:17.285Z</time>
      </trkpt>
      <trkpt lat="45.56756" lon="6.88941">
        <ele>1274.6</ele>
        <time>2021-07-23T08:53:18.285Z</time>
      </trkpt>
      <trkpt lat="45.56753" lon="6.88942">
        <ele>1275</ele>
        <time>2021-07-23T08:53:19.285Z</time>
      </trkpt>
      <trkpt lat="45.56751" lon="6.88941">
        <ele>1275.4</ele>
        <time>2021-07-23T08:53:20.285Z</time>
      </trkpt>
      <trkpt lat="45.56748" lon="6.8894">
        <ele>1275.8</ele>
        <time>2021-07-23T08:53:21.285Z</time>
      </trkpt>
      <trkpt lat="45.56745" lon="6.88939">
        <ele>1276.2</ele>
        <time>2021-07-23T08:53:22.285Z</time>
      </trkpt>
      <trkpt lat="45.56742" lon="6.88938">
        <ele>1276.2</ele>
        <time>2021-07-23T08:53:23.285Z</time>
      </trkpt>
      <trkpt lat="45.56739" lon="6.88937">
        <ele>1276.2</ele>
        <time>2021-07-23T08:53:24.285Z</time>
      </trkpt>
      <trkpt lat="45.56736" lon="6.88937">
        <ele>1276.2</ele>
        <time>2021-07-23T08:53:25.285Z</time>
      </trkpt>
      <trkpt lat="45.56734" lon="6.88936">
        <ele>1277</ele>
        <time>2021-07-23T08:53:26.285Z</time>
      </trkpt>
      <trkpt lat="45.56731" lon="6.88935">
        <ele>1277.6</ele>
        <time>2021-07-23T08:53:27.285Z</time>
      </trkpt>
      <trkpt lat="45.56728" lon="6.88934">
        <ele>1278</ele>
        <time>2021-07-23T08:53:28.285Z</time>
      </trkpt>
      <trkpt lat="45.56726" lon="6.88932">
        <ele>1278.4</ele>
        <time>2021-07-23T08:53:29.285Z</time>
      </trkpt>
      <trkpt lat="45.56723" lon="6.88931">
        <ele>1278.4</ele>
        <time>2021-07-23T08:53:30.285Z</time>
      </trkpt>
      <trkpt lat="45.56721" lon="6.8893">
        <ele>1278.4</ele>
        <time>2021-07-23T08:53:31.285Z</time>
      </trkpt>
      <trkpt lat="45.56719" lon="6.88929">
        <ele>1278.8</ele>
        <time>2021-07-23T08:53:32.285Z</time>
      </trkpt>
      <trkpt lat="45.56716" lon="6.88928">
        <ele>1279.2</ele>
        <time>2021-07-23T08:53:33.285Z</time>
      </trkpt>
      <trkpt lat="45.56713" lon="6.88927">
        <ele>1279.6</ele>
        <time>2021-07-23T08:53:34.285Z</time>
      </trkpt>
      <trkpt lat="45.5671" lon="6.88927">
        <ele>1280</ele>
        <time>2021-07-23T08:53:35.285Z</time>
      </trkpt>
      <trkpt lat="45.56708" lon="6.88927">
        <ele>1280.6</ele>
        <time>2021-07-23T08:53:36.285Z</time>
      </trkpt>
      <trkpt lat="45.56705" lon="6.88928">
        <ele>1280.6</ele>
        <time>2021-07-23T08:53:37.285Z</time>
      </trkpt>
      <trkpt lat="45.56702" lon="6.88929">
        <ele>1280.6</ele>
        <time>2021-07-23T08:53:38.285Z</time>
      </trkpt>
      <trkpt lat="45.567" lon="6.88931">
        <ele>1280.6</ele>
        <time>2021-07-23T08:53:39.285Z</time>
      </trkpt>
      <trkpt lat="45.56697" lon="6.88932">
        <ele>1281</ele>
        <time>2021-07-23T08:53:40.285Z</time>
      </trkpt>
      <trkpt lat="45.56695" lon="6.88934">
        <ele>1281.4</ele>
        <time>2021-07-23T08:53:41.285Z</time>
      </trkpt>
      <trkpt lat="45.56692" lon="6.88936">
        <ele>1281.8</ele>
        <time>2021-07-23T08:53:42.285Z</time>
      </trkpt>
      <trkpt lat="45.5669" lon="6.88938">
        <ele>1282.2</ele>
        <time>2021-07-23T08:53:43.285Z</time>
      </trkpt>
      <trkpt lat="45.56688" lon="6.88941">
        <ele>1282.6</ele>
        <time>2021-07-23T08:53:44.285Z</time>
      </trkpt>
      <trkpt lat="45.56685" lon="6.88943">
        <ele>1282.6</ele>
        <time>2021-07-23T08:53:45.285Z</time>
      </trkpt>
      <trkpt lat="45.56683" lon="6.88946">
        <ele>1282.6</ele>
        <time>2021-07-23T08:53:46.285Z</time>
      </trkpt>
      <trkpt lat="45.56681" lon="6.88948">
        <ele>1282.6</ele>
        <time>2021-07-23T08:53:47.285Z</time>
      </trkpt>
      <trkpt lat="45.56679" lon="6.88951">
        <ele>1282.6</ele>
        <time>2021-07-23T08:53:48.285Z</time>
      </trkpt>
      <trkpt lat="45.56678" lon="6.88954">
        <ele>1283</ele>
        <time>2021-07-23T08:53:49.285Z</time>
      </trkpt>
      <trkpt lat="45.56676" lon="6.88957">
        <ele>1283.4</ele>
        <time>2021-07-23T08:53:50.285Z</time>
      </trkpt>
      <trkpt lat="45.56674" lon="6.8896">
        <ele>1284.2</ele>
        <time>2021-07-23T08:53:51.285Z</time>
      </trkpt>
      <trkpt lat="45.56672" lon="6.88963">
        <ele>1284.8</ele>
        <time>2021-07-23T08:53:52.285Z</time>
      </trkpt>
      <trkpt lat="45.56671" lon="6.88966">
        <ele>1284.8</ele>
        <time>2021-07-23T08:53:53.285Z</time>
      </trkpt>
      <trkpt lat="45.56669" lon="6.8897">
        <ele>1284.8</ele>
        <time>2021-07-23T08:53:54.285Z</time>
      </trkpt>
      <trkpt lat="45.56668" lon="6.88972">
        <ele>1284.8</ele>
        <time>2021-07-23T08:53:55.285Z</time>
      </trkpt>
      <trkpt lat="45.56666" lon="6.88975">
        <ele>1285.2</ele>
        <time>2021-07-23T08:53:56.285Z</time>
      </trkpt>
      <trkpt lat="45.56665" lon="6.88979">
        <ele>1285.6</ele>
        <time>2021-07-23T08:53:57.285Z</time>
      </trkpt>
      <trkpt lat="45.56664" lon="6.88982">
        <ele>1286</ele>
        <time>2021-07-23T08:53:58.285Z</time>
      </trkpt>
      <trkpt lat="45.56662" lon="6.88985">
        <ele>1286.4</ele>
        <time>2021-07-23T08:53:59.285Z</time>
      </trkpt>
      <trkpt lat="45.5666" lon="6.88988">
        <ele>1286.8</ele>
        <time>2021-07-23T08:54:00.285Z</time>
      </trkpt>
      <trkpt lat="45.56659" lon="6.8899">
        <ele>1286.8</ele>
        <time>2021-07-23T08:54:01.285Z</time>
      </trkpt>
      <trkpt lat="45.56657" lon="6.88993">
        <ele>1286.8</ele>
        <time>2021-07-23T08:54:02.285Z</time>
      </trkpt>
      <trkpt lat="45.56655" lon="6.88996">
        <ele>1286.8</ele>
        <time>2021-07-23T08:54:03.285Z</time>
      </trkpt>
      <trkpt lat="45.56654" lon="6.88999">
        <ele>1286.8</ele>
        <time>2021-07-23T08:54:04.285Z</time>
      </trkpt>
      <trkpt lat="45.56652" lon="6.89001">
        <ele>1287.2</ele>
        <time>2021-07-23T08:54:05.285Z</time>
      </trkpt>
      <trkpt lat="45.5665" lon="6.89004">
        <ele>1287.6</ele>
        <time>2021-07-23T08:54:06.285Z</time>
      </trkpt>
      <trkpt lat="45.56648" lon="6.89006">
        <ele>1288</ele>
        <time>2021-07-23T08:54:07.285Z</time>
      </trkpt>
      <trkpt lat="45.56646" lon="6.89009">
        <ele>1288.6</ele>
        <time>2021-07-23T08:54:08.285Z</time>
      </trkpt>
      <trkpt lat="45.56643" lon="6.89011">
        <ele>1289</ele>
        <time>2021-07-23T08:54:09.285Z</time>
      </trkpt>
      <trkpt lat="45.56641" lon="6.89013">
        <ele>1289</ele>
        <time>2021-07-23T08:54:10.285Z</time>
      </trkpt>
      <trkpt lat="45.5664" lon="6.89016">
        <ele>1289</ele>
        <time>2021-07-23T08:54:11.285Z</time>
      </trkpt>
      <trkpt lat="45.56638" lon="6.89018">
        <ele>1289</ele>
        <time>2021-07-23T08:54:12.285Z</time>
      </trkpt>
      <trkpt lat="45.56636" lon="6.89021">
        <ele>1289</ele>
        <time>2021-07-23T08:54:13.285Z</time>
      </trkpt>
      <trkpt lat="45.56634" lon="6.89024">
        <ele>1289</ele>
        <time>2021-07-23T08:54:14.285Z</time>
      </trkpt>
      <trkpt lat="45.56632" lon="6.89027">
        <ele>1289.4</ele>
        <time>2021-07-23T08:54:15.285Z</time>
      </trkpt>
      <trkpt lat="45.5663" lon="6.8903">
        <ele>1290.2</ele>
        <time>2021-07-23T08:54:16.285Z</time>
      </trkpt>
      <trkpt lat="45.56628" lon="6.89032">
        <ele>1290.6</ele>
        <time>2021-07-23T08:54:17.285Z</time>
      </trkpt>
      <trkpt lat="45.56626" lon="6.89035">
        <ele>1291.2</ele>
        <time>2021-07-23T08:54:18.285Z</time>
      </trkpt>
      <trkpt lat="45.56624" lon="6.89037">
        <ele>1291.2</ele>
        <time>2021-07-23T08:54:19.285Z</time>
      </trkpt>
      <trkpt lat="45.56622" lon="6.8904">
        <ele>1291.2</ele>
        <time>2021-07-23T08:54:20.285Z</time>
      </trkpt>
      <trkpt lat="45.5662" lon="6.89043">
        <ele>1291.2</ele>
        <time>2021-07-23T08:54:21.285Z</time>
      </trkpt>
      <trkpt lat="45.56618" lon="6.89045">
        <ele>1291.2</ele>
        <time>2021-07-23T08:54:22.285Z</time>
      </trkpt>
      <trkpt lat="45.56616" lon="6.89048">
        <ele>1291.2</ele>
        <time>2021-07-23T08:54:23.285Z</time>
      </trkpt>
      <trkpt lat="45.56614" lon="6.89051">
        <ele>1291.6</ele>
        <time>2021-07-23T08:54:24.285Z</time>
      </trkpt>
      <trkpt lat="45.56612" lon="6.89053">
        <ele>1292</ele>
        <time>2021-07-23T08:54:25.285Z</time>
      </trkpt>
      <trkpt lat="45.5661" lon="6.89056">
        <ele>1292.4</ele>
        <time>2021-07-23T08:54:26.285Z</time>
      </trkpt>
      <trkpt lat="45.56609" lon="6.8906">
        <ele>1292.8</ele>
        <time>2021-07-23T08:54:27.285Z</time>
      </trkpt>
      <trkpt lat="45.56606" lon="6.89062">
        <ele>1293.2</ele>
        <time>2021-07-23T08:54:28.285Z</time>
      </trkpt>
      <trkpt lat="45.56604" lon="6.89065">
        <ele>1293.2</ele>
        <time>2021-07-23T08:54:29.285Z</time>
      </trkpt>
      <trkpt lat="45.56602" lon="6.89068">
        <ele>1293.2</ele>
        <time>2021-07-23T08:54:30.285Z</time>
      </trkpt>
      <trkpt lat="45.566" lon="6.8907">
        <ele>1293.2</ele>
        <time>2021-07-23T08:54:31.285Z</time>
      </trkpt>
      <trkpt lat="45.56597" lon="6.89073">
        <ele>1293.2</ele>
        <time>2021-07-23T08:54:32.285Z</time>
      </trkpt>
      <trkpt lat="45.56595" lon="6.89075">
        <ele>1293.2</ele>
        <time>2021-07-23T08:54:33.285Z</time>
      </trkpt>
      <trkpt lat="45.56593" lon="6.89078">
        <ele>1293.2</ele>
        <time>2021-07-23T08:54:34.285Z</time>
      </trkpt>
      <trkpt lat="45.56591" lon="6.8908">
        <ele>1293.2</ele>
        <time>2021-07-23T08:54:35.285Z</time>
      </trkpt>
      <trkpt lat="45.56589" lon="6.89083">
        <ele>1293.8</ele>
        <time>2021-07-23T08:54:36.285Z</time>
      </trkpt>
      <trkpt lat="45.56586" lon="6.89085">
        <ele>1294.2</ele>
        <time>2021-07-23T08:54:37.285Z</time>
      </trkpt>
      <trkpt lat="45.56584" lon="6.89088">
        <ele>1294.6</ele>
        <time>2021-07-23T08:54:38.285Z</time>
      </trkpt>
      <trkpt lat="45.56582" lon="6.8909">
        <ele>1295</ele>
        <time>2021-07-23T08:54:39.285Z</time>
      </trkpt>
      <trkpt lat="45.56579" lon="6.89092">
        <ele>1295.4</ele>
        <time>2021-07-23T08:54:40.285Z</time>
      </trkpt>
      <trkpt lat="45.56576" lon="6.89093">
        <ele>1295.4</ele>
        <time>2021-07-23T08:54:41.285Z</time>
      </trkpt>
      <trkpt lat="45.56574" lon="6.89095">
        <ele>1295.4</ele>
        <time>2021-07-23T08:54:42.285Z</time>
      </trkpt>
      <trkpt lat="45.56572" lon="6.89097">
        <ele>1295.4</ele>
        <time>2021-07-23T08:54:43.285Z</time>
      </trkpt>
      <trkpt lat="45.56569" lon="6.89099">
        <ele>1295.4</ele>
        <time>2021-07-23T08:54:44.285Z</time>
      </trkpt>
      <trkpt lat="45.56567" lon="6.89101">
        <ele>1295.4</ele>
        <time>2021-07-23T08:54:45.285Z</time>
      </trkpt>
      <trkpt lat="45.56564" lon="6.89103">
        <ele>1295.8</ele>
        <time>2021-07-23T08:54:46.285Z</time>
      </trkpt>
      <trkpt lat="45.56561" lon="6.89104">
        <ele>1296.2</ele>
        <time>2021-07-23T08:54:47.285Z</time>
      </trkpt>
      <trkpt lat="45.56559" lon="6.89105">
        <ele>1296.6</ele>
        <time>2021-07-23T08:54:48.285Z</time>
      </trkpt>
      <trkpt lat="45.56556" lon="6.89107">
        <ele>1297.2</ele>
        <time>2021-07-23T08:54:49.285Z</time>
      </trkpt>
      <trkpt lat="45.56553" lon="6.89109">
        <ele>1297.6</ele>
        <time>2021-07-23T08:54:50.285Z</time>
      </trkpt>
      <trkpt lat="45.5655" lon="6.8911">
        <ele>1297.6</ele>
        <time>2021-07-23T08:54:51.285Z</time>
      </trkpt>
      <trkpt lat="45.56548" lon="6.89112">
        <ele>1297.6</ele>
        <time>2021-07-23T08:54:52.285Z</time>
      </trkpt>
      <trkpt lat="45.56545" lon="6.89113">
        <ele>1297.6</ele>
        <time>2021-07-23T08:54:53.285Z</time>
      </trkpt>
      <trkpt lat="45.56542" lon="6.89114">
        <ele>1297.6</ele>
        <time>2021-07-23T08:54:54.285Z</time>
      </trkpt>
      <trkpt lat="45.56539" lon="6.89116">
        <ele>1297.6</ele>
        <time>2021-07-23T08:54:55.285Z</time>
      </trkpt>
      <trkpt lat="45.56537" lon="6.89117">
        <ele>1298</ele>
        <time>2021-07-23T08:54:56.285Z</time>
      </trkpt>
      <trkpt lat="45.56534" lon="6.89118">
        <ele>1298.4</ele>
        <time>2021-07-23T08:54:57.285Z</time>
      </trkpt>
      <trkpt lat="45.56531" lon="6.8912">
        <ele>1298.8</ele>
        <time>2021-07-23T08:54:58.285Z</time>
      </trkpt>
      <trkpt lat="45.56528" lon="6.89121">
        <ele>1299.2</ele>
        <time>2021-07-23T08:54:59.285Z</time>
      </trkpt>
      <trkpt lat="45.56526" lon="6.89123">
        <ele>1299.6</ele>
        <time>2021-07-23T08:55:00.285Z</time>
      </trkpt>
      <trkpt lat="45.56523" lon="6.89124">
        <ele>1299.6</ele>
        <time>2021-07-23T08:55:01.285Z</time>
      </trkpt>
      <trkpt lat="45.5652" lon="6.89126">
        <ele>1299.6</ele>
        <time>2021-07-23T08:55:02.285Z</time>
      </trkpt>
      <trkpt lat="45.56518" lon="6.89128">
        <ele>1299.6</ele>
        <time>2021-07-23T08:55:03.285Z</time>
      </trkpt>
      <trkpt lat="45.56515" lon="6.8913">
        <ele>1300</ele>
        <time>2021-07-23T08:55:04.285Z</time>
      </trkpt>
      <trkpt lat="45.56512" lon="6.89132">
        <ele>1300.4</ele>
        <time>2021-07-23T08:55:05.285Z</time>
      </trkpt>
      <trkpt lat="45.5651" lon="6.89133">
        <ele>1301.2</ele>
        <time>2021-07-23T08:55:06.285Z</time>
      </trkpt>
      <trkpt lat="45.56507" lon="6.89135">
        <ele>1301.6</ele>
        <time>2021-07-23T08:55:07.285Z</time>
      </trkpt>
      <trkpt lat="45.56505" lon="6.89137">
        <ele>1301.6</ele>
        <time>2021-07-23T08:55:08.285Z</time>
      </trkpt>
      <trkpt lat="45.56502" lon="6.89139">
        <ele>1301.6</ele>
        <time>2021-07-23T08:55:09.285Z</time>
      </trkpt>
      <trkpt lat="45.565" lon="6.89141">
        <ele>1301.6</ele>
        <time>2021-07-23T08:55:10.285Z</time>
      </trkpt>
      <trkpt lat="45.56497" lon="6.89142">
        <ele>1301.6</ele>
        <time>2021-07-23T08:55:11.285Z</time>
      </trkpt>
      <trkpt lat="45.56495" lon="6.89144">
        <ele>1301.6</ele>
        <time>2021-07-23T08:55:12.285Z</time>
      </trkpt>
      <trkpt lat="45.56493" lon="6.89146">
        <ele>1301.6</ele>
        <time>2021-07-23T08:55:13.285Z</time>
      </trkpt>
      <trkpt lat="45.5649" lon="6.89148">
        <ele>1302</ele>
        <time>2021-07-23T08:55:14.285Z</time>
      </trkpt>
      <trkpt lat="45.56487" lon="6.8915">
        <ele>1302.6</ele>
        <time>2021-07-23T08:55:15.285Z</time>
      </trkpt>
      <trkpt lat="45.56485" lon="6.89152">
        <ele>1303</ele>
        <time>2021-07-23T08:55:16.285Z</time>
      </trkpt>
      <trkpt lat="45.56483" lon="6.89155">
        <ele>1303.4</ele>
        <time>2021-07-23T08:55:17.285Z</time>
      </trkpt>
      <trkpt lat="45.5648" lon="6.89157">
        <ele>1303.8</ele>
        <time>2021-07-23T08:55:18.285Z</time>
      </trkpt>
      <trkpt lat="45.56478" lon="6.89159">
        <ele>1303.8</ele>
        <time>2021-07-23T08:55:19.285Z</time>
      </trkpt>
      <trkpt lat="45.56476" lon="6.89161">
        <ele>1303.8</ele>
        <time>2021-07-23T08:55:20.285Z</time>
      </trkpt>
      <trkpt lat="45.56473" lon="6.89163">
        <ele>1303.8</ele>
        <time>2021-07-23T08:55:21.285Z</time>
      </trkpt>
      <trkpt lat="45.56471" lon="6.89165">
        <ele>1303.8</ele>
        <time>2021-07-23T08:55:22.285Z</time>
      </trkpt>
      <trkpt lat="45.56469" lon="6.89168">
        <ele>1303.8</ele>
        <time>2021-07-23T08:55:23.285Z</time>
      </trkpt>
      <trkpt lat="45.56466" lon="6.8917">
        <ele>1303.8</ele>
        <time>2021-07-23T08:55:24.285Z</time>
      </trkpt>
      <trkpt lat="45.56464" lon="6.89173">
        <ele>1303.8</ele>
        <time>2021-07-23T08:55:25.285Z</time>
      </trkpt>
      <trkpt lat="45.56462" lon="6.89175">
        <ele>1304.2</ele>
        <time>2021-07-23T08:55:26.285Z</time>
      </trkpt>
      <trkpt lat="45.5646" lon="6.89177">
        <ele>1304.6</ele>
        <time>2021-07-23T08:55:27.285Z</time>
      </trkpt>
      <trkpt lat="45.56458" lon="6.89179">
        <ele>1305</ele>
        <time>2021-07-23T08:55:28.285Z</time>
      </trkpt>
      <trkpt lat="45.56456" lon="6.89182">
        <ele>1305.4</ele>
        <time>2021-07-23T08:55:29.285Z</time>
      </trkpt>
      <trkpt lat="45.56455" lon="6.89185">
        <ele>1306</ele>
        <time>2021-07-23T08:55:30.285Z</time>
      </trkpt>
      <trkpt lat="45.56453" lon="6.89188">
        <ele>1306</ele>
        <time>2021-07-23T08:55:31.285Z</time>
      </trkpt>
      <trkpt lat="45.56451" lon="6.89191">
        <ele>1306</ele>
        <time>2021-07-23T08:55:32.285Z</time>
      </trkpt>
      <trkpt lat="45.56449" lon="6.89194">
        <ele>1306</ele>
        <time>2021-07-23T08:55:33.285Z</time>
      </trkpt>
      <trkpt lat="45.56447" lon="6.89197">
        <ele>1306</ele>
        <time>2021-07-23T08:55:34.285Z</time>
      </trkpt>
      <trkpt lat="45.56444" lon="6.89199">
        <ele>1306.4</ele>
        <time>2021-07-23T08:55:35.285Z</time>
      </trkpt>
      <trkpt lat="45.56441" lon="6.89201">
        <ele>1306.8</ele>
        <time>2021-07-23T08:55:36.285Z</time>
      </trkpt>
      <trkpt lat="45.56439" lon="6.89203">
        <ele>1307.2</ele>
        <time>2021-07-23T08:55:37.285Z</time>
      </trkpt>
      <trkpt lat="45.56436" lon="6.89204">
        <ele>1307.6</ele>
        <time>2021-07-23T08:55:38.285Z</time>
      </trkpt>
      <trkpt lat="45.56434" lon="6.89206">
        <ele>1308</ele>
        <time>2021-07-23T08:55:39.285Z</time>
      </trkpt>
      <trkpt lat="45.56431" lon="6.89208">
        <ele>1308</ele>
        <time>2021-07-23T08:55:40.285Z</time>
      </trkpt>
      <trkpt lat="45.56429" lon="6.8921">
        <ele>1308</ele>
        <time>2021-07-23T08:55:41.285Z</time>
      </trkpt>
      <trkpt lat="45.56427" lon="6.89212">
        <ele>1308</ele>
        <time>2021-07-23T08:55:42.285Z</time>
      </trkpt>
      <trkpt lat="45.56425" lon="6.89215">
        <ele>1308</ele>
        <time>2021-07-23T08:55:43.285Z</time>
      </trkpt>
      <trkpt lat="45.56422" lon="6.89218">
        <ele>1308</ele>
        <time>2021-07-23T08:55:44.285Z</time>
      </trkpt>
      <trkpt lat="45.5642" lon="6.89221">
        <ele>1308</ele>
        <time>2021-07-23T08:55:45.285Z</time>
      </trkpt>
      <trkpt lat="45.56418" lon="6.89223">
        <ele>1308.6</ele>
        <time>2021-07-23T08:55:46.285Z</time>
      </trkpt>
      <trkpt lat="45.56416" lon="6.89226">
        <ele>1309</ele>
        <time>2021-07-23T08:55:47.285Z</time>
      </trkpt>
      <trkpt lat="45.56414" lon="6.89228">
        <ele>1309.4</ele>
        <time>2021-07-23T08:55:48.285Z</time>
      </trkpt>
      <trkpt lat="45.56412" lon="6.89231">
        <ele>1309.8</ele>
        <time>2021-07-23T08:55:49.285Z</time>
      </trkpt>
      <trkpt lat="45.5641" lon="6.89234">
        <ele>1310.2</ele>
        <time>2021-07-23T08:55:50.285Z</time>
      </trkpt>
      <trkpt lat="45.56408" lon="6.89236">
        <ele>1310.2</ele>
        <time>2021-07-23T08:55:51.285Z</time>
      </trkpt>
      <trkpt lat="45.56406" lon="6.89238">
        <ele>1310.2</ele>
        <time>2021-07-23T08:55:52.285Z</time>
      </trkpt>
      <trkpt lat="45.56403" lon="6.89241">
        <ele>1310.2</ele>
        <time>2021-07-23T08:55:53.285Z</time>
      </trkpt>
      <trkpt lat="45.56401" lon="6.89243">
        <ele>1310.2</ele>
        <time>2021-07-23T08:55:54.285Z</time>
      </trkpt>
      <trkpt lat="45.56399" lon="6.89246">
        <ele>1310.2</ele>
        <time>2021-07-23T08:55:55.285Z</time>
      </trkpt>
      <trkpt lat="45.56397" lon="6.89249">
        <ele>1310.6</ele>
        <time>2021-07-23T08:55:56.285Z</time>
      </trkpt>
      <trkpt lat="45.56395" lon="6.89251">
        <ele>1311</ele>
        <time>2021-07-23T08:55:57.285Z</time>
      </trkpt>
      <trkpt lat="45.56392" lon="6.89253">
        <ele>1311.4</ele>
        <time>2021-07-23T08:55:58.285Z</time>
      </trkpt>
      <trkpt lat="45.5639" lon="6.89255">
        <ele>1311.8</ele>
        <time>2021-07-23T08:55:59.285Z</time>
      </trkpt>
      <trkpt lat="45.56387" lon="6.89257">
        <ele>1312.2</ele>
        <time>2021-07-23T08:56:00.285Z</time>
      </trkpt>
      <trkpt lat="45.56385" lon="6.89259">
        <ele>1312.2</ele>
        <time>2021-07-23T08:56:01.285Z</time>
      </trkpt>
      <trkpt lat="45.56382" lon="6.89261">
        <ele>1312.2</ele>
        <time>2021-07-23T08:56:02.285Z</time>
      </trkpt>
      <trkpt lat="45.5638" lon="6.89262">
        <ele>1312.2</ele>
        <time>2021-07-23T08:56:03.285Z</time>
      </trkpt>
      <trkpt lat="45.56377" lon="6.89264">
        <ele>1312.2</ele>
        <time>2021-07-23T08:56:04.285Z</time>
      </trkpt>
      <trkpt lat="45.56375" lon="6.89266">
        <ele>1312.2</ele>
        <time>2021-07-23T08:56:05.285Z</time>
      </trkpt>
      <trkpt lat="45.56372" lon="6.89267">
        <ele>1312.2</ele>
        <time>2021-07-23T08:56:06.285Z</time>
      </trkpt>
      <trkpt lat="45.5637" lon="6.89268">
        <ele>1312.8</ele>
        <time>2021-07-23T08:56:07.285Z</time>
      </trkpt>
      <trkpt lat="45.56367" lon="6.8927">
        <ele>1313.2</ele>
        <time>2021-07-23T08:56:08.285Z</time>
      </trkpt>
      <trkpt lat="45.56365" lon="6.8927">
        <ele>1313.6</ele>
        <time>2021-07-23T08:56:09.285Z</time>
      </trkpt>
      <trkpt lat="45.56362" lon="6.89271">
        <ele>1314</ele>
        <time>2021-07-23T08:56:10.285Z</time>
      </trkpt>
      <trkpt lat="45.56359" lon="6.89271">
        <ele>1314.4</ele>
        <time>2021-07-23T08:56:11.285Z</time>
      </trkpt>
      <trkpt lat="45.56357" lon="6.89271">
        <ele>1314.4</ele>
        <time>2021-07-23T08:56:12.285Z</time>
      </trkpt>
      <trkpt lat="45.56354" lon="6.89272">
        <ele>1314.4</ele>
        <time>2021-07-23T08:56:13.285Z</time>
      </trkpt>
      <trkpt lat="45.56351" lon="6.89271">
        <ele>1314.4</ele>
        <time>2021-07-23T08:56:14.285Z</time>
      </trkpt>
      <trkpt lat="45.56348" lon="6.89272">
        <ele>1314.4</ele>
        <time>2021-07-23T08:56:15.285Z</time>
      </trkpt>
      <trkpt lat="45.56346" lon="6.89272">
        <ele>1314.4</ele>
        <time>2021-07-23T08:56:16.285Z</time>
      </trkpt>
      <trkpt lat="45.56343" lon="6.89273">
        <ele>1314.8</ele>
        <time>2021-07-23T08:56:17.285Z</time>
      </trkpt>
      <trkpt lat="45.5634" lon="6.89273">
        <ele>1315.2</ele>
        <time>2021-07-23T08:56:18.285Z</time>
      </trkpt>
      <trkpt lat="45.56337" lon="6.89273">
        <ele>1315.6</ele>
        <time>2021-07-23T08:56:19.285Z</time>
      </trkpt>
      <trkpt lat="45.56334" lon="6.89273">
        <ele>1316.6</ele>
        <time>2021-07-23T08:56:20.285Z</time>
      </trkpt>
      <trkpt lat="45.56332" lon="6.89274">
        <ele>1316.6</ele>
        <time>2021-07-23T08:56:21.285Z</time>
      </trkpt>
      <trkpt lat="45.56329" lon="6.89274">
        <ele>1316.6</ele>
        <time>2021-07-23T08:56:22.285Z</time>
      </trkpt>
      <trkpt lat="45.56326" lon="6.89274">
        <ele>1316.6</ele>
        <time>2021-07-23T08:56:23.285Z</time>
      </trkpt>
      <trkpt lat="45.56323" lon="6.89274">
        <ele>1316.6</ele>
        <time>2021-07-23T08:56:24.285Z</time>
      </trkpt>
      <trkpt lat="45.5632" lon="6.89275">
        <ele>1317</ele>
        <time>2021-07-23T08:56:25.285Z</time>
      </trkpt>
      <trkpt lat="45.56318" lon="6.89275">
        <ele>1317.4</ele>
        <time>2021-07-23T08:56:26.285Z</time>
      </trkpt>
      <trkpt lat="45.56315" lon="6.89276">
        <ele>1317.8</ele>
        <time>2021-07-23T08:56:27.285Z</time>
      </trkpt>
      <trkpt lat="45.56312" lon="6.89276">
        <ele>1318.2</ele>
        <time>2021-07-23T08:56:28.285Z</time>
      </trkpt>
      <trkpt lat="45.56309" lon="6.89277">
        <ele>1318.6</ele>
        <time>2021-07-23T08:56:29.285Z</time>
      </trkpt>
      <trkpt lat="45.56306" lon="6.89278">
        <ele>1318.6</ele>
        <time>2021-07-23T08:56:30.285Z</time>
      </trkpt>
      <trkpt lat="45.56303" lon="6.89279">
        <ele>1318.6</ele>
        <time>2021-07-23T08:56:31.285Z</time>
      </trkpt>
      <trkpt lat="45.563" lon="6.8928">
        <ele>1318.6</ele>
        <time>2021-07-23T08:56:32.285Z</time>
      </trkpt>
      <trkpt lat="45.56297" lon="6.89281">
        <ele>1318.6</ele>
        <time>2021-07-23T08:56:33.285Z</time>
      </trkpt>
      <trkpt lat="45.56294" lon="6.89283">
        <ele>1318.6</ele>
        <time>2021-07-23T08:56:34.285Z</time>
      </trkpt>
      <trkpt lat="45.56292" lon="6.89284">
        <ele>1319</ele>
        <time>2021-07-23T08:56:35.285Z</time>
      </trkpt>
      <trkpt lat="45.56289" lon="6.89286">
        <ele>1319.4</ele>
        <time>2021-07-23T08:56:36.285Z</time>
      </trkpt>
      <trkpt lat="45.56285" lon="6.89288">
        <ele>1319.8</ele>
        <time>2021-07-23T08:56:37.285Z</time>
      </trkpt>
      <trkpt lat="45.56282" lon="6.8929">
        <ele>1320.2</ele>
        <time>2021-07-23T08:56:38.285Z</time>
      </trkpt>
      <trkpt lat="45.5628" lon="6.89293">
        <ele>1320.8</ele>
        <time>2021-07-23T08:56:39.285Z</time>
      </trkpt>
      <trkpt lat="45.56276" lon="6.89296">
        <ele>1320.8</ele>
        <time>2021-07-23T08:56:40.285Z</time>
      </trkpt>
      <trkpt lat="45.56273" lon="6.89298">
        <ele>1320.8</ele>
        <time>2021-07-23T08:56:41.285Z</time>
      </trkpt>
      <trkpt lat="45.5627" lon="6.89301">
        <ele>1320.8</ele>
        <time>2021-07-23T08:56:42.285Z</time>
      </trkpt>
      <trkpt lat="45.56267" lon="6.89305">
        <ele>1320.8</ele>
        <time>2021-07-23T08:56:43.285Z</time>
      </trkpt>
      <trkpt lat="45.56263" lon="6.89308">
        <ele>1320.8</ele>
        <time>2021-07-23T08:56:44.285Z</time>
      </trkpt>
      <trkpt lat="45.5626" lon="6.89311">
        <ele>1320.8</ele>
        <time>2021-07-23T08:56:45.285Z</time>
      </trkpt>
      <trkpt lat="45.56256" lon="6.89314">
        <ele>1320.8</ele>
        <time>2021-07-23T08:56:46.285Z</time>
      </trkpt>
      <trkpt lat="45.56253" lon="6.89317">
        <ele>1320.8</ele>
        <time>2021-07-23T08:56:47.285Z</time>
      </trkpt>
      <trkpt lat="45.56249" lon="6.8932">
        <ele>1320.8</ele>
        <time>2021-07-23T08:56:48.285Z</time>
      </trkpt>
      <trkpt lat="45.56246" lon="6.89323">
        <ele>1320.8</ele>
        <time>2021-07-23T08:56:49.285Z</time>
      </trkpt>
      <trkpt lat="45.56242" lon="6.89326">
        <ele>1320.8</ele>
        <time>2021-07-23T08:56:50.285Z</time>
      </trkpt>
      <trkpt lat="45.56239" lon="6.89329">
        <ele>1320.8</ele>
        <time>2021-07-23T08:56:51.285Z</time>
      </trkpt>
      <trkpt lat="45.56235" lon="6.89332">
        <ele>1320.8</ele>
        <time>2021-07-23T08:56:52.285Z</time>
      </trkpt>
      <trkpt lat="45.56231" lon="6.89335">
        <ele>1320.8</ele>
        <time>2021-07-23T08:56:53.285Z</time>
      </trkpt>
      <trkpt lat="45.56228" lon="6.89338">
        <ele>1320.8</ele>
        <time>2021-07-23T08:56:54.285Z</time>
      </trkpt>
      <trkpt lat="45.56224" lon="6.89341">
        <ele>1320.8</ele>
        <time>2021-07-23T08:56:55.285Z</time>
      </trkpt>
      <trkpt lat="45.5622" lon="6.89344">
        <ele>1320.8</ele>
        <time>2021-07-23T08:56:56.285Z</time>
      </trkpt>
      <trkpt lat="45.56215" lon="6.89347">
        <ele>1320.8</ele>
        <time>2021-07-23T08:56:57.285Z</time>
      </trkpt>
      <trkpt lat="45.5621" lon="6.8935">
        <ele>1320.8</ele>
        <time>2021-07-23T08:56:58.285Z</time>
      </trkpt>
      <trkpt lat="45.56206" lon="6.89352">
        <ele>1320.8</ele>
        <time>2021-07-23T08:56:59.285Z</time>
      </trkpt>
      <trkpt lat="45.56201" lon="6.89354">
        <ele>1320.8</ele>
        <time>2021-07-23T08:57:00.285Z</time>
      </trkpt>
      <trkpt lat="45.56197" lon="6.89357">
        <ele>1320.8</ele>
        <time>2021-07-23T08:57:01.285Z</time>
      </trkpt>
      <trkpt lat="45.56193" lon="6.89359">
        <ele>1320.8</ele>
        <time>2021-07-23T08:57:02.285Z</time>
      </trkpt>
      <trkpt lat="45.56189" lon="6.89361">
        <ele>1320.8</ele>
        <time>2021-07-23T08:57:03.285Z</time>
      </trkpt>
      <trkpt lat="45.56185" lon="6.89363">
        <ele>1320.8</ele>
        <time>2021-07-23T08:57:04.285Z</time>
      </trkpt>
      <trkpt lat="45.56182" lon="6.89366">
        <ele>1320.8</ele>
        <time>2021-07-23T08:57:05.285Z</time>
      </trkpt>
      <trkpt lat="45.56178" lon="6.89369">
        <ele>1320.8</ele>
        <time>2021-07-23T08:57:06.285Z</time>
      </trkpt>
      <trkpt lat="45.56175" lon="6.89371">
        <ele>1320.8</ele>
        <time>2021-07-23T08:57:07.285Z</time>
      </trkpt>
      <trkpt lat="45.56171" lon="6.89374">
        <ele>1320.8</ele>
        <time>2021-07-23T08:57:08.285Z</time>
      </trkpt>
      <trkpt lat="45.56167" lon="6.89376">
        <ele>1321.6</ele>
        <time>2021-07-23T08:57:09.285Z</time>
      </trkpt>
      <trkpt lat="45.56163" lon="6.89379">
        <ele>1322</ele>
        <time>2021-07-23T08:57:10.285Z</time>
      </trkpt>
      <trkpt lat="45.56159" lon="6.89381">
        <ele>1322.4</ele>
        <time>2021-07-23T08:57:11.285Z</time>
      </trkpt>
      <trkpt lat="45.56155" lon="6.89384">
        <ele>1322.8</ele>
        <time>2021-07-23T08:57:12.285Z</time>
      </trkpt>
      <trkpt lat="45.56151" lon="6.89387">
        <ele>1322.8</ele>
        <time>2021-07-23T08:57:13.285Z</time>
      </trkpt>
      <trkpt lat="45.56146" lon="6.8939">
        <ele>1322.8</ele>
        <time>2021-07-23T08:57:14.285Z</time>
      </trkpt>
      <trkpt lat="45.56142" lon="6.89393">
        <ele>1322.8</ele>
        <time>2021-07-23T08:57:15.285Z</time>
      </trkpt>
      <trkpt lat="45.56138" lon="6.89396">
        <ele>1322.8</ele>
        <time>2021-07-23T08:57:16.285Z</time>
      </trkpt>
      <trkpt lat="45.56134" lon="6.89399">
        <ele>1322.8</ele>
        <time>2021-07-23T08:57:17.285Z</time>
      </trkpt>
      <trkpt lat="45.5613" lon="6.89402">
        <ele>1322.8</ele>
        <time>2021-07-23T08:57:18.285Z</time>
      </trkpt>
      <trkpt lat="45.56127" lon="6.89405">
        <ele>1322.8</ele>
        <time>2021-07-23T08:57:19.285Z</time>
      </trkpt>
      <trkpt lat="45.56122" lon="6.89407">
        <ele>1322.8</ele>
        <time>2021-07-23T08:57:20.285Z</time>
      </trkpt>
      <trkpt lat="45.56118" lon="6.8941">
        <ele>1322.8</ele>
        <time>2021-07-23T08:57:21.285Z</time>
      </trkpt>
      <trkpt lat="45.56114" lon="6.89412">
        <ele>1322.8</ele>
        <time>2021-07-23T08:57:22.285Z</time>
      </trkpt>
      <trkpt lat="45.56111" lon="6.89415">
        <ele>1322.8</ele>
        <time>2021-07-23T08:57:23.285Z</time>
      </trkpt>
      <trkpt lat="45.56107" lon="6.89417">
        <ele>1322.8</ele>
        <time>2021-07-23T08:57:24.285Z</time>
      </trkpt>
      <trkpt lat="45.56103" lon="6.89421">
        <ele>1322.8</ele>
        <time>2021-07-23T08:57:25.285Z</time>
      </trkpt>
      <trkpt lat="45.561" lon="6.89424">
        <ele>1322.8</ele>
        <time>2021-07-23T08:57:26.285Z</time>
      </trkpt>
      <trkpt lat="45.56096" lon="6.89428">
        <ele>1322.8</ele>
        <time>2021-07-23T08:57:27.285Z</time>
      </trkpt>
      <trkpt lat="45.56093" lon="6.89431">
        <ele>1322.8</ele>
        <time>2021-07-23T08:57:28.285Z</time>
      </trkpt>
      <trkpt lat="45.56089" lon="6.89434">
        <ele>1323.2</ele>
        <time>2021-07-23T08:57:29.285Z</time>
      </trkpt>
      <trkpt lat="45.56086" lon="6.89437">
        <ele>1323.6</ele>
        <time>2021-07-23T08:57:30.285Z</time>
      </trkpt>
      <trkpt lat="45.56083" lon="6.89439">
        <ele>1324.2</ele>
        <time>2021-07-23T08:57:31.285Z</time>
      </trkpt>
      <trkpt lat="45.5608" lon="6.89441">
        <ele>1324.6</ele>
        <time>2021-07-23T08:57:32.285Z</time>
      </trkpt>
      <trkpt lat="45.56076" lon="6.89443">
        <ele>1325.2</ele>
        <time>2021-07-23T08:57:33.285Z</time>
      </trkpt>
      <trkpt lat="45.56073" lon="6.89446">
        <ele>1325.2</ele>
        <time>2021-07-23T08:57:34.285Z</time>
      </trkpt>
      <trkpt lat="45.56069" lon="6.89448">
        <ele>1325.2</ele>
        <time>2021-07-23T08:57:35.285Z</time>
      </trkpt>
      <trkpt lat="45.56066" lon="6.8945">
        <ele>1325.2</ele>
        <time>2021-07-23T08:57:36.285Z</time>
      </trkpt>
      <trkpt lat="45.56062" lon="6.89452">
        <ele>1325.2</ele>
        <time>2021-07-23T08:57:37.285Z</time>
      </trkpt>
      <trkpt lat="45.56059" lon="6.89453">
        <ele>1325.2</ele>
        <time>2021-07-23T08:57:38.285Z</time>
      </trkpt>
      <trkpt lat="45.56055" lon="6.89455">
        <ele>1325.6</ele>
        <time>2021-07-23T08:57:39.285Z</time>
      </trkpt>
      <trkpt lat="45.56052" lon="6.89456">
        <ele>1326</ele>
        <time>2021-07-23T08:57:40.285Z</time>
      </trkpt>
      <trkpt lat="45.56048" lon="6.89456">
        <ele>1326.4</ele>
        <time>2021-07-23T08:57:41.285Z</time>
      </trkpt>
      <trkpt lat="45.56044" lon="6.89457">
        <ele>1327</ele>
        <time>2021-07-23T08:57:42.285Z</time>
      </trkpt>
      <trkpt lat="45.5604" lon="6.89457">
        <ele>1327.4</ele>
        <time>2021-07-23T08:57:43.285Z</time>
      </trkpt>
      <trkpt lat="45.56037" lon="6.89458">
        <ele>1327.4</ele>
        <time>2021-07-23T08:57:44.285Z</time>
      </trkpt>
      <trkpt lat="45.56033" lon="6.89458">
        <ele>1327.4</ele>
        <time>2021-07-23T08:57:45.285Z</time>
      </trkpt>
      <trkpt lat="45.56029" lon="6.89459">
        <ele>1327.4</ele>
        <time>2021-07-23T08:57:46.285Z</time>
      </trkpt>
      <trkpt lat="45.56026" lon="6.8946">
        <ele>1327.4</ele>
        <time>2021-07-23T08:57:47.285Z</time>
      </trkpt>
      <trkpt lat="45.56022" lon="6.89461">
        <ele>1327.4</ele>
        <time>2021-07-23T08:57:48.285Z</time>
      </trkpt>
      <trkpt lat="45.56019" lon="6.89462">
        <ele>1327.4</ele>
        <time>2021-07-23T08:57:49.285Z</time>
      </trkpt>
      <trkpt lat="45.56015" lon="6.89463">
        <ele>1327.4</ele>
        <time>2021-07-23T08:57:50.285Z</time>
      </trkpt>
      <trkpt lat="45.56011" lon="6.89464">
        <ele>1327.8</ele>
        <time>2021-07-23T08:57:51.285Z</time>
      </trkpt>
      <trkpt lat="45.56007" lon="6.89465">
        <ele>1328.2</ele>
        <time>2021-07-23T08:57:52.285Z</time>
      </trkpt>
      <trkpt lat="45.56003" lon="6.89467">
        <ele>1328.6</ele>
        <time>2021-07-23T08:57:53.285Z</time>
      </trkpt>
      <trkpt lat="45.55999" lon="6.89468">
        <ele>1329</ele>
        <time>2021-07-23T08:57:54.285Z</time>
      </trkpt>
      <trkpt lat="45.55996" lon="6.89468">
        <ele>1329.6</ele>
        <time>2021-07-23T08:57:55.285Z</time>
      </trkpt>
      <trkpt lat="45.55992" lon="6.8947">
        <ele>1329.6</ele>
        <time>2021-07-23T08:57:56.285Z</time>
      </trkpt>
      <trkpt lat="45.55988" lon="6.89472">
        <ele>1329.6</ele>
        <time>2021-07-23T08:57:57.285Z</time>
      </trkpt>
      <trkpt lat="45.55984" lon="6.89474">
        <ele>1329.6</ele>
        <time>2021-07-23T08:57:58.285Z</time>
      </trkpt>
      <trkpt lat="45.5598" lon="6.89477">
        <ele>1329.6</ele>
        <time>2021-07-23T08:57:59.285Z</time>
      </trkpt>
      <trkpt lat="45.55976" lon="6.89481">
        <ele>1329.6</ele>
        <time>2021-07-23T08:58:00.285Z</time>
      </trkpt>
      <trkpt lat="45.55973" lon="6.89485">
        <ele>1329.6</ele>
        <time>2021-07-23T08:58:01.285Z</time>
      </trkpt>
      <trkpt lat="45.5597" lon="6.89489">
        <ele>1329.6</ele>
        <time>2021-07-23T08:58:02.285Z</time>
      </trkpt>
      <trkpt lat="45.55967" lon="6.89495">
        <ele>1329.6</ele>
        <time>2021-07-23T08:58:03.285Z</time>
      </trkpt>
      <trkpt lat="45.55965" lon="6.895">
        <ele>1330</ele>
        <time>2021-07-23T08:58:04.285Z</time>
      </trkpt>
      <trkpt lat="45.55962" lon="6.89507">
        <ele>1330.4</ele>
        <time>2021-07-23T08:58:05.285Z</time>
      </trkpt>
      <trkpt lat="45.5596" lon="6.89513">
        <ele>1330.8</ele>
        <time>2021-07-23T08:58:06.285Z</time>
      </trkpt>
      <trkpt lat="45.55958" lon="6.89519">
        <ele>1331.2</ele>
        <time>2021-07-23T08:58:07.285Z</time>
      </trkpt>
      <trkpt lat="45.55956" lon="6.89526">
        <ele>1331.6</ele>
        <time>2021-07-23T08:58:08.285Z</time>
      </trkpt>
      <trkpt lat="45.55954" lon="6.89532">
        <ele>1331.6</ele>
        <time>2021-07-23T08:58:09.285Z</time>
      </trkpt>
      <trkpt lat="45.55952" lon="6.89539">
        <ele>1331.6</ele>
        <time>2021-07-23T08:58:10.285Z</time>
      </trkpt>
      <trkpt lat="45.55949" lon="6.89545">
        <ele>1331.6</ele>
        <time>2021-07-23T08:58:11.285Z</time>
      </trkpt>
      <trkpt lat="45.55947" lon="6.89551">
        <ele>1331.6</ele>
        <time>2021-07-23T08:58:12.285Z</time>
      </trkpt>
      <trkpt lat="45.55945" lon="6.89557">
        <ele>1331.6</ele>
        <time>2021-07-23T08:58:13.285Z</time>
      </trkpt>
      <trkpt lat="45.55942" lon="6.89563">
        <ele>1331.6</ele>
        <time>2021-07-23T08:58:14.285Z</time>
      </trkpt>
      <trkpt lat="45.5594" lon="6.89569">
        <ele>1331.6</ele>
        <time>2021-07-23T08:58:15.285Z</time>
      </trkpt>
      <trkpt lat="45.55938" lon="6.89575">
        <ele>1331.6</ele>
        <time>2021-07-23T08:58:16.285Z</time>
      </trkpt>
      <trkpt lat="45.55936" lon="6.89581">
        <ele>1331.6</ele>
        <time>2021-07-23T08:58:17.285Z</time>
      </trkpt>
      <trkpt lat="45.55934" lon="6.89588">
        <ele>1331.6</ele>
        <time>2021-07-23T08:58:18.285Z</time>
      </trkpt>
      <trkpt lat="45.55932" lon="6.89594">
        <ele>1331.6</ele>
        <time>2021-07-23T08:58:19.285Z</time>
      </trkpt>
      <trkpt lat="45.5593" lon="6.896">
        <ele>1331.6</ele>
        <time>2021-07-23T08:58:20.285Z</time>
      </trkpt>
      <trkpt lat="45.55928" lon="6.89607">
        <ele>1331.6</ele>
        <time>2021-07-23T08:58:21.285Z</time>
      </trkpt>
      <trkpt lat="45.55926" lon="6.89614">
        <ele>1331.6</ele>
        <time>2021-07-23T08:58:22.285Z</time>
      </trkpt>
      <trkpt lat="45.55924" lon="6.89621">
        <ele>1332</ele>
        <time>2021-07-23T08:58:23.285Z</time>
      </trkpt>
      <trkpt lat="45.55921" lon="6.89627">
        <ele>1333</ele>
        <time>2021-07-23T08:58:24.285Z</time>
      </trkpt>
      <trkpt lat="45.55918" lon="6.89634">
        <ele>1333.4</ele>
        <time>2021-07-23T08:58:25.285Z</time>
      </trkpt>
      <trkpt lat="45.55915" lon="6.8964">
        <ele>1334</ele>
        <time>2021-07-23T08:58:26.285Z</time>
      </trkpt>
      <trkpt lat="45.55911" lon="6.89646">
        <ele>1334</ele>
        <time>2021-07-23T08:58:27.285Z</time>
      </trkpt>
      <trkpt lat="45.55908" lon="6.89651">
        <ele>1334</ele>
        <time>2021-07-23T08:58:28.285Z</time>
      </trkpt>
      <trkpt lat="45.55904" lon="6.89656">
        <ele>1334</ele>
        <time>2021-07-23T08:58:29.285Z</time>
      </trkpt>
      <trkpt lat="45.55901" lon="6.89662">
        <ele>1334</ele>
        <time>2021-07-23T08:58:30.285Z</time>
      </trkpt>
      <trkpt lat="45.55897" lon="6.89667">
        <ele>1334</ele>
        <time>2021-07-23T08:58:31.285Z</time>
      </trkpt>
      <trkpt lat="45.55893" lon="6.89672">
        <ele>1334</ele>
        <time>2021-07-23T08:58:32.285Z</time>
      </trkpt>
      <trkpt lat="45.5589" lon="6.89678">
        <ele>1334</ele>
        <time>2021-07-23T08:58:33.285Z</time>
      </trkpt>
      <trkpt lat="45.55886" lon="6.89683">
        <ele>1334</ele>
        <time>2021-07-23T08:58:34.285Z</time>
      </trkpt>
      <trkpt lat="45.55882" lon="6.89689">
        <ele>1334</ele>
        <time>2021-07-23T08:58:35.285Z</time>
      </trkpt>
      <trkpt lat="45.55879" lon="6.89695">
        <ele>1334</ele>
        <time>2021-07-23T08:58:36.285Z</time>
      </trkpt>
      <trkpt lat="45.55876" lon="6.897">
        <ele>1334</ele>
        <time>2021-07-23T08:58:37.285Z</time>
      </trkpt>
      <trkpt lat="45.55873" lon="6.89706">
        <ele>1334</ele>
        <time>2021-07-23T08:58:38.285Z</time>
      </trkpt>
      <trkpt lat="45.55869" lon="6.89711">
        <ele>1334.4</ele>
        <time>2021-07-23T08:58:39.285Z</time>
      </trkpt>
      <trkpt lat="45.55865" lon="6.89716">
        <ele>1334.8</ele>
        <time>2021-07-23T08:58:40.285Z</time>
      </trkpt>
      <trkpt lat="45.55861" lon="6.8972">
        <ele>1335.2</ele>
        <time>2021-07-23T08:58:41.285Z</time>
      </trkpt>
      <trkpt lat="45.55855" lon="6.89723">
        <ele>1335.6</ele>
        <time>2021-07-23T08:58:42.285Z</time>
      </trkpt>
      <trkpt lat="45.5585" lon="6.89725">
        <ele>1336</ele>
        <time>2021-07-23T08:58:43.285Z</time>
      </trkpt>
      <trkpt lat="45.55845" lon="6.89727">
        <ele>1336</ele>
        <time>2021-07-23T08:58:44.285Z</time>
      </trkpt>
      <trkpt lat="45.5584" lon="6.89729">
        <ele>1336</ele>
        <time>2021-07-23T08:58:45.285Z</time>
      </trkpt>
      <trkpt lat="45.55836" lon="6.89732">
        <ele>1336</ele>
        <time>2021-07-23T08:58:46.285Z</time>
      </trkpt>
      <trkpt lat="45.55831" lon="6.89735">
        <ele>1336</ele>
        <time>2021-07-23T08:58:47.285Z</time>
      </trkpt>
      <trkpt lat="45.55827" lon="6.8974">
        <ele>1336</ele>
        <time>2021-07-23T08:58:48.285Z</time>
      </trkpt>
      <trkpt lat="45.55823" lon="6.89745">
        <ele>1336</ele>
        <time>2021-07-23T08:58:49.285Z</time>
      </trkpt>
      <trkpt lat="45.5582" lon="6.89751">
        <ele>1336</ele>
        <time>2021-07-23T08:58:50.285Z</time>
      </trkpt>
      <trkpt lat="45.55818" lon="6.89758">
        <ele>1336</ele>
        <time>2021-07-23T08:58:51.285Z</time>
      </trkpt>
      <trkpt lat="45.55816" lon="6.89765">
        <ele>1336</ele>
        <time>2021-07-23T08:58:52.285Z</time>
      </trkpt>
      <trkpt lat="45.55814" lon="6.89771">
        <ele>1336</ele>
        <time>2021-07-23T08:58:53.285Z</time>
      </trkpt>
      <trkpt lat="45.55813" lon="6.89779">
        <ele>1336.4</ele>
        <time>2021-07-23T08:58:54.285Z</time>
      </trkpt>
      <trkpt lat="45.55811" lon="6.89786">
        <ele>1336.8</ele>
        <time>2021-07-23T08:58:55.285Z</time>
      </trkpt>
      <trkpt lat="45.55809" lon="6.89793">
        <ele>1337.2</ele>
        <time>2021-07-23T08:58:56.285Z</time>
      </trkpt>
      <trkpt lat="45.55806" lon="6.898">
        <ele>1337.6</ele>
        <time>2021-07-23T08:58:57.285Z</time>
      </trkpt>
      <trkpt lat="45.55802" lon="6.89806">
        <ele>1338</ele>
        <time>2021-07-23T08:58:58.285Z</time>
      </trkpt>
      <trkpt lat="45.55799" lon="6.89812">
        <ele>1338</ele>
        <time>2021-07-23T08:58:59.285Z</time>
      </trkpt>
      <trkpt lat="45.55795" lon="6.89817">
        <ele>1338</ele>
        <time>2021-07-23T08:59:00.285Z</time>
      </trkpt>
      <trkpt lat="45.55791" lon="6.89822">
        <ele>1338</ele>
        <time>2021-07-23T08:59:01.285Z</time>
      </trkpt>
      <trkpt lat="45.55787" lon="6.89826">
        <ele>1338</ele>
        <time>2021-07-23T08:59:02.285Z</time>
      </trkpt>
      <trkpt lat="45.55783" lon="6.89832">
        <ele>1338</ele>
        <time>2021-07-23T08:59:03.285Z</time>
      </trkpt>
      <trkpt lat="45.55779" lon="6.89837">
        <ele>1338</ele>
        <time>2021-07-23T08:59:04.285Z</time>
      </trkpt>
      <trkpt lat="45.55774" lon="6.89842">
        <ele>1338</ele>
        <time>2021-07-23T08:59:05.285Z</time>
      </trkpt>
      <trkpt lat="45.5577" lon="6.89848">
        <ele>1338</ele>
        <time>2021-07-23T08:59:06.285Z</time>
      </trkpt>
      <trkpt lat="45.55765" lon="6.89853">
        <ele>1338</ele>
        <time>2021-07-23T08:59:07.285Z</time>
      </trkpt>
      <trkpt lat="45.55761" lon="6.89858">
        <ele>1338</ele>
        <time>2021-07-23T08:59:08.285Z</time>
      </trkpt>
      <trkpt lat="45.55757" lon="6.89864">
        <ele>1338</ele>
        <time>2021-07-23T08:59:09.285Z</time>
      </trkpt>
      <trkpt lat="45.55752" lon="6.89869">
        <ele>1338</ele>
        <time>2021-07-23T08:59:10.285Z</time>
      </trkpt>
      <trkpt lat="45.55748" lon="6.89875">
        <ele>1338</ele>
        <time>2021-07-23T08:59:11.285Z</time>
      </trkpt>
      <trkpt lat="45.55743" lon="6.89881">
        <ele>1338</ele>
        <time>2021-07-23T08:59:12.285Z</time>
      </trkpt>
      <trkpt lat="45.5574" lon="6.89887">
        <ele>1338</ele>
        <time>2021-07-23T08:59:13.285Z</time>
      </trkpt>
      <trkpt lat="45.55736" lon="6.89893">
        <ele>1338</ele>
        <time>2021-07-23T08:59:14.285Z</time>
      </trkpt>
      <trkpt lat="45.55733" lon="6.899">
        <ele>1338</ele>
        <time>2021-07-23T08:59:15.285Z</time>
      </trkpt>
      <trkpt lat="45.55729" lon="6.89906">
        <ele>1338</ele>
        <time>2021-07-23T08:59:16.285Z</time>
      </trkpt>
      <trkpt lat="45.55725" lon="6.89913">
        <ele>1338</ele>
        <time>2021-07-23T08:59:17.285Z</time>
      </trkpt>
      <trkpt lat="45.55722" lon="6.8992">
        <ele>1338</ele>
        <time>2021-07-23T08:59:18.285Z</time>
      </trkpt>
      <trkpt lat="45.55718" lon="6.89927">
        <ele>1338</ele>
        <time>2021-07-23T08:59:19.285Z</time>
      </trkpt>
      <trkpt lat="45.55713" lon="6.89934">
        <ele>1338</ele>
        <time>2021-07-23T08:59:20.285Z</time>
      </trkpt>
      <trkpt lat="45.55709" lon="6.8994">
        <ele>1338</ele>
        <time>2021-07-23T08:59:21.285Z</time>
      </trkpt>
      <trkpt lat="45.55703" lon="6.89945">
        <ele>1338</ele>
        <time>2021-07-23T08:59:22.285Z</time>
      </trkpt>
      <trkpt lat="45.55698" lon="6.89951">
        <ele>1338</ele>
        <time>2021-07-23T08:59:23.285Z</time>
      </trkpt>
      <trkpt lat="45.55692" lon="6.89957">
        <ele>1338</ele>
        <time>2021-07-23T08:59:24.285Z</time>
      </trkpt>
      <trkpt lat="45.55687" lon="6.89963">
        <ele>1338</ele>
        <time>2021-07-23T08:59:25.285Z</time>
      </trkpt>
      <trkpt lat="45.55682" lon="6.89969">
        <ele>1338</ele>
        <time>2021-07-23T08:59:26.285Z</time>
      </trkpt>
      <trkpt lat="45.55677" lon="6.89975">
        <ele>1338</ele>
        <time>2021-07-23T08:59:27.285Z</time>
      </trkpt>
      <trkpt lat="45.55673" lon="6.89982">
        <ele>1338</ele>
        <time>2021-07-23T08:59:28.285Z</time>
      </trkpt>
      <trkpt lat="45.55669" lon="6.89988">
        <ele>1338</ele>
        <time>2021-07-23T08:59:29.285Z</time>
      </trkpt>
      <trkpt lat="45.55665" lon="6.89994">
        <ele>1338.4</ele>
        <time>2021-07-23T08:59:30.285Z</time>
      </trkpt>
      <trkpt lat="45.5566" lon="6.9">
        <ele>1338.8</ele>
        <time>2021-07-23T08:59:31.285Z</time>
      </trkpt>
      <trkpt lat="45.55657" lon="6.90007">
        <ele>1339.2</ele>
        <time>2021-07-23T08:59:32.285Z</time>
      </trkpt>
      <trkpt lat="45.55653" lon="6.90013">
        <ele>1339.6</ele>
        <time>2021-07-23T08:59:33.285Z</time>
      </trkpt>
      <trkpt lat="45.55649" lon="6.90019">
        <ele>1340.2</ele>
        <time>2021-07-23T08:59:34.285Z</time>
      </trkpt>
      <trkpt lat="45.55646" lon="6.90026">
        <ele>1340.2</ele>
        <time>2021-07-23T08:59:35.285Z</time>
      </trkpt>
      <trkpt lat="45.55642" lon="6.90032">
        <ele>1340.2</ele>
        <time>2021-07-23T08:59:36.285Z</time>
      </trkpt>
      <trkpt lat="45.55638" lon="6.90037">
        <ele>1340.2</ele>
        <time>2021-07-23T08:59:37.285Z</time>
      </trkpt>
      <trkpt lat="45.55635" lon="6.90043">
        <ele>1340.2</ele>
        <time>2021-07-23T08:59:38.285Z</time>
      </trkpt>
      <trkpt lat="45.55631" lon="6.90049">
        <ele>1340.6</ele>
        <time>2021-07-23T08:59:39.285Z</time>
      </trkpt>
      <trkpt lat="45.55628" lon="6.90055">
        <ele>1341</ele>
        <time>2021-07-23T08:59:40.285Z</time>
      </trkpt>
      <trkpt lat="45.55624" lon="6.9006">
        <ele>1341.4</ele>
        <time>2021-07-23T08:59:41.285Z</time>
      </trkpt>
      <trkpt lat="45.55621" lon="6.90066">
        <ele>1341.8</ele>
        <time>2021-07-23T08:59:42.285Z</time>
      </trkpt>
      <trkpt lat="45.55617" lon="6.90072">
        <ele>1342.2</ele>
        <time>2021-07-23T08:59:43.285Z</time>
      </trkpt>
      <trkpt lat="45.55614" lon="6.90077">
        <ele>1342.2</ele>
        <time>2021-07-23T08:59:44.285Z</time>
      </trkpt>
      <trkpt lat="45.5561" lon="6.90083">
        <ele>1342.2</ele>
        <time>2021-07-23T08:59:45.285Z</time>
      </trkpt>
      <trkpt lat="45.55606" lon="6.90088">
        <ele>1342.6</ele>
        <time>2021-07-23T08:59:46.285Z</time>
      </trkpt>
      <trkpt lat="45.55602" lon="6.90093">
        <ele>1343.2</ele>
        <time>2021-07-23T08:59:47.285Z</time>
      </trkpt>
      <trkpt lat="45.55597" lon="6.90097">
        <ele>1343.6</ele>
        <time>2021-07-23T08:59:48.285Z</time>
      </trkpt>
      <trkpt lat="45.55592" lon="6.901">
        <ele>1344</ele>
        <time>2021-07-23T08:59:49.285Z</time>
      </trkpt>
      <trkpt lat="45.55588" lon="6.90103">
        <ele>1344.4</ele>
        <time>2021-07-23T08:59:50.285Z</time>
      </trkpt>
      <trkpt lat="45.55583" lon="6.90106">
        <ele>1344.4</ele>
        <time>2021-07-23T08:59:51.285Z</time>
      </trkpt>
      <trkpt lat="45.55578" lon="6.90109">
        <ele>1344.4</ele>
        <time>2021-07-23T08:59:52.285Z</time>
      </trkpt>
      <trkpt lat="45.55573" lon="6.90111">
        <ele>1344.8</ele>
        <time>2021-07-23T08:59:53.285Z</time>
      </trkpt>
      <trkpt lat="45.55568" lon="6.90114">
        <ele>1345.2</ele>
        <time>2021-07-23T08:59:54.285Z</time>
      </trkpt>
      <trkpt lat="45.55563" lon="6.90116">
        <ele>1345.8</ele>
        <time>2021-07-23T08:59:55.285Z</time>
      </trkpt>
      <trkpt lat="45.55558" lon="6.90118">
        <ele>1346.2</ele>
        <time>2021-07-23T08:59:56.285Z</time>
      </trkpt>
      <trkpt lat="45.55552" lon="6.9012">
        <ele>1346.6</ele>
        <time>2021-07-23T08:59:57.285Z</time>
      </trkpt>
      <trkpt lat="45.55547" lon="6.90121">
        <ele>1346.6</ele>
        <time>2021-07-23T08:59:58.285Z</time>
      </trkpt>
      <trkpt lat="45.55542" lon="6.90122">
        <ele>1346.6</ele>
        <time>2021-07-23T08:59:59.285Z</time>
      </trkpt>
      <trkpt lat="45.55537" lon="6.90123">
        <ele>1346.6</ele>
        <time>2021-07-23T09:00:00.285Z</time>
      </trkpt>
      <trkpt lat="45.55532" lon="6.90125">
        <ele>1346.6</ele>
        <time>2021-07-23T09:00:01.285Z</time>
      </trkpt>
      <trkpt lat="45.55527" lon="6.90127">
        <ele>1347.6</ele>
        <time>2021-07-23T09:00:02.285Z</time>
      </trkpt>
      <trkpt lat="45.55522" lon="6.90129">
        <ele>1348</ele>
        <time>2021-07-23T09:00:03.285Z</time>
      </trkpt>
      <trkpt lat="45.55518" lon="6.90131">
        <ele>1348.4</ele>
        <time>2021-07-23T09:00:04.285Z</time>
      </trkpt>
      <trkpt lat="45.55513" lon="6.90133">
        <ele>1349</ele>
        <time>2021-07-23T09:00:05.285Z</time>
      </trkpt>
      <trkpt lat="45.55508" lon="6.90136">
        <ele>1349</ele>
        <time>2021-07-23T09:00:06.285Z</time>
      </trkpt>
      <trkpt lat="45.55504" lon="6.90138">
        <ele>1349.4</ele>
        <time>2021-07-23T09:00:07.285Z</time>
      </trkpt>
      <trkpt lat="45.555" lon="6.90141">
        <ele>1349.8</ele>
        <time>2021-07-23T09:00:08.285Z</time>
      </trkpt>
      <trkpt lat="45.55496" lon="6.90144">
        <ele>1350.2</ele>
        <time>2021-07-23T09:00:09.285Z</time>
      </trkpt>
      <trkpt lat="45.55492" lon="6.90146">
        <ele>1350.6</ele>
        <time>2021-07-23T09:00:10.285Z</time>
      </trkpt>
      <trkpt lat="45.55488" lon="6.90149">
        <ele>1351</ele>
        <time>2021-07-23T09:00:11.285Z</time>
      </trkpt>
      <trkpt lat="45.55484" lon="6.90152">
        <ele>1351</ele>
        <time>2021-07-23T09:00:12.285Z</time>
      </trkpt>
      <trkpt lat="45.5548" lon="6.90154">
        <ele>1351</ele>
        <time>2021-07-23T09:00:13.285Z</time>
      </trkpt>
      <trkpt lat="45.55476" lon="6.90156">
        <ele>1351</ele>
        <time>2021-07-23T09:00:14.285Z</time>
      </trkpt>
      <trkpt lat="45.55472" lon="6.90159">
        <ele>1351</ele>
        <time>2021-07-23T09:00:15.285Z</time>
      </trkpt>
      <trkpt lat="45.55468" lon="6.90161">
        <ele>1351.4</ele>
        <time>2021-07-23T09:00:16.285Z</time>
      </trkpt>
      <trkpt lat="45.55464" lon="6.90163">
        <ele>1352</ele>
        <time>2021-07-23T09:00:17.285Z</time>
      </trkpt>
      <trkpt lat="45.5546" lon="6.90165">
        <ele>1352.4</ele>
        <time>2021-07-23T09:00:18.285Z</time>
      </trkpt>
      <trkpt lat="45.55455" lon="6.90167">
        <ele>1352.8</ele>
        <time>2021-07-23T09:00:19.285Z</time>
      </trkpt>
      <trkpt lat="45.55451" lon="6.90169">
        <ele>1353.2</ele>
        <time>2021-07-23T09:00:20.285Z</time>
      </trkpt>
      <trkpt lat="45.55447" lon="6.9017">
        <ele>1353.2</ele>
        <time>2021-07-23T09:00:21.285Z</time>
      </trkpt>
      <trkpt lat="45.55443" lon="6.90171">
        <ele>1353.2</ele>
        <time>2021-07-23T09:00:22.285Z</time>
      </trkpt>
      <trkpt lat="45.55439" lon="6.90172">
        <ele>1353.2</ele>
        <time>2021-07-23T09:00:23.285Z</time>
      </trkpt>
      <trkpt lat="45.55435" lon="6.90172">
        <ele>1353.2</ele>
        <time>2021-07-23T09:00:24.285Z</time>
      </trkpt>
      <trkpt lat="45.55431" lon="6.90172">
        <ele>1353.2</ele>
        <time>2021-07-23T09:00:25.285Z</time>
      </trkpt>
      <trkpt lat="45.55427" lon="6.90171">
        <ele>1353.2</ele>
        <time>2021-07-23T09:00:26.285Z</time>
      </trkpt>
      <trkpt lat="45.55422" lon="6.90169">
        <ele>1354</ele>
        <time>2021-07-23T09:00:27.285Z</time>
      </trkpt>
      <trkpt lat="45.55418" lon="6.90168">
        <ele>1354.6</ele>
        <time>2021-07-23T09:00:28.285Z</time>
      </trkpt>
      <trkpt lat="45.55414" lon="6.90166">
        <ele>1355</ele>
        <time>2021-07-23T09:00:29.285Z</time>
      </trkpt>
      <trkpt lat="45.5541" lon="6.90165">
        <ele>1355.4</ele>
        <time>2021-07-23T09:00:30.285Z</time>
      </trkpt>
      <trkpt lat="45.55406" lon="6.90163">
        <ele>1355.4</ele>
        <time>2021-07-23T09:00:31.285Z</time>
      </trkpt>
      <trkpt lat="45.55402" lon="6.90163">
        <ele>1355.4</ele>
        <time>2021-07-23T09:00:32.285Z</time>
      </trkpt>
      <trkpt lat="45.55398" lon="6.90162">
        <ele>1355.4</ele>
        <time>2021-07-23T09:00:33.285Z</time>
      </trkpt>
      <trkpt lat="45.55394" lon="6.90161">
        <ele>1355.8</ele>
        <time>2021-07-23T09:00:34.285Z</time>
      </trkpt>
      <trkpt lat="45.55389" lon="6.90161">
        <ele>1356.4</ele>
        <time>2021-07-23T09:00:35.285Z</time>
      </trkpt>
      <trkpt lat="45.55385" lon="6.9016">
        <ele>1356.8</ele>
        <time>2021-07-23T09:00:36.285Z</time>
      </trkpt>
      <trkpt lat="45.55381" lon="6.90159">
        <ele>1357.2</ele>
        <time>2021-07-23T09:00:37.285Z</time>
      </trkpt>
      <trkpt lat="45.55377" lon="6.90159">
        <ele>1357.6</ele>
        <time>2021-07-23T09:00:38.285Z</time>
      </trkpt>
      <trkpt lat="45.55372" lon="6.90159">
        <ele>1357.6</ele>
        <time>2021-07-23T09:00:39.285Z</time>
      </trkpt>
      <trkpt lat="45.55368" lon="6.90159">
        <ele>1357.6</ele>
        <time>2021-07-23T09:00:40.285Z</time>
      </trkpt>
      <trkpt lat="45.55364" lon="6.90158">
        <ele>1357.6</ele>
        <time>2021-07-23T09:00:41.285Z</time>
      </trkpt>
      <trkpt lat="45.5536" lon="6.90158">
        <ele>1357.6</ele>
        <time>2021-07-23T09:00:42.285Z</time>
      </trkpt>
      <trkpt lat="45.55355" lon="6.90158">
        <ele>1357.6</ele>
        <time>2021-07-23T09:00:43.285Z</time>
      </trkpt>
      <trkpt lat="45.55351" lon="6.90158">
        <ele>1357.6</ele>
        <time>2021-07-23T09:00:44.285Z</time>
      </trkpt>
      <trkpt lat="45.55347" lon="6.90158">
        <ele>1358</ele>
        <time>2021-07-23T09:00:45.285Z</time>
      </trkpt>
      <trkpt lat="45.55343" lon="6.90157">
        <ele>1358.4</ele>
        <time>2021-07-23T09:00:46.285Z</time>
      </trkpt>
      <trkpt lat="45.55338" lon="6.90157">
        <ele>1359</ele>
        <time>2021-07-23T09:00:47.285Z</time>
      </trkpt>
      <trkpt lat="45.55334" lon="6.90156">
        <ele>1359.4</ele>
        <time>2021-07-23T09:00:48.285Z</time>
      </trkpt>
      <trkpt lat="45.5533" lon="6.90155">
        <ele>1359.8</ele>
        <time>2021-07-23T09:00:49.285Z</time>
      </trkpt>
      <trkpt lat="45.55325" lon="6.90154">
        <ele>1359.8</ele>
        <time>2021-07-23T09:00:50.285Z</time>
      </trkpt>
      <trkpt lat="45.55321" lon="6.90152">
        <ele>1359.8</ele>
        <time>2021-07-23T09:00:51.285Z</time>
      </trkpt>
      <trkpt lat="45.55317" lon="6.9015">
        <ele>1359.8</ele>
        <time>2021-07-23T09:00:52.285Z</time>
      </trkpt>
      <trkpt lat="45.55313" lon="6.90149">
        <ele>1360.2</ele>
        <time>2021-07-23T09:00:53.285Z</time>
      </trkpt>
      <trkpt lat="45.55309" lon="6.90147">
        <ele>1360.8</ele>
        <time>2021-07-23T09:00:54.285Z</time>
      </trkpt>
      <trkpt lat="45.55305" lon="6.90146">
        <ele>1361.2</ele>
        <time>2021-07-23T09:00:55.285Z</time>
      </trkpt>
      <trkpt lat="45.55301" lon="6.90145">
        <ele>1361.6</ele>
        <time>2021-07-23T09:00:56.285Z</time>
      </trkpt>
      <trkpt lat="45.55297" lon="6.90144">
        <ele>1362</ele>
        <time>2021-07-23T09:00:57.285Z</time>
      </trkpt>
      <trkpt lat="45.55294" lon="6.90144">
        <ele>1362</ele>
        <time>2021-07-23T09:00:58.285Z</time>
      </trkpt>
      <trkpt lat="45.55289" lon="6.90144">
        <ele>1362</ele>
        <time>2021-07-23T09:00:59.285Z</time>
      </trkpt>
      <trkpt lat="45.55285" lon="6.90144">
        <ele>1362.4</ele>
        <time>2021-07-23T09:01:00.285Z</time>
      </trkpt>
      <trkpt lat="45.55281" lon="6.90144">
        <ele>1362.8</ele>
        <time>2021-07-23T09:01:01.285Z</time>
      </trkpt>
      <trkpt lat="45.55277" lon="6.90145">
        <ele>1363.2</ele>
        <time>2021-07-23T09:01:02.285Z</time>
      </trkpt>
      <trkpt lat="45.55273" lon="6.90146">
        <ele>1363.6</ele>
        <time>2021-07-23T09:01:03.285Z</time>
      </trkpt>
      <trkpt lat="45.55268" lon="6.90146">
        <ele>1364</ele>
        <time>2021-07-23T09:01:04.285Z</time>
      </trkpt>
      <trkpt lat="45.55264" lon="6.90148">
        <ele>1364</ele>
        <time>2021-07-23T09:01:05.285Z</time>
      </trkpt>
      <trkpt lat="45.5526" lon="6.9015">
        <ele>1364</ele>
        <time>2021-07-23T09:01:06.285Z</time>
      </trkpt>
      <trkpt lat="45.55257" lon="6.90152">
        <ele>1364</ele>
        <time>2021-07-23T09:01:07.285Z</time>
      </trkpt>
      <trkpt lat="45.55253" lon="6.90155">
        <ele>1364</ele>
        <time>2021-07-23T09:01:08.285Z</time>
      </trkpt>
      <trkpt lat="45.55249" lon="6.90158">
        <ele>1364.6</ele>
        <time>2021-07-23T09:01:09.285Z</time>
      </trkpt>
      <trkpt lat="45.55246" lon="6.90162">
        <ele>1365</ele>
        <time>2021-07-23T09:01:10.285Z</time>
      </trkpt>
      <trkpt lat="45.55243" lon="6.90166">
        <ele>1365.4</ele>
        <time>2021-07-23T09:01:11.285Z</time>
      </trkpt>
      <trkpt lat="45.55239" lon="6.9017">
        <ele>1365.8</ele>
        <time>2021-07-23T09:01:12.285Z</time>
      </trkpt>
      <trkpt lat="45.55236" lon="6.90173">
        <ele>1366.2</ele>
        <time>2021-07-23T09:01:13.285Z</time>
      </trkpt>
      <trkpt lat="45.55233" lon="6.90177">
        <ele>1366.2</ele>
        <time>2021-07-23T09:01:14.285Z</time>
      </trkpt>
      <trkpt lat="45.5523" lon="6.9018">
        <ele>1366.2</ele>
        <time>2021-07-23T09:01:15.285Z</time>
      </trkpt>
      <trkpt lat="45.55226" lon="6.90183">
        <ele>1366.2</ele>
        <time>2021-07-23T09:01:16.285Z</time>
      </trkpt>
      <trkpt lat="45.55223" lon="6.90186">
        <ele>1366.2</ele>
        <time>2021-07-23T09:01:17.285Z</time>
      </trkpt>
      <trkpt lat="45.55219" lon="6.9019">
        <ele>1366.2</ele>
        <time>2021-07-23T09:01:18.285Z</time>
      </trkpt>
      <trkpt lat="45.55215" lon="6.90193">
        <ele>1366.6</ele>
        <time>2021-07-23T09:01:19.285Z</time>
      </trkpt>
      <trkpt lat="45.55212" lon="6.90195">
        <ele>1367</ele>
        <time>2021-07-23T09:01:20.285Z</time>
      </trkpt>
      <trkpt lat="45.55208" lon="6.90197">
        <ele>1367.6</ele>
        <time>2021-07-23T09:01:21.285Z</time>
      </trkpt>
      <trkpt lat="45.55204" lon="6.90199">
        <ele>1368</ele>
        <time>2021-07-23T09:01:22.285Z</time>
      </trkpt>
      <trkpt lat="45.552" lon="6.902">
        <ele>1368.4</ele>
        <time>2021-07-23T09:01:23.285Z</time>
      </trkpt>
      <trkpt lat="45.55196" lon="6.90202">
        <ele>1368.4</ele>
        <time>2021-07-23T09:01:24.285Z</time>
      </trkpt>
      <trkpt lat="45.55192" lon="6.90204">
        <ele>1368.4</ele>
        <time>2021-07-23T09:01:25.285Z</time>
      </trkpt>
      <trkpt lat="45.55188" lon="6.90206">
        <ele>1368.4</ele>
        <time>2021-07-23T09:01:26.285Z</time>
      </trkpt>
      <trkpt lat="45.55185" lon="6.90208">
        <ele>1368.8</ele>
        <time>2021-07-23T09:01:27.285Z</time>
      </trkpt>
      <trkpt lat="45.55181" lon="6.90211">
        <ele>1369.2</ele>
        <time>2021-07-23T09:01:28.285Z</time>
      </trkpt>
      <trkpt lat="45.55178" lon="6.90214">
        <ele>1369.6</ele>
        <time>2021-07-23T09:01:29.285Z</time>
      </trkpt>
      <trkpt lat="45.55175" lon="6.90216">
        <ele>1370</ele>
        <time>2021-07-23T09:01:30.285Z</time>
      </trkpt>
      <trkpt lat="45.55171" lon="6.90219">
        <ele>1370.4</ele>
        <time>2021-07-23T09:01:31.285Z</time>
      </trkpt>
      <trkpt lat="45.55168" lon="6.90221">
        <ele>1370.4</ele>
        <time>2021-07-23T09:01:32.285Z</time>
      </trkpt>
      <trkpt lat="45.55164" lon="6.90224">
        <ele>1370.4</ele>
        <time>2021-07-23T09:01:33.285Z</time>
      </trkpt>
      <trkpt lat="45.55161" lon="6.90227">
        <ele>1370.4</ele>
        <time>2021-07-23T09:01:34.285Z</time>
      </trkpt>
      <trkpt lat="45.55158" lon="6.9023">
        <ele>1370.4</ele>
        <time>2021-07-23T09:01:35.285Z</time>
      </trkpt>
      <trkpt lat="45.55155" lon="6.90233">
        <ele>1370.4</ele>
        <time>2021-07-23T09:01:36.285Z</time>
      </trkpt>
      <trkpt lat="45.55152" lon="6.90235">
        <ele>1370.8</ele>
        <time>2021-07-23T09:01:37.285Z</time>
      </trkpt>
      <trkpt lat="45.55148" lon="6.90238">
        <ele>1371.2</ele>
        <time>2021-07-23T09:01:38.285Z</time>
      </trkpt>
      <trkpt lat="45.55145" lon="6.9024">
        <ele>1371.6</ele>
        <time>2021-07-23T09:01:39.285Z</time>
      </trkpt>
      <trkpt lat="45.55142" lon="6.90243">
        <ele>1372</ele>
        <time>2021-07-23T09:01:40.285Z</time>
      </trkpt>
      <trkpt lat="45.55138" lon="6.90246">
        <ele>1372.4</ele>
        <time>2021-07-23T09:01:41.285Z</time>
      </trkpt>
      <trkpt lat="45.55135" lon="6.90248">
        <ele>1372.4</ele>
        <time>2021-07-23T09:01:42.285Z</time>
      </trkpt>
      <trkpt lat="45.55131" lon="6.9025">
        <ele>1372.4</ele>
        <time>2021-07-23T09:01:43.285Z</time>
      </trkpt>
      <trkpt lat="45.55128" lon="6.90253">
        <ele>1372.4</ele>
        <time>2021-07-23T09:01:44.285Z</time>
      </trkpt>
      <trkpt lat="45.55125" lon="6.90255">
        <ele>1372.4</ele>
        <time>2021-07-23T09:01:45.285Z</time>
      </trkpt>
      <trkpt lat="45.55122" lon="6.90257">
        <ele>1372.8</ele>
        <time>2021-07-23T09:01:46.285Z</time>
      </trkpt>
      <trkpt lat="45.55119" lon="6.90259">
        <ele>1373.2</ele>
        <time>2021-07-23T09:01:47.285Z</time>
      </trkpt>
      <trkpt lat="45.55115" lon="6.90262">
        <ele>1373.6</ele>
        <time>2021-07-23T09:01:48.285Z</time>
      </trkpt>
      <trkpt lat="45.55112" lon="6.90265">
        <ele>1374</ele>
        <time>2021-07-23T09:01:49.285Z</time>
      </trkpt>
      <trkpt lat="45.55109" lon="6.90267">
        <ele>1374.4</ele>
        <time>2021-07-23T09:01:50.285Z</time>
      </trkpt>
      <trkpt lat="45.55106" lon="6.9027">
        <ele>1374.4</ele>
        <time>2021-07-23T09:01:51.285Z</time>
      </trkpt>
      <trkpt lat="45.55102" lon="6.90272">
        <ele>1374.4</ele>
        <time>2021-07-23T09:01:52.285Z</time>
      </trkpt>
      <trkpt lat="45.55099" lon="6.90275">
        <ele>1374.4</ele>
        <time>2021-07-23T09:01:53.285Z</time>
      </trkpt>
      <trkpt lat="45.55096" lon="6.90278">
        <ele>1374.4</ele>
        <time>2021-07-23T09:01:54.285Z</time>
      </trkpt>
      <trkpt lat="45.55093" lon="6.90281">
        <ele>1374.4</ele>
        <time>2021-07-23T09:01:55.285Z</time>
      </trkpt>
      <trkpt lat="45.5509" lon="6.90283">
        <ele>1374.4</ele>
        <time>2021-07-23T09:01:56.285Z</time>
      </trkpt>
      <trkpt lat="45.55086" lon="6.90286">
        <ele>1374.4</ele>
        <time>2021-07-23T09:01:57.285Z</time>
      </trkpt>
      <trkpt lat="45.55083" lon="6.90289">
        <ele>1375</ele>
        <time>2021-07-23T09:01:58.285Z</time>
      </trkpt>
      <trkpt lat="45.55081" lon="6.90291">
        <ele>1375.4</ele>
        <time>2021-07-23T09:01:59.285Z</time>
      </trkpt>
      <trkpt lat="45.55078" lon="6.90295">
        <ele>1375.8</ele>
        <time>2021-07-23T09:02:00.285Z</time>
      </trkpt>
      <trkpt lat="45.55075" lon="6.90298">
        <ele>1376.2</ele>
        <time>2021-07-23T09:02:01.285Z</time>
      </trkpt>
      <trkpt lat="45.55072" lon="6.90301">
        <ele>1376.6</ele>
        <time>2021-07-23T09:02:02.285Z</time>
      </trkpt>
      <trkpt lat="45.55069" lon="6.90304">
        <ele>1376.6</ele>
        <time>2021-07-23T09:02:03.285Z</time>
      </trkpt>
      <trkpt lat="45.55066" lon="6.90307">
        <ele>1376.6</ele>
        <time>2021-07-23T09:02:04.285Z</time>
      </trkpt>
      <trkpt lat="45.55063" lon="6.9031">
        <ele>1376.6</ele>
        <time>2021-07-23T09:02:05.285Z</time>
      </trkpt>
      <trkpt lat="45.5506" lon="6.90314">
        <ele>1376.6</ele>
        <time>2021-07-23T09:02:06.285Z</time>
      </trkpt>
      <trkpt lat="45.55057" lon="6.90317">
        <ele>1376.6</ele>
        <time>2021-07-23T09:02:07.285Z</time>
      </trkpt>
      <trkpt lat="45.55055" lon="6.90321">
        <ele>1377</ele>
        <time>2021-07-23T09:02:08.285Z</time>
      </trkpt>
      <trkpt lat="45.55052" lon="6.90325">
        <ele>1377.4</ele>
        <time>2021-07-23T09:02:09.285Z</time>
      </trkpt>
      <trkpt lat="45.55049" lon="6.90329">
        <ele>1377.8</ele>
        <time>2021-07-23T09:02:10.285Z</time>
      </trkpt>
      <trkpt lat="45.55045" lon="6.90332">
        <ele>1378.4</ele>
        <time>2021-07-23T09:02:11.285Z</time>
      </trkpt>
      <trkpt lat="45.55042" lon="6.90336">
        <ele>1378.8</ele>
        <time>2021-07-23T09:02:12.285Z</time>
      </trkpt>
      <trkpt lat="45.5504" lon="6.9034">
        <ele>1378.8</ele>
        <time>2021-07-23T09:02:13.285Z</time>
      </trkpt>
      <trkpt lat="45.55037" lon="6.90343">
        <ele>1378.8</ele>
        <time>2021-07-23T09:02:14.285Z</time>
      </trkpt>
      <trkpt lat="45.55034" lon="6.90347">
        <ele>1378.8</ele>
        <time>2021-07-23T09:02:15.285Z</time>
      </trkpt>
      <trkpt lat="45.55031" lon="6.90351">
        <ele>1378.8</ele>
        <time>2021-07-23T09:02:16.285Z</time>
      </trkpt>
      <trkpt lat="45.55029" lon="6.90355">
        <ele>1379.2</ele>
        <time>2021-07-23T09:02:17.285Z</time>
      </trkpt>
      <trkpt lat="45.55026" lon="6.90359">
        <ele>1379.6</ele>
        <time>2021-07-23T09:02:18.285Z</time>
      </trkpt>
      <trkpt lat="45.55023" lon="6.90363">
        <ele>1380</ele>
        <time>2021-07-23T09:02:19.285Z</time>
      </trkpt>
      <trkpt lat="45.55021" lon="6.90367">
        <ele>1380.4</ele>
        <time>2021-07-23T09:02:20.285Z</time>
      </trkpt>
      <trkpt lat="45.55018" lon="6.9037">
        <ele>1381</ele>
        <time>2021-07-23T09:02:21.285Z</time>
      </trkpt>
      <trkpt lat="45.55015" lon="6.90374">
        <ele>1381</ele>
        <time>2021-07-23T09:02:22.285Z</time>
      </trkpt>
      <trkpt lat="45.55012" lon="6.90378">
        <ele>1381</ele>
        <time>2021-07-23T09:02:23.285Z</time>
      </trkpt>
      <trkpt lat="45.5501" lon="6.90381">
        <ele>1381</ele>
        <time>2021-07-23T09:02:24.285Z</time>
      </trkpt>
      <trkpt lat="45.55007" lon="6.90385">
        <ele>1381</ele>
        <time>2021-07-23T09:02:25.285Z</time>
      </trkpt>
      <trkpt lat="45.55004" lon="6.90389">
        <ele>1381</ele>
        <time>2021-07-23T09:02:26.285Z</time>
      </trkpt>
      <trkpt lat="45.55001" lon="6.90392">
        <ele>1381</ele>
        <time>2021-07-23T09:02:27.285Z</time>
      </trkpt>
      <trkpt lat="45.54998" lon="6.90396">
        <ele>1381.4</ele>
        <time>2021-07-23T09:02:28.285Z</time>
      </trkpt>
      <trkpt lat="45.54996" lon="6.90399">
        <ele>1381.8</ele>
        <time>2021-07-23T09:02:29.285Z</time>
      </trkpt>
      <trkpt lat="45.54993" lon="6.90403">
        <ele>1382.6</ele>
        <time>2021-07-23T09:02:30.285Z</time>
      </trkpt>
      <trkpt lat="45.5499" lon="6.90406">
        <ele>1383</ele>
        <time>2021-07-23T09:02:31.285Z</time>
      </trkpt>
      <trkpt lat="45.54987" lon="6.9041">
        <ele>1383</ele>
        <time>2021-07-23T09:02:32.285Z</time>
      </trkpt>
      <trkpt lat="45.54985" lon="6.90414">
        <ele>1383</ele>
        <time>2021-07-23T09:02:33.285Z</time>
      </trkpt>
      <trkpt lat="45.54982" lon="6.90417">
        <ele>1383</ele>
        <time>2021-07-23T09:02:34.285Z</time>
      </trkpt>
      <trkpt lat="45.54979" lon="6.90421">
        <ele>1383.4</ele>
        <time>2021-07-23T09:02:35.285Z</time>
      </trkpt>
      <trkpt lat="45.54976" lon="6.90425">
        <ele>1383.8</ele>
        <time>2021-07-23T09:02:36.285Z</time>
      </trkpt>
      <trkpt lat="45.54974" lon="6.90428">
        <ele>1384.2</ele>
        <time>2021-07-23T09:02:37.285Z</time>
      </trkpt>
      <trkpt lat="45.54971" lon="6.90432">
        <ele>1384.6</ele>
        <time>2021-07-23T09:02:38.285Z</time>
      </trkpt>
      <trkpt lat="45.54969" lon="6.90436">
        <ele>1385</ele>
        <time>2021-07-23T09:02:39.285Z</time>
      </trkpt>
      <trkpt lat="45.54966" lon="6.9044">
        <ele>1385</ele>
        <time>2021-07-23T09:02:40.285Z</time>
      </trkpt>
      <trkpt lat="45.54964" lon="6.90444">
        <ele>1385</ele>
        <time>2021-07-23T09:02:41.285Z</time>
      </trkpt>
      <trkpt lat="45.54962" lon="6.90448">
        <ele>1385</ele>
        <time>2021-07-23T09:02:42.285Z</time>
      </trkpt>
      <trkpt lat="45.54959" lon="6.90452">
        <ele>1385</ele>
        <time>2021-07-23T09:02:43.285Z</time>
      </trkpt>
      <trkpt lat="45.54957" lon="6.90456">
        <ele>1385</ele>
        <time>2021-07-23T09:02:44.285Z</time>
      </trkpt>
      <trkpt lat="45.54955" lon="6.9046">
        <ele>1385.4</ele>
        <time>2021-07-23T09:02:45.285Z</time>
      </trkpt>
      <trkpt lat="45.54953" lon="6.90465">
        <ele>1385.8</ele>
        <time>2021-07-23T09:02:46.285Z</time>
      </trkpt>
      <trkpt lat="45.54951" lon="6.9047">
        <ele>1386.2</ele>
        <time>2021-07-23T09:02:47.285Z</time>
      </trkpt>
      <trkpt lat="45.54949" lon="6.90475">
        <ele>1386.6</ele>
        <time>2021-07-23T09:02:48.285Z</time>
      </trkpt>
      <trkpt lat="45.54947" lon="6.90479">
        <ele>1387</ele>
        <time>2021-07-23T09:02:49.285Z</time>
      </trkpt>
      <trkpt lat="45.54945" lon="6.90483">
        <ele>1387</ele>
        <time>2021-07-23T09:02:50.285Z</time>
      </trkpt>
      <trkpt lat="45.54942" lon="6.90488">
        <ele>1387</ele>
        <time>2021-07-23T09:02:51.285Z</time>
      </trkpt>
      <trkpt lat="45.5494" lon="6.90493">
        <ele>1387</ele>
        <time>2021-07-23T09:02:52.285Z</time>
      </trkpt>
      <trkpt lat="45.54938" lon="6.90497">
        <ele>1387</ele>
        <time>2021-07-23T09:02:53.285Z</time>
      </trkpt>
      <trkpt lat="45.54936" lon="6.90501">
        <ele>1387</ele>
        <time>2021-07-23T09:02:54.285Z</time>
      </trkpt>
      <trkpt lat="45.54933" lon="6.90506">
        <ele>1387.8</ele>
        <time>2021-07-23T09:02:55.285Z</time>
      </trkpt>
      <trkpt lat="45.54931" lon="6.9051">
        <ele>1388.2</ele>
        <time>2021-07-23T09:02:56.285Z</time>
      </trkpt>
      <trkpt lat="45.54929" lon="6.90514">
        <ele>1388.6</ele>
        <time>2021-07-23T09:02:57.285Z</time>
      </trkpt>
      <trkpt lat="45.54927" lon="6.90518">
        <ele>1389.2</ele>
        <time>2021-07-23T09:02:58.285Z</time>
      </trkpt>
      <trkpt lat="45.54925" lon="6.90522">
        <ele>1389.2</ele>
        <time>2021-07-23T09:02:59.285Z</time>
      </trkpt>
      <trkpt lat="45.54923" lon="6.90527">
        <ele>1389.2</ele>
        <time>2021-07-23T09:03:00.285Z</time>
      </trkpt>
      <trkpt lat="45.5492" lon="6.90531">
        <ele>1389.2</ele>
        <time>2021-07-23T09:03:01.285Z</time>
      </trkpt>
      <trkpt lat="45.54918" lon="6.90535">
        <ele>1389.2</ele>
        <time>2021-07-23T09:03:02.285Z</time>
      </trkpt>
      <trkpt lat="45.54915" lon="6.90539">
        <ele>1389.2</ele>
        <time>2021-07-23T09:03:03.285Z</time>
      </trkpt>
      <trkpt lat="45.54913" lon="6.90543">
        <ele>1389.6</ele>
        <time>2021-07-23T09:03:04.285Z</time>
      </trkpt>
      <trkpt lat="45.5491" lon="6.90547">
        <ele>1390</ele>
        <time>2021-07-23T09:03:05.285Z</time>
      </trkpt>
      <trkpt lat="45.54908" lon="6.90551">
        <ele>1390.4</ele>
        <time>2021-07-23T09:03:06.285Z</time>
      </trkpt>
      <trkpt lat="45.54905" lon="6.90554">
        <ele>1390.8</ele>
        <time>2021-07-23T09:03:07.285Z</time>
      </trkpt>
      <trkpt lat="45.54903" lon="6.90558">
        <ele>1391.2</ele>
        <time>2021-07-23T09:03:08.285Z</time>
      </trkpt>
      <trkpt lat="45.549" lon="6.90562">
        <ele>1391.2</ele>
        <time>2021-07-23T09:03:09.285Z</time>
      </trkpt>
      <trkpt lat="45.54898" lon="6.90566">
        <ele>1391.2</ele>
        <time>2021-07-23T09:03:10.285Z</time>
      </trkpt>
      <trkpt lat="45.54895" lon="6.9057">
        <ele>1391.2</ele>
        <time>2021-07-23T09:03:11.285Z</time>
      </trkpt>
      <trkpt lat="45.54892" lon="6.90575">
        <ele>1391.2</ele>
        <time>2021-07-23T09:03:12.285Z</time>
      </trkpt>
      <trkpt lat="45.5489" lon="6.90579">
        <ele>1391.2</ele>
        <time>2021-07-23T09:03:13.285Z</time>
      </trkpt>
      <trkpt lat="45.54887" lon="6.90583">
        <ele>1391.6</ele>
        <time>2021-07-23T09:03:14.285Z</time>
      </trkpt>
      <trkpt lat="45.54885" lon="6.90587">
        <ele>1392</ele>
        <time>2021-07-23T09:03:15.285Z</time>
      </trkpt>
      <trkpt lat="45.54883" lon="6.90591">
        <ele>1392.4</ele>
        <time>2021-07-23T09:03:16.285Z</time>
      </trkpt>
      <trkpt lat="45.54881" lon="6.90596">
        <ele>1393</ele>
        <time>2021-07-23T09:03:17.285Z</time>
      </trkpt>
      <trkpt lat="45.54879" lon="6.906">
        <ele>1393.4</ele>
        <time>2021-07-23T09:03:18.285Z</time>
      </trkpt>
      <trkpt lat="45.54876" lon="6.90605">
        <ele>1393.4</ele>
        <time>2021-07-23T09:03:19.285Z</time>
      </trkpt>
      <trkpt lat="45.54874" lon="6.9061">
        <ele>1393.4</ele>
        <time>2021-07-23T09:03:20.285Z</time>
      </trkpt>
      <trkpt lat="45.54873" lon="6.90614">
        <ele>1393.4</ele>
        <time>2021-07-23T09:03:21.285Z</time>
      </trkpt>
      <trkpt lat="45.54871" lon="6.90619">
        <ele>1393.4</ele>
        <time>2021-07-23T09:03:22.285Z</time>
      </trkpt>
      <trkpt lat="45.54868" lon="6.90623">
        <ele>1393.4</ele>
        <time>2021-07-23T09:03:23.285Z</time>
      </trkpt>
      <trkpt lat="45.54865" lon="6.90626">
        <ele>1393.8</ele>
        <time>2021-07-23T09:03:24.285Z</time>
      </trkpt>
      <trkpt lat="45.54862" lon="6.90629">
        <ele>1394.2</ele>
        <time>2021-07-23T09:03:25.285Z</time>
      </trkpt>
      <trkpt lat="45.54859" lon="6.90632">
        <ele>1394.6</ele>
        <time>2021-07-23T09:03:26.285Z</time>
      </trkpt>
      <trkpt lat="45.54856" lon="6.90636">
        <ele>1395</ele>
        <time>2021-07-23T09:03:27.285Z</time>
      </trkpt>
      <trkpt lat="45.54853" lon="6.90639">
        <ele>1395.4</ele>
        <time>2021-07-23T09:03:28.285Z</time>
      </trkpt>
      <trkpt lat="45.5485" lon="6.90642">
        <ele>1395.4</ele>
        <time>2021-07-23T09:03:29.285Z</time>
      </trkpt>
      <trkpt lat="45.54847" lon="6.90645">
        <ele>1395.4</ele>
        <time>2021-07-23T09:03:30.285Z</time>
      </trkpt>
      <trkpt lat="45.54844" lon="6.90647">
        <ele>1395.4</ele>
        <time>2021-07-23T09:03:31.285Z</time>
      </trkpt>
      <trkpt lat="45.5484" lon="6.9065">
        <ele>1395.4</ele>
        <time>2021-07-23T09:03:32.285Z</time>
      </trkpt>
      <trkpt lat="45.54837" lon="6.90652">
        <ele>1395.4</ele>
        <time>2021-07-23T09:03:33.285Z</time>
      </trkpt>
      <trkpt lat="45.54833" lon="6.90654">
        <ele>1395.4</ele>
        <time>2021-07-23T09:03:34.285Z</time>
      </trkpt>
      <trkpt lat="45.5483" lon="6.90656">
        <ele>1395.4</ele>
        <time>2021-07-23T09:03:35.285Z</time>
      </trkpt>
      <trkpt lat="45.54826" lon="6.90658">
        <ele>1395.4</ele>
        <time>2021-07-23T09:03:36.285Z</time>
      </trkpt>
      <trkpt lat="45.54823" lon="6.9066">
        <ele>1395.4</ele>
        <time>2021-07-23T09:03:37.285Z</time>
      </trkpt>
      <trkpt lat="45.54819" lon="6.90662">
        <ele>1395.4</ele>
        <time>2021-07-23T09:03:38.285Z</time>
      </trkpt>
      <trkpt lat="45.54816" lon="6.90664">
        <ele>1395.4</ele>
        <time>2021-07-23T09:03:39.285Z</time>
      </trkpt>
      <trkpt lat="45.54812" lon="6.90665">
        <ele>1395.4</ele>
        <time>2021-07-23T09:03:40.285Z</time>
      </trkpt>
      <trkpt lat="45.54809" lon="6.90668">
        <ele>1396</ele>
        <time>2021-07-23T09:03:41.285Z</time>
      </trkpt>
      <trkpt lat="45.54806" lon="6.9067">
        <ele>1396.4</ele>
        <time>2021-07-23T09:03:42.285Z</time>
      </trkpt>
      <trkpt lat="45.54803" lon="6.90672">
        <ele>1396.8</ele>
        <time>2021-07-23T09:03:43.285Z</time>
      </trkpt>
      <trkpt lat="45.54799" lon="6.90674">
        <ele>1397.2</ele>
        <time>2021-07-23T09:03:44.285Z</time>
      </trkpt>
      <trkpt lat="45.54796" lon="6.90677">
        <ele>1397.6</ele>
        <time>2021-07-23T09:03:45.285Z</time>
      </trkpt>
      <trkpt lat="45.54792" lon="6.90679">
        <ele>1397.6</ele>
        <time>2021-07-23T09:03:46.285Z</time>
      </trkpt>
      <trkpt lat="45.54789" lon="6.90681">
        <ele>1397.6</ele>
        <time>2021-07-23T09:03:47.285Z</time>
      </trkpt>
      <trkpt lat="45.54786" lon="6.90683">
        <ele>1397.6</ele>
        <time>2021-07-23T09:03:48.285Z</time>
      </trkpt>
      <trkpt lat="45.54782" lon="6.90685">
        <ele>1397.6</ele>
        <time>2021-07-23T09:03:49.285Z</time>
      </trkpt>
      <trkpt lat="45.54779" lon="6.90687">
        <ele>1398</ele>
        <time>2021-07-23T09:03:50.285Z</time>
      </trkpt>
      <trkpt lat="45.54775" lon="6.9069">
        <ele>1398.4</ele>
        <time>2021-07-23T09:03:51.285Z</time>
      </trkpt>
      <trkpt lat="45.54772" lon="6.90692">
        <ele>1398.8</ele>
        <time>2021-07-23T09:03:52.285Z</time>
      </trkpt>
      <trkpt lat="45.54769" lon="6.90695">
        <ele>1399.4</ele>
        <time>2021-07-23T09:03:53.285Z</time>
      </trkpt>
      <trkpt lat="45.54766" lon="6.90697">
        <ele>1399.8</ele>
        <time>2021-07-23T09:03:54.285Z</time>
      </trkpt>
      <trkpt lat="45.54763" lon="6.907">
        <ele>1399.8</ele>
        <time>2021-07-23T09:03:55.285Z</time>
      </trkpt>
      <trkpt lat="45.54759" lon="6.90703">
        <ele>1399.8</ele>
        <time>2021-07-23T09:03:56.285Z</time>
      </trkpt>
      <trkpt lat="45.54756" lon="6.90706">
        <ele>1399.8</ele>
        <time>2021-07-23T09:03:57.285Z</time>
      </trkpt>
      <trkpt lat="45.54752" lon="6.90708">
        <ele>1400.2</ele>
        <time>2021-07-23T09:03:58.285Z</time>
      </trkpt>
      <trkpt lat="45.54749" lon="6.90711">
        <ele>1400.6</ele>
        <time>2021-07-23T09:03:59.285Z</time>
      </trkpt>
      <trkpt lat="45.54746" lon="6.90714">
        <ele>1401</ele>
        <time>2021-07-23T09:04:00.285Z</time>
      </trkpt>
      <trkpt lat="45.54742" lon="6.90716">
        <ele>1401.4</ele>
        <time>2021-07-23T09:04:01.285Z</time>
      </trkpt>
      <trkpt lat="45.54739" lon="6.90719">
        <ele>1401.8</ele>
        <time>2021-07-23T09:04:02.285Z</time>
      </trkpt>
      <trkpt lat="45.54736" lon="6.90721">
        <ele>1401.8</ele>
        <time>2021-07-23T09:04:03.285Z</time>
      </trkpt>
      <trkpt lat="45.54732" lon="6.90723">
        <ele>1401.8</ele>
        <time>2021-07-23T09:04:04.285Z</time>
      </trkpt>
      <trkpt lat="45.54728" lon="6.90726">
        <ele>1401.8</ele>
        <time>2021-07-23T09:04:05.285Z</time>
      </trkpt>
      <trkpt lat="45.54725" lon="6.90729">
        <ele>1401.8</ele>
        <time>2021-07-23T09:04:06.285Z</time>
      </trkpt>
      <trkpt lat="45.54722" lon="6.90731">
        <ele>1401.8</ele>
        <time>2021-07-23T09:04:07.285Z</time>
      </trkpt>
      <trkpt lat="45.54718" lon="6.90733">
        <ele>1401.8</ele>
        <time>2021-07-23T09:04:08.285Z</time>
      </trkpt>
      <trkpt lat="45.54714" lon="6.90735">
        <ele>1402.2</ele>
        <time>2021-07-23T09:04:09.285Z</time>
      </trkpt>
      <trkpt lat="45.54711" lon="6.90737">
        <ele>1402.6</ele>
        <time>2021-07-23T09:04:10.285Z</time>
      </trkpt>
      <trkpt lat="45.54708" lon="6.90738">
        <ele>1403</ele>
        <time>2021-07-23T09:04:11.285Z</time>
      </trkpt>
      <trkpt lat="45.54704" lon="6.9074">
        <ele>1403.6</ele>
        <time>2021-07-23T09:04:12.285Z</time>
      </trkpt>
      <trkpt lat="45.547" lon="6.90742">
        <ele>1404</ele>
        <time>2021-07-23T09:04:13.285Z</time>
      </trkpt>
      <trkpt lat="45.54697" lon="6.90743">
        <ele>1404</ele>
        <time>2021-07-23T09:04:14.285Z</time>
      </trkpt>
      <trkpt lat="45.54693" lon="6.90744">
        <ele>1404</ele>
        <time>2021-07-23T09:04:15.285Z</time>
      </trkpt>
      <trkpt lat="45.54689" lon="6.90745">
        <ele>1404</ele>
        <time>2021-07-23T09:04:16.285Z</time>
      </trkpt>
      <trkpt lat="45.54686" lon="6.90745">
        <ele>1404</ele>
        <time>2021-07-23T09:04:17.285Z</time>
      </trkpt>
      <trkpt lat="45.54682" lon="6.90746">
        <ele>1404</ele>
        <time>2021-07-23T09:04:18.285Z</time>
      </trkpt>
      <trkpt lat="45.54678" lon="6.90746">
        <ele>1404</ele>
        <time>2021-07-23T09:04:19.285Z</time>
      </trkpt>
      <trkpt lat="45.54674" lon="6.90747">
        <ele>1404</ele>
        <time>2021-07-23T09:04:20.285Z</time>
      </trkpt>
      <trkpt lat="45.54671" lon="6.90747">
        <ele>1404.4</ele>
        <time>2021-07-23T09:04:21.285Z</time>
      </trkpt>
      <trkpt lat="45.54667" lon="6.90747">
        <ele>1404.8</ele>
        <time>2021-07-23T09:04:22.285Z</time>
      </trkpt>
      <trkpt lat="45.54663" lon="6.90748">
        <ele>1405.2</ele>
        <time>2021-07-23T09:04:23.285Z</time>
      </trkpt>
      <trkpt lat="45.5466" lon="6.90748">
        <ele>1405.8</ele>
        <time>2021-07-23T09:04:24.285Z</time>
      </trkpt>
      <trkpt lat="45.54656" lon="6.90749">
        <ele>1406.2</ele>
        <time>2021-07-23T09:04:25.285Z</time>
      </trkpt>
      <trkpt lat="45.54652" lon="6.9075">
        <ele>1406.2</ele>
        <time>2021-07-23T09:04:26.285Z</time>
      </trkpt>
      <trkpt lat="45.54648" lon="6.9075">
        <ele>1406.2</ele>
        <time>2021-07-23T09:04:27.285Z</time>
      </trkpt>
      <trkpt lat="45.54644" lon="6.90751">
        <ele>1406.6</ele>
        <time>2021-07-23T09:04:28.285Z</time>
      </trkpt>
      <trkpt lat="45.5464" lon="6.90752">
        <ele>1407</ele>
        <time>2021-07-23T09:04:29.285Z</time>
      </trkpt>
      <trkpt lat="45.54636" lon="6.90754">
        <ele>1407.6</ele>
        <time>2021-07-23T09:04:30.285Z</time>
      </trkpt>
      <trkpt lat="45.54633" lon="6.90756">
        <ele>1408</ele>
        <time>2021-07-23T09:04:31.285Z</time>
      </trkpt>
      <trkpt lat="45.54629" lon="6.90758">
        <ele>1408.4</ele>
        <time>2021-07-23T09:04:32.285Z</time>
      </trkpt>
      <trkpt lat="45.54626" lon="6.9076">
        <ele>1408.4</ele>
        <time>2021-07-23T09:04:33.285Z</time>
      </trkpt>
      <trkpt lat="45.54622" lon="6.90762">
        <ele>1408.4</ele>
        <time>2021-07-23T09:04:34.285Z</time>
      </trkpt>
      <trkpt lat="45.54619" lon="6.90764">
        <ele>1408.4</ele>
        <time>2021-07-23T09:04:35.285Z</time>
      </trkpt>
      <trkpt lat="45.54615" lon="6.90766">
        <ele>1408.4</ele>
        <time>2021-07-23T09:04:36.285Z</time>
      </trkpt>
      <trkpt lat="45.54612" lon="6.90769">
        <ele>1408.4</ele>
        <time>2021-07-23T09:04:37.285Z</time>
      </trkpt>
      <trkpt lat="45.54608" lon="6.90771">
        <ele>1408.4</ele>
        <time>2021-07-23T09:04:38.285Z</time>
      </trkpt>
      <trkpt lat="45.54604" lon="6.90773">
        <ele>1408.8</ele>
        <time>2021-07-23T09:04:39.285Z</time>
      </trkpt>
      <trkpt lat="45.54601" lon="6.90776">
        <ele>1409.4</ele>
        <time>2021-07-23T09:04:40.285Z</time>
      </trkpt>
      <trkpt lat="45.54597" lon="6.90778">
        <ele>1409.8</ele>
        <time>2021-07-23T09:04:41.285Z</time>
      </trkpt>
      <trkpt lat="45.54593" lon="6.9078">
        <ele>1410.2</ele>
        <time>2021-07-23T09:04:42.285Z</time>
      </trkpt>
      <trkpt lat="45.54589" lon="6.90781">
        <ele>1410.6</ele>
        <time>2021-07-23T09:04:43.285Z</time>
      </trkpt>
      <trkpt lat="45.54585" lon="6.90783">
        <ele>1410.6</ele>
        <time>2021-07-23T09:04:44.285Z</time>
      </trkpt>
      <trkpt lat="45.54581" lon="6.90784">
        <ele>1410.6</ele>
        <time>2021-07-23T09:04:45.285Z</time>
      </trkpt>
      <trkpt lat="45.54577" lon="6.90786">
        <ele>1410.6</ele>
        <time>2021-07-23T09:04:46.285Z</time>
      </trkpt>
      <trkpt lat="45.54573" lon="6.90787">
        <ele>1410.6</ele>
        <time>2021-07-23T09:04:47.285Z</time>
      </trkpt>
      <trkpt lat="45.54569" lon="6.90788">
        <ele>1410.6</ele>
        <time>2021-07-23T09:04:48.285Z</time>
      </trkpt>
      <trkpt lat="45.54565" lon="6.90788">
        <ele>1411</ele>
        <time>2021-07-23T09:04:49.285Z</time>
      </trkpt>
      <trkpt lat="45.54561" lon="6.90788">
        <ele>1411.4</ele>
        <time>2021-07-23T09:04:50.285Z</time>
      </trkpt>
      <trkpt lat="45.54557" lon="6.90788">
        <ele>1412</ele>
        <time>2021-07-23T09:04:51.285Z</time>
      </trkpt>
      <trkpt lat="45.54553" lon="6.90788">
        <ele>1412.4</ele>
        <time>2021-07-23T09:04:52.285Z</time>
      </trkpt>
      <trkpt lat="45.54549" lon="6.90789">
        <ele>1412.8</ele>
        <time>2021-07-23T09:04:53.285Z</time>
      </trkpt>
      <trkpt lat="45.54545" lon="6.90789">
        <ele>1412.8</ele>
        <time>2021-07-23T09:04:54.285Z</time>
      </trkpt>
      <trkpt lat="45.54541" lon="6.9079">
        <ele>1412.8</ele>
        <time>2021-07-23T09:04:55.285Z</time>
      </trkpt>
      <trkpt lat="45.54537" lon="6.9079">
        <ele>1412.8</ele>
        <time>2021-07-23T09:04:56.285Z</time>
      </trkpt>
      <trkpt lat="45.54534" lon="6.90792">
        <ele>1413.2</ele>
        <time>2021-07-23T09:04:57.285Z</time>
      </trkpt>
      <trkpt lat="45.5453" lon="6.90794">
        <ele>1413.6</ele>
        <time>2021-07-23T09:04:58.285Z</time>
      </trkpt>
      <trkpt lat="45.54527" lon="6.90795">
        <ele>1414.4</ele>
        <time>2021-07-23T09:04:59.285Z</time>
      </trkpt>
      <trkpt lat="45.54523" lon="6.90797">
        <ele>1414.8</ele>
        <time>2021-07-23T09:05:00.285Z</time>
      </trkpt>
      <trkpt lat="45.54519" lon="6.90799">
        <ele>1414.8</ele>
        <time>2021-07-23T09:05:01.285Z</time>
      </trkpt>
      <trkpt lat="45.54516" lon="6.90801">
        <ele>1414.8</ele>
        <time>2021-07-23T09:05:02.285Z</time>
      </trkpt>
      <trkpt lat="45.54512" lon="6.90803">
        <ele>1414.8</ele>
        <time>2021-07-23T09:05:03.285Z</time>
      </trkpt>
      <trkpt lat="45.54509" lon="6.90806">
        <ele>1414.8</ele>
        <time>2021-07-23T09:05:04.285Z</time>
      </trkpt>
      <trkpt lat="45.54506" lon="6.90808">
        <ele>1414.8</ele>
        <time>2021-07-23T09:05:05.285Z</time>
      </trkpt>
      <trkpt lat="45.54502" lon="6.9081">
        <ele>1414.8</ele>
        <time>2021-07-23T09:05:06.285Z</time>
      </trkpt>
      <trkpt lat="45.54499" lon="6.90812">
        <ele>1415.2</ele>
        <time>2021-07-23T09:05:07.285Z</time>
      </trkpt>
      <trkpt lat="45.54495" lon="6.90814">
        <ele>1415.6</ele>
        <time>2021-07-23T09:05:08.285Z</time>
      </trkpt>
      <trkpt lat="45.54492" lon="6.90816">
        <ele>1416</ele>
        <time>2021-07-23T09:05:09.285Z</time>
      </trkpt>
      <trkpt lat="45.54489" lon="6.90819">
        <ele>1416.4</ele>
        <time>2021-07-23T09:05:10.285Z</time>
      </trkpt>
      <trkpt lat="45.54486" lon="6.90821">
        <ele>1416.8</ele>
        <time>2021-07-23T09:05:11.285Z</time>
      </trkpt>
      <trkpt lat="45.54482" lon="6.90823">
        <ele>1416.8</ele>
        <time>2021-07-23T09:05:12.285Z</time>
      </trkpt>
      <trkpt lat="45.54479" lon="6.90826">
        <ele>1416.8</ele>
        <time>2021-07-23T09:05:13.285Z</time>
      </trkpt>
      <trkpt lat="45.54476" lon="6.90829">
        <ele>1416.8</ele>
        <time>2021-07-23T09:05:14.285Z</time>
      </trkpt>
      <trkpt lat="45.54473" lon="6.90833">
        <ele>1416.8</ele>
        <time>2021-07-23T09:05:15.285Z</time>
      </trkpt>
      <trkpt lat="45.54469" lon="6.90836">
        <ele>1416.8</ele>
        <time>2021-07-23T09:05:16.285Z</time>
      </trkpt>
      <trkpt lat="45.54466" lon="6.90839">
        <ele>1417.2</ele>
        <time>2021-07-23T09:05:17.285Z</time>
      </trkpt>
      <trkpt lat="45.54463" lon="6.90841">
        <ele>1417.6</ele>
        <time>2021-07-23T09:05:18.285Z</time>
      </trkpt>
      <trkpt lat="45.5446" lon="6.90843">
        <ele>1418</ele>
        <time>2021-07-23T09:05:19.285Z</time>
      </trkpt>
      <trkpt lat="45.54456" lon="6.90846">
        <ele>1418.4</ele>
        <time>2021-07-23T09:05:20.285Z</time>
      </trkpt>
      <trkpt lat="45.54453" lon="6.90847">
        <ele>1418.8</ele>
        <time>2021-07-23T09:05:21.285Z</time>
      </trkpt>
      <trkpt lat="45.54449" lon="6.90849">
        <ele>1418.8</ele>
        <time>2021-07-23T09:05:22.285Z</time>
      </trkpt>
      <trkpt lat="45.54446" lon="6.90851">
        <ele>1418.8</ele>
        <time>2021-07-23T09:05:23.285Z</time>
      </trkpt>
      <trkpt lat="45.54443" lon="6.90853">
        <ele>1418.8</ele>
        <time>2021-07-23T09:05:24.285Z</time>
      </trkpt>
      <trkpt lat="45.54439" lon="6.90855">
        <ele>1418.8</ele>
        <time>2021-07-23T09:05:25.285Z</time>
      </trkpt>
      <trkpt lat="45.54436" lon="6.90857">
        <ele>1419.4</ele>
        <time>2021-07-23T09:05:26.285Z</time>
      </trkpt>
      <trkpt lat="45.54432" lon="6.90859">
        <ele>1419.8</ele>
        <time>2021-07-23T09:05:27.285Z</time>
      </trkpt>
      <trkpt lat="45.54429" lon="6.9086">
        <ele>1420.2</ele>
        <time>2021-07-23T09:05:28.285Z</time>
      </trkpt>
      <trkpt lat="45.54425" lon="6.90862">
        <ele>1420.6</ele>
        <time>2021-07-23T09:05:29.285Z</time>
      </trkpt>
      <trkpt lat="45.54421" lon="6.90863">
        <ele>1421</ele>
        <time>2021-07-23T09:05:30.285Z</time>
      </trkpt>
      <trkpt lat="45.54418" lon="6.90865">
        <ele>1421</ele>
        <time>2021-07-23T09:05:31.285Z</time>
      </trkpt>
      <trkpt lat="45.54414" lon="6.90866">
        <ele>1421</ele>
        <time>2021-07-23T09:05:32.285Z</time>
      </trkpt>
      <trkpt lat="45.5441" lon="6.90868">
        <ele>1421</ele>
        <time>2021-07-23T09:05:33.285Z</time>
      </trkpt>
      <trkpt lat="45.54407" lon="6.9087">
        <ele>1421</ele>
        <time>2021-07-23T09:05:34.285Z</time>
      </trkpt>
      <trkpt lat="45.54403" lon="6.90871">
        <ele>1421</ele>
        <time>2021-07-23T09:05:35.285Z</time>
      </trkpt>
      <trkpt lat="45.54399" lon="6.90872">
        <ele>1421</ele>
        <time>2021-07-23T09:05:36.285Z</time>
      </trkpt>
      <trkpt lat="45.54396" lon="6.90873">
        <ele>1421.4</ele>
        <time>2021-07-23T09:05:37.285Z</time>
      </trkpt>
      <trkpt lat="45.54392" lon="6.90874">
        <ele>1421.8</ele>
        <time>2021-07-23T09:05:38.285Z</time>
      </trkpt>
      <trkpt lat="45.54389" lon="6.90876">
        <ele>1422.2</ele>
        <time>2021-07-23T09:05:39.285Z</time>
      </trkpt>
      <trkpt lat="45.54385" lon="6.90876">
        <ele>1422.6</ele>
        <time>2021-07-23T09:05:40.285Z</time>
      </trkpt>
      <trkpt lat="45.54382" lon="6.90877">
        <ele>1423</ele>
        <time>2021-07-23T09:05:41.285Z</time>
      </trkpt>
      <trkpt lat="45.54378" lon="6.90879">
        <ele>1423</ele>
        <time>2021-07-23T09:05:42.285Z</time>
      </trkpt>
      <trkpt lat="45.54375" lon="6.9088">
        <ele>1423</ele>
        <time>2021-07-23T09:05:43.285Z</time>
      </trkpt>
      <trkpt lat="45.54371" lon="6.90881">
        <ele>1423</ele>
        <time>2021-07-23T09:05:44.285Z</time>
      </trkpt>
      <trkpt lat="45.54367" lon="6.90882">
        <ele>1423</ele>
        <time>2021-07-23T09:05:45.285Z</time>
      </trkpt>
      <trkpt lat="45.54364" lon="6.90884">
        <ele>1423.6</ele>
        <time>2021-07-23T09:05:46.285Z</time>
      </trkpt>
      <trkpt lat="45.5436" lon="6.90885">
        <ele>1424</ele>
        <time>2021-07-23T09:05:47.285Z</time>
      </trkpt>
      <trkpt lat="45.54357" lon="6.90887">
        <ele>1424.8</ele>
        <time>2021-07-23T09:05:48.285Z</time>
      </trkpt>
      <trkpt lat="45.54353" lon="6.90889">
        <ele>1425.4</ele>
        <time>2021-07-23T09:05:49.285Z</time>
      </trkpt>
      <trkpt lat="45.5435" lon="6.90891">
        <ele>1425.4</ele>
        <time>2021-07-23T09:05:50.285Z</time>
      </trkpt>
      <trkpt lat="45.54347" lon="6.90893">
        <ele>1425.4</ele>
        <time>2021-07-23T09:05:51.285Z</time>
      </trkpt>
      <trkpt lat="45.54344" lon="6.90897">
        <ele>1425.4</ele>
        <time>2021-07-23T09:05:52.285Z</time>
      </trkpt>
      <trkpt lat="45.54341" lon="6.909">
        <ele>1425.4</ele>
        <time>2021-07-23T09:05:53.285Z</time>
      </trkpt>
      <trkpt lat="45.54338" lon="6.90903">
        <ele>1425.4</ele>
        <time>2021-07-23T09:05:54.285Z</time>
      </trkpt>
      <trkpt lat="45.54335" lon="6.90907">
        <ele>1425.4</ele>
        <time>2021-07-23T09:05:55.285Z</time>
      </trkpt>
      <trkpt lat="45.54332" lon="6.90909">
        <ele>1425.4</ele>
        <time>2021-07-23T09:05:56.285Z</time>
      </trkpt>
      <trkpt lat="45.54328" lon="6.90912">
        <ele>1425.4</ele>
        <time>2021-07-23T09:05:57.285Z</time>
      </trkpt>
      <trkpt lat="45.54325" lon="6.90915">
        <ele>1425.8</ele>
        <time>2021-07-23T09:05:58.285Z</time>
      </trkpt>
      <trkpt lat="45.54322" lon="6.90918">
        <ele>1426.2</ele>
        <time>2021-07-23T09:05:59.285Z</time>
      </trkpt>
      <trkpt lat="45.54318" lon="6.9092">
        <ele>1426.6</ele>
        <time>2021-07-23T09:06:00.285Z</time>
      </trkpt>
      <trkpt lat="45.54315" lon="6.90923">
        <ele>1427</ele>
        <time>2021-07-23T09:06:01.285Z</time>
      </trkpt>
      <trkpt lat="45.54312" lon="6.90926">
        <ele>1427.6</ele>
        <time>2021-07-23T09:06:02.285Z</time>
      </trkpt>
      <trkpt lat="45.54308" lon="6.90929">
        <ele>1427.6</ele>
        <time>2021-07-23T09:06:03.285Z</time>
      </trkpt>
      <trkpt lat="45.54305" lon="6.90932">
        <ele>1427.6</ele>
        <time>2021-07-23T09:06:04.285Z</time>
      </trkpt>
      <trkpt lat="45.54302" lon="6.90935">
        <ele>1427.6</ele>
        <time>2021-07-23T09:06:05.285Z</time>
      </trkpt>
      <trkpt lat="45.54298" lon="6.90938">
        <ele>1427.6</ele>
        <time>2021-07-23T09:06:06.285Z</time>
      </trkpt>
      <trkpt lat="45.54295" lon="6.90941">
        <ele>1427.6</ele>
        <time>2021-07-23T09:06:07.285Z</time>
      </trkpt>
      <trkpt lat="45.54292" lon="6.90944">
        <ele>1428</ele>
        <time>2021-07-23T09:06:08.285Z</time>
      </trkpt>
      <trkpt lat="45.54289" lon="6.90946">
        <ele>1428.4</ele>
        <time>2021-07-23T09:06:09.285Z</time>
      </trkpt>
      <trkpt lat="45.54286" lon="6.90949">
        <ele>1428.8</ele>
        <time>2021-07-23T09:06:10.285Z</time>
      </trkpt>
      <trkpt lat="45.54282" lon="6.90951">
        <ele>1429.2</ele>
        <time>2021-07-23T09:06:11.285Z</time>
      </trkpt>
      <trkpt lat="45.54279" lon="6.90954">
        <ele>1429.6</ele>
        <time>2021-07-23T09:06:12.285Z</time>
      </trkpt>
      <trkpt lat="45.54276" lon="6.90957">
        <ele>1429.6</ele>
        <time>2021-07-23T09:06:13.285Z</time>
      </trkpt>
      <trkpt lat="45.54272" lon="6.90959">
        <ele>1429.6</ele>
        <time>2021-07-23T09:06:14.285Z</time>
      </trkpt>
      <trkpt lat="45.54269" lon="6.90962">
        <ele>1429.6</ele>
        <time>2021-07-23T09:06:15.285Z</time>
      </trkpt>
      <trkpt lat="45.54265" lon="6.90964">
        <ele>1429.6</ele>
        <time>2021-07-23T09:06:16.285Z</time>
      </trkpt>
      <trkpt lat="45.54262" lon="6.90967">
        <ele>1429.6</ele>
        <time>2021-07-23T09:06:17.285Z</time>
      </trkpt>
      <trkpt lat="45.54259" lon="6.90969">
        <ele>1429.6</ele>
        <time>2021-07-23T09:06:18.285Z</time>
      </trkpt>
      <trkpt lat="45.54256" lon="6.90972">
        <ele>1430</ele>
        <time>2021-07-23T09:06:19.285Z</time>
      </trkpt>
      <trkpt lat="45.54253" lon="6.90974">
        <ele>1430.4</ele>
        <time>2021-07-23T09:06:20.285Z</time>
      </trkpt>
      <trkpt lat="45.54249" lon="6.90977">
        <ele>1431</ele>
        <time>2021-07-23T09:06:21.285Z</time>
      </trkpt>
      <trkpt lat="45.54246" lon="6.90981">
        <ele>1431.4</ele>
        <time>2021-07-23T09:06:22.285Z</time>
      </trkpt>
      <trkpt lat="45.54243" lon="6.90983">
        <ele>1431.8</ele>
        <time>2021-07-23T09:06:23.285Z</time>
      </trkpt>
      <trkpt lat="45.5424" lon="6.90987">
        <ele>1431.8</ele>
        <time>2021-07-23T09:06:24.285Z</time>
      </trkpt>
      <trkpt lat="45.54238" lon="6.9099">
        <ele>1431.8</ele>
        <time>2021-07-23T09:06:25.285Z</time>
      </trkpt>
      <trkpt lat="45.54234" lon="6.90994">
        <ele>1431.8</ele>
        <time>2021-07-23T09:06:26.285Z</time>
      </trkpt>
      <trkpt lat="45.54231" lon="6.90997">
        <ele>1431.8</ele>
        <time>2021-07-23T09:06:27.285Z</time>
      </trkpt>
      <trkpt lat="45.54229" lon="6.91001">
        <ele>1431.8</ele>
        <time>2021-07-23T09:06:28.285Z</time>
      </trkpt>
      <trkpt lat="45.54226" lon="6.91005">
        <ele>1431.8</ele>
        <time>2021-07-23T09:06:29.285Z</time>
      </trkpt>
      <trkpt lat="45.54223" lon="6.91009">
        <ele>1432.2</ele>
        <time>2021-07-23T09:06:30.285Z</time>
      </trkpt>
      <trkpt lat="45.54221" lon="6.91012">
        <ele>1432.6</ele>
        <time>2021-07-23T09:06:31.285Z</time>
      </trkpt>
      <trkpt lat="45.54218" lon="6.91016">
        <ele>1433.2</ele>
        <time>2021-07-23T09:06:32.285Z</time>
      </trkpt>
      <trkpt lat="45.54215" lon="6.9102">
        <ele>1433.6</ele>
        <time>2021-07-23T09:06:33.285Z</time>
      </trkpt>
      <trkpt lat="45.54213" lon="6.91024">
        <ele>1434</ele>
        <time>2021-07-23T09:06:34.285Z</time>
      </trkpt>
      <trkpt lat="45.5421" lon="6.91027">
        <ele>1434</ele>
        <time>2021-07-23T09:06:35.285Z</time>
      </trkpt>
      <trkpt lat="45.54206" lon="6.9103">
        <ele>1434</ele>
        <time>2021-07-23T09:06:36.285Z</time>
      </trkpt>
      <trkpt lat="45.54203" lon="6.91033">
        <ele>1434</ele>
        <time>2021-07-23T09:06:37.285Z</time>
      </trkpt>
      <trkpt lat="45.542" lon="6.91036">
        <ele>1434</ele>
        <time>2021-07-23T09:06:38.285Z</time>
      </trkpt>
      <trkpt lat="45.54197" lon="6.9104">
        <ele>1434</ele>
        <time>2021-07-23T09:06:39.285Z</time>
      </trkpt>
      <trkpt lat="45.54195" lon="6.91043">
        <ele>1434</ele>
        <time>2021-07-23T09:06:40.285Z</time>
      </trkpt>
      <trkpt lat="45.54192" lon="6.91047">
        <ele>1434.4</ele>
        <time>2021-07-23T09:06:41.285Z</time>
      </trkpt>
      <trkpt lat="45.54189" lon="6.91051">
        <ele>1434.8</ele>
        <time>2021-07-23T09:06:42.285Z</time>
      </trkpt>
      <trkpt lat="45.54186" lon="6.91054">
        <ele>1435.2</ele>
        <time>2021-07-23T09:06:43.285Z</time>
      </trkpt>
      <trkpt lat="45.54183" lon="6.91058">
        <ele>1435.8</ele>
        <time>2021-07-23T09:06:44.285Z</time>
      </trkpt>
      <trkpt lat="45.54179" lon="6.91061">
        <ele>1436.2</ele>
        <time>2021-07-23T09:06:45.285Z</time>
      </trkpt>
      <trkpt lat="45.54176" lon="6.91064">
        <ele>1436.2</ele>
        <time>2021-07-23T09:06:46.285Z</time>
      </trkpt>
      <trkpt lat="45.54172" lon="6.91066">
        <ele>1436.2</ele>
        <time>2021-07-23T09:06:47.285Z</time>
      </trkpt>
      <trkpt lat="45.54169" lon="6.91069">
        <ele>1436.2</ele>
        <time>2021-07-23T09:06:48.285Z</time>
      </trkpt>
      <trkpt lat="45.54165" lon="6.91071">
        <ele>1436.2</ele>
        <time>2021-07-23T09:06:49.285Z</time>
      </trkpt>
      <trkpt lat="45.54162" lon="6.91072">
        <ele>1436.6</ele>
        <time>2021-07-23T09:06:50.285Z</time>
      </trkpt>
      <trkpt lat="45.54158" lon="6.91075">
        <ele>1437</ele>
        <time>2021-07-23T09:06:51.285Z</time>
      </trkpt>
      <trkpt lat="45.54154" lon="6.91077">
        <ele>1437.4</ele>
        <time>2021-07-23T09:06:52.285Z</time>
      </trkpt>
      <trkpt lat="45.54151" lon="6.91079">
        <ele>1438</ele>
        <time>2021-07-23T09:06:53.285Z</time>
      </trkpt>
      <trkpt lat="45.54147" lon="6.91081">
        <ele>1438.4</ele>
        <time>2021-07-23T09:06:54.285Z</time>
      </trkpt>
      <trkpt lat="45.54143" lon="6.91083">
        <ele>1438.4</ele>
        <time>2021-07-23T09:06:55.285Z</time>
      </trkpt>
      <trkpt lat="45.54139" lon="6.91085">
        <ele>1438.4</ele>
        <time>2021-07-23T09:06:56.285Z</time>
      </trkpt>
      <trkpt lat="45.54135" lon="6.91088">
        <ele>1438.4</ele>
        <time>2021-07-23T09:06:57.285Z</time>
      </trkpt>
      <trkpt lat="45.54131" lon="6.9109">
        <ele>1438.4</ele>
        <time>2021-07-23T09:06:58.285Z</time>
      </trkpt>
      <trkpt lat="45.54127" lon="6.91093">
        <ele>1438.8</ele>
        <time>2021-07-23T09:06:59.285Z</time>
      </trkpt>
      <trkpt lat="45.54124" lon="6.91095">
        <ele>1439.2</ele>
        <time>2021-07-23T09:07:00.285Z</time>
      </trkpt>
      <trkpt lat="45.5412" lon="6.91097">
        <ele>1439.6</ele>
        <time>2021-07-23T09:07:01.285Z</time>
      </trkpt>
      <trkpt lat="45.54116" lon="6.91099">
        <ele>1440.4</ele>
        <time>2021-07-23T09:07:02.285Z</time>
      </trkpt>
      <trkpt lat="45.54111" lon="6.911">
        <ele>1440.4</ele>
        <time>2021-07-23T09:07:03.285Z</time>
      </trkpt>
      <trkpt lat="45.54107" lon="6.91102">
        <ele>1440.4</ele>
        <time>2021-07-23T09:07:04.285Z</time>
      </trkpt>
      <trkpt lat="45.54103" lon="6.91103">
        <ele>1440.4</ele>
        <time>2021-07-23T09:07:05.285Z</time>
      </trkpt>
      <trkpt lat="45.54099" lon="6.91104">
        <ele>1440.4</ele>
        <time>2021-07-23T09:07:06.285Z</time>
      </trkpt>
      <trkpt lat="45.54095" lon="6.91105">
        <ele>1440.4</ele>
        <time>2021-07-23T09:07:07.285Z</time>
      </trkpt>
      <trkpt lat="45.5409" lon="6.91106">
        <ele>1440.8</ele>
        <time>2021-07-23T09:07:08.285Z</time>
      </trkpt>
      <trkpt lat="45.54086" lon="6.91106">
        <ele>1441.4</ele>
        <time>2021-07-23T09:07:09.285Z</time>
      </trkpt>
      <trkpt lat="45.54082" lon="6.91106">
        <ele>1441.8</ele>
        <time>2021-07-23T09:07:10.285Z</time>
      </trkpt>
      <trkpt lat="45.54078" lon="6.91106">
        <ele>1442.2</ele>
        <time>2021-07-23T09:07:11.285Z</time>
      </trkpt>
      <trkpt lat="45.54073" lon="6.91106">
        <ele>1442.6</ele>
        <time>2021-07-23T09:07:12.285Z</time>
      </trkpt>
      <trkpt lat="45.54068" lon="6.91105">
        <ele>1442.6</ele>
        <time>2021-07-23T09:07:13.285Z</time>
      </trkpt>
      <trkpt lat="45.54064" lon="6.91104">
        <ele>1442.6</ele>
        <time>2021-07-23T09:07:14.285Z</time>
      </trkpt>
      <trkpt lat="45.54059" lon="6.91102">
        <ele>1442.6</ele>
        <time>2021-07-23T09:07:15.285Z</time>
      </trkpt>
      <trkpt lat="45.54056" lon="6.911">
        <ele>1442.6</ele>
        <time>2021-07-23T09:07:16.285Z</time>
      </trkpt>
      <trkpt lat="45.54052" lon="6.91097">
        <ele>1443</ele>
        <time>2021-07-23T09:07:17.285Z</time>
      </trkpt>
      <trkpt lat="45.5405" lon="6.91095">
        <ele>1443.4</ele>
        <time>2021-07-23T09:07:18.285Z</time>
      </trkpt>
      <trkpt lat="45.54047" lon="6.91092">
        <ele>1444</ele>
        <time>2021-07-23T09:07:19.285Z</time>
      </trkpt>
      <trkpt lat="45.54045" lon="6.91089">
        <ele>1444.4</ele>
        <time>2021-07-23T09:07:20.285Z</time>
      </trkpt>
      <trkpt lat="45.54042" lon="6.91087">
        <ele>1444.8</ele>
        <time>2021-07-23T09:07:21.285Z</time>
      </trkpt>
      <trkpt lat="45.5404" lon="6.91085">
        <ele>1444.8</ele>
        <time>2021-07-23T09:07:22.285Z</time>
      </trkpt>
      <trkpt lat="45.54038" lon="6.91083">
        <ele>1444.8</ele>
        <time>2021-07-23T09:07:23.285Z</time>
      </trkpt>
      <trkpt lat="45.54035" lon="6.91082">
        <ele>1444.8</ele>
        <time>2021-07-23T09:07:24.285Z</time>
      </trkpt>
      <trkpt lat="45.54033" lon="6.91081">
        <ele>1444.8</ele>
        <time>2021-07-23T09:07:25.285Z</time>
      </trkpt>
      <trkpt lat="45.54031" lon="6.9108">
        <ele>1444.8</ele>
        <time>2021-07-23T09:07:26.285Z</time>
      </trkpt>
      <trkpt lat="45.54029" lon="6.9108">
        <ele>1445.2</ele>
        <time>2021-07-23T09:07:27.285Z</time>
      </trkpt>
      <trkpt lat="45.54027" lon="6.91079">
        <ele>1445.6</ele>
        <time>2021-07-23T09:07:28.285Z</time>
      </trkpt>
      <trkpt lat="45.54026" lon="6.91078">
        <ele>1446</ele>
        <time>2021-07-23T09:07:29.285Z</time>
      </trkpt>
      <trkpt lat="45.54025" lon="6.91077">
        <ele>1446.4</ele>
        <time>2021-07-23T09:07:30.285Z</time>
      </trkpt>
      <trkpt lat="45.54025" lon="6.91077">
        <ele>1446.8</ele>
        <time>2021-07-23T09:07:31.285Z</time>
      </trkpt>
      <trkpt lat="45.54023" lon="6.91079">
        <ele>1449</ele>
        <time>2021-07-23T09:07:32.285Z</time>
      </trkpt>
      <trkpt lat="45.54021" lon="6.91079">
        <ele>1449</ele>
        <time>2021-07-23T09:07:33.285Z</time>
      </trkpt>
      <trkpt lat="45.54019" lon="6.9108">
        <ele>1449</ele>
        <time>2021-07-23T09:07:34.285Z</time>
      </trkpt>
      <trkpt lat="45.54017" lon="6.91081">
        <ele>1449</ele>
        <time>2021-07-23T09:07:35.285Z</time>
      </trkpt>
      <trkpt lat="45.54015" lon="6.91082">
        <ele>1449</ele>
        <time>2021-07-23T09:07:36.285Z</time>
      </trkpt>
      <trkpt lat="45.54013" lon="6.91084">
        <ele>1449</ele>
        <time>2021-07-23T09:07:37.285Z</time>
      </trkpt>
      <trkpt lat="45.5401" lon="6.91085">
        <ele>1449</ele>
        <time>2021-07-23T09:07:38.285Z</time>
      </trkpt>
      <trkpt lat="45.54008" lon="6.91087">
        <ele>1449</ele>
        <time>2021-07-23T09:07:39.285Z</time>
      </trkpt>
      <trkpt lat="45.54005" lon="6.91089">
        <ele>1449</ele>
        <time>2021-07-23T09:07:40.285Z</time>
      </trkpt>
      <trkpt lat="45.54003" lon="6.91091">
        <ele>1449</ele>
        <time>2021-07-23T09:07:41.285Z</time>
      </trkpt>
      <trkpt lat="45.54" lon="6.91094">
        <ele>1449</ele>
        <time>2021-07-23T09:07:42.285Z</time>
      </trkpt>
      <trkpt lat="45.53998" lon="6.91096">
        <ele>1449</ele>
        <time>2021-07-23T09:07:43.285Z</time>
      </trkpt>
      <trkpt lat="45.53996" lon="6.91099">
        <ele>1449</ele>
        <time>2021-07-23T09:07:44.285Z</time>
      </trkpt>
      <trkpt lat="45.53994" lon="6.91102">
        <ele>1449</ele>
        <time>2021-07-23T09:07:45.285Z</time>
      </trkpt>
      <trkpt lat="45.53992" lon="6.91104">
        <ele>1449.4</ele>
        <time>2021-07-23T09:07:46.285Z</time>
      </trkpt>
      <trkpt lat="45.53989" lon="6.91107">
        <ele>1449.8</ele>
        <time>2021-07-23T09:07:47.285Z</time>
      </trkpt>
      <trkpt lat="45.53987" lon="6.91109">
        <ele>1450.2</ele>
        <time>2021-07-23T09:07:48.285Z</time>
      </trkpt>
      <trkpt lat="45.53984" lon="6.91111">
        <ele>1450.6</ele>
        <time>2021-07-23T09:07:49.285Z</time>
      </trkpt>
      <trkpt lat="45.53982" lon="6.91112">
        <ele>1451</ele>
        <time>2021-07-23T09:07:50.285Z</time>
      </trkpt>
      <trkpt lat="45.53979" lon="6.91113">
        <ele>1451</ele>
        <time>2021-07-23T09:07:51.285Z</time>
      </trkpt>
      <trkpt lat="45.53975" lon="6.91114">
        <ele>1451</ele>
        <time>2021-07-23T09:07:52.285Z</time>
      </trkpt>
      <trkpt lat="45.53972" lon="6.91115">
        <ele>1451</ele>
        <time>2021-07-23T09:07:53.285Z</time>
      </trkpt>
      <trkpt lat="45.53969" lon="6.91115">
        <ele>1451</ele>
        <time>2021-07-23T09:07:54.285Z</time>
      </trkpt>
      <trkpt lat="45.53967" lon="6.91116">
        <ele>1451</ele>
        <time>2021-07-23T09:07:55.285Z</time>
      </trkpt>
      <trkpt lat="45.53966" lon="6.91116">
        <ele>1451.4</ele>
        <time>2021-07-23T09:07:56.285Z</time>
      </trkpt>
      <trkpt lat="45.53965" lon="6.91116">
        <ele>1451.8</ele>
        <time>2021-07-23T09:07:57.285Z</time>
      </trkpt>
      <trkpt lat="45.53965" lon="6.91116">
        <ele>1452.4</ele>
        <time>2021-07-23T09:07:58.285Z</time>
      </trkpt>
      <trkpt lat="45.53962" lon="6.91117">
        <ele>1453.2</ele>
        <time>2021-07-23T09:07:59.285Z</time>
      </trkpt>
      <trkpt lat="45.5396" lon="6.9112">
        <ele>1453.2</ele>
        <time>2021-07-23T09:08:00.285Z</time>
      </trkpt>
      <trkpt lat="45.53958" lon="6.91122">
        <ele>1453.2</ele>
        <time>2021-07-23T09:08:01.285Z</time>
      </trkpt>
      <trkpt lat="45.53955" lon="6.91125">
        <ele>1453.2</ele>
        <time>2021-07-23T09:08:02.285Z</time>
      </trkpt>
      <trkpt lat="45.53953" lon="6.91127">
        <ele>1453.2</ele>
        <time>2021-07-23T09:08:03.285Z</time>
      </trkpt>
      <trkpt lat="45.5395" lon="6.9113">
        <ele>1453.2</ele>
        <time>2021-07-23T09:08:04.285Z</time>
      </trkpt>
      <trkpt lat="45.53947" lon="6.91133">
        <ele>1453.2</ele>
        <time>2021-07-23T09:08:05.285Z</time>
      </trkpt>
      <trkpt lat="45.53943" lon="6.91137">
        <ele>1453.2</ele>
        <time>2021-07-23T09:08:06.285Z</time>
      </trkpt>
      <trkpt lat="45.5394" lon="6.91141">
        <ele>1453.2</ele>
        <time>2021-07-23T09:08:07.285Z</time>
      </trkpt>
      <trkpt lat="45.53936" lon="6.91144">
        <ele>1453.2</ele>
        <time>2021-07-23T09:08:08.285Z</time>
      </trkpt>
      <trkpt lat="45.53931" lon="6.91147">
        <ele>1453.6</ele>
        <time>2021-07-23T09:08:09.285Z</time>
      </trkpt>
      <trkpt lat="45.53927" lon="6.9115">
        <ele>1454</ele>
        <time>2021-07-23T09:08:10.285Z</time>
      </trkpt>
      <trkpt lat="45.53923" lon="6.91152">
        <ele>1454.4</ele>
        <time>2021-07-23T09:08:11.285Z</time>
      </trkpt>
      <trkpt lat="45.53918" lon="6.91154">
        <ele>1454.8</ele>
        <time>2021-07-23T09:08:12.285Z</time>
      </trkpt>
      <trkpt lat="45.53914" lon="6.91155">
        <ele>1455.2</ele>
        <time>2021-07-23T09:08:13.285Z</time>
      </trkpt>
      <trkpt lat="45.53909" lon="6.91156">
        <ele>1455.2</ele>
        <time>2021-07-23T09:08:14.285Z</time>
      </trkpt>
      <trkpt lat="45.53905" lon="6.91156">
        <ele>1455.2</ele>
        <time>2021-07-23T09:08:15.285Z</time>
      </trkpt>
      <trkpt lat="45.53901" lon="6.91155">
        <ele>1455.2</ele>
        <time>2021-07-23T09:08:16.285Z</time>
      </trkpt>
      <trkpt lat="45.53896" lon="6.91153">
        <ele>1455.6</ele>
        <time>2021-07-23T09:08:17.285Z</time>
      </trkpt>
      <trkpt lat="45.53892" lon="6.91153">
        <ele>1456</ele>
        <time>2021-07-23T09:08:18.285Z</time>
      </trkpt>
      <trkpt lat="45.53888" lon="6.91153">
        <ele>1456.4</ele>
        <time>2021-07-23T09:08:19.285Z</time>
      </trkpt>
      <trkpt lat="45.53885" lon="6.91152">
        <ele>1456.8</ele>
        <time>2021-07-23T09:08:20.285Z</time>
      </trkpt>
      <trkpt lat="45.5388" lon="6.91151">
        <ele>1457.2</ele>
        <time>2021-07-23T09:08:21.285Z</time>
      </trkpt>
      <trkpt lat="45.53876" lon="6.91151">
        <ele>1457.2</ele>
        <time>2021-07-23T09:08:22.285Z</time>
      </trkpt>
      <trkpt lat="45.53873" lon="6.9115">
        <ele>1457.2</ele>
        <time>2021-07-23T09:08:23.285Z</time>
      </trkpt>
      <trkpt lat="45.53869" lon="6.9115">
        <ele>1457.6</ele>
        <time>2021-07-23T09:08:24.285Z</time>
      </trkpt>
      <trkpt lat="45.53865" lon="6.91151">
        <ele>1458</ele>
        <time>2021-07-23T09:08:25.285Z</time>
      </trkpt>
      <trkpt lat="45.5386" lon="6.91151">
        <ele>1458.6</ele>
        <time>2021-07-23T09:08:26.285Z</time>
      </trkpt>
      <trkpt lat="45.53856" lon="6.91152">
        <ele>1459</ele>
        <time>2021-07-23T09:08:27.285Z</time>
      </trkpt>
      <trkpt lat="45.53852" lon="6.91153">
        <ele>1459.4</ele>
        <time>2021-07-23T09:08:28.285Z</time>
      </trkpt>
      <trkpt lat="45.53848" lon="6.91154">
        <ele>1459.4</ele>
        <time>2021-07-23T09:08:29.285Z</time>
      </trkpt>
      <trkpt lat="45.53844" lon="6.91155">
        <ele>1459.4</ele>
        <time>2021-07-23T09:08:30.285Z</time>
      </trkpt>
      <trkpt lat="45.5384" lon="6.91156">
        <ele>1459.4</ele>
        <time>2021-07-23T09:08:31.285Z</time>
      </trkpt>
      <trkpt lat="45.53836" lon="6.91157">
        <ele>1459.4</ele>
        <time>2021-07-23T09:08:32.285Z</time>
      </trkpt>
      <trkpt lat="45.53832" lon="6.91159">
        <ele>1459.4</ele>
        <time>2021-07-23T09:08:33.285Z</time>
      </trkpt>
      <trkpt lat="45.53828" lon="6.9116">
        <ele>1459.4</ele>
        <time>2021-07-23T09:08:34.285Z</time>
      </trkpt>
      <trkpt lat="45.53824" lon="6.91161">
        <ele>1459.8</ele>
        <time>2021-07-23T09:08:35.285Z</time>
      </trkpt>
      <trkpt lat="45.5382" lon="6.91163">
        <ele>1460.2</ele>
        <time>2021-07-23T09:08:36.285Z</time>
      </trkpt>
      <trkpt lat="45.53816" lon="6.91166">
        <ele>1460.6</ele>
        <time>2021-07-23T09:08:37.285Z</time>
      </trkpt>
      <trkpt lat="45.53813" lon="6.91168">
        <ele>1461</ele>
        <time>2021-07-23T09:08:38.285Z</time>
      </trkpt>
      <trkpt lat="45.53809" lon="6.91171">
        <ele>1461.4</ele>
        <time>2021-07-23T09:08:39.285Z</time>
      </trkpt>
      <trkpt lat="45.53806" lon="6.91173">
        <ele>1461.4</ele>
        <time>2021-07-23T09:08:40.285Z</time>
      </trkpt>
      <trkpt lat="45.53802" lon="6.91176">
        <ele>1461.4</ele>
        <time>2021-07-23T09:08:41.285Z</time>
      </trkpt>
      <trkpt lat="45.53799" lon="6.91178">
        <ele>1461.4</ele>
        <time>2021-07-23T09:08:42.285Z</time>
      </trkpt>
      <trkpt lat="45.53796" lon="6.9118">
        <ele>1461.4</ele>
        <time>2021-07-23T09:08:43.285Z</time>
      </trkpt>
      <trkpt lat="45.53792" lon="6.91184">
        <ele>1461.4</ele>
        <time>2021-07-23T09:08:44.285Z</time>
      </trkpt>
      <trkpt lat="45.53789" lon="6.91186">
        <ele>1461.8</ele>
        <time>2021-07-23T09:08:45.285Z</time>
      </trkpt>
      <trkpt lat="45.53786" lon="6.91189">
        <ele>1462.2</ele>
        <time>2021-07-23T09:08:46.285Z</time>
      </trkpt>
      <trkpt lat="45.53783" lon="6.91192">
        <ele>1462.6</ele>
        <time>2021-07-23T09:08:47.285Z</time>
      </trkpt>
      <trkpt lat="45.53779" lon="6.91195">
        <ele>1463.2</ele>
        <time>2021-07-23T09:08:48.285Z</time>
      </trkpt>
      <trkpt lat="45.53777" lon="6.91198">
        <ele>1463.6</ele>
        <time>2021-07-23T09:08:49.285Z</time>
      </trkpt>
      <trkpt lat="45.53774" lon="6.912">
        <ele>1463.6</ele>
        <time>2021-07-23T09:08:50.285Z</time>
      </trkpt>
      <trkpt lat="45.53771" lon="6.91204">
        <ele>1463.6</ele>
        <time>2021-07-23T09:08:51.285Z</time>
      </trkpt>
      <trkpt lat="45.53768" lon="6.91207">
        <ele>1463.6</ele>
        <time>2021-07-23T09:08:52.285Z</time>
      </trkpt>
      <trkpt lat="45.53765" lon="6.9121">
        <ele>1463.6</ele>
        <time>2021-07-23T09:08:53.285Z</time>
      </trkpt>
      <trkpt lat="45.53762" lon="6.91213">
        <ele>1464</ele>
        <time>2021-07-23T09:08:54.285Z</time>
      </trkpt>
      <trkpt lat="45.53759" lon="6.91216">
        <ele>1464.4</ele>
        <time>2021-07-23T09:08:55.285Z</time>
      </trkpt>
      <trkpt lat="45.53756" lon="6.91219">
        <ele>1464.8</ele>
        <time>2021-07-23T09:08:56.285Z</time>
      </trkpt>
      <trkpt lat="45.53753" lon="6.91223">
        <ele>1465.2</ele>
        <time>2021-07-23T09:08:57.285Z</time>
      </trkpt>
      <trkpt lat="45.53751" lon="6.91226">
        <ele>1465.6</ele>
        <time>2021-07-23T09:08:58.285Z</time>
      </trkpt>
      <trkpt lat="45.53748" lon="6.91228">
        <ele>1465.6</ele>
        <time>2021-07-23T09:08:59.285Z</time>
      </trkpt>
      <trkpt lat="45.53745" lon="6.91231">
        <ele>1465.6</ele>
        <time>2021-07-23T09:09:00.285Z</time>
      </trkpt>
      <trkpt lat="45.53743" lon="6.91235">
        <ele>1465.6</ele>
        <time>2021-07-23T09:09:01.285Z</time>
      </trkpt>
      <trkpt lat="45.5374" lon="6.91238">
        <ele>1465.6</ele>
        <time>2021-07-23T09:09:02.285Z</time>
      </trkpt>
      <trkpt lat="45.53738" lon="6.91242">
        <ele>1466</ele>
        <time>2021-07-23T09:09:03.285Z</time>
      </trkpt>
      <trkpt lat="45.53735" lon="6.91245">
        <ele>1466.4</ele>
        <time>2021-07-23T09:09:04.285Z</time>
      </trkpt>
      <trkpt lat="45.53733" lon="6.91249">
        <ele>1466.8</ele>
        <time>2021-07-23T09:09:05.285Z</time>
      </trkpt>
      <trkpt lat="45.5373" lon="6.91253">
        <ele>1467.6</ele>
        <time>2021-07-23T09:09:06.285Z</time>
      </trkpt>
      <trkpt lat="45.53728" lon="6.91257">
        <ele>1467.6</ele>
        <time>2021-07-23T09:09:07.285Z</time>
      </trkpt>
      <trkpt lat="45.53725" lon="6.91261">
        <ele>1467.6</ele>
        <time>2021-07-23T09:09:08.285Z</time>
      </trkpt>
      <trkpt lat="45.53723" lon="6.91265">
        <ele>1467.6</ele>
        <time>2021-07-23T09:09:09.285Z</time>
      </trkpt>
      <trkpt lat="45.5372" lon="6.91268">
        <ele>1467.6</ele>
        <time>2021-07-23T09:09:10.285Z</time>
      </trkpt>
      <trkpt lat="45.53718" lon="6.91271">
        <ele>1467.6</ele>
        <time>2021-07-23T09:09:11.285Z</time>
      </trkpt>
      <trkpt lat="45.53715" lon="6.91274">
        <ele>1467.6</ele>
        <time>2021-07-23T09:09:12.285Z</time>
      </trkpt>
      <trkpt lat="45.53712" lon="6.91278">
        <ele>1467.6</ele>
        <time>2021-07-23T09:09:13.285Z</time>
      </trkpt>
      <trkpt lat="45.5371" lon="6.91281">
        <ele>1467.6</ele>
        <time>2021-07-23T09:09:14.285Z</time>
      </trkpt>
      <trkpt lat="45.53707" lon="6.91285">
        <ele>1468</ele>
        <time>2021-07-23T09:09:15.285Z</time>
      </trkpt>
      <trkpt lat="45.53705" lon="6.91288">
        <ele>1468.4</ele>
        <time>2021-07-23T09:09:16.285Z</time>
      </trkpt>
      <trkpt lat="45.53702" lon="6.91291">
        <ele>1468.8</ele>
        <time>2021-07-23T09:09:17.285Z</time>
      </trkpt>
      <trkpt lat="45.537" lon="6.91294">
        <ele>1469.2</ele>
        <time>2021-07-23T09:09:18.285Z</time>
      </trkpt>
      <trkpt lat="45.53697" lon="6.91298">
        <ele>1469.6</ele>
        <time>2021-07-23T09:09:19.285Z</time>
      </trkpt>
      <trkpt lat="45.53695" lon="6.91302">
        <ele>1469.6</ele>
        <time>2021-07-23T09:09:20.285Z</time>
      </trkpt>
      <trkpt lat="45.53693" lon="6.91305">
        <ele>1469.6</ele>
        <time>2021-07-23T09:09:21.285Z</time>
      </trkpt>
      <trkpt lat="45.5369" lon="6.91309">
        <ele>1469.6</ele>
        <time>2021-07-23T09:09:22.285Z</time>
      </trkpt>
      <trkpt lat="45.53688" lon="6.91313">
        <ele>1470.2</ele>
        <time>2021-07-23T09:09:23.285Z</time>
      </trkpt>
      <trkpt lat="45.53687" lon="6.91318">
        <ele>1470.6</ele>
        <time>2021-07-23T09:09:24.285Z</time>
      </trkpt>
      <trkpt lat="45.53685" lon="6.91322">
        <ele>1471</ele>
        <time>2021-07-23T09:09:25.285Z</time>
      </trkpt>
      <trkpt lat="45.53684" lon="6.91327">
        <ele>1471.4</ele>
        <time>2021-07-23T09:09:26.285Z</time>
      </trkpt>
      <trkpt lat="45.53683" lon="6.91332">
        <ele>1471.8</ele>
        <time>2021-07-23T09:09:27.285Z</time>
      </trkpt>
      <trkpt lat="45.53682" lon="6.91337">
        <ele>1471.8</ele>
        <time>2021-07-23T09:09:28.285Z</time>
      </trkpt>
      <trkpt lat="45.53681" lon="6.91342">
        <ele>1471.8</ele>
        <time>2021-07-23T09:09:29.285Z</time>
      </trkpt>
      <trkpt lat="45.53679" lon="6.91347">
        <ele>1471.8</ele>
        <time>2021-07-23T09:09:30.285Z</time>
      </trkpt>
      <trkpt lat="45.53678" lon="6.91352">
        <ele>1471.8</ele>
        <time>2021-07-23T09:09:31.285Z</time>
      </trkpt>
      <trkpt lat="45.53677" lon="6.91357">
        <ele>1471.8</ele>
        <time>2021-07-23T09:09:32.285Z</time>
      </trkpt>
      <trkpt lat="45.53676" lon="6.91362">
        <ele>1471.8</ele>
        <time>2021-07-23T09:09:33.285Z</time>
      </trkpt>
      <trkpt lat="45.53674" lon="6.91368">
        <ele>1471.8</ele>
        <time>2021-07-23T09:09:34.285Z</time>
      </trkpt>
      <trkpt lat="45.53673" lon="6.91373">
        <ele>1471.8</ele>
        <time>2021-07-23T09:09:35.285Z</time>
      </trkpt>
      <trkpt lat="45.53672" lon="6.91378">
        <ele>1472.2</ele>
        <time>2021-07-23T09:09:36.285Z</time>
      </trkpt>
      <trkpt lat="45.5367" lon="6.91383">
        <ele>1472.6</ele>
        <time>2021-07-23T09:09:37.285Z</time>
      </trkpt>
      <trkpt lat="45.53669" lon="6.91388">
        <ele>1473</ele>
        <time>2021-07-23T09:09:38.285Z</time>
      </trkpt>
      <trkpt lat="45.53668" lon="6.91393">
        <ele>1473.4</ele>
        <time>2021-07-23T09:09:39.285Z</time>
      </trkpt>
      <trkpt lat="45.53666" lon="6.91398">
        <ele>1473.8</ele>
        <time>2021-07-23T09:09:40.285Z</time>
      </trkpt>
      <trkpt lat="45.53665" lon="6.91402">
        <ele>1473.8</ele>
        <time>2021-07-23T09:09:41.285Z</time>
      </trkpt>
      <trkpt lat="45.53663" lon="6.91406">
        <ele>1473.8</ele>
        <time>2021-07-23T09:09:42.285Z</time>
      </trkpt>
      <trkpt lat="45.53661" lon="6.91411">
        <ele>1473.8</ele>
        <time>2021-07-23T09:09:43.285Z</time>
      </trkpt>
      <trkpt lat="45.53659" lon="6.91415">
        <ele>1473.8</ele>
        <time>2021-07-23T09:09:44.285Z</time>
      </trkpt>
      <trkpt lat="45.53656" lon="6.9142">
        <ele>1473.8</ele>
        <time>2021-07-23T09:09:45.285Z</time>
      </trkpt>
      <trkpt lat="45.53653" lon="6.91424">
        <ele>1474.4</ele>
        <time>2021-07-23T09:09:46.285Z</time>
      </trkpt>
      <trkpt lat="45.53651" lon="6.91428">
        <ele>1474.8</ele>
        <time>2021-07-23T09:09:47.285Z</time>
      </trkpt>
      <trkpt lat="45.53649" lon="6.91432">
        <ele>1475.2</ele>
        <time>2021-07-23T09:09:48.285Z</time>
      </trkpt>
      <trkpt lat="45.53646" lon="6.91436">
        <ele>1475.8</ele>
        <time>2021-07-23T09:09:49.285Z</time>
      </trkpt>
      <trkpt lat="45.53644" lon="6.91439">
        <ele>1476.2</ele>
        <time>2021-07-23T09:09:50.285Z</time>
      </trkpt>
      <trkpt lat="45.53639" lon="6.9144">
        <ele>1476.2</ele>
        <time>2021-07-23T09:09:51.285Z</time>
      </trkpt>
      <trkpt lat="45.53635" lon="6.91441">
        <ele>1476.2</ele>
        <time>2021-07-23T09:09:52.285Z</time>
      </trkpt>
      <trkpt lat="45.53631" lon="6.9144">
        <ele>1476.2</ele>
        <time>2021-07-23T09:09:53.285Z</time>
      </trkpt>
      <trkpt lat="45.53627" lon="6.91439">
        <ele>1476.2</ele>
        <time>2021-07-23T09:09:54.285Z</time>
      </trkpt>
      <trkpt lat="45.53623" lon="6.91438">
        <ele>1476.2</ele>
        <time>2021-07-23T09:09:55.285Z</time>
      </trkpt>
      <trkpt lat="45.53619" lon="6.91437">
        <ele>1476.6</ele>
        <time>2021-07-23T09:09:56.285Z</time>
      </trkpt>
      <trkpt lat="45.53615" lon="6.91436">
        <ele>1477</ele>
        <time>2021-07-23T09:09:57.285Z</time>
      </trkpt>
      <trkpt lat="45.53611" lon="6.91435">
        <ele>1477.4</ele>
        <time>2021-07-23T09:09:58.285Z</time>
      </trkpt>
      <trkpt lat="45.53608" lon="6.91435">
        <ele>1478</ele>
        <time>2021-07-23T09:09:59.285Z</time>
      </trkpt>
      <trkpt lat="45.53604" lon="6.91434">
        <ele>1478.4</ele>
        <time>2021-07-23T09:10:00.285Z</time>
      </trkpt>
      <trkpt lat="45.536" lon="6.91434">
        <ele>1478.4</ele>
        <time>2021-07-23T09:10:01.285Z</time>
      </trkpt>
      <trkpt lat="45.53596" lon="6.91433">
        <ele>1478.4</ele>
        <time>2021-07-23T09:10:02.285Z</time>
      </trkpt>
      <trkpt lat="45.53592" lon="6.91432">
        <ele>1478.4</ele>
        <time>2021-07-23T09:10:03.285Z</time>
      </trkpt>
      <trkpt lat="45.53588" lon="6.91432">
        <ele>1478.4</ele>
        <time>2021-07-23T09:10:04.285Z</time>
      </trkpt>
      <trkpt lat="45.53584" lon="6.91432">
        <ele>1478.4</ele>
        <time>2021-07-23T09:10:05.285Z</time>
      </trkpt>
      <trkpt lat="45.5358" lon="6.91433">
        <ele>1478.4</ele>
        <time>2021-07-23T09:10:06.285Z</time>
      </trkpt>
      <trkpt lat="45.53576" lon="6.91434">
        <ele>1478.4</ele>
        <time>2021-07-23T09:10:07.285Z</time>
      </trkpt>
      <trkpt lat="45.53572" lon="6.91435">
        <ele>1478.4</ele>
        <time>2021-07-23T09:10:08.285Z</time>
      </trkpt>
      <trkpt lat="45.53568" lon="6.91437">
        <ele>1478.8</ele>
        <time>2021-07-23T09:10:09.285Z</time>
      </trkpt>
      <trkpt lat="45.53564" lon="6.91439">
        <ele>1479.2</ele>
        <time>2021-07-23T09:10:10.285Z</time>
      </trkpt>
      <trkpt lat="45.53561" lon="6.91441">
        <ele>1479.6</ele>
        <time>2021-07-23T09:10:11.285Z</time>
      </trkpt>
      <trkpt lat="45.53557" lon="6.91443">
        <ele>1480</ele>
        <time>2021-07-23T09:10:12.285Z</time>
      </trkpt>
      <trkpt lat="45.53553" lon="6.91446">
        <ele>1480.4</ele>
        <time>2021-07-23T09:10:13.285Z</time>
      </trkpt>
      <trkpt lat="45.53549" lon="6.91448">
        <ele>1480.4</ele>
        <time>2021-07-23T09:10:14.285Z</time>
      </trkpt>
      <trkpt lat="45.53545" lon="6.9145">
        <ele>1480.4</ele>
        <time>2021-07-23T09:10:15.285Z</time>
      </trkpt>
      <trkpt lat="45.53542" lon="6.91451">
        <ele>1480.4</ele>
        <time>2021-07-23T09:10:16.285Z</time>
      </trkpt>
      <trkpt lat="45.53538" lon="6.91453">
        <ele>1480.4</ele>
        <time>2021-07-23T09:10:17.285Z</time>
      </trkpt>
      <trkpt lat="45.53534" lon="6.91455">
        <ele>1480.8</ele>
        <time>2021-07-23T09:10:18.285Z</time>
      </trkpt>
      <trkpt lat="45.5353" lon="6.91456">
        <ele>1481.2</ele>
        <time>2021-07-23T09:10:19.285Z</time>
      </trkpt>
      <trkpt lat="45.53526" lon="6.91458">
        <ele>1481.6</ele>
        <time>2021-07-23T09:10:20.285Z</time>
      </trkpt>
      <trkpt lat="45.53522" lon="6.9146">
        <ele>1482.4</ele>
        <time>2021-07-23T09:10:21.285Z</time>
      </trkpt>
      <trkpt lat="45.53519" lon="6.91461">
        <ele>1482.4</ele>
        <time>2021-07-23T09:10:22.285Z</time>
      </trkpt>
      <trkpt lat="45.53515" lon="6.91462">
        <ele>1482.4</ele>
        <time>2021-07-23T09:10:23.285Z</time>
      </trkpt>
      <trkpt lat="45.53511" lon="6.91462">
        <ele>1482.4</ele>
        <time>2021-07-23T09:10:24.285Z</time>
      </trkpt>
      <trkpt lat="45.53508" lon="6.91461">
        <ele>1482.8</ele>
        <time>2021-07-23T09:10:25.285Z</time>
      </trkpt>
      <trkpt lat="45.53504" lon="6.91461">
        <ele>1483.2</ele>
        <time>2021-07-23T09:10:26.285Z</time>
      </trkpt>
      <trkpt lat="45.53501" lon="6.9146">
        <ele>1483.8</ele>
        <time>2021-07-23T09:10:27.285Z</time>
      </trkpt>
      <trkpt lat="45.53498" lon="6.9146">
        <ele>1484.2</ele>
        <time>2021-07-23T09:10:28.285Z</time>
      </trkpt>
      <trkpt lat="45.53495" lon="6.91459">
        <ele>1484.6</ele>
        <time>2021-07-23T09:10:29.285Z</time>
      </trkpt>
      <trkpt lat="45.53491" lon="6.91459">
        <ele>1484.6</ele>
        <time>2021-07-23T09:10:30.285Z</time>
      </trkpt>
      <trkpt lat="45.53488" lon="6.9146">
        <ele>1484.6</ele>
        <time>2021-07-23T09:10:31.285Z</time>
      </trkpt>
      <trkpt lat="45.53485" lon="6.9146">
        <ele>1485</ele>
        <time>2021-07-23T09:10:32.285Z</time>
      </trkpt>
      <trkpt lat="45.53481" lon="6.9146">
        <ele>1485.4</ele>
        <time>2021-07-23T09:10:33.285Z</time>
      </trkpt>
      <trkpt lat="45.53478" lon="6.91461">
        <ele>1485.8</ele>
        <time>2021-07-23T09:10:34.285Z</time>
      </trkpt>
      <trkpt lat="45.53475" lon="6.91461">
        <ele>1486.4</ele>
        <time>2021-07-23T09:10:35.285Z</time>
      </trkpt>
      <trkpt lat="45.53471" lon="6.91462">
        <ele>1486.8</ele>
        <time>2021-07-23T09:10:36.285Z</time>
      </trkpt>
      <trkpt lat="45.53468" lon="6.91462">
        <ele>1486.8</ele>
        <time>2021-07-23T09:10:37.285Z</time>
      </trkpt>
      <trkpt lat="45.53465" lon="6.91463">
        <ele>1486.8</ele>
        <time>2021-07-23T09:10:38.285Z</time>
      </trkpt>
      <trkpt lat="45.53462" lon="6.91464">
        <ele>1486.8</ele>
        <time>2021-07-23T09:10:39.285Z</time>
      </trkpt>
      <trkpt lat="45.53459" lon="6.91465">
        <ele>1486.8</ele>
        <time>2021-07-23T09:10:40.285Z</time>
      </trkpt>
      <trkpt lat="45.53456" lon="6.91466">
        <ele>1486.8</ele>
        <time>2021-07-23T09:10:41.285Z</time>
      </trkpt>
      <trkpt lat="45.53452" lon="6.91467">
        <ele>1486.8</ele>
        <time>2021-07-23T09:10:42.285Z</time>
      </trkpt>
      <trkpt lat="45.53449" lon="6.91469">
        <ele>1487.2</ele>
        <time>2021-07-23T09:10:43.285Z</time>
      </trkpt>
      <trkpt lat="45.53446" lon="6.9147">
        <ele>1487.6</ele>
        <time>2021-07-23T09:10:44.285Z</time>
      </trkpt>
      <trkpt lat="45.53443" lon="6.91471">
        <ele>1488.6</ele>
        <time>2021-07-23T09:10:45.285Z</time>
      </trkpt>
      <trkpt lat="45.5344" lon="6.91473">
        <ele>1489</ele>
        <time>2021-07-23T09:10:46.285Z</time>
      </trkpt>
      <trkpt lat="45.53437" lon="6.91474">
        <ele>1489</ele>
        <time>2021-07-23T09:10:47.285Z</time>
      </trkpt>
      <trkpt lat="45.53434" lon="6.91476">
        <ele>1489</ele>
        <time>2021-07-23T09:10:48.285Z</time>
      </trkpt>
      <trkpt lat="45.53431" lon="6.91477">
        <ele>1489</ele>
        <time>2021-07-23T09:10:49.285Z</time>
      </trkpt>
      <trkpt lat="45.53428" lon="6.91478">
        <ele>1489</ele>
        <time>2021-07-23T09:10:50.285Z</time>
      </trkpt>
      <trkpt lat="45.53424" lon="6.9148">
        <ele>1489</ele>
        <time>2021-07-23T09:10:51.285Z</time>
      </trkpt>
      <trkpt lat="45.53421" lon="6.91481">
        <ele>1489</ele>
        <time>2021-07-23T09:10:52.285Z</time>
      </trkpt>
      <trkpt lat="45.53418" lon="6.91482">
        <ele>1489.4</ele>
        <time>2021-07-23T09:10:53.285Z</time>
      </trkpt>
      <trkpt lat="45.53415" lon="6.91484">
        <ele>1489.8</ele>
        <time>2021-07-23T09:10:54.285Z</time>
      </trkpt>
      <trkpt lat="45.53411" lon="6.91485">
        <ele>1490.2</ele>
        <time>2021-07-23T09:10:55.285Z</time>
      </trkpt>
      <trkpt lat="45.53408" lon="6.91486">
        <ele>1490.6</ele>
        <time>2021-07-23T09:10:56.285Z</time>
      </trkpt>
      <trkpt lat="45.53405" lon="6.91487">
        <ele>1491</ele>
        <time>2021-07-23T09:10:57.285Z</time>
      </trkpt>
      <trkpt lat="45.53402" lon="6.91488">
        <ele>1491</ele>
        <time>2021-07-23T09:10:58.285Z</time>
      </trkpt>
      <trkpt lat="45.53399" lon="6.9149">
        <ele>1491</ele>
        <time>2021-07-23T09:10:59.285Z</time>
      </trkpt>
      <trkpt lat="45.53395" lon="6.9149">
        <ele>1491</ele>
        <time>2021-07-23T09:11:00.285Z</time>
      </trkpt>
      <trkpt lat="45.53392" lon="6.91492">
        <ele>1491.4</ele>
        <time>2021-07-23T09:11:01.285Z</time>
      </trkpt>
      <trkpt lat="45.53389" lon="6.91492">
        <ele>1491.8</ele>
        <time>2021-07-23T09:11:02.285Z</time>
      </trkpt>
      <trkpt lat="45.53386" lon="6.91492">
        <ele>1492.4</ele>
        <time>2021-07-23T09:11:03.285Z</time>
      </trkpt>
      <trkpt lat="45.53383" lon="6.91494">
        <ele>1492.8</ele>
        <time>2021-07-23T09:11:04.285Z</time>
      </trkpt>
      <trkpt lat="45.53379" lon="6.91494">
        <ele>1493.2</ele>
        <time>2021-07-23T09:11:05.285Z</time>
      </trkpt>
      <trkpt lat="45.53376" lon="6.91495">
        <ele>1493.2</ele>
        <time>2021-07-23T09:11:06.285Z</time>
      </trkpt>
      <trkpt lat="45.53374" lon="6.91496">
        <ele>1493.2</ele>
        <time>2021-07-23T09:11:07.285Z</time>
      </trkpt>
      <trkpt lat="45.5337" lon="6.91496">
        <ele>1493.2</ele>
        <time>2021-07-23T09:11:08.285Z</time>
      </trkpt>
      <trkpt lat="45.53367" lon="6.91496">
        <ele>1493.2</ele>
        <time>2021-07-23T09:11:09.285Z</time>
      </trkpt>
      <trkpt lat="45.53364" lon="6.91496">
        <ele>1494</ele>
        <time>2021-07-23T09:11:10.285Z</time>
      </trkpt>
      <trkpt lat="45.53361" lon="6.91497">
        <ele>1494.4</ele>
        <time>2021-07-23T09:11:11.285Z</time>
      </trkpt>
      <trkpt lat="45.53358" lon="6.91497">
        <ele>1494.8</ele>
        <time>2021-07-23T09:11:12.285Z</time>
      </trkpt>
      <trkpt lat="45.53354" lon="6.91497">
        <ele>1495.2</ele>
        <time>2021-07-23T09:11:13.285Z</time>
      </trkpt>
      <trkpt lat="45.53351" lon="6.91498">
        <ele>1495.2</ele>
        <time>2021-07-23T09:11:14.285Z</time>
      </trkpt>
      <trkpt lat="45.53348" lon="6.91498">
        <ele>1495.2</ele>
        <time>2021-07-23T09:11:15.285Z</time>
      </trkpt>
      <trkpt lat="45.53345" lon="6.91498">
        <ele>1495.2</ele>
        <time>2021-07-23T09:11:16.285Z</time>
      </trkpt>
      <trkpt lat="45.53341" lon="6.91497">
        <ele>1495.2</ele>
        <time>2021-07-23T09:11:17.285Z</time>
      </trkpt>
      <trkpt lat="45.53338" lon="6.91497">
        <ele>1495.6</ele>
        <time>2021-07-23T09:11:18.285Z</time>
      </trkpt>
      <trkpt lat="45.53335" lon="6.91497">
        <ele>1496</ele>
        <time>2021-07-23T09:11:19.285Z</time>
      </trkpt>
      <trkpt lat="45.53332" lon="6.91497">
        <ele>1496.4</ele>
        <time>2021-07-23T09:11:20.285Z</time>
      </trkpt>
      <trkpt lat="45.53329" lon="6.91496">
        <ele>1496.8</ele>
        <time>2021-07-23T09:11:21.285Z</time>
      </trkpt>
      <trkpt lat="45.53326" lon="6.91496">
        <ele>1497.2</ele>
        <time>2021-07-23T09:11:22.285Z</time>
      </trkpt>
      <trkpt lat="45.53323" lon="6.91495">
        <ele>1497.2</ele>
        <time>2021-07-23T09:11:23.285Z</time>
      </trkpt>
      <trkpt lat="45.5332" lon="6.91495">
        <ele>1497.2</ele>
        <time>2021-07-23T09:11:24.285Z</time>
      </trkpt>
      <trkpt lat="45.53317" lon="6.91496">
        <ele>1497.2</ele>
        <time>2021-07-23T09:11:25.285Z</time>
      </trkpt>
      <trkpt lat="45.53313" lon="6.91496">
        <ele>1497.2</ele>
        <time>2021-07-23T09:11:26.285Z</time>
      </trkpt>
      <trkpt lat="45.5331" lon="6.91497">
        <ele>1497.6</ele>
        <time>2021-07-23T09:11:27.285Z</time>
      </trkpt>
      <trkpt lat="45.53307" lon="6.91497">
        <ele>1498</ele>
        <time>2021-07-23T09:11:28.285Z</time>
      </trkpt>
      <trkpt lat="45.53304" lon="6.91499">
        <ele>1498.6</ele>
        <time>2021-07-23T09:11:29.285Z</time>
      </trkpt>
      <trkpt lat="45.533" lon="6.91499">
        <ele>1499</ele>
        <time>2021-07-23T09:11:30.285Z</time>
      </trkpt>
      <trkpt lat="45.53297" lon="6.915">
        <ele>1499.4</ele>
        <time>2021-07-23T09:11:31.285Z</time>
      </trkpt>
      <trkpt lat="45.53294" lon="6.915">
        <ele>1499.4</ele>
        <time>2021-07-23T09:11:32.285Z</time>
      </trkpt>
      <trkpt lat="45.5329" lon="6.91502">
        <ele>1499.4</ele>
        <time>2021-07-23T09:11:33.285Z</time>
      </trkpt>
      <trkpt lat="45.53286" lon="6.91503">
        <ele>1499.4</ele>
        <time>2021-07-23T09:11:34.285Z</time>
      </trkpt>
      <trkpt lat="45.53283" lon="6.91504">
        <ele>1499.4</ele>
        <time>2021-07-23T09:11:35.285Z</time>
      </trkpt>
      <trkpt lat="45.53279" lon="6.91506">
        <ele>1499.4</ele>
        <time>2021-07-23T09:11:36.285Z</time>
      </trkpt>
      <trkpt lat="45.53275" lon="6.91507">
        <ele>1499.4</ele>
        <time>2021-07-23T09:11:37.285Z</time>
      </trkpt>
      <trkpt lat="45.53271" lon="6.91509">
        <ele>1499.4</ele>
        <time>2021-07-23T09:11:38.285Z</time>
      </trkpt>
      <trkpt lat="45.53267" lon="6.9151">
        <ele>1499.8</ele>
        <time>2021-07-23T09:11:39.285Z</time>
      </trkpt>
      <trkpt lat="45.53264" lon="6.91511">
        <ele>1500.2</ele>
        <time>2021-07-23T09:11:40.285Z</time>
      </trkpt>
      <trkpt lat="45.5326" lon="6.91513">
        <ele>1500.6</ele>
        <time>2021-07-23T09:11:41.285Z</time>
      </trkpt>
      <trkpt lat="45.53256" lon="6.91513">
        <ele>1501</ele>
        <time>2021-07-23T09:11:42.285Z</time>
      </trkpt>
      <trkpt lat="45.53252" lon="6.91514">
        <ele>1501.4</ele>
        <time>2021-07-23T09:11:43.285Z</time>
      </trkpt>
      <trkpt lat="45.53248" lon="6.91514">
        <ele>1501.4</ele>
        <time>2021-07-23T09:11:44.285Z</time>
      </trkpt>
      <trkpt lat="45.53244" lon="6.91515">
        <ele>1501.4</ele>
        <time>2021-07-23T09:11:45.285Z</time>
      </trkpt>
      <trkpt lat="45.5324" lon="6.91516">
        <ele>1501.4</ele>
        <time>2021-07-23T09:11:46.285Z</time>
      </trkpt>
      <trkpt lat="45.53236" lon="6.91517">
        <ele>1501.4</ele>
        <time>2021-07-23T09:11:47.285Z</time>
      </trkpt>
      <trkpt lat="45.53232" lon="6.91518">
        <ele>1501.4</ele>
        <time>2021-07-23T09:11:48.285Z</time>
      </trkpt>
      <trkpt lat="45.53229" lon="6.91519">
        <ele>1501.4</ele>
        <time>2021-07-23T09:11:49.285Z</time>
      </trkpt>
      <trkpt lat="45.53225" lon="6.9152">
        <ele>1501.4</ele>
        <time>2021-07-23T09:11:50.285Z</time>
      </trkpt>
      <trkpt lat="45.53221" lon="6.91521">
        <ele>1501.4</ele>
        <time>2021-07-23T09:11:51.285Z</time>
      </trkpt>
      <trkpt lat="45.53218" lon="6.91522">
        <ele>1501.4</ele>
        <time>2021-07-23T09:11:52.285Z</time>
      </trkpt>
      <trkpt lat="45.53214" lon="6.91523">
        <ele>1501.8</ele>
        <time>2021-07-23T09:11:53.285Z</time>
      </trkpt>
      <trkpt lat="45.53211" lon="6.91525">
        <ele>1502.2</ele>
        <time>2021-07-23T09:11:54.285Z</time>
      </trkpt>
      <trkpt lat="45.53207" lon="6.91525">
        <ele>1502.6</ele>
        <time>2021-07-23T09:11:55.285Z</time>
      </trkpt>
      <trkpt lat="45.53203" lon="6.91527">
        <ele>1503</ele>
        <time>2021-07-23T09:11:56.285Z</time>
      </trkpt>
      <trkpt lat="45.53199" lon="6.91529">
        <ele>1503.6</ele>
        <time>2021-07-23T09:11:57.285Z</time>
      </trkpt>
      <trkpt lat="45.53195" lon="6.91531">
        <ele>1503.6</ele>
        <time>2021-07-23T09:11:58.285Z</time>
      </trkpt>
      <trkpt lat="45.53191" lon="6.91534">
        <ele>1503.6</ele>
        <time>2021-07-23T09:11:59.285Z</time>
      </trkpt>
      <trkpt lat="45.53188" lon="6.91536">
        <ele>1503.6</ele>
        <time>2021-07-23T09:12:00.285Z</time>
      </trkpt>
      <trkpt lat="45.53185" lon="6.91539">
        <ele>1503.6</ele>
        <time>2021-07-23T09:12:01.285Z</time>
      </trkpt>
      <trkpt lat="45.53182" lon="6.91542">
        <ele>1503.6</ele>
        <time>2021-07-23T09:12:02.285Z</time>
      </trkpt>
      <trkpt lat="45.5318" lon="6.91545">
        <ele>1503.6</ele>
        <time>2021-07-23T09:12:03.285Z</time>
      </trkpt>
      <trkpt lat="45.53177" lon="6.91547">
        <ele>1503.6</ele>
        <time>2021-07-23T09:12:04.285Z</time>
      </trkpt>
      <trkpt lat="45.53175" lon="6.9155">
        <ele>1504</ele>
        <time>2021-07-23T09:12:05.285Z</time>
      </trkpt>
      <trkpt lat="45.53173" lon="6.9155">
        <ele>1504.4</ele>
        <time>2021-07-23T09:12:06.285Z</time>
      </trkpt>
      <trkpt lat="45.53172" lon="6.9155">
        <ele>1504.8</ele>
        <time>2021-07-23T09:12:07.285Z</time>
      </trkpt>
      <trkpt lat="45.5317" lon="6.91549">
        <ele>1505.2</ele>
        <time>2021-07-23T09:12:08.285Z</time>
      </trkpt>
      <trkpt lat="45.53169" lon="6.91549">
        <ele>1505.8</ele>
        <time>2021-07-23T09:12:09.285Z</time>
      </trkpt>
      <trkpt lat="45.53167" lon="6.91549">
        <ele>1505.8</ele>
        <time>2021-07-23T09:12:10.285Z</time>
      </trkpt>
      <trkpt lat="45.53165" lon="6.91549">
        <ele>1505.8</ele>
        <time>2021-07-23T09:12:11.285Z</time>
      </trkpt>
      <trkpt lat="45.53164" lon="6.91549">
        <ele>1505.8</ele>
        <time>2021-07-23T09:12:12.285Z</time>
      </trkpt>
      <trkpt lat="45.53162" lon="6.91548">
        <ele>1505.8</ele>
        <time>2021-07-23T09:12:13.285Z</time>
      </trkpt>
      <trkpt lat="45.53161" lon="6.91548">
        <ele>1505.8</ele>
        <time>2021-07-23T09:12:14.285Z</time>
      </trkpt>
      <trkpt lat="45.53159" lon="6.91548">
        <ele>1505.8</ele>
        <time>2021-07-23T09:12:15.285Z</time>
      </trkpt>
      <trkpt lat="45.53158" lon="6.91548">
        <ele>1505.8</ele>
        <time>2021-07-23T09:12:16.285Z</time>
      </trkpt>
      <trkpt lat="45.53156" lon="6.91548">
        <ele>1505.8</ele>
        <time>2021-07-23T09:12:17.285Z</time>
      </trkpt>
      <trkpt lat="45.53155" lon="6.91547">
        <ele>1505.8</ele>
        <time>2021-07-23T09:12:18.285Z</time>
      </trkpt>
      <trkpt lat="45.53153" lon="6.91547">
        <ele>1506.2</ele>
        <time>2021-07-23T09:12:19.285Z</time>
      </trkpt>
      <trkpt lat="45.53151" lon="6.91547">
        <ele>1506.6</ele>
        <time>2021-07-23T09:12:20.285Z</time>
      </trkpt>
      <trkpt lat="45.5315" lon="6.91547">
        <ele>1507</ele>
        <time>2021-07-23T09:12:21.285Z</time>
      </trkpt>
      <trkpt lat="45.53148" lon="6.91547">
        <ele>1507.4</ele>
        <time>2021-07-23T09:12:22.285Z</time>
      </trkpt>
      <trkpt lat="45.53147" lon="6.91546">
        <ele>1507.8</ele>
        <time>2021-07-23T09:12:23.285Z</time>
      </trkpt>
      <trkpt lat="45.53145" lon="6.91546">
        <ele>1507.8</ele>
        <time>2021-07-23T09:12:24.285Z</time>
      </trkpt>
      <trkpt lat="45.53144" lon="6.91546">
        <ele>1507.8</ele>
        <time>2021-07-23T09:12:25.285Z</time>
      </trkpt>
      <trkpt lat="45.53112" lon="6.91542">
        <ele>1507.8</ele>
        <time>2021-07-23T09:12:26.285Z</time>
      </trkpt>
      <trkpt lat="45.53109" lon="6.91537">
        <ele>1507.8</ele>
        <time>2021-07-23T09:12:27.285Z</time>
      </trkpt>
      <trkpt lat="45.53107" lon="6.91533">
        <ele>1507.8</ele>
        <time>2021-07-23T09:12:28.285Z</time>
      </trkpt>
      <trkpt lat="45.53104" lon="6.91529">
        <ele>1507.8</ele>
        <time>2021-07-23T09:12:29.285Z</time>
      </trkpt>
      <trkpt lat="45.53101" lon="6.91526">
        <ele>1507.8</ele>
        <time>2021-07-23T09:12:30.285Z</time>
      </trkpt>
      <trkpt lat="45.53098" lon="6.91522">
        <ele>1507.8</ele>
        <time>2021-07-23T09:12:31.285Z</time>
      </trkpt>
      <trkpt lat="45.53094" lon="6.91518">
        <ele>1507.8</ele>
        <time>2021-07-23T09:12:32.285Z</time>
      </trkpt>
      <trkpt lat="45.53091" lon="6.91514">
        <ele>1507.8</ele>
        <time>2021-07-23T09:12:33.285Z</time>
      </trkpt>
      <trkpt lat="45.53088" lon="6.91511">
        <ele>1508.2</ele>
        <time>2021-07-23T09:12:34.285Z</time>
      </trkpt>
      <trkpt lat="45.53085" lon="6.91507">
        <ele>1508.6</ele>
        <time>2021-07-23T09:12:35.285Z</time>
      </trkpt>
      <trkpt lat="45.53081" lon="6.91505">
        <ele>1509</ele>
        <time>2021-07-23T09:12:36.285Z</time>
      </trkpt>
      <trkpt lat="45.53078" lon="6.91502">
        <ele>1509.4</ele>
        <time>2021-07-23T09:12:37.285Z</time>
      </trkpt>
      <trkpt lat="45.53075" lon="6.91499">
        <ele>1509.8</ele>
        <time>2021-07-23T09:12:38.285Z</time>
      </trkpt>
      <trkpt lat="45.53071" lon="6.91497">
        <ele>1509.8</ele>
        <time>2021-07-23T09:12:39.285Z</time>
      </trkpt>
      <trkpt lat="45.53068" lon="6.91495">
        <ele>1509.8</ele>
        <time>2021-07-23T09:12:40.285Z</time>
      </trkpt>
      <trkpt lat="45.53064" lon="6.91493">
        <ele>1509.8</ele>
        <time>2021-07-23T09:12:41.285Z</time>
      </trkpt>
      <trkpt lat="45.5306" lon="6.91491">
        <ele>1509.8</ele>
        <time>2021-07-23T09:12:42.285Z</time>
      </trkpt>
      <trkpt lat="45.53055" lon="6.9149">
        <ele>1509.8</ele>
        <time>2021-07-23T09:12:43.285Z</time>
      </trkpt>
      <trkpt lat="45.53051" lon="6.91489">
        <ele>1509.8</ele>
        <time>2021-07-23T09:12:44.285Z</time>
      </trkpt>
      <trkpt lat="45.53047" lon="6.91488">
        <ele>1509.8</ele>
        <time>2021-07-23T09:12:45.285Z</time>
      </trkpt>
      <trkpt lat="45.53042" lon="6.91487">
        <ele>1510.2</ele>
        <time>2021-07-23T09:12:46.285Z</time>
      </trkpt>
      <trkpt lat="45.53038" lon="6.91486">
        <ele>1510.6</ele>
        <time>2021-07-23T09:12:47.285Z</time>
      </trkpt>
      <trkpt lat="45.53034" lon="6.91484">
        <ele>1511</ele>
        <time>2021-07-23T09:12:48.285Z</time>
      </trkpt>
      <trkpt lat="45.5303" lon="6.91483">
        <ele>1512</ele>
        <time>2021-07-23T09:12:49.285Z</time>
      </trkpt>
      <trkpt lat="45.53026" lon="6.91482">
        <ele>1512</ele>
        <time>2021-07-23T09:12:50.285Z</time>
      </trkpt>
      <trkpt lat="45.53022" lon="6.91481">
        <ele>1512</ele>
        <time>2021-07-23T09:12:51.285Z</time>
      </trkpt>
      <trkpt lat="45.53018" lon="6.9148">
        <ele>1512</ele>
        <time>2021-07-23T09:12:52.285Z</time>
      </trkpt>
      <trkpt lat="45.53014" lon="6.91477">
        <ele>1512</ele>
        <time>2021-07-23T09:12:53.285Z</time>
      </trkpt>
      <trkpt lat="45.5301" lon="6.91473">
        <ele>1512.4</ele>
        <time>2021-07-23T09:12:54.285Z</time>
      </trkpt>
      <trkpt lat="45.53007" lon="6.91471">
        <ele>1512.8</ele>
        <time>2021-07-23T09:12:55.285Z</time>
      </trkpt>
      <trkpt lat="45.53003" lon="6.91468">
        <ele>1513.2</ele>
        <time>2021-07-23T09:12:56.285Z</time>
      </trkpt>
      <trkpt lat="45.53" lon="6.91464">
        <ele>1513.6</ele>
        <time>2021-07-23T09:12:57.285Z</time>
      </trkpt>
      <trkpt lat="45.52997" lon="6.91461">
        <ele>1514</ele>
        <time>2021-07-23T09:12:58.285Z</time>
      </trkpt>
      <trkpt lat="45.52994" lon="6.91458">
        <ele>1514</ele>
        <time>2021-07-23T09:12:59.285Z</time>
      </trkpt>
      <trkpt lat="45.52991" lon="6.91455">
        <ele>1514</ele>
        <time>2021-07-23T09:13:00.285Z</time>
      </trkpt>
      <trkpt lat="45.52988" lon="6.91452">
        <ele>1514</ele>
        <time>2021-07-23T09:13:01.285Z</time>
      </trkpt>
      <trkpt lat="45.52986" lon="6.91448">
        <ele>1514.4</ele>
        <time>2021-07-23T09:13:02.285Z</time>
      </trkpt>
      <trkpt lat="45.52983" lon="6.91445">
        <ele>1514.8</ele>
        <time>2021-07-23T09:13:03.285Z</time>
      </trkpt>
      <trkpt lat="45.52981" lon="6.91441">
        <ele>1515.4</ele>
        <time>2021-07-23T09:13:04.285Z</time>
      </trkpt>
      <trkpt lat="45.52978" lon="6.91437">
        <ele>1515.8</ele>
        <time>2021-07-23T09:13:05.285Z</time>
      </trkpt>
      <trkpt lat="45.52975" lon="6.91433">
        <ele>1516.2</ele>
        <time>2021-07-23T09:13:06.285Z</time>
      </trkpt>
      <trkpt lat="45.52973" lon="6.9143">
        <ele>1516.2</ele>
        <time>2021-07-23T09:13:07.285Z</time>
      </trkpt>
      <trkpt lat="45.5297" lon="6.91426">
        <ele>1516.2</ele>
        <time>2021-07-23T09:13:08.285Z</time>
      </trkpt>
      <trkpt lat="45.52968" lon="6.91423">
        <ele>1516.2</ele>
        <time>2021-07-23T09:13:09.285Z</time>
      </trkpt>
      <trkpt lat="45.52965" lon="6.91419">
        <ele>1516.6</ele>
        <time>2021-07-23T09:13:10.285Z</time>
      </trkpt>
      <trkpt lat="45.52962" lon="6.91415">
        <ele>1517</ele>
        <time>2021-07-23T09:13:11.285Z</time>
      </trkpt>
      <trkpt lat="45.5296" lon="6.91411">
        <ele>1517.6</ele>
        <time>2021-07-23T09:13:12.285Z</time>
      </trkpt>
      <trkpt lat="45.52957" lon="6.91407">
        <ele>1518.4</ele>
        <time>2021-07-23T09:13:13.285Z</time>
      </trkpt>
      <trkpt lat="45.52955" lon="6.91405">
        <ele>1518.4</ele>
        <time>2021-07-23T09:13:14.285Z</time>
      </trkpt>
      <trkpt lat="45.52952" lon="6.91402">
        <ele>1518.4</ele>
        <time>2021-07-23T09:13:15.285Z</time>
      </trkpt>
      <trkpt lat="45.52949" lon="6.91399">
        <ele>1518.4</ele>
        <time>2021-07-23T09:13:16.285Z</time>
      </trkpt>
      <trkpt lat="45.52946" lon="6.91396">
        <ele>1518.4</ele>
        <time>2021-07-23T09:13:17.285Z</time>
      </trkpt>
      <trkpt lat="45.52943" lon="6.91393">
        <ele>1518.8</ele>
        <time>2021-07-23T09:13:18.285Z</time>
      </trkpt>
      <trkpt lat="45.5294" lon="6.9139">
        <ele>1519.2</ele>
        <time>2021-07-23T09:13:19.285Z</time>
      </trkpt>
      <trkpt lat="45.52937" lon="6.91387">
        <ele>1519.6</ele>
        <time>2021-07-23T09:13:20.285Z</time>
      </trkpt>
      <trkpt lat="45.52934" lon="6.91385">
        <ele>1520</ele>
        <time>2021-07-23T09:13:21.285Z</time>
      </trkpt>
      <trkpt lat="45.52931" lon="6.91382">
        <ele>1520.4</ele>
        <time>2021-07-23T09:13:22.285Z</time>
      </trkpt>
      <trkpt lat="45.52928" lon="6.91379">
        <ele>1520.4</ele>
        <time>2021-07-23T09:13:23.285Z</time>
      </trkpt>
      <trkpt lat="45.52925" lon="6.91376">
        <ele>1520.4</ele>
        <time>2021-07-23T09:13:24.285Z</time>
      </trkpt>
      <trkpt lat="45.52921" lon="6.91374">
        <ele>1520.4</ele>
        <time>2021-07-23T09:13:25.285Z</time>
      </trkpt>
      <trkpt lat="45.52919" lon="6.91372">
        <ele>1521</ele>
        <time>2021-07-23T09:13:26.285Z</time>
      </trkpt>
      <trkpt lat="45.52916" lon="6.9137">
        <ele>1521.4</ele>
        <time>2021-07-23T09:13:27.285Z</time>
      </trkpt>
      <trkpt lat="45.52913" lon="6.91369">
        <ele>1521.8</ele>
        <time>2021-07-23T09:13:28.285Z</time>
      </trkpt>
      <trkpt lat="45.5291" lon="6.91368">
        <ele>1522.2</ele>
        <time>2021-07-23T09:13:29.285Z</time>
      </trkpt>
      <trkpt lat="45.52906" lon="6.91367">
        <ele>1522.6</ele>
        <time>2021-07-23T09:13:30.285Z</time>
      </trkpt>
      <trkpt lat="45.52903" lon="6.91366">
        <ele>1522.6</ele>
        <time>2021-07-23T09:13:31.285Z</time>
      </trkpt>
      <trkpt lat="45.529" lon="6.91365">
        <ele>1522.6</ele>
        <time>2021-07-23T09:13:32.285Z</time>
      </trkpt>
      <trkpt lat="45.52896" lon="6.91363">
        <ele>1523</ele>
        <time>2021-07-23T09:13:33.285Z</time>
      </trkpt>
      <trkpt lat="45.52893" lon="6.91363">
        <ele>1523.4</ele>
        <time>2021-07-23T09:13:34.285Z</time>
      </trkpt>
      <trkpt lat="45.52889" lon="6.91363">
        <ele>1523.8</ele>
        <time>2021-07-23T09:13:35.285Z</time>
      </trkpt>
      <trkpt lat="45.52886" lon="6.91362">
        <ele>1524.2</ele>
        <time>2021-07-23T09:13:36.285Z</time>
      </trkpt>
      <trkpt lat="45.52883" lon="6.91362">
        <ele>1524.6</ele>
        <time>2021-07-23T09:13:37.285Z</time>
      </trkpt>
      <trkpt lat="45.52879" lon="6.91362">
        <ele>1524.6</ele>
        <time>2021-07-23T09:13:38.285Z</time>
      </trkpt>
      <trkpt lat="45.52876" lon="6.9136">
        <ele>1525</ele>
        <time>2021-07-23T09:13:39.285Z</time>
      </trkpt>
      <trkpt lat="45.52872" lon="6.91361">
        <ele>1525.4</ele>
        <time>2021-07-23T09:13:40.285Z</time>
      </trkpt>
      <trkpt lat="45.52868" lon="6.9136">
        <ele>1525.8</ele>
        <time>2021-07-23T09:13:41.285Z</time>
      </trkpt>
      <trkpt lat="45.52865" lon="6.91359">
        <ele>1526.2</ele>
        <time>2021-07-23T09:13:42.285Z</time>
      </trkpt>
      <trkpt lat="45.52861" lon="6.91359">
        <ele>1526.6</ele>
        <time>2021-07-23T09:13:43.285Z</time>
      </trkpt>
      <trkpt lat="45.52858" lon="6.91358">
        <ele>1526.6</ele>
        <time>2021-07-23T09:13:44.285Z</time>
      </trkpt>
      <trkpt lat="45.52854" lon="6.91357">
        <ele>1526.6</ele>
        <time>2021-07-23T09:13:45.285Z</time>
      </trkpt>
      <trkpt lat="45.52851" lon="6.91355">
        <ele>1526.6</ele>
        <time>2021-07-23T09:13:46.285Z</time>
      </trkpt>
      <trkpt lat="45.52847" lon="6.91353">
        <ele>1526.6</ele>
        <time>2021-07-23T09:13:47.285Z</time>
      </trkpt>
      <trkpt lat="45.52843" lon="6.91352">
        <ele>1527.2</ele>
        <time>2021-07-23T09:13:48.285Z</time>
      </trkpt>
      <trkpt lat="45.52838" lon="6.9135">
        <ele>1527.6</ele>
        <time>2021-07-23T09:13:49.285Z</time>
      </trkpt>
      <trkpt lat="45.52834" lon="6.91349">
        <ele>1528</ele>
        <time>2021-07-23T09:13:50.285Z</time>
      </trkpt>
      <trkpt lat="45.52829" lon="6.91347">
        <ele>1528.4</ele>
        <time>2021-07-23T09:13:51.285Z</time>
      </trkpt>
      <trkpt lat="45.52825" lon="6.91346">
        <ele>1529</ele>
        <time>2021-07-23T09:13:52.285Z</time>
      </trkpt>
      <trkpt lat="45.52821" lon="6.91344">
        <ele>1529</ele>
        <time>2021-07-23T09:13:53.285Z</time>
      </trkpt>
      <trkpt lat="45.52818" lon="6.91341">
        <ele>1529</ele>
        <time>2021-07-23T09:13:54.285Z</time>
      </trkpt>
      <trkpt lat="45.52815" lon="6.91339">
        <ele>1529</ele>
        <time>2021-07-23T09:13:55.285Z</time>
      </trkpt>
      <trkpt lat="45.52812" lon="6.91338">
        <ele>1529.4</ele>
        <time>2021-07-23T09:13:56.285Z</time>
      </trkpt>
      <trkpt lat="45.52809" lon="6.91336">
        <ele>1529.8</ele>
        <time>2021-07-23T09:13:57.285Z</time>
      </trkpt>
      <trkpt lat="45.52806" lon="6.91335">
        <ele>1530.2</ele>
        <time>2021-07-23T09:13:58.285Z</time>
      </trkpt>
      <trkpt lat="45.52803" lon="6.91334">
        <ele>1530.8</ele>
        <time>2021-07-23T09:13:59.285Z</time>
      </trkpt>
      <trkpt lat="45.528" lon="6.91333">
        <ele>1531.2</ele>
        <time>2021-07-23T09:14:00.285Z</time>
      </trkpt>
      <trkpt lat="45.52796" lon="6.91332">
        <ele>1531.2</ele>
        <time>2021-07-23T09:14:01.285Z</time>
      </trkpt>
      <trkpt lat="45.52793" lon="6.91331">
        <ele>1531.2</ele>
        <time>2021-07-23T09:14:02.285Z</time>
      </trkpt>
      <trkpt lat="45.5279" lon="6.9133">
        <ele>1531.6</ele>
        <time>2021-07-23T09:14:03.285Z</time>
      </trkpt>
      <trkpt lat="45.52787" lon="6.9133">
        <ele>1532</ele>
        <time>2021-07-23T09:14:04.285Z</time>
      </trkpt>
      <trkpt lat="45.52784" lon="6.91329">
        <ele>1532.4</ele>
        <time>2021-07-23T09:14:05.285Z</time>
      </trkpt>
      <trkpt lat="45.52781" lon="6.91329">
        <ele>1532.8</ele>
        <time>2021-07-23T09:14:06.285Z</time>
      </trkpt>
      <trkpt lat="45.52779" lon="6.91328">
        <ele>1533.2</ele>
        <time>2021-07-23T09:14:07.285Z</time>
      </trkpt>
      <trkpt lat="45.52776" lon="6.91328">
        <ele>1533.2</ele>
        <time>2021-07-23T09:14:08.285Z</time>
      </trkpt>
      <trkpt lat="45.52773" lon="6.91329">
        <ele>1533.2</ele>
        <time>2021-07-23T09:14:09.285Z</time>
      </trkpt>
      <trkpt lat="45.52771" lon="6.91328">
        <ele>1533.2</ele>
        <time>2021-07-23T09:14:10.285Z</time>
      </trkpt>
      <trkpt lat="45.52768" lon="6.91328">
        <ele>1533.2</ele>
        <time>2021-07-23T09:14:11.285Z</time>
      </trkpt>
      <trkpt lat="45.52765" lon="6.91328">
        <ele>1533.6</ele>
        <time>2021-07-23T09:14:12.285Z</time>
      </trkpt>
      <trkpt lat="45.52762" lon="6.91327">
        <ele>1534</ele>
        <time>2021-07-23T09:14:13.285Z</time>
      </trkpt>
      <trkpt lat="45.52759" lon="6.91327">
        <ele>1534.4</ele>
        <time>2021-07-23T09:14:14.285Z</time>
      </trkpt>
      <trkpt lat="45.52756" lon="6.91325">
        <ele>1535</ele>
        <time>2021-07-23T09:14:15.285Z</time>
      </trkpt>
      <trkpt lat="45.52753" lon="6.91325">
        <ele>1535.4</ele>
        <time>2021-07-23T09:14:16.285Z</time>
      </trkpt>
      <trkpt lat="45.5275" lon="6.91324">
        <ele>1535.4</ele>
        <time>2021-07-23T09:14:17.285Z</time>
      </trkpt>
      <trkpt lat="45.52747" lon="6.91323">
        <ele>1535.4</ele>
        <time>2021-07-23T09:14:18.285Z</time>
      </trkpt>
      <trkpt lat="45.52744" lon="6.91322">
        <ele>1535.4</ele>
        <time>2021-07-23T09:14:19.285Z</time>
      </trkpt>
      <trkpt lat="45.52741" lon="6.9132">
        <ele>1535.4</ele>
        <time>2021-07-23T09:14:20.285Z</time>
      </trkpt>
      <trkpt lat="45.52738" lon="6.91319">
        <ele>1535.8</ele>
        <time>2021-07-23T09:14:21.285Z</time>
      </trkpt>
      <trkpt lat="45.52735" lon="6.91317">
        <ele>1536.2</ele>
        <time>2021-07-23T09:14:22.285Z</time>
      </trkpt>
      <trkpt lat="45.52732" lon="6.91316">
        <ele>1536.6</ele>
        <time>2021-07-23T09:14:23.285Z</time>
      </trkpt>
      <trkpt lat="45.52729" lon="6.91315">
        <ele>1537</ele>
        <time>2021-07-23T09:14:24.285Z</time>
      </trkpt>
      <trkpt lat="45.52725" lon="6.91315">
        <ele>1537.4</ele>
        <time>2021-07-23T09:14:25.285Z</time>
      </trkpt>
      <trkpt lat="45.52722" lon="6.91315">
        <ele>1537.4</ele>
        <time>2021-07-23T09:14:26.285Z</time>
      </trkpt>
      <trkpt lat="45.52719" lon="6.91313">
        <ele>1537.4</ele>
        <time>2021-07-23T09:14:27.285Z</time>
      </trkpt>
      <trkpt lat="45.52715" lon="6.91312">
        <ele>1537.4</ele>
        <time>2021-07-23T09:14:28.285Z</time>
      </trkpt>
      <trkpt lat="45.52712" lon="6.91311">
        <ele>1537.8</ele>
        <time>2021-07-23T09:14:29.285Z</time>
      </trkpt>
      <trkpt lat="45.52708" lon="6.91311">
        <ele>1538.2</ele>
        <time>2021-07-23T09:14:30.285Z</time>
      </trkpt>
      <trkpt lat="45.52705" lon="6.9131">
        <ele>1538.6</ele>
        <time>2021-07-23T09:14:31.285Z</time>
      </trkpt>
      <trkpt lat="45.52702" lon="6.91309">
        <ele>1539.2</ele>
        <time>2021-07-23T09:14:32.285Z</time>
      </trkpt>
      <trkpt lat="45.52699" lon="6.91308">
        <ele>1539.6</ele>
        <time>2021-07-23T09:14:33.285Z</time>
      </trkpt>
      <trkpt lat="45.52695" lon="6.91307">
        <ele>1539.6</ele>
        <time>2021-07-23T09:14:34.285Z</time>
      </trkpt>
      <trkpt lat="45.52692" lon="6.91305">
        <ele>1539.6</ele>
        <time>2021-07-23T09:14:35.285Z</time>
      </trkpt>
      <trkpt lat="45.52688" lon="6.91303">
        <ele>1539.6</ele>
        <time>2021-07-23T09:14:36.285Z</time>
      </trkpt>
      <trkpt lat="45.52685" lon="6.91302">
        <ele>1539.6</ele>
        <time>2021-07-23T09:14:37.285Z</time>
      </trkpt>
      <trkpt lat="45.52681" lon="6.91299">
        <ele>1539.6</ele>
        <time>2021-07-23T09:14:38.285Z</time>
      </trkpt>
      <trkpt lat="45.52677" lon="6.91297">
        <ele>1539.6</ele>
        <time>2021-07-23T09:14:39.285Z</time>
      </trkpt>
      <trkpt lat="45.52673" lon="6.91295">
        <ele>1540</ele>
        <time>2021-07-23T09:14:40.285Z</time>
      </trkpt>
      <trkpt lat="45.5267" lon="6.91293">
        <ele>1540.4</ele>
        <time>2021-07-23T09:14:41.285Z</time>
      </trkpt>
      <trkpt lat="45.52667" lon="6.9129">
        <ele>1540.8</ele>
        <time>2021-07-23T09:14:42.285Z</time>
      </trkpt>
      <trkpt lat="45.52664" lon="6.91288">
        <ele>1541.2</ele>
        <time>2021-07-23T09:14:43.285Z</time>
      </trkpt>
      <trkpt lat="45.5266" lon="6.91285">
        <ele>1541.8</ele>
        <time>2021-07-23T09:14:44.285Z</time>
      </trkpt>
      <trkpt lat="45.52657" lon="6.91283">
        <ele>1541.8</ele>
        <time>2021-07-23T09:14:45.285Z</time>
      </trkpt>
      <trkpt lat="45.52654" lon="6.91282">
        <ele>1541.8</ele>
        <time>2021-07-23T09:14:46.285Z</time>
      </trkpt>
      <trkpt lat="45.5265" lon="6.91281">
        <ele>1541.8</ele>
        <time>2021-07-23T09:14:47.285Z</time>
      </trkpt>
      <trkpt lat="45.52647" lon="6.9128">
        <ele>1541.8</ele>
        <time>2021-07-23T09:14:48.285Z</time>
      </trkpt>
      <trkpt lat="45.52643" lon="6.91279">
        <ele>1542.2</ele>
        <time>2021-07-23T09:14:49.285Z</time>
      </trkpt>
      <trkpt lat="45.52639" lon="6.91278">
        <ele>1542.6</ele>
        <time>2021-07-23T09:14:50.285Z</time>
      </trkpt>
      <trkpt lat="45.52635" lon="6.91278">
        <ele>1543</ele>
        <time>2021-07-23T09:14:51.285Z</time>
      </trkpt>
      <trkpt lat="45.5263" lon="6.91277">
        <ele>1543.8</ele>
        <time>2021-07-23T09:14:52.285Z</time>
      </trkpt>
      <trkpt lat="45.52626" lon="6.91277">
        <ele>1543.8</ele>
        <time>2021-07-23T09:14:53.285Z</time>
      </trkpt>
      <trkpt lat="45.52622" lon="6.91276">
        <ele>1543.8</ele>
        <time>2021-07-23T09:14:54.285Z</time>
      </trkpt>
      <trkpt lat="45.52618" lon="6.91276">
        <ele>1543.8</ele>
        <time>2021-07-23T09:14:55.285Z</time>
      </trkpt>
      <trkpt lat="45.52613" lon="6.91276">
        <ele>1543.8</ele>
        <time>2021-07-23T09:14:56.285Z</time>
      </trkpt>
      <trkpt lat="45.52609" lon="6.91277">
        <ele>1543.8</ele>
        <time>2021-07-23T09:14:57.285Z</time>
      </trkpt>
      <trkpt lat="45.52605" lon="6.91277">
        <ele>1544.4</ele>
        <time>2021-07-23T09:14:58.285Z</time>
      </trkpt>
      <trkpt lat="45.52601" lon="6.91277">
        <ele>1544.8</ele>
        <time>2021-07-23T09:14:59.285Z</time>
      </trkpt>
      <trkpt lat="45.52596" lon="6.91277">
        <ele>1545.2</ele>
        <time>2021-07-23T09:15:00.285Z</time>
      </trkpt>
      <trkpt lat="45.52592" lon="6.91278">
        <ele>1545.6</ele>
        <time>2021-07-23T09:15:01.285Z</time>
      </trkpt>
      <trkpt lat="45.52587" lon="6.91278">
        <ele>1546</ele>
        <time>2021-07-23T09:15:02.285Z</time>
      </trkpt>
      <trkpt lat="45.52582" lon="6.91277">
        <ele>1546</ele>
        <time>2021-07-23T09:15:03.285Z</time>
      </trkpt>
      <trkpt lat="45.52578" lon="6.91276">
        <ele>1546</ele>
        <time>2021-07-23T09:15:04.285Z</time>
      </trkpt>
      <trkpt lat="45.52573" lon="6.91275">
        <ele>1546</ele>
        <time>2021-07-23T09:15:05.285Z</time>
      </trkpt>
      <trkpt lat="45.52569" lon="6.91274">
        <ele>1546</ele>
        <time>2021-07-23T09:15:06.285Z</time>
      </trkpt>
      <trkpt lat="45.52564" lon="6.91273">
        <ele>1546</ele>
        <time>2021-07-23T09:15:07.285Z</time>
      </trkpt>
      <trkpt lat="45.5256" lon="6.91272">
        <ele>1546</ele>
        <time>2021-07-23T09:15:08.285Z</time>
      </trkpt>
      <trkpt lat="45.52555" lon="6.91272">
        <ele>1546</ele>
        <time>2021-07-23T09:15:09.285Z</time>
      </trkpt>
      <trkpt lat="45.52551" lon="6.91272">
        <ele>1546.4</ele>
        <time>2021-07-23T09:15:10.285Z</time>
      </trkpt>
      <trkpt lat="45.52546" lon="6.91272">
        <ele>1546.8</ele>
        <time>2021-07-23T09:15:11.285Z</time>
      </trkpt>
      <trkpt lat="45.52542" lon="6.91272">
        <ele>1547.2</ele>
        <time>2021-07-23T09:15:12.285Z</time>
      </trkpt>
      <trkpt lat="45.52537" lon="6.91271">
        <ele>1547.6</ele>
        <time>2021-07-23T09:15:13.285Z</time>
      </trkpt>
      <trkpt lat="45.52532" lon="6.91271">
        <ele>1548</ele>
        <time>2021-07-23T09:15:14.285Z</time>
      </trkpt>
      <trkpt lat="45.52527" lon="6.91271">
        <ele>1548</ele>
        <time>2021-07-23T09:15:15.285Z</time>
      </trkpt>
      <trkpt lat="45.52522" lon="6.9127">
        <ele>1548</ele>
        <time>2021-07-23T09:15:16.285Z</time>
      </trkpt>
      <trkpt lat="45.52517" lon="6.9127">
        <ele>1548</ele>
        <time>2021-07-23T09:15:17.285Z</time>
      </trkpt>
      <trkpt lat="45.52512" lon="6.91269">
        <ele>1548</ele>
        <time>2021-07-23T09:15:18.285Z</time>
      </trkpt>
      <trkpt lat="45.52507" lon="6.91268">
        <ele>1548</ele>
        <time>2021-07-23T09:15:19.285Z</time>
      </trkpt>
      <trkpt lat="45.52501" lon="6.91268">
        <ele>1548</ele>
        <time>2021-07-23T09:15:20.285Z</time>
      </trkpt>
      <trkpt lat="45.52496" lon="6.91267">
        <ele>1548</ele>
        <time>2021-07-23T09:15:21.285Z</time>
      </trkpt>
      <trkpt lat="45.52491" lon="6.91266">
        <ele>1548</ele>
        <time>2021-07-23T09:15:22.285Z</time>
      </trkpt>
      <trkpt lat="45.52485" lon="6.91266">
        <ele>1548</ele>
        <time>2021-07-23T09:15:23.285Z</time>
      </trkpt>
      <trkpt lat="45.5248" lon="6.91266">
        <ele>1548</ele>
        <time>2021-07-23T09:15:24.285Z</time>
      </trkpt>
      <trkpt lat="45.52475" lon="6.91266">
        <ele>1548</ele>
        <time>2021-07-23T09:15:25.285Z</time>
      </trkpt>
      <trkpt lat="45.52469" lon="6.91267">
        <ele>1548</ele>
        <time>2021-07-23T09:15:26.285Z</time>
      </trkpt>
      <trkpt lat="45.52464" lon="6.91268">
        <ele>1548</ele>
        <time>2021-07-23T09:15:27.285Z</time>
      </trkpt>
      <trkpt lat="45.52458" lon="6.91269">
        <ele>1548</ele>
        <time>2021-07-23T09:15:28.285Z</time>
      </trkpt>
      <trkpt lat="45.52452" lon="6.91271">
        <ele>1548</ele>
        <time>2021-07-23T09:15:29.285Z</time>
      </trkpt>
      <trkpt lat="45.52447" lon="6.91273">
        <ele>1548</ele>
        <time>2021-07-23T09:15:30.285Z</time>
      </trkpt>
      <trkpt lat="45.52441" lon="6.91274">
        <ele>1548</ele>
        <time>2021-07-23T09:15:31.285Z</time>
      </trkpt>
      <trkpt lat="45.52436" lon="6.91276">
        <ele>1548</ele>
        <time>2021-07-23T09:15:32.285Z</time>
      </trkpt>
      <trkpt lat="45.52431" lon="6.91278">
        <ele>1548</ele>
        <time>2021-07-23T09:15:33.285Z</time>
      </trkpt>
      <trkpt lat="45.52425" lon="6.9128">
        <ele>1548</ele>
        <time>2021-07-23T09:15:34.285Z</time>
      </trkpt>
      <trkpt lat="45.5242" lon="6.91283">
        <ele>1548</ele>
        <time>2021-07-23T09:15:35.285Z</time>
      </trkpt>
      <trkpt lat="45.52415" lon="6.91286">
        <ele>1548</ele>
        <time>2021-07-23T09:15:36.285Z</time>
      </trkpt>
      <trkpt lat="45.5241" lon="6.91289">
        <ele>1548</ele>
        <time>2021-07-23T09:15:37.285Z</time>
      </trkpt>
      <trkpt lat="45.52405" lon="6.91292">
        <ele>1548</ele>
        <time>2021-07-23T09:15:38.285Z</time>
      </trkpt>
      <trkpt lat="45.524" lon="6.91295">
        <ele>1548</ele>
        <time>2021-07-23T09:15:39.285Z</time>
      </trkpt>
      <trkpt lat="45.52395" lon="6.91298">
        <ele>1548</ele>
        <time>2021-07-23T09:15:40.285Z</time>
      </trkpt>
      <trkpt lat="45.52389" lon="6.91301">
        <ele>1548</ele>
        <time>2021-07-23T09:15:41.285Z</time>
      </trkpt>
      <trkpt lat="45.52384" lon="6.91303">
        <ele>1548</ele>
        <time>2021-07-23T09:15:42.285Z</time>
      </trkpt>
      <trkpt lat="45.52379" lon="6.91306">
        <ele>1548</ele>
        <time>2021-07-23T09:15:43.285Z</time>
      </trkpt>
      <trkpt lat="45.52375" lon="6.91308">
        <ele>1548</ele>
        <time>2021-07-23T09:15:44.285Z</time>
      </trkpt>
      <trkpt lat="45.52371" lon="6.9131">
        <ele>1548</ele>
        <time>2021-07-23T09:15:45.285Z</time>
      </trkpt>
      <trkpt lat="45.52367" lon="6.91312">
        <ele>1548</ele>
        <time>2021-07-23T09:15:46.285Z</time>
      </trkpt>
      <trkpt lat="45.52363" lon="6.91315">
        <ele>1548</ele>
        <time>2021-07-23T09:15:47.285Z</time>
      </trkpt>
      <trkpt lat="45.5236" lon="6.91317">
        <ele>1548</ele>
        <time>2021-07-23T09:15:48.285Z</time>
      </trkpt>
      <trkpt lat="45.52356" lon="6.91319">
        <ele>1548</ele>
        <time>2021-07-23T09:15:49.285Z</time>
      </trkpt>
      <trkpt lat="45.52354" lon="6.91321">
        <ele>1548</ele>
        <time>2021-07-23T09:15:50.285Z</time>
      </trkpt>
      <trkpt lat="45.52351" lon="6.91323">
        <ele>1548</ele>
        <time>2021-07-23T09:15:51.285Z</time>
      </trkpt>
      <trkpt lat="45.52349" lon="6.91325">
        <ele>1548</ele>
        <time>2021-07-23T09:15:52.285Z</time>
      </trkpt>
      <trkpt lat="45.52346" lon="6.91327">
        <ele>1548</ele>
        <time>2021-07-23T09:15:53.285Z</time>
      </trkpt>
      <trkpt lat="45.52344" lon="6.91329">
        <ele>1548</ele>
        <time>2021-07-23T09:15:54.285Z</time>
      </trkpt>
      <trkpt lat="45.52343" lon="6.91331">
        <ele>1548</ele>
        <time>2021-07-23T09:15:55.285Z</time>
      </trkpt>
      <trkpt lat="45.52341" lon="6.91332">
        <ele>1548</ele>
        <time>2021-07-23T09:15:56.285Z</time>
      </trkpt>
      <trkpt lat="45.52339" lon="6.91332">
        <ele>1548</ele>
        <time>2021-07-23T09:15:57.285Z</time>
      </trkpt>
      <trkpt lat="45.52338" lon="6.91333">
        <ele>1548</ele>
        <time>2021-07-23T09:15:58.285Z</time>
      </trkpt>
      <trkpt lat="45.52336" lon="6.91333">
        <ele>1548</ele>
        <time>2021-07-23T09:15:59.285Z</time>
      </trkpt>
      <trkpt lat="45.52336" lon="6.91333">
        <ele>1548</ele>
        <time>2021-07-23T09:16:00.285Z</time>
      </trkpt>
      <trkpt lat="45.52336" lon="6.91333">
        <ele>1548</ele>
        <time>2021-07-23T09:16:01.285Z</time>
      </trkpt>
      <trkpt lat="45.52336" lon="6.91334">
        <ele>1548</ele>
        <time>2021-07-23T09:16:02.285Z</time>
      </trkpt>
      <trkpt lat="45.52336" lon="6.91334">
        <ele>1548</ele>
        <time>2021-07-23T09:16:03.285Z</time>
      </trkpt>
      <trkpt lat="45.52335" lon="6.91335">
        <ele>1548</ele>
        <time>2021-07-23T09:16:04.285Z</time>
      </trkpt>
      <trkpt lat="45.52334" lon="6.91336">
        <ele>1548</ele>
        <time>2021-07-23T09:16:05.285Z</time>
      </trkpt>
      <trkpt lat="45.52332" lon="6.91338">
        <ele>1548</ele>
        <time>2021-07-23T09:16:06.285Z</time>
      </trkpt>
      <trkpt lat="45.5233" lon="6.9134">
        <ele>1548</ele>
        <time>2021-07-23T09:16:07.285Z</time>
      </trkpt>
      <trkpt lat="45.52328" lon="6.91341">
        <ele>1548</ele>
        <time>2021-07-23T09:16:08.285Z</time>
      </trkpt>
      <trkpt lat="45.52325" lon="6.91343">
        <ele>1548</ele>
        <time>2021-07-23T09:16:09.285Z</time>
      </trkpt>
      <trkpt lat="45.52322" lon="6.91346">
        <ele>1548.4</ele>
        <time>2021-07-23T09:16:10.285Z</time>
      </trkpt>
      <trkpt lat="45.52318" lon="6.91348">
        <ele>1548.8</ele>
        <time>2021-07-23T09:16:11.285Z</time>
      </trkpt>
      <trkpt lat="45.52314" lon="6.91352">
        <ele>1549.4</ele>
        <time>2021-07-23T09:16:12.285Z</time>
      </trkpt>
      <trkpt lat="45.5231" lon="6.91354">
        <ele>1549.8</ele>
        <time>2021-07-23T09:16:13.285Z</time>
      </trkpt>
      <trkpt lat="45.52305" lon="6.91357">
        <ele>1550.2</ele>
        <time>2021-07-23T09:16:14.285Z</time>
      </trkpt>
      <trkpt lat="45.523" lon="6.91359">
        <ele>1550.2</ele>
        <time>2021-07-23T09:16:15.285Z</time>
      </trkpt>
      <trkpt lat="45.52295" lon="6.91361">
        <ele>1550.2</ele>
        <time>2021-07-23T09:16:16.285Z</time>
      </trkpt>
      <trkpt lat="45.5229" lon="6.91362">
        <ele>1550.2</ele>
        <time>2021-07-23T09:16:17.285Z</time>
      </trkpt>
      <trkpt lat="45.52285" lon="6.91363">
        <ele>1550.6</ele>
        <time>2021-07-23T09:16:18.285Z</time>
      </trkpt>
      <trkpt lat="45.52281" lon="6.91364">
        <ele>1551</ele>
        <time>2021-07-23T09:16:19.285Z</time>
      </trkpt>
      <trkpt lat="45.52276" lon="6.91365">
        <ele>1551.4</ele>
        <time>2021-07-23T09:16:20.285Z</time>
      </trkpt>
      <trkpt lat="45.52271" lon="6.91367">
        <ele>1551.8</ele>
        <time>2021-07-23T09:16:21.285Z</time>
      </trkpt>
      <trkpt lat="45.52267" lon="6.91368">
        <ele>1552.4</ele>
        <time>2021-07-23T09:16:22.285Z</time>
      </trkpt>
      <trkpt lat="45.52262" lon="6.91369">
        <ele>1552.4</ele>
        <time>2021-07-23T09:16:23.285Z</time>
      </trkpt>
      <trkpt lat="45.52258" lon="6.9137">
        <ele>1552.4</ele>
        <time>2021-07-23T09:16:24.285Z</time>
      </trkpt>
      <trkpt lat="45.52253" lon="6.91371">
        <ele>1552.4</ele>
        <time>2021-07-23T09:16:25.285Z</time>
      </trkpt>
      <trkpt lat="45.52249" lon="6.91373">
        <ele>1552.4</ele>
        <time>2021-07-23T09:16:26.285Z</time>
      </trkpt>
      <trkpt lat="45.52244" lon="6.91374">
        <ele>1552.8</ele>
        <time>2021-07-23T09:16:27.285Z</time>
      </trkpt>
      <trkpt lat="45.5224" lon="6.91376">
        <ele>1553.2</ele>
        <time>2021-07-23T09:16:28.285Z</time>
      </trkpt>
      <trkpt lat="45.52236" lon="6.91378">
        <ele>1553.6</ele>
        <time>2021-07-23T09:16:29.285Z</time>
      </trkpt>
      <trkpt lat="45.52232" lon="6.9138">
        <ele>1554</ele>
        <time>2021-07-23T09:16:30.285Z</time>
      </trkpt>
      <trkpt lat="45.52227" lon="6.91383">
        <ele>1554.4</ele>
        <time>2021-07-23T09:16:31.285Z</time>
      </trkpt>
      <trkpt lat="45.52222" lon="6.91385">
        <ele>1554.4</ele>
        <time>2021-07-23T09:16:32.285Z</time>
      </trkpt>
      <trkpt lat="45.52217" lon="6.91388">
        <ele>1554.4</ele>
        <time>2021-07-23T09:16:33.285Z</time>
      </trkpt>
      <trkpt lat="45.52212" lon="6.9139">
        <ele>1554.4</ele>
        <time>2021-07-23T09:16:34.285Z</time>
      </trkpt>
      <trkpt lat="45.52208" lon="6.91391">
        <ele>1554.4</ele>
        <time>2021-07-23T09:16:35.285Z</time>
      </trkpt>
      <trkpt lat="45.52203" lon="6.91393">
        <ele>1554.4</ele>
        <time>2021-07-23T09:16:36.285Z</time>
      </trkpt>
      <trkpt lat="45.52198" lon="6.91393">
        <ele>1554.4</ele>
        <time>2021-07-23T09:16:37.285Z</time>
      </trkpt>
      <trkpt lat="45.52192" lon="6.91394">
        <ele>1554.4</ele>
        <time>2021-07-23T09:16:38.285Z</time>
      </trkpt>
      <trkpt lat="45.52187" lon="6.91395">
        <ele>1554.4</ele>
        <time>2021-07-23T09:16:39.285Z</time>
      </trkpt>
      <trkpt lat="45.52183" lon="6.91395">
        <ele>1554.4</ele>
        <time>2021-07-23T09:16:40.285Z</time>
      </trkpt>
      <trkpt lat="45.52178" lon="6.91395">
        <ele>1554.8</ele>
        <time>2021-07-23T09:16:41.285Z</time>
      </trkpt>
      <trkpt lat="45.52173" lon="6.91394">
        <ele>1555.2</ele>
        <time>2021-07-23T09:16:42.285Z</time>
      </trkpt>
      <trkpt lat="45.52168" lon="6.91392">
        <ele>1555.6</ele>
        <time>2021-07-23T09:16:43.285Z</time>
      </trkpt>
      <trkpt lat="45.52163" lon="6.9139">
        <ele>1556</ele>
        <time>2021-07-23T09:16:44.285Z</time>
      </trkpt>
      <trkpt lat="45.52158" lon="6.91388">
        <ele>1556.4</ele>
        <time>2021-07-23T09:16:45.285Z</time>
      </trkpt>
      <trkpt lat="45.52153" lon="6.91386">
        <ele>1556.4</ele>
        <time>2021-07-23T09:16:46.285Z</time>
      </trkpt>
      <trkpt lat="45.52148" lon="6.91383">
        <ele>1556.4</ele>
        <time>2021-07-23T09:16:47.285Z</time>
      </trkpt>
      <trkpt lat="45.52144" lon="6.9138">
        <ele>1556.4</ele>
        <time>2021-07-23T09:16:48.285Z</time>
      </trkpt>
      <trkpt lat="45.52139" lon="6.91376">
        <ele>1556.4</ele>
        <time>2021-07-23T09:16:49.285Z</time>
      </trkpt>
      <trkpt lat="45.52135" lon="6.91372">
        <ele>1556.4</ele>
        <time>2021-07-23T09:16:50.285Z</time>
      </trkpt>
      <trkpt lat="45.52131" lon="6.91367">
        <ele>1556.4</ele>
        <time>2021-07-23T09:16:51.285Z</time>
      </trkpt>
      <trkpt lat="45.52126" lon="6.91363">
        <ele>1556.4</ele>
        <time>2021-07-23T09:16:52.285Z</time>
      </trkpt>
      <trkpt lat="45.52122" lon="6.91358">
        <ele>1556.4</ele>
        <time>2021-07-23T09:16:53.285Z</time>
      </trkpt>
      <trkpt lat="45.52118" lon="6.91354">
        <ele>1556.4</ele>
        <time>2021-07-23T09:16:54.285Z</time>
      </trkpt>
      <trkpt lat="45.52114" lon="6.9135">
        <ele>1556.4</ele>
        <time>2021-07-23T09:16:55.285Z</time>
      </trkpt>
      <trkpt lat="45.52111" lon="6.91345">
        <ele>1557.4</ele>
        <time>2021-07-23T09:16:56.285Z</time>
      </trkpt>
      <trkpt lat="45.52107" lon="6.91342">
        <ele>1557.8</ele>
        <time>2021-07-23T09:16:57.285Z</time>
      </trkpt>
      <trkpt lat="45.52102" lon="6.91338">
        <ele>1558.2</ele>
        <time>2021-07-23T09:16:58.285Z</time>
      </trkpt>
      <trkpt lat="45.52098" lon="6.91335">
        <ele>1558.6</ele>
        <time>2021-07-23T09:16:59.285Z</time>
      </trkpt>
      <trkpt lat="45.52093" lon="6.91332">
        <ele>1559</ele>
        <time>2021-07-23T09:17:00.285Z</time>
      </trkpt>
      <trkpt lat="45.52088" lon="6.9133">
        <ele>1559.4</ele>
        <time>2021-07-23T09:17:01.285Z</time>
      </trkpt>
      <trkpt lat="45.52083" lon="6.91328">
        <ele>1559.8</ele>
        <time>2021-07-23T09:17:02.285Z</time>
      </trkpt>
      <trkpt lat="45.52078" lon="6.91327">
        <ele>1560.2</ele>
        <time>2021-07-23T09:17:03.285Z</time>
      </trkpt>
      <trkpt lat="45.52073" lon="6.91327">
        <ele>1560.6</ele>
        <time>2021-07-23T09:17:04.285Z</time>
      </trkpt>
      <trkpt lat="45.52068" lon="6.91327">
        <ele>1560.6</ele>
        <time>2021-07-23T09:17:05.285Z</time>
      </trkpt>
      <trkpt lat="45.52062" lon="6.91327">
        <ele>1560.6</ele>
        <time>2021-07-23T09:17:06.285Z</time>
      </trkpt>
      <trkpt lat="45.52057" lon="6.91328">
        <ele>1560.6</ele>
        <time>2021-07-23T09:17:07.285Z</time>
      </trkpt>
      <trkpt lat="45.52052" lon="6.9133">
        <ele>1560.6</ele>
        <time>2021-07-23T09:17:08.285Z</time>
      </trkpt>
      <trkpt lat="45.52047" lon="6.91332">
        <ele>1560.6</ele>
        <time>2021-07-23T09:17:09.285Z</time>
      </trkpt>
      <trkpt lat="45.52042" lon="6.91335">
        <ele>1560.6</ele>
        <time>2021-07-23T09:17:10.285Z</time>
      </trkpt>
      <trkpt lat="45.52037" lon="6.91339">
        <ele>1560.6</ele>
        <time>2021-07-23T09:17:11.285Z</time>
      </trkpt>
      <trkpt lat="45.52033" lon="6.91343">
        <ele>1560.6</ele>
        <time>2021-07-23T09:17:12.285Z</time>
      </trkpt>
      <trkpt lat="45.5203" lon="6.91348">
        <ele>1560.6</ele>
        <time>2021-07-23T09:17:13.285Z</time>
      </trkpt>
      <trkpt lat="45.52026" lon="6.91353">
        <ele>1560.6</ele>
        <time>2021-07-23T09:17:14.285Z</time>
      </trkpt>
      <trkpt lat="45.52023" lon="6.91359">
        <ele>1560.6</ele>
        <time>2021-07-23T09:17:15.285Z</time>
      </trkpt>
      <trkpt lat="45.5202" lon="6.91365">
        <ele>1560.6</ele>
        <time>2021-07-23T09:17:16.285Z</time>
      </trkpt>
      <trkpt lat="45.52017" lon="6.91371">
        <ele>1560.6</ele>
        <time>2021-07-23T09:17:17.285Z</time>
      </trkpt>
      <trkpt lat="45.52015" lon="6.91376">
        <ele>1560.6</ele>
        <time>2021-07-23T09:17:18.285Z</time>
      </trkpt>
      <trkpt lat="45.52012" lon="6.91381">
        <ele>1560.6</ele>
        <time>2021-07-23T09:17:19.285Z</time>
      </trkpt>
      <trkpt lat="45.5201" lon="6.91386">
        <ele>1560.6</ele>
        <time>2021-07-23T09:17:20.285Z</time>
      </trkpt>
      <trkpt lat="45.52007" lon="6.9139">
        <ele>1560.6</ele>
        <time>2021-07-23T09:17:21.285Z</time>
      </trkpt>
      <trkpt lat="45.52005" lon="6.91395">
        <ele>1561.2</ele>
        <time>2021-07-23T09:17:22.285Z</time>
      </trkpt>
      <trkpt lat="45.52002" lon="6.914">
        <ele>1561.6</ele>
        <time>2021-07-23T09:17:23.285Z</time>
      </trkpt>
      <trkpt lat="45.52" lon="6.91404">
        <ele>1562</ele>
        <time>2021-07-23T09:17:24.285Z</time>
      </trkpt>
      <trkpt lat="45.51997" lon="6.91408">
        <ele>1562.4</ele>
        <time>2021-07-23T09:17:25.285Z</time>
      </trkpt>
      <trkpt lat="45.51994" lon="6.91412">
        <ele>1562.8</ele>
        <time>2021-07-23T09:17:26.285Z</time>
      </trkpt>
      <trkpt lat="45.51991" lon="6.91416">
        <ele>1562.8</ele>
        <time>2021-07-23T09:17:27.285Z</time>
      </trkpt>
      <trkpt lat="45.51989" lon="6.91419">
        <ele>1562.8</ele>
        <time>2021-07-23T09:17:28.285Z</time>
      </trkpt>
      <trkpt lat="45.51986" lon="6.91423">
        <ele>1562.8</ele>
        <time>2021-07-23T09:17:29.285Z</time>
      </trkpt>
      <trkpt lat="45.51983" lon="6.91427">
        <ele>1563.2</ele>
        <time>2021-07-23T09:17:30.285Z</time>
      </trkpt>
      <trkpt lat="45.5198" lon="6.91431">
        <ele>1563.8</ele>
        <time>2021-07-23T09:17:31.285Z</time>
      </trkpt>
      <trkpt lat="45.51977" lon="6.91435">
        <ele>1564.2</ele>
        <time>2021-07-23T09:17:32.285Z</time>
      </trkpt>
      <trkpt lat="45.51974" lon="6.91438">
        <ele>1564.6</ele>
        <time>2021-07-23T09:17:33.285Z</time>
      </trkpt>
      <trkpt lat="45.51971" lon="6.9144">
        <ele>1565</ele>
        <time>2021-07-23T09:17:34.285Z</time>
      </trkpt>
      <trkpt lat="45.51968" lon="6.91443">
        <ele>1565</ele>
        <time>2021-07-23T09:17:35.285Z</time>
      </trkpt>
      <trkpt lat="45.51965" lon="6.91446">
        <ele>1565</ele>
        <time>2021-07-23T09:17:36.285Z</time>
      </trkpt>
      <trkpt lat="45.51962" lon="6.91448">
        <ele>1565.4</ele>
        <time>2021-07-23T09:17:37.285Z</time>
      </trkpt>
      <trkpt lat="45.51959" lon="6.9145">
        <ele>1565.8</ele>
        <time>2021-07-23T09:17:38.285Z</time>
      </trkpt>
      <trkpt lat="45.51956" lon="6.91452">
        <ele>1566.2</ele>
        <time>2021-07-23T09:17:39.285Z</time>
      </trkpt>
      <trkpt lat="45.51953" lon="6.91454">
        <ele>1566.6</ele>
        <time>2021-07-23T09:17:40.285Z</time>
      </trkpt>
      <trkpt lat="45.5195" lon="6.91457">
        <ele>1567.2</ele>
        <time>2021-07-23T09:17:41.285Z</time>
      </trkpt>
      <trkpt lat="45.51947" lon="6.91458">
        <ele>1567.2</ele>
        <time>2021-07-23T09:17:42.285Z</time>
      </trkpt>
      <trkpt lat="45.51944" lon="6.9146">
        <ele>1567.2</ele>
        <time>2021-07-23T09:17:43.285Z</time>
      </trkpt>
      <trkpt lat="45.51941" lon="6.91462">
        <ele>1567.2</ele>
        <time>2021-07-23T09:17:44.285Z</time>
      </trkpt>
      <trkpt lat="45.51938" lon="6.91464">
        <ele>1568</ele>
        <time>2021-07-23T09:17:45.285Z</time>
      </trkpt>
      <trkpt lat="45.51936" lon="6.91467">
        <ele>1568.4</ele>
        <time>2021-07-23T09:17:46.285Z</time>
      </trkpt>
      <trkpt lat="45.51933" lon="6.91469">
        <ele>1568.8</ele>
        <time>2021-07-23T09:17:47.285Z</time>
      </trkpt>
      <trkpt lat="45.5193" lon="6.91471">
        <ele>1569.2</ele>
        <time>2021-07-23T09:17:48.285Z</time>
      </trkpt>
      <trkpt lat="45.51927" lon="6.91473">
        <ele>1569.2</ele>
        <time>2021-07-23T09:17:49.285Z</time>
      </trkpt>
      <trkpt lat="45.51925" lon="6.91475">
        <ele>1569.2</ele>
        <time>2021-07-23T09:17:50.285Z</time>
      </trkpt>
      <trkpt lat="45.51922" lon="6.91477">
        <ele>1569.2</ele>
        <time>2021-07-23T09:17:51.285Z</time>
      </trkpt>
      <trkpt lat="45.5192" lon="6.9148">
        <ele>1569.6</ele>
        <time>2021-07-23T09:17:52.285Z</time>
      </trkpt>
      <trkpt lat="45.51917" lon="6.91482">
        <ele>1570</ele>
        <time>2021-07-23T09:17:53.285Z</time>
      </trkpt>
      <trkpt lat="45.51914" lon="6.91484">
        <ele>1570.6</ele>
        <time>2021-07-23T09:17:54.285Z</time>
      </trkpt>
      <trkpt lat="45.51912" lon="6.91486">
        <ele>1571</ele>
        <time>2021-07-23T09:17:55.285Z</time>
      </trkpt>
      <trkpt lat="45.51909" lon="6.91488">
        <ele>1571.4</ele>
        <time>2021-07-23T09:17:56.285Z</time>
      </trkpt>
      <trkpt lat="45.51907" lon="6.9149">
        <ele>1571.4</ele>
        <time>2021-07-23T09:17:57.285Z</time>
      </trkpt>
      <trkpt lat="45.51904" lon="6.91492">
        <ele>1571.4</ele>
        <time>2021-07-23T09:17:58.285Z</time>
      </trkpt>
      <trkpt lat="45.51901" lon="6.91493">
        <ele>1571.4</ele>
        <time>2021-07-23T09:17:59.285Z</time>
      </trkpt>
      <trkpt lat="45.51898" lon="6.91495">
        <ele>1571.4</ele>
        <time>2021-07-23T09:18:00.285Z</time>
      </trkpt>
      <trkpt lat="45.51896" lon="6.91496">
        <ele>1571.8</ele>
        <time>2021-07-23T09:18:01.285Z</time>
      </trkpt>
      <trkpt lat="45.51893" lon="6.91498">
        <ele>1572.2</ele>
        <time>2021-07-23T09:18:02.285Z</time>
      </trkpt>
      <trkpt lat="45.5189" lon="6.91499">
        <ele>1572.6</ele>
        <time>2021-07-23T09:18:03.285Z</time>
      </trkpt>
      <trkpt lat="45.51887" lon="6.91501">
        <ele>1573</ele>
        <time>2021-07-23T09:18:04.285Z</time>
      </trkpt>
      <trkpt lat="45.51884" lon="6.91502">
        <ele>1573.4</ele>
        <time>2021-07-23T09:18:05.285Z</time>
      </trkpt>
      <trkpt lat="45.51881" lon="6.91503">
        <ele>1573.4</ele>
        <time>2021-07-23T09:18:06.285Z</time>
      </trkpt>
      <trkpt lat="45.51878" lon="6.91505">
        <ele>1573.4</ele>
        <time>2021-07-23T09:18:07.285Z</time>
      </trkpt>
      <trkpt lat="45.51875" lon="6.91506">
        <ele>1573.4</ele>
        <time>2021-07-23T09:18:08.285Z</time>
      </trkpt>
      <trkpt lat="45.51872" lon="6.91508">
        <ele>1573.4</ele>
        <time>2021-07-23T09:18:09.285Z</time>
      </trkpt>
      <trkpt lat="45.51869" lon="6.91509">
        <ele>1574.2</ele>
        <time>2021-07-23T09:18:10.285Z</time>
      </trkpt>
      <trkpt lat="45.51867" lon="6.91511">
        <ele>1574.6</ele>
        <time>2021-07-23T09:18:11.285Z</time>
      </trkpt>
      <trkpt lat="45.51864" lon="6.91512">
        <ele>1575.2</ele>
        <time>2021-07-23T09:18:12.285Z</time>
      </trkpt>
      <trkpt lat="45.51861" lon="6.91513">
        <ele>1575.6</ele>
        <time>2021-07-23T09:18:13.285Z</time>
      </trkpt>
      <trkpt lat="45.51858" lon="6.91514">
        <ele>1575.6</ele>
        <time>2021-07-23T09:18:14.285Z</time>
      </trkpt>
      <trkpt lat="45.51855" lon="6.91515">
        <ele>1575.6</ele>
        <time>2021-07-23T09:18:15.285Z</time>
      </trkpt>
      <trkpt lat="45.51852" lon="6.91516">
        <ele>1575.6</ele>
        <time>2021-07-23T09:18:16.285Z</time>
      </trkpt>
      <trkpt lat="45.5185" lon="6.91516">
        <ele>1575.6</ele>
        <time>2021-07-23T09:18:17.285Z</time>
      </trkpt>
      <trkpt lat="45.51847" lon="6.91517">
        <ele>1576</ele>
        <time>2021-07-23T09:18:18.285Z</time>
      </trkpt>
      <trkpt lat="45.51844" lon="6.91517">
        <ele>1576.4</ele>
        <time>2021-07-23T09:18:19.285Z</time>
      </trkpt>
      <trkpt lat="45.51841" lon="6.91518">
        <ele>1576.8</ele>
        <time>2021-07-23T09:18:20.285Z</time>
      </trkpt>
      <trkpt lat="45.51838" lon="6.91519">
        <ele>1577.2</ele>
        <time>2021-07-23T09:18:21.285Z</time>
      </trkpt>
      <trkpt lat="45.51835" lon="6.9152">
        <ele>1577.6</ele>
        <time>2021-07-23T09:18:22.285Z</time>
      </trkpt>
      <trkpt lat="45.51832" lon="6.91521">
        <ele>1577.6</ele>
        <time>2021-07-23T09:18:23.285Z</time>
      </trkpt>
      <trkpt lat="45.51829" lon="6.91522">
        <ele>1577.6</ele>
        <time>2021-07-23T09:18:24.285Z</time>
      </trkpt>
      <trkpt lat="45.51826" lon="6.91523">
        <ele>1577.6</ele>
        <time>2021-07-23T09:18:25.285Z</time>
      </trkpt>
      <trkpt lat="45.51824" lon="6.91525">
        <ele>1578</ele>
        <time>2021-07-23T09:18:26.285Z</time>
      </trkpt>
      <trkpt lat="45.51821" lon="6.91526">
        <ele>1578.4</ele>
        <time>2021-07-23T09:18:27.285Z</time>
      </trkpt>
      <trkpt lat="45.51818" lon="6.91527">
        <ele>1579</ele>
        <time>2021-07-23T09:18:28.285Z</time>
      </trkpt>
      <trkpt lat="45.51815" lon="6.91528">
        <ele>1579.4</ele>
        <time>2021-07-23T09:18:29.285Z</time>
      </trkpt>
      <trkpt lat="45.51812" lon="6.91529">
        <ele>1579.8</ele>
        <time>2021-07-23T09:18:30.285Z</time>
      </trkpt>
      <trkpt lat="45.5181" lon="6.91529">
        <ele>1579.8</ele>
        <time>2021-07-23T09:18:31.285Z</time>
      </trkpt>
      <trkpt lat="45.51808" lon="6.9153">
        <ele>1579.8</ele>
        <time>2021-07-23T09:18:32.285Z</time>
      </trkpt>
      <trkpt lat="45.51805" lon="6.91531">
        <ele>1579.8</ele>
        <time>2021-07-23T09:18:33.285Z</time>
      </trkpt>
      <trkpt lat="45.51803" lon="6.91532">
        <ele>1580.2</ele>
        <time>2021-07-23T09:18:34.285Z</time>
      </trkpt>
      <trkpt lat="45.51801" lon="6.91533">
        <ele>1581</ele>
        <time>2021-07-23T09:18:35.285Z</time>
      </trkpt>
      <trkpt lat="45.51799" lon="6.91534">
        <ele>1581.6</ele>
        <time>2021-07-23T09:18:36.285Z</time>
      </trkpt>
      <trkpt lat="45.51797" lon="6.91535">
        <ele>1582</ele>
        <time>2021-07-23T09:18:37.285Z</time>
      </trkpt>
      <trkpt lat="45.51795" lon="6.91536">
        <ele>1582</ele>
        <time>2021-07-23T09:18:38.285Z</time>
      </trkpt>
      <trkpt lat="45.51793" lon="6.91538">
        <ele>1582</ele>
        <time>2021-07-23T09:18:39.285Z</time>
      </trkpt>
      <trkpt lat="45.51791" lon="6.9154">
        <ele>1582</ele>
        <time>2021-07-23T09:18:40.285Z</time>
      </trkpt>
      <trkpt lat="45.51789" lon="6.91542">
        <ele>1582.4</ele>
        <time>2021-07-23T09:18:41.285Z</time>
      </trkpt>
      <trkpt lat="45.51787" lon="6.91544">
        <ele>1582.8</ele>
        <time>2021-07-23T09:18:42.285Z</time>
      </trkpt>
      <trkpt lat="45.51785" lon="6.91546">
        <ele>1583.2</ele>
        <time>2021-07-23T09:18:43.285Z</time>
      </trkpt>
      <trkpt lat="45.51784" lon="6.91548">
        <ele>1583.6</ele>
        <time>2021-07-23T09:18:44.285Z</time>
      </trkpt>
      <trkpt lat="45.51782" lon="6.91551">
        <ele>1584</ele>
        <time>2021-07-23T09:18:45.285Z</time>
      </trkpt>
      <trkpt lat="45.5178" lon="6.91553">
        <ele>1584</ele>
        <time>2021-07-23T09:18:46.285Z</time>
      </trkpt>
      <trkpt lat="45.51778" lon="6.91556">
        <ele>1584</ele>
        <time>2021-07-23T09:18:47.285Z</time>
      </trkpt>
      <trkpt lat="45.51776" lon="6.91559">
        <ele>1584</ele>
        <time>2021-07-23T09:18:48.285Z</time>
      </trkpt>
      <trkpt lat="45.51774" lon="6.91562">
        <ele>1584</ele>
        <time>2021-07-23T09:18:49.285Z</time>
      </trkpt>
      <trkpt lat="45.51772" lon="6.91565">
        <ele>1584.4</ele>
        <time>2021-07-23T09:18:50.285Z</time>
      </trkpt>
      <trkpt lat="45.5177" lon="6.91568">
        <ele>1585</ele>
        <time>2021-07-23T09:18:51.285Z</time>
      </trkpt>
      <trkpt lat="45.51768" lon="6.91571">
        <ele>1585.4</ele>
        <time>2021-07-23T09:18:52.285Z</time>
      </trkpt>
      <trkpt lat="45.51766" lon="6.91574">
        <ele>1585.8</ele>
        <time>2021-07-23T09:18:53.285Z</time>
      </trkpt>
      <trkpt lat="45.51764" lon="6.91577">
        <ele>1586.2</ele>
        <time>2021-07-23T09:18:54.285Z</time>
      </trkpt>
      <trkpt lat="45.51762" lon="6.9158">
        <ele>1586.2</ele>
        <time>2021-07-23T09:18:55.285Z</time>
      </trkpt>
      <trkpt lat="45.51761" lon="6.91582">
        <ele>1586.2</ele>
        <time>2021-07-23T09:18:56.285Z</time>
      </trkpt>
      <trkpt lat="45.51759" lon="6.91585">
        <ele>1586.2</ele>
        <time>2021-07-23T09:18:57.285Z</time>
      </trkpt>
      <trkpt lat="45.51757" lon="6.91588">
        <ele>1586.2</ele>
        <time>2021-07-23T09:18:58.285Z</time>
      </trkpt>
      <trkpt lat="45.51755" lon="6.9159">
        <ele>1586.2</ele>
        <time>2021-07-23T09:18:59.285Z</time>
      </trkpt>
      <trkpt lat="45.51753" lon="6.91592">
        <ele>1586.2</ele>
        <time>2021-07-23T09:19:00.285Z</time>
      </trkpt>
      <trkpt lat="45.51751" lon="6.91595">
        <ele>1586.6</ele>
        <time>2021-07-23T09:19:01.285Z</time>
      </trkpt>
      <trkpt lat="45.51749" lon="6.91598">
        <ele>1587</ele>
        <time>2021-07-23T09:19:02.285Z</time>
      </trkpt>
      <trkpt lat="45.51747" lon="6.91601">
        <ele>1587.4</ele>
        <time>2021-07-23T09:19:03.285Z</time>
      </trkpt>
      <trkpt lat="45.51745" lon="6.91604">
        <ele>1587.8</ele>
        <time>2021-07-23T09:19:04.285Z</time>
      </trkpt>
      <trkpt lat="45.51743" lon="6.91607">
        <ele>1588.2</ele>
        <time>2021-07-23T09:19:05.285Z</time>
      </trkpt>
      <trkpt lat="45.51741" lon="6.9161">
        <ele>1588.2</ele>
        <time>2021-07-23T09:19:06.285Z</time>
      </trkpt>
      <trkpt lat="45.51739" lon="6.91613">
        <ele>1588.2</ele>
        <time>2021-07-23T09:19:07.285Z</time>
      </trkpt>
      <trkpt lat="45.51737" lon="6.91616">
        <ele>1588.2</ele>
        <time>2021-07-23T09:19:08.285Z</time>
      </trkpt>
      <trkpt lat="45.51735" lon="6.91618">
        <ele>1588.2</ele>
        <time>2021-07-23T09:19:09.285Z</time>
      </trkpt>
      <trkpt lat="45.51732" lon="6.9162">
        <ele>1588.2</ele>
        <time>2021-07-23T09:19:10.285Z</time>
      </trkpt>
      <trkpt lat="45.5173" lon="6.91622">
        <ele>1588.6</ele>
        <time>2021-07-23T09:19:11.285Z</time>
      </trkpt>
      <trkpt lat="45.51727" lon="6.91624">
        <ele>1589</ele>
        <time>2021-07-23T09:19:12.285Z</time>
      </trkpt>
      <trkpt lat="45.51725" lon="6.91625">
        <ele>1589.6</ele>
        <time>2021-07-23T09:19:13.285Z</time>
      </trkpt>
      <trkpt lat="45.51722" lon="6.91626">
        <ele>1590</ele>
        <time>2021-07-23T09:19:14.285Z</time>
      </trkpt>
      <trkpt lat="45.51719" lon="6.91627">
        <ele>1590.4</ele>
        <time>2021-07-23T09:19:15.285Z</time>
      </trkpt>
      <trkpt lat="45.51716" lon="6.91628">
        <ele>1590.4</ele>
        <time>2021-07-23T09:19:16.285Z</time>
      </trkpt>
      <trkpt lat="45.51714" lon="6.91629">
        <ele>1590.4</ele>
        <time>2021-07-23T09:19:17.285Z</time>
      </trkpt>
      <trkpt lat="45.51711" lon="6.91629">
        <ele>1590.4</ele>
        <time>2021-07-23T09:19:18.285Z</time>
      </trkpt>
      <trkpt lat="45.51708" lon="6.9163">
        <ele>1590.4</ele>
        <time>2021-07-23T09:19:19.285Z</time>
      </trkpt>
      <trkpt lat="45.51706" lon="6.9163">
        <ele>1590.8</ele>
        <time>2021-07-23T09:19:20.285Z</time>
      </trkpt>
      <trkpt lat="45.51703" lon="6.91631">
        <ele>1591.2</ele>
        <time>2021-07-23T09:19:21.285Z</time>
      </trkpt>
      <trkpt lat="45.517" lon="6.91631">
        <ele>1591.8</ele>
        <time>2021-07-23T09:19:22.285Z</time>
      </trkpt>
      <trkpt lat="45.51698" lon="6.91631">
        <ele>1592.2</ele>
        <time>2021-07-23T09:19:23.285Z</time>
      </trkpt>
      <trkpt lat="45.51695" lon="6.91632">
        <ele>1592.6</ele>
        <time>2021-07-23T09:19:24.285Z</time>
      </trkpt>
      <trkpt lat="45.51692" lon="6.91632">
        <ele>1592.6</ele>
        <time>2021-07-23T09:19:25.285Z</time>
      </trkpt>
      <trkpt lat="45.51689" lon="6.91632">
        <ele>1592.6</ele>
        <time>2021-07-23T09:19:26.285Z</time>
      </trkpt>
      <trkpt lat="45.51686" lon="6.91631">
        <ele>1592.6</ele>
        <time>2021-07-23T09:19:27.285Z</time>
      </trkpt>
      <trkpt lat="45.51683" lon="6.91631">
        <ele>1593</ele>
        <time>2021-07-23T09:19:28.285Z</time>
      </trkpt>
      <trkpt lat="45.51681" lon="6.91631">
        <ele>1593.4</ele>
        <time>2021-07-23T09:19:29.285Z</time>
      </trkpt>
      <trkpt lat="45.51678" lon="6.91631">
        <ele>1593.8</ele>
        <time>2021-07-23T09:19:30.285Z</time>
      </trkpt>
      <trkpt lat="45.51675" lon="6.91631">
        <ele>1594.2</ele>
        <time>2021-07-23T09:19:31.285Z</time>
      </trkpt>
      <trkpt lat="45.51672" lon="6.91631">
        <ele>1594.6</ele>
        <time>2021-07-23T09:19:32.285Z</time>
      </trkpt>
      <trkpt lat="45.51669" lon="6.91631">
        <ele>1594.6</ele>
        <time>2021-07-23T09:19:33.285Z</time>
      </trkpt>
      <trkpt lat="45.51666" lon="6.91631">
        <ele>1594.6</ele>
        <time>2021-07-23T09:19:34.285Z</time>
      </trkpt>
      <trkpt lat="45.51663" lon="6.91632">
        <ele>1594.6</ele>
        <time>2021-07-23T09:19:35.285Z</time>
      </trkpt>
      <trkpt lat="45.5166" lon="6.91632">
        <ele>1595</ele>
        <time>2021-07-23T09:19:36.285Z</time>
      </trkpt>
      <trkpt lat="45.51657" lon="6.91632">
        <ele>1595.4</ele>
        <time>2021-07-23T09:19:37.285Z</time>
      </trkpt>
      <trkpt lat="45.51653" lon="6.91632">
        <ele>1595.8</ele>
        <time>2021-07-23T09:19:38.285Z</time>
      </trkpt>
      <trkpt lat="45.5165" lon="6.91632">
        <ele>1596.4</ele>
        <time>2021-07-23T09:19:39.285Z</time>
      </trkpt>
      <trkpt lat="45.51646" lon="6.91633">
        <ele>1596.8</ele>
        <time>2021-07-23T09:19:40.285Z</time>
      </trkpt>
      <trkpt lat="45.51642" lon="6.91633">
        <ele>1596.8</ele>
        <time>2021-07-23T09:19:41.285Z</time>
      </trkpt>
      <trkpt lat="45.51639" lon="6.91634">
        <ele>1596.8</ele>
        <time>2021-07-23T09:19:42.285Z</time>
      </trkpt>
      <trkpt lat="45.51635" lon="6.91635">
        <ele>1596.8</ele>
        <time>2021-07-23T09:19:43.285Z</time>
      </trkpt>
      <trkpt lat="45.51632" lon="6.91635">
        <ele>1596.8</ele>
        <time>2021-07-23T09:19:44.285Z</time>
      </trkpt>
      <trkpt lat="45.51628" lon="6.91636">
        <ele>1597.2</ele>
        <time>2021-07-23T09:19:45.285Z</time>
      </trkpt>
      <trkpt lat="45.51625" lon="6.91637">
        <ele>1597.6</ele>
        <time>2021-07-23T09:19:46.285Z</time>
      </trkpt>
      <trkpt lat="45.51622" lon="6.91637">
        <ele>1598</ele>
        <time>2021-07-23T09:19:47.285Z</time>
      </trkpt>
      <trkpt lat="45.51619" lon="6.91638">
        <ele>1598.4</ele>
        <time>2021-07-23T09:19:48.285Z</time>
      </trkpt>
      <trkpt lat="45.51617" lon="6.9164">
        <ele>1599</ele>
        <time>2021-07-23T09:19:49.285Z</time>
      </trkpt>
      <trkpt lat="45.51613" lon="6.9164">
        <ele>1599</ele>
        <time>2021-07-23T09:19:50.285Z</time>
      </trkpt>
      <trkpt lat="45.5161" lon="6.91641">
        <ele>1599</ele>
        <time>2021-07-23T09:19:51.285Z</time>
      </trkpt>
      <trkpt lat="45.51607" lon="6.91642">
        <ele>1599</ele>
        <time>2021-07-23T09:19:52.285Z</time>
      </trkpt>
      <trkpt lat="45.51603" lon="6.91643">
        <ele>1599.4</ele>
        <time>2021-07-23T09:19:53.285Z</time>
      </trkpt>
      <trkpt lat="45.516" lon="6.91644">
        <ele>1599.8</ele>
        <time>2021-07-23T09:19:54.285Z</time>
      </trkpt>
      <trkpt lat="45.51597" lon="6.91645">
        <ele>1600.2</ele>
        <time>2021-07-23T09:19:55.285Z</time>
      </trkpt>
      <trkpt lat="45.51593" lon="6.91647">
        <ele>1600.6</ele>
        <time>2021-07-23T09:19:56.285Z</time>
      </trkpt>
      <trkpt lat="45.5159" lon="6.91648">
        <ele>1601</ele>
        <time>2021-07-23T09:19:57.285Z</time>
      </trkpt>
      <trkpt lat="45.51586" lon="6.91649">
        <ele>1601</ele>
        <time>2021-07-23T09:19:58.285Z</time>
      </trkpt>
      <trkpt lat="45.51583" lon="6.9165">
        <ele>1601</ele>
        <time>2021-07-23T09:19:59.285Z</time>
      </trkpt>
      <trkpt lat="45.51579" lon="6.91651">
        <ele>1601</ele>
        <time>2021-07-23T09:20:00.285Z</time>
      </trkpt>
      <trkpt lat="45.51575" lon="6.91652">
        <ele>1601</ele>
        <time>2021-07-23T09:20:01.285Z</time>
      </trkpt>
      <trkpt lat="45.51571" lon="6.91653">
        <ele>1601.4</ele>
        <time>2021-07-23T09:20:02.285Z</time>
      </trkpt>
      <trkpt lat="45.51567" lon="6.91654">
        <ele>1601.8</ele>
        <time>2021-07-23T09:20:03.285Z</time>
      </trkpt>
      <trkpt lat="45.51563" lon="6.91656">
        <ele>1602.2</ele>
        <time>2021-07-23T09:20:04.285Z</time>
      </trkpt>
      <trkpt lat="45.5156" lon="6.91657">
        <ele>1602.6</ele>
        <time>2021-07-23T09:20:05.285Z</time>
      </trkpt>
      <trkpt lat="45.51556" lon="6.91658">
        <ele>1603</ele>
        <time>2021-07-23T09:20:06.285Z</time>
      </trkpt>
      <trkpt lat="45.51552" lon="6.9166">
        <ele>1603</ele>
        <time>2021-07-23T09:20:07.285Z</time>
      </trkpt>
      <trkpt lat="45.51548" lon="6.91661">
        <ele>1603</ele>
        <time>2021-07-23T09:20:08.285Z</time>
      </trkpt>
      <trkpt lat="45.51545" lon="6.91663">
        <ele>1603</ele>
        <time>2021-07-23T09:20:09.285Z</time>
      </trkpt>
      <trkpt lat="45.51541" lon="6.91664">
        <ele>1603</ele>
        <time>2021-07-23T09:20:10.285Z</time>
      </trkpt>
      <trkpt lat="45.51538" lon="6.91665">
        <ele>1603.4</ele>
        <time>2021-07-23T09:20:11.285Z</time>
      </trkpt>
      <trkpt lat="45.51534" lon="6.91666">
        <ele>1603.8</ele>
        <time>2021-07-23T09:20:12.285Z</time>
      </trkpt>
      <trkpt lat="45.51531" lon="6.91667">
        <ele>1604.4</ele>
        <time>2021-07-23T09:20:13.285Z</time>
      </trkpt>
      <trkpt lat="45.51527" lon="6.91669">
        <ele>1605.2</ele>
        <time>2021-07-23T09:20:14.285Z</time>
      </trkpt>
      <trkpt lat="45.51524" lon="6.9167">
        <ele>1605.2</ele>
        <time>2021-07-23T09:20:15.285Z</time>
      </trkpt>
      <trkpt lat="45.5152" lon="6.91671">
        <ele>1605.2</ele>
        <time>2021-07-23T09:20:16.285Z</time>
      </trkpt>
      <trkpt lat="45.51517" lon="6.91673">
        <ele>1605.2</ele>
        <time>2021-07-23T09:20:17.285Z</time>
      </trkpt>
      <trkpt lat="45.51513" lon="6.91674">
        <ele>1605.6</ele>
        <time>2021-07-23T09:20:18.285Z</time>
      </trkpt>
      <trkpt lat="45.5151" lon="6.91676">
        <ele>1606</ele>
        <time>2021-07-23T09:20:19.285Z</time>
      </trkpt>
      <trkpt lat="45.51506" lon="6.91677">
        <ele>1606.4</ele>
        <time>2021-07-23T09:20:20.285Z</time>
      </trkpt>
      <trkpt lat="45.51503" lon="6.91679">
        <ele>1606.8</ele>
        <time>2021-07-23T09:20:21.285Z</time>
      </trkpt>
      <trkpt lat="45.51499" lon="6.9168">
        <ele>1607.2</ele>
        <time>2021-07-23T09:20:22.285Z</time>
      </trkpt>
      <trkpt lat="45.51496" lon="6.91681">
        <ele>1607.2</ele>
        <time>2021-07-23T09:20:23.285Z</time>
      </trkpt>
      <trkpt lat="45.51493" lon="6.91683">
        <ele>1607.2</ele>
        <time>2021-07-23T09:20:24.285Z</time>
      </trkpt>
      <trkpt lat="45.51489" lon="6.91685">
        <ele>1607.2</ele>
        <time>2021-07-23T09:20:25.285Z</time>
      </trkpt>
      <trkpt lat="45.51486" lon="6.91686">
        <ele>1607.6</ele>
        <time>2021-07-23T09:20:26.285Z</time>
      </trkpt>
      <trkpt lat="45.51482" lon="6.91688">
        <ele>1608.2</ele>
        <time>2021-07-23T09:20:27.285Z</time>
      </trkpt>
      <trkpt lat="45.51479" lon="6.91689">
        <ele>1608.6</ele>
        <time>2021-07-23T09:20:28.285Z</time>
      </trkpt>
      <trkpt lat="45.51475" lon="6.9169">
        <ele>1609</ele>
        <time>2021-07-23T09:20:29.285Z</time>
      </trkpt>
      <trkpt lat="45.51472" lon="6.91691">
        <ele>1609.4</ele>
        <time>2021-07-23T09:20:30.285Z</time>
      </trkpt>
      <trkpt lat="45.51469" lon="6.91692">
        <ele>1609.4</ele>
        <time>2021-07-23T09:20:31.285Z</time>
      </trkpt>
      <trkpt lat="45.51466" lon="6.91694">
        <ele>1609.4</ele>
        <time>2021-07-23T09:20:32.285Z</time>
      </trkpt>
      <trkpt lat="45.51464" lon="6.91695">
        <ele>1609.4</ele>
        <time>2021-07-23T09:20:33.285Z</time>
      </trkpt>
      <trkpt lat="45.51461" lon="6.91697">
        <ele>1609.4</ele>
        <time>2021-07-23T09:20:34.285Z</time>
      </trkpt>
      <trkpt lat="45.51458" lon="6.91698">
        <ele>1609.4</ele>
        <time>2021-07-23T09:20:35.285Z</time>
      </trkpt>
      <trkpt lat="45.51456" lon="6.917">
        <ele>1609.8</ele>
        <time>2021-07-23T09:20:36.285Z</time>
      </trkpt>
      <trkpt lat="45.51453" lon="6.91702">
        <ele>1610.2</ele>
        <time>2021-07-23T09:20:37.285Z</time>
      </trkpt>
      <trkpt lat="45.51451" lon="6.91704">
        <ele>1611.2</ele>
        <time>2021-07-23T09:20:38.285Z</time>
      </trkpt>
      <trkpt lat="45.51448" lon="6.91706">
        <ele>1611.6</ele>
        <time>2021-07-23T09:20:39.285Z</time>
      </trkpt>
      <trkpt lat="45.51445" lon="6.91708">
        <ele>1611.6</ele>
        <time>2021-07-23T09:20:40.285Z</time>
      </trkpt>
      <trkpt lat="45.51442" lon="6.9171">
        <ele>1611.6</ele>
        <time>2021-07-23T09:20:41.285Z</time>
      </trkpt>
      <trkpt lat="45.51439" lon="6.91712">
        <ele>1611.6</ele>
        <time>2021-07-23T09:20:42.285Z</time>
      </trkpt>
      <trkpt lat="45.51436" lon="6.91714">
        <ele>1612</ele>
        <time>2021-07-23T09:20:43.285Z</time>
      </trkpt>
      <trkpt lat="45.51433" lon="6.91717">
        <ele>1612.4</ele>
        <time>2021-07-23T09:20:44.285Z</time>
      </trkpt>
      <trkpt lat="45.5143" lon="6.91719">
        <ele>1612.8</ele>
        <time>2021-07-23T09:20:45.285Z</time>
      </trkpt>
      <trkpt lat="45.51426" lon="6.91721">
        <ele>1613.2</ele>
        <time>2021-07-23T09:20:46.285Z</time>
      </trkpt>
      <trkpt lat="45.51423" lon="6.91723">
        <ele>1613.6</ele>
        <time>2021-07-23T09:20:47.285Z</time>
      </trkpt>
      <trkpt lat="45.5142" lon="6.91724">
        <ele>1613.6</ele>
        <time>2021-07-23T09:20:48.285Z</time>
      </trkpt>
      <trkpt lat="45.51417" lon="6.91726">
        <ele>1613.6</ele>
        <time>2021-07-23T09:20:49.285Z</time>
      </trkpt>
      <trkpt lat="45.51415" lon="6.91728">
        <ele>1613.6</ele>
        <time>2021-07-23T09:20:50.285Z</time>
      </trkpt>
      <trkpt lat="45.51412" lon="6.91731">
        <ele>1614</ele>
        <time>2021-07-23T09:20:51.285Z</time>
      </trkpt>
      <trkpt lat="45.51409" lon="6.91734">
        <ele>1614.4</ele>
        <time>2021-07-23T09:20:52.285Z</time>
      </trkpt>
      <trkpt lat="45.51406" lon="6.91736">
        <ele>1614.8</ele>
        <time>2021-07-23T09:20:53.285Z</time>
      </trkpt>
      <trkpt lat="45.51404" lon="6.91739">
        <ele>1615.2</ele>
        <time>2021-07-23T09:20:54.285Z</time>
      </trkpt>
      <trkpt lat="45.51401" lon="6.91741">
        <ele>1615.6</ele>
        <time>2021-07-23T09:20:55.285Z</time>
      </trkpt>
      <trkpt lat="45.51399" lon="6.91744">
        <ele>1615.6</ele>
        <time>2021-07-23T09:20:56.285Z</time>
      </trkpt>
      <trkpt lat="45.51396" lon="6.91746">
        <ele>1615.6</ele>
        <time>2021-07-23T09:20:57.285Z</time>
      </trkpt>
      <trkpt lat="45.51394" lon="6.91748">
        <ele>1615.6</ele>
        <time>2021-07-23T09:20:58.285Z</time>
      </trkpt>
      <trkpt lat="45.51391" lon="6.91751">
        <ele>1615.6</ele>
        <time>2021-07-23T09:20:59.285Z</time>
      </trkpt>
      <trkpt lat="45.51389" lon="6.91754">
        <ele>1616</ele>
        <time>2021-07-23T09:21:00.285Z</time>
      </trkpt>
      <trkpt lat="45.51387" lon="6.91757">
        <ele>1616.4</ele>
        <time>2021-07-23T09:21:01.285Z</time>
      </trkpt>
      <trkpt lat="45.51384" lon="6.9176">
        <ele>1616.8</ele>
        <time>2021-07-23T09:21:02.285Z</time>
      </trkpt>
      <trkpt lat="45.51382" lon="6.91763">
        <ele>1617.6</ele>
        <time>2021-07-23T09:21:03.285Z</time>
      </trkpt>
      <trkpt lat="45.5138" lon="6.91766">
        <ele>1617.6</ele>
        <time>2021-07-23T09:21:04.285Z</time>
      </trkpt>
      <trkpt lat="45.51377" lon="6.91769">
        <ele>1617.6</ele>
        <time>2021-07-23T09:21:05.285Z</time>
      </trkpt>
      <trkpt lat="45.51375" lon="6.91773">
        <ele>1617.6</ele>
        <time>2021-07-23T09:21:06.285Z</time>
      </trkpt>
      <trkpt lat="45.51373" lon="6.91776">
        <ele>1617.6</ele>
        <time>2021-07-23T09:21:07.285Z</time>
      </trkpt>
      <trkpt lat="45.51371" lon="6.9178">
        <ele>1617.6</ele>
        <time>2021-07-23T09:21:08.285Z</time>
      </trkpt>
      <trkpt lat="45.51369" lon="6.91783">
        <ele>1618</ele>
        <time>2021-07-23T09:21:09.285Z</time>
      </trkpt>
      <trkpt lat="45.51367" lon="6.91786">
        <ele>1618.6</ele>
        <time>2021-07-23T09:21:10.285Z</time>
      </trkpt>
      <trkpt lat="45.51365" lon="6.9179">
        <ele>1619</ele>
        <time>2021-07-23T09:21:11.285Z</time>
      </trkpt>
      <trkpt lat="45.51363" lon="6.91793">
        <ele>1619.4</ele>
        <time>2021-07-23T09:21:12.285Z</time>
      </trkpt>
      <trkpt lat="45.51361" lon="6.91796">
        <ele>1619.8</ele>
        <time>2021-07-23T09:21:13.285Z</time>
      </trkpt>
      <trkpt lat="45.51358" lon="6.91799">
        <ele>1619.8</ele>
        <time>2021-07-23T09:21:14.285Z</time>
      </trkpt>
      <trkpt lat="45.51356" lon="6.91802">
        <ele>1619.8</ele>
        <time>2021-07-23T09:21:15.285Z</time>
      </trkpt>
      <trkpt lat="45.51354" lon="6.91805">
        <ele>1619.8</ele>
        <time>2021-07-23T09:21:16.285Z</time>
      </trkpt>
      <trkpt lat="45.51352" lon="6.91808">
        <ele>1620.2</ele>
        <time>2021-07-23T09:21:17.285Z</time>
      </trkpt>
      <trkpt lat="45.5135" lon="6.91812">
        <ele>1620.8</ele>
        <time>2021-07-23T09:21:18.285Z</time>
      </trkpt>
      <trkpt lat="45.51349" lon="6.91815">
        <ele>1621.2</ele>
        <time>2021-07-23T09:21:19.285Z</time>
      </trkpt>
      <trkpt lat="45.51346" lon="6.91818">
        <ele>1621.6</ele>
        <time>2021-07-23T09:21:20.285Z</time>
      </trkpt>
      <trkpt lat="45.51344" lon="6.9182">
        <ele>1622</ele>
        <time>2021-07-23T09:21:21.285Z</time>
      </trkpt>
      <trkpt lat="45.51342" lon="6.91823">
        <ele>1622</ele>
        <time>2021-07-23T09:21:22.285Z</time>
      </trkpt>
      <trkpt lat="45.51341" lon="6.91826">
        <ele>1622</ele>
        <time>2021-07-23T09:21:23.285Z</time>
      </trkpt>
      <trkpt lat="45.51339" lon="6.91828">
        <ele>1622</ele>
        <time>2021-07-23T09:21:24.285Z</time>
      </trkpt>
      <trkpt lat="45.51337" lon="6.91831">
        <ele>1622</ele>
        <time>2021-07-23T09:21:25.285Z</time>
      </trkpt>
      <trkpt lat="45.51335" lon="6.91834">
        <ele>1622.6</ele>
        <time>2021-07-23T09:21:26.285Z</time>
      </trkpt>
      <trkpt lat="45.51333" lon="6.91837">
        <ele>1623</ele>
        <time>2021-07-23T09:21:27.285Z</time>
      </trkpt>
      <trkpt lat="45.51331" lon="6.9184">
        <ele>1623.8</ele>
        <time>2021-07-23T09:21:28.285Z</time>
      </trkpt>
      <trkpt lat="45.5133" lon="6.91843">
        <ele>1624.2</ele>
        <time>2021-07-23T09:21:29.285Z</time>
      </trkpt>
      <trkpt lat="45.51328" lon="6.91846">
        <ele>1624.2</ele>
        <time>2021-07-23T09:21:30.285Z</time>
      </trkpt>
      <trkpt lat="45.51326" lon="6.91849">
        <ele>1624.2</ele>
        <time>2021-07-23T09:21:31.285Z</time>
      </trkpt>
      <trkpt lat="45.51325" lon="6.91852">
        <ele>1624.6</ele>
        <time>2021-07-23T09:21:32.285Z</time>
      </trkpt>
      <trkpt lat="45.51323" lon="6.91855">
        <ele>1625</ele>
        <time>2021-07-23T09:21:33.285Z</time>
      </trkpt>
      <trkpt lat="45.51321" lon="6.91858">
        <ele>1625.4</ele>
        <time>2021-07-23T09:21:34.285Z</time>
      </trkpt>
      <trkpt lat="45.51319" lon="6.91861">
        <ele>1625.8</ele>
        <time>2021-07-23T09:21:35.285Z</time>
      </trkpt>
      <trkpt lat="45.51318" lon="6.91864">
        <ele>1626.2</ele>
        <time>2021-07-23T09:21:36.285Z</time>
      </trkpt>
      <trkpt lat="45.51316" lon="6.91867">
        <ele>1626.2</ele>
        <time>2021-07-23T09:21:37.285Z</time>
      </trkpt>
      <trkpt lat="45.51314" lon="6.9187">
        <ele>1626.2</ele>
        <time>2021-07-23T09:21:38.285Z</time>
      </trkpt>
      <trkpt lat="45.51312" lon="6.91873">
        <ele>1626.6</ele>
        <time>2021-07-23T09:21:39.285Z</time>
      </trkpt>
      <trkpt lat="45.5131" lon="6.91876">
        <ele>1627</ele>
        <time>2021-07-23T09:21:40.285Z</time>
      </trkpt>
      <trkpt lat="45.51308" lon="6.91879">
        <ele>1627.4</ele>
        <time>2021-07-23T09:21:41.285Z</time>
      </trkpt>
      <trkpt lat="45.51306" lon="6.91882">
        <ele>1627.8</ele>
        <time>2021-07-23T09:21:42.285Z</time>
      </trkpt>
      <trkpt lat="45.51304" lon="6.91884">
        <ele>1628.2</ele>
        <time>2021-07-23T09:21:43.285Z</time>
      </trkpt>
      <trkpt lat="45.51303" lon="6.91887">
        <ele>1628.2</ele>
        <time>2021-07-23T09:21:44.285Z</time>
      </trkpt>
      <trkpt lat="45.51301" lon="6.9189">
        <ele>1628.2</ele>
        <time>2021-07-23T09:21:45.285Z</time>
      </trkpt>
      <trkpt lat="45.51299" lon="6.91892">
        <ele>1628.2</ele>
        <time>2021-07-23T09:21:46.285Z</time>
      </trkpt>
      <trkpt lat="45.51297" lon="6.91895">
        <ele>1628.2</ele>
        <time>2021-07-23T09:21:47.285Z</time>
      </trkpt>
      <trkpt lat="45.51295" lon="6.91897">
        <ele>1628.2</ele>
        <time>2021-07-23T09:21:48.285Z</time>
      </trkpt>
      <trkpt lat="45.51293" lon="6.919">
        <ele>1628.2</ele>
        <time>2021-07-23T09:21:49.285Z</time>
      </trkpt>
      <trkpt lat="45.51291" lon="6.91902">
        <ele>1628.2</ele>
        <time>2021-07-23T09:21:50.285Z</time>
      </trkpt>
      <trkpt lat="45.51289" lon="6.91904">
        <ele>1628.6</ele>
        <time>2021-07-23T09:21:51.285Z</time>
      </trkpt>
      <trkpt lat="45.51288" lon="6.91907">
        <ele>1629</ele>
        <time>2021-07-23T09:21:52.285Z</time>
      </trkpt>
      <trkpt lat="45.51286" lon="6.9191">
        <ele>1629.8</ele>
        <time>2021-07-23T09:21:53.285Z</time>
      </trkpt>
      <trkpt lat="45.51284" lon="6.91912">
        <ele>1630.2</ele>
        <time>2021-07-23T09:21:54.285Z</time>
      </trkpt>
      <trkpt lat="45.51281" lon="6.91915">
        <ele>1630.2</ele>
        <time>2021-07-23T09:21:55.285Z</time>
      </trkpt>
      <trkpt lat="45.5128" lon="6.91918">
        <ele>1630.2</ele>
        <time>2021-07-23T09:21:56.285Z</time>
      </trkpt>
      <trkpt lat="45.51278" lon="6.9192">
        <ele>1630.2</ele>
        <time>2021-07-23T09:21:57.285Z</time>
      </trkpt>
      <trkpt lat="45.51276" lon="6.91923">
        <ele>1630.6</ele>
        <time>2021-07-23T09:21:58.285Z</time>
      </trkpt>
      <trkpt lat="45.51274" lon="6.91926">
        <ele>1631.2</ele>
        <time>2021-07-23T09:21:59.285Z</time>
      </trkpt>
      <trkpt lat="45.51272" lon="6.91929">
        <ele>1631.6</ele>
        <time>2021-07-23T09:22:00.285Z</time>
      </trkpt>
      <trkpt lat="45.5127" lon="6.91931">
        <ele>1632</ele>
        <time>2021-07-23T09:22:01.285Z</time>
      </trkpt>
      <trkpt lat="45.51267" lon="6.91934">
        <ele>1632.4</ele>
        <time>2021-07-23T09:22:02.285Z</time>
      </trkpt>
      <trkpt lat="45.51265" lon="6.91936">
        <ele>1632.4</ele>
        <time>2021-07-23T09:22:03.285Z</time>
      </trkpt>
      <trkpt lat="45.51263" lon="6.91939">
        <ele>1632.4</ele>
        <time>2021-07-23T09:22:04.285Z</time>
      </trkpt>
      <trkpt lat="45.51261" lon="6.91942">
        <ele>1632.4</ele>
        <time>2021-07-23T09:22:05.285Z</time>
      </trkpt>
      <trkpt lat="45.51259" lon="6.91945">
        <ele>1632.8</ele>
        <time>2021-07-23T09:22:06.285Z</time>
      </trkpt>
      <trkpt lat="45.51257" lon="6.91948">
        <ele>1633.2</ele>
        <time>2021-07-23T09:22:07.285Z</time>
      </trkpt>
      <trkpt lat="45.51255" lon="6.9195">
        <ele>1633.6</ele>
        <time>2021-07-23T09:22:08.285Z</time>
      </trkpt>
      <trkpt lat="45.51253" lon="6.91953">
        <ele>1634</ele>
        <time>2021-07-23T09:22:09.285Z</time>
      </trkpt>
      <trkpt lat="45.51251" lon="6.91955">
        <ele>1634.4</ele>
        <time>2021-07-23T09:22:10.285Z</time>
      </trkpt>
      <trkpt lat="45.51249" lon="6.91957">
        <ele>1634.4</ele>
        <time>2021-07-23T09:22:11.285Z</time>
      </trkpt>
      <trkpt lat="45.51248" lon="6.9196">
        <ele>1634.4</ele>
        <time>2021-07-23T09:22:12.285Z</time>
      </trkpt>
      <trkpt lat="45.51246" lon="6.91962">
        <ele>1634.4</ele>
        <time>2021-07-23T09:22:13.285Z</time>
      </trkpt>
      <trkpt lat="45.51244" lon="6.91965">
        <ele>1634.4</ele>
        <time>2021-07-23T09:22:14.285Z</time>
      </trkpt>
      <trkpt lat="45.51242" lon="6.91967">
        <ele>1634.8</ele>
        <time>2021-07-23T09:22:15.285Z</time>
      </trkpt>
      <trkpt lat="45.5124" lon="6.9197">
        <ele>1635.2</ele>
        <time>2021-07-23T09:22:16.285Z</time>
      </trkpt>
      <trkpt lat="45.51237" lon="6.91973">
        <ele>1636</ele>
        <time>2021-07-23T09:22:17.285Z</time>
      </trkpt>
      <trkpt lat="45.51235" lon="6.91976">
        <ele>1636.4</ele>
        <time>2021-07-23T09:22:18.285Z</time>
      </trkpt>
      <trkpt lat="45.51233" lon="6.91978">
        <ele>1636.4</ele>
        <time>2021-07-23T09:22:19.285Z</time>
      </trkpt>
      <trkpt lat="45.51231" lon="6.91981">
        <ele>1636.4</ele>
        <time>2021-07-23T09:22:20.285Z</time>
      </trkpt>
      <trkpt lat="45.51229" lon="6.91984">
        <ele>1636.4</ele>
        <time>2021-07-23T09:22:21.285Z</time>
      </trkpt>
      <trkpt lat="45.51227" lon="6.91986">
        <ele>1636.4</ele>
        <time>2021-07-23T09:22:22.285Z</time>
      </trkpt>
      <trkpt lat="45.51225" lon="6.91989">
        <ele>1637</ele>
        <time>2021-07-23T09:22:23.285Z</time>
      </trkpt>
      <trkpt lat="45.51223" lon="6.91992">
        <ele>1637.4</ele>
        <time>2021-07-23T09:22:24.285Z</time>
      </trkpt>
      <trkpt lat="45.51221" lon="6.91994">
        <ele>1637.8</ele>
        <time>2021-07-23T09:22:25.285Z</time>
      </trkpt>
      <trkpt lat="45.51219" lon="6.91997">
        <ele>1638.2</ele>
        <time>2021-07-23T09:22:26.285Z</time>
      </trkpt>
      <trkpt lat="45.51217" lon="6.92">
        <ele>1638.6</ele>
        <time>2021-07-23T09:22:27.285Z</time>
      </trkpt>
      <trkpt lat="45.51215" lon="6.92003">
        <ele>1638.6</ele>
        <time>2021-07-23T09:22:28.285Z</time>
      </trkpt>
      <trkpt lat="45.51213" lon="6.92006">
        <ele>1638.6</ele>
        <time>2021-07-23T09:22:29.285Z</time>
      </trkpt>
      <trkpt lat="45.5121" lon="6.92008">
        <ele>1638.6</ele>
        <time>2021-07-23T09:22:30.285Z</time>
      </trkpt>
      <trkpt lat="45.51208" lon="6.9201">
        <ele>1639</ele>
        <time>2021-07-23T09:22:31.285Z</time>
      </trkpt>
      <trkpt lat="45.51206" lon="6.92013">
        <ele>1639.4</ele>
        <time>2021-07-23T09:22:32.285Z</time>
      </trkpt>
      <trkpt lat="45.51204" lon="6.92015">
        <ele>1639.8</ele>
        <time>2021-07-23T09:22:33.285Z</time>
      </trkpt>
      <trkpt lat="45.51202" lon="6.92018">
        <ele>1640.2</ele>
        <time>2021-07-23T09:22:34.285Z</time>
      </trkpt>
      <trkpt lat="45.512" lon="6.9202">
        <ele>1640.6</ele>
        <time>2021-07-23T09:22:35.285Z</time>
      </trkpt>
      <trkpt lat="45.51198" lon="6.92023">
        <ele>1640.6</ele>
        <time>2021-07-23T09:22:36.285Z</time>
      </trkpt>
      <trkpt lat="45.51196" lon="6.92025">
        <ele>1640.6</ele>
        <time>2021-07-23T09:22:37.285Z</time>
      </trkpt>
      <trkpt lat="45.51194" lon="6.92028">
        <ele>1640.6</ele>
        <time>2021-07-23T09:22:38.285Z</time>
      </trkpt>
      <trkpt lat="45.51192" lon="6.92031">
        <ele>1641.2</ele>
        <time>2021-07-23T09:22:39.285Z</time>
      </trkpt>
      <trkpt lat="45.5119" lon="6.92034">
        <ele>1641.6</ele>
        <time>2021-07-23T09:22:40.285Z</time>
      </trkpt>
      <trkpt lat="45.51189" lon="6.92036">
        <ele>1642</ele>
        <time>2021-07-23T09:22:41.285Z</time>
      </trkpt>
      <trkpt lat="45.51186" lon="6.92039">
        <ele>1642.8</ele>
        <time>2021-07-23T09:22:42.285Z</time>
      </trkpt>
      <trkpt lat="45.51184" lon="6.92042">
        <ele>1642.8</ele>
        <time>2021-07-23T09:22:43.285Z</time>
      </trkpt>
      <trkpt lat="45.51182" lon="6.92044">
        <ele>1642.8</ele>
        <time>2021-07-23T09:22:44.285Z</time>
      </trkpt>
      <trkpt lat="45.5118" lon="6.92047">
        <ele>1643.2</ele>
        <time>2021-07-23T09:22:45.285Z</time>
      </trkpt>
      <trkpt lat="45.51178" lon="6.92049">
        <ele>1643.6</ele>
        <time>2021-07-23T09:22:46.285Z</time>
      </trkpt>
      <trkpt lat="45.51176" lon="6.92051">
        <ele>1644</ele>
        <time>2021-07-23T09:22:47.285Z</time>
      </trkpt>
      <trkpt lat="45.51174" lon="6.92053">
        <ele>1644.4</ele>
        <time>2021-07-23T09:22:48.285Z</time>
      </trkpt>
      <trkpt lat="45.51172" lon="6.92056">
        <ele>1644.8</ele>
        <time>2021-07-23T09:22:49.285Z</time>
      </trkpt>
      <trkpt lat="45.5117" lon="6.92058">
        <ele>1644.8</ele>
        <time>2021-07-23T09:22:50.285Z</time>
      </trkpt>
      <trkpt lat="45.51168" lon="6.92061">
        <ele>1644.8</ele>
        <time>2021-07-23T09:22:51.285Z</time>
      </trkpt>
      <trkpt lat="45.51166" lon="6.92064">
        <ele>1644.8</ele>
        <time>2021-07-23T09:22:52.285Z</time>
      </trkpt>
      <trkpt lat="45.51164" lon="6.92067">
        <ele>1644.8</ele>
        <time>2021-07-23T09:22:53.285Z</time>
      </trkpt>
      <trkpt lat="45.51162" lon="6.92069">
        <ele>1644.8</ele>
        <time>2021-07-23T09:22:54.285Z</time>
      </trkpt>
      <trkpt lat="45.51161" lon="6.92072">
        <ele>1645.2</ele>
        <time>2021-07-23T09:22:55.285Z</time>
      </trkpt>
      <trkpt lat="45.51159" lon="6.92075">
        <ele>1645.6</ele>
        <time>2021-07-23T09:22:56.285Z</time>
      </trkpt>
      <trkpt lat="45.51158" lon="6.92078">
        <ele>1646.2</ele>
        <time>2021-07-23T09:22:57.285Z</time>
      </trkpt>
      <trkpt lat="45.51156" lon="6.9208">
        <ele>1646.6</ele>
        <time>2021-07-23T09:22:58.285Z</time>
      </trkpt>
      <trkpt lat="45.51154" lon="6.92083">
        <ele>1647</ele>
        <time>2021-07-23T09:22:59.285Z</time>
      </trkpt>
      <trkpt lat="45.51152" lon="6.92086">
        <ele>1647</ele>
        <time>2021-07-23T09:23:00.285Z</time>
      </trkpt>
      <trkpt lat="45.51151" lon="6.92089">
        <ele>1647</ele>
        <time>2021-07-23T09:23:01.285Z</time>
      </trkpt>
      <trkpt lat="45.51149" lon="6.92092">
        <ele>1647</ele>
        <time>2021-07-23T09:23:02.285Z</time>
      </trkpt>
      <trkpt lat="45.51147" lon="6.92095">
        <ele>1647</ele>
        <time>2021-07-23T09:23:03.285Z</time>
      </trkpt>
      <trkpt lat="45.51145" lon="6.92098">
        <ele>1647</ele>
        <time>2021-07-23T09:23:04.285Z</time>
      </trkpt>
      <trkpt lat="45.51143" lon="6.921">
        <ele>1647</ele>
        <time>2021-07-23T09:23:05.285Z</time>
      </trkpt>
      <trkpt lat="45.51141" lon="6.92103">
        <ele>1647.4</ele>
        <time>2021-07-23T09:23:06.285Z</time>
      </trkpt>
      <trkpt lat="45.51139" lon="6.92106">
        <ele>1648.4</ele>
        <time>2021-07-23T09:23:07.285Z</time>
      </trkpt>
      <trkpt lat="45.51138" lon="6.92108">
        <ele>1648.8</ele>
        <time>2021-07-23T09:23:08.285Z</time>
      </trkpt>
      <trkpt lat="45.51136" lon="6.9211">
        <ele>1649.2</ele>
        <time>2021-07-23T09:23:09.285Z</time>
      </trkpt>
      <trkpt lat="45.51134" lon="6.92113">
        <ele>1649.2</ele>
        <time>2021-07-23T09:23:10.285Z</time>
      </trkpt>
      <trkpt lat="45.51132" lon="6.92115">
        <ele>1649.2</ele>
        <time>2021-07-23T09:23:11.285Z</time>
      </trkpt>
      <trkpt lat="45.51131" lon="6.92118">
        <ele>1649.2</ele>
        <time>2021-07-23T09:23:12.285Z</time>
      </trkpt>
      <trkpt lat="45.51129" lon="6.92121">
        <ele>1649.6</ele>
        <time>2021-07-23T09:23:13.285Z</time>
      </trkpt>
      <trkpt lat="45.51128" lon="6.92124">
        <ele>1650</ele>
        <time>2021-07-23T09:23:14.285Z</time>
      </trkpt>
      <trkpt lat="45.51127" lon="6.92127">
        <ele>1650.4</ele>
        <time>2021-07-23T09:23:15.285Z</time>
      </trkpt>
      <trkpt lat="45.51125" lon="6.92129">
        <ele>1650.8</ele>
        <time>2021-07-23T09:23:16.285Z</time>
      </trkpt>
      <trkpt lat="45.51123" lon="6.92132">
        <ele>1651.2</ele>
        <time>2021-07-23T09:23:17.285Z</time>
      </trkpt>
      <trkpt lat="45.51121" lon="6.92135">
        <ele>1651.2</ele>
        <time>2021-07-23T09:23:18.285Z</time>
      </trkpt>
      <trkpt lat="45.51119" lon="6.92138">
        <ele>1651.2</ele>
        <time>2021-07-23T09:23:19.285Z</time>
      </trkpt>
      <trkpt lat="45.51117" lon="6.92141">
        <ele>1651.2</ele>
        <time>2021-07-23T09:23:20.285Z</time>
      </trkpt>
      <trkpt lat="45.51115" lon="6.92144">
        <ele>1651.2</ele>
        <time>2021-07-23T09:23:21.285Z</time>
      </trkpt>
      <trkpt lat="45.51113" lon="6.92146">
        <ele>1651.6</ele>
        <time>2021-07-23T09:23:22.285Z</time>
      </trkpt>
      <trkpt lat="45.51111" lon="6.92148">
        <ele>1652.2</ele>
        <time>2021-07-23T09:23:23.285Z</time>
      </trkpt>
      <trkpt lat="45.51109" lon="6.92151">
        <ele>1652.6</ele>
        <time>2021-07-23T09:23:24.285Z</time>
      </trkpt>
      <trkpt lat="45.51107" lon="6.92153">
        <ele>1653</ele>
        <time>2021-07-23T09:23:25.285Z</time>
      </trkpt>
      <trkpt lat="45.51106" lon="6.92156">
        <ele>1653.4</ele>
        <time>2021-07-23T09:23:26.285Z</time>
      </trkpt>
      <trkpt lat="45.51104" lon="6.92159">
        <ele>1653.4</ele>
        <time>2021-07-23T09:23:27.285Z</time>
      </trkpt>
      <trkpt lat="45.51102" lon="6.92162">
        <ele>1653.4</ele>
        <time>2021-07-23T09:23:28.285Z</time>
      </trkpt>
      <trkpt lat="45.51101" lon="6.92165">
        <ele>1653.4</ele>
        <time>2021-07-23T09:23:29.285Z</time>
      </trkpt>
      <trkpt lat="45.51099" lon="6.92167">
        <ele>1653.4</ele>
        <time>2021-07-23T09:23:30.285Z</time>
      </trkpt>
      <trkpt lat="45.51098" lon="6.9217">
        <ele>1654.2</ele>
        <time>2021-07-23T09:23:31.285Z</time>
      </trkpt>
      <trkpt lat="45.51096" lon="6.92172">
        <ele>1654.6</ele>
        <time>2021-07-23T09:23:32.285Z</time>
      </trkpt>
      <trkpt lat="45.51094" lon="6.92175">
        <ele>1655.2</ele>
        <time>2021-07-23T09:23:33.285Z</time>
      </trkpt>
      <trkpt lat="45.51093" lon="6.92178">
        <ele>1655.6</ele>
        <time>2021-07-23T09:23:34.285Z</time>
      </trkpt>
      <trkpt lat="45.51091" lon="6.9218">
        <ele>1655.6</ele>
        <time>2021-07-23T09:23:35.285Z</time>
      </trkpt>
      <trkpt lat="45.51089" lon="6.92183">
        <ele>1655.6</ele>
        <time>2021-07-23T09:23:36.285Z</time>
      </trkpt>
      <trkpt lat="45.51088" lon="6.92186">
        <ele>1655.6</ele>
        <time>2021-07-23T09:23:37.285Z</time>
      </trkpt>
      <trkpt lat="45.51086" lon="6.92189">
        <ele>1655.6</ele>
        <time>2021-07-23T09:23:38.285Z</time>
      </trkpt>
      <trkpt lat="45.51084" lon="6.92192">
        <ele>1655.6</ele>
        <time>2021-07-23T09:23:39.285Z</time>
      </trkpt>
      <trkpt lat="45.51083" lon="6.92195">
        <ele>1656</ele>
        <time>2021-07-23T09:23:40.285Z</time>
      </trkpt>
      <trkpt lat="45.51081" lon="6.92199">
        <ele>1656.6</ele>
        <time>2021-07-23T09:23:41.285Z</time>
      </trkpt>
      <trkpt lat="45.5108" lon="6.92202">
        <ele>1657.2</ele>
        <time>2021-07-23T09:23:42.285Z</time>
      </trkpt>
      <trkpt lat="45.51078" lon="6.92205">
        <ele>1657.6</ele>
        <time>2021-07-23T09:23:43.285Z</time>
      </trkpt>
      <trkpt lat="45.51077" lon="6.92208">
        <ele>1658.2</ele>
        <time>2021-07-23T09:23:44.285Z</time>
      </trkpt>
      <trkpt lat="45.51075" lon="6.92211">
        <ele>1658.2</ele>
        <time>2021-07-23T09:23:45.285Z</time>
      </trkpt>
      <trkpt lat="45.51074" lon="6.92215">
        <ele>1658.2</ele>
        <time>2021-07-23T09:23:46.285Z</time>
      </trkpt>
      <trkpt lat="45.51072" lon="6.92218">
        <ele>1658.2</ele>
        <time>2021-07-23T09:23:47.285Z</time>
      </trkpt>
      <trkpt lat="45.51071" lon="6.92221">
        <ele>1658.2</ele>
        <time>2021-07-23T09:23:48.285Z</time>
      </trkpt>
      <trkpt lat="45.51069" lon="6.92224">
        <ele>1658.2</ele>
        <time>2021-07-23T09:23:49.285Z</time>
      </trkpt>
      <trkpt lat="45.51068" lon="6.92228">
        <ele>1658.2</ele>
        <time>2021-07-23T09:23:50.285Z</time>
      </trkpt>
      <trkpt lat="45.51066" lon="6.92231">
        <ele>1658.6</ele>
        <time>2021-07-23T09:23:51.285Z</time>
      </trkpt>
      <trkpt lat="45.51065" lon="6.92234">
        <ele>1659</ele>
        <time>2021-07-23T09:23:52.285Z</time>
      </trkpt>
      <trkpt lat="45.51063" lon="6.92237">
        <ele>1659.6</ele>
        <time>2021-07-23T09:23:53.285Z</time>
      </trkpt>
      <trkpt lat="45.51061" lon="6.9224">
        <ele>1660</ele>
        <time>2021-07-23T09:23:54.285Z</time>
      </trkpt>
      <trkpt lat="45.5106" lon="6.92243">
        <ele>1660.4</ele>
        <time>2021-07-23T09:23:55.285Z</time>
      </trkpt>
      <trkpt lat="45.51058" lon="6.92246">
        <ele>1660.4</ele>
        <time>2021-07-23T09:23:56.285Z</time>
      </trkpt>
      <trkpt lat="45.51057" lon="6.92249">
        <ele>1660.4</ele>
        <time>2021-07-23T09:23:57.285Z</time>
      </trkpt>
      <trkpt lat="45.51056" lon="6.92253">
        <ele>1660.8</ele>
        <time>2021-07-23T09:23:58.285Z</time>
      </trkpt>
      <trkpt lat="45.51055" lon="6.92256">
        <ele>1661.2</ele>
        <time>2021-07-23T09:23:59.285Z</time>
      </trkpt>
      <trkpt lat="45.51053" lon="6.92259">
        <ele>1661.8</ele>
        <time>2021-07-23T09:24:00.285Z</time>
      </trkpt>
      <trkpt lat="45.51052" lon="6.92262">
        <ele>1662.2</ele>
        <time>2021-07-23T09:24:01.285Z</time>
      </trkpt>
      <trkpt lat="45.51051" lon="6.92266">
        <ele>1662.6</ele>
        <time>2021-07-23T09:24:02.285Z</time>
      </trkpt>
      <trkpt lat="45.5105" lon="6.92269">
        <ele>1662.6</ele>
        <time>2021-07-23T09:24:03.285Z</time>
      </trkpt>
      <trkpt lat="45.51049" lon="6.92272">
        <ele>1662.6</ele>
        <time>2021-07-23T09:24:04.285Z</time>
      </trkpt>
      <trkpt lat="45.51048" lon="6.92276">
        <ele>1662.6</ele>
        <time>2021-07-23T09:24:05.285Z</time>
      </trkpt>
      <trkpt lat="45.51047" lon="6.92279">
        <ele>1662.6</ele>
        <time>2021-07-23T09:24:06.285Z</time>
      </trkpt>
      <trkpt lat="45.51046" lon="6.92283">
        <ele>1662.6</ele>
        <time>2021-07-23T09:24:07.285Z</time>
      </trkpt>
      <trkpt lat="45.51045" lon="6.92287">
        <ele>1662.6</ele>
        <time>2021-07-23T09:24:08.285Z</time>
      </trkpt>
      <trkpt lat="45.51044" lon="6.9229">
        <ele>1663</ele>
        <time>2021-07-23T09:24:09.285Z</time>
      </trkpt>
      <trkpt lat="45.51043" lon="6.92294">
        <ele>1663.4</ele>
        <time>2021-07-23T09:24:10.285Z</time>
      </trkpt>
      <trkpt lat="45.51042" lon="6.92298">
        <ele>1663.8</ele>
        <time>2021-07-23T09:24:11.285Z</time>
      </trkpt>
      <trkpt lat="45.51041" lon="6.92301">
        <ele>1664.2</ele>
        <time>2021-07-23T09:24:12.285Z</time>
      </trkpt>
      <trkpt lat="45.5104" lon="6.92305">
        <ele>1664.6</ele>
        <time>2021-07-23T09:24:13.285Z</time>
      </trkpt>
      <trkpt lat="45.51039" lon="6.92309">
        <ele>1664.6</ele>
        <time>2021-07-23T09:24:14.285Z</time>
      </trkpt>
      <trkpt lat="45.51038" lon="6.92313">
        <ele>1664.6</ele>
        <time>2021-07-23T09:24:15.285Z</time>
      </trkpt>
      <trkpt lat="45.51038" lon="6.92316">
        <ele>1664.6</ele>
        <time>2021-07-23T09:24:16.285Z</time>
      </trkpt>
      <trkpt lat="45.51037" lon="6.92319">
        <ele>1664.6</ele>
        <time>2021-07-23T09:24:17.285Z</time>
      </trkpt>
      <trkpt lat="45.51036" lon="6.92323">
        <ele>1664.6</ele>
        <time>2021-07-23T09:24:18.285Z</time>
      </trkpt>
      <trkpt lat="45.51035" lon="6.92326">
        <ele>1665</ele>
        <time>2021-07-23T09:24:19.285Z</time>
      </trkpt>
      <trkpt lat="45.51033" lon="6.92329">
        <ele>1665.4</ele>
        <time>2021-07-23T09:24:20.285Z</time>
      </trkpt>
      <trkpt lat="45.51032" lon="6.92333">
        <ele>1666.4</ele>
        <time>2021-07-23T09:24:21.285Z</time>
      </trkpt>
      <trkpt lat="45.51031" lon="6.92336">
        <ele>1666.8</ele>
        <time>2021-07-23T09:24:22.285Z</time>
      </trkpt>
      <trkpt lat="45.5103" lon="6.92339">
        <ele>1666.8</ele>
        <time>2021-07-23T09:24:23.285Z</time>
      </trkpt>
      <trkpt lat="45.51029" lon="6.92343">
        <ele>1666.8</ele>
        <time>2021-07-23T09:24:24.285Z</time>
      </trkpt>
      <trkpt lat="45.51028" lon="6.92346">
        <ele>1666.8</ele>
        <time>2021-07-23T09:24:25.285Z</time>
      </trkpt>
      <trkpt lat="45.51027" lon="6.92349">
        <ele>1666.8</ele>
        <time>2021-07-23T09:24:26.285Z</time>
      </trkpt>
      <trkpt lat="45.51026" lon="6.92352">
        <ele>1666.8</ele>
        <time>2021-07-23T09:24:27.285Z</time>
      </trkpt>
      <trkpt lat="45.51024" lon="6.92356">
        <ele>1667.2</ele>
        <time>2021-07-23T09:24:28.285Z</time>
      </trkpt>
      <trkpt lat="45.51023" lon="6.92359">
        <ele>1667.6</ele>
        <time>2021-07-23T09:24:29.285Z</time>
      </trkpt>
      <trkpt lat="45.51022" lon="6.92362">
        <ele>1668</ele>
        <time>2021-07-23T09:24:30.285Z</time>
      </trkpt>
      <trkpt lat="45.51021" lon="6.92365">
        <ele>1668.4</ele>
        <time>2021-07-23T09:24:31.285Z</time>
      </trkpt>
      <trkpt lat="45.51019" lon="6.92368">
        <ele>1668.8</ele>
        <time>2021-07-23T09:24:32.285Z</time>
      </trkpt>
      <trkpt lat="45.51018" lon="6.92371">
        <ele>1668.8</ele>
        <time>2021-07-23T09:24:33.285Z</time>
      </trkpt>
      <trkpt lat="45.51017" lon="6.92374">
        <ele>1668.8</ele>
        <time>2021-07-23T09:24:34.285Z</time>
      </trkpt>
      <trkpt lat="45.51015" lon="6.92377">
        <ele>1668.8</ele>
        <time>2021-07-23T09:24:35.285Z</time>
      </trkpt>
      <trkpt lat="45.51013" lon="6.9238">
        <ele>1668.8</ele>
        <time>2021-07-23T09:24:36.285Z</time>
      </trkpt>
      <trkpt lat="45.51012" lon="6.92383">
        <ele>1668.8</ele>
        <time>2021-07-23T09:24:37.285Z</time>
      </trkpt>
      <trkpt lat="45.5101" lon="6.92386">
        <ele>1669.4</ele>
        <time>2021-07-23T09:24:38.285Z</time>
      </trkpt>
      <trkpt lat="45.51009" lon="6.92389">
        <ele>1669.8</ele>
        <time>2021-07-23T09:24:39.285Z</time>
      </trkpt>
      <trkpt lat="45.51008" lon="6.92392">
        <ele>1670.2</ele>
        <time>2021-07-23T09:24:40.285Z</time>
      </trkpt>
      <trkpt lat="45.51006" lon="6.92394">
        <ele>1670.6</ele>
        <time>2021-07-23T09:24:41.285Z</time>
      </trkpt>
      <trkpt lat="45.51005" lon="6.92397">
        <ele>1671.2</ele>
        <time>2021-07-23T09:24:42.285Z</time>
      </trkpt>
      <trkpt lat="45.51003" lon="6.924">
        <ele>1671.2</ele>
        <time>2021-07-23T09:24:43.285Z</time>
      </trkpt>
      <trkpt lat="45.51002" lon="6.92403">
        <ele>1671.2</ele>
        <time>2021-07-23T09:24:44.285Z</time>
      </trkpt>
      <trkpt lat="45.51" lon="6.92406">
        <ele>1671.2</ele>
        <time>2021-07-23T09:24:45.285Z</time>
      </trkpt>
      <trkpt lat="45.50998" lon="6.92409">
        <ele>1671.6</ele>
        <time>2021-07-23T09:24:46.285Z</time>
      </trkpt>
      <trkpt lat="45.50997" lon="6.92413">
        <ele>1672</ele>
        <time>2021-07-23T09:24:47.285Z</time>
      </trkpt>
      <trkpt lat="45.50995" lon="6.92415">
        <ele>1672.4</ele>
        <time>2021-07-23T09:24:48.285Z</time>
      </trkpt>
      <trkpt lat="45.50993" lon="6.92418">
        <ele>1672.8</ele>
        <time>2021-07-23T09:24:49.285Z</time>
      </trkpt>
      <trkpt lat="45.50992" lon="6.9242">
        <ele>1673.2</ele>
        <time>2021-07-23T09:24:50.285Z</time>
      </trkpt>
      <trkpt lat="45.5099" lon="6.92423">
        <ele>1673.2</ele>
        <time>2021-07-23T09:24:51.285Z</time>
      </trkpt>
      <trkpt lat="45.50988" lon="6.92426">
        <ele>1673.2</ele>
        <time>2021-07-23T09:24:52.285Z</time>
      </trkpt>
      <trkpt lat="45.50986" lon="6.92428">
        <ele>1673.2</ele>
        <time>2021-07-23T09:24:53.285Z</time>
      </trkpt>
      <trkpt lat="45.50985" lon="6.9243">
        <ele>1673.2</ele>
        <time>2021-07-23T09:24:54.285Z</time>
      </trkpt>
      <trkpt lat="45.50983" lon="6.92432">
        <ele>1673.2</ele>
        <time>2021-07-23T09:24:55.285Z</time>
      </trkpt>
      <trkpt lat="45.50981" lon="6.92434">
        <ele>1673.6</ele>
        <time>2021-07-23T09:24:56.285Z</time>
      </trkpt>
      <trkpt lat="45.50979" lon="6.92435">
        <ele>1674</ele>
        <time>2021-07-23T09:24:57.285Z</time>
      </trkpt>
      <trkpt lat="45.50978" lon="6.92437">
        <ele>1674.4</ele>
        <time>2021-07-23T09:24:58.285Z</time>
      </trkpt>
      <trkpt lat="45.50976" lon="6.92439">
        <ele>1675</ele>
        <time>2021-07-23T09:24:59.285Z</time>
      </trkpt>
      <trkpt lat="45.50974" lon="6.92441">
        <ele>1675.4</ele>
        <time>2021-07-23T09:25:00.285Z</time>
      </trkpt>
      <trkpt lat="45.50972" lon="6.92443">
        <ele>1675.4</ele>
        <time>2021-07-23T09:25:01.285Z</time>
      </trkpt>
      <trkpt lat="45.50971" lon="6.92445">
        <ele>1675.4</ele>
        <time>2021-07-23T09:25:02.285Z</time>
      </trkpt>
      <trkpt lat="45.50969" lon="6.92447">
        <ele>1675.4</ele>
        <time>2021-07-23T09:25:03.285Z</time>
      </trkpt>
      <trkpt lat="45.50968" lon="6.92449">
        <ele>1675.4</ele>
        <time>2021-07-23T09:25:04.285Z</time>
      </trkpt>
      <trkpt lat="45.50965" lon="6.9245">
        <ele>1675.4</ele>
        <time>2021-07-23T09:25:05.285Z</time>
      </trkpt>
      <trkpt lat="45.50963" lon="6.92452">
        <ele>1675.8</ele>
        <time>2021-07-23T09:25:06.285Z</time>
      </trkpt>
      <trkpt lat="45.50961" lon="6.92454">
        <ele>1676.2</ele>
        <time>2021-07-23T09:25:07.285Z</time>
      </trkpt>
      <trkpt lat="45.50959" lon="6.92456">
        <ele>1676.6</ele>
        <time>2021-07-23T09:25:08.285Z</time>
      </trkpt>
      <trkpt lat="45.50957" lon="6.92458">
        <ele>1677</ele>
        <time>2021-07-23T09:25:09.285Z</time>
      </trkpt>
      <trkpt lat="45.50955" lon="6.92459">
        <ele>1677.4</ele>
        <time>2021-07-23T09:25:10.285Z</time>
      </trkpt>
      <trkpt lat="45.50953" lon="6.92461">
        <ele>1677.4</ele>
        <time>2021-07-23T09:25:11.285Z</time>
      </trkpt>
      <trkpt lat="45.50952" lon="6.92463">
        <ele>1677.4</ele>
        <time>2021-07-23T09:25:12.285Z</time>
      </trkpt>
      <trkpt lat="45.5095" lon="6.92465">
        <ele>1677.4</ele>
        <time>2021-07-23T09:25:13.285Z</time>
      </trkpt>
      <trkpt lat="45.50948" lon="6.92467">
        <ele>1677.4</ele>
        <time>2021-07-23T09:25:14.285Z</time>
      </trkpt>
      <trkpt lat="45.50946" lon="6.92469">
        <ele>1677.4</ele>
        <time>2021-07-23T09:25:15.285Z</time>
      </trkpt>
      <trkpt lat="45.50944" lon="6.92472">
        <ele>1677.8</ele>
        <time>2021-07-23T09:25:16.285Z</time>
      </trkpt>
      <trkpt lat="45.50942" lon="6.92474">
        <ele>1678.2</ele>
        <time>2021-07-23T09:25:17.285Z</time>
      </trkpt>
      <trkpt lat="45.5094" lon="6.92476">
        <ele>1678.8</ele>
        <time>2021-07-23T09:25:18.285Z</time>
      </trkpt>
      <trkpt lat="45.50938" lon="6.92477">
        <ele>1679.2</ele>
        <time>2021-07-23T09:25:19.285Z</time>
      </trkpt>
      <trkpt lat="45.50936" lon="6.92479">
        <ele>1679.6</ele>
        <time>2021-07-23T09:25:20.285Z</time>
      </trkpt>
      <trkpt lat="45.50933" lon="6.92481">
        <ele>1679.6</ele>
        <time>2021-07-23T09:25:21.285Z</time>
      </trkpt>
      <trkpt lat="45.50931" lon="6.92483">
        <ele>1679.6</ele>
        <time>2021-07-23T09:25:22.285Z</time>
      </trkpt>
      <trkpt lat="45.50928" lon="6.92484">
        <ele>1679.6</ele>
        <time>2021-07-23T09:25:23.285Z</time>
      </trkpt>
      <trkpt lat="45.50926" lon="6.92484">
        <ele>1679.6</ele>
        <time>2021-07-23T09:25:24.285Z</time>
      </trkpt>
      <trkpt lat="45.50924" lon="6.92485">
        <ele>1679.6</ele>
        <time>2021-07-23T09:25:25.285Z</time>
      </trkpt>
      <trkpt lat="45.50921" lon="6.92486">
        <ele>1679.6</ele>
        <time>2021-07-23T09:25:26.285Z</time>
      </trkpt>
      <trkpt lat="45.50919" lon="6.92487">
        <ele>1679.6</ele>
        <time>2021-07-23T09:25:27.285Z</time>
      </trkpt>
      <trkpt lat="45.50916" lon="6.92488">
        <ele>1679.6</ele>
        <time>2021-07-23T09:25:28.285Z</time>
      </trkpt>
      <trkpt lat="45.50913" lon="6.92489">
        <ele>1680</ele>
        <time>2021-07-23T09:25:29.285Z</time>
      </trkpt>
      <trkpt lat="45.50911" lon="6.92491">
        <ele>1680.6</ele>
        <time>2021-07-23T09:25:30.285Z</time>
      </trkpt>
      <trkpt lat="45.50909" lon="6.92491">
        <ele>1681</ele>
        <time>2021-07-23T09:25:31.285Z</time>
      </trkpt>
      <trkpt lat="45.50906" lon="6.92492">
        <ele>1681.4</ele>
        <time>2021-07-23T09:25:32.285Z</time>
      </trkpt>
      <trkpt lat="45.50904" lon="6.92494">
        <ele>1681.8</ele>
        <time>2021-07-23T09:25:33.285Z</time>
      </trkpt>
      <trkpt lat="45.50902" lon="6.92495">
        <ele>1681.8</ele>
        <time>2021-07-23T09:25:34.285Z</time>
      </trkpt>
      <trkpt lat="45.50899" lon="6.92496">
        <ele>1682.8</ele>
        <time>2021-07-23T09:25:35.285Z</time>
      </trkpt>
      <trkpt lat="45.50897" lon="6.92497">
        <ele>1683.2</ele>
        <time>2021-07-23T09:25:36.285Z</time>
      </trkpt>
      <trkpt lat="45.50894" lon="6.92499">
        <ele>1683.6</ele>
        <time>2021-07-23T09:25:37.285Z</time>
      </trkpt>
      <trkpt lat="45.50892" lon="6.925">
        <ele>1684</ele>
        <time>2021-07-23T09:25:38.285Z</time>
      </trkpt>
      <trkpt lat="45.5089" lon="6.92502">
        <ele>1684</ele>
        <time>2021-07-23T09:25:39.285Z</time>
      </trkpt>
      <trkpt lat="45.50887" lon="6.92503">
        <ele>1684</ele>
        <time>2021-07-23T09:25:40.285Z</time>
      </trkpt>
      <trkpt lat="45.50885" lon="6.92504">
        <ele>1684</ele>
        <time>2021-07-23T09:25:41.285Z</time>
      </trkpt>
      <trkpt lat="45.50882" lon="6.92505">
        <ele>1684</ele>
        <time>2021-07-23T09:25:42.285Z</time>
      </trkpt>
      <trkpt lat="45.5088" lon="6.92507">
        <ele>1684</ele>
        <time>2021-07-23T09:25:43.285Z</time>
      </trkpt>
      <trkpt lat="45.50877" lon="6.92508">
        <ele>1684.4</ele>
        <time>2021-07-23T09:25:44.285Z</time>
      </trkpt>
      <trkpt lat="45.50875" lon="6.92509">
        <ele>1684.8</ele>
        <time>2021-07-23T09:25:45.285Z</time>
      </trkpt>
      <trkpt lat="45.50873" lon="6.9251">
        <ele>1685.2</ele>
        <time>2021-07-23T09:25:46.285Z</time>
      </trkpt>
      <trkpt lat="45.5087" lon="6.92511">
        <ele>1685.6</ele>
        <time>2021-07-23T09:25:47.285Z</time>
      </trkpt>
      <trkpt lat="45.50868" lon="6.92512">
        <ele>1686</ele>
        <time>2021-07-23T09:25:48.285Z</time>
      </trkpt>
      <trkpt lat="45.50865" lon="6.92513">
        <ele>1686</ele>
        <time>2021-07-23T09:25:49.285Z</time>
      </trkpt>
      <trkpt lat="45.50863" lon="6.92515">
        <ele>1686</ele>
        <time>2021-07-23T09:25:50.285Z</time>
      </trkpt>
      <trkpt lat="45.5086" lon="6.92516">
        <ele>1686</ele>
        <time>2021-07-23T09:25:51.285Z</time>
      </trkpt>
      <trkpt lat="45.50858" lon="6.92517">
        <ele>1686</ele>
        <time>2021-07-23T09:25:52.285Z</time>
      </trkpt>
      <trkpt lat="45.50856" lon="6.92518">
        <ele>1686</ele>
        <time>2021-07-23T09:25:53.285Z</time>
      </trkpt>
      <trkpt lat="45.50853" lon="6.9252">
        <ele>1686.4</ele>
        <time>2021-07-23T09:25:54.285Z</time>
      </trkpt>
      <trkpt lat="45.50851" lon="6.9252">
        <ele>1687</ele>
        <time>2021-07-23T09:25:55.285Z</time>
      </trkpt>
      <trkpt lat="45.50849" lon="6.92522">
        <ele>1687.4</ele>
        <time>2021-07-23T09:25:56.285Z</time>
      </trkpt>
      <trkpt lat="45.50847" lon="6.92523">
        <ele>1687.8</ele>
        <time>2021-07-23T09:25:57.285Z</time>
      </trkpt>
      <trkpt lat="45.50844" lon="6.92523">
        <ele>1688.2</ele>
        <time>2021-07-23T09:25:58.285Z</time>
      </trkpt>
      <trkpt lat="45.50842" lon="6.92525">
        <ele>1688.2</ele>
        <time>2021-07-23T09:25:59.285Z</time>
      </trkpt>
      <trkpt lat="45.50839" lon="6.92526">
        <ele>1688.2</ele>
        <time>2021-07-23T09:26:00.285Z</time>
      </trkpt>
      <trkpt lat="45.50837" lon="6.92527">
        <ele>1688.6</ele>
        <time>2021-07-23T09:26:01.285Z</time>
      </trkpt>
      <trkpt lat="45.50835" lon="6.92528">
        <ele>1689.2</ele>
        <time>2021-07-23T09:26:02.285Z</time>
      </trkpt>
      <trkpt lat="45.50832" lon="6.9253">
        <ele>1689.6</ele>
        <time>2021-07-23T09:26:03.285Z</time>
      </trkpt>
      <trkpt lat="45.5083" lon="6.9253">
        <ele>1690</ele>
        <time>2021-07-23T09:26:04.285Z</time>
      </trkpt>
      <trkpt lat="45.50828" lon="6.92531">
        <ele>1690.4</ele>
        <time>2021-07-23T09:26:05.285Z</time>
      </trkpt>
      <trkpt lat="45.50825" lon="6.92532">
        <ele>1690.4</ele>
        <time>2021-07-23T09:26:06.285Z</time>
      </trkpt>
      <trkpt lat="45.50823" lon="6.92533">
        <ele>1690.8</ele>
        <time>2021-07-23T09:26:07.285Z</time>
      </trkpt>
      <trkpt lat="45.50821" lon="6.92534">
        <ele>1691.2</ele>
        <time>2021-07-23T09:26:08.285Z</time>
      </trkpt>
      <trkpt lat="45.50819" lon="6.92535">
        <ele>1691.8</ele>
        <time>2021-07-23T09:26:09.285Z</time>
      </trkpt>
      <trkpt lat="45.50817" lon="6.92536">
        <ele>1692.2</ele>
        <time>2021-07-23T09:26:10.285Z</time>
      </trkpt>
      <trkpt lat="45.50814" lon="6.92538">
        <ele>1692.6</ele>
        <time>2021-07-23T09:26:11.285Z</time>
      </trkpt>
      <trkpt lat="45.50812" lon="6.92539">
        <ele>1692.6</ele>
        <time>2021-07-23T09:26:12.285Z</time>
      </trkpt>
      <trkpt lat="45.50809" lon="6.9254">
        <ele>1692.6</ele>
        <time>2021-07-23T09:26:13.285Z</time>
      </trkpt>
      <trkpt lat="45.50807" lon="6.92541">
        <ele>1692.6</ele>
        <time>2021-07-23T09:26:14.285Z</time>
      </trkpt>
      <trkpt lat="45.50805" lon="6.92543">
        <ele>1693</ele>
        <time>2021-07-23T09:26:15.285Z</time>
      </trkpt>
      <trkpt lat="45.50803" lon="6.92544">
        <ele>1693.4</ele>
        <time>2021-07-23T09:26:16.285Z</time>
      </trkpt>
      <trkpt lat="45.50801" lon="6.92546">
        <ele>1693.8</ele>
        <time>2021-07-23T09:26:17.285Z</time>
      </trkpt>
      <trkpt lat="45.50798" lon="6.92548">
        <ele>1694.2</ele>
        <time>2021-07-23T09:26:18.285Z</time>
      </trkpt>
      <trkpt lat="45.50796" lon="6.92549">
        <ele>1694.8</ele>
        <time>2021-07-23T09:26:19.285Z</time>
      </trkpt>
      <trkpt lat="45.50794" lon="6.92551">
        <ele>1694.8</ele>
        <time>2021-07-23T09:26:20.285Z</time>
      </trkpt>
      <trkpt lat="45.50791" lon="6.92553">
        <ele>1694.8</ele>
        <time>2021-07-23T09:26:21.285Z</time>
      </trkpt>
      <trkpt lat="45.50789" lon="6.92556">
        <ele>1694.8</ele>
        <time>2021-07-23T09:26:22.285Z</time>
      </trkpt>
      <trkpt lat="45.50787" lon="6.92559">
        <ele>1694.8</ele>
        <time>2021-07-23T09:26:23.285Z</time>
      </trkpt>
      <trkpt lat="45.50785" lon="6.92561">
        <ele>1695.6</ele>
        <time>2021-07-23T09:26:24.285Z</time>
      </trkpt>
      <trkpt lat="45.50784" lon="6.92564">
        <ele>1696</ele>
        <time>2021-07-23T09:26:25.285Z</time>
      </trkpt>
      <trkpt lat="45.50782" lon="6.92567">
        <ele>1696.4</ele>
        <time>2021-07-23T09:26:26.285Z</time>
      </trkpt>
      <trkpt lat="45.50781" lon="6.92571">
        <ele>1696.8</ele>
        <time>2021-07-23T09:26:27.285Z</time>
      </trkpt>
      <trkpt lat="45.50779" lon="6.92574">
        <ele>1696.8</ele>
        <time>2021-07-23T09:26:28.285Z</time>
      </trkpt>
      <trkpt lat="45.50777" lon="6.92577">
        <ele>1696.8</ele>
        <time>2021-07-23T09:26:29.285Z</time>
      </trkpt>
      <trkpt lat="45.50775" lon="6.9258">
        <ele>1696.8</ele>
        <time>2021-07-23T09:26:30.285Z</time>
      </trkpt>
      <trkpt lat="45.50773" lon="6.92583">
        <ele>1696.8</ele>
        <time>2021-07-23T09:26:31.285Z</time>
      </trkpt>
      <trkpt lat="45.50772" lon="6.92587">
        <ele>1696.8</ele>
        <time>2021-07-23T09:26:32.285Z</time>
      </trkpt>
      <trkpt lat="45.5077" lon="6.9259">
        <ele>1696.8</ele>
        <time>2021-07-23T09:26:33.285Z</time>
      </trkpt>
      <trkpt lat="45.50768" lon="6.92593">
        <ele>1696.8</ele>
        <time>2021-07-23T09:26:34.285Z</time>
      </trkpt>
      <trkpt lat="45.50767" lon="6.92597">
        <ele>1697.2</ele>
        <time>2021-07-23T09:26:35.285Z</time>
      </trkpt>
      <trkpt lat="45.50765" lon="6.92601">
        <ele>1697.8</ele>
        <time>2021-07-23T09:26:36.285Z</time>
      </trkpt>
      <trkpt lat="45.50764" lon="6.92606">
        <ele>1698.2</ele>
        <time>2021-07-23T09:26:37.285Z</time>
      </trkpt>
      <trkpt lat="45.50762" lon="6.9261">
        <ele>1698.6</ele>
        <time>2021-07-23T09:26:38.285Z</time>
      </trkpt>
      <trkpt lat="45.5076" lon="6.92614">
        <ele>1699</ele>
        <time>2021-07-23T09:26:39.285Z</time>
      </trkpt>
      <trkpt lat="45.50759" lon="6.92618">
        <ele>1699</ele>
        <time>2021-07-23T09:26:40.285Z</time>
      </trkpt>
      <trkpt lat="45.50757" lon="6.92622">
        <ele>1699</ele>
        <time>2021-07-23T09:26:41.285Z</time>
      </trkpt>
      <trkpt lat="45.50755" lon="6.92626">
        <ele>1699</ele>
        <time>2021-07-23T09:26:42.285Z</time>
      </trkpt>
      <trkpt lat="45.50753" lon="6.9263">
        <ele>1699</ele>
        <time>2021-07-23T09:26:43.285Z</time>
      </trkpt>
      <trkpt lat="45.50751" lon="6.92634">
        <ele>1699</ele>
        <time>2021-07-23T09:26:44.285Z</time>
      </trkpt>
      <trkpt lat="45.5075" lon="6.92638">
        <ele>1699</ele>
        <time>2021-07-23T09:26:45.285Z</time>
      </trkpt>
      <trkpt lat="45.50748" lon="6.92641">
        <ele>1699</ele>
        <time>2021-07-23T09:26:46.285Z</time>
      </trkpt>
      <trkpt lat="45.50746" lon="6.92645">
        <ele>1699</ele>
        <time>2021-07-23T09:26:47.285Z</time>
      </trkpt>
      <trkpt lat="45.50744" lon="6.92648">
        <ele>1699.4</ele>
        <time>2021-07-23T09:26:48.285Z</time>
      </trkpt>
      <trkpt lat="45.50742" lon="6.92651">
        <ele>1700.4</ele>
        <time>2021-07-23T09:26:49.285Z</time>
      </trkpt>
      <trkpt lat="45.5074" lon="6.92655">
        <ele>1700.8</ele>
        <time>2021-07-23T09:26:50.285Z</time>
      </trkpt>
      <trkpt lat="45.50738" lon="6.92659">
        <ele>1701.2</ele>
        <time>2021-07-23T09:26:51.285Z</time>
      </trkpt>
      <trkpt lat="45.50736" lon="6.92663">
        <ele>1701.2</ele>
        <time>2021-07-23T09:26:52.285Z</time>
      </trkpt>
      <trkpt lat="45.50734" lon="6.92667">
        <ele>1701.2</ele>
        <time>2021-07-23T09:26:53.285Z</time>
      </trkpt>
      <trkpt lat="45.50731" lon="6.9267">
        <ele>1701.2</ele>
        <time>2021-07-23T09:26:54.285Z</time>
      </trkpt>
      <trkpt lat="45.50729" lon="6.92674">
        <ele>1701.2</ele>
        <time>2021-07-23T09:26:55.285Z</time>
      </trkpt>
      <trkpt lat="45.50726" lon="6.92677">
        <ele>1701.2</ele>
        <time>2021-07-23T09:26:56.285Z</time>
      </trkpt>
      <trkpt lat="45.50724" lon="6.9268">
        <ele>1701.2</ele>
        <time>2021-07-23T09:26:57.285Z</time>
      </trkpt>
      <trkpt lat="45.50721" lon="6.92683">
        <ele>1701.2</ele>
        <time>2021-07-23T09:26:58.285Z</time>
      </trkpt>
      <trkpt lat="45.50718" lon="6.92686">
        <ele>1701.6</ele>
        <time>2021-07-23T09:26:59.285Z</time>
      </trkpt>
      <trkpt lat="45.50716" lon="6.92689">
        <ele>1702</ele>
        <time>2021-07-23T09:27:00.285Z</time>
      </trkpt>
      <trkpt lat="45.50714" lon="6.92692">
        <ele>1702.4</ele>
        <time>2021-07-23T09:27:01.285Z</time>
      </trkpt>
      <trkpt lat="45.50712" lon="6.92694">
        <ele>1702.8</ele>
        <time>2021-07-23T09:27:02.285Z</time>
      </trkpt>
      <trkpt lat="45.50711" lon="6.92697">
        <ele>1703.2</ele>
        <time>2021-07-23T09:27:03.285Z</time>
      </trkpt>
      <trkpt lat="45.50709" lon="6.927">
        <ele>1703.2</ele>
        <time>2021-07-23T09:27:04.285Z</time>
      </trkpt>
      <trkpt lat="45.50707" lon="6.92703">
        <ele>1703.2</ele>
        <time>2021-07-23T09:27:05.285Z</time>
      </trkpt>
      <trkpt lat="45.50705" lon="6.92704">
        <ele>1703.2</ele>
        <time>2021-07-23T09:27:06.285Z</time>
      </trkpt>
      <trkpt lat="45.50703" lon="6.92705">
        <ele>1703.2</ele>
        <time>2021-07-23T09:27:07.285Z</time>
      </trkpt>
      <trkpt lat="45.50702" lon="6.92707">
        <ele>1703.2</ele>
        <time>2021-07-23T09:27:08.285Z</time>
      </trkpt>
      <trkpt lat="45.507" lon="6.92708">
        <ele>1703.2</ele>
        <time>2021-07-23T09:27:09.285Z</time>
      </trkpt>
      <trkpt lat="45.50698" lon="6.92709">
        <ele>1703.2</ele>
        <time>2021-07-23T09:27:10.285Z</time>
      </trkpt>
      <trkpt lat="45.50696" lon="6.92711">
        <ele>1703.2</ele>
        <time>2021-07-23T09:27:11.285Z</time>
      </trkpt>
      <trkpt lat="45.50694" lon="6.92712">
        <ele>1703.6</ele>
        <time>2021-07-23T09:27:12.285Z</time>
      </trkpt>
      <trkpt lat="45.50693" lon="6.92714">
        <ele>1704.4</ele>
        <time>2021-07-23T09:27:13.285Z</time>
      </trkpt>
      <trkpt lat="45.50691" lon="6.92715">
        <ele>1704.8</ele>
        <time>2021-07-23T09:27:14.285Z</time>
      </trkpt>
      <trkpt lat="45.50689" lon="6.92716">
        <ele>1705.4</ele>
        <time>2021-07-23T09:27:15.285Z</time>
      </trkpt>
      <trkpt lat="45.50687" lon="6.92718">
        <ele>1705.4</ele>
        <time>2021-07-23T09:27:16.285Z</time>
      </trkpt>
      <trkpt lat="45.50685" lon="6.92719">
        <ele>1705.4</ele>
        <time>2021-07-23T09:27:17.285Z</time>
      </trkpt>
      <trkpt lat="45.50684" lon="6.9272">
        <ele>1705.4</ele>
        <time>2021-07-23T09:27:18.285Z</time>
      </trkpt>
      <trkpt lat="45.50682" lon="6.92722">
        <ele>1705.4</ele>
        <time>2021-07-23T09:27:19.285Z</time>
      </trkpt>
      <trkpt lat="45.5068" lon="6.92723">
        <ele>1705.4</ele>
        <time>2021-07-23T09:27:20.285Z</time>
      </trkpt>
      <trkpt lat="45.50678" lon="6.92724">
        <ele>1705.4</ele>
        <time>2021-07-23T09:27:21.285Z</time>
      </trkpt>
      <trkpt lat="45.50677" lon="6.92726">
        <ele>1705.4</ele>
        <time>2021-07-23T09:27:22.285Z</time>
      </trkpt>
      <trkpt lat="45.50675" lon="6.92727">
        <ele>1705.4</ele>
        <time>2021-07-23T09:27:23.285Z</time>
      </trkpt>
      <trkpt lat="45.50673" lon="6.92729">
        <ele>1705.4</ele>
        <time>2021-07-23T09:27:24.285Z</time>
      </trkpt>
      <trkpt lat="45.50671" lon="6.9273">
        <ele>1705.4</ele>
        <time>2021-07-23T09:27:25.285Z</time>
      </trkpt>
      <trkpt lat="45.50669" lon="6.92731">
        <ele>1705.4</ele>
        <time>2021-07-23T09:27:26.285Z</time>
      </trkpt>
      <trkpt lat="45.50668" lon="6.92733">
        <ele>1705.8</ele>
        <time>2021-07-23T09:27:27.285Z</time>
      </trkpt>
      <trkpt lat="45.50666" lon="6.92734">
        <ele>1706.2</ele>
        <time>2021-07-23T09:27:28.285Z</time>
      </trkpt>
      <trkpt lat="45.50664" lon="6.92735">
        <ele>1706.6</ele>
        <time>2021-07-23T09:27:29.285Z</time>
      </trkpt>
      <trkpt lat="45.50662" lon="6.92737">
        <ele>1707</ele>
        <time>2021-07-23T09:27:30.285Z</time>
      </trkpt>
      <trkpt lat="45.50661" lon="6.92738">
        <ele>1707.4</ele>
        <time>2021-07-23T09:27:31.285Z</time>
      </trkpt>
      <trkpt lat="45.50659" lon="6.92739">
        <ele>1707.4</ele>
        <time>2021-07-23T09:27:32.285Z</time>
      </trkpt>
      <trkpt lat="45.50657" lon="6.92741">
        <ele>1707.4</ele>
        <time>2021-07-23T09:27:33.285Z</time>
      </trkpt>
      <trkpt lat="45.50655" lon="6.92742">
        <ele>1707.4</ele>
        <time>2021-07-23T09:27:34.285Z</time>
      </trkpt>
      <trkpt lat="45.50653" lon="6.92744">
        <ele>1707.4</ele>
        <time>2021-07-23T09:27:35.285Z</time>
      </trkpt>
      <trkpt lat="45.50652" lon="6.92745">
        <ele>1707.4</ele>
        <time>2021-07-23T09:27:36.285Z</time>
      </trkpt>
      <trkpt lat="45.5065" lon="6.92746">
        <ele>1707.4</ele>
        <time>2021-07-23T09:27:37.285Z</time>
      </trkpt>
      <trkpt lat="45.50648" lon="6.92748">
        <ele>1707.4</ele>
        <time>2021-07-23T09:27:38.285Z</time>
      </trkpt>
      <trkpt lat="45.50646" lon="6.92749">
        <ele>1707.4</ele>
        <time>2021-07-23T09:27:39.285Z</time>
      </trkpt>
      <trkpt lat="45.50645" lon="6.9275">
        <ele>1707.8</ele>
        <time>2021-07-23T09:27:40.285Z</time>
      </trkpt>
      <trkpt lat="45.50643" lon="6.92752">
        <ele>1708.2</ele>
        <time>2021-07-23T09:27:41.285Z</time>
      </trkpt>
      <trkpt lat="45.50641" lon="6.92753">
        <ele>1708.6</ele>
        <time>2021-07-23T09:27:42.285Z</time>
      </trkpt>
      <trkpt lat="45.50639" lon="6.92754">
        <ele>1709</ele>
        <time>2021-07-23T09:27:43.285Z</time>
      </trkpt>
      <trkpt lat="45.50637" lon="6.92756">
        <ele>1709.4</ele>
        <time>2021-07-23T09:27:44.285Z</time>
      </trkpt>
      <trkpt lat="45.50636" lon="6.92757">
        <ele>1709.4</ele>
        <time>2021-07-23T09:27:45.285Z</time>
      </trkpt>
      <trkpt lat="45.50634" lon="6.92759">
        <ele>1709.4</ele>
        <time>2021-07-23T09:27:46.285Z</time>
      </trkpt>
      <trkpt lat="45.50632" lon="6.9276">
        <ele>1709.4</ele>
        <time>2021-07-23T09:27:47.285Z</time>
      </trkpt>
      <trkpt lat="45.5063" lon="6.92761">
        <ele>1709.4</ele>
        <time>2021-07-23T09:27:48.285Z</time>
      </trkpt>
      <trkpt lat="45.50628" lon="6.92763">
        <ele>1709.4</ele>
        <time>2021-07-23T09:27:49.285Z</time>
      </trkpt>
      <trkpt lat="45.50627" lon="6.92764">
        <ele>1709.4</ele>
        <time>2021-07-23T09:27:50.285Z</time>
      </trkpt>
      <trkpt lat="45.50625" lon="6.92765">
        <ele>1709.4</ele>
        <time>2021-07-23T09:27:51.285Z</time>
      </trkpt>
      <trkpt lat="45.50623" lon="6.92767">
        <ele>1709.4</ele>
        <time>2021-07-23T09:27:52.285Z</time>
      </trkpt>
      <trkpt lat="45.50621" lon="6.92768">
        <ele>1709.4</ele>
        <time>2021-07-23T09:27:53.285Z</time>
      </trkpt>
      <trkpt lat="45.5062" lon="6.92769">
        <ele>1709.4</ele>
        <time>2021-07-23T09:27:54.285Z</time>
      </trkpt>
      <trkpt lat="45.50618" lon="6.92771">
        <ele>1709.4</ele>
        <time>2021-07-23T09:27:55.285Z</time>
      </trkpt>
      <trkpt lat="45.50616" lon="6.92772">
        <ele>1709.8</ele>
        <time>2021-07-23T09:27:56.285Z</time>
      </trkpt>
      <trkpt lat="45.50614" lon="6.92773">
        <ele>1710.2</ele>
        <time>2021-07-23T09:27:57.285Z</time>
      </trkpt>
      <trkpt lat="45.50609" lon="6.92778">
        <ele>1710.6</ele>
        <time>2021-07-23T09:27:58.285Z</time>
      </trkpt>
      <trkpt lat="45.50504" lon="6.92858">
        <ele>1711</ele>
        <time>2021-07-23T09:27:59.285Z</time>
      </trkpt>
      <trkpt lat="45.505" lon="6.92861">
        <ele>1711.4</ele>
        <time>2021-07-23T09:28:00.285Z</time>
      </trkpt>
      <trkpt lat="45.50498" lon="6.92866">
        <ele>1711.4</ele>
        <time>2021-07-23T09:28:01.285Z</time>
      </trkpt>
      <trkpt lat="45.50496" lon="6.9287">
        <ele>1711.4</ele>
        <time>2021-07-23T09:28:02.285Z</time>
      </trkpt>
      <trkpt lat="45.50494" lon="6.92874">
        <ele>1712</ele>
        <time>2021-07-23T09:28:03.285Z</time>
      </trkpt>
      <trkpt lat="45.50491" lon="6.92878">
        <ele>1712.4</ele>
        <time>2021-07-23T09:28:04.285Z</time>
      </trkpt>
      <trkpt lat="45.50489" lon="6.92881">
        <ele>1712.8</ele>
        <time>2021-07-23T09:28:05.285Z</time>
      </trkpt>
      <trkpt lat="45.50487" lon="6.92885">
        <ele>1713.2</ele>
        <time>2021-07-23T09:28:06.285Z</time>
      </trkpt>
      <trkpt lat="45.50484" lon="6.92888">
        <ele>1713.6</ele>
        <time>2021-07-23T09:28:07.285Z</time>
      </trkpt>
      <trkpt lat="45.50481" lon="6.92891">
        <ele>1713.6</ele>
        <time>2021-07-23T09:28:08.285Z</time>
      </trkpt>
      <trkpt lat="45.50479" lon="6.92893">
        <ele>1713.6</ele>
        <time>2021-07-23T09:28:09.285Z</time>
      </trkpt>
      <trkpt lat="45.50478" lon="6.92896">
        <ele>1713.6</ele>
        <time>2021-07-23T09:28:10.285Z</time>
      </trkpt>
      <trkpt lat="45.50476" lon="6.92899">
        <ele>1713.6</ele>
        <time>2021-07-23T09:28:11.285Z</time>
      </trkpt>
      <trkpt lat="45.50474" lon="6.92903">
        <ele>1713.6</ele>
        <time>2021-07-23T09:28:12.285Z</time>
      </trkpt>
      <trkpt lat="45.50472" lon="6.92905">
        <ele>1714</ele>
        <time>2021-07-23T09:28:13.285Z</time>
      </trkpt>
      <trkpt lat="45.50469" lon="6.92908">
        <ele>1714.4</ele>
        <time>2021-07-23T09:28:14.285Z</time>
      </trkpt>
      <trkpt lat="45.50467" lon="6.92911">
        <ele>1714.8</ele>
        <time>2021-07-23T09:28:15.285Z</time>
      </trkpt>
      <trkpt lat="45.50464" lon="6.92913">
        <ele>1715.2</ele>
        <time>2021-07-23T09:28:16.285Z</time>
      </trkpt>
      <trkpt lat="45.50462" lon="6.92916">
        <ele>1715.6</ele>
        <time>2021-07-23T09:28:17.285Z</time>
      </trkpt>
      <trkpt lat="45.5046" lon="6.92918">
        <ele>1715.6</ele>
        <time>2021-07-23T09:28:18.285Z</time>
      </trkpt>
      <trkpt lat="45.50457" lon="6.9292">
        <ele>1715.6</ele>
        <time>2021-07-23T09:28:19.285Z</time>
      </trkpt>
      <trkpt lat="45.50454" lon="6.92923">
        <ele>1716.2</ele>
        <time>2021-07-23T09:28:20.285Z</time>
      </trkpt>
      <trkpt lat="45.50451" lon="6.92925">
        <ele>1716.6</ele>
        <time>2021-07-23T09:28:21.285Z</time>
      </trkpt>
      <trkpt lat="45.50448" lon="6.92927">
        <ele>1717</ele>
        <time>2021-07-23T09:28:22.285Z</time>
      </trkpt>
      <trkpt lat="45.50445" lon="6.9293">
        <ele>1717.4</ele>
        <time>2021-07-23T09:28:23.285Z</time>
      </trkpt>
      <trkpt lat="45.50442" lon="6.92933">
        <ele>1717.8</ele>
        <time>2021-07-23T09:28:24.285Z</time>
      </trkpt>
      <trkpt lat="45.50439" lon="6.92935">
        <ele>1717.8</ele>
        <time>2021-07-23T09:28:25.285Z</time>
      </trkpt>
      <trkpt lat="45.50437" lon="6.92937">
        <ele>1717.8</ele>
        <time>2021-07-23T09:28:26.285Z</time>
      </trkpt>
      <trkpt lat="45.50434" lon="6.92939">
        <ele>1717.8</ele>
        <time>2021-07-23T09:28:27.285Z</time>
      </trkpt>
      <trkpt lat="45.5043" lon="6.92942">
        <ele>1717.8</ele>
        <time>2021-07-23T09:28:28.285Z</time>
      </trkpt>
      <trkpt lat="45.50428" lon="6.92945">
        <ele>1718.2</ele>
        <time>2021-07-23T09:28:29.285Z</time>
      </trkpt>
      <trkpt lat="45.50425" lon="6.92948">
        <ele>1718.8</ele>
        <time>2021-07-23T09:28:30.285Z</time>
      </trkpt>
      <trkpt lat="45.50423" lon="6.92951">
        <ele>1719.2</ele>
        <time>2021-07-23T09:28:31.285Z</time>
      </trkpt>
      <trkpt lat="45.5042" lon="6.92954">
        <ele>1719.6</ele>
        <time>2021-07-23T09:28:32.285Z</time>
      </trkpt>
      <trkpt lat="45.50417" lon="6.92957">
        <ele>1720</ele>
        <time>2021-07-23T09:28:33.285Z</time>
      </trkpt>
      <trkpt lat="45.50414" lon="6.92958">
        <ele>1720</ele>
        <time>2021-07-23T09:28:34.285Z</time>
      </trkpt>
      <trkpt lat="45.50411" lon="6.92961">
        <ele>1720</ele>
        <time>2021-07-23T09:28:35.285Z</time>
      </trkpt>
      <trkpt lat="45.50408" lon="6.92963">
        <ele>1720</ele>
        <time>2021-07-23T09:28:36.285Z</time>
      </trkpt>
      <trkpt lat="45.50405" lon="6.92966">
        <ele>1720.6</ele>
        <time>2021-07-23T09:28:37.285Z</time>
      </trkpt>
      <trkpt lat="45.50403" lon="6.92969">
        <ele>1721</ele>
        <time>2021-07-23T09:28:38.285Z</time>
      </trkpt>
      <trkpt lat="45.504" lon="6.92972">
        <ele>1721.4</ele>
        <time>2021-07-23T09:28:39.285Z</time>
      </trkpt>
      <trkpt lat="45.50397" lon="6.92975">
        <ele>1721.8</ele>
        <time>2021-07-23T09:28:40.285Z</time>
      </trkpt>
      <trkpt lat="45.50394" lon="6.92977">
        <ele>1722.2</ele>
        <time>2021-07-23T09:28:41.285Z</time>
      </trkpt>
      <trkpt lat="45.50391" lon="6.92979">
        <ele>1722.2</ele>
        <time>2021-07-23T09:28:42.285Z</time>
      </trkpt>
      <trkpt lat="45.50388" lon="6.9298">
        <ele>1722.2</ele>
        <time>2021-07-23T09:28:43.285Z</time>
      </trkpt>
      <trkpt lat="45.50385" lon="6.92981">
        <ele>1722.2</ele>
        <time>2021-07-23T09:28:44.285Z</time>
      </trkpt>
      <trkpt lat="45.50382" lon="6.92982">
        <ele>1722.2</ele>
        <time>2021-07-23T09:28:45.285Z</time>
      </trkpt>
      <trkpt lat="45.50379" lon="6.92984">
        <ele>1722.8</ele>
        <time>2021-07-23T09:28:46.285Z</time>
      </trkpt>
      <trkpt lat="45.50377" lon="6.92986">
        <ele>1723.2</ele>
        <time>2021-07-23T09:28:47.285Z</time>
      </trkpt>
      <trkpt lat="45.50374" lon="6.92988">
        <ele>1723.6</ele>
        <time>2021-07-23T09:28:48.285Z</time>
      </trkpt>
      <trkpt lat="45.50372" lon="6.9299">
        <ele>1724</ele>
        <time>2021-07-23T09:28:49.285Z</time>
      </trkpt>
      <trkpt lat="45.50369" lon="6.92991">
        <ele>1724.4</ele>
        <time>2021-07-23T09:28:50.285Z</time>
      </trkpt>
      <trkpt lat="45.50367" lon="6.92993">
        <ele>1724.4</ele>
        <time>2021-07-23T09:28:51.285Z</time>
      </trkpt>
      <trkpt lat="45.50364" lon="6.92994">
        <ele>1724.4</ele>
        <time>2021-07-23T09:28:52.285Z</time>
      </trkpt>
      <trkpt lat="45.50361" lon="6.92995">
        <ele>1724.8</ele>
        <time>2021-07-23T09:28:53.285Z</time>
      </trkpt>
      <trkpt lat="45.50359" lon="6.92996">
        <ele>1725.2</ele>
        <time>2021-07-23T09:28:54.285Z</time>
      </trkpt>
      <trkpt lat="45.50356" lon="6.92996">
        <ele>1725.6</ele>
        <time>2021-07-23T09:28:55.285Z</time>
      </trkpt>
      <trkpt lat="45.50353" lon="6.92998">
        <ele>1726</ele>
        <time>2021-07-23T09:28:56.285Z</time>
      </trkpt>
      <trkpt lat="45.50351" lon="6.92999">
        <ele>1726.4</ele>
        <time>2021-07-23T09:28:57.285Z</time>
      </trkpt>
      <trkpt lat="45.50348" lon="6.92999">
        <ele>1726.4</ele>
        <time>2021-07-23T09:28:58.285Z</time>
      </trkpt>
      <trkpt lat="45.50345" lon="6.93">
        <ele>1726.4</ele>
        <time>2021-07-23T09:28:59.285Z</time>
      </trkpt>
      <trkpt lat="45.50342" lon="6.93001">
        <ele>1726.4</ele>
        <time>2021-07-23T09:29:00.285Z</time>
      </trkpt>
      <trkpt lat="45.5034" lon="6.93002">
        <ele>1726.4</ele>
        <time>2021-07-23T09:29:01.285Z</time>
      </trkpt>
      <trkpt lat="45.50337" lon="6.93003">
        <ele>1726.8</ele>
        <time>2021-07-23T09:29:02.285Z</time>
      </trkpt>
      <trkpt lat="45.50334" lon="6.93005">
        <ele>1727.2</ele>
        <time>2021-07-23T09:29:03.285Z</time>
      </trkpt>
      <trkpt lat="45.50332" lon="6.93005">
        <ele>1727.6</ele>
        <time>2021-07-23T09:29:04.285Z</time>
      </trkpt>
      <trkpt lat="45.50329" lon="6.93006">
        <ele>1728</ele>
        <time>2021-07-23T09:29:05.285Z</time>
      </trkpt>
      <trkpt lat="45.50327" lon="6.93007">
        <ele>1728.4</ele>
        <time>2021-07-23T09:29:06.285Z</time>
      </trkpt>
      <trkpt lat="45.50324" lon="6.93008">
        <ele>1728.4</ele>
        <time>2021-07-23T09:29:07.285Z</time>
      </trkpt>
      <trkpt lat="45.50322" lon="6.93009">
        <ele>1728.4</ele>
        <time>2021-07-23T09:29:08.285Z</time>
      </trkpt>
      <trkpt lat="45.50319" lon="6.9301">
        <ele>1728.4</ele>
        <time>2021-07-23T09:29:09.285Z</time>
      </trkpt>
      <trkpt lat="45.50317" lon="6.93011">
        <ele>1728.4</ele>
        <time>2021-07-23T09:29:10.285Z</time>
      </trkpt>
      <trkpt lat="45.50314" lon="6.93011">
        <ele>1728.8</ele>
        <time>2021-07-23T09:29:11.285Z</time>
      </trkpt>
      <trkpt lat="45.50311" lon="6.93012">
        <ele>1729.2</ele>
        <time>2021-07-23T09:29:12.285Z</time>
      </trkpt>
      <trkpt lat="45.50309" lon="6.93013">
        <ele>1729.6</ele>
        <time>2021-07-23T09:29:13.285Z</time>
      </trkpt>
      <trkpt lat="45.50307" lon="6.93014">
        <ele>1730</ele>
        <time>2021-07-23T09:29:14.285Z</time>
      </trkpt>
      <trkpt lat="45.50304" lon="6.93015">
        <ele>1730.4</ele>
        <time>2021-07-23T09:29:15.285Z</time>
      </trkpt>
      <trkpt lat="45.50301" lon="6.93016">
        <ele>1730.4</ele>
        <time>2021-07-23T09:29:16.285Z</time>
      </trkpt>
      <trkpt lat="45.50299" lon="6.93016">
        <ele>1730.4</ele>
        <time>2021-07-23T09:29:17.285Z</time>
      </trkpt>
      <trkpt lat="45.50297" lon="6.93018">
        <ele>1730.4</ele>
        <time>2021-07-23T09:29:18.285Z</time>
      </trkpt>
      <trkpt lat="45.50294" lon="6.93018">
        <ele>1731</ele>
        <time>2021-07-23T09:29:19.285Z</time>
      </trkpt>
      <trkpt lat="45.50292" lon="6.93019">
        <ele>1731.4</ele>
        <time>2021-07-23T09:29:20.285Z</time>
      </trkpt>
      <trkpt lat="45.50289" lon="6.9302">
        <ele>1731.8</ele>
        <time>2021-07-23T09:29:21.285Z</time>
      </trkpt>
      <trkpt lat="45.50287" lon="6.93021">
        <ele>1732.2</ele>
        <time>2021-07-23T09:29:22.285Z</time>
      </trkpt>
      <trkpt lat="45.50284" lon="6.93021">
        <ele>1732.8</ele>
        <time>2021-07-23T09:29:23.285Z</time>
      </trkpt>
      <trkpt lat="45.50282" lon="6.93022">
        <ele>1732.8</ele>
        <time>2021-07-23T09:29:24.285Z</time>
      </trkpt>
      <trkpt lat="45.50279" lon="6.93022">
        <ele>1732.8</ele>
        <time>2021-07-23T09:29:25.285Z</time>
      </trkpt>
      <trkpt lat="45.50276" lon="6.93023">
        <ele>1732.8</ele>
        <time>2021-07-23T09:29:26.285Z</time>
      </trkpt>
      <trkpt lat="45.50273" lon="6.93023">
        <ele>1732.8</ele>
        <time>2021-07-23T09:29:27.285Z</time>
      </trkpt>
      <trkpt lat="45.50271" lon="6.93024">
        <ele>1732.8</ele>
        <time>2021-07-23T09:29:28.285Z</time>
      </trkpt>
      <trkpt lat="45.50268" lon="6.93024">
        <ele>1733.2</ele>
        <time>2021-07-23T09:29:29.285Z</time>
      </trkpt>
      <trkpt lat="45.50265" lon="6.93024">
        <ele>1733.6</ele>
        <time>2021-07-23T09:29:30.285Z</time>
      </trkpt>
      <trkpt lat="45.50263" lon="6.93025">
        <ele>1734</ele>
        <time>2021-07-23T09:29:31.285Z</time>
      </trkpt>
      <trkpt lat="45.5026" lon="6.93024">
        <ele>1734.4</ele>
        <time>2021-07-23T09:29:32.285Z</time>
      </trkpt>
      <trkpt lat="45.50258" lon="6.93025">
        <ele>1734.8</ele>
        <time>2021-07-23T09:29:33.285Z</time>
      </trkpt>
      <trkpt lat="45.50255" lon="6.93024">
        <ele>1734.8</ele>
        <time>2021-07-23T09:29:34.285Z</time>
      </trkpt>
      <trkpt lat="45.50252" lon="6.93024">
        <ele>1734.8</ele>
        <time>2021-07-23T09:29:35.285Z</time>
      </trkpt>
      <trkpt lat="45.5025" lon="6.93023">
        <ele>1734.8</ele>
        <time>2021-07-23T09:29:36.285Z</time>
      </trkpt>
      <trkpt lat="45.50247" lon="6.93022">
        <ele>1734.8</ele>
        <time>2021-07-23T09:29:37.285Z</time>
      </trkpt>
      <trkpt lat="45.50245" lon="6.93022">
        <ele>1734.8</ele>
        <time>2021-07-23T09:29:38.285Z</time>
      </trkpt>
      <trkpt lat="45.50242" lon="6.93022">
        <ele>1734.8</ele>
        <time>2021-07-23T09:29:39.285Z</time>
      </trkpt>
      <trkpt lat="45.50239" lon="6.93021">
        <ele>1735.4</ele>
        <time>2021-07-23T09:29:40.285Z</time>
      </trkpt>
      <trkpt lat="45.50236" lon="6.9302">
        <ele>1736.2</ele>
        <time>2021-07-23T09:29:41.285Z</time>
      </trkpt>
      <trkpt lat="45.50233" lon="6.9302">
        <ele>1736.6</ele>
        <time>2021-07-23T09:29:42.285Z</time>
      </trkpt>
      <trkpt lat="45.5023" lon="6.93019">
        <ele>1737</ele>
        <time>2021-07-23T09:29:43.285Z</time>
      </trkpt>
      <trkpt lat="45.50228" lon="6.93019">
        <ele>1737</ele>
        <time>2021-07-23T09:29:44.285Z</time>
      </trkpt>
      <trkpt lat="45.50225" lon="6.93019">
        <ele>1737</ele>
        <time>2021-07-23T09:29:45.285Z</time>
      </trkpt>
      <trkpt lat="45.50222" lon="6.93019">
        <ele>1737</ele>
        <time>2021-07-23T09:29:46.285Z</time>
      </trkpt>
      <trkpt lat="45.5022" lon="6.93019">
        <ele>1737</ele>
        <time>2021-07-23T09:29:47.285Z</time>
      </trkpt>
      <trkpt lat="45.50217" lon="6.93018">
        <ele>1737.6</ele>
        <time>2021-07-23T09:29:48.285Z</time>
      </trkpt>
      <trkpt lat="45.50214" lon="6.93019">
        <ele>1738</ele>
        <time>2021-07-23T09:29:49.285Z</time>
      </trkpt>
      <trkpt lat="45.50212" lon="6.93019">
        <ele>1738.4</ele>
        <time>2021-07-23T09:29:50.285Z</time>
      </trkpt>
      <trkpt lat="45.5021" lon="6.93019">
        <ele>1738.8</ele>
        <time>2021-07-23T09:29:51.285Z</time>
      </trkpt>
      <trkpt lat="45.50208" lon="6.93019">
        <ele>1739.4</ele>
        <time>2021-07-23T09:29:52.285Z</time>
      </trkpt>
      <trkpt lat="45.50205" lon="6.93019">
        <ele>1739.4</ele>
        <time>2021-07-23T09:29:53.285Z</time>
      </trkpt>
      <trkpt lat="45.50203" lon="6.9302">
        <ele>1739.4</ele>
        <time>2021-07-23T09:29:54.285Z</time>
      </trkpt>
      <trkpt lat="45.50201" lon="6.9302">
        <ele>1739.4</ele>
        <time>2021-07-23T09:29:55.285Z</time>
      </trkpt>
      <trkpt lat="45.50198" lon="6.93021">
        <ele>1739.4</ele>
        <time>2021-07-23T09:29:56.285Z</time>
      </trkpt>
      <trkpt lat="45.50196" lon="6.93021">
        <ele>1739.8</ele>
        <time>2021-07-23T09:29:57.285Z</time>
      </trkpt>
      <trkpt lat="45.50194" lon="6.93022">
        <ele>1740.2</ele>
        <time>2021-07-23T09:29:58.285Z</time>
      </trkpt>
      <trkpt lat="45.50192" lon="6.93023">
        <ele>1740.6</ele>
        <time>2021-07-23T09:29:59.285Z</time>
      </trkpt>
      <trkpt lat="45.50189" lon="6.93024">
        <ele>1741</ele>
        <time>2021-07-23T09:30:00.285Z</time>
      </trkpt>
      <trkpt lat="45.50187" lon="6.93025">
        <ele>1741.4</ele>
        <time>2021-07-23T09:30:01.285Z</time>
      </trkpt>
      <trkpt lat="45.50184" lon="6.93026">
        <ele>1741.4</ele>
        <time>2021-07-23T09:30:02.285Z</time>
      </trkpt>
      <trkpt lat="45.50182" lon="6.93027">
        <ele>1741.4</ele>
        <time>2021-07-23T09:30:03.285Z</time>
      </trkpt>
      <trkpt lat="45.5018" lon="6.93028">
        <ele>1741.4</ele>
        <time>2021-07-23T09:30:04.285Z</time>
      </trkpt>
      <trkpt lat="45.50177" lon="6.93029">
        <ele>1741.4</ele>
        <time>2021-07-23T09:30:05.285Z</time>
      </trkpt>
      <trkpt lat="45.50175" lon="6.9303">
        <ele>1741.8</ele>
        <time>2021-07-23T09:30:06.285Z</time>
      </trkpt>
      <trkpt lat="45.50172" lon="6.93032">
        <ele>1742.2</ele>
        <time>2021-07-23T09:30:07.285Z</time>
      </trkpt>
      <trkpt lat="45.5017" lon="6.93033">
        <ele>1742.6</ele>
        <time>2021-07-23T09:30:08.285Z</time>
      </trkpt>
      <trkpt lat="45.50168" lon="6.93035">
        <ele>1743</ele>
        <time>2021-07-23T09:30:09.285Z</time>
      </trkpt>
      <trkpt lat="45.50165" lon="6.93036">
        <ele>1743.4</ele>
        <time>2021-07-23T09:30:10.285Z</time>
      </trkpt>
      <trkpt lat="45.50163" lon="6.93037">
        <ele>1743.4</ele>
        <time>2021-07-23T09:30:11.285Z</time>
      </trkpt>
      <trkpt lat="45.5016" lon="6.93039">
        <ele>1743.4</ele>
        <time>2021-07-23T09:30:12.285Z</time>
      </trkpt>
      <trkpt lat="45.50157" lon="6.9304">
        <ele>1743.4</ele>
        <time>2021-07-23T09:30:13.285Z</time>
      </trkpt>
      <trkpt lat="45.50155" lon="6.93042">
        <ele>1743.4</ele>
        <time>2021-07-23T09:30:14.285Z</time>
      </trkpt>
      <trkpt lat="45.50153" lon="6.93043">
        <ele>1744</ele>
        <time>2021-07-23T09:30:15.285Z</time>
      </trkpt>
      <trkpt lat="45.5015" lon="6.93044">
        <ele>1744.4</ele>
        <time>2021-07-23T09:30:16.285Z</time>
      </trkpt>
      <trkpt lat="45.50148" lon="6.93046">
        <ele>1744.8</ele>
        <time>2021-07-23T09:30:17.285Z</time>
      </trkpt>
      <trkpt lat="45.50146" lon="6.93047">
        <ele>1745.2</ele>
        <time>2021-07-23T09:30:18.285Z</time>
      </trkpt>
      <trkpt lat="45.50143" lon="6.93048">
        <ele>1745.6</ele>
        <time>2021-07-23T09:30:19.285Z</time>
      </trkpt>
      <trkpt lat="45.50141" lon="6.93049">
        <ele>1745.6</ele>
        <time>2021-07-23T09:30:20.285Z</time>
      </trkpt>
      <trkpt lat="45.50138" lon="6.93051">
        <ele>1745.6</ele>
        <time>2021-07-23T09:30:21.285Z</time>
      </trkpt>
      <trkpt lat="45.50136" lon="6.93052">
        <ele>1745.6</ele>
        <time>2021-07-23T09:30:22.285Z</time>
      </trkpt>
      <trkpt lat="45.50133" lon="6.93053">
        <ele>1745.6</ele>
        <time>2021-07-23T09:30:23.285Z</time>
      </trkpt>
      <trkpt lat="45.50131" lon="6.93055">
        <ele>1745.6</ele>
        <time>2021-07-23T09:30:24.285Z</time>
      </trkpt>
      <trkpt lat="45.50129" lon="6.93056">
        <ele>1745.6</ele>
        <time>2021-07-23T09:30:25.285Z</time>
      </trkpt>
      <trkpt lat="45.50126" lon="6.93057">
        <ele>1745.6</ele>
        <time>2021-07-23T09:30:26.285Z</time>
      </trkpt>
      <trkpt lat="45.50124" lon="6.93058">
        <ele>1745.6</ele>
        <time>2021-07-23T09:30:27.285Z</time>
      </trkpt>
      <trkpt lat="45.50122" lon="6.93059">
        <ele>1746.2</ele>
        <time>2021-07-23T09:30:28.285Z</time>
      </trkpt>
      <trkpt lat="45.50119" lon="6.9306">
        <ele>1746.6</ele>
        <time>2021-07-23T09:30:29.285Z</time>
      </trkpt>
      <trkpt lat="45.50117" lon="6.93062">
        <ele>1747</ele>
        <time>2021-07-23T09:30:30.285Z</time>
      </trkpt>
      <trkpt lat="45.50114" lon="6.93062">
        <ele>1747.8</ele>
        <time>2021-07-23T09:30:31.285Z</time>
      </trkpt>
      <trkpt lat="45.50112" lon="6.93063">
        <ele>1747.8</ele>
        <time>2021-07-23T09:30:32.285Z</time>
      </trkpt>
      <trkpt lat="45.50109" lon="6.93064">
        <ele>1747.8</ele>
        <time>2021-07-23T09:30:33.285Z</time>
      </trkpt>
      <trkpt lat="45.50107" lon="6.93066">
        <ele>1747.8</ele>
        <time>2021-07-23T09:30:34.285Z</time>
      </trkpt>
      <trkpt lat="45.50105" lon="6.93067">
        <ele>1747.8</ele>
        <time>2021-07-23T09:30:35.285Z</time>
      </trkpt>
      <trkpt lat="45.50102" lon="6.93068">
        <ele>1747.8</ele>
        <time>2021-07-23T09:30:36.285Z</time>
      </trkpt>
      <trkpt lat="45.501" lon="6.93069">
        <ele>1747.8</ele>
        <time>2021-07-23T09:30:37.285Z</time>
      </trkpt>
      <trkpt lat="45.50098" lon="6.93069">
        <ele>1748.2</ele>
        <time>2021-07-23T09:30:38.285Z</time>
      </trkpt>
      <trkpt lat="45.50095" lon="6.9307">
        <ele>1748.8</ele>
        <time>2021-07-23T09:30:39.285Z</time>
      </trkpt>
      <trkpt lat="45.50093" lon="6.93071">
        <ele>1749.2</ele>
        <time>2021-07-23T09:30:40.285Z</time>
      </trkpt>
      <trkpt lat="45.5009" lon="6.93072">
        <ele>1749.6</ele>
        <time>2021-07-23T09:30:41.285Z</time>
      </trkpt>
      <trkpt lat="45.50087" lon="6.93073">
        <ele>1750</ele>
        <time>2021-07-23T09:30:42.285Z</time>
      </trkpt>
      <trkpt lat="45.50085" lon="6.93074">
        <ele>1750</ele>
        <time>2021-07-23T09:30:43.285Z</time>
      </trkpt>
      <trkpt lat="45.50082" lon="6.93074">
        <ele>1750</ele>
        <time>2021-07-23T09:30:44.285Z</time>
      </trkpt>
      <trkpt lat="45.50079" lon="6.93075">
        <ele>1750</ele>
        <time>2021-07-23T09:30:45.285Z</time>
      </trkpt>
      <trkpt lat="45.50076" lon="6.93075">
        <ele>1750</ele>
        <time>2021-07-23T09:30:46.285Z</time>
      </trkpt>
      <trkpt lat="45.50074" lon="6.93075">
        <ele>1750.4</ele>
        <time>2021-07-23T09:30:47.285Z</time>
      </trkpt>
      <trkpt lat="45.50071" lon="6.93076">
        <ele>1750.8</ele>
        <time>2021-07-23T09:30:48.285Z</time>
      </trkpt>
      <trkpt lat="45.50069" lon="6.93077">
        <ele>1751.2</ele>
        <time>2021-07-23T09:30:49.285Z</time>
      </trkpt>
      <trkpt lat="45.50066" lon="6.93078">
        <ele>1751.8</ele>
        <time>2021-07-23T09:30:50.285Z</time>
      </trkpt>
      <trkpt lat="45.50064" lon="6.93079">
        <ele>1752.2</ele>
        <time>2021-07-23T09:30:51.285Z</time>
      </trkpt>
      <trkpt lat="45.50061" lon="6.9308">
        <ele>1752.2</ele>
        <time>2021-07-23T09:30:52.285Z</time>
      </trkpt>
      <trkpt lat="45.50059" lon="6.93081">
        <ele>1752.2</ele>
        <time>2021-07-23T09:30:53.285Z</time>
      </trkpt>
      <trkpt lat="45.50056" lon="6.93081">
        <ele>1752.2</ele>
        <time>2021-07-23T09:30:54.285Z</time>
      </trkpt>
      <trkpt lat="45.50054" lon="6.93082">
        <ele>1752.6</ele>
        <time>2021-07-23T09:30:55.285Z</time>
      </trkpt>
      <trkpt lat="45.50051" lon="6.93084">
        <ele>1753</ele>
        <time>2021-07-23T09:30:56.285Z</time>
      </trkpt>
      <trkpt lat="45.50048" lon="6.93085">
        <ele>1753.4</ele>
        <time>2021-07-23T09:30:57.285Z</time>
      </trkpt>
      <trkpt lat="45.50046" lon="6.93086">
        <ele>1754</ele>
        <time>2021-07-23T09:30:58.285Z</time>
      </trkpt>
      <trkpt lat="45.50044" lon="6.93087">
        <ele>1754.4</ele>
        <time>2021-07-23T09:30:59.285Z</time>
      </trkpt>
      <trkpt lat="45.50041" lon="6.93089">
        <ele>1754.4</ele>
        <time>2021-07-23T09:31:00.285Z</time>
      </trkpt>
      <trkpt lat="45.50039" lon="6.9309">
        <ele>1754.4</ele>
        <time>2021-07-23T09:31:01.285Z</time>
      </trkpt>
      <trkpt lat="45.50037" lon="6.93091">
        <ele>1754.4</ele>
        <time>2021-07-23T09:31:02.285Z</time>
      </trkpt>
      <trkpt lat="45.50034" lon="6.93093">
        <ele>1754.4</ele>
        <time>2021-07-23T09:31:03.285Z</time>
      </trkpt>
      <trkpt lat="45.50032" lon="6.93094">
        <ele>1754.8</ele>
        <time>2021-07-23T09:31:04.285Z</time>
      </trkpt>
      <trkpt lat="45.50029" lon="6.93095">
        <ele>1755.2</ele>
        <time>2021-07-23T09:31:05.285Z</time>
      </trkpt>
      <trkpt lat="45.50027" lon="6.93096">
        <ele>1755.8</ele>
        <time>2021-07-23T09:31:06.285Z</time>
      </trkpt>
      <trkpt lat="45.50025" lon="6.93098">
        <ele>1756.2</ele>
        <time>2021-07-23T09:31:07.285Z</time>
      </trkpt>
      <trkpt lat="45.50022" lon="6.93099">
        <ele>1756.6</ele>
        <time>2021-07-23T09:31:08.285Z</time>
      </trkpt>
      <trkpt lat="45.5002" lon="6.93101">
        <ele>1756.6</ele>
        <time>2021-07-23T09:31:09.285Z</time>
      </trkpt>
      <trkpt lat="45.50018" lon="6.93102">
        <ele>1756.6</ele>
        <time>2021-07-23T09:31:10.285Z</time>
      </trkpt>
      <trkpt lat="45.50016" lon="6.93104">
        <ele>1756.6</ele>
        <time>2021-07-23T09:31:11.285Z</time>
      </trkpt>
      <trkpt lat="45.50013" lon="6.93106">
        <ele>1756.6</ele>
        <time>2021-07-23T09:31:12.285Z</time>
      </trkpt>
      <trkpt lat="45.50011" lon="6.93108">
        <ele>1757</ele>
        <time>2021-07-23T09:31:13.285Z</time>
      </trkpt>
      <trkpt lat="45.50009" lon="6.93109">
        <ele>1757.6</ele>
        <time>2021-07-23T09:31:14.285Z</time>
      </trkpt>
      <trkpt lat="45.50007" lon="6.93111">
        <ele>1758</ele>
        <time>2021-07-23T09:31:15.285Z</time>
      </trkpt>
      <trkpt lat="45.50004" lon="6.93114">
        <ele>1758.4</ele>
        <time>2021-07-23T09:31:16.285Z</time>
      </trkpt>
      <trkpt lat="45.50002" lon="6.93116">
        <ele>1758.8</ele>
        <time>2021-07-23T09:31:17.285Z</time>
      </trkpt>
      <trkpt lat="45.49999" lon="6.93117">
        <ele>1758.8</ele>
        <time>2021-07-23T09:31:18.285Z</time>
      </trkpt>
      <trkpt lat="45.49996" lon="6.93119">
        <ele>1758.8</ele>
        <time>2021-07-23T09:31:19.285Z</time>
      </trkpt>
      <trkpt lat="45.49994" lon="6.93121">
        <ele>1758.8</ele>
        <time>2021-07-23T09:31:20.285Z</time>
      </trkpt>
      <trkpt lat="45.49992" lon="6.93122">
        <ele>1758.8</ele>
        <time>2021-07-23T09:31:21.285Z</time>
      </trkpt>
      <trkpt lat="45.49989" lon="6.93124">
        <ele>1758.8</ele>
        <time>2021-07-23T09:31:22.285Z</time>
      </trkpt>
      <trkpt lat="45.49987" lon="6.93126">
        <ele>1758.8</ele>
        <time>2021-07-23T09:31:23.285Z</time>
      </trkpt>
      <trkpt lat="45.49984" lon="6.93127">
        <ele>1759.2</ele>
        <time>2021-07-23T09:31:24.285Z</time>
      </trkpt>
      <trkpt lat="45.49981" lon="6.93129">
        <ele>1759.6</ele>
        <time>2021-07-23T09:31:25.285Z</time>
      </trkpt>
      <trkpt lat="45.49978" lon="6.9313">
        <ele>1760</ele>
        <time>2021-07-23T09:31:26.285Z</time>
      </trkpt>
      <trkpt lat="45.49975" lon="6.93131">
        <ele>1760.4</ele>
        <time>2021-07-23T09:31:27.285Z</time>
      </trkpt>
      <trkpt lat="45.49972" lon="6.93132">
        <ele>1760.8</ele>
        <time>2021-07-23T09:31:28.285Z</time>
      </trkpt>
      <trkpt lat="45.4997" lon="6.93133">
        <ele>1760.8</ele>
        <time>2021-07-23T09:31:29.285Z</time>
      </trkpt>
      <trkpt lat="45.49967" lon="6.93135">
        <ele>1760.8</ele>
        <time>2021-07-23T09:31:30.285Z</time>
      </trkpt>
      <trkpt lat="45.49964" lon="6.93136">
        <ele>1760.8</ele>
        <time>2021-07-23T09:31:31.285Z</time>
      </trkpt>
      <trkpt lat="45.49962" lon="6.93138">
        <ele>1760.8</ele>
        <time>2021-07-23T09:31:32.285Z</time>
      </trkpt>
      <trkpt lat="45.4996" lon="6.9314">
        <ele>1761.4</ele>
        <time>2021-07-23T09:31:33.285Z</time>
      </trkpt>
      <trkpt lat="45.49957" lon="6.93141">
        <ele>1761.8</ele>
        <time>2021-07-23T09:31:34.285Z</time>
      </trkpt>
      <trkpt lat="45.49955" lon="6.93143">
        <ele>1762.2</ele>
        <time>2021-07-23T09:31:35.285Z</time>
      </trkpt>
      <trkpt lat="45.49952" lon="6.93144">
        <ele>1762.6</ele>
        <time>2021-07-23T09:31:36.285Z</time>
      </trkpt>
      <trkpt lat="45.49949" lon="6.93145">
        <ele>1763</ele>
        <time>2021-07-23T09:31:37.285Z</time>
      </trkpt>
      <trkpt lat="45.49947" lon="6.93146">
        <ele>1763</ele>
        <time>2021-07-23T09:31:38.285Z</time>
      </trkpt>
      <trkpt lat="45.49944" lon="6.93148">
        <ele>1763</ele>
        <time>2021-07-23T09:31:39.285Z</time>
      </trkpt>
      <trkpt lat="45.49941" lon="6.93148">
        <ele>1763</ele>
        <time>2021-07-23T09:31:40.285Z</time>
      </trkpt>
      <trkpt lat="45.49939" lon="6.93149">
        <ele>1763</ele>
        <time>2021-07-23T09:31:41.285Z</time>
      </trkpt>
      <trkpt lat="45.49936" lon="6.93151">
        <ele>1763.4</ele>
        <time>2021-07-23T09:31:42.285Z</time>
      </trkpt>
      <trkpt lat="45.49934" lon="6.93152">
        <ele>1763.8</ele>
        <time>2021-07-23T09:31:43.285Z</time>
      </trkpt>
      <trkpt lat="45.49931" lon="6.93154">
        <ele>1764.2</ele>
        <time>2021-07-23T09:31:44.285Z</time>
      </trkpt>
      <trkpt lat="45.49929" lon="6.93155">
        <ele>1764.6</ele>
        <time>2021-07-23T09:31:45.285Z</time>
      </trkpt>
      <trkpt lat="45.49927" lon="6.93156">
        <ele>1765</ele>
        <time>2021-07-23T09:31:46.285Z</time>
      </trkpt>
      <trkpt lat="45.49925" lon="6.93157">
        <ele>1765</ele>
        <time>2021-07-23T09:31:47.285Z</time>
      </trkpt>
      <trkpt lat="45.49923" lon="6.93158">
        <ele>1765</ele>
        <time>2021-07-23T09:31:48.285Z</time>
      </trkpt>
      <trkpt lat="45.4992" lon="6.93159">
        <ele>1765.4</ele>
        <time>2021-07-23T09:31:49.285Z</time>
      </trkpt>
      <trkpt lat="45.49918" lon="6.93159">
        <ele>1765.8</ele>
        <time>2021-07-23T09:31:50.285Z</time>
      </trkpt>
      <trkpt lat="45.49915" lon="6.9316">
        <ele>1766.2</ele>
        <time>2021-07-23T09:31:51.285Z</time>
      </trkpt>
      <trkpt lat="45.49913" lon="6.93161">
        <ele>1766.6</ele>
        <time>2021-07-23T09:31:52.285Z</time>
      </trkpt>
      <trkpt lat="45.4991" lon="6.93162">
        <ele>1767.2</ele>
        <time>2021-07-23T09:31:53.285Z</time>
      </trkpt>
      <trkpt lat="45.49908" lon="6.93163">
        <ele>1767.2</ele>
        <time>2021-07-23T09:31:54.285Z</time>
      </trkpt>
      <trkpt lat="45.49905" lon="6.93164">
        <ele>1767.2</ele>
        <time>2021-07-23T09:31:55.285Z</time>
      </trkpt>
      <trkpt lat="45.49903" lon="6.93166">
        <ele>1767.2</ele>
        <time>2021-07-23T09:31:56.285Z</time>
      </trkpt>
      <trkpt lat="45.499" lon="6.93166">
        <ele>1767.2</ele>
        <time>2021-07-23T09:31:57.285Z</time>
      </trkpt>
      <trkpt lat="45.49898" lon="6.93167">
        <ele>1767.6</ele>
        <time>2021-07-23T09:31:58.285Z</time>
      </trkpt>
      <trkpt lat="45.49895" lon="6.93168">
        <ele>1768</ele>
        <time>2021-07-23T09:31:59.285Z</time>
      </trkpt>
      <trkpt lat="45.49893" lon="6.93169">
        <ele>1768.4</ele>
        <time>2021-07-23T09:32:00.285Z</time>
      </trkpt>
      <trkpt lat="45.4989" lon="6.9317">
        <ele>1768.8</ele>
        <time>2021-07-23T09:32:01.285Z</time>
      </trkpt>
      <trkpt lat="45.49888" lon="6.93171">
        <ele>1769.2</ele>
        <time>2021-07-23T09:32:02.285Z</time>
      </trkpt>
      <trkpt lat="45.49886" lon="6.93172">
        <ele>1769.2</ele>
        <time>2021-07-23T09:32:03.285Z</time>
      </trkpt>
      <trkpt lat="45.49883" lon="6.93173">
        <ele>1769.2</ele>
        <time>2021-07-23T09:32:04.285Z</time>
      </trkpt>
      <trkpt lat="45.4988" lon="6.93173">
        <ele>1769.2</ele>
        <time>2021-07-23T09:32:05.285Z</time>
      </trkpt>
      <trkpt lat="45.49878" lon="6.93174">
        <ele>1769.6</ele>
        <time>2021-07-23T09:32:06.285Z</time>
      </trkpt>
      <trkpt lat="45.49875" lon="6.93175">
        <ele>1770</ele>
        <time>2021-07-23T09:32:07.285Z</time>
      </trkpt>
      <trkpt lat="45.49873" lon="6.93176">
        <ele>1770.4</ele>
        <time>2021-07-23T09:32:08.285Z</time>
      </trkpt>
      <trkpt lat="45.49871" lon="6.93177">
        <ele>1770.8</ele>
        <time>2021-07-23T09:32:09.285Z</time>
      </trkpt>
      <trkpt lat="45.49868" lon="6.93177">
        <ele>1771.2</ele>
        <time>2021-07-23T09:32:10.285Z</time>
      </trkpt>
      <trkpt lat="45.49866" lon="6.93178">
        <ele>1771.2</ele>
        <time>2021-07-23T09:32:11.285Z</time>
      </trkpt>
      <trkpt lat="45.49863" lon="6.93179">
        <ele>1771.2</ele>
        <time>2021-07-23T09:32:12.285Z</time>
      </trkpt>
      <trkpt lat="45.49861" lon="6.93179">
        <ele>1771.6</ele>
        <time>2021-07-23T09:32:13.285Z</time>
      </trkpt>
      <trkpt lat="45.49858" lon="6.9318">
        <ele>1772</ele>
        <time>2021-07-23T09:32:14.285Z</time>
      </trkpt>
      <trkpt lat="45.49856" lon="6.93181">
        <ele>1772.4</ele>
        <time>2021-07-23T09:32:15.285Z</time>
      </trkpt>
      <trkpt lat="45.49853" lon="6.93181">
        <ele>1773</ele>
        <time>2021-07-23T09:32:16.285Z</time>
      </trkpt>
      <trkpt lat="45.49851" lon="6.93182">
        <ele>1773.4</ele>
        <time>2021-07-23T09:32:17.285Z</time>
      </trkpt>
      <trkpt lat="45.49848" lon="6.93184">
        <ele>1774</ele>
        <time>2021-07-23T09:32:18.285Z</time>
      </trkpt>
      <trkpt lat="45.49846" lon="6.93185">
        <ele>1774.4</ele>
        <time>2021-07-23T09:32:19.285Z</time>
      </trkpt>
      <trkpt lat="45.49844" lon="6.93186">
        <ele>1775</ele>
        <time>2021-07-23T09:32:20.285Z</time>
      </trkpt>
      <trkpt lat="45.49842" lon="6.93188">
        <ele>1775.6</ele>
        <time>2021-07-23T09:32:21.285Z</time>
      </trkpt>
      <trkpt lat="45.49839" lon="6.93189">
        <ele>1775.6</ele>
        <time>2021-07-23T09:32:22.285Z</time>
      </trkpt>
      <trkpt lat="45.49837" lon="6.9319">
        <ele>1775.6</ele>
        <time>2021-07-23T09:32:23.285Z</time>
      </trkpt>
      <trkpt lat="45.49835" lon="6.93192">
        <ele>1775.6</ele>
        <time>2021-07-23T09:32:24.285Z</time>
      </trkpt>
      <trkpt lat="45.49833" lon="6.93193">
        <ele>1775.6</ele>
        <time>2021-07-23T09:32:25.285Z</time>
      </trkpt>
      <trkpt lat="45.49831" lon="6.93195">
        <ele>1775.6</ele>
        <time>2021-07-23T09:32:26.285Z</time>
      </trkpt>
      <trkpt lat="45.49828" lon="6.93196">
        <ele>1775.6</ele>
        <time>2021-07-23T09:32:27.285Z</time>
      </trkpt>
      <trkpt lat="45.49826" lon="6.93198">
        <ele>1775.6</ele>
        <time>2021-07-23T09:32:28.285Z</time>
      </trkpt>
      <trkpt lat="45.49824" lon="6.932">
        <ele>1776</ele>
        <time>2021-07-23T09:32:29.285Z</time>
      </trkpt>
      <trkpt lat="45.49822" lon="6.93202">
        <ele>1776.4</ele>
        <time>2021-07-23T09:32:30.285Z</time>
      </trkpt>
      <trkpt lat="45.49821" lon="6.93204">
        <ele>1776.8</ele>
        <time>2021-07-23T09:32:31.285Z</time>
      </trkpt>
      <trkpt lat="45.49819" lon="6.93206">
        <ele>1777.4</ele>
        <time>2021-07-23T09:32:32.285Z</time>
      </trkpt>
      <trkpt lat="45.49817" lon="6.93208">
        <ele>1777.8</ele>
        <time>2021-07-23T09:32:33.285Z</time>
      </trkpt>
      <trkpt lat="45.49815" lon="6.93211">
        <ele>1777.8</ele>
        <time>2021-07-23T09:32:34.285Z</time>
      </trkpt>
      <trkpt lat="45.49814" lon="6.93213">
        <ele>1778.2</ele>
        <time>2021-07-23T09:32:35.285Z</time>
      </trkpt>
      <trkpt lat="45.49812" lon="6.93216">
        <ele>1778.8</ele>
        <time>2021-07-23T09:32:36.285Z</time>
      </trkpt>
      <trkpt lat="45.4981" lon="6.93219">
        <ele>1779.2</ele>
        <time>2021-07-23T09:32:37.285Z</time>
      </trkpt>
      <trkpt lat="45.49808" lon="6.93221">
        <ele>1779.6</ele>
        <time>2021-07-23T09:32:38.285Z</time>
      </trkpt>
      <trkpt lat="45.49806" lon="6.93223">
        <ele>1780.2</ele>
        <time>2021-07-23T09:32:39.285Z</time>
      </trkpt>
      <trkpt lat="45.49803" lon="6.93225">
        <ele>1780.2</ele>
        <time>2021-07-23T09:32:40.285Z</time>
      </trkpt>
      <trkpt lat="45.49801" lon="6.93228">
        <ele>1780.2</ele>
        <time>2021-07-23T09:32:41.285Z</time>
      </trkpt>
      <trkpt lat="45.49799" lon="6.9323">
        <ele>1780.2</ele>
        <time>2021-07-23T09:32:42.285Z</time>
      </trkpt>
      <trkpt lat="45.49797" lon="6.93233">
        <ele>1780.2</ele>
        <time>2021-07-23T09:32:43.285Z</time>
      </trkpt>
      <trkpt lat="45.49795" lon="6.93235">
        <ele>1780.2</ele>
        <time>2021-07-23T09:32:44.285Z</time>
      </trkpt>
      <trkpt lat="45.49793" lon="6.93238">
        <ele>1780.2</ele>
        <time>2021-07-23T09:32:45.285Z</time>
      </trkpt>
      <trkpt lat="45.4979" lon="6.9324">
        <ele>1780.2</ele>
        <time>2021-07-23T09:32:46.285Z</time>
      </trkpt>
      <trkpt lat="45.49787" lon="6.93243">
        <ele>1780.2</ele>
        <time>2021-07-23T09:32:47.285Z</time>
      </trkpt>
      <trkpt lat="45.49785" lon="6.93247">
        <ele>1780.2</ele>
        <time>2021-07-23T09:32:48.285Z</time>
      </trkpt>
      <trkpt lat="45.49782" lon="6.93251">
        <ele>1780.2</ele>
        <time>2021-07-23T09:32:49.285Z</time>
      </trkpt>
      <trkpt lat="45.49779" lon="6.93254">
        <ele>1780.2</ele>
        <time>2021-07-23T09:32:50.285Z</time>
      </trkpt>
      <trkpt lat="45.49776" lon="6.93256">
        <ele>1780.2</ele>
        <time>2021-07-23T09:32:51.285Z</time>
      </trkpt>
      <trkpt lat="45.49772" lon="6.93259">
        <ele>1780.6</ele>
        <time>2021-07-23T09:32:52.285Z</time>
      </trkpt>
      <trkpt lat="45.49769" lon="6.93263">
        <ele>1781</ele>
        <time>2021-07-23T09:32:53.285Z</time>
      </trkpt>
      <trkpt lat="45.49767" lon="6.93266">
        <ele>1781.4</ele>
        <time>2021-07-23T09:32:54.285Z</time>
      </trkpt>
      <trkpt lat="45.49764" lon="6.9327">
        <ele>1781.8</ele>
        <time>2021-07-23T09:32:55.285Z</time>
      </trkpt>
      <trkpt lat="45.49761" lon="6.93273">
        <ele>1782.2</ele>
        <time>2021-07-23T09:32:56.285Z</time>
      </trkpt>
      <trkpt lat="45.49757" lon="6.93276">
        <ele>1782.2</ele>
        <time>2021-07-23T09:32:57.285Z</time>
      </trkpt>
      <trkpt lat="45.49754" lon="6.93279">
        <ele>1782.2</ele>
        <time>2021-07-23T09:32:58.285Z</time>
      </trkpt>
      <trkpt lat="45.49751" lon="6.93283">
        <ele>1782.2</ele>
        <time>2021-07-23T09:32:59.285Z</time>
      </trkpt>
      <trkpt lat="45.49749" lon="6.93286">
        <ele>1782.2</ele>
        <time>2021-07-23T09:33:00.285Z</time>
      </trkpt>
      <trkpt lat="45.49746" lon="6.93288">
        <ele>1782.2</ele>
        <time>2021-07-23T09:33:01.285Z</time>
      </trkpt>
      <trkpt lat="45.49743" lon="6.9329">
        <ele>1782.6</ele>
        <time>2021-07-23T09:33:02.285Z</time>
      </trkpt>
      <trkpt lat="45.49741" lon="6.93293">
        <ele>1783</ele>
        <time>2021-07-23T09:33:03.285Z</time>
      </trkpt>
      <trkpt lat="45.49738" lon="6.93295">
        <ele>1783.4</ele>
        <time>2021-07-23T09:33:04.285Z</time>
      </trkpt>
      <trkpt lat="45.49736" lon="6.93298">
        <ele>1783.8</ele>
        <time>2021-07-23T09:33:05.285Z</time>
      </trkpt>
      <trkpt lat="45.49733" lon="6.933">
        <ele>1784.2</ele>
        <time>2021-07-23T09:33:06.285Z</time>
      </trkpt>
      <trkpt lat="45.49731" lon="6.93303">
        <ele>1784.2</ele>
        <time>2021-07-23T09:33:07.285Z</time>
      </trkpt>
      <trkpt lat="45.49729" lon="6.93305">
        <ele>1784.2</ele>
        <time>2021-07-23T09:33:08.285Z</time>
      </trkpt>
      <trkpt lat="45.49726" lon="6.93308">
        <ele>1784.2</ele>
        <time>2021-07-23T09:33:09.285Z</time>
      </trkpt>
      <trkpt lat="45.49723" lon="6.9331">
        <ele>1784.2</ele>
        <time>2021-07-23T09:33:10.285Z</time>
      </trkpt>
      <trkpt lat="45.49721" lon="6.93312">
        <ele>1784.2</ele>
        <time>2021-07-23T09:33:11.285Z</time>
      </trkpt>
      <trkpt lat="45.49718" lon="6.93314">
        <ele>1784.2</ele>
        <time>2021-07-23T09:33:12.285Z</time>
      </trkpt>
      <trkpt lat="45.49715" lon="6.93316">
        <ele>1784.6</ele>
        <time>2021-07-23T09:33:13.285Z</time>
      </trkpt>
      <trkpt lat="45.49713" lon="6.93319">
        <ele>1785</ele>
        <time>2021-07-23T09:33:14.285Z</time>
      </trkpt>
      <trkpt lat="45.4971" lon="6.93321">
        <ele>1785.4</ele>
        <time>2021-07-23T09:33:15.285Z</time>
      </trkpt>
      <trkpt lat="45.49708" lon="6.93323">
        <ele>1785.8</ele>
        <time>2021-07-23T09:33:16.285Z</time>
      </trkpt>
      <trkpt lat="45.49705" lon="6.93325">
        <ele>1786.2</ele>
        <time>2021-07-23T09:33:17.285Z</time>
      </trkpt>
      <trkpt lat="45.49703" lon="6.93327">
        <ele>1786.2</ele>
        <time>2021-07-23T09:33:18.285Z</time>
      </trkpt>
      <trkpt lat="45.497" lon="6.93329">
        <ele>1786.2</ele>
        <time>2021-07-23T09:33:19.285Z</time>
      </trkpt>
      <trkpt lat="45.49698" lon="6.93331">
        <ele>1786.2</ele>
        <time>2021-07-23T09:33:20.285Z</time>
      </trkpt>
      <trkpt lat="45.49695" lon="6.93333">
        <ele>1786.2</ele>
        <time>2021-07-23T09:33:21.285Z</time>
      </trkpt>
      <trkpt lat="45.49693" lon="6.93335">
        <ele>1786.8</ele>
        <time>2021-07-23T09:33:22.285Z</time>
      </trkpt>
      <trkpt lat="45.4969" lon="6.93337">
        <ele>1787.2</ele>
        <time>2021-07-23T09:33:23.285Z</time>
      </trkpt>
      <trkpt lat="45.49687" lon="6.93339">
        <ele>1788</ele>
        <time>2021-07-23T09:33:24.285Z</time>
      </trkpt>
      <trkpt lat="45.49684" lon="6.93341">
        <ele>1788.4</ele>
        <time>2021-07-23T09:33:25.285Z</time>
      </trkpt>
      <trkpt lat="45.49681" lon="6.93343">
        <ele>1788.4</ele>
        <time>2021-07-23T09:33:26.285Z</time>
      </trkpt>
      <trkpt lat="45.49678" lon="6.93345">
        <ele>1788.4</ele>
        <time>2021-07-23T09:33:27.285Z</time>
      </trkpt>
      <trkpt lat="45.49675" lon="6.93347">
        <ele>1788.4</ele>
        <time>2021-07-23T09:33:28.285Z</time>
      </trkpt>
      <trkpt lat="45.49672" lon="6.93349">
        <ele>1788.4</ele>
        <time>2021-07-23T09:33:29.285Z</time>
      </trkpt>
      <trkpt lat="45.49669" lon="6.93351">
        <ele>1788.4</ele>
        <time>2021-07-23T09:33:30.285Z</time>
      </trkpt>
      <trkpt lat="45.49666" lon="6.93353">
        <ele>1788.4</ele>
        <time>2021-07-23T09:33:31.285Z</time>
      </trkpt>
      <trkpt lat="45.49663" lon="6.93355">
        <ele>1788.4</ele>
        <time>2021-07-23T09:33:32.285Z</time>
      </trkpt>
      <trkpt lat="45.4966" lon="6.93357">
        <ele>1788.8</ele>
        <time>2021-07-23T09:33:33.285Z</time>
      </trkpt>
      <trkpt lat="45.49657" lon="6.93359">
        <ele>1789.4</ele>
        <time>2021-07-23T09:33:34.285Z</time>
      </trkpt>
      <trkpt lat="45.49654" lon="6.93361">
        <ele>1789.8</ele>
        <time>2021-07-23T09:33:35.285Z</time>
      </trkpt>
      <trkpt lat="45.49651" lon="6.93363">
        <ele>1790.2</ele>
        <time>2021-07-23T09:33:36.285Z</time>
      </trkpt>
      <trkpt lat="45.49648" lon="6.93364">
        <ele>1790.6</ele>
        <time>2021-07-23T09:33:37.285Z</time>
      </trkpt>
      <trkpt lat="45.49645" lon="6.93365">
        <ele>1790.6</ele>
        <time>2021-07-23T09:33:38.285Z</time>
      </trkpt>
      <trkpt lat="45.49643" lon="6.93367">
        <ele>1790.6</ele>
        <time>2021-07-23T09:33:39.285Z</time>
      </trkpt>
      <trkpt lat="45.49639" lon="6.93369">
        <ele>1790.6</ele>
        <time>2021-07-23T09:33:40.285Z</time>
      </trkpt>
      <trkpt lat="45.49636" lon="6.93371">
        <ele>1790.6</ele>
        <time>2021-07-23T09:33:41.285Z</time>
      </trkpt>
      <trkpt lat="45.49633" lon="6.93372">
        <ele>1790.6</ele>
        <time>2021-07-23T09:33:42.285Z</time>
      </trkpt>
      <trkpt lat="45.4963" lon="6.93374">
        <ele>1790.6</ele>
        <time>2021-07-23T09:33:43.285Z</time>
      </trkpt>
      <trkpt lat="45.49627" lon="6.93377">
        <ele>1790.6</ele>
        <time>2021-07-23T09:33:44.285Z</time>
      </trkpt>
      <trkpt lat="45.49623" lon="6.93379">
        <ele>1790.6</ele>
        <time>2021-07-23T09:33:45.285Z</time>
      </trkpt>
      <trkpt lat="45.4962" lon="6.93381">
        <ele>1790.6</ele>
        <time>2021-07-23T09:33:46.285Z</time>
      </trkpt>
      <trkpt lat="45.49617" lon="6.93383">
        <ele>1790.6</ele>
        <time>2021-07-23T09:33:47.285Z</time>
      </trkpt>
      <trkpt lat="45.49614" lon="6.93384">
        <ele>1791</ele>
        <time>2021-07-23T09:33:48.285Z</time>
      </trkpt>
      <trkpt lat="45.49611" lon="6.93386">
        <ele>1791.8</ele>
        <time>2021-07-23T09:33:49.285Z</time>
      </trkpt>
      <trkpt lat="45.49607" lon="6.93387">
        <ele>1792.2</ele>
        <time>2021-07-23T09:33:50.285Z</time>
      </trkpt>
      <trkpt lat="45.49604" lon="6.93389">
        <ele>1792.6</ele>
        <time>2021-07-23T09:33:51.285Z</time>
      </trkpt>
      <trkpt lat="45.49601" lon="6.9339">
        <ele>1792.6</ele>
        <time>2021-07-23T09:33:52.285Z</time>
      </trkpt>
      <trkpt lat="45.49598" lon="6.93392">
        <ele>1792.6</ele>
        <time>2021-07-23T09:33:53.285Z</time>
      </trkpt>
      <trkpt lat="45.49595" lon="6.93393">
        <ele>1792.6</ele>
        <time>2021-07-23T09:33:54.285Z</time>
      </trkpt>
      <trkpt lat="45.49593" lon="6.93395">
        <ele>1792.6</ele>
        <time>2021-07-23T09:33:55.285Z</time>
      </trkpt>
      <trkpt lat="45.49589" lon="6.93397">
        <ele>1792.6</ele>
        <time>2021-07-23T09:33:56.285Z</time>
      </trkpt>
      <trkpt lat="45.49587" lon="6.934">
        <ele>1793</ele>
        <time>2021-07-23T09:33:57.285Z</time>
      </trkpt>
      <trkpt lat="45.49584" lon="6.93402">
        <ele>1793.4</ele>
        <time>2021-07-23T09:33:58.285Z</time>
      </trkpt>
      <trkpt lat="45.49581" lon="6.93404">
        <ele>1793.8</ele>
        <time>2021-07-23T09:33:59.285Z</time>
      </trkpt>
      <trkpt lat="45.49578" lon="6.93406">
        <ele>1794.2</ele>
        <time>2021-07-23T09:34:00.285Z</time>
      </trkpt>
      <trkpt lat="45.49575" lon="6.93408">
        <ele>1794.6</ele>
        <time>2021-07-23T09:34:01.285Z</time>
      </trkpt>
      <trkpt lat="45.49572" lon="6.9341">
        <ele>1794.6</ele>
        <time>2021-07-23T09:34:02.285Z</time>
      </trkpt>
      <trkpt lat="45.49569" lon="6.93412">
        <ele>1794.6</ele>
        <time>2021-07-23T09:34:03.285Z</time>
      </trkpt>
      <trkpt lat="45.49566" lon="6.93414">
        <ele>1794.6</ele>
        <time>2021-07-23T09:34:04.285Z</time>
      </trkpt>
      <trkpt lat="45.49564" lon="6.93417">
        <ele>1794.6</ele>
        <time>2021-07-23T09:34:05.285Z</time>
      </trkpt>
      <trkpt lat="45.49561" lon="6.9342">
        <ele>1794.6</ele>
        <time>2021-07-23T09:34:06.285Z</time>
      </trkpt>
      <trkpt lat="45.49558" lon="6.93423">
        <ele>1794.6</ele>
        <time>2021-07-23T09:34:07.285Z</time>
      </trkpt>
      <trkpt lat="45.49556" lon="6.93426">
        <ele>1795</ele>
        <time>2021-07-23T09:34:08.285Z</time>
      </trkpt>
      <trkpt lat="45.49553" lon="6.93429">
        <ele>1795.4</ele>
        <time>2021-07-23T09:34:09.285Z</time>
      </trkpt>
      <trkpt lat="45.49551" lon="6.93433">
        <ele>1795.8</ele>
        <time>2021-07-23T09:34:10.285Z</time>
      </trkpt>
      <trkpt lat="45.49549" lon="6.93436">
        <ele>1796.2</ele>
        <time>2021-07-23T09:34:11.285Z</time>
      </trkpt>
      <trkpt lat="45.49546" lon="6.9344">
        <ele>1796.6</ele>
        <time>2021-07-23T09:34:12.285Z</time>
      </trkpt>
      <trkpt lat="45.49544" lon="6.93443">
        <ele>1796.6</ele>
        <time>2021-07-23T09:34:13.285Z</time>
      </trkpt>
      <trkpt lat="45.49542" lon="6.93448">
        <ele>1796.6</ele>
        <time>2021-07-23T09:34:14.285Z</time>
      </trkpt>
      <trkpt lat="45.4954" lon="6.93452">
        <ele>1796.6</ele>
        <time>2021-07-23T09:34:15.285Z</time>
      </trkpt>
      <trkpt lat="45.49539" lon="6.93456">
        <ele>1796.6</ele>
        <time>2021-07-23T09:34:16.285Z</time>
      </trkpt>
      <trkpt lat="45.49537" lon="6.9346">
        <ele>1796.6</ele>
        <time>2021-07-23T09:34:17.285Z</time>
      </trkpt>
      <trkpt lat="45.49535" lon="6.93465">
        <ele>1796.6</ele>
        <time>2021-07-23T09:34:18.285Z</time>
      </trkpt>
      <trkpt lat="45.49533" lon="6.93469">
        <ele>1796.6</ele>
        <time>2021-07-23T09:34:19.285Z</time>
      </trkpt>
      <trkpt lat="45.49531" lon="6.93474">
        <ele>1796.6</ele>
        <time>2021-07-23T09:34:20.285Z</time>
      </trkpt>
      <trkpt lat="45.4953" lon="6.93479">
        <ele>1796.6</ele>
        <time>2021-07-23T09:34:21.285Z</time>
      </trkpt>
      <trkpt lat="45.49527" lon="6.93483">
        <ele>1796.6</ele>
        <time>2021-07-23T09:34:22.285Z</time>
      </trkpt>
      <trkpt lat="45.49526" lon="6.93487">
        <ele>1796.6</ele>
        <time>2021-07-23T09:34:23.285Z</time>
      </trkpt>
      <trkpt lat="45.49524" lon="6.93491">
        <ele>1796.6</ele>
        <time>2021-07-23T09:34:24.285Z</time>
      </trkpt>
      <trkpt lat="45.49523" lon="6.93496">
        <ele>1796.6</ele>
        <time>2021-07-23T09:34:25.285Z</time>
      </trkpt>
      <trkpt lat="45.49521" lon="6.93499">
        <ele>1796.6</ele>
        <time>2021-07-23T09:34:26.285Z</time>
      </trkpt>
      <trkpt lat="45.49519" lon="6.93504">
        <ele>1797.2</ele>
        <time>2021-07-23T09:34:27.285Z</time>
      </trkpt>
      <trkpt lat="45.49517" lon="6.93508">
        <ele>1797.6</ele>
        <time>2021-07-23T09:34:28.285Z</time>
      </trkpt>
      <trkpt lat="45.49516" lon="6.93512">
        <ele>1798</ele>
        <time>2021-07-23T09:34:29.285Z</time>
      </trkpt>
      <trkpt lat="45.49514" lon="6.93516">
        <ele>1798.4</ele>
        <time>2021-07-23T09:34:30.285Z</time>
      </trkpt>
      <trkpt lat="45.49511" lon="6.9352">
        <ele>1799</ele>
        <time>2021-07-23T09:34:31.285Z</time>
      </trkpt>
      <trkpt lat="45.49509" lon="6.93525">
        <ele>1799</ele>
        <time>2021-07-23T09:34:32.285Z</time>
      </trkpt>
      <trkpt lat="45.49506" lon="6.93529">
        <ele>1799</ele>
        <time>2021-07-23T09:34:33.285Z</time>
      </trkpt>
      <trkpt lat="45.49504" lon="6.93533">
        <ele>1799</ele>
        <time>2021-07-23T09:34:34.285Z</time>
      </trkpt>
      <trkpt lat="45.49502" lon="6.93537">
        <ele>1799</ele>
        <time>2021-07-23T09:34:35.285Z</time>
      </trkpt>
      <trkpt lat="45.49499" lon="6.93541">
        <ele>1799</ele>
        <time>2021-07-23T09:34:36.285Z</time>
      </trkpt>
      <trkpt lat="45.49497" lon="6.93545">
        <ele>1799</ele>
        <time>2021-07-23T09:34:37.285Z</time>
      </trkpt>
      <trkpt lat="45.49495" lon="6.93548">
        <ele>1799</ele>
        <time>2021-07-23T09:34:38.285Z</time>
      </trkpt>
      <trkpt lat="45.49493" lon="6.93552">
        <ele>1799</ele>
        <time>2021-07-23T09:34:39.285Z</time>
      </trkpt>
      <trkpt lat="45.4949" lon="6.93555">
        <ele>1799</ele>
        <time>2021-07-23T09:34:40.285Z</time>
      </trkpt>
      <trkpt lat="45.49488" lon="6.93559">
        <ele>1799.4</ele>
        <time>2021-07-23T09:34:41.285Z</time>
      </trkpt>
      <trkpt lat="45.49486" lon="6.93562">
        <ele>1799.8</ele>
        <time>2021-07-23T09:34:42.285Z</time>
      </trkpt>
      <trkpt lat="45.49483" lon="6.93565">
        <ele>1800.2</ele>
        <time>2021-07-23T09:34:43.285Z</time>
      </trkpt>
      <trkpt lat="45.49481" lon="6.93568">
        <ele>1800.6</ele>
        <time>2021-07-23T09:34:44.285Z</time>
      </trkpt>
      <trkpt lat="45.49478" lon="6.93571">
        <ele>1801.2</ele>
        <time>2021-07-23T09:34:45.285Z</time>
      </trkpt>
      <trkpt lat="45.49476" lon="6.93573">
        <ele>1801.2</ele>
        <time>2021-07-23T09:34:46.285Z</time>
      </trkpt>
      <trkpt lat="45.49473" lon="6.93576">
        <ele>1801.2</ele>
        <time>2021-07-23T09:34:47.285Z</time>
      </trkpt>
      <trkpt lat="45.4947" lon="6.93578">
        <ele>1801.2</ele>
        <time>2021-07-23T09:34:48.285Z</time>
      </trkpt>
      <trkpt lat="45.49467" lon="6.9358">
        <ele>1801.2</ele>
        <time>2021-07-23T09:34:49.285Z</time>
      </trkpt>
      <trkpt lat="45.49465" lon="6.93582">
        <ele>1801.2</ele>
        <time>2021-07-23T09:34:50.285Z</time>
      </trkpt>
      <trkpt lat="45.49462" lon="6.93585">
        <ele>1801.2</ele>
        <time>2021-07-23T09:34:51.285Z</time>
      </trkpt>
      <trkpt lat="45.49458" lon="6.93587">
        <ele>1801.2</ele>
        <time>2021-07-23T09:34:52.285Z</time>
      </trkpt>
      <trkpt lat="45.49455" lon="6.9359">
        <ele>1801.2</ele>
        <time>2021-07-23T09:34:53.285Z</time>
      </trkpt>
      <trkpt lat="45.49453" lon="6.93592">
        <ele>1801.6</ele>
        <time>2021-07-23T09:34:54.285Z</time>
      </trkpt>
      <trkpt lat="45.4945" lon="6.93595">
        <ele>1802</ele>
        <time>2021-07-23T09:34:55.285Z</time>
      </trkpt>
      <trkpt lat="45.49447" lon="6.93598">
        <ele>1802.4</ele>
        <time>2021-07-23T09:34:56.285Z</time>
      </trkpt>
      <trkpt lat="45.49444" lon="6.93601">
        <ele>1802.8</ele>
        <time>2021-07-23T09:34:57.285Z</time>
      </trkpt>
      <trkpt lat="45.49442" lon="6.93604">
        <ele>1803.2</ele>
        <time>2021-07-23T09:34:58.285Z</time>
      </trkpt>
      <trkpt lat="45.49439" lon="6.93607">
        <ele>1803.2</ele>
        <time>2021-07-23T09:34:59.285Z</time>
      </trkpt>
      <trkpt lat="45.49437" lon="6.9361">
        <ele>1803.2</ele>
        <time>2021-07-23T09:35:00.285Z</time>
      </trkpt>
      <trkpt lat="45.49435" lon="6.93613">
        <ele>1803.2</ele>
        <time>2021-07-23T09:35:01.285Z</time>
      </trkpt>
      <trkpt lat="45.49432" lon="6.93616">
        <ele>1803.2</ele>
        <time>2021-07-23T09:35:02.285Z</time>
      </trkpt>
      <trkpt lat="45.4943" lon="6.93619">
        <ele>1803.2</ele>
        <time>2021-07-23T09:35:03.285Z</time>
      </trkpt>
      <trkpt lat="45.49427" lon="6.93623">
        <ele>1803.2</ele>
        <time>2021-07-23T09:35:04.285Z</time>
      </trkpt>
      <trkpt lat="45.49425" lon="6.93626">
        <ele>1803.2</ele>
        <time>2021-07-23T09:35:05.285Z</time>
      </trkpt>
      <trkpt lat="45.49422" lon="6.93629">
        <ele>1803.6</ele>
        <time>2021-07-23T09:35:06.285Z</time>
      </trkpt>
      <trkpt lat="45.4942" lon="6.93632">
        <ele>1804.2</ele>
        <time>2021-07-23T09:35:07.285Z</time>
      </trkpt>
      <trkpt lat="45.49417" lon="6.93635">
        <ele>1804.6</ele>
        <time>2021-07-23T09:35:08.285Z</time>
      </trkpt>
      <trkpt lat="45.49415" lon="6.93639">
        <ele>1805</ele>
        <time>2021-07-23T09:35:09.285Z</time>
      </trkpt>
      <trkpt lat="45.49412" lon="6.93642">
        <ele>1805.4</ele>
        <time>2021-07-23T09:35:10.285Z</time>
      </trkpt>
      <trkpt lat="45.4941" lon="6.93645">
        <ele>1805.4</ele>
        <time>2021-07-23T09:35:11.285Z</time>
      </trkpt>
      <trkpt lat="45.49407" lon="6.93648">
        <ele>1805.4</ele>
        <time>2021-07-23T09:35:12.285Z</time>
      </trkpt>
      <trkpt lat="45.49404" lon="6.93651">
        <ele>1805.4</ele>
        <time>2021-07-23T09:35:13.285Z</time>
      </trkpt>
      <trkpt lat="45.49401" lon="6.93653">
        <ele>1805.4</ele>
        <time>2021-07-23T09:35:14.285Z</time>
      </trkpt>
      <trkpt lat="45.49399" lon="6.93656">
        <ele>1805.4</ele>
        <time>2021-07-23T09:35:15.285Z</time>
      </trkpt>
      <trkpt lat="45.49396" lon="6.93658">
        <ele>1805.4</ele>
        <time>2021-07-23T09:35:16.285Z</time>
      </trkpt>
      <trkpt lat="45.49394" lon="6.93661">
        <ele>1805.4</ele>
        <time>2021-07-23T09:35:17.285Z</time>
      </trkpt>
      <trkpt lat="45.49392" lon="6.93663">
        <ele>1805.4</ele>
        <time>2021-07-23T09:35:18.285Z</time>
      </trkpt>
      <trkpt lat="45.49389" lon="6.93665">
        <ele>1805.4</ele>
        <time>2021-07-23T09:35:19.285Z</time>
      </trkpt>
      <trkpt lat="45.49387" lon="6.93668">
        <ele>1805.8</ele>
        <time>2021-07-23T09:35:20.285Z</time>
      </trkpt>
      <trkpt lat="45.49385" lon="6.9367">
        <ele>1806.2</ele>
        <time>2021-07-23T09:35:21.285Z</time>
      </trkpt>
      <trkpt lat="45.49382" lon="6.93673">
        <ele>1806.6</ele>
        <time>2021-07-23T09:35:22.285Z</time>
      </trkpt>
      <trkpt lat="45.4938" lon="6.93675">
        <ele>1807</ele>
        <time>2021-07-23T09:35:23.285Z</time>
      </trkpt>
      <trkpt lat="45.49377" lon="6.93678">
        <ele>1807.4</ele>
        <time>2021-07-23T09:35:24.285Z</time>
      </trkpt>
      <trkpt lat="45.49375" lon="6.9368">
        <ele>1807.4</ele>
        <time>2021-07-23T09:35:25.285Z</time>
      </trkpt>
      <trkpt lat="45.49373" lon="6.93683">
        <ele>1807.4</ele>
        <time>2021-07-23T09:35:26.285Z</time>
      </trkpt>
      <trkpt lat="45.4937" lon="6.93685">
        <ele>1807.4</ele>
        <time>2021-07-23T09:35:27.285Z</time>
      </trkpt>
      <trkpt lat="45.49368" lon="6.93687">
        <ele>1807.4</ele>
        <time>2021-07-23T09:35:28.285Z</time>
      </trkpt>
      <trkpt lat="45.49366" lon="6.9369">
        <ele>1807.4</ele>
        <time>2021-07-23T09:35:29.285Z</time>
      </trkpt>
      <trkpt lat="45.49363" lon="6.93692">
        <ele>1807.4</ele>
        <time>2021-07-23T09:35:30.285Z</time>
      </trkpt>
      <trkpt lat="45.49361" lon="6.93695">
        <ele>1807.4</ele>
        <time>2021-07-23T09:35:31.285Z</time>
      </trkpt>
      <trkpt lat="45.49359" lon="6.93697">
        <ele>1807.4</ele>
        <time>2021-07-23T09:35:32.285Z</time>
      </trkpt>
      <trkpt lat="45.49356" lon="6.937">
        <ele>1807.4</ele>
        <time>2021-07-23T09:35:33.285Z</time>
      </trkpt>
      <trkpt lat="45.49354" lon="6.93702">
        <ele>1807.4</ele>
        <time>2021-07-23T09:35:34.285Z</time>
      </trkpt>
      <trkpt lat="45.49352" lon="6.93704">
        <ele>1807.4</ele>
        <time>2021-07-23T09:35:35.285Z</time>
      </trkpt>
      <trkpt lat="45.49349" lon="6.93707">
        <ele>1807.4</ele>
        <time>2021-07-23T09:35:36.285Z</time>
      </trkpt>
      <trkpt lat="45.49347" lon="6.93709">
        <ele>1807.4</ele>
        <time>2021-07-23T09:35:37.285Z</time>
      </trkpt>
      <trkpt lat="45.49344" lon="6.93712">
        <ele>1807.4</ele>
        <time>2021-07-23T09:35:38.285Z</time>
      </trkpt>
      <trkpt lat="45.49342" lon="6.93714">
        <ele>1807.4</ele>
        <time>2021-07-23T09:35:39.285Z</time>
      </trkpt>
      <trkpt lat="45.4934" lon="6.93717">
        <ele>1807.4</ele>
        <time>2021-07-23T09:35:40.285Z</time>
      </trkpt>
      <trkpt lat="45.49337" lon="6.93719">
        <ele>1807.4</ele>
        <time>2021-07-23T09:35:41.285Z</time>
      </trkpt>
      <trkpt lat="45.49335" lon="6.93721">
        <ele>1807.4</ele>
        <time>2021-07-23T09:35:42.285Z</time>
      </trkpt>
      <trkpt lat="45.49333" lon="6.93724">
        <ele>1807.4</ele>
        <time>2021-07-23T09:35:43.285Z</time>
      </trkpt>
      <trkpt lat="45.4933" lon="6.93726">
        <ele>1807.4</ele>
        <time>2021-07-23T09:35:44.285Z</time>
      </trkpt>
      <trkpt lat="45.49328" lon="6.93729">
        <ele>1807.4</ele>
        <time>2021-07-23T09:35:45.285Z</time>
      </trkpt>
      <trkpt lat="45.49326" lon="6.93731">
        <ele>1807.4</ele>
        <time>2021-07-23T09:35:46.285Z</time>
      </trkpt>
      <trkpt lat="45.49323" lon="6.93734">
        <ele>1807.4</ele>
        <time>2021-07-23T09:35:47.285Z</time>
      </trkpt>
      <trkpt lat="45.49321" lon="6.93736">
        <ele>1808</ele>
        <time>2021-07-23T09:35:48.285Z</time>
      </trkpt>
      <trkpt lat="45.49319" lon="6.93738">
        <ele>1808.4</ele>
        <time>2021-07-23T09:35:49.285Z</time>
      </trkpt>
      <trkpt lat="45.49316" lon="6.93741">
        <ele>1808.8</ele>
        <time>2021-07-23T09:35:50.285Z</time>
      </trkpt>
      <trkpt lat="45.49314" lon="6.93743">
        <ele>1809.4</ele>
        <time>2021-07-23T09:35:51.285Z</time>
      </trkpt>
      <trkpt lat="45.49311" lon="6.93746">
        <ele>1809.8</ele>
        <time>2021-07-23T09:35:52.285Z</time>
      </trkpt>
      <trkpt lat="45.49309" lon="6.93748">
        <ele>1809.8</ele>
        <time>2021-07-23T09:35:53.285Z</time>
      </trkpt>
      <trkpt lat="45.49307" lon="6.93751">
        <ele>1809.8</ele>
        <time>2021-07-23T09:35:54.285Z</time>
      </trkpt>
      <trkpt lat="45.49304" lon="6.93753">
        <ele>1809.8</ele>
        <time>2021-07-23T09:35:55.285Z</time>
      </trkpt>
      <trkpt lat="45.49302" lon="6.93755">
        <ele>1809.8</ele>
        <time>2021-07-23T09:35:56.285Z</time>
      </trkpt>
      <trkpt lat="45.493" lon="6.93758">
        <ele>1809.8</ele>
        <time>2021-07-23T09:35:57.285Z</time>
      </trkpt>
      <trkpt lat="45.49297" lon="6.9376">
        <ele>1809.8</ele>
        <time>2021-07-23T09:35:58.285Z</time>
      </trkpt>
      <trkpt lat="45.49295" lon="6.93763">
        <ele>1809.8</ele>
        <time>2021-07-23T09:35:59.285Z</time>
      </trkpt>
      <trkpt lat="45.49293" lon="6.93765">
        <ele>1809.8</ele>
        <time>2021-07-23T09:36:00.285Z</time>
      </trkpt>
      <trkpt lat="45.4929" lon="6.93768">
        <ele>1809.8</ele>
        <time>2021-07-23T09:36:01.285Z</time>
      </trkpt>
      <trkpt lat="45.49288" lon="6.9377">
        <ele>1809.8</ele>
        <time>2021-07-23T09:36:02.285Z</time>
      </trkpt>
      <trkpt lat="45.49286" lon="6.93772">
        <ele>1809.8</ele>
        <time>2021-07-23T09:36:03.285Z</time>
      </trkpt>
      <trkpt lat="45.49283" lon="6.93775">
        <ele>1809.8</ele>
        <time>2021-07-23T09:36:04.285Z</time>
      </trkpt>
      <trkpt lat="45.49281" lon="6.93777">
        <ele>1809.8</ele>
        <time>2021-07-23T09:36:05.285Z</time>
      </trkpt>
      <trkpt lat="45.49278" lon="6.9378">
        <ele>1809.8</ele>
        <time>2021-07-23T09:36:06.285Z</time>
      </trkpt>
      <trkpt lat="45.49276" lon="6.93782">
        <ele>1809.8</ele>
        <time>2021-07-23T09:36:07.285Z</time>
      </trkpt>
      <trkpt lat="45.49274" lon="6.93785">
        <ele>1809.8</ele>
        <time>2021-07-23T09:36:08.285Z</time>
      </trkpt>
      <trkpt lat="45.49271" lon="6.93787">
        <ele>1809.8</ele>
        <time>2021-07-23T09:36:09.285Z</time>
      </trkpt>
      <trkpt lat="45.49269" lon="6.93789">
        <ele>1809.8</ele>
        <time>2021-07-23T09:36:10.285Z</time>
      </trkpt>
      <trkpt lat="45.49267" lon="6.93792">
        <ele>1809.8</ele>
        <time>2021-07-23T09:36:11.285Z</time>
      </trkpt>
      <trkpt lat="45.49264" lon="6.93794">
        <ele>1809.8</ele>
        <time>2021-07-23T09:36:12.285Z</time>
      </trkpt>
      <trkpt lat="45.49262" lon="6.93797">
        <ele>1809.8</ele>
        <time>2021-07-23T09:36:13.285Z</time>
      </trkpt>
      <trkpt lat="45.4926" lon="6.93799">
        <ele>1809.8</ele>
        <time>2021-07-23T09:36:14.285Z</time>
      </trkpt>
      <trkpt lat="45.49257" lon="6.93802">
        <ele>1809.8</ele>
        <time>2021-07-23T09:36:15.285Z</time>
      </trkpt>
      <trkpt lat="45.49255" lon="6.93804">
        <ele>1809.8</ele>
        <time>2021-07-23T09:36:16.285Z</time>
      </trkpt>
      <trkpt lat="45.49253" lon="6.93806">
        <ele>1809.8</ele>
        <time>2021-07-23T09:36:17.285Z</time>
      </trkpt>
      <trkpt lat="45.4925" lon="6.93809">
        <ele>1810.6</ele>
        <time>2021-07-23T09:36:18.285Z</time>
      </trkpt>
      <trkpt lat="45.49248" lon="6.93811">
        <ele>1811</ele>
        <time>2021-07-23T09:36:19.285Z</time>
      </trkpt>
      <trkpt lat="45.49245" lon="6.93814">
        <ele>1811.6</ele>
        <time>2021-07-23T09:36:20.285Z</time>
      </trkpt>
      <trkpt lat="45.49243" lon="6.93816">
        <ele>1812</ele>
        <time>2021-07-23T09:36:21.285Z</time>
      </trkpt>
      <trkpt lat="45.49241" lon="6.93819">
        <ele>1812</ele>
        <time>2021-07-23T09:36:22.285Z</time>
      </trkpt>
      <trkpt lat="45.49238" lon="6.93821">
        <ele>1812</ele>
        <time>2021-07-23T09:36:23.285Z</time>
      </trkpt>
      <trkpt lat="45.49236" lon="6.93823">
        <ele>1812</ele>
        <time>2021-07-23T09:36:24.285Z</time>
      </trkpt>
      <trkpt lat="45.49234" lon="6.93826">
        <ele>1812</ele>
        <time>2021-07-23T09:36:25.285Z</time>
      </trkpt>
      <trkpt lat="45.49231" lon="6.93828">
        <ele>1812</ele>
        <time>2021-07-23T09:36:26.285Z</time>
      </trkpt>
      <trkpt lat="45.49229" lon="6.93831">
        <ele>1812</ele>
        <time>2021-07-23T09:36:27.285Z</time>
      </trkpt>
      <trkpt lat="45.49227" lon="6.93833">
        <ele>1812</ele>
        <time>2021-07-23T09:36:28.285Z</time>
      </trkpt>
      <trkpt lat="45.49224" lon="6.93836">
        <ele>1812</ele>
        <time>2021-07-23T09:36:29.285Z</time>
      </trkpt>
      <trkpt lat="45.49222" lon="6.93838">
        <ele>1812</ele>
        <time>2021-07-23T09:36:30.285Z</time>
      </trkpt>
      <trkpt lat="45.4922" lon="6.9384">
        <ele>1812</ele>
        <time>2021-07-23T09:36:31.285Z</time>
      </trkpt>
      <trkpt lat="45.49217" lon="6.93843">
        <ele>1812</ele>
        <time>2021-07-23T09:36:32.285Z</time>
      </trkpt>
      <trkpt lat="45.49215" lon="6.93845">
        <ele>1812</ele>
        <time>2021-07-23T09:36:33.285Z</time>
      </trkpt>
      <trkpt lat="45.49212" lon="6.93848">
        <ele>1812</ele>
        <time>2021-07-23T09:36:34.285Z</time>
      </trkpt>
      <trkpt lat="45.4921" lon="6.9385">
        <ele>1812</ele>
        <time>2021-07-23T09:36:35.285Z</time>
      </trkpt>
      <trkpt lat="45.49208" lon="6.93853">
        <ele>1812</ele>
        <time>2021-07-23T09:36:36.285Z</time>
      </trkpt>
      <trkpt lat="45.49205" lon="6.93855">
        <ele>1811.4</ele>
        <time>2021-07-23T09:36:37.285Z</time>
      </trkpt>
      <trkpt lat="45.49203" lon="6.93857">
        <ele>1811</ele>
        <time>2021-07-23T09:36:38.285Z</time>
      </trkpt>
      <trkpt lat="45.49201" lon="6.9386">
        <ele>1810.6</ele>
        <time>2021-07-23T09:36:39.285Z</time>
      </trkpt>
      <trkpt lat="45.49198" lon="6.93862">
        <ele>1810</ele>
        <time>2021-07-23T09:36:40.285Z</time>
      </trkpt>
      <trkpt lat="45.49196" lon="6.93865">
        <ele>1809.6</ele>
        <time>2021-07-23T09:36:41.285Z</time>
      </trkpt>
      <trkpt lat="45.49194" lon="6.93867">
        <ele>1809.6</ele>
        <time>2021-07-23T09:36:42.285Z</time>
      </trkpt>
      <trkpt lat="45.49191" lon="6.9387">
        <ele>1809.2</ele>
        <time>2021-07-23T09:36:43.285Z</time>
      </trkpt>
      <trkpt lat="45.49189" lon="6.93872">
        <ele>1808.8</ele>
        <time>2021-07-23T09:36:44.285Z</time>
      </trkpt>
      <trkpt lat="45.49187" lon="6.93874">
        <ele>1808.4</ele>
        <time>2021-07-23T09:36:45.285Z</time>
      </trkpt>
      <trkpt lat="45.49184" lon="6.93877">
        <ele>1807.8</ele>
        <time>2021-07-23T09:36:46.285Z</time>
      </trkpt>
      <trkpt lat="45.49182" lon="6.93879">
        <ele>1807.4</ele>
        <time>2021-07-23T09:36:47.285Z</time>
      </trkpt>
      <trkpt lat="45.4918" lon="6.93882">
        <ele>1807.4</ele>
        <time>2021-07-23T09:36:48.285Z</time>
      </trkpt>
      <trkpt lat="45.49177" lon="6.93884">
        <ele>1807.4</ele>
        <time>2021-07-23T09:36:49.285Z</time>
      </trkpt>
      <trkpt lat="45.49175" lon="6.93887">
        <ele>1807.4</ele>
        <time>2021-07-23T09:36:50.285Z</time>
      </trkpt>
      <trkpt lat="45.49172" lon="6.93889">
        <ele>1807.4</ele>
        <time>2021-07-23T09:36:51.285Z</time>
      </trkpt>
      <trkpt lat="45.4917" lon="6.93891">
        <ele>1807.4</ele>
        <time>2021-07-23T09:36:52.285Z</time>
      </trkpt>
      <trkpt lat="45.49168" lon="6.93894">
        <ele>1807</ele>
        <time>2021-07-23T09:36:53.285Z</time>
      </trkpt>
      <trkpt lat="45.49165" lon="6.93896">
        <ele>1806.6</ele>
        <time>2021-07-23T09:36:54.285Z</time>
      </trkpt>
      <trkpt lat="45.49163" lon="6.93899">
        <ele>1806.2</ele>
        <time>2021-07-23T09:36:55.285Z</time>
      </trkpt>
      <trkpt lat="45.49161" lon="6.93901">
        <ele>1805.6</ele>
        <time>2021-07-23T09:36:56.285Z</time>
      </trkpt>
      <trkpt lat="45.49158" lon="6.93904">
        <ele>1805.2</ele>
        <time>2021-07-23T09:36:57.285Z</time>
      </trkpt>
      <trkpt lat="45.49156" lon="6.93906">
        <ele>1805.2</ele>
        <time>2021-07-23T09:36:58.285Z</time>
      </trkpt>
      <trkpt lat="45.49154" lon="6.93908">
        <ele>1805.2</ele>
        <time>2021-07-23T09:36:59.285Z</time>
      </trkpt>
      <trkpt lat="45.49151" lon="6.93911">
        <ele>1805.2</ele>
        <time>2021-07-23T09:37:00.285Z</time>
      </trkpt>
      <trkpt lat="45.49149" lon="6.93913">
        <ele>1804.8</ele>
        <time>2021-07-23T09:37:01.285Z</time>
      </trkpt>
      <trkpt lat="45.49147" lon="6.93916">
        <ele>1804.4</ele>
        <time>2021-07-23T09:37:02.285Z</time>
      </trkpt>
      <trkpt lat="45.49144" lon="6.93918">
        <ele>1804</ele>
        <time>2021-07-23T09:37:03.285Z</time>
      </trkpt>
      <trkpt lat="45.49142" lon="6.93921">
        <ele>1803.6</ele>
        <time>2021-07-23T09:37:04.285Z</time>
      </trkpt>
      <trkpt lat="45.49139" lon="6.93923">
        <ele>1803.2</ele>
        <time>2021-07-23T09:37:05.285Z</time>
      </trkpt>
      <trkpt lat="45.49122" lon="6.93941">
        <ele>1803.2</ele>
        <time>2021-07-23T09:37:06.285Z</time>
      </trkpt>
      <trkpt lat="45.4881" lon="6.94263">
        <ele>1802.6</ele>
        <time>2021-07-23T09:37:07.285Z</time>
      </trkpt>
      <trkpt lat="45.48799" lon="6.94266">
        <ele>1802.2</ele>
        <time>2021-07-23T09:37:08.285Z</time>
      </trkpt>
      <trkpt lat="45.48789" lon="6.9427">
        <ele>1801.8</ele>
        <time>2021-07-23T09:37:09.285Z</time>
      </trkpt>
      <trkpt lat="45.48779" lon="6.94273">
        <ele>1801.4</ele>
        <time>2021-07-23T09:37:10.285Z</time>
      </trkpt>
      <trkpt lat="45.48769" lon="6.94277">
        <ele>1801</ele>
        <time>2021-07-23T09:37:11.285Z</time>
      </trkpt>
      <trkpt lat="45.48759" lon="6.9428">
        <ele>1801</ele>
        <time>2021-07-23T09:37:12.285Z</time>
      </trkpt>
      <trkpt lat="45.48749" lon="6.94284">
        <ele>1800.6</ele>
        <time>2021-07-23T09:37:13.285Z</time>
      </trkpt>
      <trkpt lat="45.48739" lon="6.94287">
        <ele>1800.2</ele>
        <time>2021-07-23T09:37:14.285Z</time>
      </trkpt>
      <trkpt lat="45.48729" lon="6.94291">
        <ele>1799.8</ele>
        <time>2021-07-23T09:37:15.285Z</time>
      </trkpt>
      <trkpt lat="45.48719" lon="6.94295">
        <ele>1799.4</ele>
        <time>2021-07-23T09:37:16.285Z</time>
      </trkpt>
      <trkpt lat="45.48709" lon="6.943">
        <ele>1799</ele>
        <time>2021-07-23T09:37:17.285Z</time>
      </trkpt>
      <trkpt lat="45.48699" lon="6.94304">
        <ele>1799</ele>
        <time>2021-07-23T09:37:18.285Z</time>
      </trkpt>
      <trkpt lat="45.48689" lon="6.94308">
        <ele>1799</ele>
        <time>2021-07-23T09:37:19.285Z</time>
      </trkpt>
      <trkpt lat="45.4868" lon="6.94315">
        <ele>1799</ele>
        <time>2021-07-23T09:37:20.285Z</time>
      </trkpt>
      <trkpt lat="45.4867" lon="6.94321">
        <ele>1799</ele>
        <time>2021-07-23T09:37:21.285Z</time>
      </trkpt>
      <trkpt lat="45.48666" lon="6.94324">
        <ele>1799</ele>
        <time>2021-07-23T09:37:22.285Z</time>
      </trkpt>
      <trkpt lat="45.48662" lon="6.94328">
        <ele>1798.4</ele>
        <time>2021-07-23T09:37:23.285Z</time>
      </trkpt>
      <trkpt lat="45.48658" lon="6.94331">
        <ele>1798</ele>
        <time>2021-07-23T09:37:24.285Z</time>
      </trkpt>
      <trkpt lat="45.48654" lon="6.94335">
        <ele>1797.4</ele>
        <time>2021-07-23T09:37:25.285Z</time>
      </trkpt>
      <trkpt lat="45.4865" lon="6.94339">
        <ele>1796.8</ele>
        <time>2021-07-23T09:37:26.285Z</time>
      </trkpt>
      <trkpt lat="45.48646" lon="6.94342">
        <ele>1796.4</ele>
        <time>2021-07-23T09:37:27.285Z</time>
      </trkpt>
      <trkpt lat="45.48642" lon="6.94346">
        <ele>1796.4</ele>
        <time>2021-07-23T09:37:28.285Z</time>
      </trkpt>
      <trkpt lat="45.48639" lon="6.94349">
        <ele>1796.4</ele>
        <time>2021-07-23T09:37:29.285Z</time>
      </trkpt>
      <trkpt lat="45.48635" lon="6.94353">
        <ele>1796.4</ele>
        <time>2021-07-23T09:37:30.285Z</time>
      </trkpt>
      <trkpt lat="45.48631" lon="6.94356">
        <ele>1796.4</ele>
        <time>2021-07-23T09:37:31.285Z</time>
      </trkpt>
      <trkpt lat="45.48627" lon="6.9436">
        <ele>1796.4</ele>
        <time>2021-07-23T09:37:32.285Z</time>
      </trkpt>
      <trkpt lat="45.48623" lon="6.94363">
        <ele>1796.4</ele>
        <time>2021-07-23T09:37:33.285Z</time>
      </trkpt>
      <trkpt lat="45.48619" lon="6.94367">
        <ele>1796.4</ele>
        <time>2021-07-23T09:37:34.285Z</time>
      </trkpt>
      <trkpt lat="45.48615" lon="6.9437">
        <ele>1796.4</ele>
        <time>2021-07-23T09:37:35.285Z</time>
      </trkpt>
      <trkpt lat="45.48611" lon="6.94374">
        <ele>1796.4</ele>
        <time>2021-07-23T09:37:36.285Z</time>
      </trkpt>
      <trkpt lat="45.48604" lon="6.9438">
        <ele>1796.4</ele>
        <time>2021-07-23T09:37:37.285Z</time>
      </trkpt>
      <trkpt lat="45.48531" lon="6.94444">
        <ele>1796.4</ele>
        <time>2021-07-23T09:37:38.285Z</time>
      </trkpt>
      <trkpt lat="45.48525" lon="6.94449">
        <ele>1796.4</ele>
        <time>2021-07-23T09:37:39.285Z</time>
      </trkpt>
      <trkpt lat="45.48518" lon="6.94454">
        <ele>1796.4</ele>
        <time>2021-07-23T09:37:40.285Z</time>
      </trkpt>
      <trkpt lat="45.48511" lon="6.94458">
        <ele>1796.4</ele>
        <time>2021-07-23T09:37:41.285Z</time>
      </trkpt>
      <trkpt lat="45.48504" lon="6.94463">
        <ele>1796.4</ele>
        <time>2021-07-23T09:37:42.285Z</time>
      </trkpt>
      <trkpt lat="45.48497" lon="6.94467">
        <ele>1796.4</ele>
        <time>2021-07-23T09:37:43.285Z</time>
      </trkpt>
      <trkpt lat="45.4849" lon="6.94472">
        <ele>1796.4</ele>
        <time>2021-07-23T09:37:44.285Z</time>
      </trkpt>
      <trkpt lat="45.48483" lon="6.94476">
        <ele>1796.4</ele>
        <time>2021-07-23T09:37:45.285Z</time>
      </trkpt>
      <trkpt lat="45.48476" lon="6.94481">
        <ele>1796.4</ele>
        <time>2021-07-23T09:37:46.285Z</time>
      </trkpt>
      <trkpt lat="45.48469" lon="6.94486">
        <ele>1796.4</ele>
        <time>2021-07-23T09:37:47.285Z</time>
      </trkpt>
      <trkpt lat="45.48462" lon="6.9449">
        <ele>1796.4</ele>
        <time>2021-07-23T09:37:48.285Z</time>
      </trkpt>
      <trkpt lat="45.48455" lon="6.94495">
        <ele>1796.4</ele>
        <time>2021-07-23T09:37:49.285Z</time>
      </trkpt>
      <trkpt lat="45.48448" lon="6.94499">
        <ele>1796.8</ele>
        <time>2021-07-23T09:37:50.285Z</time>
      </trkpt>
      <trkpt lat="45.48441" lon="6.94504">
        <ele>1797.2</ele>
        <time>2021-07-23T09:37:51.285Z</time>
      </trkpt>
      <trkpt lat="45.48434" lon="6.94508">
        <ele>1797.6</ele>
        <time>2021-07-23T09:37:52.285Z</time>
      </trkpt>
      <trkpt lat="45.48427" lon="6.94512">
        <ele>1798</ele>
        <time>2021-07-23T09:37:53.285Z</time>
      </trkpt>
      <trkpt lat="45.4842" lon="6.94516">
        <ele>1798.4</ele>
        <time>2021-07-23T09:37:54.285Z</time>
      </trkpt>
      <trkpt lat="45.48413" lon="6.94519">
        <ele>1798.4</ele>
        <time>2021-07-23T09:37:55.285Z</time>
      </trkpt>
      <trkpt lat="45.48406" lon="6.94523">
        <ele>1798.4</ele>
        <time>2021-07-23T09:37:56.285Z</time>
      </trkpt>
      <trkpt lat="45.48399" lon="6.94527">
        <ele>1798.4</ele>
        <time>2021-07-23T09:37:57.285Z</time>
      </trkpt>
      <trkpt lat="45.48392" lon="6.94531">
        <ele>1798.4</ele>
        <time>2021-07-23T09:37:58.285Z</time>
      </trkpt>
      <trkpt lat="45.48385" lon="6.94535">
        <ele>1798.4</ele>
        <time>2021-07-23T09:37:59.285Z</time>
      </trkpt>
      <trkpt lat="45.48382" lon="6.94536">
        <ele>1798.4</ele>
        <time>2021-07-23T09:38:00.285Z</time>
      </trkpt>
      <trkpt lat="45.48378" lon="6.94536">
        <ele>1798.4</ele>
        <time>2021-07-23T09:38:01.285Z</time>
      </trkpt>
      <trkpt lat="45.48375" lon="6.94537">
        <ele>1798.4</ele>
        <time>2021-07-23T09:38:02.285Z</time>
      </trkpt>
      <trkpt lat="45.48372" lon="6.94537">
        <ele>1798.4</ele>
        <time>2021-07-23T09:38:03.285Z</time>
      </trkpt>
      <trkpt lat="45.48368" lon="6.94537">
        <ele>1798.4</ele>
        <time>2021-07-23T09:38:04.285Z</time>
      </trkpt>
      <trkpt lat="45.48365" lon="6.94538">
        <ele>1798.4</ele>
        <time>2021-07-23T09:38:05.285Z</time>
      </trkpt>
      <trkpt lat="45.48361" lon="6.94538">
        <ele>1798.4</ele>
        <time>2021-07-23T09:38:06.285Z</time>
      </trkpt>
      <trkpt lat="45.48358" lon="6.94538">
        <ele>1798.4</ele>
        <time>2021-07-23T09:38:07.285Z</time>
      </trkpt>
      <trkpt lat="45.48355" lon="6.94539">
        <ele>1798.4</ele>
        <time>2021-07-23T09:38:08.285Z</time>
      </trkpt>
      <trkpt lat="45.48351" lon="6.94539">
        <ele>1798.8</ele>
        <time>2021-07-23T09:38:09.285Z</time>
      </trkpt>
      <trkpt lat="45.48348" lon="6.94539">
        <ele>1799.4</ele>
        <time>2021-07-23T09:38:10.285Z</time>
      </trkpt>
      <trkpt lat="45.48345" lon="6.9454">
        <ele>1799.8</ele>
        <time>2021-07-23T09:38:11.285Z</time>
      </trkpt>
      <trkpt lat="45.48341" lon="6.9454">
        <ele>1800.2</ele>
        <time>2021-07-23T09:38:12.285Z</time>
      </trkpt>
      <trkpt lat="45.48338" lon="6.9454">
        <ele>1800.6</ele>
        <time>2021-07-23T09:38:13.285Z</time>
      </trkpt>
      <trkpt lat="45.48334" lon="6.94541">
        <ele>1800.6</ele>
        <time>2021-07-23T09:38:14.285Z</time>
      </trkpt>
      <trkpt lat="45.48331" lon="6.94541">
        <ele>1800.6</ele>
        <time>2021-07-23T09:38:15.285Z</time>
      </trkpt>
      <trkpt lat="45.48328" lon="6.94541">
        <ele>1800.6</ele>
        <time>2021-07-23T09:38:16.285Z</time>
      </trkpt>
      <trkpt lat="45.48324" lon="6.94542">
        <ele>1800.6</ele>
        <time>2021-07-23T09:38:17.285Z</time>
      </trkpt>
      <trkpt lat="45.48321" lon="6.94542">
        <ele>1800.6</ele>
        <time>2021-07-23T09:38:18.285Z</time>
      </trkpt>
      <trkpt lat="45.48318" lon="6.94543">
        <ele>1800.6</ele>
        <time>2021-07-23T09:38:19.285Z</time>
      </trkpt>
      <trkpt lat="45.48314" lon="6.94543">
        <ele>1800.6</ele>
        <time>2021-07-23T09:38:20.285Z</time>
      </trkpt>
      <trkpt lat="45.48311" lon="6.94543">
        <ele>1800.6</ele>
        <time>2021-07-23T09:38:21.285Z</time>
      </trkpt>
      <trkpt lat="45.48307" lon="6.94544">
        <ele>1800.6</ele>
        <time>2021-07-23T09:38:22.285Z</time>
      </trkpt>
      <trkpt lat="45.48304" lon="6.94544">
        <ele>1800.6</ele>
        <time>2021-07-23T09:38:23.285Z</time>
      </trkpt>
      <trkpt lat="45.483" lon="6.94544">
        <ele>1800.6</ele>
        <time>2021-07-23T09:38:24.285Z</time>
      </trkpt>
      <trkpt lat="45.48215" lon="6.94553">
        <ele>1800.6</ele>
        <time>2021-07-23T09:38:25.285Z</time>
      </trkpt>
      <trkpt lat="45.4821" lon="6.94556">
        <ele>1800.6</ele>
        <time>2021-07-23T09:38:26.285Z</time>
      </trkpt>
      <trkpt lat="45.48204" lon="6.94558">
        <ele>1800.6</ele>
        <time>2021-07-23T09:38:27.285Z</time>
      </trkpt>
      <trkpt lat="45.48198" lon="6.94562">
        <ele>1800.6</ele>
        <time>2021-07-23T09:38:28.285Z</time>
      </trkpt>
      <trkpt lat="45.48192" lon="6.94565">
        <ele>1800.6</ele>
        <time>2021-07-23T09:38:29.285Z</time>
      </trkpt>
      <trkpt lat="45.48185" lon="6.94568">
        <ele>1800.6</ele>
        <time>2021-07-23T09:38:30.285Z</time>
      </trkpt>
      <trkpt lat="45.48179" lon="6.9457">
        <ele>1800.6</ele>
        <time>2021-07-23T09:38:31.285Z</time>
      </trkpt>
      <trkpt lat="45.48173" lon="6.94573">
        <ele>1800.6</ele>
        <time>2021-07-23T09:38:32.285Z</time>
      </trkpt>
      <trkpt lat="45.48167" lon="6.94576">
        <ele>1800.6</ele>
        <time>2021-07-23T09:38:33.285Z</time>
      </trkpt>
      <trkpt lat="45.48161" lon="6.94579">
        <ele>1800.6</ele>
        <time>2021-07-23T09:38:34.285Z</time>
      </trkpt>
      <trkpt lat="45.48156" lon="6.94583">
        <ele>1800.6</ele>
        <time>2021-07-23T09:38:35.285Z</time>
      </trkpt>
      <trkpt lat="45.48149" lon="6.94586">
        <ele>1800.6</ele>
        <time>2021-07-23T09:38:36.285Z</time>
      </trkpt>
      <trkpt lat="45.48143" lon="6.94589">
        <ele>1800.6</ele>
        <time>2021-07-23T09:38:37.285Z</time>
      </trkpt>
      <trkpt lat="45.48137" lon="6.94593">
        <ele>1800.6</ele>
        <time>2021-07-23T09:38:38.285Z</time>
      </trkpt>
      <trkpt lat="45.4813" lon="6.94596">
        <ele>1800.6</ele>
        <time>2021-07-23T09:38:39.285Z</time>
      </trkpt>
      <trkpt lat="45.48124" lon="6.94599">
        <ele>1800.6</ele>
        <time>2021-07-23T09:38:40.285Z</time>
      </trkpt>
      <trkpt lat="45.48117" lon="6.94602">
        <ele>1800.6</ele>
        <time>2021-07-23T09:38:41.285Z</time>
      </trkpt>
      <trkpt lat="45.4811" lon="6.94606">
        <ele>1800.6</ele>
        <time>2021-07-23T09:38:42.285Z</time>
      </trkpt>
      <trkpt lat="45.48103" lon="6.94609">
        <ele>1800.6</ele>
        <time>2021-07-23T09:38:43.285Z</time>
      </trkpt>
      <trkpt lat="45.48095" lon="6.94613">
        <ele>1800.6</ele>
        <time>2021-07-23T09:38:44.285Z</time>
      </trkpt>
      <trkpt lat="45.48088" lon="6.94616">
        <ele>1800.6</ele>
        <time>2021-07-23T09:38:45.285Z</time>
      </trkpt>
      <trkpt lat="45.4808" lon="6.9462">
        <ele>1800.6</ele>
        <time>2021-07-23T09:38:46.285Z</time>
      </trkpt>
      <trkpt lat="45.48072" lon="6.94624">
        <ele>1800.6</ele>
        <time>2021-07-23T09:38:47.285Z</time>
      </trkpt>
      <trkpt lat="45.48065" lon="6.94628">
        <ele>1800.6</ele>
        <time>2021-07-23T09:38:48.285Z</time>
      </trkpt>
      <trkpt lat="45.48057" lon="6.94633">
        <ele>1800.6</ele>
        <time>2021-07-23T09:38:49.285Z</time>
      </trkpt>
      <trkpt lat="45.48049" lon="6.94638">
        <ele>1800.6</ele>
        <time>2021-07-23T09:38:50.285Z</time>
      </trkpt>
      <trkpt lat="45.4804" lon="6.94645">
        <ele>1800.6</ele>
        <time>2021-07-23T09:38:51.285Z</time>
      </trkpt>
      <trkpt lat="45.48033" lon="6.94652">
        <ele>1800.6</ele>
        <time>2021-07-23T09:38:52.285Z</time>
      </trkpt>
      <trkpt lat="45.48026" lon="6.94659">
        <ele>1800.6</ele>
        <time>2021-07-23T09:38:53.285Z</time>
      </trkpt>
      <trkpt lat="45.48018" lon="6.94667">
        <ele>1800.2</ele>
        <time>2021-07-23T09:38:54.285Z</time>
      </trkpt>
      <trkpt lat="45.48011" lon="6.94676">
        <ele>1799.8</ele>
        <time>2021-07-23T09:38:55.285Z</time>
      </trkpt>
      <trkpt lat="45.48005" lon="6.94685">
        <ele>1799.2</ele>
        <time>2021-07-23T09:38:56.285Z</time>
      </trkpt>
      <trkpt lat="45.47998" lon="6.94696">
        <ele>1798.8</ele>
        <time>2021-07-23T09:38:57.285Z</time>
      </trkpt>
      <trkpt lat="45.47992" lon="6.94707">
        <ele>1798.2</ele>
        <time>2021-07-23T09:38:58.285Z</time>
      </trkpt>
      <trkpt lat="45.47987" lon="6.94718">
        <ele>1798.2</ele>
        <time>2021-07-23T09:38:59.285Z</time>
      </trkpt>
      <trkpt lat="45.47981" lon="6.94729">
        <ele>1797.8</ele>
        <time>2021-07-23T09:39:00.285Z</time>
      </trkpt>
      <trkpt lat="45.47976" lon="6.94741">
        <ele>1797.4</ele>
        <time>2021-07-23T09:39:01.285Z</time>
      </trkpt>
      <trkpt lat="45.47971" lon="6.94753">
        <ele>1797</ele>
        <time>2021-07-23T09:39:02.285Z</time>
      </trkpt>
      <trkpt lat="45.47966" lon="6.94765">
        <ele>1796.6</ele>
        <time>2021-07-23T09:39:03.285Z</time>
      </trkpt>
      <trkpt lat="45.47961" lon="6.94777">
        <ele>1796</ele>
        <time>2021-07-23T09:39:04.285Z</time>
      </trkpt>
      <trkpt lat="45.47956" lon="6.9479">
        <ele>1796</ele>
        <time>2021-07-23T09:39:05.285Z</time>
      </trkpt>
      <trkpt lat="45.47951" lon="6.94801">
        <ele>1796</ele>
        <time>2021-07-23T09:39:06.285Z</time>
      </trkpt>
      <trkpt lat="45.47946" lon="6.94813">
        <ele>1796</ele>
        <time>2021-07-23T09:39:07.285Z</time>
      </trkpt>
      <trkpt lat="45.4794" lon="6.94823">
        <ele>1795.6</ele>
        <time>2021-07-23T09:39:08.285Z</time>
      </trkpt>
      <trkpt lat="45.47933" lon="6.94832">
        <ele>1795</ele>
        <time>2021-07-23T09:39:09.285Z</time>
      </trkpt>
      <trkpt lat="45.47926" lon="6.94841">
        <ele>1794</ele>
        <time>2021-07-23T09:39:10.285Z</time>
      </trkpt>
      <trkpt lat="45.47919" lon="6.94851">
        <ele>1793.6</ele>
        <time>2021-07-23T09:39:11.285Z</time>
      </trkpt>
      <trkpt lat="45.47912" lon="6.94861">
        <ele>1793.6</ele>
        <time>2021-07-23T09:39:12.285Z</time>
      </trkpt>
      <trkpt lat="45.47905" lon="6.94871">
        <ele>1793.6</ele>
        <time>2021-07-23T09:39:13.285Z</time>
      </trkpt>
      <trkpt lat="45.47898" lon="6.94881">
        <ele>1793.6</ele>
        <time>2021-07-23T09:39:14.285Z</time>
      </trkpt>
      <trkpt lat="45.47891" lon="6.94892">
        <ele>1793.6</ele>
        <time>2021-07-23T09:39:15.285Z</time>
      </trkpt>
      <trkpt lat="45.47884" lon="6.94902">
        <ele>1793.6</ele>
        <time>2021-07-23T09:39:16.285Z</time>
      </trkpt>
      <trkpt lat="45.47878" lon="6.94912">
        <ele>1793.2</ele>
        <time>2021-07-23T09:39:17.285Z</time>
      </trkpt>
      <trkpt lat="45.4787" lon="6.94922">
        <ele>1792.8</ele>
        <time>2021-07-23T09:39:18.285Z</time>
      </trkpt>
      <trkpt lat="45.47863" lon="6.94932">
        <ele>1792.4</ele>
        <time>2021-07-23T09:39:19.285Z</time>
      </trkpt>
      <trkpt lat="45.47856" lon="6.94941">
        <ele>1792</ele>
        <time>2021-07-23T09:39:20.285Z</time>
      </trkpt>
      <trkpt lat="45.47848" lon="6.9495">
        <ele>1791.6</ele>
        <time>2021-07-23T09:39:21.285Z</time>
      </trkpt>
      <trkpt lat="45.4784" lon="6.94958">
        <ele>1791.6</ele>
        <time>2021-07-23T09:39:22.285Z</time>
      </trkpt>
      <trkpt lat="45.47831" lon="6.94964">
        <ele>1791.6</ele>
        <time>2021-07-23T09:39:23.285Z</time>
      </trkpt>
      <trkpt lat="45.47823" lon="6.94971">
        <ele>1791.6</ele>
        <time>2021-07-23T09:39:24.285Z</time>
      </trkpt>
      <trkpt lat="45.47814" lon="6.94978">
        <ele>1791.6</ele>
        <time>2021-07-23T09:39:25.285Z</time>
      </trkpt>
      <trkpt lat="45.47805" lon="6.94984">
        <ele>1791.6</ele>
        <time>2021-07-23T09:39:26.285Z</time>
      </trkpt>
      <trkpt lat="45.47796" lon="6.94992">
        <ele>1791.6</ele>
        <time>2021-07-23T09:39:27.285Z</time>
      </trkpt>
      <trkpt lat="45.47787" lon="6.94999">
        <ele>1791</ele>
        <time>2021-07-23T09:39:28.285Z</time>
      </trkpt>
      <trkpt lat="45.47779" lon="6.95006">
        <ele>1790.6</ele>
        <time>2021-07-23T09:39:29.285Z</time>
      </trkpt>
      <trkpt lat="45.4777" lon="6.95014">
        <ele>1790.2</ele>
        <time>2021-07-23T09:39:30.285Z</time>
      </trkpt>
      <trkpt lat="45.47762" lon="6.95021">
        <ele>1789.8</ele>
        <time>2021-07-23T09:39:31.285Z</time>
      </trkpt>
      <trkpt lat="45.47754" lon="6.95027">
        <ele>1789.4</ele>
        <time>2021-07-23T09:39:32.285Z</time>
      </trkpt>
      <trkpt lat="45.47746" lon="6.95034">
        <ele>1789.4</ele>
        <time>2021-07-23T09:39:33.285Z</time>
      </trkpt>
      <trkpt lat="45.47738" lon="6.9504">
        <ele>1789.4</ele>
        <time>2021-07-23T09:39:34.285Z</time>
      </trkpt>
      <trkpt lat="45.47729" lon="6.95046">
        <ele>1789</ele>
        <time>2021-07-23T09:39:35.285Z</time>
      </trkpt>
      <trkpt lat="45.47719" lon="6.9505">
        <ele>1788.4</ele>
        <time>2021-07-23T09:39:36.285Z</time>
      </trkpt>
      <trkpt lat="45.4771" lon="6.95053">
        <ele>1788</ele>
        <time>2021-07-23T09:39:37.285Z</time>
      </trkpt>
      <trkpt lat="45.47701" lon="6.95055">
        <ele>1787.6</ele>
        <time>2021-07-23T09:39:38.285Z</time>
      </trkpt>
      <trkpt lat="45.47695" lon="6.95056">
        <ele>1787</ele>
        <time>2021-07-23T09:39:39.285Z</time>
      </trkpt>
      <trkpt lat="45.4769" lon="6.95057">
        <ele>1787</ele>
        <time>2021-07-23T09:39:40.285Z</time>
      </trkpt>
      <trkpt lat="45.47685" lon="6.95057">
        <ele>1787</ele>
        <time>2021-07-23T09:39:41.285Z</time>
      </trkpt>
      <trkpt lat="45.47681" lon="6.95055">
        <ele>1787</ele>
        <time>2021-07-23T09:39:42.285Z</time>
      </trkpt>
      <trkpt lat="45.47677" lon="6.95049">
        <ele>1787</ele>
        <time>2021-07-23T09:39:43.285Z</time>
      </trkpt>
      <trkpt lat="45.47674" lon="6.95033">
        <ele>1787</ele>
        <time>2021-07-23T09:39:44.285Z</time>
      </trkpt>
      <trkpt lat="45.47671" lon="6.95008">
        <ele>1787</ele>
        <time>2021-07-23T09:39:45.285Z</time>
      </trkpt>
      <trkpt lat="45.47666" lon="6.94991">
        <ele>1787</ele>
        <time>2021-07-23T09:39:46.285Z</time>
      </trkpt>
      <trkpt lat="45.4766" lon="6.94977">
        <ele>1787</ele>
        <time>2021-07-23T09:39:47.285Z</time>
      </trkpt>
      <trkpt lat="45.47653" lon="6.94967">
        <ele>1787</ele>
        <time>2021-07-23T09:39:48.285Z</time>
      </trkpt>
      <trkpt lat="45.47644" lon="6.94958">
        <ele>1787</ele>
        <time>2021-07-23T09:39:49.285Z</time>
      </trkpt>
      <trkpt lat="45.47638" lon="6.94945">
        <ele>1787</ele>
        <time>2021-07-23T09:39:50.285Z</time>
      </trkpt>
      <trkpt lat="45.47631" lon="6.94937">
        <ele>1786.6</ele>
        <time>2021-07-23T09:39:51.285Z</time>
      </trkpt>
      <trkpt lat="45.47623" lon="6.94931">
        <ele>1786.2</ele>
        <time>2021-07-23T09:39:52.285Z</time>
      </trkpt>
      <trkpt lat="45.47615" lon="6.94927">
        <ele>1785.8</ele>
        <time>2021-07-23T09:39:53.285Z</time>
      </trkpt>
      <trkpt lat="45.47606" lon="6.94924">
        <ele>1785.4</ele>
        <time>2021-07-23T09:39:54.285Z</time>
      </trkpt>
      <trkpt lat="45.47599" lon="6.94922">
        <ele>1784.8</ele>
        <time>2021-07-23T09:39:55.285Z</time>
      </trkpt>
      <trkpt lat="45.47591" lon="6.94921">
        <ele>1784.8</ele>
        <time>2021-07-23T09:39:56.285Z</time>
      </trkpt>
      <trkpt lat="45.47583" lon="6.94921">
        <ele>1784.8</ele>
        <time>2021-07-23T09:39:57.285Z</time>
      </trkpt>
      <trkpt lat="45.47575" lon="6.94921">
        <ele>1784.8</ele>
        <time>2021-07-23T09:39:58.285Z</time>
      </trkpt>
      <trkpt lat="45.47568" lon="6.94921">
        <ele>1784.8</ele>
        <time>2021-07-23T09:39:59.285Z</time>
      </trkpt>
      <trkpt lat="45.47561" lon="6.9492">
        <ele>1784.8</ele>
        <time>2021-07-23T09:40:00.285Z</time>
      </trkpt>
      <trkpt lat="45.47553" lon="6.9492">
        <ele>1784.8</ele>
        <time>2021-07-23T09:40:01.285Z</time>
      </trkpt>
      <trkpt lat="45.47546" lon="6.94921">
        <ele>1784.8</ele>
        <time>2021-07-23T09:40:02.285Z</time>
      </trkpt>
      <trkpt lat="45.47539" lon="6.94921">
        <ele>1784.8</ele>
        <time>2021-07-23T09:40:03.285Z</time>
      </trkpt>
      <trkpt lat="45.47531" lon="6.94922">
        <ele>1784.8</ele>
        <time>2021-07-23T09:40:04.285Z</time>
      </trkpt>
      <trkpt lat="45.47524" lon="6.94922">
        <ele>1784.8</ele>
        <time>2021-07-23T09:40:05.285Z</time>
      </trkpt>
      <trkpt lat="45.47517" lon="6.9492">
        <ele>1784.8</ele>
        <time>2021-07-23T09:40:06.285Z</time>
      </trkpt>
      <trkpt lat="45.4751" lon="6.94918">
        <ele>1784.8</ele>
        <time>2021-07-23T09:40:07.285Z</time>
      </trkpt>
      <trkpt lat="45.47503" lon="6.94913">
        <ele>1784.8</ele>
        <time>2021-07-23T09:40:08.285Z</time>
      </trkpt>
      <trkpt lat="45.47498" lon="6.94907">
        <ele>1784.8</ele>
        <time>2021-07-23T09:40:09.285Z</time>
      </trkpt>
      <trkpt lat="45.47492" lon="6.94901">
        <ele>1784.8</ele>
        <time>2021-07-23T09:40:10.285Z</time>
      </trkpt>
      <trkpt lat="45.47487" lon="6.94893">
        <ele>1784.8</ele>
        <time>2021-07-23T09:40:11.285Z</time>
      </trkpt>
      <trkpt lat="45.47482" lon="6.94886">
        <ele>1784.8</ele>
        <time>2021-07-23T09:40:12.285Z</time>
      </trkpt>
      <trkpt lat="45.47478" lon="6.94878">
        <ele>1784.8</ele>
        <time>2021-07-23T09:40:13.285Z</time>
      </trkpt>
      <trkpt lat="45.47473" lon="6.94871">
        <ele>1784.8</ele>
        <time>2021-07-23T09:40:14.285Z</time>
      </trkpt>
      <trkpt lat="45.47468" lon="6.94865">
        <ele>1784.8</ele>
        <time>2021-07-23T09:40:15.285Z</time>
      </trkpt>
      <trkpt lat="45.47463" lon="6.9486">
        <ele>1784.8</ele>
        <time>2021-07-23T09:40:16.285Z</time>
      </trkpt>
      <trkpt lat="45.47457" lon="6.94856">
        <ele>1784.8</ele>
        <time>2021-07-23T09:40:17.285Z</time>
      </trkpt>
      <trkpt lat="45.4745" lon="6.94853">
        <ele>1784.8</ele>
        <time>2021-07-23T09:40:18.285Z</time>
      </trkpt>
      <trkpt lat="45.47443" lon="6.94852">
        <ele>1785.2</ele>
        <time>2021-07-23T09:40:19.285Z</time>
      </trkpt>
      <trkpt lat="45.47437" lon="6.94853">
        <ele>1785.8</ele>
        <time>2021-07-23T09:40:20.285Z</time>
      </trkpt>
      <trkpt lat="45.47431" lon="6.94855">
        <ele>1786.2</ele>
        <time>2021-07-23T09:40:21.285Z</time>
      </trkpt>
      <trkpt lat="45.47425" lon="6.94859">
        <ele>1786.6</ele>
        <time>2021-07-23T09:40:22.285Z</time>
      </trkpt>
      <trkpt lat="45.47419" lon="6.94863">
        <ele>1787</ele>
        <time>2021-07-23T09:40:23.285Z</time>
      </trkpt>
      <trkpt lat="45.47413" lon="6.94869">
        <ele>1787</ele>
        <time>2021-07-23T09:40:24.285Z</time>
      </trkpt>
      <trkpt lat="45.47408" lon="6.94875">
        <ele>1787</ele>
        <time>2021-07-23T09:40:25.285Z</time>
      </trkpt>
      <trkpt lat="45.47403" lon="6.94883">
        <ele>1787</ele>
        <time>2021-07-23T09:40:26.285Z</time>
      </trkpt>
      <trkpt lat="45.47398" lon="6.9489">
        <ele>1787</ele>
        <time>2021-07-23T09:40:27.285Z</time>
      </trkpt>
      <trkpt lat="45.47395" lon="6.94898">
        <ele>1787</ele>
        <time>2021-07-23T09:40:28.285Z</time>
      </trkpt>
      <trkpt lat="45.47392" lon="6.94907">
        <ele>1787</ele>
        <time>2021-07-23T09:40:29.285Z</time>
      </trkpt>
      <trkpt lat="45.4739" lon="6.94916">
        <ele>1787</ele>
        <time>2021-07-23T09:40:30.285Z</time>
      </trkpt>
      <trkpt lat="45.47389" lon="6.94924">
        <ele>1787</ele>
        <time>2021-07-23T09:40:31.285Z</time>
      </trkpt>
      <trkpt lat="45.47387" lon="6.94933">
        <ele>1787</ele>
        <time>2021-07-23T09:40:32.285Z</time>
      </trkpt>
      <trkpt lat="45.47386" lon="6.94941">
        <ele>1787</ele>
        <time>2021-07-23T09:40:33.285Z</time>
      </trkpt>
      <trkpt lat="45.47384" lon="6.9495">
        <ele>1787</ele>
        <time>2021-07-23T09:40:34.285Z</time>
      </trkpt>
      <trkpt lat="45.47383" lon="6.94958">
        <ele>1787</ele>
        <time>2021-07-23T09:40:35.285Z</time>
      </trkpt>
      <trkpt lat="45.47383" lon="6.94966">
        <ele>1787</ele>
        <time>2021-07-23T09:40:36.285Z</time>
      </trkpt>
      <trkpt lat="45.47382" lon="6.94973">
        <ele>1787</ele>
        <time>2021-07-23T09:40:37.285Z</time>
      </trkpt>
      <trkpt lat="45.47381" lon="6.94979">
        <ele>1787</ele>
        <time>2021-07-23T09:40:38.285Z</time>
      </trkpt>
      <trkpt lat="45.47379" lon="6.94982">
        <ele>1787</ele>
        <time>2021-07-23T09:40:39.285Z</time>
      </trkpt>
      <trkpt lat="45.47378" lon="6.94984">
        <ele>1787</ele>
        <time>2021-07-23T09:40:40.285Z</time>
      </trkpt>
      <trkpt lat="45.47376" lon="6.94987">
        <ele>1787</ele>
        <time>2021-07-23T09:40:41.285Z</time>
      </trkpt>
      <trkpt lat="45.47376" lon="6.9499">
        <ele>1787</ele>
        <time>2021-07-23T09:40:42.285Z</time>
      </trkpt>
      <trkpt lat="45.47375" lon="6.94993">
        <ele>1787</ele>
        <time>2021-07-23T09:40:43.285Z</time>
      </trkpt>
      <trkpt lat="45.47377" lon="6.94997">
        <ele>1787</ele>
        <time>2021-07-23T09:40:44.285Z</time>
      </trkpt>
      <trkpt lat="45.47376" lon="6.95004">
        <ele>1787</ele>
        <time>2021-07-23T09:40:45.285Z</time>
      </trkpt>
      <trkpt lat="45.47376" lon="6.9501">
        <ele>1787</ele>
        <time>2021-07-23T09:40:46.285Z</time>
      </trkpt>
      <trkpt lat="45.47374" lon="6.95017">
        <ele>1787</ele>
        <time>2021-07-23T09:40:47.285Z</time>
      </trkpt>
      <trkpt lat="45.47373" lon="6.95024">
        <ele>1787</ele>
        <time>2021-07-23T09:40:48.285Z</time>
      </trkpt>
      <trkpt lat="45.47371" lon="6.95031">
        <ele>1787</ele>
        <time>2021-07-23T09:40:49.285Z</time>
      </trkpt>
      <trkpt lat="45.4737" lon="6.95038">
        <ele>1787</ele>
        <time>2021-07-23T09:40:50.285Z</time>
      </trkpt>
      <trkpt lat="45.47369" lon="6.95045">
        <ele>1787</ele>
        <time>2021-07-23T09:40:51.285Z</time>
      </trkpt>
      <trkpt lat="45.47367" lon="6.95048">
        <ele>1787</ele>
        <time>2021-07-23T09:40:52.285Z</time>
      </trkpt>
      <trkpt lat="45.47366" lon="6.95051">
        <ele>1787</ele>
        <time>2021-07-23T09:40:53.285Z</time>
      </trkpt>
      <trkpt lat="45.47364" lon="6.95054">
        <ele>1787</ele>
        <time>2021-07-23T09:40:54.285Z</time>
      </trkpt>
      <trkpt lat="45.47362" lon="6.95057">
        <ele>1787</ele>
        <time>2021-07-23T09:40:55.285Z</time>
      </trkpt>
      <trkpt lat="45.47361" lon="6.95061">
        <ele>1787</ele>
        <time>2021-07-23T09:40:56.285Z</time>
      </trkpt>
      <trkpt lat="45.47359" lon="6.95064">
        <ele>1787</ele>
        <time>2021-07-23T09:40:57.285Z</time>
      </trkpt>
      <trkpt lat="45.47358" lon="6.95067">
        <ele>1787</ele>
        <time>2021-07-23T09:40:58.285Z</time>
      </trkpt>
      <trkpt lat="45.47356" lon="6.9507">
        <ele>1787</ele>
        <time>2021-07-23T09:40:59.285Z</time>
      </trkpt>
      <trkpt lat="45.47354" lon="6.95073">
        <ele>1787</ele>
        <time>2021-07-23T09:41:00.285Z</time>
      </trkpt>
      <trkpt lat="45.47353" lon="6.95076">
        <ele>1787</ele>
        <time>2021-07-23T09:41:01.285Z</time>
      </trkpt>
      <trkpt lat="45.47351" lon="6.95079">
        <ele>1787</ele>
        <time>2021-07-23T09:41:02.285Z</time>
      </trkpt>
      <trkpt lat="45.4735" lon="6.95082">
        <ele>1787</ele>
        <time>2021-07-23T09:41:03.285Z</time>
      </trkpt>
      <trkpt lat="45.47348" lon="6.95086">
        <ele>1787</ele>
        <time>2021-07-23T09:41:04.285Z</time>
      </trkpt>
      <trkpt lat="45.47346" lon="6.95089">
        <ele>1787</ele>
        <time>2021-07-23T09:41:05.285Z</time>
      </trkpt>
      <trkpt lat="45.47345" lon="6.95092">
        <ele>1787</ele>
        <time>2021-07-23T09:41:06.285Z</time>
      </trkpt>
      <trkpt lat="45.47343" lon="6.95095">
        <ele>1787</ele>
        <time>2021-07-23T09:41:07.285Z</time>
      </trkpt>
      <trkpt lat="45.47342" lon="6.95098">
        <ele>1787</ele>
        <time>2021-07-23T09:41:08.285Z</time>
      </trkpt>
      <trkpt lat="45.4734" lon="6.95101">
        <ele>1787</ele>
        <time>2021-07-23T09:41:09.285Z</time>
      </trkpt>
      <trkpt lat="45.47339" lon="6.95104">
        <ele>1787</ele>
        <time>2021-07-23T09:41:10.285Z</time>
      </trkpt>
      <trkpt lat="45.47337" lon="6.95107">
        <ele>1787</ele>
        <time>2021-07-23T09:41:11.285Z</time>
      </trkpt>
      <trkpt lat="45.47335" lon="6.9511">
        <ele>1787.4</ele>
        <time>2021-07-23T09:41:12.285Z</time>
      </trkpt>
      <trkpt lat="45.47334" lon="6.95114">
        <ele>1787.8</ele>
        <time>2021-07-23T09:41:13.285Z</time>
      </trkpt>
      <trkpt lat="45.47332" lon="6.95117">
        <ele>1788.8</ele>
        <time>2021-07-23T09:41:14.285Z</time>
      </trkpt>
      <trkpt lat="45.47331" lon="6.9512">
        <ele>1789.2</ele>
        <time>2021-07-23T09:41:15.285Z</time>
      </trkpt>
      <trkpt lat="45.47329" lon="6.95123">
        <ele>1789.2</ele>
        <time>2021-07-23T09:41:16.285Z</time>
      </trkpt>
      <trkpt lat="45.47327" lon="6.95126">
        <ele>1789.2</ele>
        <time>2021-07-23T09:41:17.285Z</time>
      </trkpt>
      <trkpt lat="45.47326" lon="6.95129">
        <ele>1789.2</ele>
        <time>2021-07-23T09:41:18.285Z</time>
      </trkpt>
      <trkpt lat="45.47324" lon="6.95132">
        <ele>1789.2</ele>
        <time>2021-07-23T09:41:19.285Z</time>
      </trkpt>
      <trkpt lat="45.47323" lon="6.95135">
        <ele>1789.2</ele>
        <time>2021-07-23T09:41:20.285Z</time>
      </trkpt>
      <trkpt lat="45.47321" lon="6.95138">
        <ele>1789.2</ele>
        <time>2021-07-23T09:41:21.285Z</time>
      </trkpt>
      <trkpt lat="45.47319" lon="6.95142">
        <ele>1789.2</ele>
        <time>2021-07-23T09:41:22.285Z</time>
      </trkpt>
      <trkpt lat="45.47318" lon="6.95145">
        <ele>1789.2</ele>
        <time>2021-07-23T09:41:23.285Z</time>
      </trkpt>
      <trkpt lat="45.47316" lon="6.95148">
        <ele>1788.8</ele>
        <time>2021-07-23T09:41:24.285Z</time>
      </trkpt>
      <trkpt lat="45.47315" lon="6.95151">
        <ele>1788.4</ele>
        <time>2021-07-23T09:41:25.285Z</time>
      </trkpt>
      <trkpt lat="45.47313" lon="6.95154">
        <ele>1787.8</ele>
        <time>2021-07-23T09:41:26.285Z</time>
      </trkpt>
      <trkpt lat="45.47311" lon="6.95157">
        <ele>1787.4</ele>
        <time>2021-07-23T09:41:27.285Z</time>
      </trkpt>
      <trkpt lat="45.4731" lon="6.9516">
        <ele>1787</ele>
        <time>2021-07-23T09:41:28.285Z</time>
      </trkpt>
      <trkpt lat="45.47308" lon="6.95163">
        <ele>1787</ele>
        <time>2021-07-23T09:41:29.285Z</time>
      </trkpt>
      <trkpt lat="45.47307" lon="6.95166">
        <ele>1787</ele>
        <time>2021-07-23T09:41:30.285Z</time>
      </trkpt>
      <trkpt lat="45.47305" lon="6.9517">
        <ele>1787</ele>
        <time>2021-07-23T09:41:31.285Z</time>
      </trkpt>
      <trkpt lat="45.47303" lon="6.95173">
        <ele>1786.6</ele>
        <time>2021-07-23T09:41:32.285Z</time>
      </trkpt>
      <trkpt lat="45.47294" lon="6.95191">
        <ele>1786</ele>
        <time>2021-07-23T09:41:33.285Z</time>
      </trkpt>
      <trkpt lat="45.47201" lon="6.95373">
        <ele>1785.6</ele>
        <time>2021-07-23T09:41:34.285Z</time>
      </trkpt>
      <trkpt lat="45.47198" lon="6.95381">
        <ele>1785.2</ele>
        <time>2021-07-23T09:41:35.285Z</time>
      </trkpt>
      <trkpt lat="45.47196" lon="6.95388">
        <ele>1784.8</ele>
        <time>2021-07-23T09:41:36.285Z</time>
      </trkpt>
      <trkpt lat="45.47192" lon="6.95397">
        <ele>1784.8</ele>
        <time>2021-07-23T09:41:37.285Z</time>
      </trkpt>
      <trkpt lat="45.47189" lon="6.95405">
        <ele>1784.8</ele>
        <time>2021-07-23T09:41:38.285Z</time>
      </trkpt>
      <trkpt lat="45.47186" lon="6.95413">
        <ele>1784.8</ele>
        <time>2021-07-23T09:41:39.285Z</time>
      </trkpt>
      <trkpt lat="45.47182" lon="6.95421">
        <ele>1784.8</ele>
        <time>2021-07-23T09:41:40.285Z</time>
      </trkpt>
      <trkpt lat="45.47179" lon="6.95429">
        <ele>1784.8</ele>
        <time>2021-07-23T09:41:41.285Z</time>
      </trkpt>
      <trkpt lat="45.47178" lon="6.95431">
        <ele>1784.8</ele>
        <time>2021-07-23T09:41:42.285Z</time>
      </trkpt>
      <trkpt lat="45.47176" lon="6.95432">
        <ele>1784.8</ele>
        <time>2021-07-23T09:41:43.285Z</time>
      </trkpt>
      <trkpt lat="45.47174" lon="6.95434">
        <ele>1784.8</ele>
        <time>2021-07-23T09:41:44.285Z</time>
      </trkpt>
      <trkpt lat="45.47173" lon="6.95436">
        <ele>1784.8</ele>
        <time>2021-07-23T09:41:45.285Z</time>
      </trkpt>
      <trkpt lat="45.47171" lon="6.95438">
        <ele>1784.8</ele>
        <time>2021-07-23T09:41:46.285Z</time>
      </trkpt>
      <trkpt lat="45.47169" lon="6.9544">
        <ele>1785.2</ele>
        <time>2021-07-23T09:41:47.285Z</time>
      </trkpt>
      <trkpt lat="45.47168" lon="6.95442">
        <ele>1785.6</ele>
        <time>2021-07-23T09:41:48.285Z</time>
      </trkpt>
      <trkpt lat="45.47166" lon="6.95443">
        <ele>1786</ele>
        <time>2021-07-23T09:41:49.285Z</time>
      </trkpt>
      <trkpt lat="45.47165" lon="6.95445">
        <ele>1786.6</ele>
        <time>2021-07-23T09:41:50.285Z</time>
      </trkpt>
      <trkpt lat="45.47163" lon="6.95447">
        <ele>1787</ele>
        <time>2021-07-23T09:41:51.285Z</time>
      </trkpt>
      <trkpt lat="45.47161" lon="6.95449">
        <ele>1787</ele>
        <time>2021-07-23T09:41:52.285Z</time>
      </trkpt>
      <trkpt lat="45.4716" lon="6.95451">
        <ele>1787</ele>
        <time>2021-07-23T09:41:53.285Z</time>
      </trkpt>
      <trkpt lat="45.47158" lon="6.95452">
        <ele>1787</ele>
        <time>2021-07-23T09:41:54.285Z</time>
      </trkpt>
      <trkpt lat="45.47157" lon="6.95454">
        <ele>1787</ele>
        <time>2021-07-23T09:41:55.285Z</time>
      </trkpt>
      <trkpt lat="45.47155" lon="6.95456">
        <ele>1787.4</ele>
        <time>2021-07-23T09:41:56.285Z</time>
      </trkpt>
      <trkpt lat="45.47153" lon="6.95458">
        <ele>1787.8</ele>
        <time>2021-07-23T09:41:57.285Z</time>
      </trkpt>
      <trkpt lat="45.47152" lon="6.9546">
        <ele>1788.2</ele>
        <time>2021-07-23T09:41:58.285Z</time>
      </trkpt>
      <trkpt lat="45.4715" lon="6.95462">
        <ele>1788.6</ele>
        <time>2021-07-23T09:41:59.285Z</time>
      </trkpt>
      <trkpt lat="45.47149" lon="6.95463">
        <ele>1789</ele>
        <time>2021-07-23T09:42:00.285Z</time>
      </trkpt>
      <trkpt lat="45.47147" lon="6.95465">
        <ele>1789</ele>
        <time>2021-07-23T09:42:01.285Z</time>
      </trkpt>
      <trkpt lat="45.47145" lon="6.95467">
        <ele>1789</ele>
        <time>2021-07-23T09:42:02.285Z</time>
      </trkpt>
      <trkpt lat="45.47144" lon="6.95469">
        <ele>1789.6</ele>
        <time>2021-07-23T09:42:03.285Z</time>
      </trkpt>
      <trkpt lat="45.47142" lon="6.95471">
        <ele>1790</ele>
        <time>2021-07-23T09:42:04.285Z</time>
      </trkpt>
      <trkpt lat="45.4714" lon="6.95472">
        <ele>1790.4</ele>
        <time>2021-07-23T09:42:05.285Z</time>
      </trkpt>
      <trkpt lat="45.47139" lon="6.95474">
        <ele>1790.8</ele>
        <time>2021-07-23T09:42:06.285Z</time>
      </trkpt>
      <trkpt lat="45.47137" lon="6.95476">
        <ele>1791.2</ele>
        <time>2021-07-23T09:42:07.285Z</time>
      </trkpt>
      <trkpt lat="45.47136" lon="6.95478">
        <ele>1791.2</ele>
        <time>2021-07-23T09:42:08.285Z</time>
      </trkpt>
      <trkpt lat="45.47134" lon="6.9548">
        <ele>1791.2</ele>
        <time>2021-07-23T09:42:09.285Z</time>
      </trkpt>
      <trkpt lat="45.47132" lon="6.95481">
        <ele>1791.2</ele>
        <time>2021-07-23T09:42:10.285Z</time>
      </trkpt>
      <trkpt lat="45.47131" lon="6.95483">
        <ele>1791.6</ele>
        <time>2021-07-23T09:42:11.285Z</time>
      </trkpt>
      <trkpt lat="45.47129" lon="6.95485">
        <ele>1792</ele>
        <time>2021-07-23T09:42:12.285Z</time>
      </trkpt>
      <trkpt lat="45.47128" lon="6.95487">
        <ele>1792.4</ele>
        <time>2021-07-23T09:42:13.285Z</time>
      </trkpt>
      <trkpt lat="45.47126" lon="6.95489">
        <ele>1792.8</ele>
        <time>2021-07-23T09:42:14.285Z</time>
      </trkpt>
      <trkpt lat="45.47124" lon="6.95491">
        <ele>1793.2</ele>
        <time>2021-07-23T09:42:15.285Z</time>
      </trkpt>
      <trkpt lat="45.47123" lon="6.95492">
        <ele>1793.2</ele>
        <time>2021-07-23T09:42:16.285Z</time>
      </trkpt>
      <trkpt lat="45.47121" lon="6.95494">
        <ele>1793.2</ele>
        <time>2021-07-23T09:42:17.285Z</time>
      </trkpt>
      <trkpt lat="45.4712" lon="6.95496">
        <ele>1793.2</ele>
        <time>2021-07-23T09:42:18.285Z</time>
      </trkpt>
      <trkpt lat="45.47118" lon="6.95498">
        <ele>1793.2</ele>
        <time>2021-07-23T09:42:19.285Z</time>
      </trkpt>
      <trkpt lat="45.47116" lon="6.955">
        <ele>1793.2</ele>
        <time>2021-07-23T09:42:20.285Z</time>
      </trkpt>
      <trkpt lat="45.47115" lon="6.95501">
        <ele>1793.8</ele>
        <time>2021-07-23T09:42:21.285Z</time>
      </trkpt>
      <trkpt lat="45.47113" lon="6.95503">
        <ele>1794.2</ele>
        <time>2021-07-23T09:42:22.285Z</time>
      </trkpt>
      <trkpt lat="45.47111" lon="6.95505">
        <ele>1794.8</ele>
        <time>2021-07-23T09:42:23.285Z</time>
      </trkpt>
      <trkpt lat="45.4711" lon="6.95507">
        <ele>1795.2</ele>
        <time>2021-07-23T09:42:24.285Z</time>
      </trkpt>
      <trkpt lat="45.47108" lon="6.95509">
        <ele>1795.6</ele>
        <time>2021-07-23T09:42:25.285Z</time>
      </trkpt>
      <trkpt lat="45.47107" lon="6.95511">
        <ele>1795.6</ele>
        <time>2021-07-23T09:42:26.285Z</time>
      </trkpt>
      <trkpt lat="45.47105" lon="6.95512">
        <ele>1795.6</ele>
        <time>2021-07-23T09:42:27.285Z</time>
      </trkpt>
      <trkpt lat="45.47103" lon="6.95514">
        <ele>1795.6</ele>
        <time>2021-07-23T09:42:28.285Z</time>
      </trkpt>
      <trkpt lat="45.47102" lon="6.95516">
        <ele>1795.6</ele>
        <time>2021-07-23T09:42:29.285Z</time>
      </trkpt>
      <trkpt lat="45.471" lon="6.95518">
        <ele>1795.6</ele>
        <time>2021-07-23T09:42:30.285Z</time>
      </trkpt>
      <trkpt lat="45.47099" lon="6.9552">
        <ele>1796</ele>
        <time>2021-07-23T09:42:31.285Z</time>
      </trkpt>
      <trkpt lat="45.47097" lon="6.95521">
        <ele>1796.6</ele>
        <time>2021-07-23T09:42:32.285Z</time>
      </trkpt>
      <trkpt lat="45.47095" lon="6.95523">
        <ele>1797</ele>
        <time>2021-07-23T09:42:33.285Z</time>
      </trkpt>
      <trkpt lat="45.47094" lon="6.95525">
        <ele>1797.4</ele>
        <time>2021-07-23T09:42:34.285Z</time>
      </trkpt>
      <trkpt lat="45.47092" lon="6.95527">
        <ele>1797.8</ele>
        <time>2021-07-23T09:42:35.285Z</time>
      </trkpt>
      <trkpt lat="45.47091" lon="6.95529">
        <ele>1797.8</ele>
        <time>2021-07-23T09:42:36.285Z</time>
      </trkpt>
      <trkpt lat="45.47089" lon="6.95531">
        <ele>1797.8</ele>
        <time>2021-07-23T09:42:37.285Z</time>
      </trkpt>
      <trkpt lat="45.47087" lon="6.95532">
        <ele>1797.8</ele>
        <time>2021-07-23T09:42:38.285Z</time>
      </trkpt>
      <trkpt lat="45.47086" lon="6.95534">
        <ele>1798.2</ele>
        <time>2021-07-23T09:42:39.285Z</time>
      </trkpt>
      <trkpt lat="45.47084" lon="6.95536">
        <ele>1798.6</ele>
        <time>2021-07-23T09:42:40.285Z</time>
      </trkpt>
      <trkpt lat="45.47082" lon="6.95538">
        <ele>1799</ele>
        <time>2021-07-23T09:42:41.285Z</time>
      </trkpt>
      <trkpt lat="45.47081" lon="6.9554">
        <ele>1799.4</ele>
        <time>2021-07-23T09:42:42.285Z</time>
      </trkpt>
      <trkpt lat="45.47079" lon="6.95541">
        <ele>1800</ele>
        <time>2021-07-23T09:42:43.285Z</time>
      </trkpt>
      <trkpt lat="45.47078" lon="6.95543">
        <ele>1800</ele>
        <time>2021-07-23T09:42:44.285Z</time>
      </trkpt>
      <trkpt lat="45.47076" lon="6.95545">
        <ele>1800</ele>
        <time>2021-07-23T09:42:45.285Z</time>
      </trkpt>
      <trkpt lat="45.47074" lon="6.95547">
        <ele>1800</ele>
        <time>2021-07-23T09:42:46.285Z</time>
      </trkpt>
      <trkpt lat="45.47073" lon="6.95549">
        <ele>1800</ele>
        <time>2021-07-23T09:42:47.285Z</time>
      </trkpt>
      <trkpt lat="45.47071" lon="6.9555">
        <ele>1800</ele>
        <time>2021-07-23T09:42:48.285Z</time>
      </trkpt>
      <trkpt lat="45.4707" lon="6.95552">
        <ele>1800</ele>
        <time>2021-07-23T09:42:49.285Z</time>
      </trkpt>
      <trkpt lat="45.47068" lon="6.95554">
        <ele>1800.4</ele>
        <time>2021-07-23T09:42:50.285Z</time>
      </trkpt>
      <trkpt lat="45.47066" lon="6.95556">
        <ele>1800.8</ele>
        <time>2021-07-23T09:42:51.285Z</time>
      </trkpt>
      <trkpt lat="45.47065" lon="6.95558">
        <ele>1801.8</ele>
        <time>2021-07-23T09:42:52.285Z</time>
      </trkpt>
      <trkpt lat="45.47063" lon="6.9556">
        <ele>1802.2</ele>
        <time>2021-07-23T09:42:53.285Z</time>
      </trkpt>
      <trkpt lat="45.47062" lon="6.95561">
        <ele>1802.2</ele>
        <time>2021-07-23T09:42:54.285Z</time>
      </trkpt>
      <trkpt lat="45.4706" lon="6.95563">
        <ele>1802.2</ele>
        <time>2021-07-23T09:42:55.285Z</time>
      </trkpt>
      <trkpt lat="45.47058" lon="6.95565">
        <ele>1802.2</ele>
        <time>2021-07-23T09:42:56.285Z</time>
      </trkpt>
      <trkpt lat="45.47057" lon="6.95567">
        <ele>1802.2</ele>
        <time>2021-07-23T09:42:57.285Z</time>
      </trkpt>
      <trkpt lat="45.47055" lon="6.95569">
        <ele>1802.2</ele>
        <time>2021-07-23T09:42:58.285Z</time>
      </trkpt>
      <trkpt lat="45.47053" lon="6.9557">
        <ele>1802.2</ele>
        <time>2021-07-23T09:42:59.285Z</time>
      </trkpt>
      <trkpt lat="45.47052" lon="6.95572">
        <ele>1802.6</ele>
        <time>2021-07-23T09:43:00.285Z</time>
      </trkpt>
      <trkpt lat="45.4705" lon="6.95574">
        <ele>1803</ele>
        <time>2021-07-23T09:43:01.285Z</time>
      </trkpt>
      <trkpt lat="45.47049" lon="6.95576">
        <ele>1803.6</ele>
        <time>2021-07-23T09:43:02.285Z</time>
      </trkpt>
      <trkpt lat="45.47047" lon="6.95578">
        <ele>1804</ele>
        <time>2021-07-23T09:43:03.285Z</time>
      </trkpt>
      <trkpt lat="45.47045" lon="6.9558">
        <ele>1804.4</ele>
        <time>2021-07-23T09:43:04.285Z</time>
      </trkpt>
      <trkpt lat="45.47044" lon="6.95581">
        <ele>1804.4</ele>
        <time>2021-07-23T09:43:05.285Z</time>
      </trkpt>
      <trkpt lat="45.47042" lon="6.95583">
        <ele>1804.4</ele>
        <time>2021-07-23T09:43:06.285Z</time>
      </trkpt>
      <trkpt lat="45.47041" lon="6.95585">
        <ele>1804.4</ele>
        <time>2021-07-23T09:43:07.285Z</time>
      </trkpt>
      <trkpt lat="45.47039" lon="6.95587">
        <ele>1804.4</ele>
        <time>2021-07-23T09:43:08.285Z</time>
      </trkpt>
      <trkpt lat="45.47037" lon="6.95589">
        <ele>1804.4</ele>
        <time>2021-07-23T09:43:09.285Z</time>
      </trkpt>
      <trkpt lat="45.47036" lon="6.9559">
        <ele>1804.4</ele>
        <time>2021-07-23T09:43:10.285Z</time>
      </trkpt>
      <trkpt lat="45.47034" lon="6.95592">
        <ele>1804.4</ele>
        <time>2021-07-23T09:43:11.285Z</time>
      </trkpt>
      <trkpt lat="45.47033" lon="6.95594">
        <ele>1804.4</ele>
        <time>2021-07-23T09:43:12.285Z</time>
      </trkpt>
      <trkpt lat="45.47031" lon="6.95596">
        <ele>1804.4</ele>
        <time>2021-07-23T09:43:13.285Z</time>
      </trkpt>
      <trkpt lat="45.47029" lon="6.95598">
        <ele>1804.4</ele>
        <time>2021-07-23T09:43:14.285Z</time>
      </trkpt>
      <trkpt lat="45.47028" lon="6.95599">
        <ele>1804.8</ele>
        <time>2021-07-23T09:43:15.285Z</time>
      </trkpt>
      <trkpt lat="45.47026" lon="6.95601">
        <ele>1805.2</ele>
        <time>2021-07-23T09:43:16.285Z</time>
      </trkpt>
      <trkpt lat="45.47024" lon="6.95603">
        <ele>1806</ele>
        <time>2021-07-23T09:43:17.285Z</time>
      </trkpt>
      <trkpt lat="45.47023" lon="6.95605">
        <ele>1806.4</ele>
        <time>2021-07-23T09:43:18.285Z</time>
      </trkpt>
      <trkpt lat="45.47021" lon="6.95607">
        <ele>1806.4</ele>
        <time>2021-07-23T09:43:19.285Z</time>
      </trkpt>
      <trkpt lat="45.4702" lon="6.95609">
        <ele>1806.4</ele>
        <time>2021-07-23T09:43:20.285Z</time>
      </trkpt>
      <trkpt lat="45.47018" lon="6.9561">
        <ele>1806.4</ele>
        <time>2021-07-23T09:43:21.285Z</time>
      </trkpt>
      <trkpt lat="45.47016" lon="6.95612">
        <ele>1806.4</ele>
        <time>2021-07-23T09:43:22.285Z</time>
      </trkpt>
      <trkpt lat="45.47015" lon="6.95614">
        <ele>1806.4</ele>
        <time>2021-07-23T09:43:23.285Z</time>
      </trkpt>
      <trkpt lat="45.47013" lon="6.95616">
        <ele>1806.4</ele>
        <time>2021-07-23T09:43:24.285Z</time>
      </trkpt>
      <trkpt lat="45.47012" lon="6.95618">
        <ele>1806.4</ele>
        <time>2021-07-23T09:43:25.285Z</time>
      </trkpt>
      <trkpt lat="45.4701" lon="6.95619">
        <ele>1806.4</ele>
        <time>2021-07-23T09:43:26.285Z</time>
      </trkpt>
      <trkpt lat="45.47008" lon="6.95621">
        <ele>1806.4</ele>
        <time>2021-07-23T09:43:27.285Z</time>
      </trkpt>
      <trkpt lat="45.47007" lon="6.95623">
        <ele>1806.4</ele>
        <time>2021-07-23T09:43:28.285Z</time>
      </trkpt>
      <trkpt lat="45.47005" lon="6.95625">
        <ele>1806.4</ele>
        <time>2021-07-23T09:43:29.285Z</time>
      </trkpt>
      <trkpt lat="45.47004" lon="6.95627">
        <ele>1806.4</ele>
        <time>2021-07-23T09:43:30.285Z</time>
      </trkpt>
      <trkpt lat="45.47002" lon="6.95629">
        <ele>1806.4</ele>
        <time>2021-07-23T09:43:31.285Z</time>
      </trkpt>
      <trkpt lat="45.47" lon="6.9563">
        <ele>1806.4</ele>
        <time>2021-07-23T09:43:32.285Z</time>
      </trkpt>
      <trkpt lat="45.46999" lon="6.95632">
        <ele>1806.4</ele>
        <time>2021-07-23T09:43:33.285Z</time>
      </trkpt>
      <trkpt lat="45.46997" lon="6.95634">
        <ele>1806.4</ele>
        <time>2021-07-23T09:43:34.285Z</time>
      </trkpt>
      <trkpt lat="45.46995" lon="6.95636">
        <ele>1806.4</ele>
        <time>2021-07-23T09:43:35.285Z</time>
      </trkpt>
      <trkpt lat="45.46994" lon="6.95638">
        <ele>1806.4</ele>
        <time>2021-07-23T09:43:36.285Z</time>
      </trkpt>
      <trkpt lat="45.46992" lon="6.95639">
        <ele>1806.4</ele>
        <time>2021-07-23T09:43:37.285Z</time>
      </trkpt>
      <trkpt lat="45.46991" lon="6.95641">
        <ele>1806.4</ele>
        <time>2021-07-23T09:43:38.285Z</time>
      </trkpt>
      <trkpt lat="45.46989" lon="6.95643">
        <ele>1806.4</ele>
        <time>2021-07-23T09:43:39.285Z</time>
      </trkpt>
      <trkpt lat="45.46987" lon="6.95645">
        <ele>1806.4</ele>
        <time>2021-07-23T09:43:40.285Z</time>
      </trkpt>
      <trkpt lat="45.46986" lon="6.95647">
        <ele>1806.4</ele>
        <time>2021-07-23T09:43:41.285Z</time>
      </trkpt>
      <trkpt lat="45.46984" lon="6.95648">
        <ele>1806.4</ele>
        <time>2021-07-23T09:43:42.285Z</time>
      </trkpt>
      <trkpt lat="45.46983" lon="6.9565">
        <ele>1806.4</ele>
        <time>2021-07-23T09:43:43.285Z</time>
      </trkpt>
      <trkpt lat="45.46981" lon="6.95652">
        <ele>1806.4</ele>
        <time>2021-07-23T09:43:44.285Z</time>
      </trkpt>
      <trkpt lat="45.46979" lon="6.95654">
        <ele>1806.4</ele>
        <time>2021-07-23T09:43:45.285Z</time>
      </trkpt>
      <trkpt lat="45.46978" lon="6.95656">
        <ele>1806.4</ele>
        <time>2021-07-23T09:43:46.285Z</time>
      </trkpt>
      <trkpt lat="45.46976" lon="6.95658">
        <ele>1806.4</ele>
        <time>2021-07-23T09:43:47.285Z</time>
      </trkpt>
      <trkpt lat="45.46975" lon="6.95659">
        <ele>1806.4</ele>
        <time>2021-07-23T09:43:48.285Z</time>
      </trkpt>
      <trkpt lat="45.46973" lon="6.95661">
        <ele>1806.4</ele>
        <time>2021-07-23T09:43:49.285Z</time>
      </trkpt>
      <trkpt lat="45.46971" lon="6.95663">
        <ele>1806.4</ele>
        <time>2021-07-23T09:43:50.285Z</time>
      </trkpt>
      <trkpt lat="45.4697" lon="6.95665">
        <ele>1806.4</ele>
        <time>2021-07-23T09:43:51.285Z</time>
      </trkpt>
      <trkpt lat="45.46968" lon="6.95667">
        <ele>1806.4</ele>
        <time>2021-07-23T09:43:52.285Z</time>
      </trkpt>
      <trkpt lat="45.46966" lon="6.95668">
        <ele>1806</ele>
        <time>2021-07-23T09:43:53.285Z</time>
      </trkpt>
      <trkpt lat="45.46965" lon="6.9567">
        <ele>1805.6</ele>
        <time>2021-07-23T09:43:54.285Z</time>
      </trkpt>
      <trkpt lat="45.46963" lon="6.95672">
        <ele>1805.2</ele>
        <time>2021-07-23T09:43:55.285Z</time>
      </trkpt>
      <trkpt lat="45.46962" lon="6.95674">
        <ele>1804.8</ele>
        <time>2021-07-23T09:43:56.285Z</time>
      </trkpt>
      <trkpt lat="45.4696" lon="6.95676">
        <ele>1804.4</ele>
        <time>2021-07-23T09:43:57.285Z</time>
      </trkpt>
      <trkpt lat="45.46944" lon="6.95694">
        <ele>1804.4</ele>
        <time>2021-07-23T09:43:58.285Z</time>
      </trkpt>
      <trkpt lat="45.46678" lon="6.95994">
        <ele>1804.4</ele>
        <time>2021-07-23T09:43:59.285Z</time>
      </trkpt>
      <trkpt lat="45.4667" lon="6.96002">
        <ele>1804</ele>
        <time>2021-07-23T09:44:00.285Z</time>
      </trkpt>
      <trkpt lat="45.46661" lon="6.96009">
        <ele>1803.4</ele>
        <time>2021-07-23T09:44:01.285Z</time>
      </trkpt>
      <trkpt lat="45.46654" lon="6.96018">
        <ele>1803</ele>
        <time>2021-07-23T09:44:02.285Z</time>
      </trkpt>
      <trkpt lat="45.46646" lon="6.96027">
        <ele>1802.6</ele>
        <time>2021-07-23T09:44:03.285Z</time>
      </trkpt>
      <trkpt lat="45.46639" lon="6.96036">
        <ele>1802</ele>
        <time>2021-07-23T09:44:04.285Z</time>
      </trkpt>
      <trkpt lat="45.4663" lon="6.96045">
        <ele>1801.6</ele>
        <time>2021-07-23T09:44:05.285Z</time>
      </trkpt>
      <trkpt lat="45.46622" lon="6.96054">
        <ele>1800.6</ele>
        <time>2021-07-23T09:44:06.285Z</time>
      </trkpt>
      <trkpt lat="45.46613" lon="6.96063">
        <ele>1800.2</ele>
        <time>2021-07-23T09:44:07.285Z</time>
      </trkpt>
      <trkpt lat="45.46606" lon="6.96072">
        <ele>1799.8</ele>
        <time>2021-07-23T09:44:08.285Z</time>
      </trkpt>
      <trkpt lat="45.46598" lon="6.96082">
        <ele>1799.4</ele>
        <time>2021-07-23T09:44:09.285Z</time>
      </trkpt>
      <trkpt lat="45.4659" lon="6.96091">
        <ele>1799</ele>
        <time>2021-07-23T09:44:10.285Z</time>
      </trkpt>
      <trkpt lat="45.46583" lon="6.961">
        <ele>1798.4</ele>
        <time>2021-07-23T09:44:11.285Z</time>
      </trkpt>
      <trkpt lat="45.46575" lon="6.9611">
        <ele>1798</ele>
        <time>2021-07-23T09:44:12.285Z</time>
      </trkpt>
      <trkpt lat="45.46567" lon="6.9612">
        <ele>1797.6</ele>
        <time>2021-07-23T09:44:13.285Z</time>
      </trkpt>
      <trkpt lat="45.46559" lon="6.96129">
        <ele>1797.6</ele>
        <time>2021-07-23T09:44:14.285Z</time>
      </trkpt>
      <trkpt lat="45.46552" lon="6.96139">
        <ele>1797.2</ele>
        <time>2021-07-23T09:44:15.285Z</time>
      </trkpt>
      <trkpt lat="45.46544" lon="6.96149">
        <ele>1796.8</ele>
        <time>2021-07-23T09:44:16.285Z</time>
      </trkpt>
      <trkpt lat="45.46534" lon="6.9616">
        <ele>1796.4</ele>
        <time>2021-07-23T09:44:17.285Z</time>
      </trkpt>
      <trkpt lat="45.46526" lon="6.96168">
        <ele>1796</ele>
        <time>2021-07-23T09:44:18.285Z</time>
      </trkpt>
      <trkpt lat="45.46519" lon="6.96177">
        <ele>1795.6</ele>
        <time>2021-07-23T09:44:19.285Z</time>
      </trkpt>
      <trkpt lat="45.4651" lon="6.96185">
        <ele>1795.6</ele>
        <time>2021-07-23T09:44:20.285Z</time>
      </trkpt>
      <trkpt lat="45.46501" lon="6.96193">
        <ele>1795.6</ele>
        <time>2021-07-23T09:44:21.285Z</time>
      </trkpt>
      <trkpt lat="45.46492" lon="6.962">
        <ele>1795.6</ele>
        <time>2021-07-23T09:44:22.285Z</time>
      </trkpt>
      <trkpt lat="45.46483" lon="6.96207">
        <ele>1795.2</ele>
        <time>2021-07-23T09:44:23.285Z</time>
      </trkpt>
      <trkpt lat="45.46474" lon="6.96214">
        <ele>1794.8</ele>
        <time>2021-07-23T09:44:24.285Z</time>
      </trkpt>
      <trkpt lat="45.46465" lon="6.9622">
        <ele>1794.4</ele>
        <time>2021-07-23T09:44:25.285Z</time>
      </trkpt>
      <trkpt lat="45.46456" lon="6.96227">
        <ele>1794</ele>
        <time>2021-07-23T09:44:26.285Z</time>
      </trkpt>
      <trkpt lat="45.46448" lon="6.96234">
        <ele>1793.6</ele>
        <time>2021-07-23T09:44:27.285Z</time>
      </trkpt>
      <trkpt lat="45.46439" lon="6.9624">
        <ele>1793.6</ele>
        <time>2021-07-23T09:44:28.285Z</time>
      </trkpt>
      <trkpt lat="45.4643" lon="6.96246">
        <ele>1793.6</ele>
        <time>2021-07-23T09:44:29.285Z</time>
      </trkpt>
      <trkpt lat="45.46422" lon="6.96253">
        <ele>1793.6</ele>
        <time>2021-07-23T09:44:30.285Z</time>
      </trkpt>
      <trkpt lat="45.46413" lon="6.9626">
        <ele>1793.2</ele>
        <time>2021-07-23T09:44:31.285Z</time>
      </trkpt>
      <trkpt lat="45.46405" lon="6.96268">
        <ele>1792.8</ele>
        <time>2021-07-23T09:44:32.285Z</time>
      </trkpt>
      <trkpt lat="45.46396" lon="6.96277">
        <ele>1792.4</ele>
        <time>2021-07-23T09:44:33.285Z</time>
      </trkpt>
      <trkpt lat="45.46387" lon="6.96285">
        <ele>1792</ele>
        <time>2021-07-23T09:44:34.285Z</time>
      </trkpt>
      <trkpt lat="45.46378" lon="6.96294">
        <ele>1791.6</ele>
        <time>2021-07-23T09:44:35.285Z</time>
      </trkpt>
      <trkpt lat="45.4637" lon="6.96304">
        <ele>1791.6</ele>
        <time>2021-07-23T09:44:36.285Z</time>
      </trkpt>
      <trkpt lat="45.46361" lon="6.96313">
        <ele>1791.6</ele>
        <time>2021-07-23T09:44:37.285Z</time>
      </trkpt>
      <trkpt lat="45.46352" lon="6.96325">
        <ele>1791</ele>
        <time>2021-07-23T09:44:38.285Z</time>
      </trkpt>
      <trkpt lat="45.46344" lon="6.96337">
        <ele>1790.6</ele>
        <time>2021-07-23T09:44:39.285Z</time>
      </trkpt>
      <trkpt lat="45.46335" lon="6.96351">
        <ele>1790.2</ele>
        <time>2021-07-23T09:44:40.285Z</time>
      </trkpt>
      <trkpt lat="45.46326" lon="6.96363">
        <ele>1789.8</ele>
        <time>2021-07-23T09:44:41.285Z</time>
      </trkpt>
      <trkpt lat="45.46318" lon="6.96376">
        <ele>1789.2</ele>
        <time>2021-07-23T09:44:42.285Z</time>
      </trkpt>
      <trkpt lat="45.46308" lon="6.96387">
        <ele>1788.6</ele>
        <time>2021-07-23T09:44:43.285Z</time>
      </trkpt>
      <trkpt lat="45.46299" lon="6.96396">
        <ele>1788.2</ele>
        <time>2021-07-23T09:44:44.285Z</time>
      </trkpt>
      <trkpt lat="45.4629" lon="6.96404">
        <ele>1787.6</ele>
        <time>2021-07-23T09:44:45.285Z</time>
      </trkpt>
      <trkpt lat="45.4628" lon="6.96409">
        <ele>1787</ele>
        <time>2021-07-23T09:44:46.285Z</time>
      </trkpt>
      <trkpt lat="45.46269" lon="6.96411">
        <ele>1786.4</ele>
        <time>2021-07-23T09:44:47.285Z</time>
      </trkpt>
      <trkpt lat="45.46258" lon="6.96416">
        <ele>1785.8</ele>
        <time>2021-07-23T09:44:48.285Z</time>
      </trkpt>
      <trkpt lat="45.4625" lon="6.96424">
        <ele>1785.4</ele>
        <time>2021-07-23T09:44:49.285Z</time>
      </trkpt>
      <trkpt lat="45.4624" lon="6.96429">
        <ele>1784.8</ele>
        <time>2021-07-23T09:44:50.285Z</time>
      </trkpt>
      <trkpt lat="45.46231" lon="6.96434">
        <ele>1784.8</ele>
        <time>2021-07-23T09:44:51.285Z</time>
      </trkpt>
      <trkpt lat="45.46223" lon="6.96439">
        <ele>1784.8</ele>
        <time>2021-07-23T09:44:52.285Z</time>
      </trkpt>
      <trkpt lat="45.46214" lon="6.96444">
        <ele>1784.8</ele>
        <time>2021-07-23T09:44:53.285Z</time>
      </trkpt>
      <trkpt lat="45.46205" lon="6.96449">
        <ele>1784.8</ele>
        <time>2021-07-23T09:44:54.285Z</time>
      </trkpt>
      <trkpt lat="45.46196" lon="6.96453">
        <ele>1784.8</ele>
        <time>2021-07-23T09:44:55.285Z</time>
      </trkpt>
      <trkpt lat="45.46187" lon="6.96456">
        <ele>1784.8</ele>
        <time>2021-07-23T09:44:56.285Z</time>
      </trkpt>
      <trkpt lat="45.46178" lon="6.96459">
        <ele>1784.8</ele>
        <time>2021-07-23T09:44:57.285Z</time>
      </trkpt>
      <trkpt lat="45.4617" lon="6.96461">
        <ele>1784.8</ele>
        <time>2021-07-23T09:44:58.285Z</time>
      </trkpt>
      <trkpt lat="45.46162" lon="6.96465">
        <ele>1784.8</ele>
        <time>2021-07-23T09:44:59.285Z</time>
      </trkpt>
      <trkpt lat="45.46154" lon="6.96469">
        <ele>1784.8</ele>
        <time>2021-07-23T09:45:00.285Z</time>
      </trkpt>
      <trkpt lat="45.46146" lon="6.96474">
        <ele>1784.8</ele>
        <time>2021-07-23T09:45:01.285Z</time>
      </trkpt>
      <trkpt lat="45.46139" lon="6.9648">
        <ele>1784.8</ele>
        <time>2021-07-23T09:45:02.285Z</time>
      </trkpt>
      <trkpt lat="45.46131" lon="6.96485">
        <ele>1785.2</ele>
        <time>2021-07-23T09:45:03.285Z</time>
      </trkpt>
      <trkpt lat="45.46124" lon="6.96491">
        <ele>1785.6</ele>
        <time>2021-07-23T09:45:04.285Z</time>
      </trkpt>
      <trkpt lat="45.46117" lon="6.96496">
        <ele>1786</ele>
        <time>2021-07-23T09:45:05.285Z</time>
      </trkpt>
      <trkpt lat="45.46111" lon="6.96501">
        <ele>1786.4</ele>
        <time>2021-07-23T09:45:06.285Z</time>
      </trkpt>
      <trkpt lat="45.46104" lon="6.96506">
        <ele>1786.8</ele>
        <time>2021-07-23T09:45:07.285Z</time>
      </trkpt>
      <trkpt lat="45.46097" lon="6.96512">
        <ele>1786.8</ele>
        <time>2021-07-23T09:45:08.285Z</time>
      </trkpt>
      <trkpt lat="45.4609" lon="6.96518">
        <ele>1786.8</ele>
        <time>2021-07-23T09:45:09.285Z</time>
      </trkpt>
      <trkpt lat="45.46084" lon="6.96523">
        <ele>1786.8</ele>
        <time>2021-07-23T09:45:10.285Z</time>
      </trkpt>
      <trkpt lat="45.46077" lon="6.96529">
        <ele>1786.8</ele>
        <time>2021-07-23T09:45:11.285Z</time>
      </trkpt>
      <trkpt lat="45.4607" lon="6.96536">
        <ele>1786.8</ele>
        <time>2021-07-23T09:45:12.285Z</time>
      </trkpt>
      <trkpt lat="45.46063" lon="6.96542">
        <ele>1786.8</ele>
        <time>2021-07-23T09:45:13.285Z</time>
      </trkpt>
      <trkpt lat="45.46057" lon="6.96548">
        <ele>1786.8</ele>
        <time>2021-07-23T09:45:14.285Z</time>
      </trkpt>
      <trkpt lat="45.4605" lon="6.96554">
        <ele>1786.8</ele>
        <time>2021-07-23T09:45:15.285Z</time>
      </trkpt>
      <trkpt lat="45.46043" lon="6.96558">
        <ele>1786.8</ele>
        <time>2021-07-23T09:45:16.285Z</time>
      </trkpt>
      <trkpt lat="45.46035" lon="6.96564">
        <ele>1786.8</ele>
        <time>2021-07-23T09:45:17.285Z</time>
      </trkpt>
      <trkpt lat="45.46028" lon="6.96569">
        <ele>1786.8</ele>
        <time>2021-07-23T09:45:18.285Z</time>
      </trkpt>
      <trkpt lat="45.46021" lon="6.96575">
        <ele>1786.8</ele>
        <time>2021-07-23T09:45:19.285Z</time>
      </trkpt>
      <trkpt lat="45.46014" lon="6.96581">
        <ele>1787.2</ele>
        <time>2021-07-23T09:45:20.285Z</time>
      </trkpt>
      <trkpt lat="45.46007" lon="6.96586">
        <ele>1788</ele>
        <time>2021-07-23T09:45:21.285Z</time>
      </trkpt>
      <trkpt lat="45.46" lon="6.96592">
        <ele>1788.4</ele>
        <time>2021-07-23T09:45:22.285Z</time>
      </trkpt>
      <trkpt lat="45.45993" lon="6.96597">
        <ele>1788.8</ele>
        <time>2021-07-23T09:45:23.285Z</time>
      </trkpt>
      <trkpt lat="45.45987" lon="6.96602">
        <ele>1788.8</ele>
        <time>2021-07-23T09:45:24.285Z</time>
      </trkpt>
      <trkpt lat="45.4598" lon="6.96607">
        <ele>1788.8</ele>
        <time>2021-07-23T09:45:25.285Z</time>
      </trkpt>
      <trkpt lat="45.45972" lon="6.9661">
        <ele>1788.8</ele>
        <time>2021-07-23T09:45:26.285Z</time>
      </trkpt>
      <trkpt lat="45.45965" lon="6.96614">
        <ele>1788.8</ele>
        <time>2021-07-23T09:45:27.285Z</time>
      </trkpt>
      <trkpt lat="45.45958" lon="6.96618">
        <ele>1788.8</ele>
        <time>2021-07-23T09:45:28.285Z</time>
      </trkpt>
      <trkpt lat="45.45952" lon="6.96623">
        <ele>1788.8</ele>
        <time>2021-07-23T09:45:29.285Z</time>
      </trkpt>
      <trkpt lat="45.45946" lon="6.96629">
        <ele>1788.8</ele>
        <time>2021-07-23T09:45:30.285Z</time>
      </trkpt>
      <trkpt lat="45.45941" lon="6.96635">
        <ele>1788.8</ele>
        <time>2021-07-23T09:45:31.285Z</time>
      </trkpt>
      <trkpt lat="45.45936" lon="6.96642">
        <ele>1788.8</ele>
        <time>2021-07-23T09:45:32.285Z</time>
      </trkpt>
      <trkpt lat="45.4593" lon="6.96648">
        <ele>1788.8</ele>
        <time>2021-07-23T09:45:33.285Z</time>
      </trkpt>
      <trkpt lat="45.45924" lon="6.96653">
        <ele>1788.8</ele>
        <time>2021-07-23T09:45:34.285Z</time>
      </trkpt>
      <trkpt lat="45.45918" lon="6.96658">
        <ele>1788.8</ele>
        <time>2021-07-23T09:45:35.285Z</time>
      </trkpt>
      <trkpt lat="45.45912" lon="6.96663">
        <ele>1788.8</ele>
        <time>2021-07-23T09:45:36.285Z</time>
      </trkpt>
      <trkpt lat="45.45907" lon="6.96667">
        <ele>1788.8</ele>
        <time>2021-07-23T09:45:37.285Z</time>
      </trkpt>
      <trkpt lat="45.459" lon="6.96671">
        <ele>1789.4</ele>
        <time>2021-07-23T09:45:38.285Z</time>
      </trkpt>
      <trkpt lat="45.45895" lon="6.96676">
        <ele>1789.8</ele>
        <time>2021-07-23T09:45:39.285Z</time>
      </trkpt>
      <trkpt lat="45.4589" lon="6.96681">
        <ele>1790.2</ele>
        <time>2021-07-23T09:45:40.285Z</time>
      </trkpt>
      <trkpt lat="45.45884" lon="6.96686">
        <ele>1790.8</ele>
        <time>2021-07-23T09:45:41.285Z</time>
      </trkpt>
      <trkpt lat="45.45878" lon="6.96691">
        <ele>1791.2</ele>
        <time>2021-07-23T09:45:42.285Z</time>
      </trkpt>
      <trkpt lat="45.45872" lon="6.96695">
        <ele>1791.2</ele>
        <time>2021-07-23T09:45:43.285Z</time>
      </trkpt>
      <trkpt lat="45.45867" lon="6.96701">
        <ele>1791.2</ele>
        <time>2021-07-23T09:45:44.285Z</time>
      </trkpt>
      <trkpt lat="45.45861" lon="6.96705">
        <ele>1791.2</ele>
        <time>2021-07-23T09:45:45.285Z</time>
      </trkpt>
      <trkpt lat="45.45856" lon="6.9671">
        <ele>1791.2</ele>
        <time>2021-07-23T09:45:46.285Z</time>
      </trkpt>
      <trkpt lat="45.4585" lon="6.96714">
        <ele>1791.2</ele>
        <time>2021-07-23T09:45:47.285Z</time>
      </trkpt>
      <trkpt lat="45.45844" lon="6.96718">
        <ele>1791.2</ele>
        <time>2021-07-23T09:45:48.285Z</time>
      </trkpt>
      <trkpt lat="45.45839" lon="6.96723">
        <ele>1791.2</ele>
        <time>2021-07-23T09:45:49.285Z</time>
      </trkpt>
      <trkpt lat="45.45833" lon="6.96728">
        <ele>1791.2</ele>
        <time>2021-07-23T09:45:50.285Z</time>
      </trkpt>
      <trkpt lat="45.45827" lon="6.96733">
        <ele>1791.2</ele>
        <time>2021-07-23T09:45:51.285Z</time>
      </trkpt>
      <trkpt lat="45.45821" lon="6.96738">
        <ele>1791.2</ele>
        <time>2021-07-23T09:45:52.285Z</time>
      </trkpt>
      <trkpt lat="45.45814" lon="6.96743">
        <ele>1791.6</ele>
        <time>2021-07-23T09:45:53.285Z</time>
      </trkpt>
      <trkpt lat="45.4581" lon="6.96748">
        <ele>1792</ele>
        <time>2021-07-23T09:45:54.285Z</time>
      </trkpt>
      <trkpt lat="45.45803" lon="6.96752">
        <ele>1792.4</ele>
        <time>2021-07-23T09:45:55.285Z</time>
      </trkpt>
      <trkpt lat="45.45797" lon="6.96756">
        <ele>1792.8</ele>
        <time>2021-07-23T09:45:56.285Z</time>
      </trkpt>
      <trkpt lat="45.45791" lon="6.96761">
        <ele>1793.2</ele>
        <time>2021-07-23T09:45:57.285Z</time>
      </trkpt>
      <trkpt lat="45.45785" lon="6.96766">
        <ele>1793.2</ele>
        <time>2021-07-23T09:45:58.285Z</time>
      </trkpt>
      <trkpt lat="45.45779" lon="6.96771">
        <ele>1793.2</ele>
        <time>2021-07-23T09:45:59.285Z</time>
      </trkpt>
      <trkpt lat="45.45773" lon="6.96776">
        <ele>1793.2</ele>
        <time>2021-07-23T09:46:00.285Z</time>
      </trkpt>
      <trkpt lat="45.45767" lon="6.96781">
        <ele>1793.2</ele>
        <time>2021-07-23T09:46:01.285Z</time>
      </trkpt>
      <trkpt lat="45.4576" lon="6.96786">
        <ele>1793.2</ele>
        <time>2021-07-23T09:46:02.285Z</time>
      </trkpt>
      <trkpt lat="45.45754" lon="6.96791">
        <ele>1793.2</ele>
        <time>2021-07-23T09:46:03.285Z</time>
      </trkpt>
      <trkpt lat="45.45748" lon="6.96796">
        <ele>1793.2</ele>
        <time>2021-07-23T09:46:04.285Z</time>
      </trkpt>
      <trkpt lat="45.45741" lon="6.96801">
        <ele>1793.2</ele>
        <time>2021-07-23T09:46:05.285Z</time>
      </trkpt>
      <trkpt lat="45.45735" lon="6.96806">
        <ele>1793.2</ele>
        <time>2021-07-23T09:46:06.285Z</time>
      </trkpt>
      <trkpt lat="45.45728" lon="6.96811">
        <ele>1793.2</ele>
        <time>2021-07-23T09:46:07.285Z</time>
      </trkpt>
      <trkpt lat="45.45722" lon="6.96816">
        <ele>1793.2</ele>
        <time>2021-07-23T09:46:08.285Z</time>
      </trkpt>
      <trkpt lat="45.45716" lon="6.96822">
        <ele>1793.2</ele>
        <time>2021-07-23T09:46:09.285Z</time>
      </trkpt>
      <trkpt lat="45.45709" lon="6.96827">
        <ele>1793.2</ele>
        <time>2021-07-23T09:46:10.285Z</time>
      </trkpt>
      <trkpt lat="45.45703" lon="6.96832">
        <ele>1793.2</ele>
        <time>2021-07-23T09:46:11.285Z</time>
      </trkpt>
      <trkpt lat="45.45696" lon="6.96837">
        <ele>1793.2</ele>
        <time>2021-07-23T09:46:12.285Z</time>
      </trkpt>
      <trkpt lat="45.45689" lon="6.96842">
        <ele>1793.2</ele>
        <time>2021-07-23T09:46:13.285Z</time>
      </trkpt>
      <trkpt lat="45.45683" lon="6.96847">
        <ele>1793.2</ele>
        <time>2021-07-23T09:46:14.285Z</time>
      </trkpt>
      <trkpt lat="45.45676" lon="6.96853">
        <ele>1793.2</ele>
        <time>2021-07-23T09:46:15.285Z</time>
      </trkpt>
      <trkpt lat="45.4567" lon="6.96858">
        <ele>1793.2</ele>
        <time>2021-07-23T09:46:16.285Z</time>
      </trkpt>
      <trkpt lat="45.45663" lon="6.96864">
        <ele>1793.2</ele>
        <time>2021-07-23T09:46:17.285Z</time>
      </trkpt>
      <trkpt lat="45.45657" lon="6.96869">
        <ele>1793.2</ele>
        <time>2021-07-23T09:46:18.285Z</time>
      </trkpt>
      <trkpt lat="45.45651" lon="6.96874">
        <ele>1793.2</ele>
        <time>2021-07-23T09:46:19.285Z</time>
      </trkpt>
      <trkpt lat="45.45644" lon="6.9688">
        <ele>1793.2</ele>
        <time>2021-07-23T09:46:20.285Z</time>
      </trkpt>
      <trkpt lat="45.45637" lon="6.96885">
        <ele>1793.2</ele>
        <time>2021-07-23T09:46:21.285Z</time>
      </trkpt>
      <trkpt lat="45.45631" lon="6.9689">
        <ele>1793.2</ele>
        <time>2021-07-23T09:46:22.285Z</time>
      </trkpt>
      <trkpt lat="45.45624" lon="6.96895">
        <ele>1793.2</ele>
        <time>2021-07-23T09:46:23.285Z</time>
      </trkpt>
      <trkpt lat="45.45618" lon="6.969">
        <ele>1793.2</ele>
        <time>2021-07-23T09:46:24.285Z</time>
      </trkpt>
      <trkpt lat="45.45612" lon="6.96905">
        <ele>1793.6</ele>
        <time>2021-07-23T09:46:25.285Z</time>
      </trkpt>
      <trkpt lat="45.45606" lon="6.96911">
        <ele>1794</ele>
        <time>2021-07-23T09:46:26.285Z</time>
      </trkpt>
      <trkpt lat="45.45599" lon="6.96917">
        <ele>1794.4</ele>
        <time>2021-07-23T09:46:27.285Z</time>
      </trkpt>
      <trkpt lat="45.45592" lon="6.96922">
        <ele>1794.8</ele>
        <time>2021-07-23T09:46:28.285Z</time>
      </trkpt>
      <trkpt lat="45.45585" lon="6.96927">
        <ele>1795.2</ele>
        <time>2021-07-23T09:46:29.285Z</time>
      </trkpt>
      <trkpt lat="45.45579" lon="6.96933">
        <ele>1795.2</ele>
        <time>2021-07-23T09:46:30.285Z</time>
      </trkpt>
      <trkpt lat="45.45572" lon="6.96938">
        <ele>1795.2</ele>
        <time>2021-07-23T09:46:31.285Z</time>
      </trkpt>
      <trkpt lat="45.45566" lon="6.96943">
        <ele>1795.2</ele>
        <time>2021-07-23T09:46:32.285Z</time>
      </trkpt>
      <trkpt lat="45.45559" lon="6.96947">
        <ele>1795.2</ele>
        <time>2021-07-23T09:46:33.285Z</time>
      </trkpt>
      <trkpt lat="45.45552" lon="6.96953">
        <ele>1795.2</ele>
        <time>2021-07-23T09:46:34.285Z</time>
      </trkpt>
      <trkpt lat="45.45545" lon="6.96958">
        <ele>1795.2</ele>
        <time>2021-07-23T09:46:35.285Z</time>
      </trkpt>
      <trkpt lat="45.45538" lon="6.96962">
        <ele>1795.2</ele>
        <time>2021-07-23T09:46:36.285Z</time>
      </trkpt>
      <trkpt lat="45.45532" lon="6.96967">
        <ele>1795.2</ele>
        <time>2021-07-23T09:46:37.285Z</time>
      </trkpt>
      <trkpt lat="45.45525" lon="6.96972">
        <ele>1795.2</ele>
        <time>2021-07-23T09:46:38.285Z</time>
      </trkpt>
      <trkpt lat="45.45519" lon="6.96977">
        <ele>1795.2</ele>
        <time>2021-07-23T09:46:39.285Z</time>
      </trkpt>
      <trkpt lat="45.45513" lon="6.96982">
        <ele>1795.2</ele>
        <time>2021-07-23T09:46:40.285Z</time>
      </trkpt>
      <trkpt lat="45.45506" lon="6.96988">
        <ele>1795.2</ele>
        <time>2021-07-23T09:46:41.285Z</time>
      </trkpt>
      <trkpt lat="45.455" lon="6.96994">
        <ele>1795.2</ele>
        <time>2021-07-23T09:46:42.285Z</time>
      </trkpt>
      <trkpt lat="45.45494" lon="6.97">
        <ele>1795.6</ele>
        <time>2021-07-23T09:46:43.285Z</time>
      </trkpt>
      <trkpt lat="45.45488" lon="6.97006">
        <ele>1796.2</ele>
        <time>2021-07-23T09:46:44.285Z</time>
      </trkpt>
      <trkpt lat="45.45482" lon="6.97012">
        <ele>1796.6</ele>
        <time>2021-07-23T09:46:45.285Z</time>
      </trkpt>
      <trkpt lat="45.45476" lon="6.97019">
        <ele>1797</ele>
        <time>2021-07-23T09:46:46.285Z</time>
      </trkpt>
      <trkpt lat="45.45471" lon="6.97026">
        <ele>1797.4</ele>
        <time>2021-07-23T09:46:47.285Z</time>
      </trkpt>
      <trkpt lat="45.45465" lon="6.97034">
        <ele>1797.4</ele>
        <time>2021-07-23T09:46:48.285Z</time>
      </trkpt>
      <trkpt lat="45.45459" lon="6.97041">
        <ele>1797.4</ele>
        <time>2021-07-23T09:46:49.285Z</time>
      </trkpt>
      <trkpt lat="45.45454" lon="6.97049">
        <ele>1797.4</ele>
        <time>2021-07-23T09:46:50.285Z</time>
      </trkpt>
      <trkpt lat="45.45448" lon="6.97056">
        <ele>1797.4</ele>
        <time>2021-07-23T09:46:51.285Z</time>
      </trkpt>
      <trkpt lat="45.45443" lon="6.97064">
        <ele>1797.4</ele>
        <time>2021-07-23T09:46:52.285Z</time>
      </trkpt>
      <trkpt lat="45.45438" lon="6.97071">
        <ele>1797.4</ele>
        <time>2021-07-23T09:46:53.285Z</time>
      </trkpt>
      <trkpt lat="45.45431" lon="6.97084">
        <ele>1797.4</ele>
        <time>2021-07-23T09:46:54.285Z</time>
      </trkpt>
      <trkpt lat="45.45426" lon="6.97091">
        <ele>1797.4</ele>
        <time>2021-07-23T09:46:55.285Z</time>
      </trkpt>
      <trkpt lat="45.45421" lon="6.97099">
        <ele>1797.4</ele>
        <time>2021-07-23T09:46:56.285Z</time>
      </trkpt>
      <trkpt lat="45.45416" lon="6.97108">
        <ele>1797.4</ele>
        <time>2021-07-23T09:46:57.285Z</time>
      </trkpt>
      <trkpt lat="45.45411" lon="6.97115">
        <ele>1797.4</ele>
        <time>2021-07-23T09:46:58.285Z</time>
      </trkpt>
      <trkpt lat="45.45407" lon="6.97124">
        <ele>1797.8</ele>
        <time>2021-07-23T09:46:59.285Z</time>
      </trkpt>
      <trkpt lat="45.45402" lon="6.97132">
        <ele>1798.2</ele>
        <time>2021-07-23T09:47:00.285Z</time>
      </trkpt>
      <trkpt lat="45.45398" lon="6.9714">
        <ele>1798.6</ele>
        <time>2021-07-23T09:47:01.285Z</time>
      </trkpt>
      <trkpt lat="45.45393" lon="6.97148">
        <ele>1799</ele>
        <time>2021-07-23T09:47:02.285Z</time>
      </trkpt>
      <trkpt lat="45.45389" lon="6.97156">
        <ele>1799.4</ele>
        <time>2021-07-23T09:47:03.285Z</time>
      </trkpt>
      <trkpt lat="45.45384" lon="6.97164">
        <ele>1799.4</ele>
        <time>2021-07-23T09:47:04.285Z</time>
      </trkpt>
      <trkpt lat="45.4538" lon="6.97172">
        <ele>1799.4</ele>
        <time>2021-07-23T09:47:05.285Z</time>
      </trkpt>
      <trkpt lat="45.45376" lon="6.9718">
        <ele>1799.4</ele>
        <time>2021-07-23T09:47:06.285Z</time>
      </trkpt>
      <trkpt lat="45.45371" lon="6.97189">
        <ele>1799.4</ele>
        <time>2021-07-23T09:47:07.285Z</time>
      </trkpt>
      <trkpt lat="45.45367" lon="6.97197">
        <ele>1799.4</ele>
        <time>2021-07-23T09:47:08.285Z</time>
      </trkpt>
      <trkpt lat="45.45363" lon="6.97205">
        <ele>1799.4</ele>
        <time>2021-07-23T09:47:09.285Z</time>
      </trkpt>
      <trkpt lat="45.45359" lon="6.97213">
        <ele>1799.4</ele>
        <time>2021-07-23T09:47:10.285Z</time>
      </trkpt>
      <trkpt lat="45.45354" lon="6.9722">
        <ele>1799.4</ele>
        <time>2021-07-23T09:47:11.285Z</time>
      </trkpt>
      <trkpt lat="45.45349" lon="6.97228">
        <ele>1799.4</ele>
        <time>2021-07-23T09:47:12.285Z</time>
      </trkpt>
      <trkpt lat="45.45345" lon="6.97235">
        <ele>1799.8</ele>
        <time>2021-07-23T09:47:13.285Z</time>
      </trkpt>
      <trkpt lat="45.4534" lon="6.97243">
        <ele>1800.2</ele>
        <time>2021-07-23T09:47:14.285Z</time>
      </trkpt>
      <trkpt lat="45.45331" lon="6.97257">
        <ele>1801</ele>
        <time>2021-07-23T09:47:15.285Z</time>
      </trkpt>
      <trkpt lat="45.45328" lon="6.97261">
        <ele>1801</ele>
        <time>2021-07-23T09:47:16.285Z</time>
      </trkpt>
      <trkpt lat="45.45326" lon="6.97265">
        <ele>1801.4</ele>
        <time>2021-07-23T09:47:17.285Z</time>
      </trkpt>
      <trkpt lat="45.45321" lon="6.97272">
        <ele>1801.4</ele>
        <time>2021-07-23T09:47:18.285Z</time>
      </trkpt>
      <trkpt lat="45.45317" lon="6.97279">
        <ele>1801.4</ele>
        <time>2021-07-23T09:47:19.285Z</time>
      </trkpt>
      <trkpt lat="45.45313" lon="6.97287">
        <ele>1801.4</ele>
        <time>2021-07-23T09:47:20.285Z</time>
      </trkpt>
      <trkpt lat="45.45308" lon="6.97295">
        <ele>1801.4</ele>
        <time>2021-07-23T09:47:21.285Z</time>
      </trkpt>
      <trkpt lat="45.45304" lon="6.97302">
        <ele>1801.4</ele>
        <time>2021-07-23T09:47:22.285Z</time>
      </trkpt>
      <trkpt lat="45.453" lon="6.9731">
        <ele>1802</ele>
        <time>2021-07-23T09:47:23.285Z</time>
      </trkpt>
      <trkpt lat="45.45296" lon="6.97317">
        <ele>1802.4</ele>
        <time>2021-07-23T09:47:24.285Z</time>
      </trkpt>
      <trkpt lat="45.45291" lon="6.97324">
        <ele>1802.8</ele>
        <time>2021-07-23T09:47:25.285Z</time>
      </trkpt>
      <trkpt lat="45.45287" lon="6.97331">
        <ele>1803.2</ele>
        <time>2021-07-23T09:47:26.285Z</time>
      </trkpt>
      <trkpt lat="45.45282" lon="6.97338">
        <ele>1803.6</ele>
        <time>2021-07-23T09:47:27.285Z</time>
      </trkpt>
      <trkpt lat="45.45277" lon="6.97345">
        <ele>1803.6</ele>
        <time>2021-07-23T09:47:28.285Z</time>
      </trkpt>
      <trkpt lat="45.45272" lon="6.97351">
        <ele>1803.6</ele>
        <time>2021-07-23T09:47:29.285Z</time>
      </trkpt>
      <trkpt lat="45.45268" lon="6.97357">
        <ele>1803.6</ele>
        <time>2021-07-23T09:47:30.285Z</time>
      </trkpt>
      <trkpt lat="45.45263" lon="6.97363">
        <ele>1803.6</ele>
        <time>2021-07-23T09:47:31.285Z</time>
      </trkpt>
      <trkpt lat="45.45257" lon="6.97369">
        <ele>1803.6</ele>
        <time>2021-07-23T09:47:32.285Z</time>
      </trkpt>
      <trkpt lat="45.45252" lon="6.97374">
        <ele>1803.6</ele>
        <time>2021-07-23T09:47:33.285Z</time>
      </trkpt>
      <trkpt lat="45.45247" lon="6.97379">
        <ele>1803.6</ele>
        <time>2021-07-23T09:47:34.285Z</time>
      </trkpt>
      <trkpt lat="45.45242" lon="6.97385">
        <ele>1803.6</ele>
        <time>2021-07-23T09:47:35.285Z</time>
      </trkpt>
      <trkpt lat="45.45236" lon="6.9739">
        <ele>1803.6</ele>
        <time>2021-07-23T09:47:36.285Z</time>
      </trkpt>
      <trkpt lat="45.45231" lon="6.97395">
        <ele>1803.6</ele>
        <time>2021-07-23T09:47:37.285Z</time>
      </trkpt>
      <trkpt lat="45.45226" lon="6.974">
        <ele>1804</ele>
        <time>2021-07-23T09:47:38.285Z</time>
      </trkpt>
      <trkpt lat="45.45221" lon="6.97405">
        <ele>1804.4</ele>
        <time>2021-07-23T09:47:39.285Z</time>
      </trkpt>
      <trkpt lat="45.45215" lon="6.97411">
        <ele>1804.8</ele>
        <time>2021-07-23T09:47:40.285Z</time>
      </trkpt>
      <trkpt lat="45.4521" lon="6.97416">
        <ele>1805.2</ele>
        <time>2021-07-23T09:47:41.285Z</time>
      </trkpt>
      <trkpt lat="45.45205" lon="6.97422">
        <ele>1805.6</ele>
        <time>2021-07-23T09:47:42.285Z</time>
      </trkpt>
      <trkpt lat="45.45199" lon="6.97427">
        <ele>1805.6</ele>
        <time>2021-07-23T09:47:43.285Z</time>
      </trkpt>
      <trkpt lat="45.45195" lon="6.97433">
        <ele>1805.6</ele>
        <time>2021-07-23T09:47:44.285Z</time>
      </trkpt>
      <trkpt lat="45.4519" lon="6.97438">
        <ele>1805.6</ele>
        <time>2021-07-23T09:47:45.285Z</time>
      </trkpt>
      <trkpt lat="45.45185" lon="6.97444">
        <ele>1805.6</ele>
        <time>2021-07-23T09:47:46.285Z</time>
      </trkpt>
      <trkpt lat="45.4518" lon="6.97451">
        <ele>1805.6</ele>
        <time>2021-07-23T09:47:47.285Z</time>
      </trkpt>
      <trkpt lat="45.45175" lon="6.97457">
        <ele>1805.6</ele>
        <time>2021-07-23T09:47:48.285Z</time>
      </trkpt>
      <trkpt lat="45.4517" lon="6.97463">
        <ele>1805.6</ele>
        <time>2021-07-23T09:47:49.285Z</time>
      </trkpt>
      <trkpt lat="45.45165" lon="6.97469">
        <ele>1805.6</ele>
        <time>2021-07-23T09:47:50.285Z</time>
      </trkpt>
      <trkpt lat="45.4516" lon="6.97476">
        <ele>1805.6</ele>
        <time>2021-07-23T09:47:51.285Z</time>
      </trkpt>
      <trkpt lat="45.45155" lon="6.97482">
        <ele>1805.6</ele>
        <time>2021-07-23T09:47:52.285Z</time>
      </trkpt>
      <trkpt lat="45.45151" lon="6.97489">
        <ele>1805.6</ele>
        <time>2021-07-23T09:47:53.285Z</time>
      </trkpt>
      <trkpt lat="45.45146" lon="6.97496">
        <ele>1805.6</ele>
        <time>2021-07-23T09:47:54.285Z</time>
      </trkpt>
      <trkpt lat="45.45142" lon="6.97503">
        <ele>1805.6</ele>
        <time>2021-07-23T09:47:55.285Z</time>
      </trkpt>
      <trkpt lat="45.45138" lon="6.97511">
        <ele>1805.6</ele>
        <time>2021-07-23T09:47:56.285Z</time>
      </trkpt>
      <trkpt lat="45.45135" lon="6.97518">
        <ele>1805.6</ele>
        <time>2021-07-23T09:47:57.285Z</time>
      </trkpt>
      <trkpt lat="45.45131" lon="6.97525">
        <ele>1805.6</ele>
        <time>2021-07-23T09:47:58.285Z</time>
      </trkpt>
      <trkpt lat="45.45127" lon="6.97532">
        <ele>1806.2</ele>
        <time>2021-07-23T09:47:59.285Z</time>
      </trkpt>
      <trkpt lat="45.45124" lon="6.97539">
        <ele>1806.6</ele>
        <time>2021-07-23T09:48:00.285Z</time>
      </trkpt>
      <trkpt lat="45.4512" lon="6.97547">
        <ele>1807.4</ele>
        <time>2021-07-23T09:48:01.285Z</time>
      </trkpt>
      <trkpt lat="45.45116" lon="6.97554">
        <ele>1807.8</ele>
        <time>2021-07-23T09:48:02.285Z</time>
      </trkpt>
      <trkpt lat="45.45112" lon="6.97561">
        <ele>1807.8</ele>
        <time>2021-07-23T09:48:03.285Z</time>
      </trkpt>
      <trkpt lat="45.45108" lon="6.97568">
        <ele>1807.8</ele>
        <time>2021-07-23T09:48:04.285Z</time>
      </trkpt>
      <trkpt lat="45.45105" lon="6.97575">
        <ele>1807.8</ele>
        <time>2021-07-23T09:48:05.285Z</time>
      </trkpt>
      <trkpt lat="45.45101" lon="6.97582">
        <ele>1807.8</ele>
        <time>2021-07-23T09:48:06.285Z</time>
      </trkpt>
      <trkpt lat="45.45098" lon="6.97589">
        <ele>1807.8</ele>
        <time>2021-07-23T09:48:07.285Z</time>
      </trkpt>
      <trkpt lat="45.45094" lon="6.97597">
        <ele>1807.8</ele>
        <time>2021-07-23T09:48:08.285Z</time>
      </trkpt>
      <trkpt lat="45.4509" lon="6.97604">
        <ele>1807.8</ele>
        <time>2021-07-23T09:48:09.285Z</time>
      </trkpt>
      <trkpt lat="45.45087" lon="6.97611">
        <ele>1807.8</ele>
        <time>2021-07-23T09:48:10.285Z</time>
      </trkpt>
      <trkpt lat="45.45084" lon="6.97618">
        <ele>1807.8</ele>
        <time>2021-07-23T09:48:11.285Z</time>
      </trkpt>
      <trkpt lat="45.4508" lon="6.97626">
        <ele>1807.8</ele>
        <time>2021-07-23T09:48:12.285Z</time>
      </trkpt>
      <trkpt lat="45.45077" lon="6.97634">
        <ele>1807.8</ele>
        <time>2021-07-23T09:48:13.285Z</time>
      </trkpt>
      <trkpt lat="45.45074" lon="6.97641">
        <ele>1807.8</ele>
        <time>2021-07-23T09:48:14.285Z</time>
      </trkpt>
      <trkpt lat="45.45071" lon="6.97648">
        <ele>1807.8</ele>
        <time>2021-07-23T09:48:15.285Z</time>
      </trkpt>
      <trkpt lat="45.45067" lon="6.97655">
        <ele>1808.2</ele>
        <time>2021-07-23T09:48:16.285Z</time>
      </trkpt>
      <trkpt lat="45.45064" lon="6.97662">
        <ele>1808.6</ele>
        <time>2021-07-23T09:48:17.285Z</time>
      </trkpt>
      <trkpt lat="45.45061" lon="6.97669">
        <ele>1809</ele>
        <time>2021-07-23T09:48:18.285Z</time>
      </trkpt>
      <trkpt lat="45.45058" lon="6.97676">
        <ele>1809.4</ele>
        <time>2021-07-23T09:48:19.285Z</time>
      </trkpt>
      <trkpt lat="45.45054" lon="6.97683">
        <ele>1809.8</ele>
        <time>2021-07-23T09:48:20.285Z</time>
      </trkpt>
      <trkpt lat="45.45051" lon="6.9769">
        <ele>1809.8</ele>
        <time>2021-07-23T09:48:21.285Z</time>
      </trkpt>
      <trkpt lat="45.45048" lon="6.97697">
        <ele>1809.8</ele>
        <time>2021-07-23T09:48:22.285Z</time>
      </trkpt>
      <trkpt lat="45.45044" lon="6.97704">
        <ele>1809.8</ele>
        <time>2021-07-23T09:48:23.285Z</time>
      </trkpt>
      <trkpt lat="45.45041" lon="6.97711">
        <ele>1809.8</ele>
        <time>2021-07-23T09:48:24.285Z</time>
      </trkpt>
      <trkpt lat="45.45038" lon="6.97717">
        <ele>1809.8</ele>
        <time>2021-07-23T09:48:25.285Z</time>
      </trkpt>
      <trkpt lat="45.45034" lon="6.97723">
        <ele>1810.4</ele>
        <time>2021-07-23T09:48:26.285Z</time>
      </trkpt>
      <trkpt lat="45.4503" lon="6.97728">
        <ele>1810.8</ele>
        <time>2021-07-23T09:48:27.285Z</time>
      </trkpt>
      <trkpt lat="45.45026" lon="6.97732">
        <ele>1811.2</ele>
        <time>2021-07-23T09:48:28.285Z</time>
      </trkpt>
      <trkpt lat="45.45019" lon="6.97731">
        <ele>1811.6</ele>
        <time>2021-07-23T09:48:29.285Z</time>
      </trkpt>
      <trkpt lat="45.45013" lon="6.97731">
        <ele>1812</ele>
        <time>2021-07-23T09:48:30.285Z</time>
      </trkpt>
      <trkpt lat="45.45008" lon="6.97732">
        <ele>1812</ele>
        <time>2021-07-23T09:48:31.285Z</time>
      </trkpt>
      <trkpt lat="45.45003" lon="6.97736">
        <ele>1812</ele>
        <time>2021-07-23T09:48:32.285Z</time>
      </trkpt>
      <trkpt lat="45.45001" lon="6.97742">
        <ele>1812</ele>
        <time>2021-07-23T09:48:33.285Z</time>
      </trkpt>
      <trkpt lat="45.44999" lon="6.97748">
        <ele>1812</ele>
        <time>2021-07-23T09:48:34.285Z</time>
      </trkpt>
      <trkpt lat="45.44997" lon="6.97755">
        <ele>1812</ele>
        <time>2021-07-23T09:48:35.285Z</time>
      </trkpt>
      <trkpt lat="45.44996" lon="6.97762">
        <ele>1812</ele>
        <time>2021-07-23T09:48:36.285Z</time>
      </trkpt>
      <trkpt lat="45.44994" lon="6.97769">
        <ele>1812</ele>
        <time>2021-07-23T09:48:37.285Z</time>
      </trkpt>
      <trkpt lat="45.44992" lon="6.97776">
        <ele>1812</ele>
        <time>2021-07-23T09:48:38.285Z</time>
      </trkpt>
      <trkpt lat="45.44989" lon="6.97782">
        <ele>1812</ele>
        <time>2021-07-23T09:48:39.285Z</time>
      </trkpt>
      <trkpt lat="45.44987" lon="6.97789">
        <ele>1812</ele>
        <time>2021-07-23T09:48:40.285Z</time>
      </trkpt>
      <trkpt lat="45.44985" lon="6.97795">
        <ele>1812</ele>
        <time>2021-07-23T09:48:41.285Z</time>
      </trkpt>
      <trkpt lat="45.44982" lon="6.97801">
        <ele>1812.4</ele>
        <time>2021-07-23T09:48:42.285Z</time>
      </trkpt>
      <trkpt lat="45.44979" lon="6.97807">
        <ele>1812.8</ele>
        <time>2021-07-23T09:48:43.285Z</time>
      </trkpt>
      <trkpt lat="45.44977" lon="6.97814">
        <ele>1813.4</ele>
        <time>2021-07-23T09:48:44.285Z</time>
      </trkpt>
      <trkpt lat="45.44974" lon="6.9782">
        <ele>1813.8</ele>
        <time>2021-07-23T09:48:45.285Z</time>
      </trkpt>
      <trkpt lat="45.44972" lon="6.97826">
        <ele>1814.2</ele>
        <time>2021-07-23T09:48:46.285Z</time>
      </trkpt>
      <trkpt lat="45.44969" lon="6.97833">
        <ele>1814.2</ele>
        <time>2021-07-23T09:48:47.285Z</time>
      </trkpt>
      <trkpt lat="45.44967" lon="6.97839">
        <ele>1814.2</ele>
        <time>2021-07-23T09:48:48.285Z</time>
      </trkpt>
      <trkpt lat="45.44964" lon="6.97845">
        <ele>1814.2</ele>
        <time>2021-07-23T09:48:49.285Z</time>
      </trkpt>
      <trkpt lat="45.44962" lon="6.97851">
        <ele>1814.2</ele>
        <time>2021-07-23T09:48:50.285Z</time>
      </trkpt>
      <trkpt lat="45.44959" lon="6.97858">
        <ele>1814.2</ele>
        <time>2021-07-23T09:48:51.285Z</time>
      </trkpt>
      <trkpt lat="45.44956" lon="6.97864">
        <ele>1814.2</ele>
        <time>2021-07-23T09:48:52.285Z</time>
      </trkpt>
      <trkpt lat="45.44954" lon="6.9787">
        <ele>1814.2</ele>
        <time>2021-07-23T09:48:53.285Z</time>
      </trkpt>
      <trkpt lat="45.44951" lon="6.97876">
        <ele>1814.2</ele>
        <time>2021-07-23T09:48:54.285Z</time>
      </trkpt>
      <trkpt lat="45.44948" lon="6.97882">
        <ele>1814.2</ele>
        <time>2021-07-23T09:48:55.285Z</time>
      </trkpt>
      <trkpt lat="45.44946" lon="6.97888">
        <ele>1814.2</ele>
        <time>2021-07-23T09:48:56.285Z</time>
      </trkpt>
      <trkpt lat="45.44943" lon="6.97895">
        <ele>1814.2</ele>
        <time>2021-07-23T09:48:57.285Z</time>
      </trkpt>
      <trkpt lat="45.4494" lon="6.97901">
        <ele>1814.6</ele>
        <time>2021-07-23T09:48:58.285Z</time>
      </trkpt>
      <trkpt lat="45.44937" lon="6.97907">
        <ele>1815</ele>
        <time>2021-07-23T09:48:59.285Z</time>
      </trkpt>
      <trkpt lat="45.44934" lon="6.97913">
        <ele>1815.4</ele>
        <time>2021-07-23T09:49:00.285Z</time>
      </trkpt>
      <trkpt lat="45.44931" lon="6.97919">
        <ele>1815.8</ele>
        <time>2021-07-23T09:49:01.285Z</time>
      </trkpt>
      <trkpt lat="45.44928" lon="6.97924">
        <ele>1816.2</ele>
        <time>2021-07-23T09:49:02.285Z</time>
      </trkpt>
      <trkpt lat="45.44925" lon="6.9793">
        <ele>1816.2</ele>
        <time>2021-07-23T09:49:03.285Z</time>
      </trkpt>
      <trkpt lat="45.44922" lon="6.97935">
        <ele>1816.2</ele>
        <time>2021-07-23T09:49:04.285Z</time>
      </trkpt>
      <trkpt lat="45.44919" lon="6.97941">
        <ele>1816.2</ele>
        <time>2021-07-23T09:49:05.285Z</time>
      </trkpt>
      <trkpt lat="45.44916" lon="6.97947">
        <ele>1816.2</ele>
        <time>2021-07-23T09:49:06.285Z</time>
      </trkpt>
      <trkpt lat="45.44913" lon="6.97953">
        <ele>1816.2</ele>
        <time>2021-07-23T09:49:07.285Z</time>
      </trkpt>
      <trkpt lat="45.44911" lon="6.9796">
        <ele>1816.2</ele>
        <time>2021-07-23T09:49:08.285Z</time>
      </trkpt>
      <trkpt lat="45.44908" lon="6.97966">
        <ele>1816.2</ele>
        <time>2021-07-23T09:49:09.285Z</time>
      </trkpt>
      <trkpt lat="45.44905" lon="6.97972">
        <ele>1816.6</ele>
        <time>2021-07-23T09:49:10.285Z</time>
      </trkpt>
      <trkpt lat="45.44903" lon="6.97978">
        <ele>1817</ele>
        <time>2021-07-23T09:49:11.285Z</time>
      </trkpt>
      <trkpt lat="45.449" lon="6.97984">
        <ele>1817.4</ele>
        <time>2021-07-23T09:49:12.285Z</time>
      </trkpt>
      <trkpt lat="45.44898" lon="6.97989">
        <ele>1817.8</ele>
        <time>2021-07-23T09:49:13.285Z</time>
      </trkpt>
      <trkpt lat="45.44894" lon="6.97994">
        <ele>1818.2</ele>
        <time>2021-07-23T09:49:14.285Z</time>
      </trkpt>
      <trkpt lat="45.4489" lon="6.97998">
        <ele>1818.2</ele>
        <time>2021-07-23T09:49:15.285Z</time>
      </trkpt>
      <trkpt lat="45.44886" lon="6.98003">
        <ele>1818.2</ele>
        <time>2021-07-23T09:49:16.285Z</time>
      </trkpt>
      <trkpt lat="45.44882" lon="6.98007">
        <ele>1818.2</ele>
        <time>2021-07-23T09:49:17.285Z</time>
      </trkpt>
      <trkpt lat="45.4488" lon="6.98012">
        <ele>1818.2</ele>
        <time>2021-07-23T09:49:18.285Z</time>
      </trkpt>
      <trkpt lat="45.44877" lon="6.98016">
        <ele>1818.2</ele>
        <time>2021-07-23T09:49:19.285Z</time>
      </trkpt>
      <trkpt lat="45.44875" lon="6.98021">
        <ele>1818.6</ele>
        <time>2021-07-23T09:49:20.285Z</time>
      </trkpt>
      <trkpt lat="45.44874" lon="6.98026">
        <ele>1819</ele>
        <time>2021-07-23T09:49:21.285Z</time>
      </trkpt>
      <trkpt lat="45.44874" lon="6.98031">
        <ele>1819.4</ele>
        <time>2021-07-23T09:49:22.285Z</time>
      </trkpt>
      <trkpt lat="45.44872" lon="6.98036">
        <ele>1820</ele>
        <time>2021-07-23T09:49:23.285Z</time>
      </trkpt>
      <trkpt lat="45.44872" lon="6.9804">
        <ele>1820.4</ele>
        <time>2021-07-23T09:49:24.285Z</time>
      </trkpt>
      <trkpt lat="45.44871" lon="6.98042">
        <ele>1820.4</ele>
        <time>2021-07-23T09:49:25.285Z</time>
      </trkpt>
      <trkpt lat="45.44871" lon="6.98042">
        <ele>1820.4</ele>
        <time>2021-07-23T09:49:26.285Z</time>
      </trkpt>
      <trkpt lat="45.44871" lon="6.98042">
        <ele>1820.4</ele>
        <time>2021-07-23T09:49:27.285Z</time>
      </trkpt>
      <trkpt lat="45.44871" lon="6.98043">
        <ele>1820.4</ele>
        <time>2021-07-23T09:49:28.285Z</time>
      </trkpt>
      <trkpt lat="45.44871" lon="6.98039">
        <ele>1824.4</ele>
        <time>2021-07-23T09:49:29.285Z</time>
      </trkpt>
      <trkpt lat="45.4487" lon="6.98041">
        <ele>1824.4</ele>
        <time>2021-07-23T09:49:30.285Z</time>
      </trkpt>
      <trkpt lat="45.4487" lon="6.98044">
        <ele>1824.4</ele>
        <time>2021-07-23T09:49:31.285Z</time>
      </trkpt>
      <trkpt lat="45.4487" lon="6.98047">
        <ele>1824.4</ele>
        <time>2021-07-23T09:49:32.285Z</time>
      </trkpt>
      <trkpt lat="45.44868" lon="6.98052">
        <ele>1824.4</ele>
        <time>2021-07-23T09:49:33.285Z</time>
      </trkpt>
      <trkpt lat="45.44867" lon="6.98056">
        <ele>1824.4</ele>
        <time>2021-07-23T09:49:34.285Z</time>
      </trkpt>
      <trkpt lat="45.44866" lon="6.9806">
        <ele>1824.4</ele>
        <time>2021-07-23T09:49:35.285Z</time>
      </trkpt>
      <trkpt lat="45.44864" lon="6.98065">
        <ele>1824.4</ele>
        <time>2021-07-23T09:49:36.285Z</time>
      </trkpt>
      <trkpt lat="45.44862" lon="6.98071">
        <ele>1824.4</ele>
        <time>2021-07-23T09:49:37.285Z</time>
      </trkpt>
      <trkpt lat="45.4486" lon="6.98076">
        <ele>1824.8</ele>
        <time>2021-07-23T09:49:38.285Z</time>
      </trkpt>
      <trkpt lat="45.44859" lon="6.98084">
        <ele>1825.4</ele>
        <time>2021-07-23T09:49:39.285Z</time>
      </trkpt>
      <trkpt lat="45.44857" lon="6.9809">
        <ele>1825.8</ele>
        <time>2021-07-23T09:49:40.285Z</time>
      </trkpt>
      <trkpt lat="45.44855" lon="6.98097">
        <ele>1826.2</ele>
        <time>2021-07-23T09:49:41.285Z</time>
      </trkpt>
      <trkpt lat="45.44852" lon="6.98103">
        <ele>1826.6</ele>
        <time>2021-07-23T09:49:42.285Z</time>
      </trkpt>
      <trkpt lat="45.4485" lon="6.98109">
        <ele>1826.6</ele>
        <time>2021-07-23T09:49:43.285Z</time>
      </trkpt>
      <trkpt lat="45.44847" lon="6.98115">
        <ele>1826.6</ele>
        <time>2021-07-23T09:49:44.285Z</time>
      </trkpt>
      <trkpt lat="45.44844" lon="6.9812">
        <ele>1826.6</ele>
        <time>2021-07-23T09:49:45.285Z</time>
      </trkpt>
      <trkpt lat="45.44842" lon="6.98125">
        <ele>1826.6</ele>
        <time>2021-07-23T09:49:46.285Z</time>
      </trkpt>
      <trkpt lat="45.44839" lon="6.98131">
        <ele>1826.6</ele>
        <time>2021-07-23T09:49:47.285Z</time>
      </trkpt>
      <trkpt lat="45.44836" lon="6.98136">
        <ele>1826.6</ele>
        <time>2021-07-23T09:49:48.285Z</time>
      </trkpt>
      <trkpt lat="45.44834" lon="6.98142">
        <ele>1826.6</ele>
        <time>2021-07-23T09:49:49.285Z</time>
      </trkpt>
      <trkpt lat="45.44831" lon="6.98148">
        <ele>1826.6</ele>
        <time>2021-07-23T09:49:50.285Z</time>
      </trkpt>
      <trkpt lat="45.44829" lon="6.98154">
        <ele>1826.6</ele>
        <time>2021-07-23T09:49:51.285Z</time>
      </trkpt>
      <trkpt lat="45.44827" lon="6.98159">
        <ele>1826.6</ele>
        <time>2021-07-23T09:49:52.285Z</time>
      </trkpt>
      <trkpt lat="45.44824" lon="6.98165">
        <ele>1826.6</ele>
        <time>2021-07-23T09:49:53.285Z</time>
      </trkpt>
      <trkpt lat="45.44822" lon="6.98171">
        <ele>1826.6</ele>
        <time>2021-07-23T09:49:54.285Z</time>
      </trkpt>
      <trkpt lat="45.4482" lon="6.98177">
        <ele>1826.6</ele>
        <time>2021-07-23T09:49:55.285Z</time>
      </trkpt>
      <trkpt lat="45.44818" lon="6.98183">
        <ele>1827.2</ele>
        <time>2021-07-23T09:49:56.285Z</time>
      </trkpt>
      <trkpt lat="45.44816" lon="6.98189">
        <ele>1827.6</ele>
        <time>2021-07-23T09:49:57.285Z</time>
      </trkpt>
      <trkpt lat="45.44814" lon="6.98196">
        <ele>1828.4</ele>
        <time>2021-07-23T09:49:58.285Z</time>
      </trkpt>
      <trkpt lat="45.44812" lon="6.98202">
        <ele>1828.8</ele>
        <time>2021-07-23T09:49:59.285Z</time>
      </trkpt>
      <trkpt lat="45.4481" lon="6.98208">
        <ele>1828.8</ele>
        <time>2021-07-23T09:50:00.285Z</time>
      </trkpt>
      <trkpt lat="45.44808" lon="6.98214">
        <ele>1828.8</ele>
        <time>2021-07-23T09:50:01.285Z</time>
      </trkpt>
      <trkpt lat="45.44805" lon="6.9822">
        <ele>1828.8</ele>
        <time>2021-07-23T09:50:02.285Z</time>
      </trkpt>
      <trkpt lat="45.44802" lon="6.98225">
        <ele>1828.8</ele>
        <time>2021-07-23T09:50:03.285Z</time>
      </trkpt>
      <trkpt lat="45.448" lon="6.98231">
        <ele>1828.8</ele>
        <time>2021-07-23T09:50:04.285Z</time>
      </trkpt>
      <trkpt lat="45.44798" lon="6.98237">
        <ele>1828.8</ele>
        <time>2021-07-23T09:50:05.285Z</time>
      </trkpt>
      <trkpt lat="45.44796" lon="6.98244">
        <ele>1829.2</ele>
        <time>2021-07-23T09:50:06.285Z</time>
      </trkpt>
      <trkpt lat="45.44794" lon="6.9825">
        <ele>1829.6</ele>
        <time>2021-07-23T09:50:07.285Z</time>
      </trkpt>
      <trkpt lat="45.44793" lon="6.98256">
        <ele>1830.2</ele>
        <time>2021-07-23T09:50:08.285Z</time>
      </trkpt>
      <trkpt lat="45.44791" lon="6.98262">
        <ele>1830.6</ele>
        <time>2021-07-23T09:50:09.285Z</time>
      </trkpt>
      <trkpt lat="45.44788" lon="6.98268">
        <ele>1831</ele>
        <time>2021-07-23T09:50:10.285Z</time>
      </trkpt>
      <trkpt lat="45.44787" lon="6.98274">
        <ele>1831</ele>
        <time>2021-07-23T09:50:11.285Z</time>
      </trkpt>
      <trkpt lat="45.44785" lon="6.98279">
        <ele>1831</ele>
        <time>2021-07-23T09:50:12.285Z</time>
      </trkpt>
      <trkpt lat="45.44783" lon="6.98285">
        <ele>1831</ele>
        <time>2021-07-23T09:50:13.285Z</time>
      </trkpt>
      <trkpt lat="45.44781" lon="6.9829">
        <ele>1831</ele>
        <time>2021-07-23T09:50:14.285Z</time>
      </trkpt>
      <trkpt lat="45.4478" lon="6.98296">
        <ele>1831</ele>
        <time>2021-07-23T09:50:15.285Z</time>
      </trkpt>
      <trkpt lat="45.44777" lon="6.98301">
        <ele>1831</ele>
        <time>2021-07-23T09:50:16.285Z</time>
      </trkpt>
      <trkpt lat="45.44776" lon="6.98307">
        <ele>1831</ele>
        <time>2021-07-23T09:50:17.285Z</time>
      </trkpt>
      <trkpt lat="45.44774" lon="6.98313">
        <ele>1831</ele>
        <time>2021-07-23T09:50:18.285Z</time>
      </trkpt>
      <trkpt lat="45.44772" lon="6.98319">
        <ele>1831.6</ele>
        <time>2021-07-23T09:50:19.285Z</time>
      </trkpt>
      <trkpt lat="45.4477" lon="6.98325">
        <ele>1832</ele>
        <time>2021-07-23T09:50:20.285Z</time>
      </trkpt>
      <trkpt lat="45.44768" lon="6.98331">
        <ele>1832.4</ele>
        <time>2021-07-23T09:50:21.285Z</time>
      </trkpt>
      <trkpt lat="45.44766" lon="6.98336">
        <ele>1833</ele>
        <time>2021-07-23T09:50:22.285Z</time>
      </trkpt>
      <trkpt lat="45.44764" lon="6.98342">
        <ele>1833.4</ele>
        <time>2021-07-23T09:50:23.285Z</time>
      </trkpt>
      <trkpt lat="45.44762" lon="6.98348">
        <ele>1833.4</ele>
        <time>2021-07-23T09:50:24.285Z</time>
      </trkpt>
      <trkpt lat="45.44761" lon="6.98354">
        <ele>1833.4</ele>
        <time>2021-07-23T09:50:25.285Z</time>
      </trkpt>
      <trkpt lat="45.44759" lon="6.98359">
        <ele>1833.4</ele>
        <time>2021-07-23T09:50:26.285Z</time>
      </trkpt>
      <trkpt lat="45.44758" lon="6.98365">
        <ele>1833.4</ele>
        <time>2021-07-23T09:50:27.285Z</time>
      </trkpt>
      <trkpt lat="45.44756" lon="6.98371">
        <ele>1833.4</ele>
        <time>2021-07-23T09:50:28.285Z</time>
      </trkpt>
      <trkpt lat="45.44754" lon="6.98377">
        <ele>1833.4</ele>
        <time>2021-07-23T09:50:29.285Z</time>
      </trkpt>
      <trkpt lat="45.44752" lon="6.98383">
        <ele>1833.4</ele>
        <time>2021-07-23T09:50:30.285Z</time>
      </trkpt>
      <trkpt lat="45.4475" lon="6.98389">
        <ele>1833.4</ele>
        <time>2021-07-23T09:50:31.285Z</time>
      </trkpt>
      <trkpt lat="45.44749" lon="6.98395">
        <ele>1833.4</ele>
        <time>2021-07-23T09:50:32.285Z</time>
      </trkpt>
      <trkpt lat="45.44747" lon="6.98401">
        <ele>1833.8</ele>
        <time>2021-07-23T09:50:33.285Z</time>
      </trkpt>
      <trkpt lat="45.44745" lon="6.98407">
        <ele>1834.2</ele>
        <time>2021-07-23T09:50:34.285Z</time>
      </trkpt>
      <trkpt lat="45.44744" lon="6.98412">
        <ele>1834.6</ele>
        <time>2021-07-23T09:50:35.285Z</time>
      </trkpt>
      <trkpt lat="45.44742" lon="6.98418">
        <ele>1835</ele>
        <time>2021-07-23T09:50:36.285Z</time>
      </trkpt>
      <trkpt lat="45.4474" lon="6.98424">
        <ele>1835.4</ele>
        <time>2021-07-23T09:50:37.285Z</time>
      </trkpt>
      <trkpt lat="45.44738" lon="6.9843">
        <ele>1835.4</ele>
        <time>2021-07-23T09:50:38.285Z</time>
      </trkpt>
      <trkpt lat="45.44736" lon="6.98436">
        <ele>1835.4</ele>
        <time>2021-07-23T09:50:39.285Z</time>
      </trkpt>
      <trkpt lat="45.44734" lon="6.98442">
        <ele>1835.4</ele>
        <time>2021-07-23T09:50:40.285Z</time>
      </trkpt>
      <trkpt lat="45.44733" lon="6.98448">
        <ele>1835.4</ele>
        <time>2021-07-23T09:50:41.285Z</time>
      </trkpt>
      <trkpt lat="45.44731" lon="6.98454">
        <ele>1835.4</ele>
        <time>2021-07-23T09:50:42.285Z</time>
      </trkpt>
      <trkpt lat="45.44729" lon="6.9846">
        <ele>1835.4</ele>
        <time>2021-07-23T09:50:43.285Z</time>
      </trkpt>
      <trkpt lat="45.44727" lon="6.98466">
        <ele>1835.4</ele>
        <time>2021-07-23T09:50:44.285Z</time>
      </trkpt>
      <trkpt lat="45.44726" lon="6.98471">
        <ele>1835.4</ele>
        <time>2021-07-23T09:50:45.285Z</time>
      </trkpt>
      <trkpt lat="45.44724" lon="6.98477">
        <ele>1835.4</ele>
        <time>2021-07-23T09:50:46.285Z</time>
      </trkpt>
      <trkpt lat="45.44722" lon="6.98483">
        <ele>1836.4</ele>
        <time>2021-07-23T09:50:47.285Z</time>
      </trkpt>
      <trkpt lat="45.4472" lon="6.98489">
        <ele>1836.8</ele>
        <time>2021-07-23T09:50:48.285Z</time>
      </trkpt>
      <trkpt lat="45.44718" lon="6.98494">
        <ele>1837.2</ele>
        <time>2021-07-23T09:50:49.285Z</time>
      </trkpt>
      <trkpt lat="45.44716" lon="6.985">
        <ele>1837.6</ele>
        <time>2021-07-23T09:50:50.285Z</time>
      </trkpt>
      <trkpt lat="45.44714" lon="6.98506">
        <ele>1837.6</ele>
        <time>2021-07-23T09:50:51.285Z</time>
      </trkpt>
      <trkpt lat="45.44712" lon="6.98512">
        <ele>1837.6</ele>
        <time>2021-07-23T09:50:52.285Z</time>
      </trkpt>
      <trkpt lat="45.4471" lon="6.98518">
        <ele>1837.6</ele>
        <time>2021-07-23T09:50:53.285Z</time>
      </trkpt>
      <trkpt lat="45.44708" lon="6.98524">
        <ele>1837.6</ele>
        <time>2021-07-23T09:50:54.285Z</time>
      </trkpt>
      <trkpt lat="45.44706" lon="6.98529">
        <ele>1837.6</ele>
        <time>2021-07-23T09:50:55.285Z</time>
      </trkpt>
      <trkpt lat="45.44704" lon="6.98535">
        <ele>1837.6</ele>
        <time>2021-07-23T09:50:56.285Z</time>
      </trkpt>
      <trkpt lat="45.44702" lon="6.9854">
        <ele>1837.6</ele>
        <time>2021-07-23T09:50:57.285Z</time>
      </trkpt>
      <trkpt lat="45.447" lon="6.98546">
        <ele>1837.6</ele>
        <time>2021-07-23T09:50:58.285Z</time>
      </trkpt>
      <trkpt lat="45.44698" lon="6.98552">
        <ele>1837.6</ele>
        <time>2021-07-23T09:50:59.285Z</time>
      </trkpt>
      <trkpt lat="45.44696" lon="6.98557">
        <ele>1838</ele>
        <time>2021-07-23T09:51:00.285Z</time>
      </trkpt>
      <trkpt lat="45.44694" lon="6.98563">
        <ele>1838.4</ele>
        <time>2021-07-23T09:51:01.285Z</time>
      </trkpt>
      <trkpt lat="45.44692" lon="6.98568">
        <ele>1838.8</ele>
        <time>2021-07-23T09:51:02.285Z</time>
      </trkpt>
      <trkpt lat="45.44689" lon="6.98574">
        <ele>1839.2</ele>
        <time>2021-07-23T09:51:03.285Z</time>
      </trkpt>
      <trkpt lat="45.44688" lon="6.9858">
        <ele>1839.6</ele>
        <time>2021-07-23T09:51:04.285Z</time>
      </trkpt>
      <trkpt lat="45.44686" lon="6.98586">
        <ele>1839.6</ele>
        <time>2021-07-23T09:51:05.285Z</time>
      </trkpt>
      <trkpt lat="45.44684" lon="6.98592">
        <ele>1839.6</ele>
        <time>2021-07-23T09:51:06.285Z</time>
      </trkpt>
      <trkpt lat="45.44682" lon="6.98598">
        <ele>1839.6</ele>
        <time>2021-07-23T09:51:07.285Z</time>
      </trkpt>
      <trkpt lat="45.44681" lon="6.98603">
        <ele>1839.6</ele>
        <time>2021-07-23T09:51:08.285Z</time>
      </trkpt>
      <trkpt lat="45.44679" lon="6.98609">
        <ele>1839.6</ele>
        <time>2021-07-23T09:51:09.285Z</time>
      </trkpt>
      <trkpt lat="45.44677" lon="6.98615">
        <ele>1839.6</ele>
        <time>2021-07-23T09:51:10.285Z</time>
      </trkpt>
      <trkpt lat="45.44676" lon="6.98621">
        <ele>1839.6</ele>
        <time>2021-07-23T09:51:11.285Z</time>
      </trkpt>
      <trkpt lat="45.44674" lon="6.98626">
        <ele>1839.6</ele>
        <time>2021-07-23T09:51:12.285Z</time>
      </trkpt>
      <trkpt lat="45.44672" lon="6.98632">
        <ele>1839.6</ele>
        <time>2021-07-23T09:51:13.285Z</time>
      </trkpt>
      <trkpt lat="45.4467" lon="6.98638">
        <ele>1840.2</ele>
        <time>2021-07-23T09:51:14.285Z</time>
      </trkpt>
      <trkpt lat="45.44668" lon="6.98643">
        <ele>1840.6</ele>
        <time>2021-07-23T09:51:15.285Z</time>
      </trkpt>
      <trkpt lat="45.44667" lon="6.98649">
        <ele>1841</ele>
        <time>2021-07-23T09:51:16.285Z</time>
      </trkpt>
      <trkpt lat="45.44666" lon="6.98656">
        <ele>1841.4</ele>
        <time>2021-07-23T09:51:17.285Z</time>
      </trkpt>
      <trkpt lat="45.44666" lon="6.98661">
        <ele>1842</ele>
        <time>2021-07-23T09:51:18.285Z</time>
      </trkpt>
      <trkpt lat="45.44665" lon="6.98667">
        <ele>1842</ele>
        <time>2021-07-23T09:51:19.285Z</time>
      </trkpt>
      <trkpt lat="45.44664" lon="6.98672">
        <ele>1842</ele>
        <time>2021-07-23T09:51:20.285Z</time>
      </trkpt>
      <trkpt lat="45.44664" lon="6.98678">
        <ele>1842.4</ele>
        <time>2021-07-23T09:51:21.285Z</time>
      </trkpt>
      <trkpt lat="45.44663" lon="6.98683">
        <ele>1842.8</ele>
        <time>2021-07-23T09:51:22.285Z</time>
      </trkpt>
      <trkpt lat="45.44662" lon="6.98688">
        <ele>1843.2</ele>
        <time>2021-07-23T09:51:23.285Z</time>
      </trkpt>
      <trkpt lat="45.44661" lon="6.98693">
        <ele>1843.6</ele>
        <time>2021-07-23T09:51:24.285Z</time>
      </trkpt>
      <trkpt lat="45.44661" lon="6.98699">
        <ele>1844</ele>
        <time>2021-07-23T09:51:25.285Z</time>
      </trkpt>
      <trkpt lat="45.4466" lon="6.98704">
        <ele>1844</ele>
        <time>2021-07-23T09:51:26.285Z</time>
      </trkpt>
      <trkpt lat="45.44659" lon="6.98709">
        <ele>1844</ele>
        <time>2021-07-23T09:51:27.285Z</time>
      </trkpt>
      <trkpt lat="45.44659" lon="6.98715">
        <ele>1844</ele>
        <time>2021-07-23T09:51:28.285Z</time>
      </trkpt>
      <trkpt lat="45.44658" lon="6.9872">
        <ele>1844</ele>
        <time>2021-07-23T09:51:29.285Z</time>
      </trkpt>
      <trkpt lat="45.44657" lon="6.98726">
        <ele>1844.4</ele>
        <time>2021-07-23T09:51:30.285Z</time>
      </trkpt>
      <trkpt lat="45.44656" lon="6.98732">
        <ele>1844.8</ele>
        <time>2021-07-23T09:51:31.285Z</time>
      </trkpt>
      <trkpt lat="45.44656" lon="6.98737">
        <ele>1845.2</ele>
        <time>2021-07-23T09:51:32.285Z</time>
      </trkpt>
      <trkpt lat="45.44655" lon="6.98742">
        <ele>1845.6</ele>
        <time>2021-07-23T09:51:33.285Z</time>
      </trkpt>
      <trkpt lat="45.44655" lon="6.98747">
        <ele>1846</ele>
        <time>2021-07-23T09:51:34.285Z</time>
      </trkpt>
      <trkpt lat="45.44654" lon="6.98752">
        <ele>1846</ele>
        <time>2021-07-23T09:51:35.285Z</time>
      </trkpt>
      <trkpt lat="45.44654" lon="6.98757">
        <ele>1846</ele>
        <time>2021-07-23T09:51:36.285Z</time>
      </trkpt>
      <trkpt lat="45.44653" lon="6.98762">
        <ele>1846.6</ele>
        <time>2021-07-23T09:51:37.285Z</time>
      </trkpt>
      <trkpt lat="45.44653" lon="6.98768">
        <ele>1847</ele>
        <time>2021-07-23T09:51:38.285Z</time>
      </trkpt>
      <trkpt lat="45.44653" lon="6.98774">
        <ele>1847.4</ele>
        <time>2021-07-23T09:51:39.285Z</time>
      </trkpt>
      <trkpt lat="45.44653" lon="6.9878">
        <ele>1847.8</ele>
        <time>2021-07-23T09:51:40.285Z</time>
      </trkpt>
      <trkpt lat="45.44652" lon="6.98785">
        <ele>1848.4</ele>
        <time>2021-07-23T09:51:41.285Z</time>
      </trkpt>
      <trkpt lat="45.44651" lon="6.98791">
        <ele>1848.4</ele>
        <time>2021-07-23T09:51:42.285Z</time>
      </trkpt>
      <trkpt lat="45.4465" lon="6.98796">
        <ele>1848.4</ele>
        <time>2021-07-23T09:51:43.285Z</time>
      </trkpt>
      <trkpt lat="45.4465" lon="6.98802">
        <ele>1848.4</ele>
        <time>2021-07-23T09:51:44.285Z</time>
      </trkpt>
      <trkpt lat="45.4465" lon="6.98808">
        <ele>1848.4</ele>
        <time>2021-07-23T09:51:45.285Z</time>
      </trkpt>
      <trkpt lat="45.44651" lon="6.98814">
        <ele>1848.4</ele>
        <time>2021-07-23T09:51:46.285Z</time>
      </trkpt>
      <trkpt lat="45.44653" lon="6.9882">
        <ele>1848.4</ele>
        <time>2021-07-23T09:51:47.285Z</time>
      </trkpt>
      <trkpt lat="45.44655" lon="6.98826">
        <ele>1848.4</ele>
        <time>2021-07-23T09:51:48.285Z</time>
      </trkpt>
      <trkpt lat="45.44657" lon="6.98832">
        <ele>1848.8</ele>
        <time>2021-07-23T09:51:49.285Z</time>
      </trkpt>
      <trkpt lat="45.44659" lon="6.98838">
        <ele>1849.2</ele>
        <time>2021-07-23T09:51:50.285Z</time>
      </trkpt>
      <trkpt lat="45.4466" lon="6.98844">
        <ele>1849.6</ele>
        <time>2021-07-23T09:51:51.285Z</time>
      </trkpt>
      <trkpt lat="45.44662" lon="6.9885">
        <ele>1850</ele>
        <time>2021-07-23T09:51:52.285Z</time>
      </trkpt>
      <trkpt lat="45.44664" lon="6.98857">
        <ele>1850.4</ele>
        <time>2021-07-23T09:51:53.285Z</time>
      </trkpt>
      <trkpt lat="45.44665" lon="6.98864">
        <ele>1850.4</ele>
        <time>2021-07-23T09:51:54.285Z</time>
      </trkpt>
      <trkpt lat="45.44667" lon="6.9887">
        <ele>1850.4</ele>
        <time>2021-07-23T09:51:55.285Z</time>
      </trkpt>
      <trkpt lat="45.44668" lon="6.98878">
        <ele>1850.4</ele>
        <time>2021-07-23T09:51:56.285Z</time>
      </trkpt>
      <trkpt lat="45.44669" lon="6.98885">
        <ele>1850.4</ele>
        <time>2021-07-23T09:51:57.285Z</time>
      </trkpt>
      <trkpt lat="45.4467" lon="6.98892">
        <ele>1850.4</ele>
        <time>2021-07-23T09:51:58.285Z</time>
      </trkpt>
      <trkpt lat="45.44672" lon="6.989">
        <ele>1850.4</ele>
        <time>2021-07-23T09:51:59.285Z</time>
      </trkpt>
      <trkpt lat="45.44673" lon="6.98908">
        <ele>1850.4</ele>
        <time>2021-07-23T09:52:00.285Z</time>
      </trkpt>
      <trkpt lat="45.44675" lon="6.98916">
        <ele>1850.4</ele>
        <time>2021-07-23T09:52:01.285Z</time>
      </trkpt>
      <trkpt lat="45.44676" lon="6.98924">
        <ele>1850.4</ele>
        <time>2021-07-23T09:52:02.285Z</time>
      </trkpt>
      <trkpt lat="45.44678" lon="6.98931">
        <ele>1850.4</ele>
        <time>2021-07-23T09:52:03.285Z</time>
      </trkpt>
      <trkpt lat="45.44679" lon="6.9894">
        <ele>1850.4</ele>
        <time>2021-07-23T09:52:04.285Z</time>
      </trkpt>
      <trkpt lat="45.4468" lon="6.98948">
        <ele>1850.4</ele>
        <time>2021-07-23T09:52:05.285Z</time>
      </trkpt>
      <trkpt lat="45.44682" lon="6.98956">
        <ele>1850.4</ele>
        <time>2021-07-23T09:52:06.285Z</time>
      </trkpt>
      <trkpt lat="45.44683" lon="6.98964">
        <ele>1850.4</ele>
        <time>2021-07-23T09:52:07.285Z</time>
      </trkpt>
      <trkpt lat="45.44685" lon="6.98972">
        <ele>1850.4</ele>
        <time>2021-07-23T09:52:08.285Z</time>
      </trkpt>
      <trkpt lat="45.44686" lon="6.9898">
        <ele>1850.4</ele>
        <time>2021-07-23T09:52:09.285Z</time>
      </trkpt>
      <trkpt lat="45.44687" lon="6.98988">
        <ele>1850.4</ele>
        <time>2021-07-23T09:52:10.285Z</time>
      </trkpt>
      <trkpt lat="45.44688" lon="6.98996">
        <ele>1850.4</ele>
        <time>2021-07-23T09:52:11.285Z</time>
      </trkpt>
      <trkpt lat="45.4469" lon="6.99003">
        <ele>1850.4</ele>
        <time>2021-07-23T09:52:12.285Z</time>
      </trkpt>
      <trkpt lat="45.44692" lon="6.9901">
        <ele>1850.4</ele>
        <time>2021-07-23T09:52:13.285Z</time>
      </trkpt>
      <trkpt lat="45.44693" lon="6.99018">
        <ele>1850.4</ele>
        <time>2021-07-23T09:52:14.285Z</time>
      </trkpt>
      <trkpt lat="45.44694" lon="6.99026">
        <ele>1850.4</ele>
        <time>2021-07-23T09:52:15.285Z</time>
      </trkpt>
      <trkpt lat="45.44695" lon="6.99033">
        <ele>1850.4</ele>
        <time>2021-07-23T09:52:16.285Z</time>
      </trkpt>
      <trkpt lat="45.44696" lon="6.9904">
        <ele>1850.8</ele>
        <time>2021-07-23T09:52:17.285Z</time>
      </trkpt>
      <trkpt lat="45.44697" lon="6.99046">
        <ele>1851.2</ele>
        <time>2021-07-23T09:52:18.285Z</time>
      </trkpt>
      <trkpt lat="45.44698" lon="6.99053">
        <ele>1851.6</ele>
        <time>2021-07-23T09:52:19.285Z</time>
      </trkpt>
      <trkpt lat="45.447" lon="6.9906">
        <ele>1852.2</ele>
        <time>2021-07-23T09:52:20.285Z</time>
      </trkpt>
      <trkpt lat="45.44701" lon="6.99067">
        <ele>1852.6</ele>
        <time>2021-07-23T09:52:21.285Z</time>
      </trkpt>
      <trkpt lat="45.44702" lon="6.99074">
        <ele>1852.6</ele>
        <time>2021-07-23T09:52:22.285Z</time>
      </trkpt>
      <trkpt lat="45.44703" lon="6.99081">
        <ele>1852.6</ele>
        <time>2021-07-23T09:52:23.285Z</time>
      </trkpt>
      <trkpt lat="45.44704" lon="6.99088">
        <ele>1852.6</ele>
        <time>2021-07-23T09:52:24.285Z</time>
      </trkpt>
      <trkpt lat="45.44706" lon="6.99095">
        <ele>1852.6</ele>
        <time>2021-07-23T09:52:25.285Z</time>
      </trkpt>
      <trkpt lat="45.44707" lon="6.99102">
        <ele>1852.6</ele>
        <time>2021-07-23T09:52:26.285Z</time>
      </trkpt>
      <trkpt lat="45.44708" lon="6.99108">
        <ele>1852.6</ele>
        <time>2021-07-23T09:52:27.285Z</time>
      </trkpt>
      <trkpt lat="45.44709" lon="6.99115">
        <ele>1852.6</ele>
        <time>2021-07-23T09:52:28.285Z</time>
      </trkpt>
      <trkpt lat="45.4471" lon="6.99122">
        <ele>1852.6</ele>
        <time>2021-07-23T09:52:29.285Z</time>
      </trkpt>
      <trkpt lat="45.44712" lon="6.99129">
        <ele>1853</ele>
        <time>2021-07-23T09:52:30.285Z</time>
      </trkpt>
      <trkpt lat="45.44713" lon="6.99135">
        <ele>1853.4</ele>
        <time>2021-07-23T09:52:31.285Z</time>
      </trkpt>
      <trkpt lat="45.44714" lon="6.99142">
        <ele>1853.8</ele>
        <time>2021-07-23T09:52:32.285Z</time>
      </trkpt>
      <trkpt lat="45.44715" lon="6.99148">
        <ele>1854.2</ele>
        <time>2021-07-23T09:52:33.285Z</time>
      </trkpt>
      <trkpt lat="45.44716" lon="6.99155">
        <ele>1854.6</ele>
        <time>2021-07-23T09:52:34.285Z</time>
      </trkpt>
      <trkpt lat="45.44718" lon="6.99162">
        <ele>1854.6</ele>
        <time>2021-07-23T09:52:35.285Z</time>
      </trkpt>
      <trkpt lat="45.44718" lon="6.99168">
        <ele>1854.6</ele>
        <time>2021-07-23T09:52:36.285Z</time>
      </trkpt>
      <trkpt lat="45.44719" lon="6.99175">
        <ele>1854.6</ele>
        <time>2021-07-23T09:52:37.285Z</time>
      </trkpt>
      <trkpt lat="45.4472" lon="6.99182">
        <ele>1854.6</ele>
        <time>2021-07-23T09:52:38.285Z</time>
      </trkpt>
      <trkpt lat="45.44721" lon="6.99188">
        <ele>1854.6</ele>
        <time>2021-07-23T09:52:39.285Z</time>
      </trkpt>
      <trkpt lat="45.44722" lon="6.99195">
        <ele>1854.6</ele>
        <time>2021-07-23T09:52:40.285Z</time>
      </trkpt>
      <trkpt lat="45.44723" lon="6.99202">
        <ele>1854.6</ele>
        <time>2021-07-23T09:52:41.285Z</time>
      </trkpt>
      <trkpt lat="45.44724" lon="6.99208">
        <ele>1854.6</ele>
        <time>2021-07-23T09:52:42.285Z</time>
      </trkpt>
      <trkpt lat="45.44725" lon="6.99215">
        <ele>1855</ele>
        <time>2021-07-23T09:52:43.285Z</time>
      </trkpt>
      <trkpt lat="45.44726" lon="6.99221">
        <ele>1855.6</ele>
        <time>2021-07-23T09:52:44.285Z</time>
      </trkpt>
      <trkpt lat="45.44727" lon="6.99227">
        <ele>1856</ele>
        <time>2021-07-23T09:52:45.285Z</time>
      </trkpt>
      <trkpt lat="45.44728" lon="6.99233">
        <ele>1856.4</ele>
        <time>2021-07-23T09:52:46.285Z</time>
      </trkpt>
      <trkpt lat="45.44728" lon="6.9924">
        <ele>1857</ele>
        <time>2021-07-23T09:52:47.285Z</time>
      </trkpt>
      <trkpt lat="45.44729" lon="6.99246">
        <ele>1857</ele>
        <time>2021-07-23T09:52:48.285Z</time>
      </trkpt>
      <trkpt lat="45.4473" lon="6.99252">
        <ele>1857</ele>
        <time>2021-07-23T09:52:49.285Z</time>
      </trkpt>
      <trkpt lat="45.44731" lon="6.99258">
        <ele>1857</ele>
        <time>2021-07-23T09:52:50.285Z</time>
      </trkpt>
      <trkpt lat="45.44732" lon="6.99264">
        <ele>1857</ele>
        <time>2021-07-23T09:52:51.285Z</time>
      </trkpt>
      <trkpt lat="45.44733" lon="6.99271">
        <ele>1857</ele>
        <time>2021-07-23T09:52:52.285Z</time>
      </trkpt>
      <trkpt lat="45.44733" lon="6.99277">
        <ele>1857</ele>
        <time>2021-07-23T09:52:53.285Z</time>
      </trkpt>
      <trkpt lat="45.44735" lon="6.99283">
        <ele>1857</ele>
        <time>2021-07-23T09:52:54.285Z</time>
      </trkpt>
      <trkpt lat="45.44735" lon="6.9929">
        <ele>1857.4</ele>
        <time>2021-07-23T09:52:55.285Z</time>
      </trkpt>
      <trkpt lat="45.44736" lon="6.99296">
        <ele>1857.8</ele>
        <time>2021-07-23T09:52:56.285Z</time>
      </trkpt>
      <trkpt lat="45.44737" lon="6.99302">
        <ele>1858.2</ele>
        <time>2021-07-23T09:52:57.285Z</time>
      </trkpt>
      <trkpt lat="45.44737" lon="6.99309">
        <ele>1858.6</ele>
        <time>2021-07-23T09:52:58.285Z</time>
      </trkpt>
      <trkpt lat="45.44738" lon="6.99315">
        <ele>1859</ele>
        <time>2021-07-23T09:52:59.285Z</time>
      </trkpt>
      <trkpt lat="45.44738" lon="6.99322">
        <ele>1859</ele>
        <time>2021-07-23T09:53:00.285Z</time>
      </trkpt>
      <trkpt lat="45.44739" lon="6.99329">
        <ele>1859</ele>
        <time>2021-07-23T09:53:01.285Z</time>
      </trkpt>
      <trkpt lat="45.44739" lon="6.99335">
        <ele>1859</ele>
        <time>2021-07-23T09:53:02.285Z</time>
      </trkpt>
      <trkpt lat="45.4474" lon="6.99341">
        <ele>1859</ele>
        <time>2021-07-23T09:53:03.285Z</time>
      </trkpt>
      <trkpt lat="45.44739" lon="6.99348">
        <ele>1859</ele>
        <time>2021-07-23T09:53:04.285Z</time>
      </trkpt>
      <trkpt lat="45.44739" lon="6.99354">
        <ele>1859</ele>
        <time>2021-07-23T09:53:05.285Z</time>
      </trkpt>
      <trkpt lat="45.4474" lon="6.99361">
        <ele>1859</ele>
        <time>2021-07-23T09:53:06.285Z</time>
      </trkpt>
      <trkpt lat="45.4474" lon="6.99367">
        <ele>1859</ele>
        <time>2021-07-23T09:53:07.285Z</time>
      </trkpt>
      <trkpt lat="45.4474" lon="6.99373">
        <ele>1859</ele>
        <time>2021-07-23T09:53:08.285Z</time>
      </trkpt>
      <trkpt lat="45.4474" lon="6.9938">
        <ele>1859.4</ele>
        <time>2021-07-23T09:53:09.285Z</time>
      </trkpt>
      <trkpt lat="45.4474" lon="6.99386">
        <ele>1860</ele>
        <time>2021-07-23T09:53:10.285Z</time>
      </trkpt>
      <trkpt lat="45.4474" lon="6.99392">
        <ele>1860.4</ele>
        <time>2021-07-23T09:53:11.285Z</time>
      </trkpt>
      <trkpt lat="45.44739" lon="6.99399">
        <ele>1860.8</ele>
        <time>2021-07-23T09:53:12.285Z</time>
      </trkpt>
      <trkpt lat="45.44739" lon="6.99406">
        <ele>1861.2</ele>
        <time>2021-07-23T09:53:13.285Z</time>
      </trkpt>
      <trkpt lat="45.44738" lon="6.99412">
        <ele>1861.2</ele>
        <time>2021-07-23T09:53:14.285Z</time>
      </trkpt>
      <trkpt lat="45.44738" lon="6.99419">
        <ele>1861.2</ele>
        <time>2021-07-23T09:53:15.285Z</time>
      </trkpt>
      <trkpt lat="45.44738" lon="6.99425">
        <ele>1861.2</ele>
        <time>2021-07-23T09:53:16.285Z</time>
      </trkpt>
      <trkpt lat="45.44737" lon="6.99431">
        <ele>1861.2</ele>
        <time>2021-07-23T09:53:17.285Z</time>
      </trkpt>
      <trkpt lat="45.44737" lon="6.99437">
        <ele>1861.2</ele>
        <time>2021-07-23T09:53:18.285Z</time>
      </trkpt>
      <trkpt lat="45.44737" lon="6.99443">
        <ele>1861.6</ele>
        <time>2021-07-23T09:53:19.285Z</time>
      </trkpt>
      <trkpt lat="45.44737" lon="6.99449">
        <ele>1862</ele>
        <time>2021-07-23T09:53:20.285Z</time>
      </trkpt>
      <trkpt lat="45.44737" lon="6.99456">
        <ele>1862.6</ele>
        <time>2021-07-23T09:53:21.285Z</time>
      </trkpt>
      <trkpt lat="45.44736" lon="6.99462">
        <ele>1863</ele>
        <time>2021-07-23T09:53:22.285Z</time>
      </trkpt>
      <trkpt lat="45.44736" lon="6.99468">
        <ele>1863.4</ele>
        <time>2021-07-23T09:53:23.285Z</time>
      </trkpt>
      <trkpt lat="45.44735" lon="6.99474">
        <ele>1863.4</ele>
        <time>2021-07-23T09:53:24.285Z</time>
      </trkpt>
      <trkpt lat="45.44735" lon="6.99481">
        <ele>1863.4</ele>
        <time>2021-07-23T09:53:25.285Z</time>
      </trkpt>
      <trkpt lat="45.44735" lon="6.99487">
        <ele>1863.4</ele>
        <time>2021-07-23T09:53:26.285Z</time>
      </trkpt>
      <trkpt lat="45.44735" lon="6.99493">
        <ele>1863.4</ele>
        <time>2021-07-23T09:53:27.285Z</time>
      </trkpt>
      <trkpt lat="45.44735" lon="6.995">
        <ele>1863.4</ele>
        <time>2021-07-23T09:53:28.285Z</time>
      </trkpt>
      <trkpt lat="45.44735" lon="6.99506">
        <ele>1863.4</ele>
        <time>2021-07-23T09:53:29.285Z</time>
      </trkpt>
      <trkpt lat="45.44735" lon="6.99512">
        <ele>1863.8</ele>
        <time>2021-07-23T09:53:30.285Z</time>
      </trkpt>
      <trkpt lat="45.44735" lon="6.99518">
        <ele>1864.2</ele>
        <time>2021-07-23T09:53:31.285Z</time>
      </trkpt>
      <trkpt lat="45.44735" lon="6.99524">
        <ele>1864.6</ele>
        <time>2021-07-23T09:53:32.285Z</time>
      </trkpt>
      <trkpt lat="45.44735" lon="6.9953">
        <ele>1865</ele>
        <time>2021-07-23T09:53:33.285Z</time>
      </trkpt>
      <trkpt lat="45.44735" lon="6.99536">
        <ele>1865.4</ele>
        <time>2021-07-23T09:53:34.285Z</time>
      </trkpt>
      <trkpt lat="45.44735" lon="6.99542">
        <ele>1865.4</ele>
        <time>2021-07-23T09:53:35.285Z</time>
      </trkpt>
      <trkpt lat="45.44735" lon="6.99548">
        <ele>1865.4</ele>
        <time>2021-07-23T09:53:36.285Z</time>
      </trkpt>
      <trkpt lat="45.44735" lon="6.99554">
        <ele>1865.4</ele>
        <time>2021-07-23T09:53:37.285Z</time>
      </trkpt>
      <trkpt lat="45.44735" lon="6.99561">
        <ele>1865.4</ele>
        <time>2021-07-23T09:53:38.285Z</time>
      </trkpt>
      <trkpt lat="45.44735" lon="6.99567">
        <ele>1865.4</ele>
        <time>2021-07-23T09:53:39.285Z</time>
      </trkpt>
      <trkpt lat="45.44734" lon="6.99572">
        <ele>1865.4</ele>
        <time>2021-07-23T09:53:40.285Z</time>
      </trkpt>
      <trkpt lat="45.44735" lon="6.99578">
        <ele>1865.8</ele>
        <time>2021-07-23T09:53:41.285Z</time>
      </trkpt>
      <trkpt lat="45.44735" lon="6.99584">
        <ele>1866.2</ele>
        <time>2021-07-23T09:53:42.285Z</time>
      </trkpt>
      <trkpt lat="45.44734" lon="6.99591">
        <ele>1866.6</ele>
        <time>2021-07-23T09:53:43.285Z</time>
      </trkpt>
      <trkpt lat="45.44734" lon="6.99597">
        <ele>1867</ele>
        <time>2021-07-23T09:53:44.285Z</time>
      </trkpt>
      <trkpt lat="45.44734" lon="6.99604">
        <ele>1867.4</ele>
        <time>2021-07-23T09:53:45.285Z</time>
      </trkpt>
      <trkpt lat="45.44735" lon="6.9961">
        <ele>1867.4</ele>
        <time>2021-07-23T09:53:46.285Z</time>
      </trkpt>
      <trkpt lat="45.44735" lon="6.99617">
        <ele>1867.4</ele>
        <time>2021-07-23T09:53:47.285Z</time>
      </trkpt>
      <trkpt lat="45.44735" lon="6.99623">
        <ele>1867.4</ele>
        <time>2021-07-23T09:53:48.285Z</time>
      </trkpt>
      <trkpt lat="45.44735" lon="6.9963">
        <ele>1867.4</ele>
        <time>2021-07-23T09:53:49.285Z</time>
      </trkpt>
      <trkpt lat="45.44736" lon="6.99636">
        <ele>1867.4</ele>
        <time>2021-07-23T09:53:50.285Z</time>
      </trkpt>
      <trkpt lat="45.44736" lon="6.99643">
        <ele>1867.4</ele>
        <time>2021-07-23T09:53:51.285Z</time>
      </trkpt>
      <trkpt lat="45.44736" lon="6.99649">
        <ele>1867.4</ele>
        <time>2021-07-23T09:53:52.285Z</time>
      </trkpt>
      <trkpt lat="45.44736" lon="6.99655">
        <ele>1867.8</ele>
        <time>2021-07-23T09:53:53.285Z</time>
      </trkpt>
      <trkpt lat="45.44736" lon="6.99661">
        <ele>1868.2</ele>
        <time>2021-07-23T09:53:54.285Z</time>
      </trkpt>
      <trkpt lat="45.44737" lon="6.99668">
        <ele>1868.6</ele>
        <time>2021-07-23T09:53:55.285Z</time>
      </trkpt>
      <trkpt lat="45.44737" lon="6.99674">
        <ele>1869.2</ele>
        <time>2021-07-23T09:53:56.285Z</time>
      </trkpt>
      <trkpt lat="45.44737" lon="6.9968">
        <ele>1869.6</ele>
        <time>2021-07-23T09:53:57.285Z</time>
      </trkpt>
      <trkpt lat="45.44737" lon="6.99687">
        <ele>1869.6</ele>
        <time>2021-07-23T09:53:58.285Z</time>
      </trkpt>
      <trkpt lat="45.44738" lon="6.99693">
        <ele>1869.6</ele>
        <time>2021-07-23T09:53:59.285Z</time>
      </trkpt>
      <trkpt lat="45.44738" lon="6.99699">
        <ele>1869.6</ele>
        <time>2021-07-23T09:54:00.285Z</time>
      </trkpt>
      <trkpt lat="45.44738" lon="6.99706">
        <ele>1869.6</ele>
        <time>2021-07-23T09:54:01.285Z</time>
      </trkpt>
      <trkpt lat="45.44738" lon="6.99712">
        <ele>1869.6</ele>
        <time>2021-07-23T09:54:02.285Z</time>
      </trkpt>
      <trkpt lat="45.44739" lon="6.99718">
        <ele>1869.6</ele>
        <time>2021-07-23T09:54:03.285Z</time>
      </trkpt>
      <trkpt lat="45.44739" lon="6.99724">
        <ele>1869.6</ele>
        <time>2021-07-23T09:54:04.285Z</time>
      </trkpt>
      <trkpt lat="45.44739" lon="6.9973">
        <ele>1869.6</ele>
        <time>2021-07-23T09:54:05.285Z</time>
      </trkpt>
      <trkpt lat="45.4474" lon="6.99736">
        <ele>1870</ele>
        <time>2021-07-23T09:54:06.285Z</time>
      </trkpt>
      <trkpt lat="45.4474" lon="6.99742">
        <ele>1870.4</ele>
        <time>2021-07-23T09:54:07.285Z</time>
      </trkpt>
      <trkpt lat="45.4474" lon="6.99749">
        <ele>1870.8</ele>
        <time>2021-07-23T09:54:08.285Z</time>
      </trkpt>
      <trkpt lat="45.44741" lon="6.99755">
        <ele>1871.2</ele>
        <time>2021-07-23T09:54:09.285Z</time>
      </trkpt>
      <trkpt lat="45.4474" lon="6.99761">
        <ele>1871.6</ele>
        <time>2021-07-23T09:54:10.285Z</time>
      </trkpt>
      <trkpt lat="45.44741" lon="6.99767">
        <ele>1871.6</ele>
        <time>2021-07-23T09:54:11.285Z</time>
      </trkpt>
      <trkpt lat="45.44741" lon="6.99773">
        <ele>1871.6</ele>
        <time>2021-07-23T09:54:12.285Z</time>
      </trkpt>
      <trkpt lat="45.44742" lon="6.9978">
        <ele>1871.6</ele>
        <time>2021-07-23T09:54:13.285Z</time>
      </trkpt>
      <trkpt lat="45.44742" lon="6.99786">
        <ele>1871.6</ele>
        <time>2021-07-23T09:54:14.285Z</time>
      </trkpt>
      <trkpt lat="45.44743" lon="6.99792">
        <ele>1871.6</ele>
        <time>2021-07-23T09:54:15.285Z</time>
      </trkpt>
      <trkpt lat="45.44743" lon="6.99798">
        <ele>1871.6</ele>
        <time>2021-07-23T09:54:16.285Z</time>
      </trkpt>
      <trkpt lat="45.44743" lon="6.99804">
        <ele>1871.6</ele>
        <time>2021-07-23T09:54:17.285Z</time>
      </trkpt>
      <trkpt lat="45.44743" lon="6.9981">
        <ele>1871.6</ele>
        <time>2021-07-23T09:54:18.285Z</time>
      </trkpt>
      <trkpt lat="45.44743" lon="6.99816">
        <ele>1872</ele>
        <time>2021-07-23T09:54:19.285Z</time>
      </trkpt>
      <trkpt lat="45.44744" lon="6.99822">
        <ele>1872.4</ele>
        <time>2021-07-23T09:54:20.285Z</time>
      </trkpt>
      <trkpt lat="45.44744" lon="6.99828">
        <ele>1873</ele>
        <time>2021-07-23T09:54:21.285Z</time>
      </trkpt>
      <trkpt lat="45.44745" lon="6.99834">
        <ele>1873.4</ele>
        <time>2021-07-23T09:54:22.285Z</time>
      </trkpt>
      <trkpt lat="45.44746" lon="6.9984">
        <ele>1873.8</ele>
        <time>2021-07-23T09:54:23.285Z</time>
      </trkpt>
      <trkpt lat="45.44746" lon="6.99846">
        <ele>1873.8</ele>
        <time>2021-07-23T09:54:24.285Z</time>
      </trkpt>
      <trkpt lat="45.44747" lon="6.99852">
        <ele>1873.8</ele>
        <time>2021-07-23T09:54:25.285Z</time>
      </trkpt>
      <trkpt lat="45.44748" lon="6.99858">
        <ele>1873.8</ele>
        <time>2021-07-23T09:54:26.285Z</time>
      </trkpt>
      <trkpt lat="45.44749" lon="6.99864">
        <ele>1873.8</ele>
        <time>2021-07-23T09:54:27.285Z</time>
      </trkpt>
      <trkpt lat="45.4475" lon="6.9987">
        <ele>1873.8</ele>
        <time>2021-07-23T09:54:28.285Z</time>
      </trkpt>
      <trkpt lat="45.4475" lon="6.99875">
        <ele>1873.8</ele>
        <time>2021-07-23T09:54:29.285Z</time>
      </trkpt>
      <trkpt lat="45.44751" lon="6.99881">
        <ele>1874.2</ele>
        <time>2021-07-23T09:54:30.285Z</time>
      </trkpt>
      <trkpt lat="45.44752" lon="6.99887">
        <ele>1874.6</ele>
        <time>2021-07-23T09:54:31.285Z</time>
      </trkpt>
      <trkpt lat="45.44752" lon="6.99893">
        <ele>1875</ele>
        <time>2021-07-23T09:54:32.285Z</time>
      </trkpt>
      <trkpt lat="45.44754" lon="6.99898">
        <ele>1875.4</ele>
        <time>2021-07-23T09:54:33.285Z</time>
      </trkpt>
      <trkpt lat="45.44755" lon="6.99904">
        <ele>1875.8</ele>
        <time>2021-07-23T09:54:34.285Z</time>
      </trkpt>
      <trkpt lat="45.44756" lon="6.99909">
        <ele>1875.8</ele>
        <time>2021-07-23T09:54:35.285Z</time>
      </trkpt>
      <trkpt lat="45.44757" lon="6.99915">
        <ele>1875.8</ele>
        <time>2021-07-23T09:54:36.285Z</time>
      </trkpt>
      <trkpt lat="45.44758" lon="6.9992">
        <ele>1875.8</ele>
        <time>2021-07-23T09:54:37.285Z</time>
      </trkpt>
      <trkpt lat="45.44759" lon="6.99925">
        <ele>1875.8</ele>
        <time>2021-07-23T09:54:38.285Z</time>
      </trkpt>
      <trkpt lat="45.44759" lon="6.99931">
        <ele>1875.8</ele>
        <time>2021-07-23T09:54:39.285Z</time>
      </trkpt>
      <trkpt lat="45.4476" lon="6.99936">
        <ele>1876.2</ele>
        <time>2021-07-23T09:54:40.285Z</time>
      </trkpt>
      <trkpt lat="45.44761" lon="6.99941">
        <ele>1876.8</ele>
        <time>2021-07-23T09:54:41.285Z</time>
      </trkpt>
      <trkpt lat="45.44761" lon="6.99947">
        <ele>1877.2</ele>
        <time>2021-07-23T09:54:42.285Z</time>
      </trkpt>
      <trkpt lat="45.44763" lon="6.99952">
        <ele>1877.6</ele>
        <time>2021-07-23T09:54:43.285Z</time>
      </trkpt>
      <trkpt lat="45.44763" lon="6.99957">
        <ele>1878</ele>
        <time>2021-07-23T09:54:44.285Z</time>
      </trkpt>
      <trkpt lat="45.44765" lon="6.99962">
        <ele>1878</ele>
        <time>2021-07-23T09:54:45.285Z</time>
      </trkpt>
      <trkpt lat="45.44766" lon="6.99967">
        <ele>1878</ele>
        <time>2021-07-23T09:54:46.285Z</time>
      </trkpt>
      <trkpt lat="45.44767" lon="6.99972">
        <ele>1878</ele>
        <time>2021-07-23T09:54:47.285Z</time>
      </trkpt>
      <trkpt lat="45.44767" lon="6.99977">
        <ele>1878.4</ele>
        <time>2021-07-23T09:54:48.285Z</time>
      </trkpt>
      <trkpt lat="45.44768" lon="6.99982">
        <ele>1878.8</ele>
        <time>2021-07-23T09:54:49.285Z</time>
      </trkpt>
      <trkpt lat="45.44769" lon="6.99986">
        <ele>1879.2</ele>
        <time>2021-07-23T09:54:50.285Z</time>
      </trkpt>
      <trkpt lat="45.4477" lon="6.99991">
        <ele>1879.6</ele>
        <time>2021-07-23T09:54:51.285Z</time>
      </trkpt>
      <trkpt lat="45.44771" lon="6.99996">
        <ele>1880</ele>
        <time>2021-07-23T09:54:52.285Z</time>
      </trkpt>
      <trkpt lat="45.44772" lon="7.00001">
        <ele>1880</ele>
        <time>2021-07-23T09:54:53.285Z</time>
      </trkpt>
      <trkpt lat="45.44773" lon="7.00006">
        <ele>1880</ele>
        <time>2021-07-23T09:54:54.285Z</time>
      </trkpt>
      <trkpt lat="45.44775" lon="7.00011">
        <ele>1880</ele>
        <time>2021-07-23T09:54:55.285Z</time>
      </trkpt>
      <trkpt lat="45.44777" lon="7.00016">
        <ele>1880.4</ele>
        <time>2021-07-23T09:54:56.285Z</time>
      </trkpt>
      <trkpt lat="45.44778" lon="7.00021">
        <ele>1880.8</ele>
        <time>2021-07-23T09:54:57.285Z</time>
      </trkpt>
      <trkpt lat="45.44778" lon="7.00026">
        <ele>1881.2</ele>
        <time>2021-07-23T09:54:58.285Z</time>
      </trkpt>
      <trkpt lat="45.44779" lon="7.00031">
        <ele>1881.8</ele>
        <time>2021-07-23T09:54:59.285Z</time>
      </trkpt>
      <trkpt lat="45.4478" lon="7.00036">
        <ele>1882.2</ele>
        <time>2021-07-23T09:55:00.285Z</time>
      </trkpt>
      <trkpt lat="45.44781" lon="7.00041">
        <ele>1882.2</ele>
        <time>2021-07-23T09:55:01.285Z</time>
      </trkpt>
      <trkpt lat="45.44781" lon="7.00046">
        <ele>1882.2</ele>
        <time>2021-07-23T09:55:02.285Z</time>
      </trkpt>
      <trkpt lat="45.44782" lon="7.00051">
        <ele>1882.2</ele>
        <time>2021-07-23T09:55:03.285Z</time>
      </trkpt>
      <trkpt lat="45.44782" lon="7.00057">
        <ele>1882.6</ele>
        <time>2021-07-23T09:55:04.285Z</time>
      </trkpt>
      <trkpt lat="45.44783" lon="7.00061">
        <ele>1883</ele>
        <time>2021-07-23T09:55:05.285Z</time>
      </trkpt>
      <trkpt lat="45.44783" lon="7.00067">
        <ele>1883.4</ele>
        <time>2021-07-23T09:55:06.285Z</time>
      </trkpt>
      <trkpt lat="45.44783" lon="7.00071">
        <ele>1883.8</ele>
        <time>2021-07-23T09:55:07.285Z</time>
      </trkpt>
      <trkpt lat="45.44783" lon="7.00077">
        <ele>1884.2</ele>
        <time>2021-07-23T09:55:08.285Z</time>
      </trkpt>
      <trkpt lat="45.44783" lon="7.00081">
        <ele>1884.2</ele>
        <time>2021-07-23T09:55:09.285Z</time>
      </trkpt>
      <trkpt lat="45.44783" lon="7.00086">
        <ele>1884.2</ele>
        <time>2021-07-23T09:55:10.285Z</time>
      </trkpt>
      <trkpt lat="45.44782" lon="7.00091">
        <ele>1884.2</ele>
        <time>2021-07-23T09:55:11.285Z</time>
      </trkpt>
      <trkpt lat="45.44782" lon="7.00096">
        <ele>1884.2</ele>
        <time>2021-07-23T09:55:12.285Z</time>
      </trkpt>
      <trkpt lat="45.44782" lon="7.00101">
        <ele>1884.6</ele>
        <time>2021-07-23T09:55:13.285Z</time>
      </trkpt>
      <trkpt lat="45.44782" lon="7.00106">
        <ele>1885</ele>
        <time>2021-07-23T09:55:14.285Z</time>
      </trkpt>
      <trkpt lat="45.44782" lon="7.0011">
        <ele>1885.6</ele>
        <time>2021-07-23T09:55:15.285Z</time>
      </trkpt>
      <trkpt lat="45.44783" lon="7.00114">
        <ele>1886</ele>
        <time>2021-07-23T09:55:16.285Z</time>
      </trkpt>
      <trkpt lat="45.44783" lon="7.00119">
        <ele>1886.4</ele>
        <time>2021-07-23T09:55:17.285Z</time>
      </trkpt>
      <trkpt lat="45.44783" lon="7.00123">
        <ele>1886.4</ele>
        <time>2021-07-23T09:55:18.285Z</time>
      </trkpt>
      <trkpt lat="45.44783" lon="7.00127">
        <ele>1886.4</ele>
        <time>2021-07-23T09:55:19.285Z</time>
      </trkpt>
      <trkpt lat="45.44783" lon="7.00132">
        <ele>1886.4</ele>
        <time>2021-07-23T09:55:20.285Z</time>
      </trkpt>
      <trkpt lat="45.44783" lon="7.00136">
        <ele>1886.8</ele>
        <time>2021-07-23T09:55:21.285Z</time>
      </trkpt>
      <trkpt lat="45.44783" lon="7.0014">
        <ele>1887.4</ele>
        <time>2021-07-23T09:55:22.285Z</time>
      </trkpt>
      <trkpt lat="45.44784" lon="7.00145">
        <ele>1887.8</ele>
        <time>2021-07-23T09:55:23.285Z</time>
      </trkpt>
      <trkpt lat="45.44784" lon="7.00149">
        <ele>1888.4</ele>
        <time>2021-07-23T09:55:24.285Z</time>
      </trkpt>
      <trkpt lat="45.44785" lon="7.00154">
        <ele>1888.8</ele>
        <time>2021-07-23T09:55:25.285Z</time>
      </trkpt>
      <trkpt lat="45.44785" lon="7.00158">
        <ele>1888.8</ele>
        <time>2021-07-23T09:55:26.285Z</time>
      </trkpt>
      <trkpt lat="45.44786" lon="7.00162">
        <ele>1888.8</ele>
        <time>2021-07-23T09:55:27.285Z</time>
      </trkpt>
      <trkpt lat="45.44787" lon="7.00167">
        <ele>1888.8</ele>
        <time>2021-07-23T09:55:28.285Z</time>
      </trkpt>
      <trkpt lat="45.44788" lon="7.00171">
        <ele>1889.2</ele>
        <time>2021-07-23T09:55:29.285Z</time>
      </trkpt>
      <trkpt lat="45.44789" lon="7.00176">
        <ele>1889.6</ele>
        <time>2021-07-23T09:55:30.285Z</time>
      </trkpt>
      <trkpt lat="45.44789" lon="7.0018">
        <ele>1890</ele>
        <time>2021-07-23T09:55:31.285Z</time>
      </trkpt>
      <trkpt lat="45.44789" lon="7.00184">
        <ele>1890.4</ele>
        <time>2021-07-23T09:55:32.285Z</time>
      </trkpt>
      <trkpt lat="45.4479" lon="7.00189">
        <ele>1890.8</ele>
        <time>2021-07-23T09:55:33.285Z</time>
      </trkpt>
      <trkpt lat="45.44792" lon="7.00194">
        <ele>1890.8</ele>
        <time>2021-07-23T09:55:34.285Z</time>
      </trkpt>
      <trkpt lat="45.44792" lon="7.00198">
        <ele>1890.8</ele>
        <time>2021-07-23T09:55:35.285Z</time>
      </trkpt>
      <trkpt lat="45.44794" lon="7.00203">
        <ele>1890.8</ele>
        <time>2021-07-23T09:55:36.285Z</time>
      </trkpt>
      <trkpt lat="45.44795" lon="7.00208">
        <ele>1890.8</ele>
        <time>2021-07-23T09:55:37.285Z</time>
      </trkpt>
      <trkpt lat="45.44796" lon="7.00213">
        <ele>1890.8</ele>
        <time>2021-07-23T09:55:38.285Z</time>
      </trkpt>
      <trkpt lat="45.44797" lon="7.00217">
        <ele>1890.8</ele>
        <time>2021-07-23T09:55:39.285Z</time>
      </trkpt>
      <trkpt lat="45.44797" lon="7.00223">
        <ele>1890.8</ele>
        <time>2021-07-23T09:55:40.285Z</time>
      </trkpt>
      <trkpt lat="45.44798" lon="7.00228">
        <ele>1891.4</ele>
        <time>2021-07-23T09:55:41.285Z</time>
      </trkpt>
      <trkpt lat="45.448" lon="7.00233">
        <ele>1891.8</ele>
        <time>2021-07-23T09:55:42.285Z</time>
      </trkpt>
      <trkpt lat="45.44801" lon="7.00238">
        <ele>1892.2</ele>
        <time>2021-07-23T09:55:43.285Z</time>
      </trkpt>
      <trkpt lat="45.44802" lon="7.00243">
        <ele>1893</ele>
        <time>2021-07-23T09:55:44.285Z</time>
      </trkpt>
      <trkpt lat="45.44802" lon="7.00248">
        <ele>1893</ele>
        <time>2021-07-23T09:55:45.285Z</time>
      </trkpt>
      <trkpt lat="45.44804" lon="7.00252">
        <ele>1893</ele>
        <time>2021-07-23T09:55:46.285Z</time>
      </trkpt>
      <trkpt lat="45.44805" lon="7.00257">
        <ele>1893</ele>
        <time>2021-07-23T09:55:47.285Z</time>
      </trkpt>
      <trkpt lat="45.44805" lon="7.00263">
        <ele>1893</ele>
        <time>2021-07-23T09:55:48.285Z</time>
      </trkpt>
      <trkpt lat="45.44807" lon="7.00267">
        <ele>1893</ele>
        <time>2021-07-23T09:55:49.285Z</time>
      </trkpt>
      <trkpt lat="45.44808" lon="7.00272">
        <ele>1893</ele>
        <time>2021-07-23T09:55:50.285Z</time>
      </trkpt>
      <trkpt lat="45.44809" lon="7.00277">
        <ele>1893.4</ele>
        <time>2021-07-23T09:55:51.285Z</time>
      </trkpt>
      <trkpt lat="45.4481" lon="7.00282">
        <ele>1893.8</ele>
        <time>2021-07-23T09:55:52.285Z</time>
      </trkpt>
      <trkpt lat="45.4481" lon="7.00287">
        <ele>1894.2</ele>
        <time>2021-07-23T09:55:53.285Z</time>
      </trkpt>
      <trkpt lat="45.44811" lon="7.00292">
        <ele>1894.8</ele>
        <time>2021-07-23T09:55:54.285Z</time>
      </trkpt>
      <trkpt lat="45.44812" lon="7.00297">
        <ele>1895.2</ele>
        <time>2021-07-23T09:55:55.285Z</time>
      </trkpt>
      <trkpt lat="45.44813" lon="7.00302">
        <ele>1895.2</ele>
        <time>2021-07-23T09:55:56.285Z</time>
      </trkpt>
      <trkpt lat="45.44814" lon="7.00307">
        <ele>1895.2</ele>
        <time>2021-07-23T09:55:57.285Z</time>
      </trkpt>
      <trkpt lat="45.44814" lon="7.00312">
        <ele>1895.2</ele>
        <time>2021-07-23T09:55:58.285Z</time>
      </trkpt>
      <trkpt lat="45.44814" lon="7.00317">
        <ele>1895.2</ele>
        <time>2021-07-23T09:55:59.285Z</time>
      </trkpt>
      <trkpt lat="45.44815" lon="7.00322">
        <ele>1895.2</ele>
        <time>2021-07-23T09:56:00.285Z</time>
      </trkpt>
      <trkpt lat="45.44816" lon="7.00327">
        <ele>1895.6</ele>
        <time>2021-07-23T09:56:01.285Z</time>
      </trkpt>
      <trkpt lat="45.44817" lon="7.00332">
        <ele>1896</ele>
        <time>2021-07-23T09:56:02.285Z</time>
      </trkpt>
      <trkpt lat="45.44817" lon="7.00337">
        <ele>1896.4</ele>
        <time>2021-07-23T09:56:03.285Z</time>
      </trkpt>
      <trkpt lat="45.44817" lon="7.00343">
        <ele>1896.8</ele>
        <time>2021-07-23T09:56:04.285Z</time>
      </trkpt>
      <trkpt lat="45.44817" lon="7.00348">
        <ele>1897.2</ele>
        <time>2021-07-23T09:56:05.285Z</time>
      </trkpt>
      <trkpt lat="45.44817" lon="7.00354">
        <ele>1897.2</ele>
        <time>2021-07-23T09:56:06.285Z</time>
      </trkpt>
      <trkpt lat="45.44817" lon="7.00359">
        <ele>1897.2</ele>
        <time>2021-07-23T09:56:07.285Z</time>
      </trkpt>
      <trkpt lat="45.44818" lon="7.00364">
        <ele>1897.2</ele>
        <time>2021-07-23T09:56:08.285Z</time>
      </trkpt>
      <trkpt lat="45.44818" lon="7.00369">
        <ele>1897.2</ele>
        <time>2021-07-23T09:56:09.285Z</time>
      </trkpt>
      <trkpt lat="45.44818" lon="7.00375">
        <ele>1897.2</ele>
        <time>2021-07-23T09:56:10.285Z</time>
      </trkpt>
      <trkpt lat="45.44818" lon="7.0038">
        <ele>1897.2</ele>
        <time>2021-07-23T09:56:11.285Z</time>
      </trkpt>
      <trkpt lat="45.44819" lon="7.00385">
        <ele>1897.2</ele>
        <time>2021-07-23T09:56:12.285Z</time>
      </trkpt>
      <trkpt lat="45.4482" lon="7.0039">
        <ele>1897.2</ele>
        <time>2021-07-23T09:56:13.285Z</time>
      </trkpt>
      <trkpt lat="45.4482" lon="7.00396">
        <ele>1897.2</ele>
        <time>2021-07-23T09:56:14.285Z</time>
      </trkpt>
      <trkpt lat="45.4482" lon="7.00401">
        <ele>1897.2</ele>
        <time>2021-07-23T09:56:15.285Z</time>
      </trkpt>
      <trkpt lat="45.4482" lon="7.00407">
        <ele>1897.6</ele>
        <time>2021-07-23T09:56:16.285Z</time>
      </trkpt>
      <trkpt lat="45.4482" lon="7.00412">
        <ele>1898.2</ele>
        <time>2021-07-23T09:56:17.285Z</time>
      </trkpt>
      <trkpt lat="45.4482" lon="7.00418">
        <ele>1898.6</ele>
        <time>2021-07-23T09:56:18.285Z</time>
      </trkpt>
      <trkpt lat="45.4482" lon="7.00422">
        <ele>1899</ele>
        <time>2021-07-23T09:56:19.285Z</time>
      </trkpt>
      <trkpt lat="45.4482" lon="7.00428">
        <ele>1899.4</ele>
        <time>2021-07-23T09:56:20.285Z</time>
      </trkpt>
      <trkpt lat="45.4482" lon="7.00433">
        <ele>1899.4</ele>
        <time>2021-07-23T09:56:21.285Z</time>
      </trkpt>
      <trkpt lat="45.44821" lon="7.00438">
        <ele>1899.4</ele>
        <time>2021-07-23T09:56:22.285Z</time>
      </trkpt>
      <trkpt lat="45.44821" lon="7.00443">
        <ele>1899.4</ele>
        <time>2021-07-23T09:56:23.285Z</time>
      </trkpt>
      <trkpt lat="45.44821" lon="7.00448">
        <ele>1899.4</ele>
        <time>2021-07-23T09:56:24.285Z</time>
      </trkpt>
      <trkpt lat="45.44821" lon="7.00453">
        <ele>1899.4</ele>
        <time>2021-07-23T09:56:25.285Z</time>
      </trkpt>
      <trkpt lat="45.44821" lon="7.00458">
        <ele>1899.4</ele>
        <time>2021-07-23T09:56:26.285Z</time>
      </trkpt>
      <trkpt lat="45.44821" lon="7.00463">
        <ele>1899.8</ele>
        <time>2021-07-23T09:56:27.285Z</time>
      </trkpt>
      <trkpt lat="45.44821" lon="7.00468">
        <ele>1900.2</ele>
        <time>2021-07-23T09:56:28.285Z</time>
      </trkpt>
      <trkpt lat="45.44821" lon="7.00473">
        <ele>1900.6</ele>
        <time>2021-07-23T09:56:29.285Z</time>
      </trkpt>
      <trkpt lat="45.44822" lon="7.00479">
        <ele>1901</ele>
        <time>2021-07-23T09:56:30.285Z</time>
      </trkpt>
      <trkpt lat="45.44822" lon="7.00484">
        <ele>1901.4</ele>
        <time>2021-07-23T09:56:31.285Z</time>
      </trkpt>
      <trkpt lat="45.44822" lon="7.00489">
        <ele>1901.4</ele>
        <time>2021-07-23T09:56:32.285Z</time>
      </trkpt>
      <trkpt lat="45.44822" lon="7.00494">
        <ele>1901.4</ele>
        <time>2021-07-23T09:56:33.285Z</time>
      </trkpt>
      <trkpt lat="45.44822" lon="7.00499">
        <ele>1901.4</ele>
        <time>2021-07-23T09:56:34.285Z</time>
      </trkpt>
      <trkpt lat="45.44823" lon="7.00504">
        <ele>1901.4</ele>
        <time>2021-07-23T09:56:35.285Z</time>
      </trkpt>
      <trkpt lat="45.44823" lon="7.00509">
        <ele>1901.4</ele>
        <time>2021-07-23T09:56:36.285Z</time>
      </trkpt>
      <trkpt lat="45.44823" lon="7.00514">
        <ele>1902</ele>
        <time>2021-07-23T09:56:37.285Z</time>
      </trkpt>
      <trkpt lat="45.44823" lon="7.00519">
        <ele>1902.4</ele>
        <time>2021-07-23T09:56:38.285Z</time>
      </trkpt>
      <trkpt lat="45.44823" lon="7.00523">
        <ele>1902.8</ele>
        <time>2021-07-23T09:56:39.285Z</time>
      </trkpt>
      <trkpt lat="45.44824" lon="7.00529">
        <ele>1903.2</ele>
        <time>2021-07-23T09:56:40.285Z</time>
      </trkpt>
      <trkpt lat="45.44824" lon="7.00534">
        <ele>1903.6</ele>
        <time>2021-07-23T09:56:41.285Z</time>
      </trkpt>
      <trkpt lat="45.44825" lon="7.00538">
        <ele>1903.6</ele>
        <time>2021-07-23T09:56:42.285Z</time>
      </trkpt>
      <trkpt lat="45.44825" lon="7.00543">
        <ele>1903.6</ele>
        <time>2021-07-23T09:56:43.285Z</time>
      </trkpt>
      <trkpt lat="45.44824" lon="7.00549">
        <ele>1903.6</ele>
        <time>2021-07-23T09:56:44.285Z</time>
      </trkpt>
      <trkpt lat="45.44824" lon="7.00553">
        <ele>1903.6</ele>
        <time>2021-07-23T09:56:45.285Z</time>
      </trkpt>
      <trkpt lat="45.44825" lon="7.00559">
        <ele>1904</ele>
        <time>2021-07-23T09:56:46.285Z</time>
      </trkpt>
      <trkpt lat="45.44825" lon="7.00563">
        <ele>1904.4</ele>
        <time>2021-07-23T09:56:47.285Z</time>
      </trkpt>
      <trkpt lat="45.44825" lon="7.00568">
        <ele>1904.8</ele>
        <time>2021-07-23T09:56:48.285Z</time>
      </trkpt>
      <trkpt lat="45.44826" lon="7.00573">
        <ele>1905.2</ele>
        <time>2021-07-23T09:56:49.285Z</time>
      </trkpt>
      <trkpt lat="45.44826" lon="7.00578">
        <ele>1905.6</ele>
        <time>2021-07-23T09:56:50.285Z</time>
      </trkpt>
      <trkpt lat="45.44826" lon="7.00583">
        <ele>1905.6</ele>
        <time>2021-07-23T09:56:51.285Z</time>
      </trkpt>
      <trkpt lat="45.44826" lon="7.00588">
        <ele>1905.6</ele>
        <time>2021-07-23T09:56:52.285Z</time>
      </trkpt>
      <trkpt lat="45.44826" lon="7.00593">
        <ele>1905.6</ele>
        <time>2021-07-23T09:56:53.285Z</time>
      </trkpt>
      <trkpt lat="45.44826" lon="7.00598">
        <ele>1905.6</ele>
        <time>2021-07-23T09:56:54.285Z</time>
      </trkpt>
      <trkpt lat="45.44827" lon="7.00603">
        <ele>1905.6</ele>
        <time>2021-07-23T09:56:55.285Z</time>
      </trkpt>
      <trkpt lat="45.44827" lon="7.00607">
        <ele>1905.6</ele>
        <time>2021-07-23T09:56:56.285Z</time>
      </trkpt>
      <trkpt lat="45.44827" lon="7.00613">
        <ele>1905.6</ele>
        <time>2021-07-23T09:56:57.285Z</time>
      </trkpt>
      <trkpt lat="45.44827" lon="7.00618">
        <ele>1906.4</ele>
        <time>2021-07-23T09:56:58.285Z</time>
      </trkpt>
      <trkpt lat="45.44827" lon="7.00624">
        <ele>1906.8</ele>
        <time>2021-07-23T09:56:59.285Z</time>
      </trkpt>
      <trkpt lat="45.44827" lon="7.00629">
        <ele>1907.2</ele>
        <time>2021-07-23T09:57:00.285Z</time>
      </trkpt>
      <trkpt lat="45.44828" lon="7.00634">
        <ele>1907.6</ele>
        <time>2021-07-23T09:57:01.285Z</time>
      </trkpt>
      <trkpt lat="45.44828" lon="7.00639">
        <ele>1907.6</ele>
        <time>2021-07-23T09:57:02.285Z</time>
      </trkpt>
      <trkpt lat="45.44829" lon="7.00644">
        <ele>1907.6</ele>
        <time>2021-07-23T09:57:03.285Z</time>
      </trkpt>
      <trkpt lat="45.44829" lon="7.00649">
        <ele>1907.6</ele>
        <time>2021-07-23T09:57:04.285Z</time>
      </trkpt>
      <trkpt lat="45.44829" lon="7.00654">
        <ele>1907.6</ele>
        <time>2021-07-23T09:57:05.285Z</time>
      </trkpt>
      <trkpt lat="45.4483" lon="7.00659">
        <ele>1907.6</ele>
        <time>2021-07-23T09:57:06.285Z</time>
      </trkpt>
      <trkpt lat="45.44832" lon="7.00664">
        <ele>1907.6</ele>
        <time>2021-07-23T09:57:07.285Z</time>
      </trkpt>
      <trkpt lat="45.44833" lon="7.00669">
        <ele>1908</ele>
        <time>2021-07-23T09:57:08.285Z</time>
      </trkpt>
      <trkpt lat="45.44834" lon="7.00673">
        <ele>1908.4</ele>
        <time>2021-07-23T09:57:09.285Z</time>
      </trkpt>
      <trkpt lat="45.44835" lon="7.00677">
        <ele>1909</ele>
        <time>2021-07-23T09:57:10.285Z</time>
      </trkpt>
      <trkpt lat="45.44836" lon="7.00682">
        <ele>1909.4</ele>
        <time>2021-07-23T09:57:11.285Z</time>
      </trkpt>
      <trkpt lat="45.44837" lon="7.00686">
        <ele>1909.8</ele>
        <time>2021-07-23T09:57:12.285Z</time>
      </trkpt>
      <trkpt lat="45.44839" lon="7.00691">
        <ele>1909.8</ele>
        <time>2021-07-23T09:57:13.285Z</time>
      </trkpt>
      <trkpt lat="45.4484" lon="7.00695">
        <ele>1909.8</ele>
        <time>2021-07-23T09:57:14.285Z</time>
      </trkpt>
      <trkpt lat="45.44842" lon="7.00699">
        <ele>1910.2</ele>
        <time>2021-07-23T09:57:15.285Z</time>
      </trkpt>
      <trkpt lat="45.44844" lon="7.00703">
        <ele>1910.6</ele>
        <time>2021-07-23T09:57:16.285Z</time>
      </trkpt>
      <trkpt lat="45.44845" lon="7.00707">
        <ele>1911</ele>
        <time>2021-07-23T09:57:17.285Z</time>
      </trkpt>
      <trkpt lat="45.44847" lon="7.00711">
        <ele>1911.4</ele>
        <time>2021-07-23T09:57:18.285Z</time>
      </trkpt>
      <trkpt lat="45.44849" lon="7.00714">
        <ele>1911.8</ele>
        <time>2021-07-23T09:57:19.285Z</time>
      </trkpt>
      <trkpt lat="45.4485" lon="7.00718">
        <ele>1911.8</ele>
        <time>2021-07-23T09:57:20.285Z</time>
      </trkpt>
      <trkpt lat="45.44852" lon="7.00721">
        <ele>1911.8</ele>
        <time>2021-07-23T09:57:21.285Z</time>
      </trkpt>
      <trkpt lat="45.44854" lon="7.00724">
        <ele>1911.8</ele>
        <time>2021-07-23T09:57:22.285Z</time>
      </trkpt>
      <trkpt lat="45.44855" lon="7.00727">
        <ele>1912.6</ele>
        <time>2021-07-23T09:57:23.285Z</time>
      </trkpt>
      <trkpt lat="45.44857" lon="7.00731">
        <ele>1913</ele>
        <time>2021-07-23T09:57:24.285Z</time>
      </trkpt>
      <trkpt lat="45.44858" lon="7.00734">
        <ele>1913.4</ele>
        <time>2021-07-23T09:57:25.285Z</time>
      </trkpt>
      <trkpt lat="45.4486" lon="7.00737">
        <ele>1914</ele>
        <time>2021-07-23T09:57:26.285Z</time>
      </trkpt>
      <trkpt lat="45.44862" lon="7.00741">
        <ele>1914</ele>
        <time>2021-07-23T09:57:27.285Z</time>
      </trkpt>
      <trkpt lat="45.44863" lon="7.00744">
        <ele>1914</ele>
        <time>2021-07-23T09:57:28.285Z</time>
      </trkpt>
      <trkpt lat="45.44865" lon="7.00748">
        <ele>1914</ele>
        <time>2021-07-23T09:57:29.285Z</time>
      </trkpt>
      <trkpt lat="45.44867" lon="7.00751">
        <ele>1914.4</ele>
        <time>2021-07-23T09:57:30.285Z</time>
      </trkpt>
      <trkpt lat="45.44868" lon="7.00754">
        <ele>1914.8</ele>
        <time>2021-07-23T09:57:31.285Z</time>
      </trkpt>
      <trkpt lat="45.44869" lon="7.00758">
        <ele>1915.2</ele>
        <time>2021-07-23T09:57:32.285Z</time>
      </trkpt>
      <trkpt lat="45.44871" lon="7.00761">
        <ele>1915.6</ele>
        <time>2021-07-23T09:57:33.285Z</time>
      </trkpt>
      <trkpt lat="45.44873" lon="7.00765">
        <ele>1916</ele>
        <time>2021-07-23T09:57:34.285Z</time>
      </trkpt>
      <trkpt lat="45.44874" lon="7.00768">
        <ele>1916</ele>
        <time>2021-07-23T09:57:35.285Z</time>
      </trkpt>
      <trkpt lat="45.44876" lon="7.00772">
        <ele>1916</ele>
        <time>2021-07-23T09:57:36.285Z</time>
      </trkpt>
      <trkpt lat="45.44877" lon="7.00775">
        <ele>1916</ele>
        <time>2021-07-23T09:57:37.285Z</time>
      </trkpt>
      <trkpt lat="45.44879" lon="7.00779">
        <ele>1916</ele>
        <time>2021-07-23T09:57:38.285Z</time>
      </trkpt>
      <trkpt lat="45.4488" lon="7.00782">
        <ele>1916.4</ele>
        <time>2021-07-23T09:57:39.285Z</time>
      </trkpt>
      <trkpt lat="45.44882" lon="7.00785">
        <ele>1917</ele>
        <time>2021-07-23T09:57:40.285Z</time>
      </trkpt>
      <trkpt lat="45.44884" lon="7.00789">
        <ele>1917.4</ele>
        <time>2021-07-23T09:57:41.285Z</time>
      </trkpt>
      <trkpt lat="45.44885" lon="7.00793">
        <ele>1917.8</ele>
        <time>2021-07-23T09:57:42.285Z</time>
      </trkpt>
      <trkpt lat="45.44887" lon="7.00796">
        <ele>1918.2</ele>
        <time>2021-07-23T09:57:43.285Z</time>
      </trkpt>
      <trkpt lat="45.44888" lon="7.00799">
        <ele>1918.2</ele>
        <time>2021-07-23T09:57:44.285Z</time>
      </trkpt>
      <trkpt lat="45.4489" lon="7.00803">
        <ele>1918.2</ele>
        <time>2021-07-23T09:57:45.285Z</time>
      </trkpt>
      <trkpt lat="45.44891" lon="7.00806">
        <ele>1918.2</ele>
        <time>2021-07-23T09:57:46.285Z</time>
      </trkpt>
      <trkpt lat="45.44892" lon="7.00809">
        <ele>1918.6</ele>
        <time>2021-07-23T09:57:47.285Z</time>
      </trkpt>
      <trkpt lat="45.44893" lon="7.00813">
        <ele>1919.6</ele>
        <time>2021-07-23T09:57:48.285Z</time>
      </trkpt>
      <trkpt lat="45.44895" lon="7.00816">
        <ele>1920</ele>
        <time>2021-07-23T09:57:49.285Z</time>
      </trkpt>
      <trkpt lat="45.44897" lon="7.0082">
        <ele>1920.4</ele>
        <time>2021-07-23T09:57:50.285Z</time>
      </trkpt>
      <trkpt lat="45.44898" lon="7.00823">
        <ele>1920.4</ele>
        <time>2021-07-23T09:57:51.285Z</time>
      </trkpt>
      <trkpt lat="45.449" lon="7.00826">
        <ele>1920.4</ele>
        <time>2021-07-23T09:57:52.285Z</time>
      </trkpt>
      <trkpt lat="45.44901" lon="7.00829">
        <ele>1920.4</ele>
        <time>2021-07-23T09:57:53.285Z</time>
      </trkpt>
      <trkpt lat="45.44902" lon="7.00832">
        <ele>1920.4</ele>
        <time>2021-07-23T09:57:54.285Z</time>
      </trkpt>
      <trkpt lat="45.44904" lon="7.00835">
        <ele>1920.4</ele>
        <time>2021-07-23T09:57:55.285Z</time>
      </trkpt>
      <trkpt lat="45.44905" lon="7.00838">
        <ele>1920.8</ele>
        <time>2021-07-23T09:57:56.285Z</time>
      </trkpt>
      <trkpt lat="45.44907" lon="7.00841">
        <ele>1921.2</ele>
        <time>2021-07-23T09:57:57.285Z</time>
      </trkpt>
      <trkpt lat="45.44908" lon="7.00844">
        <ele>1921.6</ele>
        <time>2021-07-23T09:57:58.285Z</time>
      </trkpt>
      <trkpt lat="45.44909" lon="7.00847">
        <ele>1922.2</ele>
        <time>2021-07-23T09:57:59.285Z</time>
      </trkpt>
      <trkpt lat="45.44911" lon="7.0085">
        <ele>1922.6</ele>
        <time>2021-07-23T09:58:00.285Z</time>
      </trkpt>
      <trkpt lat="45.44911" lon="7.00854">
        <ele>1922.6</ele>
        <time>2021-07-23T09:58:01.285Z</time>
      </trkpt>
      <trkpt lat="45.44913" lon="7.00857">
        <ele>1922.6</ele>
        <time>2021-07-23T09:58:02.285Z</time>
      </trkpt>
      <trkpt lat="45.44914" lon="7.0086">
        <ele>1922.6</ele>
        <time>2021-07-23T09:58:03.285Z</time>
      </trkpt>
      <trkpt lat="45.44916" lon="7.00863">
        <ele>1922.6</ele>
        <time>2021-07-23T09:58:04.285Z</time>
      </trkpt>
      <trkpt lat="45.44917" lon="7.00866">
        <ele>1922.6</ele>
        <time>2021-07-23T09:58:05.285Z</time>
      </trkpt>
      <trkpt lat="45.44919" lon="7.00869">
        <ele>1923</ele>
        <time>2021-07-23T09:58:06.285Z</time>
      </trkpt>
      <trkpt lat="45.4492" lon="7.00872">
        <ele>1923.4</ele>
        <time>2021-07-23T09:58:07.285Z</time>
      </trkpt>
      <trkpt lat="45.44922" lon="7.00875">
        <ele>1923.8</ele>
        <time>2021-07-23T09:58:08.285Z</time>
      </trkpt>
      <trkpt lat="45.44923" lon="7.00878">
        <ele>1924.2</ele>
        <time>2021-07-23T09:58:09.285Z</time>
      </trkpt>
      <trkpt lat="45.44924" lon="7.00882">
        <ele>1924.8</ele>
        <time>2021-07-23T09:58:10.285Z</time>
      </trkpt>
      <trkpt lat="45.44925" lon="7.00885">
        <ele>1924.8</ele>
        <time>2021-07-23T09:58:11.285Z</time>
      </trkpt>
      <trkpt lat="45.44927" lon="7.00887">
        <ele>1924.8</ele>
        <time>2021-07-23T09:58:12.285Z</time>
      </trkpt>
      <trkpt lat="45.44929" lon="7.00889">
        <ele>1924.8</ele>
        <time>2021-07-23T09:58:13.285Z</time>
      </trkpt>
      <trkpt lat="45.44931" lon="7.00892">
        <ele>1924.8</ele>
        <time>2021-07-23T09:58:14.285Z</time>
      </trkpt>
      <trkpt lat="45.44932" lon="7.00895">
        <ele>1924.8</ele>
        <time>2021-07-23T09:58:15.285Z</time>
      </trkpt>
      <trkpt lat="45.44933" lon="7.00899">
        <ele>1925.2</ele>
        <time>2021-07-23T09:58:16.285Z</time>
      </trkpt>
      <trkpt lat="45.44935" lon="7.00902">
        <ele>1925.6</ele>
        <time>2021-07-23T09:58:17.285Z</time>
      </trkpt>
      <trkpt lat="45.44935" lon="7.00906">
        <ele>1926</ele>
        <time>2021-07-23T09:58:18.285Z</time>
      </trkpt>
      <trkpt lat="45.44937" lon="7.0091">
        <ele>1926.4</ele>
        <time>2021-07-23T09:58:19.285Z</time>
      </trkpt>
      <trkpt lat="45.44939" lon="7.00913">
        <ele>1926.8</ele>
        <time>2021-07-23T09:58:20.285Z</time>
      </trkpt>
      <trkpt lat="45.4494" lon="7.00917">
        <ele>1926.8</ele>
        <time>2021-07-23T09:58:21.285Z</time>
      </trkpt>
      <trkpt lat="45.44941" lon="7.0092">
        <ele>1926.8</ele>
        <time>2021-07-23T09:58:22.285Z</time>
      </trkpt>
      <trkpt lat="45.44942" lon="7.00923">
        <ele>1926.8</ele>
        <time>2021-07-23T09:58:23.285Z</time>
      </trkpt>
      <trkpt lat="45.44944" lon="7.00926">
        <ele>1926.8</ele>
        <time>2021-07-23T09:58:24.285Z</time>
      </trkpt>
      <trkpt lat="45.44945" lon="7.00929">
        <ele>1926.8</ele>
        <time>2021-07-23T09:58:25.285Z</time>
      </trkpt>
      <trkpt lat="45.44947" lon="7.00932">
        <ele>1927.2</ele>
        <time>2021-07-23T09:58:26.285Z</time>
      </trkpt>
      <trkpt lat="45.44948" lon="7.00935">
        <ele>1927.6</ele>
        <time>2021-07-23T09:58:27.285Z</time>
      </trkpt>
      <trkpt lat="45.4495" lon="7.00938">
        <ele>1928</ele>
        <time>2021-07-23T09:58:28.285Z</time>
      </trkpt>
      <trkpt lat="45.44952" lon="7.00941">
        <ele>1928.6</ele>
        <time>2021-07-23T09:58:29.285Z</time>
      </trkpt>
      <trkpt lat="45.44953" lon="7.00944">
        <ele>1929</ele>
        <time>2021-07-23T09:58:30.285Z</time>
      </trkpt>
      <trkpt lat="45.44955" lon="7.00947">
        <ele>1929</ele>
        <time>2021-07-23T09:58:31.285Z</time>
      </trkpt>
      <trkpt lat="45.44957" lon="7.0095">
        <ele>1929</ele>
        <time>2021-07-23T09:58:32.285Z</time>
      </trkpt>
      <trkpt lat="45.44958" lon="7.00952">
        <ele>1929</ele>
        <time>2021-07-23T09:58:33.285Z</time>
      </trkpt>
      <trkpt lat="45.44959" lon="7.00956">
        <ele>1929.4</ele>
        <time>2021-07-23T09:58:34.285Z</time>
      </trkpt>
      <trkpt lat="45.44961" lon="7.00959">
        <ele>1929.8</ele>
        <time>2021-07-23T09:58:35.285Z</time>
      </trkpt>
      <trkpt lat="45.44962" lon="7.00962">
        <ele>1930.2</ele>
        <time>2021-07-23T09:58:36.285Z</time>
      </trkpt>
      <trkpt lat="45.44964" lon="7.00965">
        <ele>1931.2</ele>
        <time>2021-07-23T09:58:37.285Z</time>
      </trkpt>
      <trkpt lat="45.44966" lon="7.00968">
        <ele>1931.2</ele>
        <time>2021-07-23T09:58:38.285Z</time>
      </trkpt>
      <trkpt lat="45.44968" lon="7.00971">
        <ele>1931.2</ele>
        <time>2021-07-23T09:58:39.285Z</time>
      </trkpt>
      <trkpt lat="45.4497" lon="7.00974">
        <ele>1931.2</ele>
        <time>2021-07-23T09:58:40.285Z</time>
      </trkpt>
      <trkpt lat="45.44971" lon="7.00977">
        <ele>1931.2</ele>
        <time>2021-07-23T09:58:41.285Z</time>
      </trkpt>
      <trkpt lat="45.44973" lon="7.0098">
        <ele>1931.2</ele>
        <time>2021-07-23T09:58:42.285Z</time>
      </trkpt>
      <trkpt lat="45.44975" lon="7.00984">
        <ele>1931.6</ele>
        <time>2021-07-23T09:58:43.285Z</time>
      </trkpt>
      <trkpt lat="45.44976" lon="7.00987">
        <ele>1932</ele>
        <time>2021-07-23T09:58:44.285Z</time>
      </trkpt>
      <trkpt lat="45.44978" lon="7.00991">
        <ele>1932.4</ele>
        <time>2021-07-23T09:58:45.285Z</time>
      </trkpt>
      <trkpt lat="45.44981" lon="7.00994">
        <ele>1932.8</ele>
        <time>2021-07-23T09:58:46.285Z</time>
      </trkpt>
      <trkpt lat="45.44983" lon="7.00997">
        <ele>1933.2</ele>
        <time>2021-07-23T09:58:47.285Z</time>
      </trkpt>
      <trkpt lat="45.44985" lon="7.01">
        <ele>1933.2</ele>
        <time>2021-07-23T09:58:48.285Z</time>
      </trkpt>
      <trkpt lat="45.44988" lon="7.01002">
        <ele>1933.2</ele>
        <time>2021-07-23T09:58:49.285Z</time>
      </trkpt>
      <trkpt lat="45.4499" lon="7.01005">
        <ele>1933.2</ele>
        <time>2021-07-23T09:58:50.285Z</time>
      </trkpt>
      <trkpt lat="45.44993" lon="7.01009">
        <ele>1933.2</ele>
        <time>2021-07-23T09:58:51.285Z</time>
      </trkpt>
      <trkpt lat="45.44995" lon="7.01012">
        <ele>1933.2</ele>
        <time>2021-07-23T09:58:52.285Z</time>
      </trkpt>
      <trkpt lat="45.44998" lon="7.01015">
        <ele>1933.2</ele>
        <time>2021-07-23T09:58:53.285Z</time>
      </trkpt>
      <trkpt lat="45.45" lon="7.01018">
        <ele>1933.8</ele>
        <time>2021-07-23T09:58:54.285Z</time>
      </trkpt>
      <trkpt lat="45.45003" lon="7.01022">
        <ele>1934.2</ele>
        <time>2021-07-23T09:58:55.285Z</time>
      </trkpt>
      <trkpt lat="45.45005" lon="7.01025">
        <ele>1934.6</ele>
        <time>2021-07-23T09:58:56.285Z</time>
      </trkpt>
      <trkpt lat="45.45007" lon="7.01028">
        <ele>1935</ele>
        <time>2021-07-23T09:58:57.285Z</time>
      </trkpt>
      <trkpt lat="45.45009" lon="7.01031">
        <ele>1935.4</ele>
        <time>2021-07-23T09:58:58.285Z</time>
      </trkpt>
      <trkpt lat="45.45012" lon="7.01034">
        <ele>1935.4</ele>
        <time>2021-07-23T09:58:59.285Z</time>
      </trkpt>
      <trkpt lat="45.45014" lon="7.01036">
        <ele>1935.4</ele>
        <time>2021-07-23T09:59:00.285Z</time>
      </trkpt>
      <trkpt lat="45.45016" lon="7.0104">
        <ele>1935.4</ele>
        <time>2021-07-23T09:59:01.285Z</time>
      </trkpt>
      <trkpt lat="45.45018" lon="7.01043">
        <ele>1935.4</ele>
        <time>2021-07-23T09:59:02.285Z</time>
      </trkpt>
      <trkpt lat="45.45021" lon="7.01046">
        <ele>1935.4</ele>
        <time>2021-07-23T09:59:03.285Z</time>
      </trkpt>
      <trkpt lat="45.45023" lon="7.0105">
        <ele>1935.4</ele>
        <time>2021-07-23T09:59:04.285Z</time>
      </trkpt>
      <trkpt lat="45.45025" lon="7.01054">
        <ele>1935.4</ele>
        <time>2021-07-23T09:59:05.285Z</time>
      </trkpt>
      <trkpt lat="45.45027" lon="7.01057">
        <ele>1935.8</ele>
        <time>2021-07-23T09:59:06.285Z</time>
      </trkpt>
      <trkpt lat="45.45029" lon="7.01061">
        <ele>1936.2</ele>
        <time>2021-07-23T09:59:07.285Z</time>
      </trkpt>
      <trkpt lat="45.45031" lon="7.01064">
        <ele>1936.6</ele>
        <time>2021-07-23T09:59:08.285Z</time>
      </trkpt>
      <trkpt lat="45.45032" lon="7.01068">
        <ele>1937</ele>
        <time>2021-07-23T09:59:09.285Z</time>
      </trkpt>
      <trkpt lat="45.45034" lon="7.01072">
        <ele>1937.4</ele>
        <time>2021-07-23T09:59:10.285Z</time>
      </trkpt>
      <trkpt lat="45.45036" lon="7.01075">
        <ele>1937.4</ele>
        <time>2021-07-23T09:59:11.285Z</time>
      </trkpt>
      <trkpt lat="45.45038" lon="7.01079">
        <ele>1937.4</ele>
        <time>2021-07-23T09:59:12.285Z</time>
      </trkpt>
      <trkpt lat="45.4504" lon="7.01083">
        <ele>1937.4</ele>
        <time>2021-07-23T09:59:13.285Z</time>
      </trkpt>
      <trkpt lat="45.45041" lon="7.01086">
        <ele>1937.4</ele>
        <time>2021-07-23T09:59:14.285Z</time>
      </trkpt>
      <trkpt lat="45.45043" lon="7.01091">
        <ele>1937.4</ele>
        <time>2021-07-23T09:59:15.285Z</time>
      </trkpt>
      <trkpt lat="45.45044" lon="7.01094">
        <ele>1937.4</ele>
        <time>2021-07-23T09:59:16.285Z</time>
      </trkpt>
      <trkpt lat="45.45046" lon="7.01098">
        <ele>1937.4</ele>
        <time>2021-07-23T09:59:17.285Z</time>
      </trkpt>
      <trkpt lat="45.45047" lon="7.01102">
        <ele>1937.8</ele>
        <time>2021-07-23T09:59:18.285Z</time>
      </trkpt>
      <trkpt lat="45.45048" lon="7.01107">
        <ele>1938.2</ele>
        <time>2021-07-23T09:59:19.285Z</time>
      </trkpt>
      <trkpt lat="45.45049" lon="7.01111">
        <ele>1938.8</ele>
        <time>2021-07-23T09:59:20.285Z</time>
      </trkpt>
      <trkpt lat="45.4505" lon="7.01115">
        <ele>1939.2</ele>
        <time>2021-07-23T09:59:21.285Z</time>
      </trkpt>
      <trkpt lat="45.45051" lon="7.0112">
        <ele>1939.6</ele>
        <time>2021-07-23T09:59:22.285Z</time>
      </trkpt>
      <trkpt lat="45.45052" lon="7.01124">
        <ele>1939.6</ele>
        <time>2021-07-23T09:59:23.285Z</time>
      </trkpt>
      <trkpt lat="45.45053" lon="7.01128">
        <ele>1939.6</ele>
        <time>2021-07-23T09:59:24.285Z</time>
      </trkpt>
      <trkpt lat="45.45053" lon="7.01132">
        <ele>1939.6</ele>
        <time>2021-07-23T09:59:25.285Z</time>
      </trkpt>
      <trkpt lat="45.45054" lon="7.01137">
        <ele>1940</ele>
        <time>2021-07-23T09:59:26.285Z</time>
      </trkpt>
      <trkpt lat="45.45054" lon="7.01142">
        <ele>1940.4</ele>
        <time>2021-07-23T09:59:27.285Z</time>
      </trkpt>
      <trkpt lat="45.45055" lon="7.01146">
        <ele>1940.8</ele>
        <time>2021-07-23T09:59:28.285Z</time>
      </trkpt>
      <trkpt lat="45.45055" lon="7.01151">
        <ele>1941.2</ele>
        <time>2021-07-23T09:59:29.285Z</time>
      </trkpt>
      <trkpt lat="45.45056" lon="7.01155">
        <ele>1941.6</ele>
        <time>2021-07-23T09:59:30.285Z</time>
      </trkpt>
      <trkpt lat="45.45057" lon="7.01159">
        <ele>1941.6</ele>
        <time>2021-07-23T09:59:31.285Z</time>
      </trkpt>
      <trkpt lat="45.45059" lon="7.01163">
        <ele>1941.6</ele>
        <time>2021-07-23T09:59:32.285Z</time>
      </trkpt>
      <trkpt lat="45.4506" lon="7.01167">
        <ele>1941.6</ele>
        <time>2021-07-23T09:59:33.285Z</time>
      </trkpt>
      <trkpt lat="45.45062" lon="7.01172">
        <ele>1941.6</ele>
        <time>2021-07-23T09:59:34.285Z</time>
      </trkpt>
      <trkpt lat="45.45063" lon="7.01175">
        <ele>1941.6</ele>
        <time>2021-07-23T09:59:35.285Z</time>
      </trkpt>
      <trkpt lat="45.45064" lon="7.01179">
        <ele>1941.6</ele>
        <time>2021-07-23T09:59:36.285Z</time>
      </trkpt>
      <trkpt lat="45.45066" lon="7.01183">
        <ele>1942</ele>
        <time>2021-07-23T09:59:37.285Z</time>
      </trkpt>
      <trkpt lat="45.45068" lon="7.01187">
        <ele>1942.4</ele>
        <time>2021-07-23T09:59:38.285Z</time>
      </trkpt>
      <trkpt lat="45.45069" lon="7.01191">
        <ele>1942.8</ele>
        <time>2021-07-23T09:59:39.285Z</time>
      </trkpt>
      <trkpt lat="45.4507" lon="7.01195">
        <ele>1943.2</ele>
        <time>2021-07-23T09:59:40.285Z</time>
      </trkpt>
      <trkpt lat="45.45071" lon="7.01198">
        <ele>1943.8</ele>
        <time>2021-07-23T09:59:41.285Z</time>
      </trkpt>
      <trkpt lat="45.45072" lon="7.01202">
        <ele>1943.8</ele>
        <time>2021-07-23T09:59:42.285Z</time>
      </trkpt>
      <trkpt lat="45.45072" lon="7.01206">
        <ele>1943.8</ele>
        <time>2021-07-23T09:59:43.285Z</time>
      </trkpt>
      <trkpt lat="45.45072" lon="7.0121">
        <ele>1943.8</ele>
        <time>2021-07-23T09:59:44.285Z</time>
      </trkpt>
      <trkpt lat="45.45073" lon="7.01214">
        <ele>1944.2</ele>
        <time>2021-07-23T09:59:45.285Z</time>
      </trkpt>
      <trkpt lat="45.45074" lon="7.01219">
        <ele>1944.6</ele>
        <time>2021-07-23T09:59:46.285Z</time>
      </trkpt>
      <trkpt lat="45.45075" lon="7.01223">
        <ele>1945</ele>
        <time>2021-07-23T09:59:47.285Z</time>
      </trkpt>
      <trkpt lat="45.45076" lon="7.01227">
        <ele>1945.4</ele>
        <time>2021-07-23T09:59:48.285Z</time>
      </trkpt>
      <trkpt lat="45.45076" lon="7.01231">
        <ele>1945.8</ele>
        <time>2021-07-23T09:59:49.285Z</time>
      </trkpt>
      <trkpt lat="45.45077" lon="7.01236">
        <ele>1945.8</ele>
        <time>2021-07-23T09:59:50.285Z</time>
      </trkpt>
      <trkpt lat="45.45078" lon="7.0124">
        <ele>1945.8</ele>
        <time>2021-07-23T09:59:51.285Z</time>
      </trkpt>
      <trkpt lat="45.45079" lon="7.01244">
        <ele>1946.2</ele>
        <time>2021-07-23T09:59:52.285Z</time>
      </trkpt>
      <trkpt lat="45.4508" lon="7.01248">
        <ele>1946.6</ele>
        <time>2021-07-23T09:59:53.285Z</time>
      </trkpt>
      <trkpt lat="45.45081" lon="7.01252">
        <ele>1947</ele>
        <time>2021-07-23T09:59:54.285Z</time>
      </trkpt>
      <trkpt lat="45.45082" lon="7.01256">
        <ele>1947.6</ele>
        <time>2021-07-23T09:59:55.285Z</time>
      </trkpt>
      <trkpt lat="45.45083" lon="7.0126">
        <ele>1948</ele>
        <time>2021-07-23T09:59:56.285Z</time>
      </trkpt>
      <trkpt lat="45.45084" lon="7.01264">
        <ele>1948</ele>
        <time>2021-07-23T09:59:57.285Z</time>
      </trkpt>
      <trkpt lat="45.45085" lon="7.01267">
        <ele>1948</ele>
        <time>2021-07-23T09:59:58.285Z</time>
      </trkpt>
      <trkpt lat="45.45086" lon="7.01271">
        <ele>1948</ele>
        <time>2021-07-23T09:59:59.285Z</time>
      </trkpt>
      <trkpt lat="45.45087" lon="7.01275">
        <ele>1948</ele>
        <time>2021-07-23T10:00:00.285Z</time>
      </trkpt>
      <trkpt lat="45.45088" lon="7.01279">
        <ele>1948.4</ele>
        <time>2021-07-23T10:00:01.285Z</time>
      </trkpt>
      <trkpt lat="45.45089" lon="7.01283">
        <ele>1948.8</ele>
        <time>2021-07-23T10:00:02.285Z</time>
      </trkpt>
      <trkpt lat="45.4509" lon="7.01287">
        <ele>1949.2</ele>
        <time>2021-07-23T10:00:03.285Z</time>
      </trkpt>
      <trkpt lat="45.45092" lon="7.01291">
        <ele>1949.6</ele>
        <time>2021-07-23T10:00:04.285Z</time>
      </trkpt>
      <trkpt lat="45.45093" lon="7.01295">
        <ele>1950</ele>
        <time>2021-07-23T10:00:05.285Z</time>
      </trkpt>
      <trkpt lat="45.45095" lon="7.01299">
        <ele>1950</ele>
        <time>2021-07-23T10:00:06.285Z</time>
      </trkpt>
      <trkpt lat="45.45096" lon="7.01302">
        <ele>1950</ele>
        <time>2021-07-23T10:00:07.285Z</time>
      </trkpt>
      <trkpt lat="45.45098" lon="7.01306">
        <ele>1950</ele>
        <time>2021-07-23T10:00:08.285Z</time>
      </trkpt>
      <trkpt lat="45.45099" lon="7.01309">
        <ele>1950</ele>
        <time>2021-07-23T10:00:09.285Z</time>
      </trkpt>
      <trkpt lat="45.45101" lon="7.01313">
        <ele>1950</ele>
        <time>2021-07-23T10:00:10.285Z</time>
      </trkpt>
      <trkpt lat="45.45102" lon="7.01317">
        <ele>1950.4</ele>
        <time>2021-07-23T10:00:11.285Z</time>
      </trkpt>
      <trkpt lat="45.45103" lon="7.01321">
        <ele>1950.8</ele>
        <time>2021-07-23T10:00:12.285Z</time>
      </trkpt>
      <trkpt lat="45.45105" lon="7.01325">
        <ele>1951.2</ele>
        <time>2021-07-23T10:00:13.285Z</time>
      </trkpt>
      <trkpt lat="45.45106" lon="7.01329">
        <ele>1951.6</ele>
        <time>2021-07-23T10:00:14.285Z</time>
      </trkpt>
      <trkpt lat="45.45107" lon="7.01334">
        <ele>1952</ele>
        <time>2021-07-23T10:00:15.285Z</time>
      </trkpt>
      <trkpt lat="45.45109" lon="7.01337">
        <ele>1952</ele>
        <time>2021-07-23T10:00:16.285Z</time>
      </trkpt>
      <trkpt lat="45.4511" lon="7.01341">
        <ele>1952</ele>
        <time>2021-07-23T10:00:17.285Z</time>
      </trkpt>
      <trkpt lat="45.45112" lon="7.01346">
        <ele>1952</ele>
        <time>2021-07-23T10:00:18.285Z</time>
      </trkpt>
      <trkpt lat="45.45113" lon="7.01349">
        <ele>1952</ele>
        <time>2021-07-23T10:00:19.285Z</time>
      </trkpt>
      <trkpt lat="45.45114" lon="7.01353">
        <ele>1952.4</ele>
        <time>2021-07-23T10:00:20.285Z</time>
      </trkpt>
      <trkpt lat="45.45116" lon="7.01357">
        <ele>1952.8</ele>
        <time>2021-07-23T10:00:21.285Z</time>
      </trkpt>
      <trkpt lat="45.45117" lon="7.01361">
        <ele>1953.2</ele>
        <time>2021-07-23T10:00:22.285Z</time>
      </trkpt>
      <trkpt lat="45.45118" lon="7.01365">
        <ele>1953.6</ele>
        <time>2021-07-23T10:00:23.285Z</time>
      </trkpt>
      <trkpt lat="45.45119" lon="7.01369">
        <ele>1954</ele>
        <time>2021-07-23T10:00:24.285Z</time>
      </trkpt>
      <trkpt lat="45.45121" lon="7.01373">
        <ele>1954</ele>
        <time>2021-07-23T10:00:25.285Z</time>
      </trkpt>
      <trkpt lat="45.45122" lon="7.01376">
        <ele>1954</ele>
        <time>2021-07-23T10:00:26.285Z</time>
      </trkpt>
      <trkpt lat="45.45124" lon="7.01379">
        <ele>1954</ele>
        <time>2021-07-23T10:00:27.285Z</time>
      </trkpt>
      <trkpt lat="45.45125" lon="7.01382">
        <ele>1954</ele>
        <time>2021-07-23T10:00:28.285Z</time>
      </trkpt>
      <trkpt lat="45.45127" lon="7.01386">
        <ele>1954.6</ele>
        <time>2021-07-23T10:00:29.285Z</time>
      </trkpt>
      <trkpt lat="45.45128" lon="7.01389">
        <ele>1955</ele>
        <time>2021-07-23T10:00:30.285Z</time>
      </trkpt>
      <trkpt lat="45.4513" lon="7.01392">
        <ele>1955.4</ele>
        <time>2021-07-23T10:00:31.285Z</time>
      </trkpt>
      <trkpt lat="45.45131" lon="7.01395">
        <ele>1955.8</ele>
        <time>2021-07-23T10:00:32.285Z</time>
      </trkpt>
      <trkpt lat="45.45132" lon="7.01399">
        <ele>1956.2</ele>
        <time>2021-07-23T10:00:33.285Z</time>
      </trkpt>
      <trkpt lat="45.45133" lon="7.01402">
        <ele>1956.2</ele>
        <time>2021-07-23T10:00:34.285Z</time>
      </trkpt>
      <trkpt lat="45.45135" lon="7.01405">
        <ele>1956.2</ele>
        <time>2021-07-23T10:00:35.285Z</time>
      </trkpt>
      <trkpt lat="45.45136" lon="7.01409">
        <ele>1956.2</ele>
        <time>2021-07-23T10:00:36.285Z</time>
      </trkpt>
      <trkpt lat="45.45137" lon="7.01412">
        <ele>1956.2</ele>
        <time>2021-07-23T10:00:37.285Z</time>
      </trkpt>
      <trkpt lat="45.45138" lon="7.01416">
        <ele>1956.2</ele>
        <time>2021-07-23T10:00:38.285Z</time>
      </trkpt>
      <trkpt lat="45.4514" lon="7.01419">
        <ele>1956.2</ele>
        <time>2021-07-23T10:00:39.285Z</time>
      </trkpt>
      <trkpt lat="45.45141" lon="7.01422">
        <ele>1956.6</ele>
        <time>2021-07-23T10:00:40.285Z</time>
      </trkpt>
      <trkpt lat="45.45143" lon="7.01426">
        <ele>1957.6</ele>
        <time>2021-07-23T10:00:41.285Z</time>
      </trkpt>
      <trkpt lat="45.45144" lon="7.01429">
        <ele>1958</ele>
        <time>2021-07-23T10:00:42.285Z</time>
      </trkpt>
      <trkpt lat="45.45145" lon="7.01433">
        <ele>1958.4</ele>
        <time>2021-07-23T10:00:43.285Z</time>
      </trkpt>
      <trkpt lat="45.45146" lon="7.01436">
        <ele>1958.4</ele>
        <time>2021-07-23T10:00:44.285Z</time>
      </trkpt>
      <trkpt lat="45.45148" lon="7.0144">
        <ele>1958.4</ele>
        <time>2021-07-23T10:00:45.285Z</time>
      </trkpt>
      <trkpt lat="45.45149" lon="7.01443">
        <ele>1958.4</ele>
        <time>2021-07-23T10:00:46.285Z</time>
      </trkpt>
      <trkpt lat="45.4515" lon="7.01447">
        <ele>1958.4</ele>
        <time>2021-07-23T10:00:47.285Z</time>
      </trkpt>
      <trkpt lat="45.45151" lon="7.0145">
        <ele>1958.8</ele>
        <time>2021-07-23T10:00:48.285Z</time>
      </trkpt>
      <trkpt lat="45.45153" lon="7.01454">
        <ele>1959.2</ele>
        <time>2021-07-23T10:00:49.285Z</time>
      </trkpt>
      <trkpt lat="45.45154" lon="7.01457">
        <ele>1959.6</ele>
        <time>2021-07-23T10:00:50.285Z</time>
      </trkpt>
      <trkpt lat="45.45156" lon="7.01461">
        <ele>1960</ele>
        <time>2021-07-23T10:00:51.285Z</time>
      </trkpt>
      <trkpt lat="45.45157" lon="7.01464">
        <ele>1960.4</ele>
        <time>2021-07-23T10:00:52.285Z</time>
      </trkpt>
      <trkpt lat="45.45158" lon="7.01468">
        <ele>1960.4</ele>
        <time>2021-07-23T10:00:53.285Z</time>
      </trkpt>
      <trkpt lat="45.4516" lon="7.01471">
        <ele>1960.4</ele>
        <time>2021-07-23T10:00:54.285Z</time>
      </trkpt>
      <trkpt lat="45.45161" lon="7.01475">
        <ele>1960.4</ele>
        <time>2021-07-23T10:00:55.285Z</time>
      </trkpt>
      <trkpt lat="45.45162" lon="7.01478">
        <ele>1960.4</ele>
        <time>2021-07-23T10:00:56.285Z</time>
      </trkpt>
      <trkpt lat="45.45164" lon="7.01481">
        <ele>1960.4</ele>
        <time>2021-07-23T10:00:57.285Z</time>
      </trkpt>
      <trkpt lat="45.45165" lon="7.01485">
        <ele>1960.8</ele>
        <time>2021-07-23T10:00:58.285Z</time>
      </trkpt>
      <trkpt lat="45.45166" lon="7.01488">
        <ele>1961.2</ele>
        <time>2021-07-23T10:00:59.285Z</time>
      </trkpt>
      <trkpt lat="45.45168" lon="7.01492">
        <ele>1961.8</ele>
        <time>2021-07-23T10:01:00.285Z</time>
      </trkpt>
      <trkpt lat="45.45169" lon="7.01496">
        <ele>1962.2</ele>
        <time>2021-07-23T10:01:01.285Z</time>
      </trkpt>
      <trkpt lat="45.4517" lon="7.01499">
        <ele>1962.6</ele>
        <time>2021-07-23T10:01:02.285Z</time>
      </trkpt>
      <trkpt lat="45.45172" lon="7.01503">
        <ele>1962.6</ele>
        <time>2021-07-23T10:01:03.285Z</time>
      </trkpt>
      <trkpt lat="45.45173" lon="7.01506">
        <ele>1962.6</ele>
        <time>2021-07-23T10:01:04.285Z</time>
      </trkpt>
      <trkpt lat="45.45174" lon="7.0151">
        <ele>1962.6</ele>
        <time>2021-07-23T10:01:05.285Z</time>
      </trkpt>
      <trkpt lat="45.45176" lon="7.01513">
        <ele>1962.6</ele>
        <time>2021-07-23T10:01:06.285Z</time>
      </trkpt>
      <trkpt lat="45.45177" lon="7.01516">
        <ele>1962.6</ele>
        <time>2021-07-23T10:01:07.285Z</time>
      </trkpt>
      <trkpt lat="45.45179" lon="7.0152">
        <ele>1962.6</ele>
        <time>2021-07-23T10:01:08.285Z</time>
      </trkpt>
      <trkpt lat="45.4518" lon="7.01523">
        <ele>1963</ele>
        <time>2021-07-23T10:01:09.285Z</time>
      </trkpt>
      <trkpt lat="45.45181" lon="7.01526">
        <ele>1963.4</ele>
        <time>2021-07-23T10:01:10.285Z</time>
      </trkpt>
      <trkpt lat="45.45182" lon="7.0153">
        <ele>1963.8</ele>
        <time>2021-07-23T10:01:11.285Z</time>
      </trkpt>
      <trkpt lat="45.45183" lon="7.01534">
        <ele>1964.2</ele>
        <time>2021-07-23T10:01:12.285Z</time>
      </trkpt>
      <trkpt lat="45.45184" lon="7.01537">
        <ele>1964.6</ele>
        <time>2021-07-23T10:01:13.285Z</time>
      </trkpt>
      <trkpt lat="45.45186" lon="7.0154">
        <ele>1964.6</ele>
        <time>2021-07-23T10:01:14.285Z</time>
      </trkpt>
      <trkpt lat="45.45187" lon="7.01543">
        <ele>1964.6</ele>
        <time>2021-07-23T10:01:15.285Z</time>
      </trkpt>
      <trkpt lat="45.45188" lon="7.01547">
        <ele>1964.6</ele>
        <time>2021-07-23T10:01:16.285Z</time>
      </trkpt>
      <trkpt lat="45.45189" lon="7.0155">
        <ele>1964.6</ele>
        <time>2021-07-23T10:01:17.285Z</time>
      </trkpt>
      <trkpt lat="45.4519" lon="7.01553">
        <ele>1965</ele>
        <time>2021-07-23T10:01:18.285Z</time>
      </trkpt>
      <trkpt lat="45.45192" lon="7.01556">
        <ele>1965.4</ele>
        <time>2021-07-23T10:01:19.285Z</time>
      </trkpt>
      <trkpt lat="45.45193" lon="7.0156">
        <ele>1965.8</ele>
        <time>2021-07-23T10:01:20.285Z</time>
      </trkpt>
      <trkpt lat="45.45194" lon="7.01564">
        <ele>1966.2</ele>
        <time>2021-07-23T10:01:21.285Z</time>
      </trkpt>
      <trkpt lat="45.45196" lon="7.01567">
        <ele>1966.6</ele>
        <time>2021-07-23T10:01:22.285Z</time>
      </trkpt>
      <trkpt lat="45.45197" lon="7.0157">
        <ele>1966.6</ele>
        <time>2021-07-23T10:01:23.285Z</time>
      </trkpt>
      <trkpt lat="45.45198" lon="7.01573">
        <ele>1966.6</ele>
        <time>2021-07-23T10:01:24.285Z</time>
      </trkpt>
      <trkpt lat="45.45199" lon="7.01577">
        <ele>1966.6</ele>
        <time>2021-07-23T10:01:25.285Z</time>
      </trkpt>
      <trkpt lat="45.452" lon="7.0158">
        <ele>1966.6</ele>
        <time>2021-07-23T10:01:26.285Z</time>
      </trkpt>
      <trkpt lat="45.45202" lon="7.01584">
        <ele>1966.6</ele>
        <time>2021-07-23T10:01:27.285Z</time>
      </trkpt>
      <trkpt lat="45.45203" lon="7.01587">
        <ele>1966.6</ele>
        <time>2021-07-23T10:01:28.285Z</time>
      </trkpt>
      <trkpt lat="45.45205" lon="7.0159">
        <ele>1967</ele>
        <time>2021-07-23T10:01:29.285Z</time>
      </trkpt>
      <trkpt lat="45.45206" lon="7.01594">
        <ele>1967.4</ele>
        <time>2021-07-23T10:01:30.285Z</time>
      </trkpt>
      <trkpt lat="45.45208" lon="7.01598">
        <ele>1968.4</ele>
        <time>2021-07-23T10:01:31.285Z</time>
      </trkpt>
      <trkpt lat="45.45209" lon="7.01601">
        <ele>1968.8</ele>
        <time>2021-07-23T10:01:32.285Z</time>
      </trkpt>
      <trkpt lat="45.4521" lon="7.01604">
        <ele>1968.8</ele>
        <time>2021-07-23T10:01:33.285Z</time>
      </trkpt>
      <trkpt lat="45.45211" lon="7.01608">
        <ele>1968.8</ele>
        <time>2021-07-23T10:01:34.285Z</time>
      </trkpt>
      <trkpt lat="45.45212" lon="7.01611">
        <ele>1968.8</ele>
        <time>2021-07-23T10:01:35.285Z</time>
      </trkpt>
      <trkpt lat="45.45213" lon="7.01615">
        <ele>1968.8</ele>
        <time>2021-07-23T10:01:36.285Z</time>
      </trkpt>
      <trkpt lat="45.45214" lon="7.01618">
        <ele>1968.8</ele>
        <time>2021-07-23T10:01:37.285Z</time>
      </trkpt>
      <trkpt lat="45.45215" lon="7.01621">
        <ele>1969.2</ele>
        <time>2021-07-23T10:01:38.285Z</time>
      </trkpt>
      <trkpt lat="45.45217" lon="7.01624">
        <ele>1969.6</ele>
        <time>2021-07-23T10:01:39.285Z</time>
      </trkpt>
      <trkpt lat="45.45218" lon="7.01628">
        <ele>1970</ele>
        <time>2021-07-23T10:01:40.285Z</time>
      </trkpt>
      <trkpt lat="45.45219" lon="7.01631">
        <ele>1970.4</ele>
        <time>2021-07-23T10:01:41.285Z</time>
      </trkpt>
      <trkpt lat="45.4522" lon="7.01635">
        <ele>1971</ele>
        <time>2021-07-23T10:01:42.285Z</time>
      </trkpt>
      <trkpt lat="45.45222" lon="7.01638">
        <ele>1971</ele>
        <time>2021-07-23T10:01:43.285Z</time>
      </trkpt>
      <trkpt lat="45.45223" lon="7.01642">
        <ele>1971</ele>
        <time>2021-07-23T10:01:44.285Z</time>
      </trkpt>
      <trkpt lat="45.45224" lon="7.01645">
        <ele>1971</ele>
        <time>2021-07-23T10:01:45.285Z</time>
      </trkpt>
      <trkpt lat="45.45225" lon="7.01648">
        <ele>1971</ele>
        <time>2021-07-23T10:01:46.285Z</time>
      </trkpt>
      <trkpt lat="45.45226" lon="7.01651">
        <ele>1971</ele>
        <time>2021-07-23T10:01:47.285Z</time>
      </trkpt>
      <trkpt lat="45.45228" lon="7.01655">
        <ele>1971</ele>
        <time>2021-07-23T10:01:48.285Z</time>
      </trkpt>
      <trkpt lat="45.45229" lon="7.01658">
        <ele>1971</ele>
        <time>2021-07-23T10:01:49.285Z</time>
      </trkpt>
      <trkpt lat="45.45231" lon="7.01661">
        <ele>1971.4</ele>
        <time>2021-07-23T10:01:50.285Z</time>
      </trkpt>
      <trkpt lat="45.45232" lon="7.01664">
        <ele>1971.8</ele>
        <time>2021-07-23T10:01:51.285Z</time>
      </trkpt>
      <trkpt lat="45.45234" lon="7.01667">
        <ele>1972.2</ele>
        <time>2021-07-23T10:01:52.285Z</time>
      </trkpt>
      <trkpt lat="45.45235" lon="7.0167">
        <ele>1972.6</ele>
        <time>2021-07-23T10:01:53.285Z</time>
      </trkpt>
      <trkpt lat="45.45237" lon="7.01673">
        <ele>1973</ele>
        <time>2021-07-23T10:01:54.285Z</time>
      </trkpt>
      <trkpt lat="45.45239" lon="7.01676">
        <ele>1973</ele>
        <time>2021-07-23T10:01:55.285Z</time>
      </trkpt>
      <trkpt lat="45.4524" lon="7.0168">
        <ele>1973</ele>
        <time>2021-07-23T10:01:56.285Z</time>
      </trkpt>
      <trkpt lat="45.45242" lon="7.01683">
        <ele>1973</ele>
        <time>2021-07-23T10:01:57.285Z</time>
      </trkpt>
      <trkpt lat="45.45243" lon="7.01687">
        <ele>1973</ele>
        <time>2021-07-23T10:01:58.285Z</time>
      </trkpt>
      <trkpt lat="45.45244" lon="7.0169">
        <ele>1973</ele>
        <time>2021-07-23T10:01:59.285Z</time>
      </trkpt>
      <trkpt lat="45.45246" lon="7.01692">
        <ele>1973</ele>
        <time>2021-07-23T10:02:00.285Z</time>
      </trkpt>
      <trkpt lat="45.45247" lon="7.01696">
        <ele>1973.4</ele>
        <time>2021-07-23T10:02:01.285Z</time>
      </trkpt>
      <trkpt lat="45.45249" lon="7.01699">
        <ele>1974</ele>
        <time>2021-07-23T10:02:02.285Z</time>
      </trkpt>
      <trkpt lat="45.4525" lon="7.01702">
        <ele>1974.4</ele>
        <time>2021-07-23T10:02:03.285Z</time>
      </trkpt>
      <trkpt lat="45.45252" lon="7.01706">
        <ele>1974.8</ele>
        <time>2021-07-23T10:02:04.285Z</time>
      </trkpt>
      <trkpt lat="45.45253" lon="7.0171">
        <ele>1975.2</ele>
        <time>2021-07-23T10:02:05.285Z</time>
      </trkpt>
      <trkpt lat="45.45255" lon="7.01713">
        <ele>1975.2</ele>
        <time>2021-07-23T10:02:06.285Z</time>
      </trkpt>
      <trkpt lat="45.45256" lon="7.01717">
        <ele>1975.2</ele>
        <time>2021-07-23T10:02:07.285Z</time>
      </trkpt>
      <trkpt lat="45.45257" lon="7.0172">
        <ele>1975.2</ele>
        <time>2021-07-23T10:02:08.285Z</time>
      </trkpt>
      <trkpt lat="45.45258" lon="7.01724">
        <ele>1975.2</ele>
        <time>2021-07-23T10:02:09.285Z</time>
      </trkpt>
      <trkpt lat="45.45259" lon="7.01728">
        <ele>1975.2</ele>
        <time>2021-07-23T10:02:10.285Z</time>
      </trkpt>
      <trkpt lat="45.4526" lon="7.01731">
        <ele>1975.2</ele>
        <time>2021-07-23T10:02:11.285Z</time>
      </trkpt>
      <trkpt lat="45.45261" lon="7.01735">
        <ele>1975.6</ele>
        <time>2021-07-23T10:02:12.285Z</time>
      </trkpt>
      <trkpt lat="45.45263" lon="7.01738">
        <ele>1976</ele>
        <time>2021-07-23T10:02:13.285Z</time>
      </trkpt>
      <trkpt lat="45.45264" lon="7.01742">
        <ele>1976.4</ele>
        <time>2021-07-23T10:02:14.285Z</time>
      </trkpt>
      <trkpt lat="45.45264" lon="7.01745">
        <ele>1976.8</ele>
        <time>2021-07-23T10:02:15.285Z</time>
      </trkpt>
      <trkpt lat="45.45265" lon="7.01749">
        <ele>1977.2</ele>
        <time>2021-07-23T10:02:16.285Z</time>
      </trkpt>
      <trkpt lat="45.45266" lon="7.01753">
        <ele>1977.2</ele>
        <time>2021-07-23T10:02:17.285Z</time>
      </trkpt>
      <trkpt lat="45.45267" lon="7.01757">
        <ele>1977.2</ele>
        <time>2021-07-23T10:02:18.285Z</time>
      </trkpt>
      <trkpt lat="45.45268" lon="7.01761">
        <ele>1977.2</ele>
        <time>2021-07-23T10:02:19.285Z</time>
      </trkpt>
      <trkpt lat="45.45268" lon="7.01765">
        <ele>1977.2</ele>
        <time>2021-07-23T10:02:20.285Z</time>
      </trkpt>
      <trkpt lat="45.45269" lon="7.01768">
        <ele>1977.8</ele>
        <time>2021-07-23T10:02:21.285Z</time>
      </trkpt>
      <trkpt lat="45.4527" lon="7.01772">
        <ele>1978.2</ele>
        <time>2021-07-23T10:02:22.285Z</time>
      </trkpt>
      <trkpt lat="45.4527" lon="7.01776">
        <ele>1978.6</ele>
        <time>2021-07-23T10:02:23.285Z</time>
      </trkpt>
      <trkpt lat="45.45271" lon="7.0178">
        <ele>1979</ele>
        <time>2021-07-23T10:02:24.285Z</time>
      </trkpt>
      <trkpt lat="45.45271" lon="7.01783">
        <ele>1979.6</ele>
        <time>2021-07-23T10:02:25.285Z</time>
      </trkpt>
      <trkpt lat="45.45272" lon="7.01787">
        <ele>1979.6</ele>
        <time>2021-07-23T10:02:26.285Z</time>
      </trkpt>
      <trkpt lat="45.45272" lon="7.01791">
        <ele>1979.6</ele>
        <time>2021-07-23T10:02:27.285Z</time>
      </trkpt>
      <trkpt lat="45.45273" lon="7.01795">
        <ele>1979.6</ele>
        <time>2021-07-23T10:02:28.285Z</time>
      </trkpt>
      <trkpt lat="45.45273" lon="7.018">
        <ele>1979.6</ele>
        <time>2021-07-23T10:02:29.285Z</time>
      </trkpt>
      <trkpt lat="45.45273" lon="7.01804">
        <ele>1979.6</ele>
        <time>2021-07-23T10:02:30.285Z</time>
      </trkpt>
      <trkpt lat="45.45273" lon="7.01807">
        <ele>1980</ele>
        <time>2021-07-23T10:02:31.285Z</time>
      </trkpt>
      <trkpt lat="45.45273" lon="7.01811">
        <ele>1980.4</ele>
        <time>2021-07-23T10:02:32.285Z</time>
      </trkpt>
      <trkpt lat="45.45273" lon="7.01815">
        <ele>1980.8</ele>
        <time>2021-07-23T10:02:33.285Z</time>
      </trkpt>
      <trkpt lat="45.45273" lon="7.01818">
        <ele>1981.2</ele>
        <time>2021-07-23T10:02:34.285Z</time>
      </trkpt>
      <trkpt lat="45.45274" lon="7.01822">
        <ele>1981.6</ele>
        <time>2021-07-23T10:02:35.285Z</time>
      </trkpt>
      <trkpt lat="45.45274" lon="7.01825">
        <ele>1981.6</ele>
        <time>2021-07-23T10:02:36.285Z</time>
      </trkpt>
      <trkpt lat="45.45274" lon="7.01828">
        <ele>1981.6</ele>
        <time>2021-07-23T10:02:37.285Z</time>
      </trkpt>
      <trkpt lat="45.45275" lon="7.01831">
        <ele>1981.6</ele>
        <time>2021-07-23T10:02:38.285Z</time>
      </trkpt>
      <trkpt lat="45.45276" lon="7.01835">
        <ele>1981.6</ele>
        <time>2021-07-23T10:02:39.285Z</time>
      </trkpt>
      <trkpt lat="45.45276" lon="7.01839">
        <ele>1981.6</ele>
        <time>2021-07-23T10:02:40.285Z</time>
      </trkpt>
      <trkpt lat="45.45277" lon="7.01843">
        <ele>1982</ele>
        <time>2021-07-23T10:02:41.285Z</time>
      </trkpt>
      <trkpt lat="45.45277" lon="7.01848">
        <ele>1982.4</ele>
        <time>2021-07-23T10:02:42.285Z</time>
      </trkpt>
      <trkpt lat="45.45278" lon="7.01852">
        <ele>1982.8</ele>
        <time>2021-07-23T10:02:43.285Z</time>
      </trkpt>
      <trkpt lat="45.45279" lon="7.01857">
        <ele>1983.2</ele>
        <time>2021-07-23T10:02:44.285Z</time>
      </trkpt>
      <trkpt lat="45.4528" lon="7.01861">
        <ele>1983.8</ele>
        <time>2021-07-23T10:02:45.285Z</time>
      </trkpt>
      <trkpt lat="45.45281" lon="7.01866">
        <ele>1983.8</ele>
        <time>2021-07-23T10:02:46.285Z</time>
      </trkpt>
      <trkpt lat="45.45282" lon="7.0187">
        <ele>1983.8</ele>
        <time>2021-07-23T10:02:47.285Z</time>
      </trkpt>
      <trkpt lat="45.45283" lon="7.01875">
        <ele>1983.8</ele>
        <time>2021-07-23T10:02:48.285Z</time>
      </trkpt>
      <trkpt lat="45.45284" lon="7.01879">
        <ele>1983.8</ele>
        <time>2021-07-23T10:02:49.285Z</time>
      </trkpt>
      <trkpt lat="45.45285" lon="7.01883">
        <ele>1983.8</ele>
        <time>2021-07-23T10:02:50.285Z</time>
      </trkpt>
      <trkpt lat="45.45285" lon="7.01887">
        <ele>1984.2</ele>
        <time>2021-07-23T10:02:51.285Z</time>
      </trkpt>
      <trkpt lat="45.45286" lon="7.01892">
        <ele>1984.6</ele>
        <time>2021-07-23T10:02:52.285Z</time>
      </trkpt>
      <trkpt lat="45.45287" lon="7.01896">
        <ele>1985</ele>
        <time>2021-07-23T10:02:53.285Z</time>
      </trkpt>
      <trkpt lat="45.45288" lon="7.019">
        <ele>1985.4</ele>
        <time>2021-07-23T10:02:54.285Z</time>
      </trkpt>
      <trkpt lat="45.45289" lon="7.01904">
        <ele>1985.8</ele>
        <time>2021-07-23T10:02:55.285Z</time>
      </trkpt>
      <trkpt lat="45.4529" lon="7.01909">
        <ele>1985.8</ele>
        <time>2021-07-23T10:02:56.285Z</time>
      </trkpt>
      <trkpt lat="45.4529" lon="7.01913">
        <ele>1985.8</ele>
        <time>2021-07-23T10:02:57.285Z</time>
      </trkpt>
      <trkpt lat="45.45291" lon="7.01918">
        <ele>1985.8</ele>
        <time>2021-07-23T10:02:58.285Z</time>
      </trkpt>
      <trkpt lat="45.45292" lon="7.01922">
        <ele>1985.8</ele>
        <time>2021-07-23T10:02:59.285Z</time>
      </trkpt>
      <trkpt lat="45.45294" lon="7.01926">
        <ele>1985.8</ele>
        <time>2021-07-23T10:03:00.285Z</time>
      </trkpt>
      <trkpt lat="45.45294" lon="7.0193">
        <ele>1986.2</ele>
        <time>2021-07-23T10:03:01.285Z</time>
      </trkpt>
      <trkpt lat="45.45295" lon="7.01935">
        <ele>1986.6</ele>
        <time>2021-07-23T10:03:02.285Z</time>
      </trkpt>
      <trkpt lat="45.45296" lon="7.01938">
        <ele>1987</ele>
        <time>2021-07-23T10:03:03.285Z</time>
      </trkpt>
      <trkpt lat="45.45296" lon="7.01942">
        <ele>1987.4</ele>
        <time>2021-07-23T10:03:04.285Z</time>
      </trkpt>
      <trkpt lat="45.45297" lon="7.01946">
        <ele>1987.8</ele>
        <time>2021-07-23T10:03:05.285Z</time>
      </trkpt>
      <trkpt lat="45.45298" lon="7.0195">
        <ele>1987.8</ele>
        <time>2021-07-23T10:03:06.285Z</time>
      </trkpt>
      <trkpt lat="45.45299" lon="7.01954">
        <ele>1987.8</ele>
        <time>2021-07-23T10:03:07.285Z</time>
      </trkpt>
      <trkpt lat="45.453" lon="7.01958">
        <ele>1987.8</ele>
        <time>2021-07-23T10:03:08.285Z</time>
      </trkpt>
      <trkpt lat="45.45301" lon="7.01962">
        <ele>1988.2</ele>
        <time>2021-07-23T10:03:09.285Z</time>
      </trkpt>
      <trkpt lat="45.45301" lon="7.01967">
        <ele>1988.6</ele>
        <time>2021-07-23T10:03:10.285Z</time>
      </trkpt>
      <trkpt lat="45.45301" lon="7.01971">
        <ele>1989</ele>
        <time>2021-07-23T10:03:11.285Z</time>
      </trkpt>
      <trkpt lat="45.45302" lon="7.01976">
        <ele>1989.4</ele>
        <time>2021-07-23T10:03:12.285Z</time>
      </trkpt>
      <trkpt lat="45.45301" lon="7.01981">
        <ele>1989.8</ele>
        <time>2021-07-23T10:03:13.285Z</time>
      </trkpt>
      <trkpt lat="45.45301" lon="7.01985">
        <ele>1989.8</ele>
        <time>2021-07-23T10:03:14.285Z</time>
      </trkpt>
      <trkpt lat="45.453" lon="7.01989">
        <ele>1989.8</ele>
        <time>2021-07-23T10:03:15.285Z</time>
      </trkpt>
      <trkpt lat="45.453" lon="7.01994">
        <ele>1989.8</ele>
        <time>2021-07-23T10:03:16.285Z</time>
      </trkpt>
      <trkpt lat="45.45299" lon="7.01998">
        <ele>1989.8</ele>
        <time>2021-07-23T10:03:17.285Z</time>
      </trkpt>
      <trkpt lat="45.45298" lon="7.02002">
        <ele>1989.8</ele>
        <time>2021-07-23T10:03:18.285Z</time>
      </trkpt>
      <trkpt lat="45.45297" lon="7.02006">
        <ele>1990.2</ele>
        <time>2021-07-23T10:03:19.285Z</time>
      </trkpt>
      <trkpt lat="45.45295" lon="7.02011">
        <ele>1990.6</ele>
        <time>2021-07-23T10:03:20.285Z</time>
      </trkpt>
      <trkpt lat="45.45294" lon="7.02015">
        <ele>1991</ele>
        <time>2021-07-23T10:03:21.285Z</time>
      </trkpt>
      <trkpt lat="45.45293" lon="7.02018">
        <ele>1991.6</ele>
        <time>2021-07-23T10:03:22.285Z</time>
      </trkpt>
      <trkpt lat="45.45292" lon="7.02023">
        <ele>1992</ele>
        <time>2021-07-23T10:03:23.285Z</time>
      </trkpt>
      <trkpt lat="45.4529" lon="7.02027">
        <ele>1992</ele>
        <time>2021-07-23T10:03:24.285Z</time>
      </trkpt>
      <trkpt lat="45.45289" lon="7.02031">
        <ele>1992</ele>
        <time>2021-07-23T10:03:25.285Z</time>
      </trkpt>
      <trkpt lat="45.45287" lon="7.02035">
        <ele>1992</ele>
        <time>2021-07-23T10:03:26.285Z</time>
      </trkpt>
      <trkpt lat="45.45286" lon="7.02039">
        <ele>1992</ele>
        <time>2021-07-23T10:03:27.285Z</time>
      </trkpt>
      <trkpt lat="45.45285" lon="7.02043">
        <ele>1992.4</ele>
        <time>2021-07-23T10:03:28.285Z</time>
      </trkpt>
      <trkpt lat="45.45283" lon="7.02047">
        <ele>1992.8</ele>
        <time>2021-07-23T10:03:29.285Z</time>
      </trkpt>
      <trkpt lat="45.45282" lon="7.02051">
        <ele>1993.2</ele>
        <time>2021-07-23T10:03:30.285Z</time>
      </trkpt>
      <trkpt lat="45.45281" lon="7.02055">
        <ele>1993.8</ele>
        <time>2021-07-23T10:03:31.285Z</time>
      </trkpt>
      <trkpt lat="45.4528" lon="7.02059">
        <ele>1994.2</ele>
        <time>2021-07-23T10:03:32.285Z</time>
      </trkpt>
      <trkpt lat="45.45278" lon="7.02063">
        <ele>1994.2</ele>
        <time>2021-07-23T10:03:33.285Z</time>
      </trkpt>
      <trkpt lat="45.45277" lon="7.02067">
        <ele>1994.2</ele>
        <time>2021-07-23T10:03:34.285Z</time>
      </trkpt>
      <trkpt lat="45.45275" lon="7.02072">
        <ele>1994.2</ele>
        <time>2021-07-23T10:03:35.285Z</time>
      </trkpt>
      <trkpt lat="45.45274" lon="7.02076">
        <ele>1994.2</ele>
        <time>2021-07-23T10:03:36.285Z</time>
      </trkpt>
      <trkpt lat="45.45273" lon="7.0208">
        <ele>1994.2</ele>
        <time>2021-07-23T10:03:37.285Z</time>
      </trkpt>
      <trkpt lat="45.45271" lon="7.02084">
        <ele>1994.6</ele>
        <time>2021-07-23T10:03:38.285Z</time>
      </trkpt>
      <trkpt lat="45.4527" lon="7.02088">
        <ele>1995</ele>
        <time>2021-07-23T10:03:39.285Z</time>
      </trkpt>
      <trkpt lat="45.45269" lon="7.02092">
        <ele>1995.4</ele>
        <time>2021-07-23T10:03:40.285Z</time>
      </trkpt>
      <trkpt lat="45.45267" lon="7.02097">
        <ele>1995.8</ele>
        <time>2021-07-23T10:03:41.285Z</time>
      </trkpt>
      <trkpt lat="45.45266" lon="7.02101">
        <ele>1996.2</ele>
        <time>2021-07-23T10:03:42.285Z</time>
      </trkpt>
      <trkpt lat="45.45265" lon="7.02105">
        <ele>1996.2</ele>
        <time>2021-07-23T10:03:43.285Z</time>
      </trkpt>
      <trkpt lat="45.45264" lon="7.02109">
        <ele>1996.2</ele>
        <time>2021-07-23T10:03:44.285Z</time>
      </trkpt>
      <trkpt lat="45.45263" lon="7.02112">
        <ele>1996.2</ele>
        <time>2021-07-23T10:03:45.285Z</time>
      </trkpt>
      <trkpt lat="45.45262" lon="7.02116">
        <ele>1996.2</ele>
        <time>2021-07-23T10:03:46.285Z</time>
      </trkpt>
      <trkpt lat="45.45261" lon="7.02121">
        <ele>1996.2</ele>
        <time>2021-07-23T10:03:47.285Z</time>
      </trkpt>
      <trkpt lat="45.4526" lon="7.02125">
        <ele>1996.2</ele>
        <time>2021-07-23T10:03:48.285Z</time>
      </trkpt>
      <trkpt lat="45.45259" lon="7.02129">
        <ele>1996.6</ele>
        <time>2021-07-23T10:03:49.285Z</time>
      </trkpt>
      <trkpt lat="45.45259" lon="7.02133">
        <ele>1997.2</ele>
        <time>2021-07-23T10:03:50.285Z</time>
      </trkpt>
      <trkpt lat="45.45259" lon="7.02138">
        <ele>1997.6</ele>
        <time>2021-07-23T10:03:51.285Z</time>
      </trkpt>
      <trkpt lat="45.45259" lon="7.02142">
        <ele>1998</ele>
        <time>2021-07-23T10:03:52.285Z</time>
      </trkpt>
      <trkpt lat="45.45259" lon="7.02146">
        <ele>1998.4</ele>
        <time>2021-07-23T10:03:53.285Z</time>
      </trkpt>
      <trkpt lat="45.45259" lon="7.02151">
        <ele>1998.4</ele>
        <time>2021-07-23T10:03:54.285Z</time>
      </trkpt>
      <trkpt lat="45.45259" lon="7.02156">
        <ele>1998.4</ele>
        <time>2021-07-23T10:03:55.285Z</time>
      </trkpt>
      <trkpt lat="45.4526" lon="7.0216">
        <ele>1998.4</ele>
        <time>2021-07-23T10:03:56.285Z</time>
      </trkpt>
      <trkpt lat="45.4526" lon="7.02164">
        <ele>1998.4</ele>
        <time>2021-07-23T10:03:57.285Z</time>
      </trkpt>
      <trkpt lat="45.45261" lon="7.02169">
        <ele>1998.4</ele>
        <time>2021-07-23T10:03:58.285Z</time>
      </trkpt>
      <trkpt lat="45.45262" lon="7.02174">
        <ele>1998.8</ele>
        <time>2021-07-23T10:03:59.285Z</time>
      </trkpt>
      <trkpt lat="45.45263" lon="7.02178">
        <ele>1999.4</ele>
        <time>2021-07-23T10:04:00.285Z</time>
      </trkpt>
      <trkpt lat="45.45264" lon="7.02182">
        <ele>1999.8</ele>
        <time>2021-07-23T10:04:01.285Z</time>
      </trkpt>
      <trkpt lat="45.45265" lon="7.02187">
        <ele>2000.2</ele>
        <time>2021-07-23T10:04:02.285Z</time>
      </trkpt>
      <trkpt lat="45.45265" lon="7.02191">
        <ele>2000.6</ele>
        <time>2021-07-23T10:04:03.285Z</time>
      </trkpt>
      <trkpt lat="45.45265" lon="7.02195">
        <ele>2000.6</ele>
        <time>2021-07-23T10:04:04.285Z</time>
      </trkpt>
      <trkpt lat="45.45265" lon="7.022">
        <ele>2000.6</ele>
        <time>2021-07-23T10:04:05.285Z</time>
      </trkpt>
      <trkpt lat="45.45264" lon="7.02204">
        <ele>2000.6</ele>
        <time>2021-07-23T10:04:06.285Z</time>
      </trkpt>
      <trkpt lat="45.45264" lon="7.02208">
        <ele>2000.6</ele>
        <time>2021-07-23T10:04:07.285Z</time>
      </trkpt>
      <trkpt lat="45.45263" lon="7.02212">
        <ele>2000.6</ele>
        <time>2021-07-23T10:04:08.285Z</time>
      </trkpt>
      <trkpt lat="45.45261" lon="7.02217">
        <ele>2001</ele>
        <time>2021-07-23T10:04:09.285Z</time>
      </trkpt>
      <trkpt lat="45.4526" lon="7.02221">
        <ele>2001.4</ele>
        <time>2021-07-23T10:04:10.285Z</time>
      </trkpt>
      <trkpt lat="45.45259" lon="7.02225">
        <ele>2002</ele>
        <time>2021-07-23T10:04:11.285Z</time>
      </trkpt>
      <trkpt lat="45.45257" lon="7.02229">
        <ele>2002.4</ele>
        <time>2021-07-23T10:04:12.285Z</time>
      </trkpt>
      <trkpt lat="45.45256" lon="7.02233">
        <ele>2002.8</ele>
        <time>2021-07-23T10:04:13.285Z</time>
      </trkpt>
      <trkpt lat="45.45254" lon="7.02236">
        <ele>2002.8</ele>
        <time>2021-07-23T10:04:14.285Z</time>
      </trkpt>
      <trkpt lat="45.45253" lon="7.0224">
        <ele>2003.4</ele>
        <time>2021-07-23T10:04:15.285Z</time>
      </trkpt>
      <trkpt lat="45.45251" lon="7.02243">
        <ele>2004</ele>
        <time>2021-07-23T10:04:16.285Z</time>
      </trkpt>
      <trkpt lat="45.45249" lon="7.02246">
        <ele>2004.4</ele>
        <time>2021-07-23T10:04:17.285Z</time>
      </trkpt>
      <trkpt lat="45.45248" lon="7.0225">
        <ele>2005</ele>
        <time>2021-07-23T10:04:18.285Z</time>
      </trkpt>
      <trkpt lat="45.45247" lon="7.02254">
        <ele>2005.6</ele>
        <time>2021-07-23T10:04:19.285Z</time>
      </trkpt>
      <trkpt lat="45.45245" lon="7.02257">
        <ele>2005.6</ele>
        <time>2021-07-23T10:04:20.285Z</time>
      </trkpt>
      <trkpt lat="45.45243" lon="7.0226">
        <ele>2005.6</ele>
        <time>2021-07-23T10:04:21.285Z</time>
      </trkpt>
      <trkpt lat="45.45241" lon="7.02264">
        <ele>2005.6</ele>
        <time>2021-07-23T10:04:22.285Z</time>
      </trkpt>
      <trkpt lat="45.45239" lon="7.02267">
        <ele>2005.6</ele>
        <time>2021-07-23T10:04:23.285Z</time>
      </trkpt>
      <trkpt lat="45.45237" lon="7.0227">
        <ele>2005.6</ele>
        <time>2021-07-23T10:04:24.285Z</time>
      </trkpt>
      <trkpt lat="45.45235" lon="7.02273">
        <ele>2005.6</ele>
        <time>2021-07-23T10:04:25.285Z</time>
      </trkpt>
      <trkpt lat="45.45232" lon="7.02276">
        <ele>2005.6</ele>
        <time>2021-07-23T10:04:26.285Z</time>
      </trkpt>
      <trkpt lat="45.4523" lon="7.02278">
        <ele>2005.6</ele>
        <time>2021-07-23T10:04:27.285Z</time>
      </trkpt>
      <trkpt lat="45.45227" lon="7.02281">
        <ele>2005.6</ele>
        <time>2021-07-23T10:04:28.285Z</time>
      </trkpt>
      <trkpt lat="45.45224" lon="7.02282">
        <ele>2005.6</ele>
        <time>2021-07-23T10:04:29.285Z</time>
      </trkpt>
      <trkpt lat="45.45222" lon="7.02284">
        <ele>2006</ele>
        <time>2021-07-23T10:04:30.285Z</time>
      </trkpt>
      <trkpt lat="45.45219" lon="7.02284">
        <ele>2006.4</ele>
        <time>2021-07-23T10:04:31.285Z</time>
      </trkpt>
      <trkpt lat="45.45216" lon="7.02285">
        <ele>2006.8</ele>
        <time>2021-07-23T10:04:32.285Z</time>
      </trkpt>
      <trkpt lat="45.45213" lon="7.02286">
        <ele>2007.2</ele>
        <time>2021-07-23T10:04:33.285Z</time>
      </trkpt>
      <trkpt lat="45.4521" lon="7.02287">
        <ele>2007.6</ele>
        <time>2021-07-23T10:04:34.285Z</time>
      </trkpt>
      <trkpt lat="45.45207" lon="7.02287">
        <ele>2007.6</ele>
        <time>2021-07-23T10:04:35.285Z</time>
      </trkpt>
      <trkpt lat="45.45204" lon="7.02288">
        <ele>2007.6</ele>
        <time>2021-07-23T10:04:36.285Z</time>
      </trkpt>
      <trkpt lat="45.45202" lon="7.02289">
        <ele>2008</ele>
        <time>2021-07-23T10:04:37.285Z</time>
      </trkpt>
      <trkpt lat="45.45199" lon="7.02289">
        <ele>2008.6</ele>
        <time>2021-07-23T10:04:38.285Z</time>
      </trkpt>
      <trkpt lat="45.45197" lon="7.0229">
        <ele>2009</ele>
        <time>2021-07-23T10:04:39.285Z</time>
      </trkpt>
      <trkpt lat="45.45194" lon="7.0229">
        <ele>2009.4</ele>
        <time>2021-07-23T10:04:40.285Z</time>
      </trkpt>
      <trkpt lat="45.45191" lon="7.02291">
        <ele>2009.8</ele>
        <time>2021-07-23T10:04:41.285Z</time>
      </trkpt>
      <trkpt lat="45.45189" lon="7.02292">
        <ele>2009.8</ele>
        <time>2021-07-23T10:04:42.285Z</time>
      </trkpt>
      <trkpt lat="45.45187" lon="7.02293">
        <ele>2009.8</ele>
        <time>2021-07-23T10:04:43.285Z</time>
      </trkpt>
      <trkpt lat="45.45184" lon="7.02295">
        <ele>2009.8</ele>
        <time>2021-07-23T10:04:44.285Z</time>
      </trkpt>
      <trkpt lat="45.45182" lon="7.02297">
        <ele>2010.2</ele>
        <time>2021-07-23T10:04:45.285Z</time>
      </trkpt>
      <trkpt lat="45.4518" lon="7.02299">
        <ele>2010.6</ele>
        <time>2021-07-23T10:04:46.285Z</time>
      </trkpt>
      <trkpt lat="45.45177" lon="7.02301">
        <ele>2011</ele>
        <time>2021-07-23T10:04:47.285Z</time>
      </trkpt>
      <trkpt lat="45.45175" lon="7.02304">
        <ele>2011.6</ele>
        <time>2021-07-23T10:04:48.285Z</time>
      </trkpt>
      <trkpt lat="45.45174" lon="7.02307">
        <ele>2012</ele>
        <time>2021-07-23T10:04:49.285Z</time>
      </trkpt>
      <trkpt lat="45.45172" lon="7.0231">
        <ele>2012</ele>
        <time>2021-07-23T10:04:50.285Z</time>
      </trkpt>
      <trkpt lat="45.4517" lon="7.02313">
        <ele>2012</ele>
        <time>2021-07-23T10:04:51.285Z</time>
      </trkpt>
      <trkpt lat="45.45168" lon="7.02316">
        <ele>2012</ele>
        <time>2021-07-23T10:04:52.285Z</time>
      </trkpt>
      <trkpt lat="45.45166" lon="7.02319">
        <ele>2012.4</ele>
        <time>2021-07-23T10:04:53.285Z</time>
      </trkpt>
      <trkpt lat="45.45164" lon="7.02322">
        <ele>2012.8</ele>
        <time>2021-07-23T10:04:54.285Z</time>
      </trkpt>
      <trkpt lat="45.45163" lon="7.02325">
        <ele>2013.4</ele>
        <time>2021-07-23T10:04:55.285Z</time>
      </trkpt>
      <trkpt lat="45.45161" lon="7.02329">
        <ele>2013.8</ele>
        <time>2021-07-23T10:04:56.285Z</time>
      </trkpt>
      <trkpt lat="45.45159" lon="7.02332">
        <ele>2014.2</ele>
        <time>2021-07-23T10:04:57.285Z</time>
      </trkpt>
      <trkpt lat="45.45157" lon="7.02335">
        <ele>2014.2</ele>
        <time>2021-07-23T10:04:58.285Z</time>
      </trkpt>
      <trkpt lat="45.45156" lon="7.02339">
        <ele>2014.2</ele>
        <time>2021-07-23T10:04:59.285Z</time>
      </trkpt>
      <trkpt lat="45.45154" lon="7.02342">
        <ele>2014.2</ele>
        <time>2021-07-23T10:05:00.285Z</time>
      </trkpt>
      <trkpt lat="45.45152" lon="7.02345">
        <ele>2014.2</ele>
        <time>2021-07-23T10:05:01.285Z</time>
      </trkpt>
      <trkpt lat="45.45151" lon="7.02348">
        <ele>2014.2</ele>
        <time>2021-07-23T10:05:02.285Z</time>
      </trkpt>
      <trkpt lat="45.45149" lon="7.02351">
        <ele>2014.8</ele>
        <time>2021-07-23T10:05:03.285Z</time>
      </trkpt>
      <trkpt lat="45.45147" lon="7.02355">
        <ele>2015.2</ele>
        <time>2021-07-23T10:05:04.285Z</time>
      </trkpt>
      <trkpt lat="45.45146" lon="7.02358">
        <ele>2015.6</ele>
        <time>2021-07-23T10:05:05.285Z</time>
      </trkpt>
      <trkpt lat="45.45145" lon="7.02361">
        <ele>2016</ele>
        <time>2021-07-23T10:05:06.285Z</time>
      </trkpt>
      <trkpt lat="45.45144" lon="7.02365">
        <ele>2016.4</ele>
        <time>2021-07-23T10:05:07.285Z</time>
      </trkpt>
      <trkpt lat="45.45143" lon="7.02368">
        <ele>2016.4</ele>
        <time>2021-07-23T10:05:08.285Z</time>
      </trkpt>
      <trkpt lat="45.45143" lon="7.02372">
        <ele>2016.4</ele>
        <time>2021-07-23T10:05:09.285Z</time>
      </trkpt>
      <trkpt lat="45.45142" lon="7.02376">
        <ele>2016.4</ele>
        <time>2021-07-23T10:05:10.285Z</time>
      </trkpt>
      <trkpt lat="45.45142" lon="7.0238">
        <ele>2016.4</ele>
        <time>2021-07-23T10:05:11.285Z</time>
      </trkpt>
      <trkpt lat="45.45141" lon="7.02384">
        <ele>2016.4</ele>
        <time>2021-07-23T10:05:12.285Z</time>
      </trkpt>
      <trkpt lat="45.45141" lon="7.02388">
        <ele>2017</ele>
        <time>2021-07-23T10:05:13.285Z</time>
      </trkpt>
      <trkpt lat="45.45141" lon="7.02392">
        <ele>2017.8</ele>
        <time>2021-07-23T10:05:14.285Z</time>
      </trkpt>
      <trkpt lat="45.45141" lon="7.02396">
        <ele>2018.4</ele>
        <time>2021-07-23T10:05:15.285Z</time>
      </trkpt>
      <trkpt lat="45.45141" lon="7.024">
        <ele>2018.8</ele>
        <time>2021-07-23T10:05:16.285Z</time>
      </trkpt>
      <trkpt lat="45.45141" lon="7.02404">
        <ele>2018.8</ele>
        <time>2021-07-23T10:05:17.285Z</time>
      </trkpt>
      <trkpt lat="45.45142" lon="7.02408">
        <ele>2018.8</ele>
        <time>2021-07-23T10:05:18.285Z</time>
      </trkpt>
      <trkpt lat="45.45142" lon="7.02413">
        <ele>2018.8</ele>
        <time>2021-07-23T10:05:19.285Z</time>
      </trkpt>
      <trkpt lat="45.45143" lon="7.02417">
        <ele>2018.8</ele>
        <time>2021-07-23T10:05:20.285Z</time>
      </trkpt>
      <trkpt lat="45.45143" lon="7.02422">
        <ele>2018.8</ele>
        <time>2021-07-23T10:05:21.285Z</time>
      </trkpt>
      <trkpt lat="45.45144" lon="7.02426">
        <ele>2018.8</ele>
        <time>2021-07-23T10:05:22.285Z</time>
      </trkpt>
      <trkpt lat="45.45145" lon="7.02431">
        <ele>2018.8</ele>
        <time>2021-07-23T10:05:23.285Z</time>
      </trkpt>
      <trkpt lat="45.45146" lon="7.02436">
        <ele>2018.8</ele>
        <time>2021-07-23T10:05:24.285Z</time>
      </trkpt>
      <trkpt lat="45.45148" lon="7.02441">
        <ele>2018.8</ele>
        <time>2021-07-23T10:05:25.285Z</time>
      </trkpt>
      <trkpt lat="45.4515" lon="7.02446">
        <ele>2018.8</ele>
        <time>2021-07-23T10:05:26.285Z</time>
      </trkpt>
      <trkpt lat="45.45151" lon="7.02451">
        <ele>2018.8</ele>
        <time>2021-07-23T10:05:27.285Z</time>
      </trkpt>
      <trkpt lat="45.45153" lon="7.02457">
        <ele>2019.2</ele>
        <time>2021-07-23T10:05:28.285Z</time>
      </trkpt>
      <trkpt lat="45.45155" lon="7.02462">
        <ele>2019.6</ele>
        <time>2021-07-23T10:05:29.285Z</time>
      </trkpt>
      <trkpt lat="45.45158" lon="7.02468">
        <ele>2020</ele>
        <time>2021-07-23T10:05:30.285Z</time>
      </trkpt>
      <trkpt lat="45.4516" lon="7.02473">
        <ele>2020.4</ele>
        <time>2021-07-23T10:05:31.285Z</time>
      </trkpt>
      <trkpt lat="45.45162" lon="7.02479">
        <ele>2020.8</ele>
        <time>2021-07-23T10:05:32.285Z</time>
      </trkpt>
      <trkpt lat="45.45164" lon="7.02485">
        <ele>2020.8</ele>
        <time>2021-07-23T10:05:33.285Z</time>
      </trkpt>
      <trkpt lat="45.45166" lon="7.0249">
        <ele>2020.8</ele>
        <time>2021-07-23T10:05:34.285Z</time>
      </trkpt>
      <trkpt lat="45.45168" lon="7.02495">
        <ele>2020.8</ele>
        <time>2021-07-23T10:05:35.285Z</time>
      </trkpt>
      <trkpt lat="45.4517" lon="7.02501">
        <ele>2020.8</ele>
        <time>2021-07-23T10:05:36.285Z</time>
      </trkpt>
      <trkpt lat="45.45173" lon="7.02506">
        <ele>2020.8</ele>
        <time>2021-07-23T10:05:37.285Z</time>
      </trkpt>
      <trkpt lat="45.45175" lon="7.02512">
        <ele>2020.8</ele>
        <time>2021-07-23T10:05:38.285Z</time>
      </trkpt>
      <trkpt lat="45.45177" lon="7.02517">
        <ele>2020.8</ele>
        <time>2021-07-23T10:05:39.285Z</time>
      </trkpt>
      <trkpt lat="45.45179" lon="7.02523">
        <ele>2020.8</ele>
        <time>2021-07-23T10:05:40.285Z</time>
      </trkpt>
      <trkpt lat="45.45181" lon="7.02529">
        <ele>2020.8</ele>
        <time>2021-07-23T10:05:41.285Z</time>
      </trkpt>
      <trkpt lat="45.45183" lon="7.02535">
        <ele>2020.8</ele>
        <time>2021-07-23T10:05:42.285Z</time>
      </trkpt>
      <trkpt lat="45.45185" lon="7.02541">
        <ele>2020.8</ele>
        <time>2021-07-23T10:05:43.285Z</time>
      </trkpt>
      <trkpt lat="45.45187" lon="7.02547">
        <ele>2020.8</ele>
        <time>2021-07-23T10:05:44.285Z</time>
      </trkpt>
      <trkpt lat="45.45189" lon="7.02552">
        <ele>2021.2</ele>
        <time>2021-07-23T10:05:45.285Z</time>
      </trkpt>
      <trkpt lat="45.45191" lon="7.02558">
        <ele>2021.6</ele>
        <time>2021-07-23T10:05:46.285Z</time>
      </trkpt>
      <trkpt lat="45.45194" lon="7.02564">
        <ele>2022</ele>
        <time>2021-07-23T10:05:47.285Z</time>
      </trkpt>
      <trkpt lat="45.45197" lon="7.02569">
        <ele>2022.4</ele>
        <time>2021-07-23T10:05:48.285Z</time>
      </trkpt>
      <trkpt lat="45.45199" lon="7.02576">
        <ele>2022.8</ele>
        <time>2021-07-23T10:05:49.285Z</time>
      </trkpt>
      <trkpt lat="45.45201" lon="7.02582">
        <ele>2022.8</ele>
        <time>2021-07-23T10:05:50.285Z</time>
      </trkpt>
      <trkpt lat="45.45203" lon="7.02588">
        <ele>2022.8</ele>
        <time>2021-07-23T10:05:51.285Z</time>
      </trkpt>
      <trkpt lat="45.45205" lon="7.02593">
        <ele>2022.8</ele>
        <time>2021-07-23T10:05:52.285Z</time>
      </trkpt>
      <trkpt lat="45.45207" lon="7.02599">
        <ele>2022.8</ele>
        <time>2021-07-23T10:05:53.285Z</time>
      </trkpt>
      <trkpt lat="45.45209" lon="7.02605">
        <ele>2022.8</ele>
        <time>2021-07-23T10:05:54.285Z</time>
      </trkpt>
      <trkpt lat="45.45211" lon="7.02611">
        <ele>2022.8</ele>
        <time>2021-07-23T10:05:55.285Z</time>
      </trkpt>
      <trkpt lat="45.45214" lon="7.02617">
        <ele>2022.8</ele>
        <time>2021-07-23T10:05:56.285Z</time>
      </trkpt>
      <trkpt lat="45.45216" lon="7.02622">
        <ele>2022.8</ele>
        <time>2021-07-23T10:05:57.285Z</time>
      </trkpt>
      <trkpt lat="45.45218" lon="7.02628">
        <ele>2022.8</ele>
        <time>2021-07-23T10:05:58.285Z</time>
      </trkpt>
      <trkpt lat="45.4522" lon="7.02634">
        <ele>2022.8</ele>
        <time>2021-07-23T10:05:59.285Z</time>
      </trkpt>
      <trkpt lat="45.45222" lon="7.02639">
        <ele>2022.8</ele>
        <time>2021-07-23T10:06:00.285Z</time>
      </trkpt>
      <trkpt lat="45.45225" lon="7.02645">
        <ele>2022.8</ele>
        <time>2021-07-23T10:06:01.285Z</time>
      </trkpt>
      <trkpt lat="45.45227" lon="7.02651">
        <ele>2023.2</ele>
        <time>2021-07-23T10:06:02.285Z</time>
      </trkpt>
      <trkpt lat="45.45229" lon="7.02657">
        <ele>2024.2</ele>
        <time>2021-07-23T10:06:03.285Z</time>
      </trkpt>
      <trkpt lat="45.45231" lon="7.02663">
        <ele>2024.6</ele>
        <time>2021-07-23T10:06:04.285Z</time>
      </trkpt>
      <trkpt lat="45.45232" lon="7.02669">
        <ele>2025</ele>
        <time>2021-07-23T10:06:05.285Z</time>
      </trkpt>
      <trkpt lat="45.45234" lon="7.02675">
        <ele>2025</ele>
        <time>2021-07-23T10:06:06.285Z</time>
      </trkpt>
      <trkpt lat="45.45237" lon="7.02681">
        <ele>2025</ele>
        <time>2021-07-23T10:06:07.285Z</time>
      </trkpt>
      <trkpt lat="45.45239" lon="7.02687">
        <ele>2025</ele>
        <time>2021-07-23T10:06:08.285Z</time>
      </trkpt>
      <trkpt lat="45.45241" lon="7.02693">
        <ele>2025</ele>
        <time>2021-07-23T10:06:09.285Z</time>
      </trkpt>
      <trkpt lat="45.45244" lon="7.02698">
        <ele>2025</ele>
        <time>2021-07-23T10:06:10.285Z</time>
      </trkpt>
      <trkpt lat="45.45245" lon="7.02705">
        <ele>2025</ele>
        <time>2021-07-23T10:06:11.285Z</time>
      </trkpt>
      <trkpt lat="45.45247" lon="7.02711">
        <ele>2025</ele>
        <time>2021-07-23T10:06:12.285Z</time>
      </trkpt>
      <trkpt lat="45.45248" lon="7.02718">
        <ele>2025</ele>
        <time>2021-07-23T10:06:13.285Z</time>
      </trkpt>
      <trkpt lat="45.4525" lon="7.02724">
        <ele>2025</ele>
        <time>2021-07-23T10:06:14.285Z</time>
      </trkpt>
      <trkpt lat="45.45251" lon="7.02731">
        <ele>2025</ele>
        <time>2021-07-23T10:06:15.285Z</time>
      </trkpt>
      <trkpt lat="45.45251" lon="7.02737">
        <ele>2025</ele>
        <time>2021-07-23T10:06:16.285Z</time>
      </trkpt>
      <trkpt lat="45.45252" lon="7.02744">
        <ele>2025</ele>
        <time>2021-07-23T10:06:17.285Z</time>
      </trkpt>
      <trkpt lat="45.45253" lon="7.02751">
        <ele>2025</ele>
        <time>2021-07-23T10:06:18.285Z</time>
      </trkpt>
      <trkpt lat="45.45253" lon="7.02757">
        <ele>2025</ele>
        <time>2021-07-23T10:06:19.285Z</time>
      </trkpt>
      <trkpt lat="45.45254" lon="7.02764">
        <ele>2025.4</ele>
        <time>2021-07-23T10:06:20.285Z</time>
      </trkpt>
      <trkpt lat="45.45255" lon="7.0277">
        <ele>2026</ele>
        <time>2021-07-23T10:06:21.285Z</time>
      </trkpt>
      <trkpt lat="45.45255" lon="7.02777">
        <ele>2026.4</ele>
        <time>2021-07-23T10:06:22.285Z</time>
      </trkpt>
      <trkpt lat="45.45256" lon="7.02784">
        <ele>2026.8</ele>
        <time>2021-07-23T10:06:23.285Z</time>
      </trkpt>
      <trkpt lat="45.45256" lon="7.0279">
        <ele>2027.2</ele>
        <time>2021-07-23T10:06:24.285Z</time>
      </trkpt>
      <trkpt lat="45.45257" lon="7.02798">
        <ele>2027.2</ele>
        <time>2021-07-23T10:06:25.285Z</time>
      </trkpt>
      <trkpt lat="45.45257" lon="7.02804">
        <ele>2027.2</ele>
        <time>2021-07-23T10:06:26.285Z</time>
      </trkpt>
      <trkpt lat="45.45258" lon="7.02811">
        <ele>2027.2</ele>
        <time>2021-07-23T10:06:27.285Z</time>
      </trkpt>
      <trkpt lat="45.45258" lon="7.02817">
        <ele>2027.2</ele>
        <time>2021-07-23T10:06:28.285Z</time>
      </trkpt>
      <trkpt lat="45.45259" lon="7.02824">
        <ele>2027.2</ele>
        <time>2021-07-23T10:06:29.285Z</time>
      </trkpt>
      <trkpt lat="45.45259" lon="7.0283">
        <ele>2027.2</ele>
        <time>2021-07-23T10:06:30.285Z</time>
      </trkpt>
      <trkpt lat="45.4526" lon="7.02836">
        <ele>2027.2</ele>
        <time>2021-07-23T10:06:31.285Z</time>
      </trkpt>
      <trkpt lat="45.4526" lon="7.02842">
        <ele>2027.2</ele>
        <time>2021-07-23T10:06:32.285Z</time>
      </trkpt>
      <trkpt lat="45.45261" lon="7.02848">
        <ele>2027.6</ele>
        <time>2021-07-23T10:06:33.285Z</time>
      </trkpt>
      <trkpt lat="45.45263" lon="7.02854">
        <ele>2028</ele>
        <time>2021-07-23T10:06:34.285Z</time>
      </trkpt>
      <trkpt lat="45.45264" lon="7.0286">
        <ele>2028.6</ele>
        <time>2021-07-23T10:06:35.285Z</time>
      </trkpt>
      <trkpt lat="45.45265" lon="7.02866">
        <ele>2029</ele>
        <time>2021-07-23T10:06:36.285Z</time>
      </trkpt>
      <trkpt lat="45.45266" lon="7.02872">
        <ele>2029.4</ele>
        <time>2021-07-23T10:06:37.285Z</time>
      </trkpt>
      <trkpt lat="45.45268" lon="7.02878">
        <ele>2029.4</ele>
        <time>2021-07-23T10:06:38.285Z</time>
      </trkpt>
      <trkpt lat="45.4527" lon="7.02883">
        <ele>2029.4</ele>
        <time>2021-07-23T10:06:39.285Z</time>
      </trkpt>
      <trkpt lat="45.45272" lon="7.02889">
        <ele>2029.4</ele>
        <time>2021-07-23T10:06:40.285Z</time>
      </trkpt>
      <trkpt lat="45.45274" lon="7.02895">
        <ele>2029.4</ele>
        <time>2021-07-23T10:06:41.285Z</time>
      </trkpt>
      <trkpt lat="45.45276" lon="7.029">
        <ele>2029.4</ele>
        <time>2021-07-23T10:06:42.285Z</time>
      </trkpt>
      <trkpt lat="45.45279" lon="7.02905">
        <ele>2029.4</ele>
        <time>2021-07-23T10:06:43.285Z</time>
      </trkpt>
      <trkpt lat="45.45281" lon="7.02911">
        <ele>2029.4</ele>
        <time>2021-07-23T10:06:44.285Z</time>
      </trkpt>
      <trkpt lat="45.45283" lon="7.02917">
        <ele>2029.8</ele>
        <time>2021-07-23T10:06:45.285Z</time>
      </trkpt>
      <trkpt lat="45.45285" lon="7.02923">
        <ele>2030.2</ele>
        <time>2021-07-23T10:06:46.285Z</time>
      </trkpt>
      <trkpt lat="45.45288" lon="7.02929">
        <ele>2030.6</ele>
        <time>2021-07-23T10:06:47.285Z</time>
      </trkpt>
      <trkpt lat="45.4529" lon="7.02935">
        <ele>2031</ele>
        <time>2021-07-23T10:06:48.285Z</time>
      </trkpt>
      <trkpt lat="45.45292" lon="7.0294">
        <ele>2031.4</ele>
        <time>2021-07-23T10:06:49.285Z</time>
      </trkpt>
      <trkpt lat="45.45295" lon="7.02946">
        <ele>2031.4</ele>
        <time>2021-07-23T10:06:50.285Z</time>
      </trkpt>
      <trkpt lat="45.45297" lon="7.02951">
        <ele>2031.4</ele>
        <time>2021-07-23T10:06:51.285Z</time>
      </trkpt>
      <trkpt lat="45.45299" lon="7.02957">
        <ele>2031.4</ele>
        <time>2021-07-23T10:06:52.285Z</time>
      </trkpt>
      <trkpt lat="45.45301" lon="7.02963">
        <ele>2031.4</ele>
        <time>2021-07-23T10:06:53.285Z</time>
      </trkpt>
      <trkpt lat="45.45304" lon="7.02968">
        <ele>2031.4</ele>
        <time>2021-07-23T10:06:54.285Z</time>
      </trkpt>
      <trkpt lat="45.45306" lon="7.02974">
        <ele>2031.4</ele>
        <time>2021-07-23T10:06:55.285Z</time>
      </trkpt>
      <trkpt lat="45.45308" lon="7.0298">
        <ele>2031.4</ele>
        <time>2021-07-23T10:06:56.285Z</time>
      </trkpt>
      <trkpt lat="45.4531" lon="7.02985">
        <ele>2031.4</ele>
        <time>2021-07-23T10:06:57.285Z</time>
      </trkpt>
      <trkpt lat="45.45313" lon="7.02991">
        <ele>2031.8</ele>
        <time>2021-07-23T10:06:58.285Z</time>
      </trkpt>
      <trkpt lat="45.45315" lon="7.02996">
        <ele>2032.2</ele>
        <time>2021-07-23T10:06:59.285Z</time>
      </trkpt>
      <trkpt lat="45.45317" lon="7.03002">
        <ele>2032.6</ele>
        <time>2021-07-23T10:07:00.285Z</time>
      </trkpt>
      <trkpt lat="45.45319" lon="7.03007">
        <ele>2033</ele>
        <time>2021-07-23T10:07:01.285Z</time>
      </trkpt>
      <trkpt lat="45.45322" lon="7.03012">
        <ele>2033.4</ele>
        <time>2021-07-23T10:07:02.285Z</time>
      </trkpt>
      <trkpt lat="45.45324" lon="7.03018">
        <ele>2033.4</ele>
        <time>2021-07-23T10:07:03.285Z</time>
      </trkpt>
      <trkpt lat="45.45326" lon="7.03024">
        <ele>2033.4</ele>
        <time>2021-07-23T10:07:04.285Z</time>
      </trkpt>
      <trkpt lat="45.45328" lon="7.03029">
        <ele>2033.4</ele>
        <time>2021-07-23T10:07:05.285Z</time>
      </trkpt>
      <trkpt lat="45.45331" lon="7.03035">
        <ele>2033.4</ele>
        <time>2021-07-23T10:07:06.285Z</time>
      </trkpt>
      <trkpt lat="45.45334" lon="7.03041">
        <ele>2033.4</ele>
        <time>2021-07-23T10:07:07.285Z</time>
      </trkpt>
      <trkpt lat="45.45336" lon="7.03047">
        <ele>2033.4</ele>
        <time>2021-07-23T10:07:08.285Z</time>
      </trkpt>
      <trkpt lat="45.45339" lon="7.03054">
        <ele>2033.4</ele>
        <time>2021-07-23T10:07:09.285Z</time>
      </trkpt>
      <trkpt lat="45.45341" lon="7.03061">
        <ele>2033.4</ele>
        <time>2021-07-23T10:07:10.285Z</time>
      </trkpt>
      <trkpt lat="45.45343" lon="7.03067">
        <ele>2033.8</ele>
        <time>2021-07-23T10:07:11.285Z</time>
      </trkpt>
      <trkpt lat="45.45346" lon="7.03074">
        <ele>2034.2</ele>
        <time>2021-07-23T10:07:12.285Z</time>
      </trkpt>
      <trkpt lat="45.45348" lon="7.0308">
        <ele>2034.6</ele>
        <time>2021-07-23T10:07:13.285Z</time>
      </trkpt>
      <trkpt lat="45.4535" lon="7.03086">
        <ele>2035</ele>
        <time>2021-07-23T10:07:14.285Z</time>
      </trkpt>
      <trkpt lat="45.45353" lon="7.03092">
        <ele>2035.4</ele>
        <time>2021-07-23T10:07:15.285Z</time>
      </trkpt>
      <trkpt lat="45.45355" lon="7.03098">
        <ele>2035.4</ele>
        <time>2021-07-23T10:07:16.285Z</time>
      </trkpt>
      <trkpt lat="45.45357" lon="7.03104">
        <ele>2035.4</ele>
        <time>2021-07-23T10:07:17.285Z</time>
      </trkpt>
      <trkpt lat="45.4536" lon="7.0311">
        <ele>2035.4</ele>
        <time>2021-07-23T10:07:18.285Z</time>
      </trkpt>
      <trkpt lat="45.45362" lon="7.03116">
        <ele>2035.4</ele>
        <time>2021-07-23T10:07:19.285Z</time>
      </trkpt>
      <trkpt lat="45.45364" lon="7.03122">
        <ele>2035.4</ele>
        <time>2021-07-23T10:07:20.285Z</time>
      </trkpt>
      <trkpt lat="45.45367" lon="7.03128">
        <ele>2035.4</ele>
        <time>2021-07-23T10:07:21.285Z</time>
      </trkpt>
      <trkpt lat="45.45369" lon="7.03134">
        <ele>2035.4</ele>
        <time>2021-07-23T10:07:22.285Z</time>
      </trkpt>
      <trkpt lat="45.45372" lon="7.03139">
        <ele>2036</ele>
        <time>2021-07-23T10:07:23.285Z</time>
      </trkpt>
      <trkpt lat="45.45374" lon="7.03145">
        <ele>2036.4</ele>
        <time>2021-07-23T10:07:24.285Z</time>
      </trkpt>
      <trkpt lat="45.45376" lon="7.03151">
        <ele>2036.8</ele>
        <time>2021-07-23T10:07:25.285Z</time>
      </trkpt>
      <trkpt lat="45.45378" lon="7.03157">
        <ele>2037.2</ele>
        <time>2021-07-23T10:07:26.285Z</time>
      </trkpt>
      <trkpt lat="45.4538" lon="7.03163">
        <ele>2037.6</ele>
        <time>2021-07-23T10:07:27.285Z</time>
      </trkpt>
      <trkpt lat="45.45382" lon="7.03168">
        <ele>2037.6</ele>
        <time>2021-07-23T10:07:28.285Z</time>
      </trkpt>
      <trkpt lat="45.45385" lon="7.03174">
        <ele>2037.6</ele>
        <time>2021-07-23T10:07:29.285Z</time>
      </trkpt>
      <trkpt lat="45.45387" lon="7.03179">
        <ele>2037.6</ele>
        <time>2021-07-23T10:07:30.285Z</time>
      </trkpt>
      <trkpt lat="45.45389" lon="7.03184">
        <ele>2037.6</ele>
        <time>2021-07-23T10:07:31.285Z</time>
      </trkpt>
      <trkpt lat="45.45392" lon="7.0319">
        <ele>2037.6</ele>
        <time>2021-07-23T10:07:32.285Z</time>
      </trkpt>
      <trkpt lat="45.45395" lon="7.03195">
        <ele>2038</ele>
        <time>2021-07-23T10:07:33.285Z</time>
      </trkpt>
      <trkpt lat="45.45397" lon="7.03201">
        <ele>2038.4</ele>
        <time>2021-07-23T10:07:34.285Z</time>
      </trkpt>
      <trkpt lat="45.454" lon="7.03207">
        <ele>2038.8</ele>
        <time>2021-07-23T10:07:35.285Z</time>
      </trkpt>
      <trkpt lat="45.45402" lon="7.03212">
        <ele>2039.2</ele>
        <time>2021-07-23T10:07:36.285Z</time>
      </trkpt>
      <trkpt lat="45.45405" lon="7.03218">
        <ele>2039.8</ele>
        <time>2021-07-23T10:07:37.285Z</time>
      </trkpt>
      <trkpt lat="45.45408" lon="7.03224">
        <ele>2039.8</ele>
        <time>2021-07-23T10:07:38.285Z</time>
      </trkpt>
      <trkpt lat="45.45411" lon="7.0323">
        <ele>2039.8</ele>
        <time>2021-07-23T10:07:39.285Z</time>
      </trkpt>
      <trkpt lat="45.45414" lon="7.03236">
        <ele>2039.8</ele>
        <time>2021-07-23T10:07:40.285Z</time>
      </trkpt>
      <trkpt lat="45.45417" lon="7.03242">
        <ele>2039.8</ele>
        <time>2021-07-23T10:07:41.285Z</time>
      </trkpt>
      <trkpt lat="45.4542" lon="7.03248">
        <ele>2039.8</ele>
        <time>2021-07-23T10:07:42.285Z</time>
      </trkpt>
      <trkpt lat="45.45423" lon="7.03254">
        <ele>2039.8</ele>
        <time>2021-07-23T10:07:43.285Z</time>
      </trkpt>
      <trkpt lat="45.45426" lon="7.03259">
        <ele>2039.8</ele>
        <time>2021-07-23T10:07:44.285Z</time>
      </trkpt>
      <trkpt lat="45.45429" lon="7.03265">
        <ele>2039.8</ele>
        <time>2021-07-23T10:07:45.285Z</time>
      </trkpt>
      <trkpt lat="45.45432" lon="7.03272">
        <ele>2039.8</ele>
        <time>2021-07-23T10:07:46.285Z</time>
      </trkpt>
      <trkpt lat="45.45435" lon="7.03278">
        <ele>2039.8</ele>
        <time>2021-07-23T10:07:47.285Z</time>
      </trkpt>
      <trkpt lat="45.45439" lon="7.03285">
        <ele>2039.8</ele>
        <time>2021-07-23T10:07:48.285Z</time>
      </trkpt>
      <trkpt lat="45.45442" lon="7.03291">
        <ele>2039.8</ele>
        <time>2021-07-23T10:07:49.285Z</time>
      </trkpt>
      <trkpt lat="45.45445" lon="7.03298">
        <ele>2039.8</ele>
        <time>2021-07-23T10:07:50.285Z</time>
      </trkpt>
      <trkpt lat="45.45448" lon="7.03304">
        <ele>2039.8</ele>
        <time>2021-07-23T10:07:51.285Z</time>
      </trkpt>
      <trkpt lat="45.45451" lon="7.03311">
        <ele>2039.8</ele>
        <time>2021-07-23T10:07:52.285Z</time>
      </trkpt>
      <trkpt lat="45.45454" lon="7.03318">
        <ele>2039.8</ele>
        <time>2021-07-23T10:07:53.285Z</time>
      </trkpt>
      <trkpt lat="45.45457" lon="7.03324">
        <ele>2039.8</ele>
        <time>2021-07-23T10:07:54.285Z</time>
      </trkpt>
      <trkpt lat="45.4546" lon="7.03331">
        <ele>2039.8</ele>
        <time>2021-07-23T10:07:55.285Z</time>
      </trkpt>
      <trkpt lat="45.45463" lon="7.03338">
        <ele>2039.8</ele>
        <time>2021-07-23T10:07:56.285Z</time>
      </trkpt>
      <trkpt lat="45.45467" lon="7.03345">
        <ele>2039.8</ele>
        <time>2021-07-23T10:07:57.285Z</time>
      </trkpt>
      <trkpt lat="45.45469" lon="7.03353">
        <ele>2039.8</ele>
        <time>2021-07-23T10:07:58.285Z</time>
      </trkpt>
      <trkpt lat="45.45471" lon="7.0336">
        <ele>2039.8</ele>
        <time>2021-07-23T10:07:59.285Z</time>
      </trkpt>
      <trkpt lat="45.45473" lon="7.03368">
        <ele>2039.8</ele>
        <time>2021-07-23T10:08:00.285Z</time>
      </trkpt>
      <trkpt lat="45.45475" lon="7.03376">
        <ele>2039.8</ele>
        <time>2021-07-23T10:08:01.285Z</time>
      </trkpt>
      <trkpt lat="45.45476" lon="7.03384">
        <ele>2039.8</ele>
        <time>2021-07-23T10:08:02.285Z</time>
      </trkpt>
      <trkpt lat="45.45478" lon="7.03392">
        <ele>2039.8</ele>
        <time>2021-07-23T10:08:03.285Z</time>
      </trkpt>
      <trkpt lat="45.45479" lon="7.034">
        <ele>2040.2</ele>
        <time>2021-07-23T10:08:04.285Z</time>
      </trkpt>
      <trkpt lat="45.45481" lon="7.03407">
        <ele>2040.6</ele>
        <time>2021-07-23T10:08:05.285Z</time>
      </trkpt>
      <trkpt lat="45.45483" lon="7.03416">
        <ele>2041</ele>
        <time>2021-07-23T10:08:06.285Z</time>
      </trkpt>
      <trkpt lat="45.45484" lon="7.03424">
        <ele>2041.8</ele>
        <time>2021-07-23T10:08:07.285Z</time>
      </trkpt>
      <trkpt lat="45.45486" lon="7.03432">
        <ele>2041.8</ele>
        <time>2021-07-23T10:08:08.285Z</time>
      </trkpt>
      <trkpt lat="45.45488" lon="7.0344">
        <ele>2041.8</ele>
        <time>2021-07-23T10:08:09.285Z</time>
      </trkpt>
      <trkpt lat="45.45489" lon="7.03448">
        <ele>2041.8</ele>
        <time>2021-07-23T10:08:10.285Z</time>
      </trkpt>
      <trkpt lat="45.45491" lon="7.03456">
        <ele>2041.8</ele>
        <time>2021-07-23T10:08:11.285Z</time>
      </trkpt>
      <trkpt lat="45.45493" lon="7.03464">
        <ele>2041.8</ele>
        <time>2021-07-23T10:08:12.285Z</time>
      </trkpt>
      <trkpt lat="45.45494" lon="7.03471">
        <ele>2041.8</ele>
        <time>2021-07-23T10:08:13.285Z</time>
      </trkpt>
      <trkpt lat="45.45495" lon="7.03479">
        <ele>2041.8</ele>
        <time>2021-07-23T10:08:14.285Z</time>
      </trkpt>
      <trkpt lat="45.45497" lon="7.03487">
        <ele>2041.8</ele>
        <time>2021-07-23T10:08:15.285Z</time>
      </trkpt>
      <trkpt lat="45.45498" lon="7.03495">
        <ele>2041.8</ele>
        <time>2021-07-23T10:08:16.285Z</time>
      </trkpt>
      <trkpt lat="45.45499" lon="7.03503">
        <ele>2041.8</ele>
        <time>2021-07-23T10:08:17.285Z</time>
      </trkpt>
      <trkpt lat="45.45499" lon="7.03511">
        <ele>2041.8</ele>
        <time>2021-07-23T10:08:18.285Z</time>
      </trkpt>
      <trkpt lat="45.45499" lon="7.03518">
        <ele>2041.8</ele>
        <time>2021-07-23T10:08:19.285Z</time>
      </trkpt>
      <trkpt lat="45.45499" lon="7.03525">
        <ele>2041.8</ele>
        <time>2021-07-23T10:08:20.285Z</time>
      </trkpt>
      <trkpt lat="45.45498" lon="7.03532">
        <ele>2041.8</ele>
        <time>2021-07-23T10:08:21.285Z</time>
      </trkpt>
      <trkpt lat="45.45498" lon="7.03538">
        <ele>2041.8</ele>
        <time>2021-07-23T10:08:22.285Z</time>
      </trkpt>
      <trkpt lat="45.45498" lon="7.03545">
        <ele>2041.8</ele>
        <time>2021-07-23T10:08:23.285Z</time>
      </trkpt>
      <trkpt lat="45.45497" lon="7.03551">
        <ele>2042.2</ele>
        <time>2021-07-23T10:08:24.285Z</time>
      </trkpt>
      <trkpt lat="45.45497" lon="7.03558">
        <ele>2042.6</ele>
        <time>2021-07-23T10:08:25.285Z</time>
      </trkpt>
      <trkpt lat="45.45496" lon="7.03565">
        <ele>2043</ele>
        <time>2021-07-23T10:08:26.285Z</time>
      </trkpt>
      <trkpt lat="45.45496" lon="7.03571">
        <ele>2043.4</ele>
        <time>2021-07-23T10:08:27.285Z</time>
      </trkpt>
      <trkpt lat="45.45495" lon="7.03577">
        <ele>2043.8</ele>
        <time>2021-07-23T10:08:28.285Z</time>
      </trkpt>
      <trkpt lat="45.45495" lon="7.03584">
        <ele>2043.8</ele>
        <time>2021-07-23T10:08:29.285Z</time>
      </trkpt>
      <trkpt lat="45.45495" lon="7.0359">
        <ele>2043.8</ele>
        <time>2021-07-23T10:08:30.285Z</time>
      </trkpt>
      <trkpt lat="45.45495" lon="7.03596">
        <ele>2043.8</ele>
        <time>2021-07-23T10:08:31.285Z</time>
      </trkpt>
      <trkpt lat="45.45494" lon="7.03602">
        <ele>2043.8</ele>
        <time>2021-07-23T10:08:32.285Z</time>
      </trkpt>
      <trkpt lat="45.45493" lon="7.03608">
        <ele>2044.4</ele>
        <time>2021-07-23T10:08:33.285Z</time>
      </trkpt>
      <trkpt lat="45.45493" lon="7.03614">
        <ele>2044.8</ele>
        <time>2021-07-23T10:08:34.285Z</time>
      </trkpt>
      <trkpt lat="45.45492" lon="7.0362">
        <ele>2045.2</ele>
        <time>2021-07-23T10:08:35.285Z</time>
      </trkpt>
      <trkpt lat="45.45492" lon="7.03626">
        <ele>2045.8</ele>
        <time>2021-07-23T10:08:36.285Z</time>
      </trkpt>
      <trkpt lat="45.45491" lon="7.03631">
        <ele>2046.2</ele>
        <time>2021-07-23T10:08:37.285Z</time>
      </trkpt>
      <trkpt lat="45.4549" lon="7.03636">
        <ele>2046.2</ele>
        <time>2021-07-23T10:08:38.285Z</time>
      </trkpt>
      <trkpt lat="45.45489" lon="7.03642">
        <ele>2046.2</ele>
        <time>2021-07-23T10:08:39.285Z</time>
      </trkpt>
      <trkpt lat="45.45487" lon="7.03646">
        <ele>2046.2</ele>
        <time>2021-07-23T10:08:40.285Z</time>
      </trkpt>
      <trkpt lat="45.45485" lon="7.03651">
        <ele>2046.2</ele>
        <time>2021-07-23T10:08:41.285Z</time>
      </trkpt>
      <trkpt lat="45.45483" lon="7.03656">
        <ele>2046.2</ele>
        <time>2021-07-23T10:08:42.285Z</time>
      </trkpt>
      <trkpt lat="45.4548" lon="7.03659">
        <ele>2046.6</ele>
        <time>2021-07-23T10:08:43.285Z</time>
      </trkpt>
      <trkpt lat="45.45477" lon="7.03663">
        <ele>2047</ele>
        <time>2021-07-23T10:08:44.285Z</time>
      </trkpt>
      <trkpt lat="45.45473" lon="7.03666">
        <ele>2047.4</ele>
        <time>2021-07-23T10:08:45.285Z</time>
      </trkpt>
      <trkpt lat="45.4547" lon="7.03668">
        <ele>2047.8</ele>
        <time>2021-07-23T10:08:46.285Z</time>
      </trkpt>
      <trkpt lat="45.45466" lon="7.0367">
        <ele>2048.2</ele>
        <time>2021-07-23T10:08:47.285Z</time>
      </trkpt>
      <trkpt lat="45.45463" lon="7.0367">
        <ele>2048.2</ele>
        <time>2021-07-23T10:08:48.285Z</time>
      </trkpt>
      <trkpt lat="45.45459" lon="7.0367">
        <ele>2048.2</ele>
        <time>2021-07-23T10:08:49.285Z</time>
      </trkpt>
      <trkpt lat="45.45455" lon="7.03669">
        <ele>2048.6</ele>
        <time>2021-07-23T10:08:50.285Z</time>
      </trkpt>
      <trkpt lat="45.45452" lon="7.03669">
        <ele>2049</ele>
        <time>2021-07-23T10:08:51.285Z</time>
      </trkpt>
      <trkpt lat="45.45448" lon="7.03668">
        <ele>2049.4</ele>
        <time>2021-07-23T10:08:52.285Z</time>
      </trkpt>
      <trkpt lat="45.45445" lon="7.03667">
        <ele>2049.8</ele>
        <time>2021-07-23T10:08:53.285Z</time>
      </trkpt>
      <trkpt lat="45.45441" lon="7.03666">
        <ele>2050.2</ele>
        <time>2021-07-23T10:08:54.285Z</time>
      </trkpt>
      <trkpt lat="45.45438" lon="7.03665">
        <ele>2050.2</ele>
        <time>2021-07-23T10:08:55.285Z</time>
      </trkpt>
      <trkpt lat="45.45435" lon="7.03664">
        <ele>2050.2</ele>
        <time>2021-07-23T10:08:56.285Z</time>
      </trkpt>
      <trkpt lat="45.45431" lon="7.03664">
        <ele>2051.2</ele>
        <time>2021-07-23T10:08:57.285Z</time>
      </trkpt>
      <trkpt lat="45.45428" lon="7.03663">
        <ele>2051.8</ele>
        <time>2021-07-23T10:08:58.285Z</time>
      </trkpt>
      <trkpt lat="45.45425" lon="7.03662">
        <ele>2052.2</ele>
        <time>2021-07-23T10:08:59.285Z</time>
      </trkpt>
      <trkpt lat="45.45421" lon="7.03662">
        <ele>2052.8</ele>
        <time>2021-07-23T10:09:00.285Z</time>
      </trkpt>
      <trkpt lat="45.45418" lon="7.03661">
        <ele>2052.8</ele>
        <time>2021-07-23T10:09:01.285Z</time>
      </trkpt>
      <trkpt lat="45.45415" lon="7.0366">
        <ele>2052.8</ele>
        <time>2021-07-23T10:09:02.285Z</time>
      </trkpt>
      <trkpt lat="45.45411" lon="7.03659">
        <ele>2052.8</ele>
        <time>2021-07-23T10:09:03.285Z</time>
      </trkpt>
      <trkpt lat="45.45408" lon="7.03658">
        <ele>2052.8</ele>
        <time>2021-07-23T10:09:04.285Z</time>
      </trkpt>
      <trkpt lat="45.45406" lon="7.03656">
        <ele>2052.8</ele>
        <time>2021-07-23T10:09:05.285Z</time>
      </trkpt>
      <trkpt lat="45.45403" lon="7.03654">
        <ele>2052.8</ele>
        <time>2021-07-23T10:09:06.285Z</time>
      </trkpt>
      <trkpt lat="45.454" lon="7.03651">
        <ele>2052.8</ele>
        <time>2021-07-23T10:09:07.285Z</time>
      </trkpt>
      <trkpt lat="45.45398" lon="7.03649">
        <ele>2052.8</ele>
        <time>2021-07-23T10:09:08.285Z</time>
      </trkpt>
      <trkpt lat="45.45396" lon="7.03646">
        <ele>2052.8</ele>
        <time>2021-07-23T10:09:09.285Z</time>
      </trkpt>
      <trkpt lat="45.45394" lon="7.03643">
        <ele>2052.8</ele>
        <time>2021-07-23T10:09:10.285Z</time>
      </trkpt>
      <trkpt lat="45.45392" lon="7.03639">
        <ele>2052.8</ele>
        <time>2021-07-23T10:09:11.285Z</time>
      </trkpt>
      <trkpt lat="45.4539" lon="7.03635">
        <ele>2053.2</ele>
        <time>2021-07-23T10:09:12.285Z</time>
      </trkpt>
      <trkpt lat="45.45388" lon="7.03632">
        <ele>2053.6</ele>
        <time>2021-07-23T10:09:13.285Z</time>
      </trkpt>
      <trkpt lat="45.45386" lon="7.03628">
        <ele>2054.2</ele>
        <time>2021-07-23T10:09:14.285Z</time>
      </trkpt>
      <trkpt lat="45.45384" lon="7.03625">
        <ele>2054.6</ele>
        <time>2021-07-23T10:09:15.285Z</time>
      </trkpt>
      <trkpt lat="45.45382" lon="7.03621">
        <ele>2055</ele>
        <time>2021-07-23T10:09:16.285Z</time>
      </trkpt>
      <trkpt lat="45.45379" lon="7.03617">
        <ele>2055</ele>
        <time>2021-07-23T10:09:17.285Z</time>
      </trkpt>
      <trkpt lat="45.45377" lon="7.03614">
        <ele>2055</ele>
        <time>2021-07-23T10:09:18.285Z</time>
      </trkpt>
      <trkpt lat="45.45375" lon="7.0361">
        <ele>2055</ele>
        <time>2021-07-23T10:09:19.285Z</time>
      </trkpt>
      <trkpt lat="45.45374" lon="7.03607">
        <ele>2055</ele>
        <time>2021-07-23T10:09:20.285Z</time>
      </trkpt>
      <trkpt lat="45.45372" lon="7.03603">
        <ele>2055</ele>
        <time>2021-07-23T10:09:21.285Z</time>
      </trkpt>
      <trkpt lat="45.4537" lon="7.036">
        <ele>2055</ele>
        <time>2021-07-23T10:09:22.285Z</time>
      </trkpt>
      <trkpt lat="45.45369" lon="7.03597">
        <ele>2055.4</ele>
        <time>2021-07-23T10:09:23.285Z</time>
      </trkpt>
      <trkpt lat="45.45367" lon="7.03593">
        <ele>2056</ele>
        <time>2021-07-23T10:09:24.285Z</time>
      </trkpt>
      <trkpt lat="45.45365" lon="7.0359">
        <ele>2056.4</ele>
        <time>2021-07-23T10:09:25.285Z</time>
      </trkpt>
      <trkpt lat="45.45363" lon="7.03586">
        <ele>2056.8</ele>
        <time>2021-07-23T10:09:26.285Z</time>
      </trkpt>
      <trkpt lat="45.45361" lon="7.03582">
        <ele>2057.2</ele>
        <time>2021-07-23T10:09:27.285Z</time>
      </trkpt>
      <trkpt lat="45.45359" lon="7.03578">
        <ele>2057.2</ele>
        <time>2021-07-23T10:09:28.285Z</time>
      </trkpt>
      <trkpt lat="45.45358" lon="7.03574">
        <ele>2057.2</ele>
        <time>2021-07-23T10:09:29.285Z</time>
      </trkpt>
      <trkpt lat="45.45356" lon="7.0357">
        <ele>2057.2</ele>
        <time>2021-07-23T10:09:30.285Z</time>
      </trkpt>
      <trkpt lat="45.45355" lon="7.03566">
        <ele>2057.2</ele>
        <time>2021-07-23T10:09:31.285Z</time>
      </trkpt>
      <trkpt lat="45.45354" lon="7.03562">
        <ele>2057.6</ele>
        <time>2021-07-23T10:09:32.285Z</time>
      </trkpt>
      <trkpt lat="45.45353" lon="7.03557">
        <ele>2058</ele>
        <time>2021-07-23T10:09:33.285Z</time>
      </trkpt>
      <trkpt lat="45.45352" lon="7.03553">
        <ele>2058.6</ele>
        <time>2021-07-23T10:09:34.285Z</time>
      </trkpt>
      <trkpt lat="45.45352" lon="7.03549">
        <ele>2059</ele>
        <time>2021-07-23T10:09:35.285Z</time>
      </trkpt>
      <trkpt lat="45.45352" lon="7.03544">
        <ele>2059.4</ele>
        <time>2021-07-23T10:09:36.285Z</time>
      </trkpt>
      <trkpt lat="45.45351" lon="7.03539">
        <ele>2059.4</ele>
        <time>2021-07-23T10:09:37.285Z</time>
      </trkpt>
      <trkpt lat="45.45351" lon="7.03535">
        <ele>2059.4</ele>
        <time>2021-07-23T10:09:38.285Z</time>
      </trkpt>
      <trkpt lat="45.4535" lon="7.03531">
        <ele>2059.4</ele>
        <time>2021-07-23T10:09:39.285Z</time>
      </trkpt>
      <trkpt lat="45.45349" lon="7.03526">
        <ele>2059.4</ele>
        <time>2021-07-23T10:09:40.285Z</time>
      </trkpt>
      <trkpt lat="45.45348" lon="7.03522">
        <ele>2059.4</ele>
        <time>2021-07-23T10:09:41.285Z</time>
      </trkpt>
      <trkpt lat="45.45346" lon="7.03518">
        <ele>2059.4</ele>
        <time>2021-07-23T10:09:42.285Z</time>
      </trkpt>
      <trkpt lat="45.45344" lon="7.03514">
        <ele>2059.4</ele>
        <time>2021-07-23T10:09:43.285Z</time>
      </trkpt>
      <trkpt lat="45.45341" lon="7.03512">
        <ele>2059.4</ele>
        <time>2021-07-23T10:09:44.285Z</time>
      </trkpt>
      <trkpt lat="45.45338" lon="7.03511">
        <ele>2059.4</ele>
        <time>2021-07-23T10:09:45.285Z</time>
      </trkpt>
      <trkpt lat="45.45335" lon="7.03511">
        <ele>2059.4</ele>
        <time>2021-07-23T10:09:46.285Z</time>
      </trkpt>
      <trkpt lat="45.45332" lon="7.03512">
        <ele>2059.4</ele>
        <time>2021-07-23T10:09:47.285Z</time>
      </trkpt>
      <trkpt lat="45.45329" lon="7.03514">
        <ele>2059.4</ele>
        <time>2021-07-23T10:09:48.285Z</time>
      </trkpt>
      <trkpt lat="45.45326" lon="7.03518">
        <ele>2059.8</ele>
        <time>2021-07-23T10:09:49.285Z</time>
      </trkpt>
      <trkpt lat="45.45324" lon="7.03522">
        <ele>2060.2</ele>
        <time>2021-07-23T10:09:50.285Z</time>
      </trkpt>
      <trkpt lat="45.45323" lon="7.03526">
        <ele>2060.6</ele>
        <time>2021-07-23T10:09:51.285Z</time>
      </trkpt>
      <trkpt lat="45.45323" lon="7.0353">
        <ele>2061</ele>
        <time>2021-07-23T10:09:52.285Z</time>
      </trkpt>
      <trkpt lat="45.45323" lon="7.03535">
        <ele>2061.4</ele>
        <time>2021-07-23T10:09:53.285Z</time>
      </trkpt>
      <trkpt lat="45.45325" lon="7.0354">
        <ele>2061.4</ele>
        <time>2021-07-23T10:09:54.285Z</time>
      </trkpt>
      <trkpt lat="45.45326" lon="7.03545">
        <ele>2061.4</ele>
        <time>2021-07-23T10:09:55.285Z</time>
      </trkpt>
      <trkpt lat="45.45328" lon="7.0355">
        <ele>2061.4</ele>
        <time>2021-07-23T10:09:56.285Z</time>
      </trkpt>
      <trkpt lat="45.4533" lon="7.03555">
        <ele>2061.4</ele>
        <time>2021-07-23T10:09:57.285Z</time>
      </trkpt>
      <trkpt lat="45.45332" lon="7.0356">
        <ele>2061.4</ele>
        <time>2021-07-23T10:09:58.285Z</time>
      </trkpt>
      <trkpt lat="45.45334" lon="7.03565">
        <ele>2061.4</ele>
        <time>2021-07-23T10:09:59.285Z</time>
      </trkpt>
      <trkpt lat="45.45337" lon="7.0357">
        <ele>2061.4</ele>
        <time>2021-07-23T10:10:00.285Z</time>
      </trkpt>
      <trkpt lat="45.45339" lon="7.03574">
        <ele>2061.4</ele>
        <time>2021-07-23T10:10:01.285Z</time>
      </trkpt>
      <trkpt lat="45.45341" lon="7.03579">
        <ele>2061.4</ele>
        <time>2021-07-23T10:10:02.285Z</time>
      </trkpt>
      <trkpt lat="45.45343" lon="7.03583">
        <ele>2061.4</ele>
        <time>2021-07-23T10:10:03.285Z</time>
      </trkpt>
      <trkpt lat="45.45344" lon="7.03588">
        <ele>2061.8</ele>
        <time>2021-07-23T10:10:04.285Z</time>
      </trkpt>
      <trkpt lat="45.45345" lon="7.03593">
        <ele>2062.2</ele>
        <time>2021-07-23T10:10:05.285Z</time>
      </trkpt>
      <trkpt lat="45.45347" lon="7.03598">
        <ele>2062.6</ele>
        <time>2021-07-23T10:10:06.285Z</time>
      </trkpt>
      <trkpt lat="45.45348" lon="7.03603">
        <ele>2063</ele>
        <time>2021-07-23T10:10:07.285Z</time>
      </trkpt>
      <trkpt lat="45.45348" lon="7.03608">
        <ele>2063.4</ele>
        <time>2021-07-23T10:10:08.285Z</time>
      </trkpt>
      <trkpt lat="45.45349" lon="7.03613">
        <ele>2063.4</ele>
        <time>2021-07-23T10:10:09.285Z</time>
      </trkpt>
      <trkpt lat="45.4535" lon="7.03618">
        <ele>2063.4</ele>
        <time>2021-07-23T10:10:10.285Z</time>
      </trkpt>
      <trkpt lat="45.4535" lon="7.03622">
        <ele>2063.8</ele>
        <time>2021-07-23T10:10:11.285Z</time>
      </trkpt>
      <trkpt lat="45.45351" lon="7.03627">
        <ele>2064.2</ele>
        <time>2021-07-23T10:10:12.285Z</time>
      </trkpt>
      <trkpt lat="45.45352" lon="7.03631">
        <ele>2064.8</ele>
        <time>2021-07-23T10:10:13.285Z</time>
      </trkpt>
      <trkpt lat="45.45353" lon="7.03636">
        <ele>2065.2</ele>
        <time>2021-07-23T10:10:14.285Z</time>
      </trkpt>
      <trkpt lat="45.45353" lon="7.0364">
        <ele>2065.6</ele>
        <time>2021-07-23T10:10:15.285Z</time>
      </trkpt>
      <trkpt lat="45.45354" lon="7.03644">
        <ele>2065.6</ele>
        <time>2021-07-23T10:10:16.285Z</time>
      </trkpt>
      <trkpt lat="45.45355" lon="7.03649">
        <ele>2065.6</ele>
        <time>2021-07-23T10:10:17.285Z</time>
      </trkpt>
      <trkpt lat="45.45356" lon="7.03654">
        <ele>2065.6</ele>
        <time>2021-07-23T10:10:18.285Z</time>
      </trkpt>
      <trkpt lat="45.45357" lon="7.03658">
        <ele>2065.6</ele>
        <time>2021-07-23T10:10:19.285Z</time>
      </trkpt>
      <trkpt lat="45.45357" lon="7.03663">
        <ele>2066</ele>
        <time>2021-07-23T10:10:20.285Z</time>
      </trkpt>
      <trkpt lat="45.45358" lon="7.03667">
        <ele>2066.4</ele>
        <time>2021-07-23T10:10:21.285Z</time>
      </trkpt>
      <trkpt lat="45.45359" lon="7.03671">
        <ele>2066.8</ele>
        <time>2021-07-23T10:10:22.285Z</time>
      </trkpt>
      <trkpt lat="45.4536" lon="7.03675">
        <ele>2067.2</ele>
        <time>2021-07-23T10:10:23.285Z</time>
      </trkpt>
      <trkpt lat="45.45361" lon="7.03678">
        <ele>2067.6</ele>
        <time>2021-07-23T10:10:24.285Z</time>
      </trkpt>
      <trkpt lat="45.45362" lon="7.03682">
        <ele>2067.6</ele>
        <time>2021-07-23T10:10:25.285Z</time>
      </trkpt>
      <trkpt lat="45.45362" lon="7.03686">
        <ele>2067.6</ele>
        <time>2021-07-23T10:10:26.285Z</time>
      </trkpt>
      <trkpt lat="45.45363" lon="7.0369">
        <ele>2067.6</ele>
        <time>2021-07-23T10:10:27.285Z</time>
      </trkpt>
      <trkpt lat="45.45364" lon="7.03695">
        <ele>2068</ele>
        <time>2021-07-23T10:10:28.285Z</time>
      </trkpt>
      <trkpt lat="45.45365" lon="7.03699">
        <ele>2068.4</ele>
        <time>2021-07-23T10:10:29.285Z</time>
      </trkpt>
      <trkpt lat="45.45366" lon="7.03704">
        <ele>2068.8</ele>
        <time>2021-07-23T10:10:30.285Z</time>
      </trkpt>
      <trkpt lat="45.45366" lon="7.03708">
        <ele>2069.4</ele>
        <time>2021-07-23T10:10:31.285Z</time>
      </trkpt>
      <trkpt lat="45.45367" lon="7.03712">
        <ele>2069.8</ele>
        <time>2021-07-23T10:10:32.285Z</time>
      </trkpt>
      <trkpt lat="45.45368" lon="7.03716">
        <ele>2069.8</ele>
        <time>2021-07-23T10:10:33.285Z</time>
      </trkpt>
      <trkpt lat="45.45368" lon="7.03719">
        <ele>2069.8</ele>
        <time>2021-07-23T10:10:34.285Z</time>
      </trkpt>
      <trkpt lat="45.45369" lon="7.03723">
        <ele>2069.8</ele>
        <time>2021-07-23T10:10:35.285Z</time>
      </trkpt>
      <trkpt lat="45.4537" lon="7.03728">
        <ele>2070.2</ele>
        <time>2021-07-23T10:10:36.285Z</time>
      </trkpt>
      <trkpt lat="45.45371" lon="7.03732">
        <ele>2070.6</ele>
        <time>2021-07-23T10:10:37.285Z</time>
      </trkpt>
      <trkpt lat="45.45371" lon="7.03737">
        <ele>2071</ele>
        <time>2021-07-23T10:10:38.285Z</time>
      </trkpt>
      <trkpt lat="45.45372" lon="7.03741">
        <ele>2071.4</ele>
        <time>2021-07-23T10:10:39.285Z</time>
      </trkpt>
      <trkpt lat="45.45373" lon="7.03746">
        <ele>2071.8</ele>
        <time>2021-07-23T10:10:40.285Z</time>
      </trkpt>
      <trkpt lat="45.45373" lon="7.0375">
        <ele>2071.8</ele>
        <time>2021-07-23T10:10:41.285Z</time>
      </trkpt>
      <trkpt lat="45.45374" lon="7.03754">
        <ele>2071.8</ele>
        <time>2021-07-23T10:10:42.285Z</time>
      </trkpt>
      <trkpt lat="45.45374" lon="7.03759">
        <ele>2071.8</ele>
        <time>2021-07-23T10:10:43.285Z</time>
      </trkpt>
      <trkpt lat="45.45374" lon="7.03763">
        <ele>2072.2</ele>
        <time>2021-07-23T10:10:44.285Z</time>
      </trkpt>
      <trkpt lat="45.45375" lon="7.03767">
        <ele>2072.6</ele>
        <time>2021-07-23T10:10:45.285Z</time>
      </trkpt>
      <trkpt lat="45.45375" lon="7.03771">
        <ele>2073</ele>
        <time>2021-07-23T10:10:46.285Z</time>
      </trkpt>
      <trkpt lat="45.45376" lon="7.03775">
        <ele>2073.6</ele>
        <time>2021-07-23T10:10:47.285Z</time>
      </trkpt>
      <trkpt lat="45.45376" lon="7.03779">
        <ele>2074</ele>
        <time>2021-07-23T10:10:48.285Z</time>
      </trkpt>
      <trkpt lat="45.45376" lon="7.03783">
        <ele>2074</ele>
        <time>2021-07-23T10:10:49.285Z</time>
      </trkpt>
      <trkpt lat="45.45377" lon="7.03788">
        <ele>2074</ele>
        <time>2021-07-23T10:10:50.285Z</time>
      </trkpt>
      <trkpt lat="45.45377" lon="7.03792">
        <ele>2074</ele>
        <time>2021-07-23T10:10:51.285Z</time>
      </trkpt>
      <trkpt lat="45.45377" lon="7.03796">
        <ele>2074.4</ele>
        <time>2021-07-23T10:10:52.285Z</time>
      </trkpt>
      <trkpt lat="45.45377" lon="7.038">
        <ele>2074.8</ele>
        <time>2021-07-23T10:10:53.285Z</time>
      </trkpt>
      <trkpt lat="45.45377" lon="7.03804">
        <ele>2075.2</ele>
        <time>2021-07-23T10:10:54.285Z</time>
      </trkpt>
      <trkpt lat="45.45378" lon="7.03808">
        <ele>2075.6</ele>
        <time>2021-07-23T10:10:55.285Z</time>
      </trkpt>
      <trkpt lat="45.45378" lon="7.03811">
        <ele>2076</ele>
        <time>2021-07-23T10:10:56.285Z</time>
      </trkpt>
      <trkpt lat="45.45379" lon="7.03815">
        <ele>2076</ele>
        <time>2021-07-23T10:10:57.285Z</time>
      </trkpt>
      <trkpt lat="45.45379" lon="7.03819">
        <ele>2076</ele>
        <time>2021-07-23T10:10:58.285Z</time>
      </trkpt>
      <trkpt lat="45.4538" lon="7.03823">
        <ele>2076</ele>
        <time>2021-07-23T10:10:59.285Z</time>
      </trkpt>
      <trkpt lat="45.4538" lon="7.03827">
        <ele>2076.4</ele>
        <time>2021-07-23T10:11:00.285Z</time>
      </trkpt>
      <trkpt lat="45.4538" lon="7.0383">
        <ele>2076.8</ele>
        <time>2021-07-23T10:11:01.285Z</time>
      </trkpt>
      <trkpt lat="45.4538" lon="7.03834">
        <ele>2077.2</ele>
        <time>2021-07-23T10:11:02.285Z</time>
      </trkpt>
      <trkpt lat="45.4538" lon="7.03838">
        <ele>2077.8</ele>
        <time>2021-07-23T10:11:03.285Z</time>
      </trkpt>
      <trkpt lat="45.4538" lon="7.03841">
        <ele>2078.2</ele>
        <time>2021-07-23T10:11:04.285Z</time>
      </trkpt>
      <trkpt lat="45.4538" lon="7.03845">
        <ele>2078.2</ele>
        <time>2021-07-23T10:11:05.285Z</time>
      </trkpt>
      <trkpt lat="45.4538" lon="7.03848">
        <ele>2078.2</ele>
        <time>2021-07-23T10:11:06.285Z</time>
      </trkpt>
      <trkpt lat="45.4538" lon="7.03851">
        <ele>2078.6</ele>
        <time>2021-07-23T10:11:07.285Z</time>
      </trkpt>
      <trkpt lat="45.45379" lon="7.03855">
        <ele>2079</ele>
        <time>2021-07-23T10:11:08.285Z</time>
      </trkpt>
      <trkpt lat="45.45379" lon="7.03858">
        <ele>2079.4</ele>
        <time>2021-07-23T10:11:09.285Z</time>
      </trkpt>
      <trkpt lat="45.45379" lon="7.03862">
        <ele>2079.8</ele>
        <time>2021-07-23T10:11:10.285Z</time>
      </trkpt>
      <trkpt lat="45.45379" lon="7.03866">
        <ele>2080.2</ele>
        <time>2021-07-23T10:11:11.285Z</time>
      </trkpt>
      <trkpt lat="45.45379" lon="7.0387">
        <ele>2080.2</ele>
        <time>2021-07-23T10:11:12.285Z</time>
      </trkpt>
      <trkpt lat="45.45378" lon="7.03873">
        <ele>2080.2</ele>
        <time>2021-07-23T10:11:13.285Z</time>
      </trkpt>
      <trkpt lat="45.45378" lon="7.03877">
        <ele>2080.2</ele>
        <time>2021-07-23T10:11:14.285Z</time>
      </trkpt>
      <trkpt lat="45.45378" lon="7.0388">
        <ele>2080.2</ele>
        <time>2021-07-23T10:11:15.285Z</time>
      </trkpt>
      <trkpt lat="45.45377" lon="7.03884">
        <ele>2080.2</ele>
        <time>2021-07-23T10:11:16.285Z</time>
      </trkpt>
      <trkpt lat="45.45377" lon="7.03887">
        <ele>2080.6</ele>
        <time>2021-07-23T10:11:17.285Z</time>
      </trkpt>
      <trkpt lat="45.45376" lon="7.0389">
        <ele>2081</ele>
        <time>2021-07-23T10:11:18.285Z</time>
      </trkpt>
      <trkpt lat="45.45376" lon="7.03894">
        <ele>2081.4</ele>
        <time>2021-07-23T10:11:19.285Z</time>
      </trkpt>
      <trkpt lat="45.45375" lon="7.03897">
        <ele>2081.8</ele>
        <time>2021-07-23T10:11:20.285Z</time>
      </trkpt>
      <trkpt lat="45.45375" lon="7.039">
        <ele>2082.4</ele>
        <time>2021-07-23T10:11:21.285Z</time>
      </trkpt>
      <trkpt lat="45.45375" lon="7.03904">
        <ele>2082.4</ele>
        <time>2021-07-23T10:11:22.285Z</time>
      </trkpt>
      <trkpt lat="45.45375" lon="7.03907">
        <ele>2082.4</ele>
        <time>2021-07-23T10:11:23.285Z</time>
      </trkpt>
      <trkpt lat="45.45375" lon="7.03911">
        <ele>2082.4</ele>
        <time>2021-07-23T10:11:24.285Z</time>
      </trkpt>
      <trkpt lat="45.45375" lon="7.03915">
        <ele>2082.4</ele>
        <time>2021-07-23T10:11:25.285Z</time>
      </trkpt>
      <trkpt lat="45.45375" lon="7.03919">
        <ele>2082.8</ele>
        <time>2021-07-23T10:11:26.285Z</time>
      </trkpt>
      <trkpt lat="45.45375" lon="7.03922">
        <ele>2083.2</ele>
        <time>2021-07-23T10:11:27.285Z</time>
      </trkpt>
      <trkpt lat="45.45375" lon="7.03926">
        <ele>2083.6</ele>
        <time>2021-07-23T10:11:28.285Z</time>
      </trkpt>
      <trkpt lat="45.45376" lon="7.03929">
        <ele>2084</ele>
        <time>2021-07-23T10:11:29.285Z</time>
      </trkpt>
      <trkpt lat="45.45377" lon="7.03933">
        <ele>2084.4</ele>
        <time>2021-07-23T10:11:30.285Z</time>
      </trkpt>
      <trkpt lat="45.45378" lon="7.03936">
        <ele>2084.4</ele>
        <time>2021-07-23T10:11:31.285Z</time>
      </trkpt>
      <trkpt lat="45.4538" lon="7.03939">
        <ele>2084.4</ele>
        <time>2021-07-23T10:11:32.285Z</time>
      </trkpt>
      <trkpt lat="45.45381" lon="7.03943">
        <ele>2084.4</ele>
        <time>2021-07-23T10:11:33.285Z</time>
      </trkpt>
      <trkpt lat="45.45383" lon="7.03947">
        <ele>2084.4</ele>
        <time>2021-07-23T10:11:34.285Z</time>
      </trkpt>
      <trkpt lat="45.45385" lon="7.03951">
        <ele>2084.4</ele>
        <time>2021-07-23T10:11:35.285Z</time>
      </trkpt>
      <trkpt lat="45.45388" lon="7.03955">
        <ele>2084.4</ele>
        <time>2021-07-23T10:11:36.285Z</time>
      </trkpt>
      <trkpt lat="45.4539" lon="7.03959">
        <ele>2084.4</ele>
        <time>2021-07-23T10:11:37.285Z</time>
      </trkpt>
      <trkpt lat="45.45391" lon="7.03963">
        <ele>2084.8</ele>
        <time>2021-07-23T10:11:38.285Z</time>
      </trkpt>
      <trkpt lat="45.45392" lon="7.03968">
        <ele>2085.2</ele>
        <time>2021-07-23T10:11:39.285Z</time>
      </trkpt>
      <trkpt lat="45.45392" lon="7.03973">
        <ele>2085.6</ele>
        <time>2021-07-23T10:11:40.285Z</time>
      </trkpt>
      <trkpt lat="45.45391" lon="7.03977">
        <ele>2086</ele>
        <time>2021-07-23T10:11:41.285Z</time>
      </trkpt>
      <trkpt lat="45.45387" lon="7.03979">
        <ele>2086.4</ele>
        <time>2021-07-23T10:11:42.285Z</time>
      </trkpt>
      <trkpt lat="45.45384" lon="7.0398">
        <ele>2086.4</ele>
        <time>2021-07-23T10:11:43.285Z</time>
      </trkpt>
      <trkpt lat="45.45381" lon="7.03978">
        <ele>2086.4</ele>
        <time>2021-07-23T10:11:44.285Z</time>
      </trkpt>
      <trkpt lat="45.45378" lon="7.03976">
        <ele>2086.4</ele>
        <time>2021-07-23T10:11:45.285Z</time>
      </trkpt>
      <trkpt lat="45.45376" lon="7.03973">
        <ele>2086.4</ele>
        <time>2021-07-23T10:11:46.285Z</time>
      </trkpt>
      <trkpt lat="45.45374" lon="7.0397">
        <ele>2086.4</ele>
        <time>2021-07-23T10:11:47.285Z</time>
      </trkpt>
      <trkpt lat="45.45373" lon="7.03967">
        <ele>2086.4</ele>
        <time>2021-07-23T10:11:48.285Z</time>
      </trkpt>
      <trkpt lat="45.45372" lon="7.03963">
        <ele>2086.4</ele>
        <time>2021-07-23T10:11:49.285Z</time>
      </trkpt>
      <trkpt lat="45.45372" lon="7.03959">
        <ele>2086.8</ele>
        <time>2021-07-23T10:11:50.285Z</time>
      </trkpt>
      <trkpt lat="45.45371" lon="7.03954">
        <ele>2087.4</ele>
        <time>2021-07-23T10:11:51.285Z</time>
      </trkpt>
      <trkpt lat="45.45371" lon="7.0395">
        <ele>2087.8</ele>
        <time>2021-07-23T10:11:52.285Z</time>
      </trkpt>
      <trkpt lat="45.4537" lon="7.03946">
        <ele>2088.2</ele>
        <time>2021-07-23T10:11:53.285Z</time>
      </trkpt>
      <trkpt lat="45.45369" lon="7.03942">
        <ele>2088.6</ele>
        <time>2021-07-23T10:11:54.285Z</time>
      </trkpt>
      <trkpt lat="45.45369" lon="7.03937">
        <ele>2088.6</ele>
        <time>2021-07-23T10:11:55.285Z</time>
      </trkpt>
      <trkpt lat="45.45368" lon="7.03933">
        <ele>2088.6</ele>
        <time>2021-07-23T10:11:56.285Z</time>
      </trkpt>
      <trkpt lat="45.45367" lon="7.03929">
        <ele>2088.6</ele>
        <time>2021-07-23T10:11:57.285Z</time>
      </trkpt>
      <trkpt lat="45.45367" lon="7.03925">
        <ele>2088.6</ele>
        <time>2021-07-23T10:11:58.285Z</time>
      </trkpt>
      <trkpt lat="45.45366" lon="7.03921">
        <ele>2088.6</ele>
        <time>2021-07-23T10:11:59.285Z</time>
      </trkpt>
      <trkpt lat="45.45365" lon="7.03917">
        <ele>2088.6</ele>
        <time>2021-07-23T10:12:00.285Z</time>
      </trkpt>
      <trkpt lat="45.45364" lon="7.03912">
        <ele>2088.6</ele>
        <time>2021-07-23T10:12:01.285Z</time>
      </trkpt>
      <trkpt lat="45.45364" lon="7.03908">
        <ele>2088.6</ele>
        <time>2021-07-23T10:12:02.285Z</time>
      </trkpt>
      <trkpt lat="45.45363" lon="7.03904">
        <ele>2089</ele>
        <time>2021-07-23T10:12:03.285Z</time>
      </trkpt>
      <trkpt lat="45.45363" lon="7.039">
        <ele>2089.4</ele>
        <time>2021-07-23T10:12:04.285Z</time>
      </trkpt>
      <trkpt lat="45.45362" lon="7.03896">
        <ele>2089.8</ele>
        <time>2021-07-23T10:12:05.285Z</time>
      </trkpt>
      <trkpt lat="45.45362" lon="7.03891">
        <ele>2090.4</ele>
        <time>2021-07-23T10:12:06.285Z</time>
      </trkpt>
      <trkpt lat="45.45361" lon="7.03888">
        <ele>2090.8</ele>
        <time>2021-07-23T10:12:07.285Z</time>
      </trkpt>
      <trkpt lat="45.45361" lon="7.03884">
        <ele>2090.8</ele>
        <time>2021-07-23T10:12:08.285Z</time>
      </trkpt>
      <trkpt lat="45.4536" lon="7.03879">
        <ele>2090.8</ele>
        <time>2021-07-23T10:12:09.285Z</time>
      </trkpt>
      <trkpt lat="45.45359" lon="7.03875">
        <ele>2090.8</ele>
        <time>2021-07-23T10:12:10.285Z</time>
      </trkpt>
      <trkpt lat="45.45358" lon="7.03871">
        <ele>2090.8</ele>
        <time>2021-07-23T10:12:11.285Z</time>
      </trkpt>
      <trkpt lat="45.45358" lon="7.03867">
        <ele>2090.8</ele>
        <time>2021-07-23T10:12:12.285Z</time>
      </trkpt>
      <trkpt lat="45.45357" lon="7.03862">
        <ele>2090.8</ele>
        <time>2021-07-23T10:12:13.285Z</time>
      </trkpt>
      <trkpt lat="45.45357" lon="7.03858">
        <ele>2091.2</ele>
        <time>2021-07-23T10:12:14.285Z</time>
      </trkpt>
      <trkpt lat="45.45357" lon="7.03855">
        <ele>2091.6</ele>
        <time>2021-07-23T10:12:15.285Z</time>
      </trkpt>
      <trkpt lat="45.45356" lon="7.03851">
        <ele>2092</ele>
        <time>2021-07-23T10:12:16.285Z</time>
      </trkpt>
      <trkpt lat="45.45355" lon="7.03848">
        <ele>2092.4</ele>
        <time>2021-07-23T10:12:17.285Z</time>
      </trkpt>
      <trkpt lat="45.45354" lon="7.03844">
        <ele>2093</ele>
        <time>2021-07-23T10:12:18.285Z</time>
      </trkpt>
      <trkpt lat="45.45353" lon="7.03841">
        <ele>2093</ele>
        <time>2021-07-23T10:12:19.285Z</time>
      </trkpt>
      <trkpt lat="45.45352" lon="7.03837">
        <ele>2093</ele>
        <time>2021-07-23T10:12:20.285Z</time>
      </trkpt>
      <trkpt lat="45.4535" lon="7.03834">
        <ele>2093</ele>
        <time>2021-07-23T10:12:21.285Z</time>
      </trkpt>
      <trkpt lat="45.45349" lon="7.03831">
        <ele>2093</ele>
        <time>2021-07-23T10:12:22.285Z</time>
      </trkpt>
      <trkpt lat="45.45348" lon="7.03827">
        <ele>2093</ele>
        <time>2021-07-23T10:12:23.285Z</time>
      </trkpt>
      <trkpt lat="45.45347" lon="7.03823">
        <ele>2093</ele>
        <time>2021-07-23T10:12:24.285Z</time>
      </trkpt>
      <trkpt lat="45.45345" lon="7.0382">
        <ele>2093</ele>
        <time>2021-07-23T10:12:25.285Z</time>
      </trkpt>
      <trkpt lat="45.45344" lon="7.03816">
        <ele>2093</ele>
        <time>2021-07-23T10:12:26.285Z</time>
      </trkpt>
      <trkpt lat="45.45343" lon="7.03813">
        <ele>2093</ele>
        <time>2021-07-23T10:12:27.285Z</time>
      </trkpt>
      <trkpt lat="45.45342" lon="7.03809">
        <ele>2093.4</ele>
        <time>2021-07-23T10:12:28.285Z</time>
      </trkpt>
      <trkpt lat="45.45341" lon="7.03806">
        <ele>2093.8</ele>
        <time>2021-07-23T10:12:29.285Z</time>
      </trkpt>
      <trkpt lat="45.45339" lon="7.03803">
        <ele>2094.2</ele>
        <time>2021-07-23T10:12:30.285Z</time>
      </trkpt>
      <trkpt lat="45.45338" lon="7.03799">
        <ele>2094.6</ele>
        <time>2021-07-23T10:12:31.285Z</time>
      </trkpt>
      <trkpt lat="45.45337" lon="7.03796">
        <ele>2095</ele>
        <time>2021-07-23T10:12:32.285Z</time>
      </trkpt>
      <trkpt lat="45.45335" lon="7.03793">
        <ele>2095</ele>
        <time>2021-07-23T10:12:33.285Z</time>
      </trkpt>
      <trkpt lat="45.45334" lon="7.03789">
        <ele>2095</ele>
        <time>2021-07-23T10:12:34.285Z</time>
      </trkpt>
      <trkpt lat="45.45333" lon="7.03786">
        <ele>2095</ele>
        <time>2021-07-23T10:12:35.285Z</time>
      </trkpt>
      <trkpt lat="45.45332" lon="7.03783">
        <ele>2095</ele>
        <time>2021-07-23T10:12:36.285Z</time>
      </trkpt>
      <trkpt lat="45.45331" lon="7.03779">
        <ele>2095.4</ele>
        <time>2021-07-23T10:12:37.285Z</time>
      </trkpt>
      <trkpt lat="45.45329" lon="7.03776">
        <ele>2095.8</ele>
        <time>2021-07-23T10:12:38.285Z</time>
      </trkpt>
      <trkpt lat="45.45328" lon="7.03773">
        <ele>2096.6</ele>
        <time>2021-07-23T10:12:39.285Z</time>
      </trkpt>
      <trkpt lat="45.45327" lon="7.03769">
        <ele>2097</ele>
        <time>2021-07-23T10:12:40.285Z</time>
      </trkpt>
      <trkpt lat="45.45326" lon="7.03766">
        <ele>2097</ele>
        <time>2021-07-23T10:12:41.285Z</time>
      </trkpt>
      <trkpt lat="45.45325" lon="7.03763">
        <ele>2097</ele>
        <time>2021-07-23T10:12:42.285Z</time>
      </trkpt>
      <trkpt lat="45.45324" lon="7.03759">
        <ele>2097</ele>
        <time>2021-07-23T10:12:43.285Z</time>
      </trkpt>
      <trkpt lat="45.45322" lon="7.03756">
        <ele>2097</ele>
        <time>2021-07-23T10:12:44.285Z</time>
      </trkpt>
      <trkpt lat="45.45321" lon="7.03753">
        <ele>2097</ele>
        <time>2021-07-23T10:12:45.285Z</time>
      </trkpt>
      <trkpt lat="45.4532" lon="7.03749">
        <ele>2097</ele>
        <time>2021-07-23T10:12:46.285Z</time>
      </trkpt>
      <trkpt lat="45.45319" lon="7.03745">
        <ele>2097.4</ele>
        <time>2021-07-23T10:12:47.285Z</time>
      </trkpt>
      <trkpt lat="45.45318" lon="7.03742">
        <ele>2098</ele>
        <time>2021-07-23T10:12:48.285Z</time>
      </trkpt>
      <trkpt lat="45.45316" lon="7.03739">
        <ele>2098.4</ele>
        <time>2021-07-23T10:12:49.285Z</time>
      </trkpt>
      <trkpt lat="45.45315" lon="7.03735">
        <ele>2098.8</ele>
        <time>2021-07-23T10:12:50.285Z</time>
      </trkpt>
      <trkpt lat="45.45314" lon="7.03732">
        <ele>2099.4</ele>
        <time>2021-07-23T10:12:51.285Z</time>
      </trkpt>
      <trkpt lat="45.45313" lon="7.03728">
        <ele>2099.4</ele>
        <time>2021-07-23T10:12:52.285Z</time>
      </trkpt>
      <trkpt lat="45.45311" lon="7.03725">
        <ele>2099.4</ele>
        <time>2021-07-23T10:12:53.285Z</time>
      </trkpt>
      <trkpt lat="45.4531" lon="7.03722">
        <ele>2099.4</ele>
        <time>2021-07-23T10:12:54.285Z</time>
      </trkpt>
      <trkpt lat="45.45309" lon="7.03719">
        <ele>2099.8</ele>
        <time>2021-07-23T10:12:55.285Z</time>
      </trkpt>
      <trkpt lat="45.45307" lon="7.03716">
        <ele>2100.2</ele>
        <time>2021-07-23T10:12:56.285Z</time>
      </trkpt>
      <trkpt lat="45.45306" lon="7.03713">
        <ele>2100.6</ele>
        <time>2021-07-23T10:12:57.285Z</time>
      </trkpt>
      <trkpt lat="45.45304" lon="7.0371">
        <ele>2101</ele>
        <time>2021-07-23T10:12:58.285Z</time>
      </trkpt>
      <trkpt lat="45.45303" lon="7.03706">
        <ele>2101.6</ele>
        <time>2021-07-23T10:12:59.285Z</time>
      </trkpt>
      <trkpt lat="45.45301" lon="7.03703">
        <ele>2101.6</ele>
        <time>2021-07-23T10:13:00.285Z</time>
      </trkpt>
      <trkpt lat="45.453" lon="7.037">
        <ele>2101.6</ele>
        <time>2021-07-23T10:13:01.285Z</time>
      </trkpt>
      <trkpt lat="45.45298" lon="7.03697">
        <ele>2101.6</ele>
        <time>2021-07-23T10:13:02.285Z</time>
      </trkpt>
      <trkpt lat="45.45297" lon="7.03693">
        <ele>2101.6</ele>
        <time>2021-07-23T10:13:03.285Z</time>
      </trkpt>
      <trkpt lat="45.45295" lon="7.0369">
        <ele>2101.6</ele>
        <time>2021-07-23T10:13:04.285Z</time>
      </trkpt>
      <trkpt lat="45.45294" lon="7.03687">
        <ele>2102</ele>
        <time>2021-07-23T10:13:05.285Z</time>
      </trkpt>
      <trkpt lat="45.45292" lon="7.03684">
        <ele>2102.4</ele>
        <time>2021-07-23T10:13:06.285Z</time>
      </trkpt>
      <trkpt lat="45.45291" lon="7.03681">
        <ele>2102.8</ele>
        <time>2021-07-23T10:13:07.285Z</time>
      </trkpt>
      <trkpt lat="45.45289" lon="7.03678">
        <ele>2103.2</ele>
        <time>2021-07-23T10:13:08.285Z</time>
      </trkpt>
      <trkpt lat="45.45288" lon="7.03674">
        <ele>2103.6</ele>
        <time>2021-07-23T10:13:09.285Z</time>
      </trkpt>
      <trkpt lat="45.45286" lon="7.03671">
        <ele>2103.6</ele>
        <time>2021-07-23T10:13:10.285Z</time>
      </trkpt>
      <trkpt lat="45.45284" lon="7.03668">
        <ele>2103.6</ele>
        <time>2021-07-23T10:13:11.285Z</time>
      </trkpt>
      <trkpt lat="45.45283" lon="7.03665">
        <ele>2103.6</ele>
        <time>2021-07-23T10:13:12.285Z</time>
      </trkpt>
      <trkpt lat="45.45281" lon="7.03661">
        <ele>2103.6</ele>
        <time>2021-07-23T10:13:13.285Z</time>
      </trkpt>
      <trkpt lat="45.4528" lon="7.03658">
        <ele>2103.6</ele>
        <time>2021-07-23T10:13:14.285Z</time>
      </trkpt>
      <trkpt lat="45.45279" lon="7.03655">
        <ele>2103.6</ele>
        <time>2021-07-23T10:13:15.285Z</time>
      </trkpt>
      <trkpt lat="45.45277" lon="7.03651">
        <ele>2104.2</ele>
        <time>2021-07-23T10:13:16.285Z</time>
      </trkpt>
      <trkpt lat="45.45275" lon="7.03648">
        <ele>2104.6</ele>
        <time>2021-07-23T10:13:17.285Z</time>
      </trkpt>
      <trkpt lat="45.45274" lon="7.03645">
        <ele>2105</ele>
        <time>2021-07-23T10:13:18.285Z</time>
      </trkpt>
      <trkpt lat="45.45273" lon="7.03642">
        <ele>2105.4</ele>
        <time>2021-07-23T10:13:19.285Z</time>
      </trkpt>
      <trkpt lat="45.45271" lon="7.03639">
        <ele>2105.8</ele>
        <time>2021-07-23T10:13:20.285Z</time>
      </trkpt>
      <trkpt lat="45.4527" lon="7.03635">
        <ele>2105.8</ele>
        <time>2021-07-23T10:13:21.285Z</time>
      </trkpt>
      <trkpt lat="45.45268" lon="7.03632">
        <ele>2105.8</ele>
        <time>2021-07-23T10:13:22.285Z</time>
      </trkpt>
      <trkpt lat="45.45266" lon="7.03629">
        <ele>2105.8</ele>
        <time>2021-07-23T10:13:23.285Z</time>
      </trkpt>
      <trkpt lat="45.45265" lon="7.03626">
        <ele>2105.8</ele>
        <time>2021-07-23T10:13:24.285Z</time>
      </trkpt>
      <trkpt lat="45.45264" lon="7.03623">
        <ele>2105.8</ele>
        <time>2021-07-23T10:13:25.285Z</time>
      </trkpt>
      <trkpt lat="45.45262" lon="7.03619">
        <ele>2106.2</ele>
        <time>2021-07-23T10:13:26.285Z</time>
      </trkpt>
      <trkpt lat="45.45261" lon="7.03616">
        <ele>2106.6</ele>
        <time>2021-07-23T10:13:27.285Z</time>
      </trkpt>
      <trkpt lat="45.45259" lon="7.03613">
        <ele>2107.4</ele>
        <time>2021-07-23T10:13:28.285Z</time>
      </trkpt>
      <trkpt lat="45.45258" lon="7.0361">
        <ele>2108</ele>
        <time>2021-07-23T10:13:29.285Z</time>
      </trkpt>
      <trkpt lat="45.45256" lon="7.03607">
        <ele>2108</ele>
        <time>2021-07-23T10:13:30.285Z</time>
      </trkpt>
      <trkpt lat="45.45255" lon="7.03604">
        <ele>2108</ele>
        <time>2021-07-23T10:13:31.285Z</time>
      </trkpt>
      <trkpt lat="45.45253" lon="7.03601">
        <ele>2108</ele>
        <time>2021-07-23T10:13:32.285Z</time>
      </trkpt>
      <trkpt lat="45.45252" lon="7.03598">
        <ele>2108</ele>
        <time>2021-07-23T10:13:33.285Z</time>
      </trkpt>
      <trkpt lat="45.4525" lon="7.03594">
        <ele>2108</ele>
        <time>2021-07-23T10:13:34.285Z</time>
      </trkpt>
      <trkpt lat="45.45249" lon="7.03591">
        <ele>2108</ele>
        <time>2021-07-23T10:13:35.285Z</time>
      </trkpt>
      <trkpt lat="45.45248" lon="7.03588">
        <ele>2108</ele>
        <time>2021-07-23T10:13:36.285Z</time>
      </trkpt>
      <trkpt lat="45.45247" lon="7.03585">
        <ele>2108.4</ele>
        <time>2021-07-23T10:13:37.285Z</time>
      </trkpt>
      <trkpt lat="45.45245" lon="7.03581">
        <ele>2108.8</ele>
        <time>2021-07-23T10:13:38.285Z</time>
      </trkpt>
      <trkpt lat="45.45244" lon="7.03578">
        <ele>2109.2</ele>
        <time>2021-07-23T10:13:39.285Z</time>
      </trkpt>
      <trkpt lat="45.45243" lon="7.03575">
        <ele>2109.6</ele>
        <time>2021-07-23T10:13:40.285Z</time>
      </trkpt>
      <trkpt lat="45.45242" lon="7.03572">
        <ele>2110</ele>
        <time>2021-07-23T10:13:41.285Z</time>
      </trkpt>
      <trkpt lat="45.45241" lon="7.03569">
        <ele>2110</ele>
        <time>2021-07-23T10:13:42.285Z</time>
      </trkpt>
      <trkpt lat="45.45239" lon="7.03565">
        <ele>2110</ele>
        <time>2021-07-23T10:13:43.285Z</time>
      </trkpt>
      <trkpt lat="45.45237" lon="7.03562">
        <ele>2110</ele>
        <time>2021-07-23T10:13:44.285Z</time>
      </trkpt>
      <trkpt lat="45.45236" lon="7.03559">
        <ele>2110</ele>
        <time>2021-07-23T10:13:45.285Z</time>
      </trkpt>
      <trkpt lat="45.45235" lon="7.03555">
        <ele>2110</ele>
        <time>2021-07-23T10:13:46.285Z</time>
      </trkpt>
      <trkpt lat="45.45234" lon="7.03552">
        <ele>2110</ele>
        <time>2021-07-23T10:13:47.285Z</time>
      </trkpt>
      <trkpt lat="45.45233" lon="7.03548">
        <ele>2110</ele>
        <time>2021-07-23T10:13:48.285Z</time>
      </trkpt>
      <trkpt lat="45.45232" lon="7.03544">
        <ele>2110.4</ele>
        <time>2021-07-23T10:13:49.285Z</time>
      </trkpt>
      <trkpt lat="45.45231" lon="7.03541">
        <ele>2110.8</ele>
        <time>2021-07-23T10:13:50.285Z</time>
      </trkpt>
      <trkpt lat="45.4523" lon="7.03538">
        <ele>2111.4</ele>
        <time>2021-07-23T10:13:51.285Z</time>
      </trkpt>
      <trkpt lat="45.45229" lon="7.03535">
        <ele>2112.2</ele>
        <time>2021-07-23T10:13:52.285Z</time>
      </trkpt>
      <trkpt lat="45.45228" lon="7.03532">
        <ele>2112.2</ele>
        <time>2021-07-23T10:13:53.285Z</time>
      </trkpt>
      <trkpt lat="45.45226" lon="7.03529">
        <ele>2112.2</ele>
        <time>2021-07-23T10:13:54.285Z</time>
      </trkpt>
      <trkpt lat="45.45225" lon="7.03525">
        <ele>2112.2</ele>
        <time>2021-07-23T10:13:55.285Z</time>
      </trkpt>
      <trkpt lat="45.45224" lon="7.03522">
        <ele>2112.6</ele>
        <time>2021-07-23T10:13:56.285Z</time>
      </trkpt>
      <trkpt lat="45.45223" lon="7.03519">
        <ele>2113</ele>
        <time>2021-07-23T10:13:57.285Z</time>
      </trkpt>
      <trkpt lat="45.45222" lon="7.03516">
        <ele>2113.4</ele>
        <time>2021-07-23T10:13:58.285Z</time>
      </trkpt>
      <trkpt lat="45.45221" lon="7.03512">
        <ele>2113.8</ele>
        <time>2021-07-23T10:13:59.285Z</time>
      </trkpt>
      <trkpt lat="45.4522" lon="7.03509">
        <ele>2114.2</ele>
        <time>2021-07-23T10:14:00.285Z</time>
      </trkpt>
      <trkpt lat="45.45218" lon="7.03505">
        <ele>2114.2</ele>
        <time>2021-07-23T10:14:01.285Z</time>
      </trkpt>
      <trkpt lat="45.45217" lon="7.03502">
        <ele>2114.2</ele>
        <time>2021-07-23T10:14:02.285Z</time>
      </trkpt>
      <trkpt lat="45.45216" lon="7.03499">
        <ele>2114.2</ele>
        <time>2021-07-23T10:14:03.285Z</time>
      </trkpt>
      <trkpt lat="45.45215" lon="7.03496">
        <ele>2114.2</ele>
        <time>2021-07-23T10:14:04.285Z</time>
      </trkpt>
      <trkpt lat="45.45213" lon="7.03493">
        <ele>2114.2</ele>
        <time>2021-07-23T10:14:05.285Z</time>
      </trkpt>
      <trkpt lat="45.45212" lon="7.0349">
        <ele>2114.6</ele>
        <time>2021-07-23T10:14:06.285Z</time>
      </trkpt>
      <trkpt lat="45.4521" lon="7.03486">
        <ele>2115</ele>
        <time>2021-07-23T10:14:07.285Z</time>
      </trkpt>
      <trkpt lat="45.45209" lon="7.03483">
        <ele>2115.4</ele>
        <time>2021-07-23T10:14:08.285Z</time>
      </trkpt>
      <trkpt lat="45.45207" lon="7.0348">
        <ele>2116</ele>
        <time>2021-07-23T10:14:09.285Z</time>
      </trkpt>
      <trkpt lat="45.45206" lon="7.03476">
        <ele>2116.4</ele>
        <time>2021-07-23T10:14:10.285Z</time>
      </trkpt>
      <trkpt lat="45.45205" lon="7.03473">
        <ele>2116.4</ele>
        <time>2021-07-23T10:14:11.285Z</time>
      </trkpt>
      <trkpt lat="45.45203" lon="7.0347">
        <ele>2116.4</ele>
        <time>2021-07-23T10:14:12.285Z</time>
      </trkpt>
      <trkpt lat="45.45202" lon="7.03466">
        <ele>2116.4</ele>
        <time>2021-07-23T10:14:13.285Z</time>
      </trkpt>
      <trkpt lat="45.45201" lon="7.03463">
        <ele>2116.4</ele>
        <time>2021-07-23T10:14:14.285Z</time>
      </trkpt>
      <trkpt lat="45.452" lon="7.0346">
        <ele>2116.4</ele>
        <time>2021-07-23T10:14:15.285Z</time>
      </trkpt>
      <trkpt lat="45.45199" lon="7.03458">
        <ele>2116.4</ele>
        <time>2021-07-23T10:14:16.285Z</time>
      </trkpt>
      <trkpt lat="45.45197" lon="7.03455">
        <ele>2117.2</ele>
        <time>2021-07-23T10:14:17.285Z</time>
      </trkpt>
      <trkpt lat="45.45196" lon="7.03452">
        <ele>2117.6</ele>
        <time>2021-07-23T10:14:18.285Z</time>
      </trkpt>
      <trkpt lat="45.45195" lon="7.03449">
        <ele>2118</ele>
        <time>2021-07-23T10:14:19.285Z</time>
      </trkpt>
      <trkpt lat="45.45194" lon="7.03446">
        <ele>2118.4</ele>
        <time>2021-07-23T10:14:20.285Z</time>
      </trkpt>
      <trkpt lat="45.45192" lon="7.03443">
        <ele>2118.4</ele>
        <time>2021-07-23T10:14:21.285Z</time>
      </trkpt>
      <trkpt lat="45.4519" lon="7.0344">
        <ele>2118.4</ele>
        <time>2021-07-23T10:14:22.285Z</time>
      </trkpt>
      <trkpt lat="45.45188" lon="7.03438">
        <ele>2118.4</ele>
        <time>2021-07-23T10:14:23.285Z</time>
      </trkpt>
      <trkpt lat="45.45186" lon="7.03435">
        <ele>2118.4</ele>
        <time>2021-07-23T10:14:24.285Z</time>
      </trkpt>
      <trkpt lat="45.45184" lon="7.03433">
        <ele>2118.8</ele>
        <time>2021-07-23T10:14:25.285Z</time>
      </trkpt>
      <trkpt lat="45.45182" lon="7.03431">
        <ele>2119.2</ele>
        <time>2021-07-23T10:14:26.285Z</time>
      </trkpt>
      <trkpt lat="45.4518" lon="7.03428">
        <ele>2119.6</ele>
        <time>2021-07-23T10:14:27.285Z</time>
      </trkpt>
      <trkpt lat="45.45178" lon="7.03427">
        <ele>2120</ele>
        <time>2021-07-23T10:14:28.285Z</time>
      </trkpt>
      <trkpt lat="45.45176" lon="7.03424">
        <ele>2120.4</ele>
        <time>2021-07-23T10:14:29.285Z</time>
      </trkpt>
      <trkpt lat="45.45174" lon="7.03422">
        <ele>2120.4</ele>
        <time>2021-07-23T10:14:30.285Z</time>
      </trkpt>
      <trkpt lat="45.45172" lon="7.0342">
        <ele>2120.4</ele>
        <time>2021-07-23T10:14:31.285Z</time>
      </trkpt>
      <trkpt lat="45.4517" lon="7.03417">
        <ele>2120.4</ele>
        <time>2021-07-23T10:14:32.285Z</time>
      </trkpt>
      <trkpt lat="45.45168" lon="7.03415">
        <ele>2120.4</ele>
        <time>2021-07-23T10:14:33.285Z</time>
      </trkpt>
      <trkpt lat="45.45166" lon="7.03412">
        <ele>2120.4</ele>
        <time>2021-07-23T10:14:34.285Z</time>
      </trkpt>
      <trkpt lat="45.45164" lon="7.0341">
        <ele>2120.8</ele>
        <time>2021-07-23T10:14:35.285Z</time>
      </trkpt>
      <trkpt lat="45.45162" lon="7.03407">
        <ele>2121.2</ele>
        <time>2021-07-23T10:14:36.285Z</time>
      </trkpt>
      <trkpt lat="45.45161" lon="7.03404">
        <ele>2121.6</ele>
        <time>2021-07-23T10:14:37.285Z</time>
      </trkpt>
      <trkpt lat="45.45159" lon="7.03401">
        <ele>2122</ele>
        <time>2021-07-23T10:14:38.285Z</time>
      </trkpt>
      <trkpt lat="45.45158" lon="7.03399">
        <ele>2122.6</ele>
        <time>2021-07-23T10:14:39.285Z</time>
      </trkpt>
      <trkpt lat="45.45157" lon="7.03395">
        <ele>2122.6</ele>
        <time>2021-07-23T10:14:40.285Z</time>
      </trkpt>
      <trkpt lat="45.45155" lon="7.03392">
        <ele>2122.6</ele>
        <time>2021-07-23T10:14:41.285Z</time>
      </trkpt>
      <trkpt lat="45.45154" lon="7.03389">
        <ele>2122.6</ele>
        <time>2021-07-23T10:14:42.285Z</time>
      </trkpt>
      <trkpt lat="45.45153" lon="7.03385">
        <ele>2122.6</ele>
        <time>2021-07-23T10:14:43.285Z</time>
      </trkpt>
      <trkpt lat="45.45152" lon="7.03381">
        <ele>2122.6</ele>
        <time>2021-07-23T10:14:44.285Z</time>
      </trkpt>
      <trkpt lat="45.4515" lon="7.03378">
        <ele>2123</ele>
        <time>2021-07-23T10:14:45.285Z</time>
      </trkpt>
      <trkpt lat="45.45149" lon="7.03374">
        <ele>2123.4</ele>
        <time>2021-07-23T10:14:46.285Z</time>
      </trkpt>
      <trkpt lat="45.45148" lon="7.03371">
        <ele>2123.8</ele>
        <time>2021-07-23T10:14:47.285Z</time>
      </trkpt>
      <trkpt lat="45.45147" lon="7.03368">
        <ele>2124.2</ele>
        <time>2021-07-23T10:14:48.285Z</time>
      </trkpt>
      <trkpt lat="45.45146" lon="7.03364">
        <ele>2124.6</ele>
        <time>2021-07-23T10:14:49.285Z</time>
      </trkpt>
      <trkpt lat="45.45144" lon="7.03361">
        <ele>2124.6</ele>
        <time>2021-07-23T10:14:50.285Z</time>
      </trkpt>
      <trkpt lat="45.45143" lon="7.03357">
        <ele>2124.6</ele>
        <time>2021-07-23T10:14:51.285Z</time>
      </trkpt>
      <trkpt lat="45.45142" lon="7.03354">
        <ele>2124.6</ele>
        <time>2021-07-23T10:14:52.285Z</time>
      </trkpt>
      <trkpt lat="45.45141" lon="7.03351">
        <ele>2124.6</ele>
        <time>2021-07-23T10:14:53.285Z</time>
      </trkpt>
      <trkpt lat="45.4514" lon="7.03347">
        <ele>2124.6</ele>
        <time>2021-07-23T10:14:54.285Z</time>
      </trkpt>
      <trkpt lat="45.45139" lon="7.03344">
        <ele>2124.6</ele>
        <time>2021-07-23T10:14:55.285Z</time>
      </trkpt>
      <trkpt lat="45.45138" lon="7.0334">
        <ele>2124.6</ele>
        <time>2021-07-23T10:14:56.285Z</time>
      </trkpt>
      <trkpt lat="45.45137" lon="7.03337">
        <ele>2125</ele>
        <time>2021-07-23T10:14:57.285Z</time>
      </trkpt>
      <trkpt lat="45.45136" lon="7.03333">
        <ele>2125.4</ele>
        <time>2021-07-23T10:14:58.285Z</time>
      </trkpt>
      <trkpt lat="45.45135" lon="7.0333">
        <ele>2125.8</ele>
        <time>2021-07-23T10:14:59.285Z</time>
      </trkpt>
      <trkpt lat="45.45134" lon="7.03327">
        <ele>2126.2</ele>
        <time>2021-07-23T10:15:00.285Z</time>
      </trkpt>
      <trkpt lat="45.45133" lon="7.03323">
        <ele>2126.6</ele>
        <time>2021-07-23T10:15:01.285Z</time>
      </trkpt>
      <trkpt lat="45.45132" lon="7.0332">
        <ele>2126.6</ele>
        <time>2021-07-23T10:15:02.285Z</time>
      </trkpt>
      <trkpt lat="45.45131" lon="7.03317">
        <ele>2126.6</ele>
        <time>2021-07-23T10:15:03.285Z</time>
      </trkpt>
      <trkpt lat="45.4513" lon="7.03313">
        <ele>2126.6</ele>
        <time>2021-07-23T10:15:04.285Z</time>
      </trkpt>
      <trkpt lat="45.45129" lon="7.0331">
        <ele>2126.6</ele>
        <time>2021-07-23T10:15:05.285Z</time>
      </trkpt>
      <trkpt lat="45.45128" lon="7.03306">
        <ele>2126.6</ele>
        <time>2021-07-23T10:15:06.285Z</time>
      </trkpt>
      <trkpt lat="45.45126" lon="7.03303">
        <ele>2127</ele>
        <time>2021-07-23T10:15:07.285Z</time>
      </trkpt>
      <trkpt lat="45.45125" lon="7.03299">
        <ele>2127.4</ele>
        <time>2021-07-23T10:15:08.285Z</time>
      </trkpt>
      <trkpt lat="45.45124" lon="7.03296">
        <ele>2128</ele>
        <time>2021-07-23T10:15:09.285Z</time>
      </trkpt>
      <trkpt lat="45.45123" lon="7.03293">
        <ele>2128.4</ele>
        <time>2021-07-23T10:15:10.285Z</time>
      </trkpt>
      <trkpt lat="45.45122" lon="7.0329">
        <ele>2128.8</ele>
        <time>2021-07-23T10:15:11.285Z</time>
      </trkpt>
      <trkpt lat="45.45121" lon="7.03286">
        <ele>2128.8</ele>
        <time>2021-07-23T10:15:12.285Z</time>
      </trkpt>
      <trkpt lat="45.45119" lon="7.03283">
        <ele>2128.8</ele>
        <time>2021-07-23T10:15:13.285Z</time>
      </trkpt>
      <trkpt lat="45.45118" lon="7.03279">
        <ele>2128.8</ele>
        <time>2021-07-23T10:15:14.285Z</time>
      </trkpt>
      <trkpt lat="45.45117" lon="7.03276">
        <ele>2128.8</ele>
        <time>2021-07-23T10:15:15.285Z</time>
      </trkpt>
      <trkpt lat="45.45116" lon="7.03272">
        <ele>2128.8</ele>
        <time>2021-07-23T10:15:16.285Z</time>
      </trkpt>
      <trkpt lat="45.45115" lon="7.03269">
        <ele>2128.8</ele>
        <time>2021-07-23T10:15:17.285Z</time>
      </trkpt>
      <trkpt lat="45.45114" lon="7.03265">
        <ele>2128.8</ele>
        <time>2021-07-23T10:15:18.285Z</time>
      </trkpt>
      <trkpt lat="45.45112" lon="7.03262">
        <ele>2128.8</ele>
        <time>2021-07-23T10:15:19.285Z</time>
      </trkpt>
      <trkpt lat="45.45111" lon="7.03258">
        <ele>2129.2</ele>
        <time>2021-07-23T10:15:20.285Z</time>
      </trkpt>
      <trkpt lat="45.4511" lon="7.03255">
        <ele>2129.8</ele>
        <time>2021-07-23T10:15:21.285Z</time>
      </trkpt>
      <trkpt lat="45.45109" lon="7.03252">
        <ele>2130.2</ele>
        <time>2021-07-23T10:15:22.285Z</time>
      </trkpt>
      <trkpt lat="45.45108" lon="7.03248">
        <ele>2130.6</ele>
        <time>2021-07-23T10:15:23.285Z</time>
      </trkpt>
      <trkpt lat="45.45107" lon="7.03245">
        <ele>2131</ele>
        <time>2021-07-23T10:15:24.285Z</time>
      </trkpt>
      <trkpt lat="45.45106" lon="7.03242">
        <ele>2131</ele>
        <time>2021-07-23T10:15:25.285Z</time>
      </trkpt>
      <trkpt lat="45.45105" lon="7.03238">
        <ele>2131</ele>
        <time>2021-07-23T10:15:26.285Z</time>
      </trkpt>
      <trkpt lat="45.45103" lon="7.03235">
        <ele>2131</ele>
        <time>2021-07-23T10:15:27.285Z</time>
      </trkpt>
      <trkpt lat="45.45102" lon="7.03231">
        <ele>2131</ele>
        <time>2021-07-23T10:15:28.285Z</time>
      </trkpt>
      <trkpt lat="45.45101" lon="7.03228">
        <ele>2131.4</ele>
        <time>2021-07-23T10:15:29.285Z</time>
      </trkpt>
      <trkpt lat="45.45099" lon="7.03225">
        <ele>2132</ele>
        <time>2021-07-23T10:15:30.285Z</time>
      </trkpt>
      <trkpt lat="45.45098" lon="7.03221">
        <ele>2132.8</ele>
        <time>2021-07-23T10:15:31.285Z</time>
      </trkpt>
      <trkpt lat="45.45097" lon="7.03218">
        <ele>2133.2</ele>
        <time>2021-07-23T10:15:32.285Z</time>
      </trkpt>
      <trkpt lat="45.45096" lon="7.03215">
        <ele>2133.2</ele>
        <time>2021-07-23T10:15:33.285Z</time>
      </trkpt>
      <trkpt lat="45.45095" lon="7.03212">
        <ele>2133.2</ele>
        <time>2021-07-23T10:15:34.285Z</time>
      </trkpt>
      <trkpt lat="45.45094" lon="7.03209">
        <ele>2133.2</ele>
        <time>2021-07-23T10:15:35.285Z</time>
      </trkpt>
      <trkpt lat="45.45092" lon="7.03205">
        <ele>2133.2</ele>
        <time>2021-07-23T10:15:36.285Z</time>
      </trkpt>
      <trkpt lat="45.45091" lon="7.03202">
        <ele>2133.2</ele>
        <time>2021-07-23T10:15:37.285Z</time>
      </trkpt>
      <trkpt lat="45.45089" lon="7.03199">
        <ele>2133.6</ele>
        <time>2021-07-23T10:15:38.285Z</time>
      </trkpt>
      <trkpt lat="45.45087" lon="7.03195">
        <ele>2134</ele>
        <time>2021-07-23T10:15:39.285Z</time>
      </trkpt>
      <trkpt lat="45.45086" lon="7.03192">
        <ele>2134.4</ele>
        <time>2021-07-23T10:15:40.285Z</time>
      </trkpt>
      <trkpt lat="45.45084" lon="7.03189">
        <ele>2134.8</ele>
        <time>2021-07-23T10:15:41.285Z</time>
      </trkpt>
      <trkpt lat="45.45082" lon="7.03185">
        <ele>2135.2</ele>
        <time>2021-07-23T10:15:42.285Z</time>
      </trkpt>
      <trkpt lat="45.45081" lon="7.03182">
        <ele>2135.2</ele>
        <time>2021-07-23T10:15:43.285Z</time>
      </trkpt>
      <trkpt lat="45.45079" lon="7.03179">
        <ele>2135.2</ele>
        <time>2021-07-23T10:15:44.285Z</time>
      </trkpt>
      <trkpt lat="45.45078" lon="7.03176">
        <ele>2135.2</ele>
        <time>2021-07-23T10:15:45.285Z</time>
      </trkpt>
      <trkpt lat="45.45076" lon="7.03173">
        <ele>2135.2</ele>
        <time>2021-07-23T10:15:46.285Z</time>
      </trkpt>
      <trkpt lat="45.45075" lon="7.0317">
        <ele>2135.2</ele>
        <time>2021-07-23T10:15:47.285Z</time>
      </trkpt>
      <trkpt lat="45.45073" lon="7.03167">
        <ele>2135.2</ele>
        <time>2021-07-23T10:15:48.285Z</time>
      </trkpt>
      <trkpt lat="45.45071" lon="7.03164">
        <ele>2135.8</ele>
        <time>2021-07-23T10:15:49.285Z</time>
      </trkpt>
      <trkpt lat="45.45069" lon="7.03161">
        <ele>2136.2</ele>
        <time>2021-07-23T10:15:50.285Z</time>
      </trkpt>
      <trkpt lat="45.45067" lon="7.03158">
        <ele>2136.6</ele>
        <time>2021-07-23T10:15:51.285Z</time>
      </trkpt>
      <trkpt lat="45.45066" lon="7.03154">
        <ele>2137.2</ele>
        <time>2021-07-23T10:15:52.285Z</time>
      </trkpt>
      <trkpt lat="45.45065" lon="7.03151">
        <ele>2137.6</ele>
        <time>2021-07-23T10:15:53.285Z</time>
      </trkpt>
      <trkpt lat="45.45064" lon="7.03148">
        <ele>2137.6</ele>
        <time>2021-07-23T10:15:54.285Z</time>
      </trkpt>
      <trkpt lat="45.45063" lon="7.03144">
        <ele>2137.6</ele>
        <time>2021-07-23T10:15:55.285Z</time>
      </trkpt>
      <trkpt lat="45.45062" lon="7.03141">
        <ele>2137.6</ele>
        <time>2021-07-23T10:15:56.285Z</time>
      </trkpt>
      <trkpt lat="45.45061" lon="7.03137">
        <ele>2137.6</ele>
        <time>2021-07-23T10:15:57.285Z</time>
      </trkpt>
      <trkpt lat="45.4506" lon="7.03133">
        <ele>2137.6</ele>
        <time>2021-07-23T10:15:58.285Z</time>
      </trkpt>
      <trkpt lat="45.45059" lon="7.0313">
        <ele>2138</ele>
        <time>2021-07-23T10:15:59.285Z</time>
      </trkpt>
      <trkpt lat="45.45057" lon="7.03126">
        <ele>2138.4</ele>
        <time>2021-07-23T10:16:00.285Z</time>
      </trkpt>
      <trkpt lat="45.45057" lon="7.03122">
        <ele>2138.8</ele>
        <time>2021-07-23T10:16:01.285Z</time>
      </trkpt>
      <trkpt lat="45.45056" lon="7.03119">
        <ele>2139.2</ele>
        <time>2021-07-23T10:16:02.285Z</time>
      </trkpt>
      <trkpt lat="45.45055" lon="7.03115">
        <ele>2139.6</ele>
        <time>2021-07-23T10:16:03.285Z</time>
      </trkpt>
      <trkpt lat="45.45054" lon="7.03111">
        <ele>2139.6</ele>
        <time>2021-07-23T10:16:04.285Z</time>
      </trkpt>
      <trkpt lat="45.45052" lon="7.03107">
        <ele>2139.6</ele>
        <time>2021-07-23T10:16:05.285Z</time>
      </trkpt>
      <trkpt lat="45.45051" lon="7.03104">
        <ele>2139.6</ele>
        <time>2021-07-23T10:16:06.285Z</time>
      </trkpt>
      <trkpt lat="45.4505" lon="7.031">
        <ele>2140</ele>
        <time>2021-07-23T10:16:07.285Z</time>
      </trkpt>
      <trkpt lat="45.4505" lon="7.03097">
        <ele>2140.4</ele>
        <time>2021-07-23T10:16:08.285Z</time>
      </trkpt>
      <trkpt lat="45.45049" lon="7.03093">
        <ele>2140.8</ele>
        <time>2021-07-23T10:16:09.285Z</time>
      </trkpt>
      <trkpt lat="45.45048" lon="7.0309">
        <ele>2141.2</ele>
        <time>2021-07-23T10:16:10.285Z</time>
      </trkpt>
      <trkpt lat="45.45046" lon="7.03086">
        <ele>2141.6</ele>
        <time>2021-07-23T10:16:11.285Z</time>
      </trkpt>
      <trkpt lat="45.45045" lon="7.03083">
        <ele>2141.6</ele>
        <time>2021-07-23T10:16:12.285Z</time>
      </trkpt>
      <trkpt lat="45.45044" lon="7.03079">
        <ele>2141.6</ele>
        <time>2021-07-23T10:16:13.285Z</time>
      </trkpt>
      <trkpt lat="45.45043" lon="7.03075">
        <ele>2141.6</ele>
        <time>2021-07-23T10:16:14.285Z</time>
      </trkpt>
      <trkpt lat="45.45042" lon="7.03071">
        <ele>2141.6</ele>
        <time>2021-07-23T10:16:15.285Z</time>
      </trkpt>
      <trkpt lat="45.4504" lon="7.03067">
        <ele>2141.6</ele>
        <time>2021-07-23T10:16:16.285Z</time>
      </trkpt>
      <trkpt lat="45.45039" lon="7.03063">
        <ele>2141.6</ele>
        <time>2021-07-23T10:16:17.285Z</time>
      </trkpt>
      <trkpt lat="45.45038" lon="7.0306">
        <ele>2141.6</ele>
        <time>2021-07-23T10:16:18.285Z</time>
      </trkpt>
      <trkpt lat="45.45036" lon="7.03057">
        <ele>2141.6</ele>
        <time>2021-07-23T10:16:19.285Z</time>
      </trkpt>
      <trkpt lat="45.45033" lon="7.03054">
        <ele>2142.2</ele>
        <time>2021-07-23T10:16:20.285Z</time>
      </trkpt>
      <trkpt lat="45.45031" lon="7.03051">
        <ele>2142.6</ele>
        <time>2021-07-23T10:16:21.285Z</time>
      </trkpt>
      <trkpt lat="45.45029" lon="7.03049">
        <ele>2143</ele>
        <time>2021-07-23T10:16:22.285Z</time>
      </trkpt>
      <trkpt lat="45.45026" lon="7.03046">
        <ele>2143.4</ele>
        <time>2021-07-23T10:16:23.285Z</time>
      </trkpt>
      <trkpt lat="45.45024" lon="7.03043">
        <ele>2143.8</ele>
        <time>2021-07-23T10:16:24.285Z</time>
      </trkpt>
      <trkpt lat="45.45021" lon="7.0304">
        <ele>2143.8</ele>
        <time>2021-07-23T10:16:25.285Z</time>
      </trkpt>
      <trkpt lat="45.45019" lon="7.03037">
        <ele>2143.8</ele>
        <time>2021-07-23T10:16:26.285Z</time>
      </trkpt>
      <trkpt lat="45.45016" lon="7.03034">
        <ele>2143.8</ele>
        <time>2021-07-23T10:16:27.285Z</time>
      </trkpt>
      <trkpt lat="45.45014" lon="7.03031">
        <ele>2143.8</ele>
        <time>2021-07-23T10:16:28.285Z</time>
      </trkpt>
      <trkpt lat="45.45012" lon="7.03028">
        <ele>2143.8</ele>
        <time>2021-07-23T10:16:29.285Z</time>
      </trkpt>
      <trkpt lat="45.45009" lon="7.03025">
        <ele>2143.8</ele>
        <time>2021-07-23T10:16:30.285Z</time>
      </trkpt>
      <trkpt lat="45.45006" lon="7.03022">
        <ele>2143.8</ele>
        <time>2021-07-23T10:16:31.285Z</time>
      </trkpt>
      <trkpt lat="45.45004" lon="7.03018">
        <ele>2143.8</ele>
        <time>2021-07-23T10:16:32.285Z</time>
      </trkpt>
      <trkpt lat="45.45002" lon="7.03015">
        <ele>2143.8</ele>
        <time>2021-07-23T10:16:33.285Z</time>
      </trkpt>
      <trkpt lat="45.45" lon="7.03011">
        <ele>2143.8</ele>
        <time>2021-07-23T10:16:34.285Z</time>
      </trkpt>
      <trkpt lat="45.44998" lon="7.03008">
        <ele>2144.2</ele>
        <time>2021-07-23T10:16:35.285Z</time>
      </trkpt>
      <trkpt lat="45.44995" lon="7.03004">
        <ele>2144.6</ele>
        <time>2021-07-23T10:16:36.285Z</time>
      </trkpt>
      <trkpt lat="45.44993" lon="7.03001">
        <ele>2145</ele>
        <time>2021-07-23T10:16:37.285Z</time>
      </trkpt>
      <trkpt lat="45.44991" lon="7.02997">
        <ele>2145.4</ele>
        <time>2021-07-23T10:16:38.285Z</time>
      </trkpt>
      <trkpt lat="45.44988" lon="7.02994">
        <ele>2145.8</ele>
        <time>2021-07-23T10:16:39.285Z</time>
      </trkpt>
      <trkpt lat="45.44986" lon="7.0299">
        <ele>2145.8</ele>
        <time>2021-07-23T10:16:40.285Z</time>
      </trkpt>
      <trkpt lat="45.44984" lon="7.02987">
        <ele>2145.8</ele>
        <time>2021-07-23T10:16:41.285Z</time>
      </trkpt>
      <trkpt lat="45.44982" lon="7.02983">
        <ele>2145.8</ele>
        <time>2021-07-23T10:16:42.285Z</time>
      </trkpt>
      <trkpt lat="45.4498" lon="7.02979">
        <ele>2145.8</ele>
        <time>2021-07-23T10:16:43.285Z</time>
      </trkpt>
      <trkpt lat="45.44978" lon="7.02975">
        <ele>2145.8</ele>
        <time>2021-07-23T10:16:44.285Z</time>
      </trkpt>
      <trkpt lat="45.44975" lon="7.02971">
        <ele>2145.8</ele>
        <time>2021-07-23T10:16:45.285Z</time>
      </trkpt>
      <trkpt lat="45.44973" lon="7.02967">
        <ele>2145.8</ele>
        <time>2021-07-23T10:16:46.285Z</time>
      </trkpt>
      <trkpt lat="45.44971" lon="7.02963">
        <ele>2146.2</ele>
        <time>2021-07-23T10:16:47.285Z</time>
      </trkpt>
      <trkpt lat="45.44969" lon="7.02959">
        <ele>2146.6</ele>
        <time>2021-07-23T10:16:48.285Z</time>
      </trkpt>
      <trkpt lat="45.44968" lon="7.02955">
        <ele>2147</ele>
        <time>2021-07-23T10:16:49.285Z</time>
      </trkpt>
      <trkpt lat="45.44965" lon="7.02952">
        <ele>2147.4</ele>
        <time>2021-07-23T10:16:50.285Z</time>
      </trkpt>
      <trkpt lat="45.44963" lon="7.02948">
        <ele>2147.8</ele>
        <time>2021-07-23T10:16:51.285Z</time>
      </trkpt>
      <trkpt lat="45.4496" lon="7.02944">
        <ele>2147.8</ele>
        <time>2021-07-23T10:16:52.285Z</time>
      </trkpt>
      <trkpt lat="45.44958" lon="7.0294">
        <ele>2147.8</ele>
        <time>2021-07-23T10:16:53.285Z</time>
      </trkpt>
      <trkpt lat="45.44956" lon="7.02936">
        <ele>2147.8</ele>
        <time>2021-07-23T10:16:54.285Z</time>
      </trkpt>
      <trkpt lat="45.44953" lon="7.02932">
        <ele>2147.8</ele>
        <time>2021-07-23T10:16:55.285Z</time>
      </trkpt>
      <trkpt lat="45.44951" lon="7.02928">
        <ele>2147.8</ele>
        <time>2021-07-23T10:16:56.285Z</time>
      </trkpt>
      <trkpt lat="45.4495" lon="7.02924">
        <ele>2147.8</ele>
        <time>2021-07-23T10:16:57.285Z</time>
      </trkpt>
      <trkpt lat="45.44948" lon="7.0292">
        <ele>2147.8</ele>
        <time>2021-07-23T10:16:58.285Z</time>
      </trkpt>
      <trkpt lat="45.4495" lon="7.02914">
        <ele>2147.8</ele>
        <time>2021-07-23T10:16:59.285Z</time>
      </trkpt>
      <trkpt lat="45.44953" lon="7.02909">
        <ele>2147.8</ele>
        <time>2021-07-23T10:17:00.285Z</time>
      </trkpt>
      <trkpt lat="45.44955" lon="7.02904">
        <ele>2147.8</ele>
        <time>2021-07-23T10:17:01.285Z</time>
      </trkpt>
      <trkpt lat="45.44958" lon="7.02899">
        <ele>2147.8</ele>
        <time>2021-07-23T10:17:02.285Z</time>
      </trkpt>
      <trkpt lat="45.4496" lon="7.02894">
        <ele>2148.2</ele>
        <time>2021-07-23T10:17:03.285Z</time>
      </trkpt>
      <trkpt lat="45.44961" lon="7.02889">
        <ele>2148.8</ele>
        <time>2021-07-23T10:17:04.285Z</time>
      </trkpt>
      <trkpt lat="45.44961" lon="7.02884">
        <ele>2149.2</ele>
        <time>2021-07-23T10:17:05.285Z</time>
      </trkpt>
      <trkpt lat="45.4496" lon="7.0288">
        <ele>2149.6</ele>
        <time>2021-07-23T10:17:06.285Z</time>
      </trkpt>
      <trkpt lat="45.44958" lon="7.02876">
        <ele>2150.2</ele>
        <time>2021-07-23T10:17:07.285Z</time>
      </trkpt>
      <trkpt lat="45.44957" lon="7.02872">
        <ele>2150.2</ele>
        <time>2021-07-23T10:17:08.285Z</time>
      </trkpt>
      <trkpt lat="45.44955" lon="7.02868">
        <ele>2150.2</ele>
        <time>2021-07-23T10:17:09.285Z</time>
      </trkpt>
      <trkpt lat="45.44954" lon="7.02864">
        <ele>2150.2</ele>
        <time>2021-07-23T10:17:10.285Z</time>
      </trkpt>
      <trkpt lat="45.44953" lon="7.0286">
        <ele>2150.2</ele>
        <time>2021-07-23T10:17:11.285Z</time>
      </trkpt>
      <trkpt lat="45.44951" lon="7.02855">
        <ele>2150.6</ele>
        <time>2021-07-23T10:17:12.285Z</time>
      </trkpt>
      <trkpt lat="45.4495" lon="7.02851">
        <ele>2151</ele>
        <time>2021-07-23T10:17:13.285Z</time>
      </trkpt>
      <trkpt lat="45.44949" lon="7.02847">
        <ele>2151.4</ele>
        <time>2021-07-23T10:17:14.285Z</time>
      </trkpt>
      <trkpt lat="45.44947" lon="7.02844">
        <ele>2151.8</ele>
        <time>2021-07-23T10:17:15.285Z</time>
      </trkpt>
      <trkpt lat="45.44946" lon="7.0284">
        <ele>2152.4</ele>
        <time>2021-07-23T10:17:16.285Z</time>
      </trkpt>
      <trkpt lat="45.44944" lon="7.02836">
        <ele>2152.4</ele>
        <time>2021-07-23T10:17:17.285Z</time>
      </trkpt>
      <trkpt lat="45.44943" lon="7.02832">
        <ele>2152.4</ele>
        <time>2021-07-23T10:17:18.285Z</time>
      </trkpt>
      <trkpt lat="45.44941" lon="7.02828">
        <ele>2152.4</ele>
        <time>2021-07-23T10:17:19.285Z</time>
      </trkpt>
      <trkpt lat="45.4494" lon="7.02825">
        <ele>2152.4</ele>
        <time>2021-07-23T10:17:20.285Z</time>
      </trkpt>
      <trkpt lat="45.44939" lon="7.02821">
        <ele>2152.8</ele>
        <time>2021-07-23T10:17:21.285Z</time>
      </trkpt>
      <trkpt lat="45.44938" lon="7.02817">
        <ele>2153.2</ele>
        <time>2021-07-23T10:17:22.285Z</time>
      </trkpt>
      <trkpt lat="45.44936" lon="7.02814">
        <ele>2153.6</ele>
        <time>2021-07-23T10:17:23.285Z</time>
      </trkpt>
      <trkpt lat="45.44934" lon="7.02811">
        <ele>2154</ele>
        <time>2021-07-23T10:17:24.285Z</time>
      </trkpt>
      <trkpt lat="45.44933" lon="7.02807">
        <ele>2154.4</ele>
        <time>2021-07-23T10:17:25.285Z</time>
      </trkpt>
      <trkpt lat="45.44931" lon="7.02804">
        <ele>2154.4</ele>
        <time>2021-07-23T10:17:26.285Z</time>
      </trkpt>
      <trkpt lat="45.4493" lon="7.02801">
        <ele>2154.4</ele>
        <time>2021-07-23T10:17:27.285Z</time>
      </trkpt>
      <trkpt lat="45.44928" lon="7.02798">
        <ele>2154.4</ele>
        <time>2021-07-23T10:17:28.285Z</time>
      </trkpt>
      <trkpt lat="45.44927" lon="7.02795">
        <ele>2154.4</ele>
        <time>2021-07-23T10:17:29.285Z</time>
      </trkpt>
      <trkpt lat="45.44925" lon="7.02791">
        <ele>2154.4</ele>
        <time>2021-07-23T10:17:30.285Z</time>
      </trkpt>
      <trkpt lat="45.44924" lon="7.02788">
        <ele>2154.4</ele>
        <time>2021-07-23T10:17:31.285Z</time>
      </trkpt>
      <trkpt lat="45.44922" lon="7.02784">
        <ele>2154.8</ele>
        <time>2021-07-23T10:17:32.285Z</time>
      </trkpt>
      <trkpt lat="45.44921" lon="7.02781">
        <ele>2155.2</ele>
        <time>2021-07-23T10:17:33.285Z</time>
      </trkpt>
      <trkpt lat="45.4492" lon="7.02778">
        <ele>2156</ele>
        <time>2021-07-23T10:17:34.285Z</time>
      </trkpt>
      <trkpt lat="45.44919" lon="7.02775">
        <ele>2156.4</ele>
        <time>2021-07-23T10:17:35.285Z</time>
      </trkpt>
      <trkpt lat="45.44918" lon="7.02771">
        <ele>2156.4</ele>
        <time>2021-07-23T10:17:36.285Z</time>
      </trkpt>
      <trkpt lat="45.44916" lon="7.02768">
        <ele>2156.4</ele>
        <time>2021-07-23T10:17:37.285Z</time>
      </trkpt>
      <trkpt lat="45.44915" lon="7.02764">
        <ele>2156.8</ele>
        <time>2021-07-23T10:17:38.285Z</time>
      </trkpt>
      <trkpt lat="45.44914" lon="7.02761">
        <ele>2157.2</ele>
        <time>2021-07-23T10:17:39.285Z</time>
      </trkpt>
      <trkpt lat="45.44913" lon="7.02757">
        <ele>2157.8</ele>
        <time>2021-07-23T10:17:40.285Z</time>
      </trkpt>
      <trkpt lat="45.44912" lon="7.02754">
        <ele>2158.2</ele>
        <time>2021-07-23T10:17:41.285Z</time>
      </trkpt>
      <trkpt lat="45.44911" lon="7.0275">
        <ele>2158.6</ele>
        <time>2021-07-23T10:17:42.285Z</time>
      </trkpt>
      <trkpt lat="45.4491" lon="7.02747">
        <ele>2158.6</ele>
        <time>2021-07-23T10:17:43.285Z</time>
      </trkpt>
      <trkpt lat="45.44909" lon="7.02743">
        <ele>2158.6</ele>
        <time>2021-07-23T10:17:44.285Z</time>
      </trkpt>
      <trkpt lat="45.44908" lon="7.02739">
        <ele>2158.6</ele>
        <time>2021-07-23T10:17:45.285Z</time>
      </trkpt>
      <trkpt lat="45.44907" lon="7.02736">
        <ele>2158.6</ele>
        <time>2021-07-23T10:17:46.285Z</time>
      </trkpt>
      <trkpt lat="45.44906" lon="7.02732">
        <ele>2158.6</ele>
        <time>2021-07-23T10:17:47.285Z</time>
      </trkpt>
      <trkpt lat="45.44905" lon="7.02729">
        <ele>2158.6</ele>
        <time>2021-07-23T10:17:48.285Z</time>
      </trkpt>
      <trkpt lat="45.44904" lon="7.02725">
        <ele>2159</ele>
        <time>2021-07-23T10:17:49.285Z</time>
      </trkpt>
      <trkpt lat="45.44904" lon="7.02721">
        <ele>2159.4</ele>
        <time>2021-07-23T10:17:50.285Z</time>
      </trkpt>
      <trkpt lat="45.44903" lon="7.02718">
        <ele>2159.8</ele>
        <time>2021-07-23T10:17:51.285Z</time>
      </trkpt>
      <trkpt lat="45.44902" lon="7.02714">
        <ele>2160.2</ele>
        <time>2021-07-23T10:17:52.285Z</time>
      </trkpt>
      <trkpt lat="45.44901" lon="7.0271">
        <ele>2160.6</ele>
        <time>2021-07-23T10:17:53.285Z</time>
      </trkpt>
      <trkpt lat="45.449" lon="7.02707">
        <ele>2160.6</ele>
        <time>2021-07-23T10:17:54.285Z</time>
      </trkpt>
      <trkpt lat="45.44899" lon="7.02703">
        <ele>2160.6</ele>
        <time>2021-07-23T10:17:55.285Z</time>
      </trkpt>
      <trkpt lat="45.44899" lon="7.027">
        <ele>2160.6</ele>
        <time>2021-07-23T10:17:56.285Z</time>
      </trkpt>
      <trkpt lat="45.44898" lon="7.02696">
        <ele>2160.6</ele>
        <time>2021-07-23T10:17:57.285Z</time>
      </trkpt>
      <trkpt lat="45.44897" lon="7.02692">
        <ele>2161</ele>
        <time>2021-07-23T10:17:58.285Z</time>
      </trkpt>
      <trkpt lat="45.44896" lon="7.02689">
        <ele>2161.4</ele>
        <time>2021-07-23T10:17:59.285Z</time>
      </trkpt>
      <trkpt lat="45.44895" lon="7.02685">
        <ele>2161.8</ele>
        <time>2021-07-23T10:18:00.285Z</time>
      </trkpt>
      <trkpt lat="45.44894" lon="7.02682">
        <ele>2162.4</ele>
        <time>2021-07-23T10:18:01.285Z</time>
      </trkpt>
      <trkpt lat="45.44893" lon="7.02678">
        <ele>2162.8</ele>
        <time>2021-07-23T10:18:02.285Z</time>
      </trkpt>
      <trkpt lat="45.44892" lon="7.02675">
        <ele>2162.8</ele>
        <time>2021-07-23T10:18:03.285Z</time>
      </trkpt>
      <trkpt lat="45.44891" lon="7.02671">
        <ele>2162.8</ele>
        <time>2021-07-23T10:18:04.285Z</time>
      </trkpt>
      <trkpt lat="45.4489" lon="7.02668">
        <ele>2162.8</ele>
        <time>2021-07-23T10:18:05.285Z</time>
      </trkpt>
      <trkpt lat="45.44889" lon="7.02664">
        <ele>2162.8</ele>
        <time>2021-07-23T10:18:06.285Z</time>
      </trkpt>
      <trkpt lat="45.44888" lon="7.02661">
        <ele>2162.8</ele>
        <time>2021-07-23T10:18:07.285Z</time>
      </trkpt>
      <trkpt lat="45.44887" lon="7.02658">
        <ele>2162.8</ele>
        <time>2021-07-23T10:18:08.285Z</time>
      </trkpt>
      <trkpt lat="45.44887" lon="7.02655">
        <ele>2163.2</ele>
        <time>2021-07-23T10:18:09.285Z</time>
      </trkpt>
      <trkpt lat="45.44886" lon="7.02651">
        <ele>2163.6</ele>
        <time>2021-07-23T10:18:10.285Z</time>
      </trkpt>
      <trkpt lat="45.44885" lon="7.02648">
        <ele>2164</ele>
        <time>2021-07-23T10:18:11.285Z</time>
      </trkpt>
      <trkpt lat="45.44884" lon="7.02645">
        <ele>2164.4</ele>
        <time>2021-07-23T10:18:12.285Z</time>
      </trkpt>
      <trkpt lat="45.44883" lon="7.02641">
        <ele>2164.8</ele>
        <time>2021-07-23T10:18:13.285Z</time>
      </trkpt>
      <trkpt lat="45.44881" lon="7.02638">
        <ele>2164.8</ele>
        <time>2021-07-23T10:18:14.285Z</time>
      </trkpt>
      <trkpt lat="45.4488" lon="7.02635">
        <ele>2164.8</ele>
        <time>2021-07-23T10:18:15.285Z</time>
      </trkpt>
      <trkpt lat="45.4488" lon="7.02631">
        <ele>2164.8</ele>
        <time>2021-07-23T10:18:16.285Z</time>
      </trkpt>
      <trkpt lat="45.44879" lon="7.02628">
        <ele>2164.8</ele>
        <time>2021-07-23T10:18:17.285Z</time>
      </trkpt>
      <trkpt lat="45.44877" lon="7.02625">
        <ele>2164.8</ele>
        <time>2021-07-23T10:18:18.285Z</time>
      </trkpt>
      <trkpt lat="45.44877" lon="7.02621">
        <ele>2164.8</ele>
        <time>2021-07-23T10:18:19.285Z</time>
      </trkpt>
      <trkpt lat="45.44875" lon="7.02618">
        <ele>2165.2</ele>
        <time>2021-07-23T10:18:20.285Z</time>
      </trkpt>
      <trkpt lat="45.44874" lon="7.02614">
        <ele>2165.6</ele>
        <time>2021-07-23T10:18:21.285Z</time>
      </trkpt>
      <trkpt lat="45.44873" lon="7.02611">
        <ele>2166.6</ele>
        <time>2021-07-23T10:18:22.285Z</time>
      </trkpt>
      <trkpt lat="45.44872" lon="7.02607">
        <ele>2167</ele>
        <time>2021-07-23T10:18:23.285Z</time>
      </trkpt>
      <trkpt lat="45.44871" lon="7.02603">
        <ele>2167</ele>
        <time>2021-07-23T10:18:24.285Z</time>
      </trkpt>
      <trkpt lat="45.44869" lon="7.02599">
        <ele>2167</ele>
        <time>2021-07-23T10:18:25.285Z</time>
      </trkpt>
      <trkpt lat="45.44868" lon="7.02596">
        <ele>2167</ele>
        <time>2021-07-23T10:18:26.285Z</time>
      </trkpt>
      <trkpt lat="45.44867" lon="7.02592">
        <ele>2167</ele>
        <time>2021-07-23T10:18:27.285Z</time>
      </trkpt>
      <trkpt lat="45.44866" lon="7.02589">
        <ele>2167</ele>
        <time>2021-07-23T10:18:28.285Z</time>
      </trkpt>
      <trkpt lat="45.44866" lon="7.02585">
        <ele>2167</ele>
        <time>2021-07-23T10:18:29.285Z</time>
      </trkpt>
      <trkpt lat="45.44864" lon="7.02582">
        <ele>2167.4</ele>
        <time>2021-07-23T10:18:30.285Z</time>
      </trkpt>
      <trkpt lat="45.44863" lon="7.02579">
        <ele>2167.8</ele>
        <time>2021-07-23T10:18:31.285Z</time>
      </trkpt>
      <trkpt lat="45.44862" lon="7.02575">
        <ele>2168.2</ele>
        <time>2021-07-23T10:18:32.285Z</time>
      </trkpt>
      <trkpt lat="45.44861" lon="7.02572">
        <ele>2168.6</ele>
        <time>2021-07-23T10:18:33.285Z</time>
      </trkpt>
      <trkpt lat="45.4486" lon="7.02568">
        <ele>2169</ele>
        <time>2021-07-23T10:18:34.285Z</time>
      </trkpt>
      <trkpt lat="45.4486" lon="7.02565">
        <ele>2169</ele>
        <time>2021-07-23T10:18:35.285Z</time>
      </trkpt>
      <trkpt lat="45.44858" lon="7.02561">
        <ele>2169</ele>
        <time>2021-07-23T10:18:36.285Z</time>
      </trkpt>
      <trkpt lat="45.44857" lon="7.02558">
        <ele>2169</ele>
        <time>2021-07-23T10:18:37.285Z</time>
      </trkpt>
      <trkpt lat="45.44856" lon="7.02554">
        <ele>2169</ele>
        <time>2021-07-23T10:18:38.285Z</time>
      </trkpt>
      <trkpt lat="45.44855" lon="7.02551">
        <ele>2169</ele>
        <time>2021-07-23T10:18:39.285Z</time>
      </trkpt>
      <trkpt lat="45.44854" lon="7.02548">
        <ele>2169.6</ele>
        <time>2021-07-23T10:18:40.285Z</time>
      </trkpt>
      <trkpt lat="45.44852" lon="7.02544">
        <ele>2170</ele>
        <time>2021-07-23T10:18:41.285Z</time>
      </trkpt>
      <trkpt lat="45.44851" lon="7.02541">
        <ele>2170.4</ele>
        <time>2021-07-23T10:18:42.285Z</time>
      </trkpt>
      <trkpt lat="45.4485" lon="7.02537">
        <ele>2170.8</ele>
        <time>2021-07-23T10:18:43.285Z</time>
      </trkpt>
      <trkpt lat="45.44849" lon="7.02534">
        <ele>2171.2</ele>
        <time>2021-07-23T10:18:44.285Z</time>
      </trkpt>
      <trkpt lat="45.44848" lon="7.0253">
        <ele>2171.2</ele>
        <time>2021-07-23T10:18:45.285Z</time>
      </trkpt>
      <trkpt lat="45.44847" lon="7.02527">
        <ele>2171.2</ele>
        <time>2021-07-23T10:18:46.285Z</time>
      </trkpt>
      <trkpt lat="45.44846" lon="7.02524">
        <ele>2171.2</ele>
        <time>2021-07-23T10:18:47.285Z</time>
      </trkpt>
      <trkpt lat="45.44845" lon="7.02521">
        <ele>2171.2</ele>
        <time>2021-07-23T10:18:48.285Z</time>
      </trkpt>
      <trkpt lat="45.44844" lon="7.02517">
        <ele>2171.2</ele>
        <time>2021-07-23T10:18:49.285Z</time>
      </trkpt>
      <trkpt lat="45.44843" lon="7.02514">
        <ele>2171.6</ele>
        <time>2021-07-23T10:18:50.285Z</time>
      </trkpt>
      <trkpt lat="45.44842" lon="7.0251">
        <ele>2172</ele>
        <time>2021-07-23T10:18:51.285Z</time>
      </trkpt>
      <trkpt lat="45.44841" lon="7.02507">
        <ele>2172.6</ele>
        <time>2021-07-23T10:18:52.285Z</time>
      </trkpt>
      <trkpt lat="45.4484" lon="7.02504">
        <ele>2173</ele>
        <time>2021-07-23T10:18:53.285Z</time>
      </trkpt>
      <trkpt lat="45.44839" lon="7.025">
        <ele>2173.4</ele>
        <time>2021-07-23T10:18:54.285Z</time>
      </trkpt>
      <trkpt lat="45.44838" lon="7.02498">
        <ele>2173.4</ele>
        <time>2021-07-23T10:18:55.285Z</time>
      </trkpt>
      <trkpt lat="45.44837" lon="7.02494">
        <ele>2173.4</ele>
        <time>2021-07-23T10:18:56.285Z</time>
      </trkpt>
      <trkpt lat="45.44836" lon="7.02491">
        <ele>2173.4</ele>
        <time>2021-07-23T10:18:57.285Z</time>
      </trkpt>
      <trkpt lat="45.44835" lon="7.02488">
        <ele>2173.4</ele>
        <time>2021-07-23T10:18:58.285Z</time>
      </trkpt>
      <trkpt lat="45.44834" lon="7.02485">
        <ele>2173.4</ele>
        <time>2021-07-23T10:18:59.285Z</time>
      </trkpt>
      <trkpt lat="45.44832" lon="7.02482">
        <ele>2173.8</ele>
        <time>2021-07-23T10:19:00.285Z</time>
      </trkpt>
      <trkpt lat="45.44831" lon="7.02479">
        <ele>2174.2</ele>
        <time>2021-07-23T10:19:01.285Z</time>
      </trkpt>
      <trkpt lat="45.44829" lon="7.02476">
        <ele>2174.6</ele>
        <time>2021-07-23T10:19:02.285Z</time>
      </trkpt>
      <trkpt lat="45.44828" lon="7.02473">
        <ele>2175</ele>
        <time>2021-07-23T10:19:03.285Z</time>
      </trkpt>
      <trkpt lat="45.44826" lon="7.0247">
        <ele>2175.4</ele>
        <time>2021-07-23T10:19:04.285Z</time>
      </trkpt>
      <trkpt lat="45.44825" lon="7.02468">
        <ele>2175.4</ele>
        <time>2021-07-23T10:19:05.285Z</time>
      </trkpt>
      <trkpt lat="45.44823" lon="7.02465">
        <ele>2175.4</ele>
        <time>2021-07-23T10:19:06.285Z</time>
      </trkpt>
      <trkpt lat="45.44822" lon="7.02463">
        <ele>2175.4</ele>
        <time>2021-07-23T10:19:07.285Z</time>
      </trkpt>
      <trkpt lat="45.4482" lon="7.0246">
        <ele>2175.4</ele>
        <time>2021-07-23T10:19:08.285Z</time>
      </trkpt>
      <trkpt lat="45.44818" lon="7.02457">
        <ele>2175.4</ele>
        <time>2021-07-23T10:19:09.285Z</time>
      </trkpt>
      <trkpt lat="45.44817" lon="7.02454">
        <ele>2175.4</ele>
        <time>2021-07-23T10:19:10.285Z</time>
      </trkpt>
      <trkpt lat="45.44815" lon="7.02452">
        <ele>2175.4</ele>
        <time>2021-07-23T10:19:11.285Z</time>
      </trkpt>
      <trkpt lat="45.44813" lon="7.02449">
        <ele>2176.4</ele>
        <time>2021-07-23T10:19:12.285Z</time>
      </trkpt>
      <trkpt lat="45.44811" lon="7.02447">
        <ele>2176.8</ele>
        <time>2021-07-23T10:19:13.285Z</time>
      </trkpt>
      <trkpt lat="45.44809" lon="7.02444">
        <ele>2177.2</ele>
        <time>2021-07-23T10:19:14.285Z</time>
      </trkpt>
      <trkpt lat="45.44808" lon="7.02442">
        <ele>2177.6</ele>
        <time>2021-07-23T10:19:15.285Z</time>
      </trkpt>
      <trkpt lat="45.44806" lon="7.02439">
        <ele>2177.6</ele>
        <time>2021-07-23T10:19:16.285Z</time>
      </trkpt>
      <trkpt lat="45.44805" lon="7.02436">
        <ele>2177.6</ele>
        <time>2021-07-23T10:19:17.285Z</time>
      </trkpt>
      <trkpt lat="45.44804" lon="7.02433">
        <ele>2177.6</ele>
        <time>2021-07-23T10:19:18.285Z</time>
      </trkpt>
      <trkpt lat="45.44802" lon="7.0243">
        <ele>2177.6</ele>
        <time>2021-07-23T10:19:19.285Z</time>
      </trkpt>
      <trkpt lat="45.44801" lon="7.02426">
        <ele>2177.6</ele>
        <time>2021-07-23T10:19:20.285Z</time>
      </trkpt>
      <trkpt lat="45.44799" lon="7.02423">
        <ele>2177.6</ele>
        <time>2021-07-23T10:19:21.285Z</time>
      </trkpt>
      <trkpt lat="45.44798" lon="7.0242">
        <ele>2178</ele>
        <time>2021-07-23T10:19:22.285Z</time>
      </trkpt>
      <trkpt lat="45.44798" lon="7.02416">
        <ele>2178.4</ele>
        <time>2021-07-23T10:19:23.285Z</time>
      </trkpt>
      <trkpt lat="45.44797" lon="7.02412">
        <ele>2179</ele>
        <time>2021-07-23T10:19:24.285Z</time>
      </trkpt>
      <trkpt lat="45.44796" lon="7.02408">
        <ele>2179.4</ele>
        <time>2021-07-23T10:19:25.285Z</time>
      </trkpt>
      <trkpt lat="45.44795" lon="7.02405">
        <ele>2179.8</ele>
        <time>2021-07-23T10:19:26.285Z</time>
      </trkpt>
      <trkpt lat="45.44795" lon="7.02401">
        <ele>2179.8</ele>
        <time>2021-07-23T10:19:27.285Z</time>
      </trkpt>
      <trkpt lat="45.44794" lon="7.02398">
        <ele>2179.8</ele>
        <time>2021-07-23T10:19:28.285Z</time>
      </trkpt>
      <trkpt lat="45.44793" lon="7.02394">
        <ele>2179.8</ele>
        <time>2021-07-23T10:19:29.285Z</time>
      </trkpt>
      <trkpt lat="45.44791" lon="7.02391">
        <ele>2179.8</ele>
        <time>2021-07-23T10:19:30.285Z</time>
      </trkpt>
      <trkpt lat="45.4479" lon="7.02388">
        <ele>2179.8</ele>
        <time>2021-07-23T10:19:31.285Z</time>
      </trkpt>
      <trkpt lat="45.44788" lon="7.02384">
        <ele>2179.8</ele>
        <time>2021-07-23T10:19:32.285Z</time>
      </trkpt>
      <trkpt lat="45.44787" lon="7.02381">
        <ele>2179.8</ele>
        <time>2021-07-23T10:19:33.285Z</time>
      </trkpt>
      <trkpt lat="45.44786" lon="7.02378">
        <ele>2179.8</ele>
        <time>2021-07-23T10:19:34.285Z</time>
      </trkpt>
      <trkpt lat="45.44784" lon="7.02375">
        <ele>2180.2</ele>
        <time>2021-07-23T10:19:35.285Z</time>
      </trkpt>
      <trkpt lat="45.44783" lon="7.02371">
        <ele>2181</ele>
        <time>2021-07-23T10:19:36.285Z</time>
      </trkpt>
      <trkpt lat="45.44781" lon="7.02368">
        <ele>2181.4</ele>
        <time>2021-07-23T10:19:37.285Z</time>
      </trkpt>
      <trkpt lat="45.4478" lon="7.02365">
        <ele>2181.8</ele>
        <time>2021-07-23T10:19:38.285Z</time>
      </trkpt>
      <trkpt lat="45.44778" lon="7.02363">
        <ele>2181.8</ele>
        <time>2021-07-23T10:19:39.285Z</time>
      </trkpt>
      <trkpt lat="45.44777" lon="7.0236">
        <ele>2181.8</ele>
        <time>2021-07-23T10:19:40.285Z</time>
      </trkpt>
      <trkpt lat="45.44775" lon="7.02357">
        <ele>2181.8</ele>
        <time>2021-07-23T10:19:41.285Z</time>
      </trkpt>
      <trkpt lat="45.44773" lon="7.02355">
        <ele>2181.8</ele>
        <time>2021-07-23T10:19:42.285Z</time>
      </trkpt>
      <trkpt lat="45.44772" lon="7.02352">
        <ele>2181.8</ele>
        <time>2021-07-23T10:19:43.285Z</time>
      </trkpt>
      <trkpt lat="45.4477" lon="7.02349">
        <ele>2181.8</ele>
        <time>2021-07-23T10:19:44.285Z</time>
      </trkpt>
      <trkpt lat="45.44769" lon="7.02346">
        <ele>2181.8</ele>
        <time>2021-07-23T10:19:45.285Z</time>
      </trkpt>
      <trkpt lat="45.44767" lon="7.02343">
        <ele>2182.2</ele>
        <time>2021-07-23T10:19:46.285Z</time>
      </trkpt>
      <trkpt lat="45.44766" lon="7.0234">
        <ele>2182.6</ele>
        <time>2021-07-23T10:19:47.285Z</time>
      </trkpt>
      <trkpt lat="45.44765" lon="7.02337">
        <ele>2183</ele>
        <time>2021-07-23T10:19:48.285Z</time>
      </trkpt>
      <trkpt lat="45.44763" lon="7.02334">
        <ele>2183.4</ele>
        <time>2021-07-23T10:19:49.285Z</time>
      </trkpt>
      <trkpt lat="45.44762" lon="7.02332">
        <ele>2183.8</ele>
        <time>2021-07-23T10:19:50.285Z</time>
      </trkpt>
      <trkpt lat="45.4476" lon="7.02329">
        <ele>2183.8</ele>
        <time>2021-07-23T10:19:51.285Z</time>
      </trkpt>
      <trkpt lat="45.44759" lon="7.02326">
        <ele>2183.8</ele>
        <time>2021-07-23T10:19:52.285Z</time>
      </trkpt>
      <trkpt lat="45.44757" lon="7.02324">
        <ele>2183.8</ele>
        <time>2021-07-23T10:19:53.285Z</time>
      </trkpt>
      <trkpt lat="45.44756" lon="7.02321">
        <ele>2183.8</ele>
        <time>2021-07-23T10:19:54.285Z</time>
      </trkpt>
      <trkpt lat="45.44754" lon="7.02318">
        <ele>2183.8</ele>
        <time>2021-07-23T10:19:55.285Z</time>
      </trkpt>
      <trkpt lat="45.44753" lon="7.02315">
        <ele>2183.8</ele>
        <time>2021-07-23T10:19:56.285Z</time>
      </trkpt>
      <trkpt lat="45.44752" lon="7.02312">
        <ele>2184.2</ele>
        <time>2021-07-23T10:19:57.285Z</time>
      </trkpt>
      <trkpt lat="45.44751" lon="7.02309">
        <ele>2184.6</ele>
        <time>2021-07-23T10:19:58.285Z</time>
      </trkpt>
      <trkpt lat="45.44749" lon="7.02305">
        <ele>2185</ele>
        <time>2021-07-23T10:19:59.285Z</time>
      </trkpt>
      <trkpt lat="45.44748" lon="7.02302">
        <ele>2185.4</ele>
        <time>2021-07-23T10:20:00.285Z</time>
      </trkpt>
      <trkpt lat="45.44746" lon="7.023">
        <ele>2185.8</ele>
        <time>2021-07-23T10:20:01.285Z</time>
      </trkpt>
      <trkpt lat="45.44745" lon="7.02297">
        <ele>2185.8</ele>
        <time>2021-07-23T10:20:02.285Z</time>
      </trkpt>
      <trkpt lat="45.44743" lon="7.02294">
        <ele>2185.8</ele>
        <time>2021-07-23T10:20:03.285Z</time>
      </trkpt>
      <trkpt lat="45.44742" lon="7.02291">
        <ele>2185.8</ele>
        <time>2021-07-23T10:20:04.285Z</time>
      </trkpt>
      <trkpt lat="45.44741" lon="7.02288">
        <ele>2185.8</ele>
        <time>2021-07-23T10:20:05.285Z</time>
      </trkpt>
      <trkpt lat="45.44739" lon="7.02285">
        <ele>2185.8</ele>
        <time>2021-07-23T10:20:06.285Z</time>
      </trkpt>
      <trkpt lat="45.44738" lon="7.02282">
        <ele>2185.8</ele>
        <time>2021-07-23T10:20:07.285Z</time>
      </trkpt>
      <trkpt lat="45.44736" lon="7.02279">
        <ele>2186.2</ele>
        <time>2021-07-23T10:20:08.285Z</time>
      </trkpt>
      <trkpt lat="45.44735" lon="7.02276">
        <ele>2186.6</ele>
        <time>2021-07-23T10:20:09.285Z</time>
      </trkpt>
      <trkpt lat="45.44734" lon="7.02273">
        <ele>2187</ele>
        <time>2021-07-23T10:20:10.285Z</time>
      </trkpt>
      <trkpt lat="45.44732" lon="7.02269">
        <ele>2187.4</ele>
        <time>2021-07-23T10:20:11.285Z</time>
      </trkpt>
      <trkpt lat="45.44731" lon="7.02266">
        <ele>2187.8</ele>
        <time>2021-07-23T10:20:12.285Z</time>
      </trkpt>
      <trkpt lat="45.44729" lon="7.02263">
        <ele>2187.8</ele>
        <time>2021-07-23T10:20:13.285Z</time>
      </trkpt>
      <trkpt lat="45.44728" lon="7.0226">
        <ele>2187.8</ele>
        <time>2021-07-23T10:20:14.285Z</time>
      </trkpt>
      <trkpt lat="45.44727" lon="7.02257">
        <ele>2187.8</ele>
        <time>2021-07-23T10:20:15.285Z</time>
      </trkpt>
      <trkpt lat="45.44725" lon="7.02254">
        <ele>2187.8</ele>
        <time>2021-07-23T10:20:16.285Z</time>
      </trkpt>
      <trkpt lat="45.44724" lon="7.02251">
        <ele>2187.8</ele>
        <time>2021-07-23T10:20:17.285Z</time>
      </trkpt>
      <trkpt lat="45.44722" lon="7.02248">
        <ele>2187.8</ele>
        <time>2021-07-23T10:20:18.285Z</time>
      </trkpt>
      <trkpt lat="45.44721" lon="7.02245">
        <ele>2187.8</ele>
        <time>2021-07-23T10:20:19.285Z</time>
      </trkpt>
      <trkpt lat="45.44719" lon="7.02242">
        <ele>2188.4</ele>
        <time>2021-07-23T10:20:20.285Z</time>
      </trkpt>
      <trkpt lat="45.44718" lon="7.02239">
        <ele>2188.8</ele>
        <time>2021-07-23T10:20:21.285Z</time>
      </trkpt>
      <trkpt lat="45.44717" lon="7.02235">
        <ele>2189.2</ele>
        <time>2021-07-23T10:20:22.285Z</time>
      </trkpt>
      <trkpt lat="45.44715" lon="7.02232">
        <ele>2189.6</ele>
        <time>2021-07-23T10:20:23.285Z</time>
      </trkpt>
      <trkpt lat="45.44714" lon="7.02229">
        <ele>2190</ele>
        <time>2021-07-23T10:20:24.285Z</time>
      </trkpt>
      <trkpt lat="45.44712" lon="7.02226">
        <ele>2190</ele>
        <time>2021-07-23T10:20:25.285Z</time>
      </trkpt>
      <trkpt lat="45.44711" lon="7.02223">
        <ele>2190</ele>
        <time>2021-07-23T10:20:26.285Z</time>
      </trkpt>
      <trkpt lat="45.44709" lon="7.0222">
        <ele>2190</ele>
        <time>2021-07-23T10:20:27.285Z</time>
      </trkpt>
      <trkpt lat="45.44708" lon="7.02218">
        <ele>2190</ele>
        <time>2021-07-23T10:20:28.285Z</time>
      </trkpt>
      <trkpt lat="45.44706" lon="7.02215">
        <ele>2190</ele>
        <time>2021-07-23T10:20:29.285Z</time>
      </trkpt>
      <trkpt lat="45.44705" lon="7.02212">
        <ele>2190.4</ele>
        <time>2021-07-23T10:20:30.285Z</time>
      </trkpt>
      <trkpt lat="45.44704" lon="7.02208">
        <ele>2190.8</ele>
        <time>2021-07-23T10:20:31.285Z</time>
      </trkpt>
      <trkpt lat="45.44703" lon="7.02205">
        <ele>2191.2</ele>
        <time>2021-07-23T10:20:32.285Z</time>
      </trkpt>
      <trkpt lat="45.44701" lon="7.02202">
        <ele>2191.6</ele>
        <time>2021-07-23T10:20:33.285Z</time>
      </trkpt>
      <trkpt lat="45.447" lon="7.02199">
        <ele>2192</ele>
        <time>2021-07-23T10:20:34.285Z</time>
      </trkpt>
      <trkpt lat="45.44698" lon="7.02196">
        <ele>2192</ele>
        <time>2021-07-23T10:20:35.285Z</time>
      </trkpt>
      <trkpt lat="45.44696" lon="7.02193">
        <ele>2192</ele>
        <time>2021-07-23T10:20:36.285Z</time>
      </trkpt>
      <trkpt lat="45.44694" lon="7.0219">
        <ele>2192</ele>
        <time>2021-07-23T10:20:37.285Z</time>
      </trkpt>
      <trkpt lat="45.44692" lon="7.02187">
        <ele>2192</ele>
        <time>2021-07-23T10:20:38.285Z</time>
      </trkpt>
      <trkpt lat="45.44691" lon="7.02184">
        <ele>2192</ele>
        <time>2021-07-23T10:20:39.285Z</time>
      </trkpt>
      <trkpt lat="45.4469" lon="7.02182">
        <ele>2192</ele>
        <time>2021-07-23T10:20:40.285Z</time>
      </trkpt>
      <trkpt lat="45.44688" lon="7.02178">
        <ele>2192.4</ele>
        <time>2021-07-23T10:20:41.285Z</time>
      </trkpt>
      <trkpt lat="45.44687" lon="7.02175">
        <ele>2192.8</ele>
        <time>2021-07-23T10:20:42.285Z</time>
      </trkpt>
      <trkpt lat="45.44685" lon="7.02172">
        <ele>2193.2</ele>
        <time>2021-07-23T10:20:43.285Z</time>
      </trkpt>
      <trkpt lat="45.44683" lon="7.0217">
        <ele>2193.6</ele>
        <time>2021-07-23T10:20:44.285Z</time>
      </trkpt>
      <trkpt lat="45.44681" lon="7.02167">
        <ele>2194</ele>
        <time>2021-07-23T10:20:45.285Z</time>
      </trkpt>
      <trkpt lat="45.44679" lon="7.02164">
        <ele>2194</ele>
        <time>2021-07-23T10:20:46.285Z</time>
      </trkpt>
      <trkpt lat="45.44677" lon="7.02162">
        <ele>2194</ele>
        <time>2021-07-23T10:20:47.285Z</time>
      </trkpt>
      <trkpt lat="45.44676" lon="7.02159">
        <ele>2194</ele>
        <time>2021-07-23T10:20:48.285Z</time>
      </trkpt>
      <trkpt lat="45.44674" lon="7.02157">
        <ele>2194</ele>
        <time>2021-07-23T10:20:49.285Z</time>
      </trkpt>
      <trkpt lat="45.44672" lon="7.02154">
        <ele>2194.4</ele>
        <time>2021-07-23T10:20:50.285Z</time>
      </trkpt>
      <trkpt lat="45.4467" lon="7.02152">
        <ele>2195.2</ele>
        <time>2021-07-23T10:20:51.285Z</time>
      </trkpt>
      <trkpt lat="45.44669" lon="7.0215">
        <ele>2195.6</ele>
        <time>2021-07-23T10:20:52.285Z</time>
      </trkpt>
      <trkpt lat="45.44667" lon="7.02147">
        <ele>2196</ele>
        <time>2021-07-23T10:20:53.285Z</time>
      </trkpt>
      <trkpt lat="45.44665" lon="7.02144">
        <ele>2196</ele>
        <time>2021-07-23T10:20:54.285Z</time>
      </trkpt>
      <trkpt lat="45.44663" lon="7.02142">
        <ele>2196</ele>
        <time>2021-07-23T10:20:55.285Z</time>
      </trkpt>
      <trkpt lat="45.44661" lon="7.02139">
        <ele>2196</ele>
        <time>2021-07-23T10:20:56.285Z</time>
      </trkpt>
      <trkpt lat="45.44659" lon="7.02136">
        <ele>2196</ele>
        <time>2021-07-23T10:20:57.285Z</time>
      </trkpt>
      <trkpt lat="45.44657" lon="7.02134">
        <ele>2196</ele>
        <time>2021-07-23T10:20:58.285Z</time>
      </trkpt>
      <trkpt lat="45.44655" lon="7.02132">
        <ele>2196</ele>
        <time>2021-07-23T10:20:59.285Z</time>
      </trkpt>
      <trkpt lat="45.44653" lon="7.02129">
        <ele>2196.6</ele>
        <time>2021-07-23T10:21:00.285Z</time>
      </trkpt>
      <trkpt lat="45.44651" lon="7.02127">
        <ele>2197</ele>
        <time>2021-07-23T10:21:01.285Z</time>
      </trkpt>
      <trkpt lat="45.44649" lon="7.02124">
        <ele>2197.4</ele>
        <time>2021-07-23T10:21:02.285Z</time>
      </trkpt>
      <trkpt lat="45.44647" lon="7.02122">
        <ele>2197.8</ele>
        <time>2021-07-23T10:21:03.285Z</time>
      </trkpt>
      <trkpt lat="45.44645" lon="7.02119">
        <ele>2198.2</ele>
        <time>2021-07-23T10:21:04.285Z</time>
      </trkpt>
      <trkpt lat="45.44643" lon="7.02117">
        <ele>2198.2</ele>
        <time>2021-07-23T10:21:05.285Z</time>
      </trkpt>
      <trkpt lat="45.44642" lon="7.02114">
        <ele>2198.2</ele>
        <time>2021-07-23T10:21:06.285Z</time>
      </trkpt>
      <trkpt lat="45.4464" lon="7.02111">
        <ele>2198.2</ele>
        <time>2021-07-23T10:21:07.285Z</time>
      </trkpt>
      <trkpt lat="45.44638" lon="7.02108">
        <ele>2198.2</ele>
        <time>2021-07-23T10:21:08.285Z</time>
      </trkpt>
      <trkpt lat="45.44636" lon="7.02105">
        <ele>2198.2</ele>
        <time>2021-07-23T10:21:09.285Z</time>
      </trkpt>
      <trkpt lat="45.44634" lon="7.02103">
        <ele>2198.2</ele>
        <time>2021-07-23T10:21:10.285Z</time>
      </trkpt>
      <trkpt lat="45.44632" lon="7.021">
        <ele>2198.6</ele>
        <time>2021-07-23T10:21:11.285Z</time>
      </trkpt>
      <trkpt lat="45.4463" lon="7.02098">
        <ele>2199</ele>
        <time>2021-07-23T10:21:12.285Z</time>
      </trkpt>
      <trkpt lat="45.44628" lon="7.02096">
        <ele>2199.6</ele>
        <time>2021-07-23T10:21:13.285Z</time>
      </trkpt>
      <trkpt lat="45.44626" lon="7.02093">
        <ele>2200</ele>
        <time>2021-07-23T10:21:14.285Z</time>
      </trkpt>
      <trkpt lat="45.44625" lon="7.02091">
        <ele>2200.4</ele>
        <time>2021-07-23T10:21:15.285Z</time>
      </trkpt>
      <trkpt lat="45.44623" lon="7.02088">
        <ele>2200.4</ele>
        <time>2021-07-23T10:21:16.285Z</time>
      </trkpt>
      <trkpt lat="45.4462" lon="7.02086">
        <ele>2200.4</ele>
        <time>2021-07-23T10:21:17.285Z</time>
      </trkpt>
      <trkpt lat="45.44619" lon="7.02083">
        <ele>2200.4</ele>
        <time>2021-07-23T10:21:18.285Z</time>
      </trkpt>
      <trkpt lat="45.44617" lon="7.0208">
        <ele>2200.4</ele>
        <time>2021-07-23T10:21:19.285Z</time>
      </trkpt>
      <trkpt lat="45.44615" lon="7.02078">
        <ele>2200.8</ele>
        <time>2021-07-23T10:21:20.285Z</time>
      </trkpt>
      <trkpt lat="45.44613" lon="7.02075">
        <ele>2201.2</ele>
        <time>2021-07-23T10:21:21.285Z</time>
      </trkpt>
      <trkpt lat="45.44611" lon="7.02073">
        <ele>2201.6</ele>
        <time>2021-07-23T10:21:22.285Z</time>
      </trkpt>
      <trkpt lat="45.44609" lon="7.02071">
        <ele>2202.2</ele>
        <time>2021-07-23T10:21:23.285Z</time>
      </trkpt>
      <trkpt lat="45.44607" lon="7.02069">
        <ele>2202.6</ele>
        <time>2021-07-23T10:21:24.285Z</time>
      </trkpt>
      <trkpt lat="45.44605" lon="7.02066">
        <ele>2202.6</ele>
        <time>2021-07-23T10:21:25.285Z</time>
      </trkpt>
      <trkpt lat="45.44603" lon="7.02064">
        <ele>2202.6</ele>
        <time>2021-07-23T10:21:26.285Z</time>
      </trkpt>
      <trkpt lat="45.44601" lon="7.02061">
        <ele>2202.6</ele>
        <time>2021-07-23T10:21:27.285Z</time>
      </trkpt>
      <trkpt lat="45.446" lon="7.02059">
        <ele>2202.6</ele>
        <time>2021-07-23T10:21:28.285Z</time>
      </trkpt>
      <trkpt lat="45.44598" lon="7.02056">
        <ele>2202.6</ele>
        <time>2021-07-23T10:21:29.285Z</time>
      </trkpt>
      <trkpt lat="45.44596" lon="7.02053">
        <ele>2202.6</ele>
        <time>2021-07-23T10:21:30.285Z</time>
      </trkpt>
      <trkpt lat="45.44594" lon="7.0205">
        <ele>2203</ele>
        <time>2021-07-23T10:21:31.285Z</time>
      </trkpt>
      <trkpt lat="45.44592" lon="7.02048">
        <ele>2203.4</ele>
        <time>2021-07-23T10:21:32.285Z</time>
      </trkpt>
      <trkpt lat="45.44591" lon="7.02045">
        <ele>2203.8</ele>
        <time>2021-07-23T10:21:33.285Z</time>
      </trkpt>
      <trkpt lat="45.44589" lon="7.02043">
        <ele>2204.2</ele>
        <time>2021-07-23T10:21:34.285Z</time>
      </trkpt>
      <trkpt lat="45.44587" lon="7.0204">
        <ele>2204.6</ele>
        <time>2021-07-23T10:21:35.285Z</time>
      </trkpt>
      <trkpt lat="45.44585" lon="7.02037">
        <ele>2204.6</ele>
        <time>2021-07-23T10:21:36.285Z</time>
      </trkpt>
      <trkpt lat="45.44584" lon="7.02035">
        <ele>2204.6</ele>
        <time>2021-07-23T10:21:37.285Z</time>
      </trkpt>
      <trkpt lat="45.44582" lon="7.02032">
        <ele>2204.6</ele>
        <time>2021-07-23T10:21:38.285Z</time>
      </trkpt>
      <trkpt lat="45.4458" lon="7.02029">
        <ele>2204.6</ele>
        <time>2021-07-23T10:21:39.285Z</time>
      </trkpt>
      <trkpt lat="45.44579" lon="7.02026">
        <ele>2204.6</ele>
        <time>2021-07-23T10:21:40.285Z</time>
      </trkpt>
      <trkpt lat="45.44578" lon="7.02023">
        <ele>2204.6</ele>
        <time>2021-07-23T10:21:41.285Z</time>
      </trkpt>
      <trkpt lat="45.44577" lon="7.0202">
        <ele>2205</ele>
        <time>2021-07-23T10:21:42.285Z</time>
      </trkpt>
      <trkpt lat="45.44575" lon="7.02016">
        <ele>2205.4</ele>
        <time>2021-07-23T10:21:43.285Z</time>
      </trkpt>
      <trkpt lat="45.44573" lon="7.02013">
        <ele>2205.8</ele>
        <time>2021-07-23T10:21:44.285Z</time>
      </trkpt>
      <trkpt lat="45.44571" lon="7.0201">
        <ele>2206.2</ele>
        <time>2021-07-23T10:21:45.285Z</time>
      </trkpt>
      <trkpt lat="45.4457" lon="7.02007">
        <ele>2206.8</ele>
        <time>2021-07-23T10:21:46.285Z</time>
      </trkpt>
      <trkpt lat="45.44568" lon="7.02005">
        <ele>2206.8</ele>
        <time>2021-07-23T10:21:47.285Z</time>
      </trkpt>
      <trkpt lat="45.44567" lon="7.02002">
        <ele>2206.8</ele>
        <time>2021-07-23T10:21:48.285Z</time>
      </trkpt>
      <trkpt lat="45.44565" lon="7.01999">
        <ele>2206.8</ele>
        <time>2021-07-23T10:21:49.285Z</time>
      </trkpt>
      <trkpt lat="45.44563" lon="7.01996">
        <ele>2206.8</ele>
        <time>2021-07-23T10:21:50.285Z</time>
      </trkpt>
      <trkpt lat="45.44562" lon="7.01993">
        <ele>2207.2</ele>
        <time>2021-07-23T10:21:51.285Z</time>
      </trkpt>
      <trkpt lat="45.4456" lon="7.0199">
        <ele>2207.6</ele>
        <time>2021-07-23T10:21:52.285Z</time>
      </trkpt>
      <trkpt lat="45.44559" lon="7.01986">
        <ele>2208</ele>
        <time>2021-07-23T10:21:53.285Z</time>
      </trkpt>
      <trkpt lat="45.44558" lon="7.01983">
        <ele>2208.4</ele>
        <time>2021-07-23T10:21:54.285Z</time>
      </trkpt>
      <trkpt lat="45.44556" lon="7.01981">
        <ele>2208.8</ele>
        <time>2021-07-23T10:21:55.285Z</time>
      </trkpt>
      <trkpt lat="45.44554" lon="7.01978">
        <ele>2208.8</ele>
        <time>2021-07-23T10:21:56.285Z</time>
      </trkpt>
      <trkpt lat="45.44553" lon="7.01975">
        <ele>2208.8</ele>
        <time>2021-07-23T10:21:57.285Z</time>
      </trkpt>
      <trkpt lat="45.44551" lon="7.01972">
        <ele>2208.8</ele>
        <time>2021-07-23T10:21:58.285Z</time>
      </trkpt>
      <trkpt lat="45.44549" lon="7.01968">
        <ele>2208.8</ele>
        <time>2021-07-23T10:21:59.285Z</time>
      </trkpt>
      <trkpt lat="45.44547" lon="7.01965">
        <ele>2208.8</ele>
        <time>2021-07-23T10:22:00.285Z</time>
      </trkpt>
      <trkpt lat="45.44546" lon="7.01962">
        <ele>2208.8</ele>
        <time>2021-07-23T10:22:01.285Z</time>
      </trkpt>
      <trkpt lat="45.44544" lon="7.01959">
        <ele>2208.8</ele>
        <time>2021-07-23T10:22:02.285Z</time>
      </trkpt>
      <trkpt lat="45.44543" lon="7.01956">
        <ele>2208.8</ele>
        <time>2021-07-23T10:22:03.285Z</time>
      </trkpt>
      <trkpt lat="45.44541" lon="7.01953">
        <ele>2209.2</ele>
        <time>2021-07-23T10:22:04.285Z</time>
      </trkpt>
      <trkpt lat="45.44539" lon="7.01949">
        <ele>2210</ele>
        <time>2021-07-23T10:22:05.285Z</time>
      </trkpt>
      <trkpt lat="45.44538" lon="7.01946">
        <ele>2210.4</ele>
        <time>2021-07-23T10:22:06.285Z</time>
      </trkpt>
      <trkpt lat="45.44536" lon="7.01943">
        <ele>2210.8</ele>
        <time>2021-07-23T10:22:07.285Z</time>
      </trkpt>
      <trkpt lat="45.44535" lon="7.0194">
        <ele>2210.8</ele>
        <time>2021-07-23T10:22:08.285Z</time>
      </trkpt>
      <trkpt lat="45.44533" lon="7.01937">
        <ele>2210.8</ele>
        <time>2021-07-23T10:22:09.285Z</time>
      </trkpt>
      <trkpt lat="45.44532" lon="7.01934">
        <ele>2210.8</ele>
        <time>2021-07-23T10:22:10.285Z</time>
      </trkpt>
      <trkpt lat="45.44531" lon="7.01931">
        <ele>2210.8</ele>
        <time>2021-07-23T10:22:11.285Z</time>
      </trkpt>
      <trkpt lat="45.4453" lon="7.01928">
        <ele>2210.8</ele>
        <time>2021-07-23T10:22:12.285Z</time>
      </trkpt>
      <trkpt lat="45.44528" lon="7.01924">
        <ele>2210.8</ele>
        <time>2021-07-23T10:22:13.285Z</time>
      </trkpt>
      <trkpt lat="45.44527" lon="7.01921">
        <ele>2211.2</ele>
        <time>2021-07-23T10:22:14.285Z</time>
      </trkpt>
      <trkpt lat="45.44526" lon="7.01917">
        <ele>2211.6</ele>
        <time>2021-07-23T10:22:15.285Z</time>
      </trkpt>
      <trkpt lat="45.44525" lon="7.01914">
        <ele>2212</ele>
        <time>2021-07-23T10:22:16.285Z</time>
      </trkpt>
      <trkpt lat="45.44524" lon="7.0191">
        <ele>2212.4</ele>
        <time>2021-07-23T10:22:17.285Z</time>
      </trkpt>
      <trkpt lat="45.44522" lon="7.01907">
        <ele>2212.8</ele>
        <time>2021-07-23T10:22:18.285Z</time>
      </trkpt>
      <trkpt lat="45.44521" lon="7.01903">
        <ele>2212.8</ele>
        <time>2021-07-23T10:22:19.285Z</time>
      </trkpt>
      <trkpt lat="45.4452" lon="7.019">
        <ele>2212.8</ele>
        <time>2021-07-23T10:22:20.285Z</time>
      </trkpt>
      <trkpt lat="45.44519" lon="7.01896">
        <ele>2212.8</ele>
        <time>2021-07-23T10:22:21.285Z</time>
      </trkpt>
      <trkpt lat="45.44518" lon="7.01893">
        <ele>2212.8</ele>
        <time>2021-07-23T10:22:22.285Z</time>
      </trkpt>
      <trkpt lat="45.44517" lon="7.01889">
        <ele>2212.8</ele>
        <time>2021-07-23T10:22:23.285Z</time>
      </trkpt>
      <trkpt lat="45.44515" lon="7.01886">
        <ele>2212.8</ele>
        <time>2021-07-23T10:22:24.285Z</time>
      </trkpt>
      <trkpt lat="45.44515" lon="7.01882">
        <ele>2212.8</ele>
        <time>2021-07-23T10:22:25.285Z</time>
      </trkpt>
      <trkpt lat="45.44513" lon="7.01879">
        <ele>2213.2</ele>
        <time>2021-07-23T10:22:26.285Z</time>
      </trkpt>
      <trkpt lat="45.44512" lon="7.01875">
        <ele>2213.6</ele>
        <time>2021-07-23T10:22:27.285Z</time>
      </trkpt>
      <trkpt lat="45.44511" lon="7.01872">
        <ele>2214.2</ele>
        <time>2021-07-23T10:22:28.285Z</time>
      </trkpt>
      <trkpt lat="45.4451" lon="7.01868">
        <ele>2215</ele>
        <time>2021-07-23T10:22:29.285Z</time>
      </trkpt>
      <trkpt lat="45.44509" lon="7.01865">
        <ele>2215</ele>
        <time>2021-07-23T10:22:30.285Z</time>
      </trkpt>
      <trkpt lat="45.44508" lon="7.01862">
        <ele>2215</ele>
        <time>2021-07-23T10:22:31.285Z</time>
      </trkpt>
      <trkpt lat="45.44507" lon="7.01859">
        <ele>2215</ele>
        <time>2021-07-23T10:22:32.285Z</time>
      </trkpt>
      <trkpt lat="45.44505" lon="7.01856">
        <ele>2215</ele>
        <time>2021-07-23T10:22:33.285Z</time>
      </trkpt>
      <trkpt lat="45.44503" lon="7.01854">
        <ele>2215</ele>
        <time>2021-07-23T10:22:34.285Z</time>
      </trkpt>
      <trkpt lat="45.44501" lon="7.01852">
        <ele>2215.4</ele>
        <time>2021-07-23T10:22:35.285Z</time>
      </trkpt>
      <trkpt lat="45.445" lon="7.01849">
        <ele>2215.8</ele>
        <time>2021-07-23T10:22:36.285Z</time>
      </trkpt>
      <trkpt lat="45.44497" lon="7.01848">
        <ele>2216.4</ele>
        <time>2021-07-23T10:22:37.285Z</time>
      </trkpt>
      <trkpt lat="45.44495" lon="7.01847">
        <ele>2216.8</ele>
        <time>2021-07-23T10:22:38.285Z</time>
      </trkpt>
      <trkpt lat="45.44492" lon="7.01848">
        <ele>2217.2</ele>
        <time>2021-07-23T10:22:39.285Z</time>
      </trkpt>
      <trkpt lat="45.4449" lon="7.01848">
        <ele>2217.2</ele>
        <time>2021-07-23T10:22:40.285Z</time>
      </trkpt>
      <trkpt lat="45.44487" lon="7.01851">
        <ele>2217.2</ele>
        <time>2021-07-23T10:22:41.285Z</time>
      </trkpt>
      <trkpt lat="45.44486" lon="7.01854">
        <ele>2217.2</ele>
        <time>2021-07-23T10:22:42.285Z</time>
      </trkpt>
      <trkpt lat="45.44485" lon="7.01858">
        <ele>2217.2</ele>
        <time>2021-07-23T10:22:43.285Z</time>
      </trkpt>
      <trkpt lat="45.44484" lon="7.01862">
        <ele>2217.2</ele>
        <time>2021-07-23T10:22:44.285Z</time>
      </trkpt>
      <trkpt lat="45.44485" lon="7.01865">
        <ele>2217.2</ele>
        <time>2021-07-23T10:22:45.285Z</time>
      </trkpt>
      <trkpt lat="45.44485" lon="7.01869">
        <ele>2217.2</ele>
        <time>2021-07-23T10:22:46.285Z</time>
      </trkpt>
      <trkpt lat="45.44486" lon="7.01873">
        <ele>2217.2</ele>
        <time>2021-07-23T10:22:47.285Z</time>
      </trkpt>
      <trkpt lat="45.44487" lon="7.01876">
        <ele>2217.2</ele>
        <time>2021-07-23T10:22:48.285Z</time>
      </trkpt>
      <trkpt lat="45.44489" lon="7.01879">
        <ele>2217.2</ele>
        <time>2021-07-23T10:22:49.285Z</time>
      </trkpt>
      <trkpt lat="45.44491" lon="7.01882">
        <ele>2217.6</ele>
        <time>2021-07-23T10:22:50.285Z</time>
      </trkpt>
      <trkpt lat="45.44492" lon="7.01886">
        <ele>2218.2</ele>
        <time>2021-07-23T10:22:51.285Z</time>
      </trkpt>
      <trkpt lat="45.44494" lon="7.01889">
        <ele>2218.6</ele>
        <time>2021-07-23T10:22:52.285Z</time>
      </trkpt>
      <trkpt lat="45.44496" lon="7.01893">
        <ele>2219</ele>
        <time>2021-07-23T10:22:53.285Z</time>
      </trkpt>
      <trkpt lat="45.44498" lon="7.01897">
        <ele>2219.4</ele>
        <time>2021-07-23T10:22:54.285Z</time>
      </trkpt>
      <trkpt lat="45.44499" lon="7.01901">
        <ele>2219.4</ele>
        <time>2021-07-23T10:22:55.285Z</time>
      </trkpt>
      <trkpt lat="45.44501" lon="7.01905">
        <ele>2219.4</ele>
        <time>2021-07-23T10:22:56.285Z</time>
      </trkpt>
      <trkpt lat="45.44502" lon="7.0191">
        <ele>2219.4</ele>
        <time>2021-07-23T10:22:57.285Z</time>
      </trkpt>
      <trkpt lat="45.44503" lon="7.01914">
        <ele>2219.4</ele>
        <time>2021-07-23T10:22:58.285Z</time>
      </trkpt>
      <trkpt lat="45.44505" lon="7.01919">
        <ele>2219.4</ele>
        <time>2021-07-23T10:22:59.285Z</time>
      </trkpt>
      <trkpt lat="45.44506" lon="7.01923">
        <ele>2219.4</ele>
        <time>2021-07-23T10:23:00.285Z</time>
      </trkpt>
      <trkpt lat="45.44507" lon="7.01928">
        <ele>2219.4</ele>
        <time>2021-07-23T10:23:01.285Z</time>
      </trkpt>
      <trkpt lat="45.44509" lon="7.01932">
        <ele>2219.4</ele>
        <time>2021-07-23T10:23:02.285Z</time>
      </trkpt>
      <trkpt lat="45.4451" lon="7.01936">
        <ele>2219.8</ele>
        <time>2021-07-23T10:23:03.285Z</time>
      </trkpt>
      <trkpt lat="45.44512" lon="7.01941">
        <ele>2220.2</ele>
        <time>2021-07-23T10:23:04.285Z</time>
      </trkpt>
      <trkpt lat="45.44513" lon="7.01945">
        <ele>2220.6</ele>
        <time>2021-07-23T10:23:05.285Z</time>
      </trkpt>
      <trkpt lat="45.44514" lon="7.0195">
        <ele>2221</ele>
        <time>2021-07-23T10:23:06.285Z</time>
      </trkpt>
      <trkpt lat="45.44515" lon="7.01955">
        <ele>2221.4</ele>
        <time>2021-07-23T10:23:07.285Z</time>
      </trkpt>
      <trkpt lat="45.44517" lon="7.01959">
        <ele>2221.4</ele>
        <time>2021-07-23T10:23:08.285Z</time>
      </trkpt>
      <trkpt lat="45.44518" lon="7.01964">
        <ele>2221.4</ele>
        <time>2021-07-23T10:23:09.285Z</time>
      </trkpt>
      <trkpt lat="45.4452" lon="7.01968">
        <ele>2221.4</ele>
        <time>2021-07-23T10:23:10.285Z</time>
      </trkpt>
      <trkpt lat="45.44521" lon="7.01972">
        <ele>2221.4</ele>
        <time>2021-07-23T10:23:11.285Z</time>
      </trkpt>
      <trkpt lat="45.44522" lon="7.01977">
        <ele>2221.4</ele>
        <time>2021-07-23T10:23:12.285Z</time>
      </trkpt>
      <trkpt lat="45.44524" lon="7.01981">
        <ele>2221.4</ele>
        <time>2021-07-23T10:23:13.285Z</time>
      </trkpt>
      <trkpt lat="45.44525" lon="7.01985">
        <ele>2221.4</ele>
        <time>2021-07-23T10:23:14.285Z</time>
      </trkpt>
      <trkpt lat="45.44526" lon="7.01989">
        <ele>2221.4</ele>
        <time>2021-07-23T10:23:15.285Z</time>
      </trkpt>
      <trkpt lat="45.44528" lon="7.01994">
        <ele>2221.4</ele>
        <time>2021-07-23T10:23:16.285Z</time>
      </trkpt>
      <trkpt lat="45.44529" lon="7.01999">
        <ele>2221.4</ele>
        <time>2021-07-23T10:23:17.285Z</time>
      </trkpt>
      <trkpt lat="45.44531" lon="7.02003">
        <ele>2221.8</ele>
        <time>2021-07-23T10:23:18.285Z</time>
      </trkpt>
      <trkpt lat="45.44532" lon="7.02008">
        <ele>2222.8</ele>
        <time>2021-07-23T10:23:19.285Z</time>
      </trkpt>
      <trkpt lat="45.44533" lon="7.02013">
        <ele>2223.2</ele>
        <time>2021-07-23T10:23:20.285Z</time>
      </trkpt>
      <trkpt lat="45.44535" lon="7.02017">
        <ele>2223.6</ele>
        <time>2021-07-23T10:23:21.285Z</time>
      </trkpt>
      <trkpt lat="45.44537" lon="7.02021">
        <ele>2223.6</ele>
        <time>2021-07-23T10:23:22.285Z</time>
      </trkpt>
      <trkpt lat="45.44538" lon="7.02026">
        <ele>2223.6</ele>
        <time>2021-07-23T10:23:23.285Z</time>
      </trkpt>
      <trkpt lat="45.44539" lon="7.0203">
        <ele>2223.6</ele>
        <time>2021-07-23T10:23:24.285Z</time>
      </trkpt>
      <trkpt lat="45.4454" lon="7.02035">
        <ele>2223.6</ele>
        <time>2021-07-23T10:23:25.285Z</time>
      </trkpt>
      <trkpt lat="45.44542" lon="7.02039">
        <ele>2223.6</ele>
        <time>2021-07-23T10:23:26.285Z</time>
      </trkpt>
      <trkpt lat="45.44543" lon="7.02043">
        <ele>2223.6</ele>
        <time>2021-07-23T10:23:27.285Z</time>
      </trkpt>
      <trkpt lat="45.44544" lon="7.02047">
        <ele>2223.6</ele>
        <time>2021-07-23T10:23:28.285Z</time>
      </trkpt>
      <trkpt lat="45.44546" lon="7.02052">
        <ele>2223.6</ele>
        <time>2021-07-23T10:23:29.285Z</time>
      </trkpt>
      <trkpt lat="45.44548" lon="7.02056">
        <ele>2223.6</ele>
        <time>2021-07-23T10:23:30.285Z</time>
      </trkpt>
      <trkpt lat="45.44549" lon="7.0206">
        <ele>2224</ele>
        <time>2021-07-23T10:23:31.285Z</time>
      </trkpt>
      <trkpt lat="45.44551" lon="7.02065">
        <ele>2224.4</ele>
        <time>2021-07-23T10:23:32.285Z</time>
      </trkpt>
      <trkpt lat="45.44552" lon="7.02069">
        <ele>2224.8</ele>
        <time>2021-07-23T10:23:33.285Z</time>
      </trkpt>
      <trkpt lat="45.44554" lon="7.02074">
        <ele>2225.2</ele>
        <time>2021-07-23T10:23:34.285Z</time>
      </trkpt>
      <trkpt lat="45.44555" lon="7.02078">
        <ele>2225.6</ele>
        <time>2021-07-23T10:23:35.285Z</time>
      </trkpt>
      <trkpt lat="45.44556" lon="7.02083">
        <ele>2225.6</ele>
        <time>2021-07-23T10:23:36.285Z</time>
      </trkpt>
      <trkpt lat="45.44558" lon="7.02088">
        <ele>2225.6</ele>
        <time>2021-07-23T10:23:37.285Z</time>
      </trkpt>
      <trkpt lat="45.44559" lon="7.02092">
        <ele>2225.6</ele>
        <time>2021-07-23T10:23:38.285Z</time>
      </trkpt>
      <trkpt lat="45.4456" lon="7.02096">
        <ele>2225.6</ele>
        <time>2021-07-23T10:23:39.285Z</time>
      </trkpt>
      <trkpt lat="45.44561" lon="7.02101">
        <ele>2225.6</ele>
        <time>2021-07-23T10:23:40.285Z</time>
      </trkpt>
      <trkpt lat="45.44562" lon="7.02105">
        <ele>2225.6</ele>
        <time>2021-07-23T10:23:41.285Z</time>
      </trkpt>
      <trkpt lat="45.44563" lon="7.02109">
        <ele>2225.6</ele>
        <time>2021-07-23T10:23:42.285Z</time>
      </trkpt>
      <trkpt lat="45.44564" lon="7.02113">
        <ele>2225.6</ele>
        <time>2021-07-23T10:23:43.285Z</time>
      </trkpt>
      <trkpt lat="45.44565" lon="7.02117">
        <ele>2226</ele>
        <time>2021-07-23T10:23:44.285Z</time>
      </trkpt>
      <trkpt lat="45.44566" lon="7.02121">
        <ele>2226.6</ele>
        <time>2021-07-23T10:23:45.285Z</time>
      </trkpt>
      <trkpt lat="45.44567" lon="7.02125">
        <ele>2227</ele>
        <time>2021-07-23T10:23:46.285Z</time>
      </trkpt>
      <trkpt lat="45.44567" lon="7.02129">
        <ele>2227.4</ele>
        <time>2021-07-23T10:23:47.285Z</time>
      </trkpt>
      <trkpt lat="45.44568" lon="7.02132">
        <ele>2228</ele>
        <time>2021-07-23T10:23:48.285Z</time>
      </trkpt>
      <trkpt lat="45.44568" lon="7.02136">
        <ele>2228</ele>
        <time>2021-07-23T10:23:49.285Z</time>
      </trkpt>
      <trkpt lat="45.44569" lon="7.0214">
        <ele>2228</ele>
        <time>2021-07-23T10:23:50.285Z</time>
      </trkpt>
      <trkpt lat="45.4457" lon="7.02144">
        <ele>2228</ele>
        <time>2021-07-23T10:23:51.285Z</time>
      </trkpt>
      <trkpt lat="45.44571" lon="7.02148">
        <ele>2228</ele>
        <time>2021-07-23T10:23:52.285Z</time>
      </trkpt>
      <trkpt lat="45.44572" lon="7.02152">
        <ele>2228.4</ele>
        <time>2021-07-23T10:23:53.285Z</time>
      </trkpt>
      <trkpt lat="45.44572" lon="7.02156">
        <ele>2228.8</ele>
        <time>2021-07-23T10:23:54.285Z</time>
      </trkpt>
      <trkpt lat="45.44573" lon="7.0216">
        <ele>2229.2</ele>
        <time>2021-07-23T10:23:55.285Z</time>
      </trkpt>
      <trkpt lat="45.44574" lon="7.02164">
        <ele>2229.6</ele>
        <time>2021-07-23T10:23:56.285Z</time>
      </trkpt>
      <trkpt lat="45.44576" lon="7.02168">
        <ele>2230.2</ele>
        <time>2021-07-23T10:23:57.285Z</time>
      </trkpt>
      <trkpt lat="45.44576" lon="7.02172">
        <ele>2230.2</ele>
        <time>2021-07-23T10:23:58.285Z</time>
      </trkpt>
      <trkpt lat="45.44578" lon="7.02176">
        <ele>2230.2</ele>
        <time>2021-07-23T10:23:59.285Z</time>
      </trkpt>
      <trkpt lat="45.44578" lon="7.0218">
        <ele>2230.2</ele>
        <time>2021-07-23T10:24:00.285Z</time>
      </trkpt>
      <trkpt lat="45.4458" lon="7.02183">
        <ele>2230.2</ele>
        <time>2021-07-23T10:24:01.285Z</time>
      </trkpt>
      <trkpt lat="45.44581" lon="7.02187">
        <ele>2230.2</ele>
        <time>2021-07-23T10:24:02.285Z</time>
      </trkpt>
      <trkpt lat="45.44582" lon="7.02191">
        <ele>2230.6</ele>
        <time>2021-07-23T10:24:03.285Z</time>
      </trkpt>
      <trkpt lat="45.44583" lon="7.02195">
        <ele>2231</ele>
        <time>2021-07-23T10:24:04.285Z</time>
      </trkpt>
      <trkpt lat="45.44585" lon="7.02198">
        <ele>2231.4</ele>
        <time>2021-07-23T10:24:05.285Z</time>
      </trkpt>
      <trkpt lat="45.44586" lon="7.02202">
        <ele>2231.8</ele>
        <time>2021-07-23T10:24:06.285Z</time>
      </trkpt>
      <trkpt lat="45.44587" lon="7.02205">
        <ele>2232.2</ele>
        <time>2021-07-23T10:24:07.285Z</time>
      </trkpt>
      <trkpt lat="45.44589" lon="7.02209">
        <ele>2232.2</ele>
        <time>2021-07-23T10:24:08.285Z</time>
      </trkpt>
      <trkpt lat="45.4459" lon="7.02212">
        <ele>2232.2</ele>
        <time>2021-07-23T10:24:09.285Z</time>
      </trkpt>
      <trkpt lat="45.44591" lon="7.02216">
        <ele>2232.2</ele>
        <time>2021-07-23T10:24:10.285Z</time>
      </trkpt>
      <trkpt lat="45.44593" lon="7.02219">
        <ele>2232.2</ele>
        <time>2021-07-23T10:24:11.285Z</time>
      </trkpt>
      <trkpt lat="45.44595" lon="7.02222">
        <ele>2232.6</ele>
        <time>2021-07-23T10:24:12.285Z</time>
      </trkpt>
      <trkpt lat="45.44597" lon="7.02226">
        <ele>2233.2</ele>
        <time>2021-07-23T10:24:13.285Z</time>
      </trkpt>
      <trkpt lat="45.44599" lon="7.02229">
        <ele>2233.6</ele>
        <time>2021-07-23T10:24:14.285Z</time>
      </trkpt>
      <trkpt lat="45.446" lon="7.02233">
        <ele>2234</ele>
        <time>2021-07-23T10:24:15.285Z</time>
      </trkpt>
      <trkpt lat="45.44602" lon="7.02236">
        <ele>2234.4</ele>
        <time>2021-07-23T10:24:16.285Z</time>
      </trkpt>
      <trkpt lat="45.44604" lon="7.0224">
        <ele>2234.4</ele>
        <time>2021-07-23T10:24:17.285Z</time>
      </trkpt>
      <trkpt lat="45.44607" lon="7.02243">
        <ele>2234.4</ele>
        <time>2021-07-23T10:24:18.285Z</time>
      </trkpt>
      <trkpt lat="45.44609" lon="7.02246">
        <ele>2234.4</ele>
        <time>2021-07-23T10:24:19.285Z</time>
      </trkpt>
      <trkpt lat="45.44611" lon="7.02249">
        <ele>2234.4</ele>
        <time>2021-07-23T10:24:20.285Z</time>
      </trkpt>
      <trkpt lat="45.44613" lon="7.02252">
        <ele>2234.4</ele>
        <time>2021-07-23T10:24:21.285Z</time>
      </trkpt>
      <trkpt lat="45.44615" lon="7.02255">
        <ele>2234.8</ele>
        <time>2021-07-23T10:24:22.285Z</time>
      </trkpt>
      <trkpt lat="45.44617" lon="7.02258">
        <ele>2235.2</ele>
        <time>2021-07-23T10:24:23.285Z</time>
      </trkpt>
      <trkpt lat="45.44619" lon="7.0226">
        <ele>2235.6</ele>
        <time>2021-07-23T10:24:24.285Z</time>
      </trkpt>
      <trkpt lat="45.44621" lon="7.02263">
        <ele>2236</ele>
        <time>2021-07-23T10:24:25.285Z</time>
      </trkpt>
      <trkpt lat="45.44623" lon="7.02266">
        <ele>2236.4</ele>
        <time>2021-07-23T10:24:26.285Z</time>
      </trkpt>
      <trkpt lat="45.44625" lon="7.02269">
        <ele>2236.4</ele>
        <time>2021-07-23T10:24:27.285Z</time>
      </trkpt>
      <trkpt lat="45.44627" lon="7.02271">
        <ele>2236.4</ele>
        <time>2021-07-23T10:24:28.285Z</time>
      </trkpt>
      <trkpt lat="45.44628" lon="7.02274">
        <ele>2236.4</ele>
        <time>2021-07-23T10:24:29.285Z</time>
      </trkpt>
      <trkpt lat="45.4463" lon="7.02277">
        <ele>2236.4</ele>
        <time>2021-07-23T10:24:30.285Z</time>
      </trkpt>
      <trkpt lat="45.44632" lon="7.0228">
        <ele>2236.4</ele>
        <time>2021-07-23T10:24:31.285Z</time>
      </trkpt>
      <trkpt lat="45.44634" lon="7.02282">
        <ele>2236.4</ele>
        <time>2021-07-23T10:24:32.285Z</time>
      </trkpt>
      <trkpt lat="45.44636" lon="7.02285">
        <ele>2237</ele>
        <time>2021-07-23T10:24:33.285Z</time>
      </trkpt>
      <trkpt lat="45.44637" lon="7.02288">
        <ele>2237.4</ele>
        <time>2021-07-23T10:24:34.285Z</time>
      </trkpt>
      <trkpt lat="45.44639" lon="7.02291">
        <ele>2237.8</ele>
        <time>2021-07-23T10:24:35.285Z</time>
      </trkpt>
      <trkpt lat="45.44641" lon="7.02294">
        <ele>2238.2</ele>
        <time>2021-07-23T10:24:36.285Z</time>
      </trkpt>
      <trkpt lat="45.44642" lon="7.02297">
        <ele>2238.6</ele>
        <time>2021-07-23T10:24:37.285Z</time>
      </trkpt>
      <trkpt lat="45.44644" lon="7.02301">
        <ele>2238.6</ele>
        <time>2021-07-23T10:24:38.285Z</time>
      </trkpt>
      <trkpt lat="45.44646" lon="7.02304">
        <ele>2238.6</ele>
        <time>2021-07-23T10:24:39.285Z</time>
      </trkpt>
      <trkpt lat="45.44647" lon="7.02307">
        <ele>2238.6</ele>
        <time>2021-07-23T10:24:40.285Z</time>
      </trkpt>
      <trkpt lat="45.44648" lon="7.0231">
        <ele>2238.6</ele>
        <time>2021-07-23T10:24:41.285Z</time>
      </trkpt>
      <trkpt lat="45.44649" lon="7.02314">
        <ele>2238.6</ele>
        <time>2021-07-23T10:24:42.285Z</time>
      </trkpt>
      <trkpt lat="45.4465" lon="7.02317">
        <ele>2238.6</ele>
        <time>2021-07-23T10:24:43.285Z</time>
      </trkpt>
      <trkpt lat="45.44652" lon="7.0232">
        <ele>2238.6</ele>
        <time>2021-07-23T10:24:44.285Z</time>
      </trkpt>
      <trkpt lat="45.44653" lon="7.02324">
        <ele>2238.6</ele>
        <time>2021-07-23T10:24:45.285Z</time>
      </trkpt>
      <trkpt lat="45.44654" lon="7.02327">
        <ele>2238.6</ele>
        <time>2021-07-23T10:24:46.285Z</time>
      </trkpt>
      <trkpt lat="45.44655" lon="7.02331">
        <ele>2239</ele>
        <time>2021-07-23T10:24:47.285Z</time>
      </trkpt>
      <trkpt lat="45.44656" lon="7.02334">
        <ele>2239.4</ele>
        <time>2021-07-23T10:24:48.285Z</time>
      </trkpt>
      <trkpt lat="45.44657" lon="7.02338">
        <ele>2239.8</ele>
        <time>2021-07-23T10:24:49.285Z</time>
      </trkpt>
      <trkpt lat="45.44658" lon="7.02341">
        <ele>2240.2</ele>
        <time>2021-07-23T10:24:50.285Z</time>
      </trkpt>
      <trkpt lat="45.44659" lon="7.02345">
        <ele>2240.6</ele>
        <time>2021-07-23T10:24:51.285Z</time>
      </trkpt>
      <trkpt lat="45.4466" lon="7.02349">
        <ele>2240.6</ele>
        <time>2021-07-23T10:24:52.285Z</time>
      </trkpt>
      <trkpt lat="45.44661" lon="7.02352">
        <ele>2240.6</ele>
        <time>2021-07-23T10:24:53.285Z</time>
      </trkpt>
      <trkpt lat="45.44662" lon="7.02356">
        <ele>2240.6</ele>
        <time>2021-07-23T10:24:54.285Z</time>
      </trkpt>
      <trkpt lat="45.44662" lon="7.0236">
        <ele>2240.6</ele>
        <time>2021-07-23T10:24:55.285Z</time>
      </trkpt>
      <trkpt lat="45.44663" lon="7.02364">
        <ele>2240.6</ele>
        <time>2021-07-23T10:24:56.285Z</time>
      </trkpt>
      <trkpt lat="45.44665" lon="7.02368">
        <ele>2240.6</ele>
        <time>2021-07-23T10:24:57.285Z</time>
      </trkpt>
      <trkpt lat="45.44666" lon="7.02371">
        <ele>2240.6</ele>
        <time>2021-07-23T10:24:58.285Z</time>
      </trkpt>
      <trkpt lat="45.44667" lon="7.02374">
        <ele>2240.6</ele>
        <time>2021-07-23T10:24:59.285Z</time>
      </trkpt>
      <trkpt lat="45.44669" lon="7.02378">
        <ele>2240.6</ele>
        <time>2021-07-23T10:25:00.285Z</time>
      </trkpt>
      <trkpt lat="45.4467" lon="7.02381">
        <ele>2240.6</ele>
        <time>2021-07-23T10:25:01.285Z</time>
      </trkpt>
      <trkpt lat="45.44672" lon="7.02384">
        <ele>2241</ele>
        <time>2021-07-23T10:25:02.285Z</time>
      </trkpt>
      <trkpt lat="45.44674" lon="7.02387">
        <ele>2241.6</ele>
        <time>2021-07-23T10:25:03.285Z</time>
      </trkpt>
      <trkpt lat="45.44676" lon="7.02391">
        <ele>2242</ele>
        <time>2021-07-23T10:25:04.285Z</time>
      </trkpt>
      <trkpt lat="45.44678" lon="7.02394">
        <ele>2242.4</ele>
        <time>2021-07-23T10:25:05.285Z</time>
      </trkpt>
      <trkpt lat="45.44679" lon="7.02398">
        <ele>2242.8</ele>
        <time>2021-07-23T10:25:06.285Z</time>
      </trkpt>
      <trkpt lat="45.44681" lon="7.02401">
        <ele>2242.8</ele>
        <time>2021-07-23T10:25:07.285Z</time>
      </trkpt>
      <trkpt lat="45.44682" lon="7.02405">
        <ele>2242.8</ele>
        <time>2021-07-23T10:25:08.285Z</time>
      </trkpt>
      <trkpt lat="45.44682" lon="7.02409">
        <ele>2242.8</ele>
        <time>2021-07-23T10:25:09.285Z</time>
      </trkpt>
      <trkpt lat="45.44683" lon="7.02412">
        <ele>2242.8</ele>
        <time>2021-07-23T10:25:10.285Z</time>
      </trkpt>
      <trkpt lat="45.44682" lon="7.02416">
        <ele>2242.8</ele>
        <time>2021-07-23T10:25:11.285Z</time>
      </trkpt>
      <trkpt lat="45.44681" lon="7.02419">
        <ele>2242.8</ele>
        <time>2021-07-23T10:25:12.285Z</time>
      </trkpt>
      <trkpt lat="45.44679" lon="7.02422">
        <ele>2242.8</ele>
        <time>2021-07-23T10:25:13.285Z</time>
      </trkpt>
      <trkpt lat="45.44676" lon="7.02423">
        <ele>2242.8</ele>
        <time>2021-07-23T10:25:14.285Z</time>
      </trkpt>
      <trkpt lat="45.44673" lon="7.02421">
        <ele>2242.8</ele>
        <time>2021-07-23T10:25:15.285Z</time>
      </trkpt>
      <trkpt lat="45.44671" lon="7.02418">
        <ele>2242.8</ele>
        <time>2021-07-23T10:25:16.285Z</time>
      </trkpt>
      <trkpt lat="45.44669" lon="7.02415">
        <ele>2243.2</ele>
        <time>2021-07-23T10:25:17.285Z</time>
      </trkpt>
      <trkpt lat="45.44668" lon="7.02412">
        <ele>2243.6</ele>
        <time>2021-07-23T10:25:18.285Z</time>
      </trkpt>
      <trkpt lat="45.44666" lon="7.02409">
        <ele>2244.2</ele>
        <time>2021-07-23T10:25:19.285Z</time>
      </trkpt>
      <trkpt lat="45.44666" lon="7.02405">
        <ele>2244.6</ele>
        <time>2021-07-23T10:25:20.285Z</time>
      </trkpt>
      <trkpt lat="45.44665" lon="7.02401">
        <ele>2245</ele>
        <time>2021-07-23T10:25:21.285Z</time>
      </trkpt>
      <trkpt lat="45.44664" lon="7.02397">
        <ele>2245</ele>
        <time>2021-07-23T10:25:22.285Z</time>
      </trkpt>
      <trkpt lat="45.44663" lon="7.02393">
        <ele>2245.4</ele>
        <time>2021-07-23T10:25:23.285Z</time>
      </trkpt>
      <trkpt lat="45.44661" lon="7.0239">
        <ele>2245.8</ele>
        <time>2021-07-23T10:25:24.285Z</time>
      </trkpt>
      <trkpt lat="45.4466" lon="7.02386">
        <ele>2246.2</ele>
        <time>2021-07-23T10:25:25.285Z</time>
      </trkpt>
      <trkpt lat="45.44659" lon="7.02383">
        <ele>2246.6</ele>
        <time>2021-07-23T10:25:26.285Z</time>
      </trkpt>
      <trkpt lat="45.44657" lon="7.02379">
        <ele>2247</ele>
        <time>2021-07-23T10:25:27.285Z</time>
      </trkpt>
      <trkpt lat="45.44656" lon="7.02376">
        <ele>2247</ele>
        <time>2021-07-23T10:25:28.285Z</time>
      </trkpt>
      <trkpt lat="45.44655" lon="7.02373">
        <ele>2247</ele>
        <time>2021-07-23T10:25:29.285Z</time>
      </trkpt>
      <trkpt lat="45.44654" lon="7.02369">
        <ele>2247</ele>
        <time>2021-07-23T10:25:30.285Z</time>
      </trkpt>
      <trkpt lat="45.44652" lon="7.02366">
        <ele>2247</ele>
        <time>2021-07-23T10:25:31.285Z</time>
      </trkpt>
      <trkpt lat="45.44651" lon="7.02363">
        <ele>2247</ele>
        <time>2021-07-23T10:25:32.285Z</time>
      </trkpt>
      <trkpt lat="45.4465" lon="7.0236">
        <ele>2247</ele>
        <time>2021-07-23T10:25:33.285Z</time>
      </trkpt>
      <trkpt lat="45.44648" lon="7.02357">
        <ele>2247</ele>
        <time>2021-07-23T10:25:34.285Z</time>
      </trkpt>
      <trkpt lat="45.44647" lon="7.02354">
        <ele>2247</ele>
        <time>2021-07-23T10:25:35.285Z</time>
      </trkpt>
      <trkpt lat="45.44645" lon="7.02351">
        <ele>2247</ele>
        <time>2021-07-23T10:25:36.285Z</time>
      </trkpt>
      <trkpt lat="45.44644" lon="7.02348">
        <ele>2247.6</ele>
        <time>2021-07-23T10:25:37.285Z</time>
      </trkpt>
      <trkpt lat="45.44643" lon="7.02344">
        <ele>2248</ele>
        <time>2021-07-23T10:25:38.285Z</time>
      </trkpt>
      <trkpt lat="45.44641" lon="7.02342">
        <ele>2248.4</ele>
        <time>2021-07-23T10:25:39.285Z</time>
      </trkpt>
      <trkpt lat="45.4464" lon="7.02338">
        <ele>2248.8</ele>
        <time>2021-07-23T10:25:40.285Z</time>
      </trkpt>
      <trkpt lat="45.44638" lon="7.02336">
        <ele>2249.4</ele>
        <time>2021-07-23T10:25:41.285Z</time>
      </trkpt>
      <trkpt lat="45.44637" lon="7.02333">
        <ele>2249.4</ele>
        <time>2021-07-23T10:25:42.285Z</time>
      </trkpt>
      <trkpt lat="45.44636" lon="7.0233">
        <ele>2249.4</ele>
        <time>2021-07-23T10:25:43.285Z</time>
      </trkpt>
      <trkpt lat="45.44634" lon="7.02327">
        <ele>2249.4</ele>
        <time>2021-07-23T10:25:44.285Z</time>
      </trkpt>
      <trkpt lat="45.44633" lon="7.02325">
        <ele>2249.4</ele>
        <time>2021-07-23T10:25:45.285Z</time>
      </trkpt>
      <trkpt lat="45.44631" lon="7.02322">
        <ele>2249.4</ele>
        <time>2021-07-23T10:25:46.285Z</time>
      </trkpt>
      <trkpt lat="45.4463" lon="7.0232">
        <ele>2250.2</ele>
        <time>2021-07-23T10:25:47.285Z</time>
      </trkpt>
      <trkpt lat="45.44628" lon="7.02317">
        <ele>2250.6</ele>
        <time>2021-07-23T10:25:48.285Z</time>
      </trkpt>
      <trkpt lat="45.44626" lon="7.02315">
        <ele>2251</ele>
        <time>2021-07-23T10:25:49.285Z</time>
      </trkpt>
      <trkpt lat="45.44624" lon="7.02313">
        <ele>2251.4</ele>
        <time>2021-07-23T10:25:50.285Z</time>
      </trkpt>
      <trkpt lat="45.44623" lon="7.0231">
        <ele>2251.4</ele>
        <time>2021-07-23T10:25:51.285Z</time>
      </trkpt>
      <trkpt lat="45.44621" lon="7.02308">
        <ele>2251.4</ele>
        <time>2021-07-23T10:25:52.285Z</time>
      </trkpt>
      <trkpt lat="45.44619" lon="7.02305">
        <ele>2251.4</ele>
        <time>2021-07-23T10:25:53.285Z</time>
      </trkpt>
      <trkpt lat="45.44617" lon="7.02303">
        <ele>2251.4</ele>
        <time>2021-07-23T10:25:54.285Z</time>
      </trkpt>
      <trkpt lat="45.44615" lon="7.02301">
        <ele>2251.4</ele>
        <time>2021-07-23T10:25:55.285Z</time>
      </trkpt>
      <trkpt lat="45.44613" lon="7.02299">
        <ele>2252</ele>
        <time>2021-07-23T10:25:56.285Z</time>
      </trkpt>
      <trkpt lat="45.44611" lon="7.02297">
        <ele>2252.4</ele>
        <time>2021-07-23T10:25:57.285Z</time>
      </trkpt>
      <trkpt lat="45.44609" lon="7.02294">
        <ele>2252.8</ele>
        <time>2021-07-23T10:25:58.285Z</time>
      </trkpt>
      <trkpt lat="45.44607" lon="7.02293">
        <ele>2253.2</ele>
        <time>2021-07-23T10:25:59.285Z</time>
      </trkpt>
      <trkpt lat="45.44604" lon="7.02291">
        <ele>2253.6</ele>
        <time>2021-07-23T10:26:00.285Z</time>
      </trkpt>
      <trkpt lat="45.44603" lon="7.02289">
        <ele>2253.6</ele>
        <time>2021-07-23T10:26:01.285Z</time>
      </trkpt>
      <trkpt lat="45.446" lon="7.02287">
        <ele>2253.6</ele>
        <time>2021-07-23T10:26:02.285Z</time>
      </trkpt>
      <trkpt lat="45.44598" lon="7.02284">
        <ele>2253.6</ele>
        <time>2021-07-23T10:26:03.285Z</time>
      </trkpt>
      <trkpt lat="45.44596" lon="7.02282">
        <ele>2253.6</ele>
        <time>2021-07-23T10:26:04.285Z</time>
      </trkpt>
      <trkpt lat="45.44594" lon="7.0228">
        <ele>2253.6</ele>
        <time>2021-07-23T10:26:05.285Z</time>
      </trkpt>
      <trkpt lat="45.44592" lon="7.02278">
        <ele>2253.6</ele>
        <time>2021-07-23T10:26:06.285Z</time>
      </trkpt>
      <trkpt lat="45.4459" lon="7.02276">
        <ele>2253.6</ele>
        <time>2021-07-23T10:26:07.285Z</time>
      </trkpt>
      <trkpt lat="45.44588" lon="7.02274">
        <ele>2253.6</ele>
        <time>2021-07-23T10:26:08.285Z</time>
      </trkpt>
      <trkpt lat="45.44586" lon="7.02272">
        <ele>2253.6</ele>
        <time>2021-07-23T10:26:09.285Z</time>
      </trkpt>
      <trkpt lat="45.44583" lon="7.0227">
        <ele>2254</ele>
        <time>2021-07-23T10:26:10.285Z</time>
      </trkpt>
      <trkpt lat="45.44581" lon="7.02268">
        <ele>2254.6</ele>
        <time>2021-07-23T10:26:11.285Z</time>
      </trkpt>
      <trkpt lat="45.44578" lon="7.02266">
        <ele>2255.4</ele>
        <time>2021-07-23T10:26:12.285Z</time>
      </trkpt>
      <trkpt lat="45.44576" lon="7.02263">
        <ele>2255.8</ele>
        <time>2021-07-23T10:26:13.285Z</time>
      </trkpt>
      <trkpt lat="45.44574" lon="7.02261">
        <ele>2255.8</ele>
        <time>2021-07-23T10:26:14.285Z</time>
      </trkpt>
      <trkpt lat="45.44572" lon="7.02259">
        <ele>2255.8</ele>
        <time>2021-07-23T10:26:15.285Z</time>
      </trkpt>
      <trkpt lat="45.4457" lon="7.02256">
        <ele>2255.8</ele>
        <time>2021-07-23T10:26:16.285Z</time>
      </trkpt>
      <trkpt lat="45.44568" lon="7.02254">
        <ele>2255.8</ele>
        <time>2021-07-23T10:26:17.285Z</time>
      </trkpt>
      <trkpt lat="45.44566" lon="7.02252">
        <ele>2255.8</ele>
        <time>2021-07-23T10:26:18.285Z</time>
      </trkpt>
      <trkpt lat="45.44564" lon="7.0225">
        <ele>2255.8</ele>
        <time>2021-07-23T10:26:19.285Z</time>
      </trkpt>
      <trkpt lat="45.44562" lon="7.02248">
        <ele>2256.2</ele>
        <time>2021-07-23T10:26:20.285Z</time>
      </trkpt>
      <trkpt lat="45.44559" lon="7.02245">
        <ele>2256.6</ele>
        <time>2021-07-23T10:26:21.285Z</time>
      </trkpt>
      <trkpt lat="45.44557" lon="7.02243">
        <ele>2257</ele>
        <time>2021-07-23T10:26:22.285Z</time>
      </trkpt>
      <trkpt lat="45.44555" lon="7.02241">
        <ele>2257.4</ele>
        <time>2021-07-23T10:26:23.285Z</time>
      </trkpt>
      <trkpt lat="45.44553" lon="7.02239">
        <ele>2258</ele>
        <time>2021-07-23T10:26:24.285Z</time>
      </trkpt>
      <trkpt lat="45.44551" lon="7.02237">
        <ele>2258</ele>
        <time>2021-07-23T10:26:25.285Z</time>
      </trkpt>
      <trkpt lat="45.44549" lon="7.02234">
        <ele>2258</ele>
        <time>2021-07-23T10:26:26.285Z</time>
      </trkpt>
      <trkpt lat="45.44547" lon="7.02232">
        <ele>2258</ele>
        <time>2021-07-23T10:26:27.285Z</time>
      </trkpt>
      <trkpt lat="45.44545" lon="7.02229">
        <ele>2258</ele>
        <time>2021-07-23T10:26:28.285Z</time>
      </trkpt>
      <trkpt lat="45.44543" lon="7.02226">
        <ele>2258</ele>
        <time>2021-07-23T10:26:29.285Z</time>
      </trkpt>
      <trkpt lat="45.44541" lon="7.02224">
        <ele>2258</ele>
        <time>2021-07-23T10:26:30.285Z</time>
      </trkpt>
      <trkpt lat="45.44539" lon="7.02221">
        <ele>2258.4</ele>
        <time>2021-07-23T10:26:31.285Z</time>
      </trkpt>
      <trkpt lat="45.44538" lon="7.02218">
        <ele>2258.8</ele>
        <time>2021-07-23T10:26:32.285Z</time>
      </trkpt>
      <trkpt lat="45.44536" lon="7.02216">
        <ele>2259.2</ele>
        <time>2021-07-23T10:26:33.285Z</time>
      </trkpt>
      <trkpt lat="45.44535" lon="7.02213">
        <ele>2259.6</ele>
        <time>2021-07-23T10:26:34.285Z</time>
      </trkpt>
      <trkpt lat="45.44533" lon="7.0221">
        <ele>2260</ele>
        <time>2021-07-23T10:26:35.285Z</time>
      </trkpt>
      <trkpt lat="45.44531" lon="7.02207">
        <ele>2260</ele>
        <time>2021-07-23T10:26:36.285Z</time>
      </trkpt>
      <trkpt lat="45.44529" lon="7.02204">
        <ele>2260</ele>
        <time>2021-07-23T10:26:37.285Z</time>
      </trkpt>
      <trkpt lat="45.44527" lon="7.02201">
        <ele>2260</ele>
        <time>2021-07-23T10:26:38.285Z</time>
      </trkpt>
      <trkpt lat="45.44526" lon="7.02198">
        <ele>2260</ele>
        <time>2021-07-23T10:26:39.285Z</time>
      </trkpt>
      <trkpt lat="45.44524" lon="7.02194">
        <ele>2260</ele>
        <time>2021-07-23T10:26:40.285Z</time>
      </trkpt>
      <trkpt lat="45.44523" lon="7.02192">
        <ele>2260</ele>
        <time>2021-07-23T10:26:41.285Z</time>
      </trkpt>
      <trkpt lat="45.44522" lon="7.02188">
        <ele>2260</ele>
        <time>2021-07-23T10:26:42.285Z</time>
      </trkpt>
      <trkpt lat="45.4452" lon="7.02185">
        <ele>2260</ele>
        <time>2021-07-23T10:26:43.285Z</time>
      </trkpt>
      <trkpt lat="45.44519" lon="7.02182">
        <ele>2260.4</ele>
        <time>2021-07-23T10:26:44.285Z</time>
      </trkpt>
      <trkpt lat="45.44518" lon="7.02179">
        <ele>2261</ele>
        <time>2021-07-23T10:26:45.285Z</time>
      </trkpt>
      <trkpt lat="45.44517" lon="7.02176">
        <ele>2261.4</ele>
        <time>2021-07-23T10:26:46.285Z</time>
      </trkpt>
      <trkpt lat="45.44516" lon="7.02173">
        <ele>2261.8</ele>
        <time>2021-07-23T10:26:47.285Z</time>
      </trkpt>
      <trkpt lat="45.44514" lon="7.0217">
        <ele>2262.4</ele>
        <time>2021-07-23T10:26:48.285Z</time>
      </trkpt>
      <trkpt lat="45.44513" lon="7.02167">
        <ele>2262.4</ele>
        <time>2021-07-23T10:26:49.285Z</time>
      </trkpt>
      <trkpt lat="45.44512" lon="7.02164">
        <ele>2262.4</ele>
        <time>2021-07-23T10:26:50.285Z</time>
      </trkpt>
      <trkpt lat="45.44511" lon="7.02161">
        <ele>2262.8</ele>
        <time>2021-07-23T10:26:51.285Z</time>
      </trkpt>
      <trkpt lat="45.4451" lon="7.02158">
        <ele>2263.2</ele>
        <time>2021-07-23T10:26:52.285Z</time>
      </trkpt>
      <trkpt lat="45.44508" lon="7.02154">
        <ele>2263.6</ele>
        <time>2021-07-23T10:26:53.285Z</time>
      </trkpt>
      <trkpt lat="45.44507" lon="7.02151">
        <ele>2264</ele>
        <time>2021-07-23T10:26:54.285Z</time>
      </trkpt>
      <trkpt lat="45.44506" lon="7.02148">
        <ele>2264.4</ele>
        <time>2021-07-23T10:26:55.285Z</time>
      </trkpt>
      <trkpt lat="45.44505" lon="7.02145">
        <ele>2264.4</ele>
        <time>2021-07-23T10:26:56.285Z</time>
      </trkpt>
      <trkpt lat="45.44504" lon="7.02142">
        <ele>2264.4</ele>
        <time>2021-07-23T10:26:57.285Z</time>
      </trkpt>
      <trkpt lat="45.44502" lon="7.02139">
        <ele>2264.4</ele>
        <time>2021-07-23T10:26:58.285Z</time>
      </trkpt>
      <trkpt lat="45.44501" lon="7.02136">
        <ele>2264.4</ele>
        <time>2021-07-23T10:26:59.285Z</time>
      </trkpt>
      <trkpt lat="45.445" lon="7.02133">
        <ele>2264.8</ele>
        <time>2021-07-23T10:27:00.285Z</time>
      </trkpt>
      <trkpt lat="45.44498" lon="7.02131">
        <ele>2265.2</ele>
        <time>2021-07-23T10:27:01.285Z</time>
      </trkpt>
      <trkpt lat="45.44496" lon="7.02128">
        <ele>2266</ele>
        <time>2021-07-23T10:27:02.285Z</time>
      </trkpt>
      <trkpt lat="45.44495" lon="7.02125">
        <ele>2266.6</ele>
        <time>2021-07-23T10:27:03.285Z</time>
      </trkpt>
      <trkpt lat="45.44493" lon="7.02122">
        <ele>2266.6</ele>
        <time>2021-07-23T10:27:04.285Z</time>
      </trkpt>
      <trkpt lat="45.44492" lon="7.02119">
        <ele>2266.6</ele>
        <time>2021-07-23T10:27:05.285Z</time>
      </trkpt>
      <trkpt lat="45.4449" lon="7.02116">
        <ele>2266.6</ele>
        <time>2021-07-23T10:27:06.285Z</time>
      </trkpt>
      <trkpt lat="45.44489" lon="7.02114">
        <ele>2266.6</ele>
        <time>2021-07-23T10:27:07.285Z</time>
      </trkpt>
      <trkpt lat="45.44488" lon="7.02111">
        <ele>2266.6</ele>
        <time>2021-07-23T10:27:08.285Z</time>
      </trkpt>
      <trkpt lat="45.44486" lon="7.02108">
        <ele>2266.6</ele>
        <time>2021-07-23T10:27:09.285Z</time>
      </trkpt>
      <trkpt lat="45.44484" lon="7.02106">
        <ele>2267</ele>
        <time>2021-07-23T10:27:10.285Z</time>
      </trkpt>
      <trkpt lat="45.44482" lon="7.02103">
        <ele>2267.4</ele>
        <time>2021-07-23T10:27:11.285Z</time>
      </trkpt>
      <trkpt lat="45.44481" lon="7.021">
        <ele>2267.8</ele>
        <time>2021-07-23T10:27:12.285Z</time>
      </trkpt>
      <trkpt lat="45.44479" lon="7.02098">
        <ele>2268.2</ele>
        <time>2021-07-23T10:27:13.285Z</time>
      </trkpt>
      <trkpt lat="45.44477" lon="7.02095">
        <ele>2268.6</ele>
        <time>2021-07-23T10:27:14.285Z</time>
      </trkpt>
      <trkpt lat="45.44476" lon="7.02092">
        <ele>2268.6</ele>
        <time>2021-07-23T10:27:15.285Z</time>
      </trkpt>
      <trkpt lat="45.44474" lon="7.02089">
        <ele>2268.6</ele>
        <time>2021-07-23T10:27:16.285Z</time>
      </trkpt>
      <trkpt lat="45.44472" lon="7.02086">
        <ele>2268.6</ele>
        <time>2021-07-23T10:27:17.285Z</time>
      </trkpt>
      <trkpt lat="45.44471" lon="7.02084">
        <ele>2268.6</ele>
        <time>2021-07-23T10:27:18.285Z</time>
      </trkpt>
      <trkpt lat="45.44469" lon="7.02081">
        <ele>2268.6</ele>
        <time>2021-07-23T10:27:19.285Z</time>
      </trkpt>
      <trkpt lat="45.44467" lon="7.02079">
        <ele>2268.6</ele>
        <time>2021-07-23T10:27:20.285Z</time>
      </trkpt>
      <trkpt lat="45.44466" lon="7.02076">
        <ele>2269.2</ele>
        <time>2021-07-23T10:27:21.285Z</time>
      </trkpt>
      <trkpt lat="45.44464" lon="7.02074">
        <ele>2269.6</ele>
        <time>2021-07-23T10:27:22.285Z</time>
      </trkpt>
      <trkpt lat="45.44463" lon="7.02072">
        <ele>2270</ele>
        <time>2021-07-23T10:27:23.285Z</time>
      </trkpt>
      <trkpt lat="45.44461" lon="7.02069">
        <ele>2270.4</ele>
        <time>2021-07-23T10:27:24.285Z</time>
      </trkpt>
      <trkpt lat="45.4446" lon="7.02066">
        <ele>2270.8</ele>
        <time>2021-07-23T10:27:25.285Z</time>
      </trkpt>
      <trkpt lat="45.44458" lon="7.02063">
        <ele>2270.8</ele>
        <time>2021-07-23T10:27:26.285Z</time>
      </trkpt>
      <trkpt lat="45.44457" lon="7.0206">
        <ele>2270.8</ele>
        <time>2021-07-23T10:27:27.285Z</time>
      </trkpt>
      <trkpt lat="45.44455" lon="7.02058">
        <ele>2270.8</ele>
        <time>2021-07-23T10:27:28.285Z</time>
      </trkpt>
      <trkpt lat="45.44453" lon="7.02055">
        <ele>2270.8</ele>
        <time>2021-07-23T10:27:29.285Z</time>
      </trkpt>
      <trkpt lat="45.44451" lon="7.02052">
        <ele>2270.8</ele>
        <time>2021-07-23T10:27:30.285Z</time>
      </trkpt>
      <trkpt lat="45.44449" lon="7.0205">
        <ele>2271.2</ele>
        <time>2021-07-23T10:27:31.285Z</time>
      </trkpt>
      <trkpt lat="45.44448" lon="7.02047">
        <ele>2271.8</ele>
        <time>2021-07-23T10:27:32.285Z</time>
      </trkpt>
      <trkpt lat="45.44447" lon="7.02044">
        <ele>2272.2</ele>
        <time>2021-07-23T10:27:33.285Z</time>
      </trkpt>
      <trkpt lat="45.44445" lon="7.02042">
        <ele>2272.6</ele>
        <time>2021-07-23T10:27:34.285Z</time>
      </trkpt>
      <trkpt lat="45.44444" lon="7.02039">
        <ele>2273</ele>
        <time>2021-07-23T10:27:35.285Z</time>
      </trkpt>
      <trkpt lat="45.44442" lon="7.02036">
        <ele>2273</ele>
        <time>2021-07-23T10:27:36.285Z</time>
      </trkpt>
      <trkpt lat="45.4444" lon="7.02034">
        <ele>2273</ele>
        <time>2021-07-23T10:27:37.285Z</time>
      </trkpt>
      <trkpt lat="45.44439" lon="7.02032">
        <ele>2273</ele>
        <time>2021-07-23T10:27:38.285Z</time>
      </trkpt>
      <trkpt lat="45.44437" lon="7.02028">
        <ele>2273.4</ele>
        <time>2021-07-23T10:27:39.285Z</time>
      </trkpt>
      <trkpt lat="45.44436" lon="7.02026">
        <ele>2273.8</ele>
        <time>2021-07-23T10:27:40.285Z</time>
      </trkpt>
      <trkpt lat="45.44434" lon="7.02023">
        <ele>2274.2</ele>
        <time>2021-07-23T10:27:41.285Z</time>
      </trkpt>
      <trkpt lat="45.44432" lon="7.0202">
        <ele>2274.6</ele>
        <time>2021-07-23T10:27:42.285Z</time>
      </trkpt>
      <trkpt lat="45.44431" lon="7.02018">
        <ele>2275</ele>
        <time>2021-07-23T10:27:43.285Z</time>
      </trkpt>
      <trkpt lat="45.44429" lon="7.02015">
        <ele>2275</ele>
        <time>2021-07-23T10:27:44.285Z</time>
      </trkpt>
      <trkpt lat="45.44428" lon="7.02012">
        <ele>2275</ele>
        <time>2021-07-23T10:27:45.285Z</time>
      </trkpt>
      <trkpt lat="45.44426" lon="7.0201">
        <ele>2275</ele>
        <time>2021-07-23T10:27:46.285Z</time>
      </trkpt>
      <trkpt lat="45.44424" lon="7.02008">
        <ele>2275</ele>
        <time>2021-07-23T10:27:47.285Z</time>
      </trkpt>
      <trkpt lat="45.44423" lon="7.02004">
        <ele>2275</ele>
        <time>2021-07-23T10:27:48.285Z</time>
      </trkpt>
      <trkpt lat="45.44421" lon="7.02002">
        <ele>2275</ele>
        <time>2021-07-23T10:27:49.285Z</time>
      </trkpt>
      <trkpt lat="45.44419" lon="7.01999">
        <ele>2275</ele>
        <time>2021-07-23T10:27:50.285Z</time>
      </trkpt>
      <trkpt lat="45.44418" lon="7.01996">
        <ele>2275</ele>
        <time>2021-07-23T10:27:51.285Z</time>
      </trkpt>
      <trkpt lat="45.44416" lon="7.01993">
        <ele>2276</ele>
        <time>2021-07-23T10:27:52.285Z</time>
      </trkpt>
      <trkpt lat="45.44414" lon="7.01991">
        <ele>2276.4</ele>
        <time>2021-07-23T10:27:53.285Z</time>
      </trkpt>
      <trkpt lat="45.44413" lon="7.01988">
        <ele>2276.8</ele>
        <time>2021-07-23T10:27:54.285Z</time>
      </trkpt>
      <trkpt lat="45.44411" lon="7.01986">
        <ele>2277.4</ele>
        <time>2021-07-23T10:27:55.285Z</time>
      </trkpt>
      <trkpt lat="45.4441" lon="7.01983">
        <ele>2277.4</ele>
        <time>2021-07-23T10:27:56.285Z</time>
      </trkpt>
      <trkpt lat="45.44408" lon="7.01981">
        <ele>2277.4</ele>
        <time>2021-07-23T10:27:57.285Z</time>
      </trkpt>
      <trkpt lat="45.44406" lon="7.01978">
        <ele>2277.4</ele>
        <time>2021-07-23T10:27:58.285Z</time>
      </trkpt>
      <trkpt lat="45.44405" lon="7.01976">
        <ele>2277.4</ele>
        <time>2021-07-23T10:27:59.285Z</time>
      </trkpt>
      <trkpt lat="45.44403" lon="7.01973">
        <ele>2277.4</ele>
        <time>2021-07-23T10:28:00.285Z</time>
      </trkpt>
      <trkpt lat="45.44401" lon="7.01971">
        <ele>2277.4</ele>
        <time>2021-07-23T10:28:01.285Z</time>
      </trkpt>
      <trkpt lat="45.444" lon="7.01968">
        <ele>2277.8</ele>
        <time>2021-07-23T10:28:02.285Z</time>
      </trkpt>
      <trkpt lat="45.44398" lon="7.01965">
        <ele>2278.2</ele>
        <time>2021-07-23T10:28:03.285Z</time>
      </trkpt>
      <trkpt lat="45.44396" lon="7.01963">
        <ele>2278.6</ele>
        <time>2021-07-23T10:28:04.285Z</time>
      </trkpt>
      <trkpt lat="45.44394" lon="7.01961">
        <ele>2279</ele>
        <time>2021-07-23T10:28:05.285Z</time>
      </trkpt>
      <trkpt lat="45.44392" lon="7.01959">
        <ele>2279.4</ele>
        <time>2021-07-23T10:28:06.285Z</time>
      </trkpt>
      <trkpt lat="45.44391" lon="7.01957">
        <ele>2279.4</ele>
        <time>2021-07-23T10:28:07.285Z</time>
      </trkpt>
      <trkpt lat="45.44389" lon="7.01954">
        <ele>2279.4</ele>
        <time>2021-07-23T10:28:08.285Z</time>
      </trkpt>
      <trkpt lat="45.44387" lon="7.01952">
        <ele>2279.4</ele>
        <time>2021-07-23T10:28:09.285Z</time>
      </trkpt>
      <trkpt lat="45.44385" lon="7.0195">
        <ele>2279.4</ele>
        <time>2021-07-23T10:28:10.285Z</time>
      </trkpt>
      <trkpt lat="45.44383" lon="7.01948">
        <ele>2279.4</ele>
        <time>2021-07-23T10:28:11.285Z</time>
      </trkpt>
      <trkpt lat="45.44381" lon="7.01945">
        <ele>2279.4</ele>
        <time>2021-07-23T10:28:12.285Z</time>
      </trkpt>
      <trkpt lat="45.4438" lon="7.01943">
        <ele>2279.4</ele>
        <time>2021-07-23T10:28:13.285Z</time>
      </trkpt>
      <trkpt lat="45.44378" lon="7.0194">
        <ele>2279.4</ele>
        <time>2021-07-23T10:28:14.285Z</time>
      </trkpt>
      <trkpt lat="45.44376" lon="7.01938">
        <ele>2279.4</ele>
        <time>2021-07-23T10:28:15.285Z</time>
      </trkpt>
      <trkpt lat="45.44374" lon="7.01935">
        <ele>2279.4</ele>
        <time>2021-07-23T10:28:16.285Z</time>
      </trkpt>
      <trkpt lat="45.44373" lon="7.01932">
        <ele>2279.4</ele>
        <time>2021-07-23T10:28:17.285Z</time>
      </trkpt>
      <trkpt lat="45.44371" lon="7.0193">
        <ele>2279.8</ele>
        <time>2021-07-23T10:28:18.285Z</time>
      </trkpt>
      <trkpt lat="45.44369" lon="7.01928">
        <ele>2280.2</ele>
        <time>2021-07-23T10:28:19.285Z</time>
      </trkpt>
      <trkpt lat="45.44367" lon="7.01925">
        <ele>2280.6</ele>
        <time>2021-07-23T10:28:20.285Z</time>
      </trkpt>
      <trkpt lat="45.44365" lon="7.01923">
        <ele>2281</ele>
        <time>2021-07-23T10:28:21.285Z</time>
      </trkpt>
      <trkpt lat="45.44362" lon="7.01922">
        <ele>2281.4</ele>
        <time>2021-07-23T10:28:22.285Z</time>
      </trkpt>
      <trkpt lat="45.4436" lon="7.01919">
        <ele>2281.4</ele>
        <time>2021-07-23T10:28:23.285Z</time>
      </trkpt>
      <trkpt lat="45.44357" lon="7.01916">
        <ele>2281.4</ele>
        <time>2021-07-23T10:28:24.285Z</time>
      </trkpt>
      <trkpt lat="45.44355" lon="7.01914">
        <ele>2281.4</ele>
        <time>2021-07-23T10:28:25.285Z</time>
      </trkpt>
      <trkpt lat="45.44353" lon="7.01912">
        <ele>2281.4</ele>
        <time>2021-07-23T10:28:26.285Z</time>
      </trkpt>
      <trkpt lat="45.4435" lon="7.01911">
        <ele>2282</ele>
        <time>2021-07-23T10:28:27.285Z</time>
      </trkpt>
      <trkpt lat="45.44348" lon="7.01909">
        <ele>2282.4</ele>
        <time>2021-07-23T10:28:28.285Z</time>
      </trkpt>
      <trkpt lat="45.44345" lon="7.01907">
        <ele>2282.8</ele>
        <time>2021-07-23T10:28:29.285Z</time>
      </trkpt>
      <trkpt lat="45.44343" lon="7.01906">
        <ele>2283.2</ele>
        <time>2021-07-23T10:28:30.285Z</time>
      </trkpt>
      <trkpt lat="45.44341" lon="7.01904">
        <ele>2283.6</ele>
        <time>2021-07-23T10:28:31.285Z</time>
      </trkpt>
      <trkpt lat="45.44338" lon="7.01902">
        <ele>2283.6</ele>
        <time>2021-07-23T10:28:32.285Z</time>
      </trkpt>
      <trkpt lat="45.44335" lon="7.01901">
        <ele>2283.6</ele>
        <time>2021-07-23T10:28:33.285Z</time>
      </trkpt>
      <trkpt lat="45.44332" lon="7.019">
        <ele>2283.6</ele>
        <time>2021-07-23T10:28:34.285Z</time>
      </trkpt>
      <trkpt lat="45.4433" lon="7.01898">
        <ele>2283.6</ele>
        <time>2021-07-23T10:28:35.285Z</time>
      </trkpt>
      <trkpt lat="45.44327" lon="7.01896">
        <ele>2283.6</ele>
        <time>2021-07-23T10:28:36.285Z</time>
      </trkpt>
      <trkpt lat="45.44325" lon="7.01894">
        <ele>2283.6</ele>
        <time>2021-07-23T10:28:37.285Z</time>
      </trkpt>
      <trkpt lat="45.44322" lon="7.01892">
        <ele>2283.6</ele>
        <time>2021-07-23T10:28:38.285Z</time>
      </trkpt>
      <trkpt lat="45.44319" lon="7.01891">
        <ele>2283.6</ele>
        <time>2021-07-23T10:28:39.285Z</time>
      </trkpt>
      <trkpt lat="45.44317" lon="7.01889">
        <ele>2284.2</ele>
        <time>2021-07-23T10:28:40.285Z</time>
      </trkpt>
      <trkpt lat="45.44315" lon="7.01887">
        <ele>2285</ele>
        <time>2021-07-23T10:28:41.285Z</time>
      </trkpt>
      <trkpt lat="45.44312" lon="7.01885">
        <ele>2285.4</ele>
        <time>2021-07-23T10:28:42.285Z</time>
      </trkpt>
      <trkpt lat="45.4431" lon="7.01883">
        <ele>2285.8</ele>
        <time>2021-07-23T10:28:43.285Z</time>
      </trkpt>
      <trkpt lat="45.44307" lon="7.01881">
        <ele>2285.8</ele>
        <time>2021-07-23T10:28:44.285Z</time>
      </trkpt>
      <trkpt lat="45.44305" lon="7.01879">
        <ele>2285.8</ele>
        <time>2021-07-23T10:28:45.285Z</time>
      </trkpt>
      <trkpt lat="45.44302" lon="7.01877">
        <ele>2285.8</ele>
        <time>2021-07-23T10:28:46.285Z</time>
      </trkpt>
      <trkpt lat="45.443" lon="7.01874">
        <ele>2285.8</ele>
        <time>2021-07-23T10:28:47.285Z</time>
      </trkpt>
      <trkpt lat="45.44298" lon="7.01872">
        <ele>2285.8</ele>
        <time>2021-07-23T10:28:48.285Z</time>
      </trkpt>
      <trkpt lat="45.44295" lon="7.0187">
        <ele>2285.8</ele>
        <time>2021-07-23T10:28:49.285Z</time>
      </trkpt>
      <trkpt lat="45.44293" lon="7.01868">
        <ele>2286.2</ele>
        <time>2021-07-23T10:28:50.285Z</time>
      </trkpt>
      <trkpt lat="45.44291" lon="7.01866">
        <ele>2286.6</ele>
        <time>2021-07-23T10:28:51.285Z</time>
      </trkpt>
      <trkpt lat="45.44289" lon="7.01864">
        <ele>2287</ele>
        <time>2021-07-23T10:28:52.285Z</time>
      </trkpt>
      <trkpt lat="45.44287" lon="7.01862">
        <ele>2287.4</ele>
        <time>2021-07-23T10:28:53.285Z</time>
      </trkpt>
      <trkpt lat="45.44285" lon="7.01859">
        <ele>2287.8</ele>
        <time>2021-07-23T10:28:54.285Z</time>
      </trkpt>
      <trkpt lat="45.44283" lon="7.01856">
        <ele>2287.8</ele>
        <time>2021-07-23T10:28:55.285Z</time>
      </trkpt>
      <trkpt lat="45.44281" lon="7.01853">
        <ele>2287.8</ele>
        <time>2021-07-23T10:28:56.285Z</time>
      </trkpt>
      <trkpt lat="45.4428" lon="7.01849">
        <ele>2287.8</ele>
        <time>2021-07-23T10:28:57.285Z</time>
      </trkpt>
      <trkpt lat="45.44279" lon="7.01846">
        <ele>2287.8</ele>
        <time>2021-07-23T10:28:58.285Z</time>
      </trkpt>
      <trkpt lat="45.44278" lon="7.01842">
        <ele>2287.8</ele>
        <time>2021-07-23T10:28:59.285Z</time>
      </trkpt>
      <trkpt lat="45.44278" lon="7.01838">
        <ele>2288.4</ele>
        <time>2021-07-23T10:29:00.285Z</time>
      </trkpt>
      <trkpt lat="45.44278" lon="7.01834">
        <ele>2288.8</ele>
        <time>2021-07-23T10:29:01.285Z</time>
      </trkpt>
      <trkpt lat="45.44278" lon="7.0183">
        <ele>2289.2</ele>
        <time>2021-07-23T10:29:02.285Z</time>
      </trkpt>
      <trkpt lat="45.44279" lon="7.01826">
        <ele>2289.8</ele>
        <time>2021-07-23T10:29:03.285Z</time>
      </trkpt>
      <trkpt lat="45.44279" lon="7.01822">
        <ele>2290.2</ele>
        <time>2021-07-23T10:29:04.285Z</time>
      </trkpt>
      <trkpt lat="45.4428" lon="7.01818">
        <ele>2290.2</ele>
        <time>2021-07-23T10:29:05.285Z</time>
      </trkpt>
      <trkpt lat="45.44282" lon="7.01814">
        <ele>2290.2</ele>
        <time>2021-07-23T10:29:06.285Z</time>
      </trkpt>
      <trkpt lat="45.44283" lon="7.01811">
        <ele>2290.2</ele>
        <time>2021-07-23T10:29:07.285Z</time>
      </trkpt>
      <trkpt lat="45.44284" lon="7.01807">
        <ele>2290.2</ele>
        <time>2021-07-23T10:29:08.285Z</time>
      </trkpt>
      <trkpt lat="45.44286" lon="7.01804">
        <ele>2290.2</ele>
        <time>2021-07-23T10:29:09.285Z</time>
      </trkpt>
      <trkpt lat="45.44287" lon="7.018">
        <ele>2290.6</ele>
        <time>2021-07-23T10:29:10.285Z</time>
      </trkpt>
      <trkpt lat="45.44288" lon="7.01796">
        <ele>2291</ele>
        <time>2021-07-23T10:29:11.285Z</time>
      </trkpt>
      <trkpt lat="45.4429" lon="7.01793">
        <ele>2291.4</ele>
        <time>2021-07-23T10:29:12.285Z</time>
      </trkpt>
      <trkpt lat="45.44291" lon="7.0179">
        <ele>2291.8</ele>
        <time>2021-07-23T10:29:13.285Z</time>
      </trkpt>
      <trkpt lat="45.44292" lon="7.01786">
        <ele>2292.2</ele>
        <time>2021-07-23T10:29:14.285Z</time>
      </trkpt>
      <trkpt lat="45.44293" lon="7.01783">
        <ele>2292.2</ele>
        <time>2021-07-23T10:29:15.285Z</time>
      </trkpt>
      <trkpt lat="45.44294" lon="7.01779">
        <ele>2292.2</ele>
        <time>2021-07-23T10:29:16.285Z</time>
      </trkpt>
      <trkpt lat="45.44295" lon="7.01775">
        <ele>2292.2</ele>
        <time>2021-07-23T10:29:17.285Z</time>
      </trkpt>
      <trkpt lat="45.44295" lon="7.01771">
        <ele>2292.2</ele>
        <time>2021-07-23T10:29:18.285Z</time>
      </trkpt>
      <trkpt lat="45.44296" lon="7.01767">
        <ele>2292.2</ele>
        <time>2021-07-23T10:29:19.285Z</time>
      </trkpt>
      <trkpt lat="45.44296" lon="7.01763">
        <ele>2292.2</ele>
        <time>2021-07-23T10:29:20.285Z</time>
      </trkpt>
      <trkpt lat="45.44296" lon="7.01759">
        <ele>2292.6</ele>
        <time>2021-07-23T10:29:21.285Z</time>
      </trkpt>
      <trkpt lat="45.44297" lon="7.01756">
        <ele>2293</ele>
        <time>2021-07-23T10:29:22.285Z</time>
      </trkpt>
      <trkpt lat="45.44297" lon="7.01751">
        <ele>2293.6</ele>
        <time>2021-07-23T10:29:23.285Z</time>
      </trkpt>
      <trkpt lat="45.44296" lon="7.01747">
        <ele>2294</ele>
        <time>2021-07-23T10:29:24.285Z</time>
      </trkpt>
      <trkpt lat="45.44296" lon="7.01743">
        <ele>2294.4</ele>
        <time>2021-07-23T10:29:25.285Z</time>
      </trkpt>
      <trkpt lat="45.44295" lon="7.01738">
        <ele>2294.4</ele>
        <time>2021-07-23T10:29:26.285Z</time>
      </trkpt>
      <trkpt lat="45.44295" lon="7.01733">
        <ele>2294.4</ele>
        <time>2021-07-23T10:29:27.285Z</time>
      </trkpt>
      <trkpt lat="45.44294" lon="7.01729">
        <ele>2294.4</ele>
        <time>2021-07-23T10:29:28.285Z</time>
      </trkpt>
      <trkpt lat="45.44292" lon="7.01724">
        <ele>2294.4</ele>
        <time>2021-07-23T10:29:29.285Z</time>
      </trkpt>
      <trkpt lat="45.44291" lon="7.0172">
        <ele>2294.4</ele>
        <time>2021-07-23T10:29:30.285Z</time>
      </trkpt>
      <trkpt lat="45.44289" lon="7.01716">
        <ele>2294.4</ele>
        <time>2021-07-23T10:29:31.285Z</time>
      </trkpt>
      <trkpt lat="45.44288" lon="7.01712">
        <ele>2294.4</ele>
        <time>2021-07-23T10:29:32.285Z</time>
      </trkpt>
      <trkpt lat="45.44286" lon="7.01708">
        <ele>2294.4</ele>
        <time>2021-07-23T10:29:33.285Z</time>
      </trkpt>
      <trkpt lat="45.44284" lon="7.01705">
        <ele>2294.4</ele>
        <time>2021-07-23T10:29:34.285Z</time>
      </trkpt>
      <trkpt lat="45.44282" lon="7.01701">
        <ele>2294.4</ele>
        <time>2021-07-23T10:29:35.285Z</time>
      </trkpt>
      <trkpt lat="45.4428" lon="7.01698">
        <ele>2294.4</ele>
        <time>2021-07-23T10:29:36.285Z</time>
      </trkpt>
      <trkpt lat="45.44278" lon="7.01695">
        <ele>2294.4</ele>
        <time>2021-07-23T10:29:37.285Z</time>
      </trkpt>
      <trkpt lat="45.44275" lon="7.01692">
        <ele>2294.4</ele>
        <time>2021-07-23T10:29:38.285Z</time>
      </trkpt>
      <trkpt lat="45.44273" lon="7.01688">
        <ele>2294.4</ele>
        <time>2021-07-23T10:29:39.285Z</time>
      </trkpt>
      <trkpt lat="45.4427" lon="7.01686">
        <ele>2294.4</ele>
        <time>2021-07-23T10:29:40.285Z</time>
      </trkpt>
      <trkpt lat="45.44268" lon="7.01683">
        <ele>2294.8</ele>
        <time>2021-07-23T10:29:41.285Z</time>
      </trkpt>
      <trkpt lat="45.44265" lon="7.01681">
        <ele>2295.2</ele>
        <time>2021-07-23T10:29:42.285Z</time>
      </trkpt>
      <trkpt lat="45.44263" lon="7.01678">
        <ele>2295.6</ele>
        <time>2021-07-23T10:29:43.285Z</time>
      </trkpt>
      <trkpt lat="45.4426" lon="7.01676">
        <ele>2296.2</ele>
        <time>2021-07-23T10:29:44.285Z</time>
      </trkpt>
      <trkpt lat="45.44257" lon="7.01675">
        <ele>2296.6</ele>
        <time>2021-07-23T10:29:45.285Z</time>
      </trkpt>
      <trkpt lat="45.44254" lon="7.01674">
        <ele>2296.6</ele>
        <time>2021-07-23T10:29:46.285Z</time>
      </trkpt>
      <trkpt lat="45.4425" lon="7.01673">
        <ele>2296.6</ele>
        <time>2021-07-23T10:29:47.285Z</time>
      </trkpt>
      <trkpt lat="45.44248" lon="7.01672">
        <ele>2296.6</ele>
        <time>2021-07-23T10:29:48.285Z</time>
      </trkpt>
      <trkpt lat="45.44244" lon="7.01673">
        <ele>2296.6</ele>
        <time>2021-07-23T10:29:49.285Z</time>
      </trkpt>
      <trkpt lat="45.44241" lon="7.01672">
        <ele>2296.6</ele>
        <time>2021-07-23T10:29:50.285Z</time>
      </trkpt>
      <trkpt lat="45.44238" lon="7.01673">
        <ele>2296.6</ele>
        <time>2021-07-23T10:29:51.285Z</time>
      </trkpt>
      <trkpt lat="45.44235" lon="7.01673">
        <ele>2297</ele>
        <time>2021-07-23T10:29:52.285Z</time>
      </trkpt>
      <trkpt lat="45.44232" lon="7.01673">
        <ele>2297.4</ele>
        <time>2021-07-23T10:29:53.285Z</time>
      </trkpt>
      <trkpt lat="45.44228" lon="7.01673">
        <ele>2298</ele>
        <time>2021-07-23T10:29:54.285Z</time>
      </trkpt>
      <trkpt lat="45.44225" lon="7.01674">
        <ele>2298.8</ele>
        <time>2021-07-23T10:29:55.285Z</time>
      </trkpt>
      <trkpt lat="45.44222" lon="7.01675">
        <ele>2298.8</ele>
        <time>2021-07-23T10:29:56.285Z</time>
      </trkpt>
      <trkpt lat="45.44219" lon="7.01676">
        <ele>2298.8</ele>
        <time>2021-07-23T10:29:57.285Z</time>
      </trkpt>
      <trkpt lat="45.44215" lon="7.01677">
        <ele>2298.8</ele>
        <time>2021-07-23T10:29:58.285Z</time>
      </trkpt>
      <trkpt lat="45.44212" lon="7.01678">
        <ele>2298.8</ele>
        <time>2021-07-23T10:29:59.285Z</time>
      </trkpt>
      <trkpt lat="45.44208" lon="7.01678">
        <ele>2298.8</ele>
        <time>2021-07-23T10:30:00.285Z</time>
      </trkpt>
      <trkpt lat="45.44205" lon="7.01677">
        <ele>2298.8</ele>
        <time>2021-07-23T10:30:01.285Z</time>
      </trkpt>
      <trkpt lat="45.44202" lon="7.01676">
        <ele>2298.8</ele>
        <time>2021-07-23T10:30:02.285Z</time>
      </trkpt>
      <trkpt lat="45.44198" lon="7.01674">
        <ele>2298.8</ele>
        <time>2021-07-23T10:30:03.285Z</time>
      </trkpt>
      <trkpt lat="45.44195" lon="7.01673">
        <ele>2298.8</ele>
        <time>2021-07-23T10:30:04.285Z</time>
      </trkpt>
      <trkpt lat="45.44193" lon="7.0167">
        <ele>2299.2</ele>
        <time>2021-07-23T10:30:05.285Z</time>
      </trkpt>
      <trkpt lat="45.4419" lon="7.01666">
        <ele>2299.8</ele>
        <time>2021-07-23T10:30:06.285Z</time>
      </trkpt>
      <trkpt lat="45.44188" lon="7.01663">
        <ele>2300.2</ele>
        <time>2021-07-23T10:30:07.285Z</time>
      </trkpt>
      <trkpt lat="45.44186" lon="7.01659">
        <ele>2300.6</ele>
        <time>2021-07-23T10:30:08.285Z</time>
      </trkpt>
      <trkpt lat="45.44183" lon="7.01655">
        <ele>2301.2</ele>
        <time>2021-07-23T10:30:09.285Z</time>
      </trkpt>
      <trkpt lat="45.44182" lon="7.01651">
        <ele>2301.2</ele>
        <time>2021-07-23T10:30:10.285Z</time>
      </trkpt>
      <trkpt lat="45.44181" lon="7.01646">
        <ele>2301.2</ele>
        <time>2021-07-23T10:30:11.285Z</time>
      </trkpt>
      <trkpt lat="45.44181" lon="7.0164">
        <ele>2301.2</ele>
        <time>2021-07-23T10:30:12.285Z</time>
      </trkpt>
      <trkpt lat="45.44181" lon="7.01634">
        <ele>2301.2</ele>
        <time>2021-07-23T10:30:13.285Z</time>
      </trkpt>
      <trkpt lat="45.44182" lon="7.01628">
        <ele>2301.2</ele>
        <time>2021-07-23T10:30:14.285Z</time>
      </trkpt>
      <trkpt lat="45.44182" lon="7.01623">
        <ele>2301.2</ele>
        <time>2021-07-23T10:30:15.285Z</time>
      </trkpt>
      <trkpt lat="45.44182" lon="7.01617">
        <ele>2301.2</ele>
        <time>2021-07-23T10:30:16.285Z</time>
      </trkpt>
      <trkpt lat="45.44182" lon="7.01612">
        <ele>2301.2</ele>
        <time>2021-07-23T10:30:17.285Z</time>
      </trkpt>
      <trkpt lat="45.44182" lon="7.01606">
        <ele>2301.2</ele>
        <time>2021-07-23T10:30:18.285Z</time>
      </trkpt>
      <trkpt lat="45.44182" lon="7.01601">
        <ele>2301.2</ele>
        <time>2021-07-23T10:30:19.285Z</time>
      </trkpt>
      <trkpt lat="45.44182" lon="7.01596">
        <ele>2302</ele>
        <time>2021-07-23T10:30:20.285Z</time>
      </trkpt>
      <trkpt lat="45.44182" lon="7.01591">
        <ele>2302.4</ele>
        <time>2021-07-23T10:30:21.285Z</time>
      </trkpt>
      <trkpt lat="45.44182" lon="7.01585">
        <ele>2302.8</ele>
        <time>2021-07-23T10:30:22.285Z</time>
      </trkpt>
      <trkpt lat="45.44182" lon="7.0158">
        <ele>2303.2</ele>
        <time>2021-07-23T10:30:23.285Z</time>
      </trkpt>
      <trkpt lat="45.44182" lon="7.01575">
        <ele>2303.2</ele>
        <time>2021-07-23T10:30:24.285Z</time>
      </trkpt>
      <trkpt lat="45.44182" lon="7.0157">
        <ele>2303.2</ele>
        <time>2021-07-23T10:30:25.285Z</time>
      </trkpt>
      <trkpt lat="45.44182" lon="7.01565">
        <ele>2303.2</ele>
        <time>2021-07-23T10:30:26.285Z</time>
      </trkpt>
      <trkpt lat="45.44182" lon="7.0156">
        <ele>2303.6</ele>
        <time>2021-07-23T10:30:27.285Z</time>
      </trkpt>
      <trkpt lat="45.44182" lon="7.01554">
        <ele>2304.2</ele>
        <time>2021-07-23T10:30:28.285Z</time>
      </trkpt>
      <trkpt lat="45.44183" lon="7.01549">
        <ele>2304.6</ele>
        <time>2021-07-23T10:30:29.285Z</time>
      </trkpt>
      <trkpt lat="45.44182" lon="7.01544">
        <ele>2305</ele>
        <time>2021-07-23T10:30:30.285Z</time>
      </trkpt>
      <trkpt lat="45.44183" lon="7.01538">
        <ele>2305.6</ele>
        <time>2021-07-23T10:30:31.285Z</time>
      </trkpt>
      <trkpt lat="45.44183" lon="7.01532">
        <ele>2305.6</ele>
        <time>2021-07-23T10:30:32.285Z</time>
      </trkpt>
      <trkpt lat="45.44184" lon="7.01527">
        <ele>2305.6</ele>
        <time>2021-07-23T10:30:33.285Z</time>
      </trkpt>
      <trkpt lat="45.44184" lon="7.01522">
        <ele>2305.6</ele>
        <time>2021-07-23T10:30:34.285Z</time>
      </trkpt>
      <trkpt lat="45.44185" lon="7.01517">
        <ele>2305.6</ele>
        <time>2021-07-23T10:30:35.285Z</time>
      </trkpt>
      <trkpt lat="45.44186" lon="7.01513">
        <ele>2305.6</ele>
        <time>2021-07-23T10:30:36.285Z</time>
      </trkpt>
      <trkpt lat="45.44187" lon="7.01508">
        <ele>2305.6</ele>
        <time>2021-07-23T10:30:37.285Z</time>
      </trkpt>
      <trkpt lat="45.44188" lon="7.01503">
        <ele>2305.6</ele>
        <time>2021-07-23T10:30:38.285Z</time>
      </trkpt>
      <trkpt lat="45.44189" lon="7.01498">
        <ele>2305.6</ele>
        <time>2021-07-23T10:30:39.285Z</time>
      </trkpt>
      <trkpt lat="45.4419" lon="7.01493">
        <ele>2305.6</ele>
        <time>2021-07-23T10:30:40.285Z</time>
      </trkpt>
      <trkpt lat="45.44191" lon="7.01488">
        <ele>2305.6</ele>
        <time>2021-07-23T10:30:41.285Z</time>
      </trkpt>
      <trkpt lat="45.44192" lon="7.01482">
        <ele>2305.6</ele>
        <time>2021-07-23T10:30:42.285Z</time>
      </trkpt>
      <trkpt lat="45.44194" lon="7.01477">
        <ele>2305.6</ele>
        <time>2021-07-23T10:30:43.285Z</time>
      </trkpt>
      <trkpt lat="45.44195" lon="7.01473">
        <ele>2305.6</ele>
        <time>2021-07-23T10:30:44.285Z</time>
      </trkpt>
      <trkpt lat="45.44197" lon="7.01468">
        <ele>2305.6</ele>
        <time>2021-07-23T10:30:45.285Z</time>
      </trkpt>
      <trkpt lat="45.44199" lon="7.01463">
        <ele>2305.6</ele>
        <time>2021-07-23T10:30:46.285Z</time>
      </trkpt>
      <trkpt lat="45.442" lon="7.01459">
        <ele>2305.6</ele>
        <time>2021-07-23T10:30:47.285Z</time>
      </trkpt>
      <trkpt lat="45.44201" lon="7.01454">
        <ele>2306</ele>
        <time>2021-07-23T10:30:48.285Z</time>
      </trkpt>
      <trkpt lat="45.44202" lon="7.01449">
        <ele>2306.4</ele>
        <time>2021-07-23T10:30:49.285Z</time>
      </trkpt>
      <trkpt lat="45.44203" lon="7.01445">
        <ele>2306.8</ele>
        <time>2021-07-23T10:30:50.285Z</time>
      </trkpt>
      <trkpt lat="45.44204" lon="7.0144">
        <ele>2307.2</ele>
        <time>2021-07-23T10:30:51.285Z</time>
      </trkpt>
      <trkpt lat="45.44204" lon="7.01436">
        <ele>2307.6</ele>
        <time>2021-07-23T10:30:52.285Z</time>
      </trkpt>
      <trkpt lat="45.44205" lon="7.01432">
        <ele>2307.6</ele>
        <time>2021-07-23T10:30:53.285Z</time>
      </trkpt>
      <trkpt lat="45.44207" lon="7.01427">
        <ele>2307.6</ele>
        <time>2021-07-23T10:30:54.285Z</time>
      </trkpt>
      <trkpt lat="45.44207" lon="7.01423">
        <ele>2308</ele>
        <time>2021-07-23T10:30:55.285Z</time>
      </trkpt>
      <trkpt lat="45.44208" lon="7.01418">
        <ele>2308.6</ele>
        <time>2021-07-23T10:30:56.285Z</time>
      </trkpt>
      <trkpt lat="45.44208" lon="7.01414">
        <ele>2309</ele>
        <time>2021-07-23T10:30:57.285Z</time>
      </trkpt>
      <trkpt lat="45.44209" lon="7.0141">
        <ele>2309.4</ele>
        <time>2021-07-23T10:30:58.285Z</time>
      </trkpt>
      <trkpt lat="45.44209" lon="7.01406">
        <ele>2309.8</ele>
        <time>2021-07-23T10:30:59.285Z</time>
      </trkpt>
      <trkpt lat="45.4421" lon="7.01401">
        <ele>2309.8</ele>
        <time>2021-07-23T10:31:00.285Z</time>
      </trkpt>
      <trkpt lat="45.4421" lon="7.01396">
        <ele>2309.8</ele>
        <time>2021-07-23T10:31:01.285Z</time>
      </trkpt>
      <trkpt lat="45.44211" lon="7.01392">
        <ele>2309.8</ele>
        <time>2021-07-23T10:31:02.285Z</time>
      </trkpt>
      <trkpt lat="45.44212" lon="7.01388">
        <ele>2309.8</ele>
        <time>2021-07-23T10:31:03.285Z</time>
      </trkpt>
      <trkpt lat="45.44212" lon="7.01383">
        <ele>2309.8</ele>
        <time>2021-07-23T10:31:04.285Z</time>
      </trkpt>
      <trkpt lat="45.44213" lon="7.01379">
        <ele>2309.8</ele>
        <time>2021-07-23T10:31:05.285Z</time>
      </trkpt>
      <trkpt lat="45.44214" lon="7.01374">
        <ele>2309.8</ele>
        <time>2021-07-23T10:31:06.285Z</time>
      </trkpt>
      <trkpt lat="45.44214" lon="7.0137">
        <ele>2309.8</ele>
        <time>2021-07-23T10:31:07.285Z</time>
      </trkpt>
      <trkpt lat="45.44214" lon="7.01365">
        <ele>2310.2</ele>
        <time>2021-07-23T10:31:08.285Z</time>
      </trkpt>
      <trkpt lat="45.44214" lon="7.01361">
        <ele>2311.2</ele>
        <time>2021-07-23T10:31:09.285Z</time>
      </trkpt>
      <trkpt lat="45.44214" lon="7.01356">
        <ele>2311.6</ele>
        <time>2021-07-23T10:31:10.285Z</time>
      </trkpt>
      <trkpt lat="45.44214" lon="7.01351">
        <ele>2312</ele>
        <time>2021-07-23T10:31:11.285Z</time>
      </trkpt>
      <trkpt lat="45.44214" lon="7.01347">
        <ele>2312</ele>
        <time>2021-07-23T10:31:12.285Z</time>
      </trkpt>
      <trkpt lat="45.44213" lon="7.01342">
        <ele>2312</ele>
        <time>2021-07-23T10:31:13.285Z</time>
      </trkpt>
      <trkpt lat="45.44212" lon="7.01338">
        <ele>2312</ele>
        <time>2021-07-23T10:31:14.285Z</time>
      </trkpt>
      <trkpt lat="45.44212" lon="7.01334">
        <ele>2312</ele>
        <time>2021-07-23T10:31:15.285Z</time>
      </trkpt>
      <trkpt lat="45.44212" lon="7.01329">
        <ele>2312</ele>
        <time>2021-07-23T10:31:16.285Z</time>
      </trkpt>
      <trkpt lat="45.44211" lon="7.01325">
        <ele>2312</ele>
        <time>2021-07-23T10:31:17.285Z</time>
      </trkpt>
      <trkpt lat="45.4421" lon="7.01321">
        <ele>2312.4</ele>
        <time>2021-07-23T10:31:18.285Z</time>
      </trkpt>
      <trkpt lat="45.44209" lon="7.01316">
        <ele>2313</ele>
        <time>2021-07-23T10:31:19.285Z</time>
      </trkpt>
      <trkpt lat="45.44209" lon="7.01312">
        <ele>2313.4</ele>
        <time>2021-07-23T10:31:20.285Z</time>
      </trkpt>
      <trkpt lat="45.44208" lon="7.01308">
        <ele>2313.8</ele>
        <time>2021-07-23T10:31:21.285Z</time>
      </trkpt>
      <trkpt lat="45.44207" lon="7.01304">
        <ele>2314.2</ele>
        <time>2021-07-23T10:31:22.285Z</time>
      </trkpt>
      <trkpt lat="45.44206" lon="7.01299">
        <ele>2314.2</ele>
        <time>2021-07-23T10:31:23.285Z</time>
      </trkpt>
      <trkpt lat="45.44206" lon="7.01295">
        <ele>2314.2</ele>
        <time>2021-07-23T10:31:24.285Z</time>
      </trkpt>
      <trkpt lat="45.44205" lon="7.01291">
        <ele>2314.2</ele>
        <time>2021-07-23T10:31:25.285Z</time>
      </trkpt>
      <trkpt lat="45.44204" lon="7.01286">
        <ele>2314.2</ele>
        <time>2021-07-23T10:31:26.285Z</time>
      </trkpt>
      <trkpt lat="45.44203" lon="7.01282">
        <ele>2314.2</ele>
        <time>2021-07-23T10:31:27.285Z</time>
      </trkpt>
      <trkpt lat="45.44202" lon="7.01277">
        <ele>2314.2</ele>
        <time>2021-07-23T10:31:28.285Z</time>
      </trkpt>
      <trkpt lat="45.44202" lon="7.01272">
        <ele>2314.2</ele>
        <time>2021-07-23T10:31:29.285Z</time>
      </trkpt>
      <trkpt lat="45.44201" lon="7.01268">
        <ele>2314.2</ele>
        <time>2021-07-23T10:31:30.285Z</time>
      </trkpt>
      <trkpt lat="45.442" lon="7.01264">
        <ele>2314.8</ele>
        <time>2021-07-23T10:31:31.285Z</time>
      </trkpt>
      <trkpt lat="45.442" lon="7.01259">
        <ele>2315.2</ele>
        <time>2021-07-23T10:31:32.285Z</time>
      </trkpt>
      <trkpt lat="45.44199" lon="7.01255">
        <ele>2315.6</ele>
        <time>2021-07-23T10:31:33.285Z</time>
      </trkpt>
      <trkpt lat="45.44198" lon="7.01251">
        <ele>2316.6</ele>
        <time>2021-07-23T10:31:34.285Z</time>
      </trkpt>
      <trkpt lat="45.44198" lon="7.01246">
        <ele>2316.6</ele>
        <time>2021-07-23T10:31:35.285Z</time>
      </trkpt>
      <trkpt lat="45.44197" lon="7.01241">
        <ele>2316.6</ele>
        <time>2021-07-23T10:31:36.285Z</time>
      </trkpt>
      <trkpt lat="45.44197" lon="7.01237">
        <ele>2316.6</ele>
        <time>2021-07-23T10:31:37.285Z</time>
      </trkpt>
      <trkpt lat="45.44196" lon="7.01233">
        <ele>2316.6</ele>
        <time>2021-07-23T10:31:38.285Z</time>
      </trkpt>
      <trkpt lat="45.44197" lon="7.01229">
        <ele>2316.6</ele>
        <time>2021-07-23T10:31:39.285Z</time>
      </trkpt>
      <trkpt lat="45.44196" lon="7.01224">
        <ele>2316.6</ele>
        <time>2021-07-23T10:31:40.285Z</time>
      </trkpt>
      <trkpt lat="45.44196" lon="7.0122">
        <ele>2316.6</ele>
        <time>2021-07-23T10:31:41.285Z</time>
      </trkpt>
      <trkpt lat="45.44196" lon="7.01216">
        <ele>2316.6</ele>
        <time>2021-07-23T10:31:42.285Z</time>
      </trkpt>
      <trkpt lat="45.44196" lon="7.01212">
        <ele>2316.6</ele>
        <time>2021-07-23T10:31:43.285Z</time>
      </trkpt>
      <trkpt lat="45.44196" lon="7.01207">
        <ele>2316.6</ele>
        <time>2021-07-23T10:31:44.285Z</time>
      </trkpt>
      <trkpt lat="45.44197" lon="7.01203">
        <ele>2317</ele>
        <time>2021-07-23T10:31:45.285Z</time>
      </trkpt>
      <trkpt lat="45.44197" lon="7.01198">
        <ele>2317.4</ele>
        <time>2021-07-23T10:31:46.285Z</time>
      </trkpt>
      <trkpt lat="45.44198" lon="7.01193">
        <ele>2317.8</ele>
        <time>2021-07-23T10:31:47.285Z</time>
      </trkpt>
      <trkpt lat="45.44198" lon="7.01189">
        <ele>2318.2</ele>
        <time>2021-07-23T10:31:48.285Z</time>
      </trkpt>
      <trkpt lat="45.44199" lon="7.01185">
        <ele>2318.6</ele>
        <time>2021-07-23T10:31:49.285Z</time>
      </trkpt>
      <trkpt lat="45.442" lon="7.01181">
        <ele>2318.6</ele>
        <time>2021-07-23T10:31:50.285Z</time>
      </trkpt>
      <trkpt lat="45.44201" lon="7.01178">
        <ele>2318.6</ele>
        <time>2021-07-23T10:31:51.285Z</time>
      </trkpt>
      <trkpt lat="45.44201" lon="7.01175">
        <ele>2318.6</ele>
        <time>2021-07-23T10:31:52.285Z</time>
      </trkpt>
      <trkpt lat="45.44202" lon="7.01173">
        <ele>2318.6</ele>
        <time>2021-07-23T10:31:53.285Z</time>
      </trkpt>
      <trkpt lat="45.44202" lon="7.01172">
        <ele>2318.6</ele>
        <time>2021-07-23T10:31:54.285Z</time>
      </trkpt>
      <trkpt lat="45.44202" lon="7.01171">
        <ele>2318.6</ele>
        <time>2021-07-23T10:31:55.285Z</time>
      </trkpt>
      <trkpt lat="45.44203" lon="7.01169">
        <ele>2318.6</ele>
        <time>2021-07-23T10:31:56.285Z</time>
      </trkpt>
      <trkpt lat="45.44203" lon="7.01168">
        <ele>2318.6</ele>
        <time>2021-07-23T10:31:57.285Z</time>
      </trkpt>
      <trkpt lat="45.44204" lon="7.01168">
        <ele>2318.6</ele>
        <time>2021-07-23T10:31:58.285Z</time>
      </trkpt>
      <trkpt lat="45.44202" lon="7.01166">
        <ele>2320.6</ele>
        <time>2021-07-23T10:31:59.285Z</time>
      </trkpt>
      <trkpt lat="45.44201" lon="7.01163">
        <ele>2320.6</ele>
        <time>2021-07-23T10:32:00.285Z</time>
      </trkpt>
      <trkpt lat="45.442" lon="7.01159">
        <ele>2320.6</ele>
        <time>2021-07-23T10:32:01.285Z</time>
      </trkpt>
      <trkpt lat="45.44199" lon="7.01154">
        <ele>2320.6</ele>
        <time>2021-07-23T10:32:02.285Z</time>
      </trkpt>
      <trkpt lat="45.44198" lon="7.01149">
        <ele>2320.6</ele>
        <time>2021-07-23T10:32:03.285Z</time>
      </trkpt>
      <trkpt lat="45.44197" lon="7.01143">
        <ele>2320.6</ele>
        <time>2021-07-23T10:32:04.285Z</time>
      </trkpt>
      <trkpt lat="45.44196" lon="7.01137">
        <ele>2320.6</ele>
        <time>2021-07-23T10:32:05.285Z</time>
      </trkpt>
      <trkpt lat="45.44194" lon="7.0113">
        <ele>2320.6</ele>
        <time>2021-07-23T10:32:06.285Z</time>
      </trkpt>
      <trkpt lat="45.44192" lon="7.01123">
        <ele>2320.6</ele>
        <time>2021-07-23T10:32:07.285Z</time>
      </trkpt>
      <trkpt lat="45.4419" lon="7.01116">
        <ele>2320.6</ele>
        <time>2021-07-23T10:32:08.285Z</time>
      </trkpt>
      <trkpt lat="45.44188" lon="7.01109">
        <ele>2320.6</ele>
        <time>2021-07-23T10:32:09.285Z</time>
      </trkpt>
      <trkpt lat="45.44186" lon="7.01101">
        <ele>2320.6</ele>
        <time>2021-07-23T10:32:10.285Z</time>
      </trkpt>
      <trkpt lat="45.44184" lon="7.01093">
        <ele>2320.6</ele>
        <time>2021-07-23T10:32:11.285Z</time>
      </trkpt>
      <trkpt lat="45.44182" lon="7.01085">
        <ele>2320.6</ele>
        <time>2021-07-23T10:32:12.285Z</time>
      </trkpt>
      <trkpt lat="45.4418" lon="7.01077">
        <ele>2320.6</ele>
        <time>2021-07-23T10:32:13.285Z</time>
      </trkpt>
      <trkpt lat="45.44177" lon="7.01069">
        <ele>2320.6</ele>
        <time>2021-07-23T10:32:14.285Z</time>
      </trkpt>
      <trkpt lat="45.44174" lon="7.01061">
        <ele>2320.6</ele>
        <time>2021-07-23T10:32:15.285Z</time>
      </trkpt>
      <trkpt lat="45.44172" lon="7.01052">
        <ele>2320.6</ele>
        <time>2021-07-23T10:32:16.285Z</time>
      </trkpt>
      <trkpt lat="45.44169" lon="7.01043">
        <ele>2320.2</ele>
        <time>2021-07-23T10:32:17.285Z</time>
      </trkpt>
      <trkpt lat="45.44166" lon="7.01034">
        <ele>2319.8</ele>
        <time>2021-07-23T10:32:18.285Z</time>
      </trkpt>
      <trkpt lat="45.44163" lon="7.01024">
        <ele>2319.4</ele>
        <time>2021-07-23T10:32:19.285Z</time>
      </trkpt>
      <trkpt lat="45.44161" lon="7.01014">
        <ele>2319</ele>
        <time>2021-07-23T10:32:20.285Z</time>
      </trkpt>
      <trkpt lat="45.44158" lon="7.01003">
        <ele>2318.6</ele>
        <time>2021-07-23T10:32:21.285Z</time>
      </trkpt>
      <trkpt lat="45.44156" lon="7.00992">
        <ele>2318.6</ele>
        <time>2021-07-23T10:32:22.285Z</time>
      </trkpt>
      <trkpt lat="45.44154" lon="7.0098">
        <ele>2318.6</ele>
        <time>2021-07-23T10:32:23.285Z</time>
      </trkpt>
      <trkpt lat="45.44152" lon="7.00968">
        <ele>2318.6</ele>
        <time>2021-07-23T10:32:24.285Z</time>
      </trkpt>
      <trkpt lat="45.44151" lon="7.00956">
        <ele>2318.6</ele>
        <time>2021-07-23T10:32:25.285Z</time>
      </trkpt>
      <trkpt lat="45.44149" lon="7.00942">
        <ele>2318.2</ele>
        <time>2021-07-23T10:32:26.285Z</time>
      </trkpt>
      <trkpt lat="45.44148" lon="7.00929">
        <ele>2317.8</ele>
        <time>2021-07-23T10:32:27.285Z</time>
      </trkpt>
      <trkpt lat="45.44146" lon="7.00916">
        <ele>2317.4</ele>
        <time>2021-07-23T10:32:28.285Z</time>
      </trkpt>
      <trkpt lat="45.44144" lon="7.00903">
        <ele>2316.8</ele>
        <time>2021-07-23T10:32:29.285Z</time>
      </trkpt>
      <trkpt lat="45.44143" lon="7.0089">
        <ele>2316.4</ele>
        <time>2021-07-23T10:32:30.285Z</time>
      </trkpt>
      <trkpt lat="45.44141" lon="7.00876">
        <ele>2316</ele>
        <time>2021-07-23T10:32:31.285Z</time>
      </trkpt>
      <trkpt lat="45.44139" lon="7.00863">
        <ele>2315.6</ele>
        <time>2021-07-23T10:32:32.285Z</time>
      </trkpt>
      <trkpt lat="45.44136" lon="7.00849">
        <ele>2315.2</ele>
        <time>2021-07-23T10:32:33.285Z</time>
      </trkpt>
      <trkpt lat="45.44132" lon="7.00837">
        <ele>2314.4</ele>
        <time>2021-07-23T10:32:34.285Z</time>
      </trkpt>
      <trkpt lat="45.44126" lon="7.00824">
        <ele>2314</ele>
        <time>2021-07-23T10:32:35.285Z</time>
      </trkpt>
      <trkpt lat="45.4412" lon="7.00813">
        <ele>2313.4</ele>
        <time>2021-07-23T10:32:36.285Z</time>
      </trkpt>
      <trkpt lat="45.44115" lon="7.00801">
        <ele>2313</ele>
        <time>2021-07-23T10:32:37.285Z</time>
      </trkpt>
      <trkpt lat="45.44109" lon="7.00789">
        <ele>2312.4</ele>
        <time>2021-07-23T10:32:38.285Z</time>
      </trkpt>
      <trkpt lat="45.44104" lon="7.00779">
        <ele>2312</ele>
        <time>2021-07-23T10:32:39.285Z</time>
      </trkpt>
      <trkpt lat="45.44099" lon="7.00769">
        <ele>2312</ele>
        <time>2021-07-23T10:32:40.285Z</time>
      </trkpt>
      <trkpt lat="45.44094" lon="7.00759">
        <ele>2312</ele>
        <time>2021-07-23T10:32:41.285Z</time>
      </trkpt>
      <trkpt lat="45.4409" lon="7.00751">
        <ele>2312</ele>
        <time>2021-07-23T10:32:42.285Z</time>
      </trkpt>
      <trkpt lat="45.44086" lon="7.00743">
        <ele>2312</ele>
        <time>2021-07-23T10:32:43.285Z</time>
      </trkpt>
      <trkpt lat="45.44081" lon="7.00737">
        <ele>2312</ele>
        <time>2021-07-23T10:32:44.285Z</time>
      </trkpt>
      <trkpt lat="45.44077" lon="7.00731">
        <ele>2312</ele>
        <time>2021-07-23T10:32:45.285Z</time>
      </trkpt>
      <trkpt lat="45.44073" lon="7.00726">
        <ele>2312</ele>
        <time>2021-07-23T10:32:46.285Z</time>
      </trkpt>
      <trkpt lat="45.44069" lon="7.0072">
        <ele>2312</ele>
        <time>2021-07-23T10:32:47.285Z</time>
      </trkpt>
      <trkpt lat="45.44066" lon="7.00715">
        <ele>2312</ele>
        <time>2021-07-23T10:32:48.285Z</time>
      </trkpt>
      <trkpt lat="45.44062" lon="7.00709">
        <ele>2312.4</ele>
        <time>2021-07-23T10:32:49.285Z</time>
      </trkpt>
      <trkpt lat="45.44059" lon="7.00704">
        <ele>2312.8</ele>
        <time>2021-07-23T10:32:50.285Z</time>
      </trkpt>
      <trkpt lat="45.44056" lon="7.00699">
        <ele>2313.2</ele>
        <time>2021-07-23T10:32:51.285Z</time>
      </trkpt>
      <trkpt lat="45.44054" lon="7.00694">
        <ele>2313.6</ele>
        <time>2021-07-23T10:32:52.285Z</time>
      </trkpt>
      <trkpt lat="45.44052" lon="7.00689">
        <ele>2314</ele>
        <time>2021-07-23T10:32:53.285Z</time>
      </trkpt>
      <trkpt lat="45.44049" lon="7.00684">
        <ele>2314</ele>
        <time>2021-07-23T10:32:54.285Z</time>
      </trkpt>
      <trkpt lat="45.44047" lon="7.00679">
        <ele>2314.4</ele>
        <time>2021-07-23T10:32:55.285Z</time>
      </trkpt>
      <trkpt lat="45.44045" lon="7.00674">
        <ele>2315</ele>
        <time>2021-07-23T10:32:56.285Z</time>
      </trkpt>
      <trkpt lat="45.44043" lon="7.0067">
        <ele>2315.4</ele>
        <time>2021-07-23T10:32:57.285Z</time>
      </trkpt>
      <trkpt lat="45.44041" lon="7.00666">
        <ele>2316</ele>
        <time>2021-07-23T10:32:58.285Z</time>
      </trkpt>
      <trkpt lat="45.44039" lon="7.00662">
        <ele>2316.4</ele>
        <time>2021-07-23T10:32:59.285Z</time>
      </trkpt>
      <trkpt lat="45.44037" lon="7.00657">
        <ele>2316.8</ele>
        <time>2021-07-23T10:33:00.285Z</time>
      </trkpt>
      <trkpt lat="45.44035" lon="7.00653">
        <ele>2317.4</ele>
        <time>2021-07-23T10:33:01.285Z</time>
      </trkpt>
      <trkpt lat="45.44032" lon="7.00649">
        <ele>2317.8</ele>
        <time>2021-07-23T10:33:02.285Z</time>
      </trkpt>
      <trkpt lat="45.4403" lon="7.00645">
        <ele>2318.2</ele>
        <time>2021-07-23T10:33:03.285Z</time>
      </trkpt>
      <trkpt lat="45.44027" lon="7.00642">
        <ele>2318.8</ele>
        <time>2021-07-23T10:33:04.285Z</time>
      </trkpt>
      <trkpt lat="45.44025" lon="7.00639">
        <ele>2318.8</ele>
        <time>2021-07-23T10:33:05.285Z</time>
      </trkpt>
      <trkpt lat="45.44022" lon="7.00636">
        <ele>2318.8</ele>
        <time>2021-07-23T10:33:06.285Z</time>
      </trkpt>
      <trkpt lat="45.4402" lon="7.00633">
        <ele>2318.8</ele>
        <time>2021-07-23T10:33:07.285Z</time>
      </trkpt>
      <trkpt lat="45.44017" lon="7.00629">
        <ele>2319.2</ele>
        <time>2021-07-23T10:33:08.285Z</time>
      </trkpt>
      <trkpt lat="45.44015" lon="7.00626">
        <ele>2319.6</ele>
        <time>2021-07-23T10:33:09.285Z</time>
      </trkpt>
      <trkpt lat="45.44012" lon="7.00623">
        <ele>2320</ele>
        <time>2021-07-23T10:33:10.285Z</time>
      </trkpt>
      <trkpt lat="45.4401" lon="7.0062">
        <ele>2320.4</ele>
        <time>2021-07-23T10:33:11.285Z</time>
      </trkpt>
      <trkpt lat="45.44007" lon="7.00617">
        <ele>2320.8</ele>
        <time>2021-07-23T10:33:12.285Z</time>
      </trkpt>
      <trkpt lat="45.44005" lon="7.00614">
        <ele>2320.8</ele>
        <time>2021-07-23T10:33:13.285Z</time>
      </trkpt>
      <trkpt lat="45.44002" lon="7.00612">
        <ele>2320.8</ele>
        <time>2021-07-23T10:33:14.285Z</time>
      </trkpt>
      <trkpt lat="45.44" lon="7.0061">
        <ele>2320.8</ele>
        <time>2021-07-23T10:33:15.285Z</time>
      </trkpt>
      <trkpt lat="45.43997" lon="7.00608">
        <ele>2320.8</ele>
        <time>2021-07-23T10:33:16.285Z</time>
      </trkpt>
      <trkpt lat="45.43994" lon="7.00606">
        <ele>2321.2</ele>
        <time>2021-07-23T10:33:17.285Z</time>
      </trkpt>
      <trkpt lat="45.43991" lon="7.00604">
        <ele>2321.6</ele>
        <time>2021-07-23T10:33:18.285Z</time>
      </trkpt>
      <trkpt lat="45.43989" lon="7.00602">
        <ele>2322</ele>
        <time>2021-07-23T10:33:19.285Z</time>
      </trkpt>
      <trkpt lat="45.43986" lon="7.006">
        <ele>2322.4</ele>
        <time>2021-07-23T10:33:20.285Z</time>
      </trkpt>
      <trkpt lat="45.43984" lon="7.00598">
        <ele>2322.8</ele>
        <time>2021-07-23T10:33:21.285Z</time>
      </trkpt>
      <trkpt lat="45.43982" lon="7.00597">
        <ele>2322.8</ele>
        <time>2021-07-23T10:33:22.285Z</time>
      </trkpt>
      <trkpt lat="45.43979" lon="7.00596">
        <ele>2322.8</ele>
        <time>2021-07-23T10:33:23.285Z</time>
      </trkpt>
      <trkpt lat="45.43976" lon="7.00594">
        <ele>2322.8</ele>
        <time>2021-07-23T10:33:24.285Z</time>
      </trkpt>
      <trkpt lat="45.43974" lon="7.00592">
        <ele>2323.4</ele>
        <time>2021-07-23T10:33:25.285Z</time>
      </trkpt>
      <trkpt lat="45.43971" lon="7.00591">
        <ele>2323.8</ele>
        <time>2021-07-23T10:33:26.285Z</time>
      </trkpt>
      <trkpt lat="45.43969" lon="7.00589">
        <ele>2324.2</ele>
        <time>2021-07-23T10:33:27.285Z</time>
      </trkpt>
      <trkpt lat="45.43966" lon="7.00588">
        <ele>2324.6</ele>
        <time>2021-07-23T10:33:28.285Z</time>
      </trkpt>
      <trkpt lat="45.43964" lon="7.00587">
        <ele>2325.2</ele>
        <time>2021-07-23T10:33:29.285Z</time>
      </trkpt>
      <trkpt lat="45.43961" lon="7.00586">
        <ele>2325.2</ele>
        <time>2021-07-23T10:33:30.285Z</time>
      </trkpt>
      <trkpt lat="45.43958" lon="7.00584">
        <ele>2325.2</ele>
        <time>2021-07-23T10:33:31.285Z</time>
      </trkpt>
      <trkpt lat="45.43956" lon="7.00582">
        <ele>2325.2</ele>
        <time>2021-07-23T10:33:32.285Z</time>
      </trkpt>
      <trkpt lat="45.43953" lon="7.0058">
        <ele>2325.2</ele>
        <time>2021-07-23T10:33:33.285Z</time>
      </trkpt>
      <trkpt lat="45.43951" lon="7.00578">
        <ele>2325.2</ele>
        <time>2021-07-23T10:33:34.285Z</time>
      </trkpt>
      <trkpt lat="45.43948" lon="7.00576">
        <ele>2325.6</ele>
        <time>2021-07-23T10:33:35.285Z</time>
      </trkpt>
      <trkpt lat="45.43946" lon="7.00574">
        <ele>2326</ele>
        <time>2021-07-23T10:33:36.285Z</time>
      </trkpt>
      <trkpt lat="45.43944" lon="7.00572">
        <ele>2326.4</ele>
        <time>2021-07-23T10:33:37.285Z</time>
      </trkpt>
      <trkpt lat="45.43942" lon="7.0057">
        <ele>2326.8</ele>
        <time>2021-07-23T10:33:38.285Z</time>
      </trkpt>
      <trkpt lat="45.4394" lon="7.00568">
        <ele>2327.2</ele>
        <time>2021-07-23T10:33:39.285Z</time>
      </trkpt>
      <trkpt lat="45.43938" lon="7.00566">
        <ele>2327.2</ele>
        <time>2021-07-23T10:33:40.285Z</time>
      </trkpt>
      <trkpt lat="45.43936" lon="7.00564">
        <ele>2327.2</ele>
        <time>2021-07-23T10:33:41.285Z</time>
      </trkpt>
      <trkpt lat="45.43933" lon="7.00561">
        <ele>2327.2</ele>
        <time>2021-07-23T10:33:42.285Z</time>
      </trkpt>
      <trkpt lat="45.43931" lon="7.00558">
        <ele>2327.2</ele>
        <time>2021-07-23T10:33:43.285Z</time>
      </trkpt>
      <trkpt lat="45.43929" lon="7.00556">
        <ele>2327.2</ele>
        <time>2021-07-23T10:33:44.285Z</time>
      </trkpt>
      <trkpt lat="45.43927" lon="7.00553">
        <ele>2327.6</ele>
        <time>2021-07-23T10:33:45.285Z</time>
      </trkpt>
      <trkpt lat="45.43926" lon="7.0055">
        <ele>2328</ele>
        <time>2021-07-23T10:33:46.285Z</time>
      </trkpt>
      <trkpt lat="45.43924" lon="7.00547">
        <ele>2328.4</ele>
        <time>2021-07-23T10:33:47.285Z</time>
      </trkpt>
      <trkpt lat="45.43922" lon="7.00545">
        <ele>2329.2</ele>
        <time>2021-07-23T10:33:48.285Z</time>
      </trkpt>
      <trkpt lat="45.4392" lon="7.00542">
        <ele>2329.2</ele>
        <time>2021-07-23T10:33:49.285Z</time>
      </trkpt>
      <trkpt lat="45.43919" lon="7.0054">
        <ele>2329.2</ele>
        <time>2021-07-23T10:33:50.285Z</time>
      </trkpt>
      <trkpt lat="45.43917" lon="7.00537">
        <ele>2329.2</ele>
        <time>2021-07-23T10:33:51.285Z</time>
      </trkpt>
      <trkpt lat="45.43915" lon="7.00535">
        <ele>2329.2</ele>
        <time>2021-07-23T10:33:52.285Z</time>
      </trkpt>
      <trkpt lat="45.43913" lon="7.00532">
        <ele>2329.8</ele>
        <time>2021-07-23T10:33:53.285Z</time>
      </trkpt>
      <trkpt lat="45.43912" lon="7.0053">
        <ele>2330.2</ele>
        <time>2021-07-23T10:33:54.285Z</time>
      </trkpt>
      <trkpt lat="45.4391" lon="7.00528">
        <ele>2330.6</ele>
        <time>2021-07-23T10:33:55.285Z</time>
      </trkpt>
      <trkpt lat="45.43908" lon="7.00525">
        <ele>2331</ele>
        <time>2021-07-23T10:33:56.285Z</time>
      </trkpt>
      <trkpt lat="45.43906" lon="7.00523">
        <ele>2331.6</ele>
        <time>2021-07-23T10:33:57.285Z</time>
      </trkpt>
      <trkpt lat="45.43904" lon="7.00521">
        <ele>2331.6</ele>
        <time>2021-07-23T10:33:58.285Z</time>
      </trkpt>
      <trkpt lat="45.43902" lon="7.00519">
        <ele>2331.6</ele>
        <time>2021-07-23T10:33:59.285Z</time>
      </trkpt>
      <trkpt lat="45.439" lon="7.00517">
        <ele>2331.6</ele>
        <time>2021-07-23T10:34:00.285Z</time>
      </trkpt>
      <trkpt lat="45.43898" lon="7.00516">
        <ele>2332</ele>
        <time>2021-07-23T10:34:01.285Z</time>
      </trkpt>
      <trkpt lat="45.43896" lon="7.00515">
        <ele>2332.4</ele>
        <time>2021-07-23T10:34:02.285Z</time>
      </trkpt>
      <trkpt lat="45.43893" lon="7.00514">
        <ele>2332.8</ele>
        <time>2021-07-23T10:34:03.285Z</time>
      </trkpt>
      <trkpt lat="45.4389" lon="7.00513">
        <ele>2333.2</ele>
        <time>2021-07-23T10:34:04.285Z</time>
      </trkpt>
      <trkpt lat="45.43888" lon="7.00513">
        <ele>2333.6</ele>
        <time>2021-07-23T10:34:05.285Z</time>
      </trkpt>
      <trkpt lat="45.43885" lon="7.00512">
        <ele>2333.6</ele>
        <time>2021-07-23T10:34:06.285Z</time>
      </trkpt>
      <trkpt lat="45.43883" lon="7.00511">
        <ele>2333.6</ele>
        <time>2021-07-23T10:34:07.285Z</time>
      </trkpt>
      <trkpt lat="45.4388" lon="7.00511">
        <ele>2333.6</ele>
        <time>2021-07-23T10:34:08.285Z</time>
      </trkpt>
      <trkpt lat="45.43878" lon="7.0051">
        <ele>2333.6</ele>
        <time>2021-07-23T10:34:09.285Z</time>
      </trkpt>
      <trkpt lat="45.43875" lon="7.00509">
        <ele>2333.6</ele>
        <time>2021-07-23T10:34:10.285Z</time>
      </trkpt>
      <trkpt lat="45.43873" lon="7.00508">
        <ele>2333.6</ele>
        <time>2021-07-23T10:34:11.285Z</time>
      </trkpt>
      <trkpt lat="45.43871" lon="7.00508">
        <ele>2333.6</ele>
        <time>2021-07-23T10:34:12.285Z</time>
      </trkpt>
      <trkpt lat="45.43869" lon="7.00507">
        <ele>2334.4</ele>
        <time>2021-07-23T10:34:13.285Z</time>
      </trkpt>
      <trkpt lat="45.43867" lon="7.00505">
        <ele>2334.8</ele>
        <time>2021-07-23T10:34:14.285Z</time>
      </trkpt>
      <trkpt lat="45.43865" lon="7.00504">
        <ele>2335.2</ele>
        <time>2021-07-23T10:34:15.285Z</time>
      </trkpt>
      <trkpt lat="45.43862" lon="7.00503">
        <ele>2335.6</ele>
        <time>2021-07-23T10:34:16.285Z</time>
      </trkpt>
      <trkpt lat="45.4386" lon="7.00502">
        <ele>2335.6</ele>
        <time>2021-07-23T10:34:17.285Z</time>
      </trkpt>
      <trkpt lat="45.43858" lon="7.005">
        <ele>2335.6</ele>
        <time>2021-07-23T10:34:18.285Z</time>
      </trkpt>
      <trkpt lat="45.43855" lon="7.00499">
        <ele>2335.6</ele>
        <time>2021-07-23T10:34:19.285Z</time>
      </trkpt>
      <trkpt lat="45.43853" lon="7.00498">
        <ele>2335.6</ele>
        <time>2021-07-23T10:34:20.285Z</time>
      </trkpt>
      <trkpt lat="45.43851" lon="7.00497">
        <ele>2335.6</ele>
        <time>2021-07-23T10:34:21.285Z</time>
      </trkpt>
      <trkpt lat="45.43849" lon="7.00495">
        <ele>2335.6</ele>
        <time>2021-07-23T10:34:22.285Z</time>
      </trkpt>
      <trkpt lat="45.43846" lon="7.00494">
        <ele>2336.2</ele>
        <time>2021-07-23T10:34:23.285Z</time>
      </trkpt>
      <trkpt lat="45.43844" lon="7.00493">
        <ele>2336.6</ele>
        <time>2021-07-23T10:34:24.285Z</time>
      </trkpt>
      <trkpt lat="45.43842" lon="7.00493">
        <ele>2337</ele>
        <time>2021-07-23T10:34:25.285Z</time>
      </trkpt>
      <trkpt lat="45.4384" lon="7.00492">
        <ele>2337.4</ele>
        <time>2021-07-23T10:34:26.285Z</time>
      </trkpt>
      <trkpt lat="45.43838" lon="7.0049">
        <ele>2337.8</ele>
        <time>2021-07-23T10:34:27.285Z</time>
      </trkpt>
      <trkpt lat="45.43836" lon="7.00489">
        <ele>2337.8</ele>
        <time>2021-07-23T10:34:28.285Z</time>
      </trkpt>
      <trkpt lat="45.43833" lon="7.00488">
        <ele>2337.8</ele>
        <time>2021-07-23T10:34:29.285Z</time>
      </trkpt>
      <trkpt lat="45.43831" lon="7.00487">
        <ele>2337.8</ele>
        <time>2021-07-23T10:34:30.285Z</time>
      </trkpt>
      <trkpt lat="45.43829" lon="7.00485">
        <ele>2337.8</ele>
        <time>2021-07-23T10:34:31.285Z</time>
      </trkpt>
      <trkpt lat="45.43826" lon="7.00484">
        <ele>2337.8</ele>
        <time>2021-07-23T10:34:32.285Z</time>
      </trkpt>
      <trkpt lat="45.43824" lon="7.00483">
        <ele>2338.4</ele>
        <time>2021-07-23T10:34:33.285Z</time>
      </trkpt>
      <trkpt lat="45.43822" lon="7.00482">
        <ele>2338.8</ele>
        <time>2021-07-23T10:34:34.285Z</time>
      </trkpt>
      <trkpt lat="45.4382" lon="7.0048">
        <ele>2339.2</ele>
        <time>2021-07-23T10:34:35.285Z</time>
      </trkpt>
      <trkpt lat="45.43818" lon="7.00479">
        <ele>2339.6</ele>
        <time>2021-07-23T10:34:36.285Z</time>
      </trkpt>
      <trkpt lat="45.43816" lon="7.00477">
        <ele>2340</ele>
        <time>2021-07-23T10:34:37.285Z</time>
      </trkpt>
      <trkpt lat="45.43814" lon="7.00475">
        <ele>2340</ele>
        <time>2021-07-23T10:34:38.285Z</time>
      </trkpt>
      <trkpt lat="45.43812" lon="7.00474">
        <ele>2340</ele>
        <time>2021-07-23T10:34:39.285Z</time>
      </trkpt>
      <trkpt lat="45.4381" lon="7.00472">
        <ele>2340</ele>
        <time>2021-07-23T10:34:40.285Z</time>
      </trkpt>
      <trkpt lat="45.43808" lon="7.0047">
        <ele>2340</ele>
        <time>2021-07-23T10:34:41.285Z</time>
      </trkpt>
      <trkpt lat="45.43806" lon="7.00468">
        <ele>2340.6</ele>
        <time>2021-07-23T10:34:42.285Z</time>
      </trkpt>
      <trkpt lat="45.43804" lon="7.00466">
        <ele>2341</ele>
        <time>2021-07-23T10:34:43.285Z</time>
      </trkpt>
      <trkpt lat="45.43802" lon="7.00464">
        <ele>2341.4</ele>
        <time>2021-07-23T10:34:44.285Z</time>
      </trkpt>
      <trkpt lat="45.438" lon="7.00462">
        <ele>2341.8</ele>
        <time>2021-07-23T10:34:45.285Z</time>
      </trkpt>
      <trkpt lat="45.43798" lon="7.00461">
        <ele>2342.2</ele>
        <time>2021-07-23T10:34:46.285Z</time>
      </trkpt>
      <trkpt lat="45.43796" lon="7.0046">
        <ele>2342.2</ele>
        <time>2021-07-23T10:34:47.285Z</time>
      </trkpt>
      <trkpt lat="45.43793" lon="7.00458">
        <ele>2342.2</ele>
        <time>2021-07-23T10:34:48.285Z</time>
      </trkpt>
      <trkpt lat="45.43791" lon="7.00457">
        <ele>2342.2</ele>
        <time>2021-07-23T10:34:49.285Z</time>
      </trkpt>
      <trkpt lat="45.43789" lon="7.00455">
        <ele>2342.2</ele>
        <time>2021-07-23T10:34:50.285Z</time>
      </trkpt>
      <trkpt lat="45.43787" lon="7.00453">
        <ele>2342.2</ele>
        <time>2021-07-23T10:34:51.285Z</time>
      </trkpt>
      <trkpt lat="45.43785" lon="7.00452">
        <ele>2342.2</ele>
        <time>2021-07-23T10:34:52.285Z</time>
      </trkpt>
      <trkpt lat="45.43782" lon="7.0045">
        <ele>2342.6</ele>
        <time>2021-07-23T10:34:53.285Z</time>
      </trkpt>
      <trkpt lat="45.4378" lon="7.00449">
        <ele>2343</ele>
        <time>2021-07-23T10:34:54.285Z</time>
      </trkpt>
      <trkpt lat="45.43778" lon="7.00447">
        <ele>2343.4</ele>
        <time>2021-07-23T10:34:55.285Z</time>
      </trkpt>
      <trkpt lat="45.43775" lon="7.00445">
        <ele>2343.8</ele>
        <time>2021-07-23T10:34:56.285Z</time>
      </trkpt>
      <trkpt lat="45.43774" lon="7.00444">
        <ele>2344.2</ele>
        <time>2021-07-23T10:34:57.285Z</time>
      </trkpt>
      <trkpt lat="45.43771" lon="7.00443">
        <ele>2344.2</ele>
        <time>2021-07-23T10:34:58.285Z</time>
      </trkpt>
      <trkpt lat="45.43769" lon="7.00441">
        <ele>2344.2</ele>
        <time>2021-07-23T10:34:59.285Z</time>
      </trkpt>
      <trkpt lat="45.43767" lon="7.0044">
        <ele>2344.2</ele>
        <time>2021-07-23T10:35:00.285Z</time>
      </trkpt>
      <trkpt lat="45.43765" lon="7.00438">
        <ele>2344.2</ele>
        <time>2021-07-23T10:35:01.285Z</time>
      </trkpt>
      <trkpt lat="45.43763" lon="7.00436">
        <ele>2344.6</ele>
        <time>2021-07-23T10:35:02.285Z</time>
      </trkpt>
      <trkpt lat="45.43761" lon="7.00435">
        <ele>2345</ele>
        <time>2021-07-23T10:35:03.285Z</time>
      </trkpt>
      <trkpt lat="45.43758" lon="7.00434">
        <ele>2345.4</ele>
        <time>2021-07-23T10:35:04.285Z</time>
      </trkpt>
      <trkpt lat="45.43756" lon="7.00432">
        <ele>2345.8</ele>
        <time>2021-07-23T10:35:05.285Z</time>
      </trkpt>
      <trkpt lat="45.43754" lon="7.00431">
        <ele>2346.2</ele>
        <time>2021-07-23T10:35:06.285Z</time>
      </trkpt>
      <trkpt lat="45.43751" lon="7.00431">
        <ele>2346.2</ele>
        <time>2021-07-23T10:35:07.285Z</time>
      </trkpt>
      <trkpt lat="45.43749" lon="7.0043">
        <ele>2346.2</ele>
        <time>2021-07-23T10:35:08.285Z</time>
      </trkpt>
      <trkpt lat="45.43747" lon="7.00429">
        <ele>2346.2</ele>
        <time>2021-07-23T10:35:09.285Z</time>
      </trkpt>
      <trkpt lat="45.43745" lon="7.00429">
        <ele>2346.2</ele>
        <time>2021-07-23T10:35:10.285Z</time>
      </trkpt>
      <trkpt lat="45.43742" lon="7.00428">
        <ele>2346.2</ele>
        <time>2021-07-23T10:35:11.285Z</time>
      </trkpt>
      <trkpt lat="45.4374" lon="7.00427">
        <ele>2346.2</ele>
        <time>2021-07-23T10:35:12.285Z</time>
      </trkpt>
      <trkpt lat="45.43738" lon="7.00426">
        <ele>2346.2</ele>
        <time>2021-07-23T10:35:13.285Z</time>
      </trkpt>
      <trkpt lat="45.43735" lon="7.00426">
        <ele>2346.2</ele>
        <time>2021-07-23T10:35:14.285Z</time>
      </trkpt>
      <trkpt lat="45.43732" lon="7.00426">
        <ele>2346.6</ele>
        <time>2021-07-23T10:35:15.285Z</time>
      </trkpt>
      <trkpt lat="45.4373" lon="7.00426">
        <ele>2347</ele>
        <time>2021-07-23T10:35:16.285Z</time>
      </trkpt>
      <trkpt lat="45.43727" lon="7.00425">
        <ele>2347.6</ele>
        <time>2021-07-23T10:35:17.285Z</time>
      </trkpt>
      <trkpt lat="45.43725" lon="7.00425">
        <ele>2348</ele>
        <time>2021-07-23T10:35:18.285Z</time>
      </trkpt>
      <trkpt lat="45.43723" lon="7.00424">
        <ele>2348.4</ele>
        <time>2021-07-23T10:35:19.285Z</time>
      </trkpt>
      <trkpt lat="45.4372" lon="7.00423">
        <ele>2348.4</ele>
        <time>2021-07-23T10:35:20.285Z</time>
      </trkpt>
      <trkpt lat="45.43718" lon="7.00422">
        <ele>2348.4</ele>
        <time>2021-07-23T10:35:21.285Z</time>
      </trkpt>
      <trkpt lat="45.43716" lon="7.00421">
        <ele>2348.4</ele>
        <time>2021-07-23T10:35:22.285Z</time>
      </trkpt>
      <trkpt lat="45.43714" lon="7.0042">
        <ele>2348.4</ele>
        <time>2021-07-23T10:35:23.285Z</time>
      </trkpt>
      <trkpt lat="45.43711" lon="7.00419">
        <ele>2348.4</ele>
        <time>2021-07-23T10:35:24.285Z</time>
      </trkpt>
      <trkpt lat="45.43709" lon="7.00417">
        <ele>2348.4</ele>
        <time>2021-07-23T10:35:25.285Z</time>
      </trkpt>
      <trkpt lat="45.43707" lon="7.00416">
        <ele>2348.4</ele>
        <time>2021-07-23T10:35:26.285Z</time>
      </trkpt>
      <trkpt lat="45.43705" lon="7.00414">
        <ele>2349.2</ele>
        <time>2021-07-23T10:35:27.285Z</time>
      </trkpt>
      <trkpt lat="45.43703" lon="7.00412">
        <ele>2349.6</ele>
        <time>2021-07-23T10:35:28.285Z</time>
      </trkpt>
      <trkpt lat="45.43701" lon="7.00411">
        <ele>2350</ele>
        <time>2021-07-23T10:35:29.285Z</time>
      </trkpt>
      <trkpt lat="45.43699" lon="7.00409">
        <ele>2350.4</ele>
        <time>2021-07-23T10:35:30.285Z</time>
      </trkpt>
      <trkpt lat="45.43697" lon="7.00408">
        <ele>2350.4</ele>
        <time>2021-07-23T10:35:31.285Z</time>
      </trkpt>
      <trkpt lat="45.43695" lon="7.00406">
        <ele>2350.4</ele>
        <time>2021-07-23T10:35:32.285Z</time>
      </trkpt>
      <trkpt lat="45.43693" lon="7.00404">
        <ele>2350.4</ele>
        <time>2021-07-23T10:35:33.285Z</time>
      </trkpt>
      <trkpt lat="45.43691" lon="7.00401">
        <ele>2350.4</ele>
        <time>2021-07-23T10:35:34.285Z</time>
      </trkpt>
      <trkpt lat="45.43689" lon="7.00399">
        <ele>2350.8</ele>
        <time>2021-07-23T10:35:35.285Z</time>
      </trkpt>
      <trkpt lat="45.43687" lon="7.00397">
        <ele>2351.2</ele>
        <time>2021-07-23T10:35:36.285Z</time>
      </trkpt>
      <trkpt lat="45.43685" lon="7.00395">
        <ele>2351.6</ele>
        <time>2021-07-23T10:35:37.285Z</time>
      </trkpt>
      <trkpt lat="45.43683" lon="7.00393">
        <ele>2352</ele>
        <time>2021-07-23T10:35:38.285Z</time>
      </trkpt>
      <trkpt lat="45.43681" lon="7.00391">
        <ele>2352.4</ele>
        <time>2021-07-23T10:35:39.285Z</time>
      </trkpt>
      <trkpt lat="45.43679" lon="7.00389">
        <ele>2352.4</ele>
        <time>2021-07-23T10:35:40.285Z</time>
      </trkpt>
      <trkpt lat="45.43677" lon="7.00387">
        <ele>2352.4</ele>
        <time>2021-07-23T10:35:41.285Z</time>
      </trkpt>
      <trkpt lat="45.43674" lon="7.00385">
        <ele>2352.4</ele>
        <time>2021-07-23T10:35:42.285Z</time>
      </trkpt>
      <trkpt lat="45.43673" lon="7.00382">
        <ele>2352.4</ele>
        <time>2021-07-23T10:35:43.285Z</time>
      </trkpt>
      <trkpt lat="45.43671" lon="7.00379">
        <ele>2352.4</ele>
        <time>2021-07-23T10:35:44.285Z</time>
      </trkpt>
      <trkpt lat="45.43669" lon="7.00376">
        <ele>2352.4</ele>
        <time>2021-07-23T10:35:45.285Z</time>
      </trkpt>
      <trkpt lat="45.43666" lon="7.00373">
        <ele>2352.8</ele>
        <time>2021-07-23T10:35:46.285Z</time>
      </trkpt>
      <trkpt lat="45.43664" lon="7.0037">
        <ele>2353.2</ele>
        <time>2021-07-23T10:35:47.285Z</time>
      </trkpt>
      <trkpt lat="45.43662" lon="7.00367">
        <ele>2353.6</ele>
        <time>2021-07-23T10:35:48.285Z</time>
      </trkpt>
      <trkpt lat="45.4366" lon="7.00363">
        <ele>2354.2</ele>
        <time>2021-07-23T10:35:49.285Z</time>
      </trkpt>
      <trkpt lat="45.43657" lon="7.0036">
        <ele>2354.6</ele>
        <time>2021-07-23T10:35:50.285Z</time>
      </trkpt>
      <trkpt lat="45.43655" lon="7.00358">
        <ele>2354.6</ele>
        <time>2021-07-23T10:35:51.285Z</time>
      </trkpt>
      <trkpt lat="45.43654" lon="7.00354">
        <ele>2354.6</ele>
        <time>2021-07-23T10:35:52.285Z</time>
      </trkpt>
      <trkpt lat="45.43652" lon="7.00351">
        <ele>2354.6</ele>
        <time>2021-07-23T10:35:53.285Z</time>
      </trkpt>
      <trkpt lat="45.4365" lon="7.00348">
        <ele>2354.6</ele>
        <time>2021-07-23T10:35:54.285Z</time>
      </trkpt>
      <trkpt lat="45.43649" lon="7.00345">
        <ele>2354.6</ele>
        <time>2021-07-23T10:35:55.285Z</time>
      </trkpt>
      <trkpt lat="45.43647" lon="7.00342">
        <ele>2354.6</ele>
        <time>2021-07-23T10:35:56.285Z</time>
      </trkpt>
      <trkpt lat="45.43646" lon="7.00339">
        <ele>2354.6</ele>
        <time>2021-07-23T10:35:57.285Z</time>
      </trkpt>
      <trkpt lat="45.43644" lon="7.00336">
        <ele>2354.6</ele>
        <time>2021-07-23T10:35:58.285Z</time>
      </trkpt>
      <trkpt lat="45.43643" lon="7.00333">
        <ele>2355</ele>
        <time>2021-07-23T10:35:59.285Z</time>
      </trkpt>
      <trkpt lat="45.43641" lon="7.0033">
        <ele>2355.4</ele>
        <time>2021-07-23T10:36:00.285Z</time>
      </trkpt>
      <trkpt lat="45.4364" lon="7.00327">
        <ele>2356</ele>
        <time>2021-07-23T10:36:01.285Z</time>
      </trkpt>
      <trkpt lat="45.43639" lon="7.00324">
        <ele>2356.4</ele>
        <time>2021-07-23T10:36:02.285Z</time>
      </trkpt>
      <trkpt lat="45.43637" lon="7.00321">
        <ele>2356.8</ele>
        <time>2021-07-23T10:36:03.285Z</time>
      </trkpt>
      <trkpt lat="45.43636" lon="7.00318">
        <ele>2356.8</ele>
        <time>2021-07-23T10:36:04.285Z</time>
      </trkpt>
      <trkpt lat="45.43635" lon="7.00315">
        <ele>2356.8</ele>
        <time>2021-07-23T10:36:05.285Z</time>
      </trkpt>
      <trkpt lat="45.43633" lon="7.00312">
        <ele>2357.2</ele>
        <time>2021-07-23T10:36:06.285Z</time>
      </trkpt>
      <trkpt lat="45.43632" lon="7.00309">
        <ele>2357.6</ele>
        <time>2021-07-23T10:36:07.285Z</time>
      </trkpt>
      <trkpt lat="45.43631" lon="7.00306">
        <ele>2358</ele>
        <time>2021-07-23T10:36:08.285Z</time>
      </trkpt>
      <trkpt lat="45.43629" lon="7.00303">
        <ele>2358.6</ele>
        <time>2021-07-23T10:36:09.285Z</time>
      </trkpt>
      <trkpt lat="45.43628" lon="7.003">
        <ele>2359</ele>
        <time>2021-07-23T10:36:10.285Z</time>
      </trkpt>
      <trkpt lat="45.43626" lon="7.00297">
        <ele>2359</ele>
        <time>2021-07-23T10:36:11.285Z</time>
      </trkpt>
      <trkpt lat="45.43624" lon="7.00295">
        <ele>2359</ele>
        <time>2021-07-23T10:36:12.285Z</time>
      </trkpt>
      <trkpt lat="45.43622" lon="7.00293">
        <ele>2359</ele>
        <time>2021-07-23T10:36:13.285Z</time>
      </trkpt>
      <trkpt lat="45.4362" lon="7.0029">
        <ele>2359</ele>
        <time>2021-07-23T10:36:14.285Z</time>
      </trkpt>
      <trkpt lat="45.43618" lon="7.00288">
        <ele>2359.4</ele>
        <time>2021-07-23T10:36:15.285Z</time>
      </trkpt>
      <trkpt lat="45.43615" lon="7.00286">
        <ele>2360.2</ele>
        <time>2021-07-23T10:36:16.285Z</time>
      </trkpt>
      <trkpt lat="45.43612" lon="7.00284">
        <ele>2360.6</ele>
        <time>2021-07-23T10:36:17.285Z</time>
      </trkpt>
      <trkpt lat="45.4361" lon="7.00283">
        <ele>2361</ele>
        <time>2021-07-23T10:36:18.285Z</time>
      </trkpt>
      <trkpt lat="45.43607" lon="7.00281">
        <ele>2361</ele>
        <time>2021-07-23T10:36:19.285Z</time>
      </trkpt>
      <trkpt lat="45.43604" lon="7.0028">
        <ele>2361</ele>
        <time>2021-07-23T10:36:20.285Z</time>
      </trkpt>
      <trkpt lat="45.43602" lon="7.00278">
        <ele>2361</ele>
        <time>2021-07-23T10:36:21.285Z</time>
      </trkpt>
      <trkpt lat="45.43599" lon="7.00277">
        <ele>2361</ele>
        <time>2021-07-23T10:36:22.285Z</time>
      </trkpt>
      <trkpt lat="45.43596" lon="7.00275">
        <ele>2361</ele>
        <time>2021-07-23T10:36:23.285Z</time>
      </trkpt>
      <trkpt lat="45.43594" lon="7.00274">
        <ele>2361</ele>
        <time>2021-07-23T10:36:24.285Z</time>
      </trkpt>
      <trkpt lat="45.43591" lon="7.00272">
        <ele>2361</ele>
        <time>2021-07-23T10:36:25.285Z</time>
      </trkpt>
      <trkpt lat="45.43588" lon="7.00271">
        <ele>2361</ele>
        <time>2021-07-23T10:36:26.285Z</time>
      </trkpt>
      <trkpt lat="45.43586" lon="7.00269">
        <ele>2361.4</ele>
        <time>2021-07-23T10:36:27.285Z</time>
      </trkpt>
      <trkpt lat="45.43583" lon="7.00268">
        <ele>2361.8</ele>
        <time>2021-07-23T10:36:28.285Z</time>
      </trkpt>
      <trkpt lat="45.4358" lon="7.00267">
        <ele>2362.2</ele>
        <time>2021-07-23T10:36:29.285Z</time>
      </trkpt>
      <trkpt lat="45.43577" lon="7.00265">
        <ele>2362.8</ele>
        <time>2021-07-23T10:36:30.285Z</time>
      </trkpt>
      <trkpt lat="45.43575" lon="7.00263">
        <ele>2363.2</ele>
        <time>2021-07-23T10:36:31.285Z</time>
      </trkpt>
      <trkpt lat="45.43572" lon="7.00261">
        <ele>2363.2</ele>
        <time>2021-07-23T10:36:32.285Z</time>
      </trkpt>
      <trkpt lat="45.4357" lon="7.0026">
        <ele>2363.2</ele>
        <time>2021-07-23T10:36:33.285Z</time>
      </trkpt>
      <trkpt lat="45.43567" lon="7.00258">
        <ele>2363.2</ele>
        <time>2021-07-23T10:36:34.285Z</time>
      </trkpt>
      <trkpt lat="45.43565" lon="7.00256">
        <ele>2363.2</ele>
        <time>2021-07-23T10:36:35.285Z</time>
      </trkpt>
      <trkpt lat="45.43562" lon="7.00254">
        <ele>2363.2</ele>
        <time>2021-07-23T10:36:36.285Z</time>
      </trkpt>
      <trkpt lat="45.4356" lon="7.00252">
        <ele>2363.2</ele>
        <time>2021-07-23T10:36:37.285Z</time>
      </trkpt>
      <trkpt lat="45.43557" lon="7.0025">
        <ele>2363.6</ele>
        <time>2021-07-23T10:36:38.285Z</time>
      </trkpt>
      <trkpt lat="45.43555" lon="7.00248">
        <ele>2364</ele>
        <time>2021-07-23T10:36:39.285Z</time>
      </trkpt>
      <trkpt lat="45.43552" lon="7.00247">
        <ele>2364.4</ele>
        <time>2021-07-23T10:36:40.285Z</time>
      </trkpt>
      <trkpt lat="45.4355" lon="7.00245">
        <ele>2365.4</ele>
        <time>2021-07-23T10:36:41.285Z</time>
      </trkpt>
      <trkpt lat="45.43547" lon="7.00243">
        <ele>2365.4</ele>
        <time>2021-07-23T10:36:42.285Z</time>
      </trkpt>
      <trkpt lat="45.43545" lon="7.00241">
        <ele>2365.4</ele>
        <time>2021-07-23T10:36:43.285Z</time>
      </trkpt>
      <trkpt lat="45.43542" lon="7.00239">
        <ele>2365.4</ele>
        <time>2021-07-23T10:36:44.285Z</time>
      </trkpt>
      <trkpt lat="45.4354" lon="7.00237">
        <ele>2365.4</ele>
        <time>2021-07-23T10:36:45.285Z</time>
      </trkpt>
      <trkpt lat="45.43538" lon="7.00235">
        <ele>2365.4</ele>
        <time>2021-07-23T10:36:46.285Z</time>
      </trkpt>
      <trkpt lat="45.43535" lon="7.00233">
        <ele>2365.4</ele>
        <time>2021-07-23T10:36:47.285Z</time>
      </trkpt>
      <trkpt lat="45.43533" lon="7.00232">
        <ele>2365.4</ele>
        <time>2021-07-23T10:36:48.285Z</time>
      </trkpt>
      <trkpt lat="45.43531" lon="7.0023">
        <ele>2365.8</ele>
        <time>2021-07-23T10:36:49.285Z</time>
      </trkpt>
      <trkpt lat="45.43529" lon="7.00229">
        <ele>2366.2</ele>
        <time>2021-07-23T10:36:50.285Z</time>
      </trkpt>
      <trkpt lat="45.43526" lon="7.00227">
        <ele>2366.6</ele>
        <time>2021-07-23T10:36:51.285Z</time>
      </trkpt>
      <trkpt lat="45.43524" lon="7.00226">
        <ele>2367</ele>
        <time>2021-07-23T10:36:52.285Z</time>
      </trkpt>
      <trkpt lat="45.43521" lon="7.00224">
        <ele>2367.4</ele>
        <time>2021-07-23T10:36:53.285Z</time>
      </trkpt>
      <trkpt lat="45.43519" lon="7.00223">
        <ele>2367.4</ele>
        <time>2021-07-23T10:36:54.285Z</time>
      </trkpt>
      <trkpt lat="45.43516" lon="7.00222">
        <ele>2367.4</ele>
        <time>2021-07-23T10:36:55.285Z</time>
      </trkpt>
      <trkpt lat="45.43514" lon="7.00222">
        <ele>2367.4</ele>
        <time>2021-07-23T10:36:56.285Z</time>
      </trkpt>
      <trkpt lat="45.43512" lon="7.00221">
        <ele>2367.4</ele>
        <time>2021-07-23T10:36:57.285Z</time>
      </trkpt>
      <trkpt lat="45.43509" lon="7.00221">
        <ele>2367.8</ele>
        <time>2021-07-23T10:36:58.285Z</time>
      </trkpt>
      <trkpt lat="45.43507" lon="7.00221">
        <ele>2368.2</ele>
        <time>2021-07-23T10:36:59.285Z</time>
      </trkpt>
      <trkpt lat="45.43504" lon="7.00221">
        <ele>2368.6</ele>
        <time>2021-07-23T10:37:00.285Z</time>
      </trkpt>
      <trkpt lat="45.43502" lon="7.00221">
        <ele>2369.2</ele>
        <time>2021-07-23T10:37:01.285Z</time>
      </trkpt>
      <trkpt lat="45.43499" lon="7.00221">
        <ele>2369.6</ele>
        <time>2021-07-23T10:37:02.285Z</time>
      </trkpt>
      <trkpt lat="45.43497" lon="7.00222">
        <ele>2369.6</ele>
        <time>2021-07-23T10:37:03.285Z</time>
      </trkpt>
      <trkpt lat="45.43494" lon="7.00223">
        <ele>2369.6</ele>
        <time>2021-07-23T10:37:04.285Z</time>
      </trkpt>
      <trkpt lat="45.43492" lon="7.00224">
        <ele>2369.6</ele>
        <time>2021-07-23T10:37:05.285Z</time>
      </trkpt>
      <trkpt lat="45.43489" lon="7.00224">
        <ele>2369.6</ele>
        <time>2021-07-23T10:37:06.285Z</time>
      </trkpt>
      <trkpt lat="45.43486" lon="7.00225">
        <ele>2369.6</ele>
        <time>2021-07-23T10:37:07.285Z</time>
      </trkpt>
      <trkpt lat="45.43484" lon="7.00226">
        <ele>2370</ele>
        <time>2021-07-23T10:37:08.285Z</time>
      </trkpt>
      <trkpt lat="45.43481" lon="7.00225">
        <ele>2370.4</ele>
        <time>2021-07-23T10:37:09.285Z</time>
      </trkpt>
      <trkpt lat="45.43479" lon="7.00226">
        <ele>2370.8</ele>
        <time>2021-07-23T10:37:10.285Z</time>
      </trkpt>
      <trkpt lat="45.43476" lon="7.00226">
        <ele>2371.2</ele>
        <time>2021-07-23T10:37:11.285Z</time>
      </trkpt>
      <trkpt lat="45.43474" lon="7.00225">
        <ele>2371.8</ele>
        <time>2021-07-23T10:37:12.285Z</time>
      </trkpt>
      <trkpt lat="45.43472" lon="7.00224">
        <ele>2371.8</ele>
        <time>2021-07-23T10:37:13.285Z</time>
      </trkpt>
      <trkpt lat="45.43469" lon="7.00223">
        <ele>2371.8</ele>
        <time>2021-07-23T10:37:14.285Z</time>
      </trkpt>
      <trkpt lat="45.43467" lon="7.00222">
        <ele>2371.8</ele>
        <time>2021-07-23T10:37:15.285Z</time>
      </trkpt>
      <trkpt lat="45.43465" lon="7.00221">
        <ele>2372.2</ele>
        <time>2021-07-23T10:37:16.285Z</time>
      </trkpt>
      <trkpt lat="45.43462" lon="7.0022">
        <ele>2372.6</ele>
        <time>2021-07-23T10:37:17.285Z</time>
      </trkpt>
      <trkpt lat="45.4346" lon="7.00219">
        <ele>2373</ele>
        <time>2021-07-23T10:37:18.285Z</time>
      </trkpt>
      <trkpt lat="45.43458" lon="7.00218">
        <ele>2373.4</ele>
        <time>2021-07-23T10:37:19.285Z</time>
      </trkpt>
      <trkpt lat="45.43456" lon="7.00216">
        <ele>2373.8</ele>
        <time>2021-07-23T10:37:20.285Z</time>
      </trkpt>
      <trkpt lat="45.43454" lon="7.00215">
        <ele>2373.8</ele>
        <time>2021-07-23T10:37:21.285Z</time>
      </trkpt>
      <trkpt lat="45.43452" lon="7.00214">
        <ele>2373.8</ele>
        <time>2021-07-23T10:37:22.285Z</time>
      </trkpt>
      <trkpt lat="45.4345" lon="7.00213">
        <ele>2373.8</ele>
        <time>2021-07-23T10:37:23.285Z</time>
      </trkpt>
      <trkpt lat="45.43447" lon="7.00212">
        <ele>2373.8</ele>
        <time>2021-07-23T10:37:24.285Z</time>
      </trkpt>
      <trkpt lat="45.43445" lon="7.00211">
        <ele>2374.2</ele>
        <time>2021-07-23T10:37:25.285Z</time>
      </trkpt>
      <trkpt lat="45.43443" lon="7.0021">
        <ele>2374.6</ele>
        <time>2021-07-23T10:37:26.285Z</time>
      </trkpt>
      <trkpt lat="45.43441" lon="7.00208">
        <ele>2375</ele>
        <time>2021-07-23T10:37:27.285Z</time>
      </trkpt>
      <trkpt lat="45.43439" lon="7.00207">
        <ele>2375.4</ele>
        <time>2021-07-23T10:37:28.285Z</time>
      </trkpt>
      <trkpt lat="45.43437" lon="7.00206">
        <ele>2375.8</ele>
        <time>2021-07-23T10:37:29.285Z</time>
      </trkpt>
      <trkpt lat="45.43435" lon="7.00205">
        <ele>2375.8</ele>
        <time>2021-07-23T10:37:30.285Z</time>
      </trkpt>
      <trkpt lat="45.43433" lon="7.00204">
        <ele>2376.2</ele>
        <time>2021-07-23T10:37:31.285Z</time>
      </trkpt>
      <trkpt lat="45.43431" lon="7.00203">
        <ele>2376.6</ele>
        <time>2021-07-23T10:37:32.285Z</time>
      </trkpt>
      <trkpt lat="45.43429" lon="7.00202">
        <ele>2377</ele>
        <time>2021-07-23T10:37:33.285Z</time>
      </trkpt>
      <trkpt lat="45.43427" lon="7.00201">
        <ele>2377.4</ele>
        <time>2021-07-23T10:37:34.285Z</time>
      </trkpt>
      <trkpt lat="45.43426" lon="7.002">
        <ele>2377.8</ele>
        <time>2021-07-23T10:37:35.285Z</time>
      </trkpt>
      <trkpt lat="45.43424" lon="7.00199">
        <ele>2377.8</ele>
        <time>2021-07-23T10:37:36.285Z</time>
      </trkpt>
      <trkpt lat="45.43421" lon="7.00199">
        <ele>2377.8</ele>
        <time>2021-07-23T10:37:37.285Z</time>
      </trkpt>
      <trkpt lat="45.43419" lon="7.00199">
        <ele>2377.8</ele>
        <time>2021-07-23T10:37:38.285Z</time>
      </trkpt>
      <trkpt lat="45.43417" lon="7.00199">
        <ele>2378.4</ele>
        <time>2021-07-23T10:37:39.285Z</time>
      </trkpt>
      <trkpt lat="45.43415" lon="7.00199">
        <ele>2378.8</ele>
        <time>2021-07-23T10:37:40.285Z</time>
      </trkpt>
      <trkpt lat="45.43413" lon="7.00199">
        <ele>2379.2</ele>
        <time>2021-07-23T10:37:41.285Z</time>
      </trkpt>
      <trkpt lat="45.43411" lon="7.002">
        <ele>2379.6</ele>
        <time>2021-07-23T10:37:42.285Z</time>
      </trkpt>
      <trkpt lat="45.43409" lon="7.00201">
        <ele>2380.2</ele>
        <time>2021-07-23T10:37:43.285Z</time>
      </trkpt>
      <trkpt lat="45.43407" lon="7.00202">
        <ele>2380.2</ele>
        <time>2021-07-23T10:37:44.285Z</time>
      </trkpt>
      <trkpt lat="45.43405" lon="7.00203">
        <ele>2380.2</ele>
        <time>2021-07-23T10:37:45.285Z</time>
      </trkpt>
      <trkpt lat="45.43403" lon="7.00204">
        <ele>2380.2</ele>
        <time>2021-07-23T10:37:46.285Z</time>
      </trkpt>
      <trkpt lat="45.43401" lon="7.00206">
        <ele>2380.2</ele>
        <time>2021-07-23T10:37:47.285Z</time>
      </trkpt>
      <trkpt lat="45.43399" lon="7.00208">
        <ele>2380.6</ele>
        <time>2021-07-23T10:37:48.285Z</time>
      </trkpt>
      <trkpt lat="45.43398" lon="7.00211">
        <ele>2381</ele>
        <time>2021-07-23T10:37:49.285Z</time>
      </trkpt>
      <trkpt lat="45.43396" lon="7.00214">
        <ele>2381.4</ele>
        <time>2021-07-23T10:37:50.285Z</time>
      </trkpt>
      <trkpt lat="45.43394" lon="7.00217">
        <ele>2381.8</ele>
        <time>2021-07-23T10:37:51.285Z</time>
      </trkpt>
      <trkpt lat="45.43392" lon="7.00219">
        <ele>2382.2</ele>
        <time>2021-07-23T10:37:52.285Z</time>
      </trkpt>
      <trkpt lat="45.4339" lon="7.00222">
        <ele>2382.2</ele>
        <time>2021-07-23T10:37:53.285Z</time>
      </trkpt>
      <trkpt lat="45.43388" lon="7.00225">
        <ele>2382.2</ele>
        <time>2021-07-23T10:37:54.285Z</time>
      </trkpt>
      <trkpt lat="45.43386" lon="7.00227">
        <ele>2382.2</ele>
        <time>2021-07-23T10:37:55.285Z</time>
      </trkpt>
      <trkpt lat="45.43385" lon="7.0023">
        <ele>2382.2</ele>
        <time>2021-07-23T10:37:56.285Z</time>
      </trkpt>
      <trkpt lat="45.43383" lon="7.00233">
        <ele>2382.2</ele>
        <time>2021-07-23T10:37:57.285Z</time>
      </trkpt>
      <trkpt lat="45.43381" lon="7.00235">
        <ele>2382.2</ele>
        <time>2021-07-23T10:37:58.285Z</time>
      </trkpt>
      <trkpt lat="45.4338" lon="7.00238">
        <ele>2382.2</ele>
        <time>2021-07-23T10:37:59.285Z</time>
      </trkpt>
      <trkpt lat="45.43378" lon="7.00241">
        <ele>2382.2</ele>
        <time>2021-07-23T10:38:00.285Z</time>
      </trkpt>
      <trkpt lat="45.43376" lon="7.00244">
        <ele>2382.6</ele>
        <time>2021-07-23T10:38:01.285Z</time>
      </trkpt>
      <trkpt lat="45.43374" lon="7.00246">
        <ele>2383</ele>
        <time>2021-07-23T10:38:02.285Z</time>
      </trkpt>
      <trkpt lat="45.43372" lon="7.00249">
        <ele>2383.4</ele>
        <time>2021-07-23T10:38:03.285Z</time>
      </trkpt>
      <trkpt lat="45.43371" lon="7.00252">
        <ele>2383.8</ele>
        <time>2021-07-23T10:38:04.285Z</time>
      </trkpt>
      <trkpt lat="45.43369" lon="7.00254">
        <ele>2384.4</ele>
        <time>2021-07-23T10:38:05.285Z</time>
      </trkpt>
      <trkpt lat="45.43366" lon="7.00255">
        <ele>2384.4</ele>
        <time>2021-07-23T10:38:06.285Z</time>
      </trkpt>
      <trkpt lat="45.43364" lon="7.00257">
        <ele>2384.4</ele>
        <time>2021-07-23T10:38:07.285Z</time>
      </trkpt>
      <trkpt lat="45.43361" lon="7.00258">
        <ele>2384.4</ele>
        <time>2021-07-23T10:38:08.285Z</time>
      </trkpt>
      <trkpt lat="45.43359" lon="7.00259">
        <ele>2384.4</ele>
        <time>2021-07-23T10:38:09.285Z</time>
      </trkpt>
      <trkpt lat="45.43357" lon="7.0026">
        <ele>2384.4</ele>
        <time>2021-07-23T10:38:10.285Z</time>
      </trkpt>
      <trkpt lat="45.43354" lon="7.0026">
        <ele>2384.8</ele>
        <time>2021-07-23T10:38:11.285Z</time>
      </trkpt>
      <trkpt lat="45.43352" lon="7.0026">
        <ele>2385.2</ele>
        <time>2021-07-23T10:38:12.285Z</time>
      </trkpt>
      <trkpt lat="45.43349" lon="7.0026">
        <ele>2385.6</ele>
        <time>2021-07-23T10:38:13.285Z</time>
      </trkpt>
      <trkpt lat="45.43347" lon="7.00259">
        <ele>2386</ele>
        <time>2021-07-23T10:38:14.285Z</time>
      </trkpt>
      <trkpt lat="45.43344" lon="7.00258">
        <ele>2386.4</ele>
        <time>2021-07-23T10:38:15.285Z</time>
      </trkpt>
      <trkpt lat="45.43341" lon="7.00257">
        <ele>2386.4</ele>
        <time>2021-07-23T10:38:16.285Z</time>
      </trkpt>
      <trkpt lat="45.43339" lon="7.00255">
        <ele>2386.4</ele>
        <time>2021-07-23T10:38:17.285Z</time>
      </trkpt>
      <trkpt lat="45.43336" lon="7.00254">
        <ele>2386.4</ele>
        <time>2021-07-23T10:38:18.285Z</time>
      </trkpt>
      <trkpt lat="45.43333" lon="7.00253">
        <ele>2386.4</ele>
        <time>2021-07-23T10:38:19.285Z</time>
      </trkpt>
      <trkpt lat="45.43331" lon="7.00251">
        <ele>2386.4</ele>
        <time>2021-07-23T10:38:20.285Z</time>
      </trkpt>
      <trkpt lat="45.43328" lon="7.00249">
        <ele>2386.8</ele>
        <time>2021-07-23T10:38:21.285Z</time>
      </trkpt>
      <trkpt lat="45.43326" lon="7.00247">
        <ele>2387.2</ele>
        <time>2021-07-23T10:38:22.285Z</time>
      </trkpt>
      <trkpt lat="45.43323" lon="7.00245">
        <ele>2387.6</ele>
        <time>2021-07-23T10:38:23.285Z</time>
      </trkpt>
      <trkpt lat="45.4332" lon="7.00243">
        <ele>2388</ele>
        <time>2021-07-23T10:38:24.285Z</time>
      </trkpt>
      <trkpt lat="45.43318" lon="7.0024">
        <ele>2388.4</ele>
        <time>2021-07-23T10:38:25.285Z</time>
      </trkpt>
      <trkpt lat="45.43315" lon="7.00238">
        <ele>2388.4</ele>
        <time>2021-07-23T10:38:26.285Z</time>
      </trkpt>
      <trkpt lat="45.43313" lon="7.00236">
        <ele>2388.4</ele>
        <time>2021-07-23T10:38:27.285Z</time>
      </trkpt>
      <trkpt lat="45.4331" lon="7.00234">
        <ele>2388.4</ele>
        <time>2021-07-23T10:38:28.285Z</time>
      </trkpt>
      <trkpt lat="45.43307" lon="7.00232">
        <ele>2388.8</ele>
        <time>2021-07-23T10:38:29.285Z</time>
      </trkpt>
      <trkpt lat="45.43304" lon="7.00231">
        <ele>2389.4</ele>
        <time>2021-07-23T10:38:30.285Z</time>
      </trkpt>
      <trkpt lat="45.433" lon="7.00229">
        <ele>2389.8</ele>
        <time>2021-07-23T10:38:31.285Z</time>
      </trkpt>
      <trkpt lat="45.43297" lon="7.00228">
        <ele>2390.2</ele>
        <time>2021-07-23T10:38:32.285Z</time>
      </trkpt>
      <trkpt lat="45.43294" lon="7.00227">
        <ele>2390.6</ele>
        <time>2021-07-23T10:38:33.285Z</time>
      </trkpt>
      <trkpt lat="45.43291" lon="7.00226">
        <ele>2390.6</ele>
        <time>2021-07-23T10:38:34.285Z</time>
      </trkpt>
      <trkpt lat="45.43289" lon="7.00225">
        <ele>2390.6</ele>
        <time>2021-07-23T10:38:35.285Z</time>
      </trkpt>
      <trkpt lat="45.43286" lon="7.00225">
        <ele>2390.6</ele>
        <time>2021-07-23T10:38:36.285Z</time>
      </trkpt>
      <trkpt lat="45.43283" lon="7.00224">
        <ele>2390.6</ele>
        <time>2021-07-23T10:38:37.285Z</time>
      </trkpt>
      <trkpt lat="45.4328" lon="7.00223">
        <ele>2390.6</ele>
        <time>2021-07-23T10:38:38.285Z</time>
      </trkpt>
      <trkpt lat="45.43277" lon="7.00222">
        <ele>2390.6</ele>
        <time>2021-07-23T10:38:39.285Z</time>
      </trkpt>
      <trkpt lat="45.43275" lon="7.00221">
        <ele>2391</ele>
        <time>2021-07-23T10:38:40.285Z</time>
      </trkpt>
      <trkpt lat="45.43272" lon="7.00221">
        <ele>2391.4</ele>
        <time>2021-07-23T10:38:41.285Z</time>
      </trkpt>
      <trkpt lat="45.43269" lon="7.0022">
        <ele>2391.8</ele>
        <time>2021-07-23T10:38:42.285Z</time>
      </trkpt>
      <trkpt lat="45.43266" lon="7.00218">
        <ele>2392.4</ele>
        <time>2021-07-23T10:38:43.285Z</time>
      </trkpt>
      <trkpt lat="45.43263" lon="7.00217">
        <ele>2392.8</ele>
        <time>2021-07-23T10:38:44.285Z</time>
      </trkpt>
      <trkpt lat="45.43261" lon="7.00216">
        <ele>2392.8</ele>
        <time>2021-07-23T10:38:45.285Z</time>
      </trkpt>
      <trkpt lat="45.43258" lon="7.00215">
        <ele>2392.8</ele>
        <time>2021-07-23T10:38:46.285Z</time>
      </trkpt>
      <trkpt lat="45.43255" lon="7.00214">
        <ele>2392.8</ele>
        <time>2021-07-23T10:38:47.285Z</time>
      </trkpt>
      <trkpt lat="45.43252" lon="7.00214">
        <ele>2392.8</ele>
        <time>2021-07-23T10:38:48.285Z</time>
      </trkpt>
      <trkpt lat="45.43249" lon="7.00213">
        <ele>2392.8</ele>
        <time>2021-07-23T10:38:49.285Z</time>
      </trkpt>
      <trkpt lat="45.43246" lon="7.00212">
        <ele>2392.8</ele>
        <time>2021-07-23T10:38:50.285Z</time>
      </trkpt>
      <trkpt lat="45.43244" lon="7.00211">
        <ele>2392.8</ele>
        <time>2021-07-23T10:38:51.285Z</time>
      </trkpt>
      <trkpt lat="45.43241" lon="7.0021">
        <ele>2393.2</ele>
        <time>2021-07-23T10:38:52.285Z</time>
      </trkpt>
      <trkpt lat="45.43238" lon="7.00209">
        <ele>2393.6</ele>
        <time>2021-07-23T10:38:53.285Z</time>
      </trkpt>
      <trkpt lat="45.43236" lon="7.00208">
        <ele>2394</ele>
        <time>2021-07-23T10:38:54.285Z</time>
      </trkpt>
      <trkpt lat="45.43233" lon="7.00207">
        <ele>2394.4</ele>
        <time>2021-07-23T10:38:55.285Z</time>
      </trkpt>
      <trkpt lat="45.4323" lon="7.00206">
        <ele>2394.8</ele>
        <time>2021-07-23T10:38:56.285Z</time>
      </trkpt>
      <trkpt lat="45.43228" lon="7.00204">
        <ele>2394.8</ele>
        <time>2021-07-23T10:38:57.285Z</time>
      </trkpt>
      <trkpt lat="45.43225" lon="7.00203">
        <ele>2394.8</ele>
        <time>2021-07-23T10:38:58.285Z</time>
      </trkpt>
      <trkpt lat="45.43223" lon="7.00202">
        <ele>2394.8</ele>
        <time>2021-07-23T10:38:59.285Z</time>
      </trkpt>
      <trkpt lat="45.4322" lon="7.002">
        <ele>2394.8</ele>
        <time>2021-07-23T10:39:00.285Z</time>
      </trkpt>
      <trkpt lat="45.43217" lon="7.00198">
        <ele>2394.8</ele>
        <time>2021-07-23T10:39:01.285Z</time>
      </trkpt>
      <trkpt lat="45.43215" lon="7.00196">
        <ele>2394.8</ele>
        <time>2021-07-23T10:39:02.285Z</time>
      </trkpt>
      <trkpt lat="45.43213" lon="7.00194">
        <ele>2394.8</ele>
        <time>2021-07-23T10:39:03.285Z</time>
      </trkpt>
      <trkpt lat="45.4321" lon="7.00192">
        <ele>2395.2</ele>
        <time>2021-07-23T10:39:04.285Z</time>
      </trkpt>
      <trkpt lat="45.43208" lon="7.0019">
        <ele>2395.8</ele>
        <time>2021-07-23T10:39:05.285Z</time>
      </trkpt>
      <trkpt lat="45.43206" lon="7.00188">
        <ele>2396.2</ele>
        <time>2021-07-23T10:39:06.285Z</time>
      </trkpt>
      <trkpt lat="45.43203" lon="7.00186">
        <ele>2396.6</ele>
        <time>2021-07-23T10:39:07.285Z</time>
      </trkpt>
      <trkpt lat="45.43201" lon="7.00185">
        <ele>2397</ele>
        <time>2021-07-23T10:39:08.285Z</time>
      </trkpt>
      <trkpt lat="45.43198" lon="7.00183">
        <ele>2397</ele>
        <time>2021-07-23T10:39:09.285Z</time>
      </trkpt>
      <trkpt lat="45.43196" lon="7.00181">
        <ele>2397</ele>
        <time>2021-07-23T10:39:10.285Z</time>
      </trkpt>
      <trkpt lat="45.43194" lon="7.00179">
        <ele>2397</ele>
        <time>2021-07-23T10:39:11.285Z</time>
      </trkpt>
      <trkpt lat="45.43191" lon="7.00177">
        <ele>2397</ele>
        <time>2021-07-23T10:39:12.285Z</time>
      </trkpt>
      <trkpt lat="45.43189" lon="7.00176">
        <ele>2397</ele>
        <time>2021-07-23T10:39:13.285Z</time>
      </trkpt>
      <trkpt lat="45.43186" lon="7.00175">
        <ele>2397.4</ele>
        <time>2021-07-23T10:39:14.285Z</time>
      </trkpt>
      <trkpt lat="45.43184" lon="7.00174">
        <ele>2397.8</ele>
        <time>2021-07-23T10:39:15.285Z</time>
      </trkpt>
      <trkpt lat="45.43181" lon="7.00172">
        <ele>2398.2</ele>
        <time>2021-07-23T10:39:16.285Z</time>
      </trkpt>
      <trkpt lat="45.43179" lon="7.00172">
        <ele>2398.6</ele>
        <time>2021-07-23T10:39:17.285Z</time>
      </trkpt>
      <trkpt lat="45.43176" lon="7.00171">
        <ele>2399</ele>
        <time>2021-07-23T10:39:18.285Z</time>
      </trkpt>
      <trkpt lat="45.43174" lon="7.00169">
        <ele>2399</ele>
        <time>2021-07-23T10:39:19.285Z</time>
      </trkpt>
      <trkpt lat="45.43171" lon="7.00168">
        <ele>2399</ele>
        <time>2021-07-23T10:39:20.285Z</time>
      </trkpt>
      <trkpt lat="45.43169" lon="7.00168">
        <ele>2399</ele>
        <time>2021-07-23T10:39:21.285Z</time>
      </trkpt>
      <trkpt lat="45.43166" lon="7.00167">
        <ele>2399</ele>
        <time>2021-07-23T10:39:22.285Z</time>
      </trkpt>
      <trkpt lat="45.43163" lon="7.00167">
        <ele>2399</ele>
        <time>2021-07-23T10:39:23.285Z</time>
      </trkpt>
      <trkpt lat="45.43161" lon="7.00166">
        <ele>2399.4</ele>
        <time>2021-07-23T10:39:24.285Z</time>
      </trkpt>
      <trkpt lat="45.43158" lon="7.00166">
        <ele>2399.8</ele>
        <time>2021-07-23T10:39:25.285Z</time>
      </trkpt>
      <trkpt lat="45.43156" lon="7.00167">
        <ele>2400.2</ele>
        <time>2021-07-23T10:39:26.285Z</time>
      </trkpt>
      <trkpt lat="45.43153" lon="7.00167">
        <ele>2400.6</ele>
        <time>2021-07-23T10:39:27.285Z</time>
      </trkpt>
      <trkpt lat="45.4315" lon="7.00167">
        <ele>2401</ele>
        <time>2021-07-23T10:39:28.285Z</time>
      </trkpt>
      <trkpt lat="45.43147" lon="7.00168">
        <ele>2401</ele>
        <time>2021-07-23T10:39:29.285Z</time>
      </trkpt>
      <trkpt lat="45.43145" lon="7.00169">
        <ele>2401</ele>
        <time>2021-07-23T10:39:30.285Z</time>
      </trkpt>
      <trkpt lat="45.43142" lon="7.0017">
        <ele>2401</ele>
        <time>2021-07-23T10:39:31.285Z</time>
      </trkpt>
      <trkpt lat="45.4314" lon="7.00171">
        <ele>2401</ele>
        <time>2021-07-23T10:39:32.285Z</time>
      </trkpt>
      <trkpt lat="45.43137" lon="7.00173">
        <ele>2401</ele>
        <time>2021-07-23T10:39:33.285Z</time>
      </trkpt>
      <trkpt lat="45.43135" lon="7.00174">
        <ele>2401</ele>
        <time>2021-07-23T10:39:34.285Z</time>
      </trkpt>
      <trkpt lat="45.43133" lon="7.00176">
        <ele>2401.4</ele>
        <time>2021-07-23T10:39:35.285Z</time>
      </trkpt>
      <trkpt lat="45.4313" lon="7.00178">
        <ele>2402</ele>
        <time>2021-07-23T10:39:36.285Z</time>
      </trkpt>
      <trkpt lat="45.43128" lon="7.0018">
        <ele>2402.4</ele>
        <time>2021-07-23T10:39:37.285Z</time>
      </trkpt>
      <trkpt lat="45.43126" lon="7.00182">
        <ele>2402.8</ele>
        <time>2021-07-23T10:39:38.285Z</time>
      </trkpt>
      <trkpt lat="45.43124" lon="7.00184">
        <ele>2403.2</ele>
        <time>2021-07-23T10:39:39.285Z</time>
      </trkpt>
      <trkpt lat="45.43122" lon="7.00187">
        <ele>2403.2</ele>
        <time>2021-07-23T10:39:40.285Z</time>
      </trkpt>
      <trkpt lat="45.4312" lon="7.0019">
        <ele>2403.2</ele>
        <time>2021-07-23T10:39:41.285Z</time>
      </trkpt>
      <trkpt lat="45.43119" lon="7.00194">
        <ele>2403.2</ele>
        <time>2021-07-23T10:39:42.285Z</time>
      </trkpt>
      <trkpt lat="45.43117" lon="7.00197">
        <ele>2403.2</ele>
        <time>2021-07-23T10:39:43.285Z</time>
      </trkpt>
      <trkpt lat="45.43116" lon="7.00202">
        <ele>2403.2</ele>
        <time>2021-07-23T10:39:44.285Z</time>
      </trkpt>
      <trkpt lat="45.43115" lon="7.00207">
        <ele>2403.2</ele>
        <time>2021-07-23T10:39:45.285Z</time>
      </trkpt>
      <trkpt lat="45.43115" lon="7.00211">
        <ele>2403.2</ele>
        <time>2021-07-23T10:39:46.285Z</time>
      </trkpt>
      <trkpt lat="45.43114" lon="7.00216">
        <ele>2403.2</ele>
        <time>2021-07-23T10:39:47.285Z</time>
      </trkpt>
      <trkpt lat="45.43114" lon="7.00222">
        <ele>2403.2</ele>
        <time>2021-07-23T10:39:48.285Z</time>
      </trkpt>
      <trkpt lat="45.43115" lon="7.00227">
        <ele>2403.2</ele>
        <time>2021-07-23T10:39:49.285Z</time>
      </trkpt>
      <trkpt lat="45.43115" lon="7.00232">
        <ele>2403.2</ele>
        <time>2021-07-23T10:39:50.285Z</time>
      </trkpt>
      <trkpt lat="45.43116" lon="7.00238">
        <ele>2403.6</ele>
        <time>2021-07-23T10:39:51.285Z</time>
      </trkpt>
      <trkpt lat="45.43117" lon="7.00243">
        <ele>2404</ele>
        <time>2021-07-23T10:39:52.285Z</time>
      </trkpt>
      <trkpt lat="45.43119" lon="7.00248">
        <ele>2404.4</ele>
        <time>2021-07-23T10:39:53.285Z</time>
      </trkpt>
      <trkpt lat="45.4312" lon="7.00254">
        <ele>2404.8</ele>
        <time>2021-07-23T10:39:54.285Z</time>
      </trkpt>
      <trkpt lat="45.43121" lon="7.00259">
        <ele>2405.2</ele>
        <time>2021-07-23T10:39:55.285Z</time>
      </trkpt>
      <trkpt lat="45.43124" lon="7.00264">
        <ele>2405.2</ele>
        <time>2021-07-23T10:39:56.285Z</time>
      </trkpt>
      <trkpt lat="45.43126" lon="7.00268">
        <ele>2405.2</ele>
        <time>2021-07-23T10:39:57.285Z</time>
      </trkpt>
      <trkpt lat="45.43128" lon="7.00273">
        <ele>2405.2</ele>
        <time>2021-07-23T10:39:58.285Z</time>
      </trkpt>
      <trkpt lat="45.4313" lon="7.00277">
        <ele>2405.2</ele>
        <time>2021-07-23T10:39:59.285Z</time>
      </trkpt>
      <trkpt lat="45.43133" lon="7.00281">
        <ele>2405.2</ele>
        <time>2021-07-23T10:40:00.285Z</time>
      </trkpt>
      <trkpt lat="45.43136" lon="7.00285">
        <ele>2405.2</ele>
        <time>2021-07-23T10:40:01.285Z</time>
      </trkpt>
      <trkpt lat="45.43139" lon="7.00288">
        <ele>2405.2</ele>
        <time>2021-07-23T10:40:02.285Z</time>
      </trkpt>
      <trkpt lat="45.43142" lon="7.00291">
        <ele>2405.2</ele>
        <time>2021-07-23T10:40:03.285Z</time>
      </trkpt>
      <trkpt lat="45.43145" lon="7.00293">
        <ele>2405.2</ele>
        <time>2021-07-23T10:40:04.285Z</time>
      </trkpt>
      <trkpt lat="45.43148" lon="7.00295">
        <ele>2405.6</ele>
        <time>2021-07-23T10:40:05.285Z</time>
      </trkpt>
      <trkpt lat="45.43152" lon="7.00297">
        <ele>2406</ele>
        <time>2021-07-23T10:40:06.285Z</time>
      </trkpt>
      <trkpt lat="45.43156" lon="7.00298">
        <ele>2406.4</ele>
        <time>2021-07-23T10:40:07.285Z</time>
      </trkpt>
      <trkpt lat="45.4316" lon="7.00298">
        <ele>2406.8</ele>
        <time>2021-07-23T10:40:08.285Z</time>
      </trkpt>
      <trkpt lat="45.43163" lon="7.00298">
        <ele>2407.4</ele>
        <time>2021-07-23T10:40:09.285Z</time>
      </trkpt>
      <trkpt lat="45.43167" lon="7.00298">
        <ele>2407.4</ele>
        <time>2021-07-23T10:40:10.285Z</time>
      </trkpt>
      <trkpt lat="45.43171" lon="7.00297">
        <ele>2407.4</ele>
        <time>2021-07-23T10:40:11.285Z</time>
      </trkpt>
      <trkpt lat="45.43174" lon="7.00296">
        <ele>2407.4</ele>
        <time>2021-07-23T10:40:12.285Z</time>
      </trkpt>
      <trkpt lat="45.43178" lon="7.00295">
        <ele>2407.4</ele>
        <time>2021-07-23T10:40:13.285Z</time>
      </trkpt>
      <trkpt lat="45.43181" lon="7.00295">
        <ele>2407.4</ele>
        <time>2021-07-23T10:40:14.285Z</time>
      </trkpt>
      <trkpt lat="45.43184" lon="7.00294">
        <ele>2407.4</ele>
        <time>2021-07-23T10:40:15.285Z</time>
      </trkpt>
      <trkpt lat="45.43188" lon="7.00294">
        <ele>2407.8</ele>
        <time>2021-07-23T10:40:16.285Z</time>
      </trkpt>
      <trkpt lat="45.4319" lon="7.00294">
        <ele>2408.2</ele>
        <time>2021-07-23T10:40:17.285Z</time>
      </trkpt>
      <trkpt lat="45.43193" lon="7.00294">
        <ele>2408.6</ele>
        <time>2021-07-23T10:40:18.285Z</time>
      </trkpt>
      <trkpt lat="45.43196" lon="7.00293">
        <ele>2409</ele>
        <time>2021-07-23T10:40:19.285Z</time>
      </trkpt>
      <trkpt lat="45.43199" lon="7.00293">
        <ele>2409.4</ele>
        <time>2021-07-23T10:40:20.285Z</time>
      </trkpt>
      <trkpt lat="45.43202" lon="7.00293">
        <ele>2409.4</ele>
        <time>2021-07-23T10:40:21.285Z</time>
      </trkpt>
      <trkpt lat="45.43206" lon="7.00293">
        <ele>2409.4</ele>
        <time>2021-07-23T10:40:22.285Z</time>
      </trkpt>
      <trkpt lat="45.43209" lon="7.00293">
        <ele>2409.4</ele>
        <time>2021-07-23T10:40:23.285Z</time>
      </trkpt>
      <trkpt lat="45.43212" lon="7.00293">
        <ele>2409.8</ele>
        <time>2021-07-23T10:40:24.285Z</time>
      </trkpt>
      <trkpt lat="45.43215" lon="7.00294">
        <ele>2410.2</ele>
        <time>2021-07-23T10:40:25.285Z</time>
      </trkpt>
      <trkpt lat="45.43219" lon="7.00295">
        <ele>2410.6</ele>
        <time>2021-07-23T10:40:26.285Z</time>
      </trkpt>
      <trkpt lat="45.43222" lon="7.00296">
        <ele>2411</ele>
        <time>2021-07-23T10:40:27.285Z</time>
      </trkpt>
      <trkpt lat="45.43225" lon="7.00297">
        <ele>2411.4</ele>
        <time>2021-07-23T10:40:28.285Z</time>
      </trkpt>
      <trkpt lat="45.43228" lon="7.00298">
        <ele>2411.4</ele>
        <time>2021-07-23T10:40:29.285Z</time>
      </trkpt>
      <trkpt lat="45.43231" lon="7.003">
        <ele>2411.4</ele>
        <time>2021-07-23T10:40:30.285Z</time>
      </trkpt>
      <trkpt lat="45.43234" lon="7.00301">
        <ele>2411.4</ele>
        <time>2021-07-23T10:40:31.285Z</time>
      </trkpt>
      <trkpt lat="45.43236" lon="7.00304">
        <ele>2411.4</ele>
        <time>2021-07-23T10:40:32.285Z</time>
      </trkpt>
      <trkpt lat="45.43239" lon="7.00306">
        <ele>2411.4</ele>
        <time>2021-07-23T10:40:33.285Z</time>
      </trkpt>
      <trkpt lat="45.43242" lon="7.00309">
        <ele>2411.8</ele>
        <time>2021-07-23T10:40:34.285Z</time>
      </trkpt>
      <trkpt lat="45.43244" lon="7.00311">
        <ele>2412.2</ele>
        <time>2021-07-23T10:40:35.285Z</time>
      </trkpt>
      <trkpt lat="45.43247" lon="7.00313">
        <ele>2412.8</ele>
        <time>2021-07-23T10:40:36.285Z</time>
      </trkpt>
      <trkpt lat="45.43249" lon="7.00315">
        <ele>2413.2</ele>
        <time>2021-07-23T10:40:37.285Z</time>
      </trkpt>
      <trkpt lat="45.43252" lon="7.00318">
        <ele>2413.6</ele>
        <time>2021-07-23T10:40:38.285Z</time>
      </trkpt>
      <trkpt lat="45.43254" lon="7.0032">
        <ele>2413.6</ele>
        <time>2021-07-23T10:40:39.285Z</time>
      </trkpt>
      <trkpt lat="45.43256" lon="7.00323">
        <ele>2413.6</ele>
        <time>2021-07-23T10:40:40.285Z</time>
      </trkpt>
      <trkpt lat="45.43259" lon="7.00325">
        <ele>2413.6</ele>
        <time>2021-07-23T10:40:41.285Z</time>
      </trkpt>
      <trkpt lat="45.43262" lon="7.00327">
        <ele>2413.6</ele>
        <time>2021-07-23T10:40:42.285Z</time>
      </trkpt>
      <trkpt lat="45.43264" lon="7.00329">
        <ele>2413.6</ele>
        <time>2021-07-23T10:40:43.285Z</time>
      </trkpt>
      <trkpt lat="45.43267" lon="7.00331">
        <ele>2413.6</ele>
        <time>2021-07-23T10:40:44.285Z</time>
      </trkpt>
      <trkpt lat="45.4327" lon="7.00333">
        <ele>2414</ele>
        <time>2021-07-23T10:40:45.285Z</time>
      </trkpt>
      <trkpt lat="45.43272" lon="7.00335">
        <ele>2414.4</ele>
        <time>2021-07-23T10:40:46.285Z</time>
      </trkpt>
      <trkpt lat="45.43275" lon="7.00336">
        <ele>2415</ele>
        <time>2021-07-23T10:40:47.285Z</time>
      </trkpt>
      <trkpt lat="45.43278" lon="7.00337">
        <ele>2415.8</ele>
        <time>2021-07-23T10:40:48.285Z</time>
      </trkpt>
      <trkpt lat="45.43282" lon="7.00337">
        <ele>2415.8</ele>
        <time>2021-07-23T10:40:49.285Z</time>
      </trkpt>
      <trkpt lat="45.43285" lon="7.00338">
        <ele>2415.8</ele>
        <time>2021-07-23T10:40:50.285Z</time>
      </trkpt>
      <trkpt lat="45.43289" lon="7.00338">
        <ele>2415.8</ele>
        <time>2021-07-23T10:40:51.285Z</time>
      </trkpt>
      <trkpt lat="45.43292" lon="7.00338">
        <ele>2415.8</ele>
        <time>2021-07-23T10:40:52.285Z</time>
      </trkpt>
      <trkpt lat="45.43295" lon="7.00338">
        <ele>2416.2</ele>
        <time>2021-07-23T10:40:53.285Z</time>
      </trkpt>
      <trkpt lat="45.43298" lon="7.00337">
        <ele>2416.6</ele>
        <time>2021-07-23T10:40:54.285Z</time>
      </trkpt>
      <trkpt lat="45.43301" lon="7.00337">
        <ele>2417</ele>
        <time>2021-07-23T10:40:55.285Z</time>
      </trkpt>
      <trkpt lat="45.43305" lon="7.00336">
        <ele>2417.4</ele>
        <time>2021-07-23T10:40:56.285Z</time>
      </trkpt>
      <trkpt lat="45.43307" lon="7.00336">
        <ele>2418</ele>
        <time>2021-07-23T10:40:57.285Z</time>
      </trkpt>
      <trkpt lat="45.4331" lon="7.00335">
        <ele>2418</ele>
        <time>2021-07-23T10:40:58.285Z</time>
      </trkpt>
      <trkpt lat="45.43314" lon="7.00334">
        <ele>2418</ele>
        <time>2021-07-23T10:40:59.285Z</time>
      </trkpt>
      <trkpt lat="45.43317" lon="7.00334">
        <ele>2418</ele>
        <time>2021-07-23T10:41:00.285Z</time>
      </trkpt>
      <trkpt lat="45.4332" lon="7.00333">
        <ele>2418</ele>
        <time>2021-07-23T10:41:01.285Z</time>
      </trkpt>
      <trkpt lat="45.43322" lon="7.00333">
        <ele>2418.4</ele>
        <time>2021-07-23T10:41:02.285Z</time>
      </trkpt>
      <trkpt lat="45.43325" lon="7.00332">
        <ele>2418.8</ele>
        <time>2021-07-23T10:41:03.285Z</time>
      </trkpt>
      <trkpt lat="45.43328" lon="7.00331">
        <ele>2419.2</ele>
        <time>2021-07-23T10:41:04.285Z</time>
      </trkpt>
      <trkpt lat="45.43331" lon="7.00331">
        <ele>2419.6</ele>
        <time>2021-07-23T10:41:05.285Z</time>
      </trkpt>
      <trkpt lat="45.43334" lon="7.00331">
        <ele>2420</ele>
        <time>2021-07-23T10:41:06.285Z</time>
      </trkpt>
      <trkpt lat="45.43337" lon="7.00331">
        <ele>2420</ele>
        <time>2021-07-23T10:41:07.285Z</time>
      </trkpt>
      <trkpt lat="45.4334" lon="7.0033">
        <ele>2420</ele>
        <time>2021-07-23T10:41:08.285Z</time>
      </trkpt>
      <trkpt lat="45.43343" lon="7.0033">
        <ele>2420</ele>
        <time>2021-07-23T10:41:09.285Z</time>
      </trkpt>
      <trkpt lat="45.43346" lon="7.0033">
        <ele>2420</ele>
        <time>2021-07-23T10:41:10.285Z</time>
      </trkpt>
      <trkpt lat="45.43349" lon="7.00331">
        <ele>2420</ele>
        <time>2021-07-23T10:41:11.285Z</time>
      </trkpt>
      <trkpt lat="45.43352" lon="7.00332">
        <ele>2420</ele>
        <time>2021-07-23T10:41:12.285Z</time>
      </trkpt>
      <trkpt lat="45.43354" lon="7.00333">
        <ele>2420</ele>
        <time>2021-07-23T10:41:13.285Z</time>
      </trkpt>
      <trkpt lat="45.43357" lon="7.00336">
        <ele>2420.4</ele>
        <time>2021-07-23T10:41:14.285Z</time>
      </trkpt>
      <trkpt lat="45.43359" lon="7.00339">
        <ele>2420.8</ele>
        <time>2021-07-23T10:41:15.285Z</time>
      </trkpt>
      <trkpt lat="45.43361" lon="7.00344">
        <ele>2421.2</ele>
        <time>2021-07-23T10:41:16.285Z</time>
      </trkpt>
      <trkpt lat="45.43363" lon="7.00348">
        <ele>2421.6</ele>
        <time>2021-07-23T10:41:17.285Z</time>
      </trkpt>
      <trkpt lat="45.43365" lon="7.00352">
        <ele>2422.2</ele>
        <time>2021-07-23T10:41:18.285Z</time>
      </trkpt>
      <trkpt lat="45.43366" lon="7.00357">
        <ele>2422.2</ele>
        <time>2021-07-23T10:41:19.285Z</time>
      </trkpt>
      <trkpt lat="45.43367" lon="7.00362">
        <ele>2422.2</ele>
        <time>2021-07-23T10:41:20.285Z</time>
      </trkpt>
      <trkpt lat="45.43369" lon="7.00367">
        <ele>2422.2</ele>
        <time>2021-07-23T10:41:21.285Z</time>
      </trkpt>
      <trkpt lat="45.4337" lon="7.00372">
        <ele>2422.2</ele>
        <time>2021-07-23T10:41:22.285Z</time>
      </trkpt>
      <trkpt lat="45.43372" lon="7.00377">
        <ele>2422.2</ele>
        <time>2021-07-23T10:41:23.285Z</time>
      </trkpt>
      <trkpt lat="45.43374" lon="7.00382">
        <ele>2422.2</ele>
        <time>2021-07-23T10:41:24.285Z</time>
      </trkpt>
      <trkpt lat="45.43375" lon="7.00387">
        <ele>2422.2</ele>
        <time>2021-07-23T10:41:25.285Z</time>
      </trkpt>
      <trkpt lat="45.43377" lon="7.00391">
        <ele>2422.6</ele>
        <time>2021-07-23T10:41:26.285Z</time>
      </trkpt>
      <trkpt lat="45.43379" lon="7.00395">
        <ele>2423</ele>
        <time>2021-07-23T10:41:27.285Z</time>
      </trkpt>
      <trkpt lat="45.43381" lon="7.00399">
        <ele>2423.4</ele>
        <time>2021-07-23T10:41:28.285Z</time>
      </trkpt>
      <trkpt lat="45.43384" lon="7.00403">
        <ele>2423.8</ele>
        <time>2021-07-23T10:41:29.285Z</time>
      </trkpt>
      <trkpt lat="45.43386" lon="7.00406">
        <ele>2424.2</ele>
        <time>2021-07-23T10:41:30.285Z</time>
      </trkpt>
      <trkpt lat="45.43389" lon="7.0041">
        <ele>2424.2</ele>
        <time>2021-07-23T10:41:31.285Z</time>
      </trkpt>
      <trkpt lat="45.43391" lon="7.00413">
        <ele>2424.2</ele>
        <time>2021-07-23T10:41:32.285Z</time>
      </trkpt>
      <trkpt lat="45.43394" lon="7.00415">
        <ele>2424.2</ele>
        <time>2021-07-23T10:41:33.285Z</time>
      </trkpt>
      <trkpt lat="45.43396" lon="7.00418">
        <ele>2424.2</ele>
        <time>2021-07-23T10:41:34.285Z</time>
      </trkpt>
      <trkpt lat="45.43398" lon="7.00421">
        <ele>2424.2</ele>
        <time>2021-07-23T10:41:35.285Z</time>
      </trkpt>
      <trkpt lat="45.43401" lon="7.00424">
        <ele>2424.2</ele>
        <time>2021-07-23T10:41:36.285Z</time>
      </trkpt>
      <trkpt lat="45.43403" lon="7.00426">
        <ele>2424.2</ele>
        <time>2021-07-23T10:41:37.285Z</time>
      </trkpt>
      <trkpt lat="45.43405" lon="7.00429">
        <ele>2425</ele>
        <time>2021-07-23T10:41:38.285Z</time>
      </trkpt>
      <trkpt lat="45.43408" lon="7.00431">
        <ele>2425.4</ele>
        <time>2021-07-23T10:41:39.285Z</time>
      </trkpt>
      <trkpt lat="45.4341" lon="7.00434">
        <ele>2425.8</ele>
        <time>2021-07-23T10:41:40.285Z</time>
      </trkpt>
      <trkpt lat="45.43412" lon="7.00436">
        <ele>2426.2</ele>
        <time>2021-07-23T10:41:41.285Z</time>
      </trkpt>
      <trkpt lat="45.43414" lon="7.00439">
        <ele>2426.2</ele>
        <time>2021-07-23T10:41:42.285Z</time>
      </trkpt>
      <trkpt lat="45.43416" lon="7.00442">
        <ele>2426.2</ele>
        <time>2021-07-23T10:41:43.285Z</time>
      </trkpt>
      <trkpt lat="45.43418" lon="7.00444">
        <ele>2426.6</ele>
        <time>2021-07-23T10:41:44.285Z</time>
      </trkpt>
      <trkpt lat="45.4342" lon="7.00447">
        <ele>2427</ele>
        <time>2021-07-23T10:41:45.285Z</time>
      </trkpt>
      <trkpt lat="45.43422" lon="7.00449">
        <ele>2427.4</ele>
        <time>2021-07-23T10:41:46.285Z</time>
      </trkpt>
      <trkpt lat="45.43425" lon="7.00452">
        <ele>2427.8</ele>
        <time>2021-07-23T10:41:47.285Z</time>
      </trkpt>
      <trkpt lat="45.43427" lon="7.00454">
        <ele>2428.2</ele>
        <time>2021-07-23T10:41:48.285Z</time>
      </trkpt>
      <trkpt lat="45.43429" lon="7.00457">
        <ele>2428.2</ele>
        <time>2021-07-23T10:41:49.285Z</time>
      </trkpt>
      <trkpt lat="45.43431" lon="7.00459">
        <ele>2428.2</ele>
        <time>2021-07-23T10:41:50.285Z</time>
      </trkpt>
      <trkpt lat="45.43433" lon="7.00461">
        <ele>2428.2</ele>
        <time>2021-07-23T10:41:51.285Z</time>
      </trkpt>
      <trkpt lat="45.43435" lon="7.00463">
        <ele>2428.2</ele>
        <time>2021-07-23T10:41:52.285Z</time>
      </trkpt>
      <trkpt lat="45.43437" lon="7.00466">
        <ele>2428.8</ele>
        <time>2021-07-23T10:41:53.285Z</time>
      </trkpt>
      <trkpt lat="45.43439" lon="7.00468">
        <ele>2429.2</ele>
        <time>2021-07-23T10:41:54.285Z</time>
      </trkpt>
      <trkpt lat="45.4344" lon="7.00471">
        <ele>2429.6</ele>
        <time>2021-07-23T10:41:55.285Z</time>
      </trkpt>
      <trkpt lat="45.43442" lon="7.00473">
        <ele>2430</ele>
        <time>2021-07-23T10:41:56.285Z</time>
      </trkpt>
      <trkpt lat="45.43443" lon="7.00476">
        <ele>2430.6</ele>
        <time>2021-07-23T10:41:57.285Z</time>
      </trkpt>
      <trkpt lat="45.43445" lon="7.00479">
        <ele>2430.6</ele>
        <time>2021-07-23T10:41:58.285Z</time>
      </trkpt>
      <trkpt lat="45.43447" lon="7.00481">
        <ele>2430.6</ele>
        <time>2021-07-23T10:41:59.285Z</time>
      </trkpt>
      <trkpt lat="45.43449" lon="7.00483">
        <ele>2430.6</ele>
        <time>2021-07-23T10:42:00.285Z</time>
      </trkpt>
      <trkpt lat="45.43452" lon="7.00485">
        <ele>2430.6</ele>
        <time>2021-07-23T10:42:01.285Z</time>
      </trkpt>
      <trkpt lat="45.43454" lon="7.00487">
        <ele>2430.6</ele>
        <time>2021-07-23T10:42:02.285Z</time>
      </trkpt>
      <trkpt lat="45.43456" lon="7.00489">
        <ele>2431</ele>
        <time>2021-07-23T10:42:03.285Z</time>
      </trkpt>
      <trkpt lat="45.43458" lon="7.00491">
        <ele>2431.4</ele>
        <time>2021-07-23T10:42:04.285Z</time>
      </trkpt>
      <trkpt lat="45.4346" lon="7.00492">
        <ele>2431.8</ele>
        <time>2021-07-23T10:42:05.285Z</time>
      </trkpt>
      <trkpt lat="45.43463" lon="7.00494">
        <ele>2432.2</ele>
        <time>2021-07-23T10:42:06.285Z</time>
      </trkpt>
      <trkpt lat="45.43466" lon="7.00495">
        <ele>2432.6</ele>
        <time>2021-07-23T10:42:07.285Z</time>
      </trkpt>
      <trkpt lat="45.43469" lon="7.00497">
        <ele>2432.6</ele>
        <time>2021-07-23T10:42:08.285Z</time>
      </trkpt>
      <trkpt lat="45.43472" lon="7.00498">
        <ele>2432.6</ele>
        <time>2021-07-23T10:42:09.285Z</time>
      </trkpt>
      <trkpt lat="45.43475" lon="7.00499">
        <ele>2432.6</ele>
        <time>2021-07-23T10:42:10.285Z</time>
      </trkpt>
      <trkpt lat="45.43478" lon="7.005">
        <ele>2432.6</ele>
        <time>2021-07-23T10:42:11.285Z</time>
      </trkpt>
      <trkpt lat="45.43481" lon="7.00501">
        <ele>2432.6</ele>
        <time>2021-07-23T10:42:12.285Z</time>
      </trkpt>
      <trkpt lat="45.43484" lon="7.00501">
        <ele>2432.6</ele>
        <time>2021-07-23T10:42:13.285Z</time>
      </trkpt>
      <trkpt lat="45.43487" lon="7.00503">
        <ele>2433</ele>
        <time>2021-07-23T10:42:14.285Z</time>
      </trkpt>
      <trkpt lat="45.4349" lon="7.00504">
        <ele>2433.4</ele>
        <time>2021-07-23T10:42:15.285Z</time>
      </trkpt>
      <trkpt lat="45.43492" lon="7.00505">
        <ele>2433.8</ele>
        <time>2021-07-23T10:42:16.285Z</time>
      </trkpt>
      <trkpt lat="45.43495" lon="7.00506">
        <ele>2434.2</ele>
        <time>2021-07-23T10:42:17.285Z</time>
      </trkpt>
      <trkpt lat="45.43498" lon="7.00507">
        <ele>2434.6</ele>
        <time>2021-07-23T10:42:18.285Z</time>
      </trkpt>
      <trkpt lat="45.43501" lon="7.00508">
        <ele>2434.6</ele>
        <time>2021-07-23T10:42:19.285Z</time>
      </trkpt>
      <trkpt lat="45.43504" lon="7.00509">
        <ele>2434.6</ele>
        <time>2021-07-23T10:42:20.285Z</time>
      </trkpt>
      <trkpt lat="45.43507" lon="7.0051">
        <ele>2434.6</ele>
        <time>2021-07-23T10:42:21.285Z</time>
      </trkpt>
      <trkpt lat="45.43511" lon="7.0051">
        <ele>2434.6</ele>
        <time>2021-07-23T10:42:22.285Z</time>
      </trkpt>
      <trkpt lat="45.43514" lon="7.0051">
        <ele>2434.6</ele>
        <time>2021-07-23T10:42:23.285Z</time>
      </trkpt>
      <trkpt lat="45.43516" lon="7.0051">
        <ele>2434.6</ele>
        <time>2021-07-23T10:42:24.285Z</time>
      </trkpt>
      <trkpt lat="45.43519" lon="7.0051">
        <ele>2435</ele>
        <time>2021-07-23T10:42:25.285Z</time>
      </trkpt>
      <trkpt lat="45.43521" lon="7.0051">
        <ele>2435.6</ele>
        <time>2021-07-23T10:42:26.285Z</time>
      </trkpt>
      <trkpt lat="45.43524" lon="7.0051">
        <ele>2436.4</ele>
        <time>2021-07-23T10:42:27.285Z</time>
      </trkpt>
      <trkpt lat="45.43527" lon="7.0051">
        <ele>2436.8</ele>
        <time>2021-07-23T10:42:28.285Z</time>
      </trkpt>
      <trkpt lat="45.4353" lon="7.0051">
        <ele>2436.8</ele>
        <time>2021-07-23T10:42:29.285Z</time>
      </trkpt>
      <trkpt lat="45.43532" lon="7.0051">
        <ele>2436.8</ele>
        <time>2021-07-23T10:42:30.285Z</time>
      </trkpt>
      <trkpt lat="45.43535" lon="7.0051">
        <ele>2436.8</ele>
        <time>2021-07-23T10:42:31.285Z</time>
      </trkpt>
      <trkpt lat="45.43537" lon="7.0051">
        <ele>2436.8</ele>
        <time>2021-07-23T10:42:32.285Z</time>
      </trkpt>
      <trkpt lat="45.4354" lon="7.0051">
        <ele>2436.8</ele>
        <time>2021-07-23T10:42:33.285Z</time>
      </trkpt>
      <trkpt lat="45.43542" lon="7.00509">
        <ele>2437.2</ele>
        <time>2021-07-23T10:42:34.285Z</time>
      </trkpt>
      <trkpt lat="45.43545" lon="7.00509">
        <ele>2437.6</ele>
        <time>2021-07-23T10:42:35.285Z</time>
      </trkpt>
      <trkpt lat="45.43547" lon="7.00508">
        <ele>2438</ele>
        <time>2021-07-23T10:42:36.285Z</time>
      </trkpt>
      <trkpt lat="45.4355" lon="7.00508">
        <ele>2438.6</ele>
        <time>2021-07-23T10:42:37.285Z</time>
      </trkpt>
      <trkpt lat="45.43552" lon="7.00508">
        <ele>2439</ele>
        <time>2021-07-23T10:42:38.285Z</time>
      </trkpt>
      <trkpt lat="45.43555" lon="7.00509">
        <ele>2439</ele>
        <time>2021-07-23T10:42:39.285Z</time>
      </trkpt>
      <trkpt lat="45.43557" lon="7.00509">
        <ele>2439</ele>
        <time>2021-07-23T10:42:40.285Z</time>
      </trkpt>
      <trkpt lat="45.4356" lon="7.00509">
        <ele>2439</ele>
        <time>2021-07-23T10:42:41.285Z</time>
      </trkpt>
      <trkpt lat="45.43563" lon="7.0051">
        <ele>2439</ele>
        <time>2021-07-23T10:42:42.285Z</time>
      </trkpt>
      <trkpt lat="45.43565" lon="7.00511">
        <ele>2439.4</ele>
        <time>2021-07-23T10:42:43.285Z</time>
      </trkpt>
      <trkpt lat="45.43567" lon="7.00512">
        <ele>2439.8</ele>
        <time>2021-07-23T10:42:44.285Z</time>
      </trkpt>
      <trkpt lat="45.4357" lon="7.00513">
        <ele>2440.2</ele>
        <time>2021-07-23T10:42:45.285Z</time>
      </trkpt>
      <trkpt lat="45.43572" lon="7.00515">
        <ele>2440.6</ele>
        <time>2021-07-23T10:42:46.285Z</time>
      </trkpt>
      <trkpt lat="45.43574" lon="7.00516">
        <ele>2441.2</ele>
        <time>2021-07-23T10:42:47.285Z</time>
      </trkpt>
      <trkpt lat="45.43576" lon="7.00518">
        <ele>2441.2</ele>
        <time>2021-07-23T10:42:48.285Z</time>
      </trkpt>
      <trkpt lat="45.43578" lon="7.0052">
        <ele>2441.2</ele>
        <time>2021-07-23T10:42:49.285Z</time>
      </trkpt>
      <trkpt lat="45.4358" lon="7.00522">
        <ele>2441.2</ele>
        <time>2021-07-23T10:42:50.285Z</time>
      </trkpt>
      <trkpt lat="45.43582" lon="7.00524">
        <ele>2441.2</ele>
        <time>2021-07-23T10:42:51.285Z</time>
      </trkpt>
      <trkpt lat="45.43584" lon="7.00526">
        <ele>2441.6</ele>
        <time>2021-07-23T10:42:52.285Z</time>
      </trkpt>
      <trkpt lat="45.43586" lon="7.00528">
        <ele>2442</ele>
        <time>2021-07-23T10:42:53.285Z</time>
      </trkpt>
      <trkpt lat="45.43588" lon="7.0053">
        <ele>2442.4</ele>
        <time>2021-07-23T10:42:54.285Z</time>
      </trkpt>
      <trkpt lat="45.43589" lon="7.00532">
        <ele>2443</ele>
        <time>2021-07-23T10:42:55.285Z</time>
      </trkpt>
      <trkpt lat="45.43591" lon="7.00534">
        <ele>2443.4</ele>
        <time>2021-07-23T10:42:56.285Z</time>
      </trkpt>
      <trkpt lat="45.43593" lon="7.00536">
        <ele>2443.4</ele>
        <time>2021-07-23T10:42:57.285Z</time>
      </trkpt>
      <trkpt lat="45.43594" lon="7.00539">
        <ele>2443.4</ele>
        <time>2021-07-23T10:42:58.285Z</time>
      </trkpt>
      <trkpt lat="45.43596" lon="7.0054">
        <ele>2443.4</ele>
        <time>2021-07-23T10:42:59.285Z</time>
      </trkpt>
      <trkpt lat="45.43598" lon="7.00542">
        <ele>2443.8</ele>
        <time>2021-07-23T10:43:00.285Z</time>
      </trkpt>
      <trkpt lat="45.436" lon="7.00544">
        <ele>2444.2</ele>
        <time>2021-07-23T10:43:01.285Z</time>
      </trkpt>
      <trkpt lat="45.43601" lon="7.00546">
        <ele>2444.8</ele>
        <time>2021-07-23T10:43:02.285Z</time>
      </trkpt>
      <trkpt lat="45.43603" lon="7.00548">
        <ele>2445.2</ele>
        <time>2021-07-23T10:43:03.285Z</time>
      </trkpt>
      <trkpt lat="45.43605" lon="7.0055">
        <ele>2445.6</ele>
        <time>2021-07-23T10:43:04.285Z</time>
      </trkpt>
      <trkpt lat="45.43606" lon="7.00551">
        <ele>2445.6</ele>
        <time>2021-07-23T10:43:05.285Z</time>
      </trkpt>
      <trkpt lat="45.43608" lon="7.00553">
        <ele>2445.6</ele>
        <time>2021-07-23T10:43:06.285Z</time>
      </trkpt>
      <trkpt lat="45.43609" lon="7.00555">
        <ele>2446</ele>
        <time>2021-07-23T10:43:07.285Z</time>
      </trkpt>
      <trkpt lat="45.43611" lon="7.00557">
        <ele>2446.4</ele>
        <time>2021-07-23T10:43:08.285Z</time>
      </trkpt>
      <trkpt lat="45.43613" lon="7.00559">
        <ele>2446.8</ele>
        <time>2021-07-23T10:43:09.285Z</time>
      </trkpt>
      <trkpt lat="45.43615" lon="7.0056">
        <ele>2447.2</ele>
        <time>2021-07-23T10:43:10.285Z</time>
      </trkpt>
      <trkpt lat="45.43617" lon="7.00562">
        <ele>2447.6</ele>
        <time>2021-07-23T10:43:11.285Z</time>
      </trkpt>
      <trkpt lat="45.43619" lon="7.00564">
        <ele>2447.6</ele>
        <time>2021-07-23T10:43:12.285Z</time>
      </trkpt>
      <trkpt lat="45.43622" lon="7.00566">
        <ele>2447.6</ele>
        <time>2021-07-23T10:43:13.285Z</time>
      </trkpt>
      <trkpt lat="45.43624" lon="7.00567">
        <ele>2447.6</ele>
        <time>2021-07-23T10:43:14.285Z</time>
      </trkpt>
      <trkpt lat="45.43627" lon="7.00569">
        <ele>2447.6</ele>
        <time>2021-07-23T10:43:15.285Z</time>
      </trkpt>
      <trkpt lat="45.43629" lon="7.00571">
        <ele>2447.6</ele>
        <time>2021-07-23T10:43:16.285Z</time>
      </trkpt>
      <trkpt lat="45.43631" lon="7.00573">
        <ele>2447.6</ele>
        <time>2021-07-23T10:43:17.285Z</time>
      </trkpt>
      <trkpt lat="45.43634" lon="7.00575">
        <ele>2448</ele>
        <time>2021-07-23T10:43:18.285Z</time>
      </trkpt>
      <trkpt lat="45.43637" lon="7.00576">
        <ele>2448.4</ele>
        <time>2021-07-23T10:43:19.285Z</time>
      </trkpt>
      <trkpt lat="45.4364" lon="7.00578">
        <ele>2449</ele>
        <time>2021-07-23T10:43:20.285Z</time>
      </trkpt>
      <trkpt lat="45.43643" lon="7.00579">
        <ele>2449.4</ele>
        <time>2021-07-23T10:43:21.285Z</time>
      </trkpt>
      <trkpt lat="45.43645" lon="7.00581">
        <ele>2449.8</ele>
        <time>2021-07-23T10:43:22.285Z</time>
      </trkpt>
      <trkpt lat="45.43648" lon="7.00583">
        <ele>2449.8</ele>
        <time>2021-07-23T10:43:23.285Z</time>
      </trkpt>
      <trkpt lat="45.4365" lon="7.00584">
        <ele>2449.8</ele>
        <time>2021-07-23T10:43:24.285Z</time>
      </trkpt>
      <trkpt lat="45.43653" lon="7.00585">
        <ele>2449.8</ele>
        <time>2021-07-23T10:43:25.285Z</time>
      </trkpt>
      <trkpt lat="45.43656" lon="7.00587">
        <ele>2449.8</ele>
        <time>2021-07-23T10:43:26.285Z</time>
      </trkpt>
      <trkpt lat="45.43658" lon="7.00588">
        <ele>2449.8</ele>
        <time>2021-07-23T10:43:27.285Z</time>
      </trkpt>
      <trkpt lat="45.43661" lon="7.0059">
        <ele>2449.8</ele>
        <time>2021-07-23T10:43:28.285Z</time>
      </trkpt>
      <trkpt lat="45.43664" lon="7.00591">
        <ele>2449.8</ele>
        <time>2021-07-23T10:43:29.285Z</time>
      </trkpt>
      <trkpt lat="45.43667" lon="7.00593">
        <ele>2449.8</ele>
        <time>2021-07-23T10:43:30.285Z</time>
      </trkpt>
      <trkpt lat="45.43669" lon="7.00595">
        <ele>2450.2</ele>
        <time>2021-07-23T10:43:31.285Z</time>
      </trkpt>
      <trkpt lat="45.43672" lon="7.00597">
        <ele>2450.6</ele>
        <time>2021-07-23T10:43:32.285Z</time>
      </trkpt>
      <trkpt lat="45.43675" lon="7.00599">
        <ele>2451</ele>
        <time>2021-07-23T10:43:33.285Z</time>
      </trkpt>
      <trkpt lat="45.43677" lon="7.00602">
        <ele>2451.4</ele>
        <time>2021-07-23T10:43:34.285Z</time>
      </trkpt>
      <trkpt lat="45.4368" lon="7.00603">
        <ele>2452</ele>
        <time>2021-07-23T10:43:35.285Z</time>
      </trkpt>
      <trkpt lat="45.43683" lon="7.00606">
        <ele>2452</ele>
        <time>2021-07-23T10:43:36.285Z</time>
      </trkpt>
      <trkpt lat="45.43685" lon="7.00608">
        <ele>2452</ele>
        <time>2021-07-23T10:43:37.285Z</time>
      </trkpt>
      <trkpt lat="45.43688" lon="7.0061">
        <ele>2452</ele>
        <time>2021-07-23T10:43:38.285Z</time>
      </trkpt>
      <trkpt lat="45.4369" lon="7.00612">
        <ele>2452</ele>
        <time>2021-07-23T10:43:39.285Z</time>
      </trkpt>
      <trkpt lat="45.43693" lon="7.00613">
        <ele>2452</ele>
        <time>2021-07-23T10:43:40.285Z</time>
      </trkpt>
      <trkpt lat="45.43696" lon="7.00616">
        <ele>2452</ele>
        <time>2021-07-23T10:43:41.285Z</time>
      </trkpt>
      <trkpt lat="45.43699" lon="7.00618">
        <ele>2452</ele>
        <time>2021-07-23T10:43:42.285Z</time>
      </trkpt>
      <trkpt lat="45.43701" lon="7.0062">
        <ele>2452</ele>
        <time>2021-07-23T10:43:43.285Z</time>
      </trkpt>
      <trkpt lat="45.43704" lon="7.00622">
        <ele>2452</ele>
        <time>2021-07-23T10:43:44.285Z</time>
      </trkpt>
      <trkpt lat="45.43707" lon="7.00624">
        <ele>2452</ele>
        <time>2021-07-23T10:43:45.285Z</time>
      </trkpt>
      <trkpt lat="45.43709" lon="7.00626">
        <ele>2452</ele>
        <time>2021-07-23T10:43:46.285Z</time>
      </trkpt>
      <trkpt lat="45.43712" lon="7.00628">
        <ele>2452.4</ele>
        <time>2021-07-23T10:43:47.285Z</time>
      </trkpt>
      <trkpt lat="45.43714" lon="7.00631">
        <ele>2452.8</ele>
        <time>2021-07-23T10:43:48.285Z</time>
      </trkpt>
      <trkpt lat="45.43716" lon="7.00634">
        <ele>2453.2</ele>
        <time>2021-07-23T10:43:49.285Z</time>
      </trkpt>
      <trkpt lat="45.43717" lon="7.00637">
        <ele>2453.6</ele>
        <time>2021-07-23T10:43:50.285Z</time>
      </trkpt>
      <trkpt lat="45.43717" lon="7.00641">
        <ele>2454</ele>
        <time>2021-07-23T10:43:51.285Z</time>
      </trkpt>
      <trkpt lat="45.43715" lon="7.00644">
        <ele>2454</ele>
        <time>2021-07-23T10:43:52.285Z</time>
      </trkpt>
      <trkpt lat="45.43713" lon="7.00646">
        <ele>2454</ele>
        <time>2021-07-23T10:43:53.285Z</time>
      </trkpt>
      <trkpt lat="45.43711" lon="7.00648">
        <ele>2454</ele>
        <time>2021-07-23T10:43:54.285Z</time>
      </trkpt>
      <trkpt lat="45.43709" lon="7.00648">
        <ele>2454</ele>
        <time>2021-07-23T10:43:55.285Z</time>
      </trkpt>
      <trkpt lat="45.43706" lon="7.00647">
        <ele>2454</ele>
        <time>2021-07-23T10:43:56.285Z</time>
      </trkpt>
      <trkpt lat="45.43704" lon="7.00645">
        <ele>2454</ele>
        <time>2021-07-23T10:43:57.285Z</time>
      </trkpt>
      <trkpt lat="45.43701" lon="7.00643">
        <ele>2454.4</ele>
        <time>2021-07-23T10:43:58.285Z</time>
      </trkpt>
      <trkpt lat="45.43699" lon="7.00641">
        <ele>2454.8</ele>
        <time>2021-07-23T10:43:59.285Z</time>
      </trkpt>
      <trkpt lat="45.43696" lon="7.00638">
        <ele>2455.2</ele>
        <time>2021-07-23T10:44:00.285Z</time>
      </trkpt>
      <trkpt lat="45.43694" lon="7.00636">
        <ele>2455.6</ele>
        <time>2021-07-23T10:44:01.285Z</time>
      </trkpt>
      <trkpt lat="45.43692" lon="7.00634">
        <ele>2456</ele>
        <time>2021-07-23T10:44:02.285Z</time>
      </trkpt>
      <trkpt lat="45.4369" lon="7.00632">
        <ele>2456</ele>
        <time>2021-07-23T10:44:03.285Z</time>
      </trkpt>
      <trkpt lat="45.43687" lon="7.0063">
        <ele>2456</ele>
        <time>2021-07-23T10:44:04.285Z</time>
      </trkpt>
      <trkpt lat="45.43685" lon="7.00627">
        <ele>2456</ele>
        <time>2021-07-23T10:44:05.285Z</time>
      </trkpt>
      <trkpt lat="45.43683" lon="7.00625">
        <ele>2456.4</ele>
        <time>2021-07-23T10:44:06.285Z</time>
      </trkpt>
      <trkpt lat="45.43681" lon="7.00624">
        <ele>2457.2</ele>
        <time>2021-07-23T10:44:07.285Z</time>
      </trkpt>
      <trkpt lat="45.43678" lon="7.00622">
        <ele>2457.6</ele>
        <time>2021-07-23T10:44:08.285Z</time>
      </trkpt>
      <trkpt lat="45.43676" lon="7.00621">
        <ele>2458</ele>
        <time>2021-07-23T10:44:09.285Z</time>
      </trkpt>
      <trkpt lat="45.43673" lon="7.0062">
        <ele>2458</ele>
        <time>2021-07-23T10:44:10.285Z</time>
      </trkpt>
      <trkpt lat="45.43671" lon="7.0062">
        <ele>2458</ele>
        <time>2021-07-23T10:44:11.285Z</time>
      </trkpt>
      <trkpt lat="45.43668" lon="7.00619">
        <ele>2458</ele>
        <time>2021-07-23T10:44:12.285Z</time>
      </trkpt>
      <trkpt lat="45.43665" lon="7.00619">
        <ele>2458</ele>
        <time>2021-07-23T10:44:13.285Z</time>
      </trkpt>
      <trkpt lat="45.43663" lon="7.00618">
        <ele>2458</ele>
        <time>2021-07-23T10:44:14.285Z</time>
      </trkpt>
      <trkpt lat="45.4366" lon="7.00618">
        <ele>2458</ele>
        <time>2021-07-23T10:44:15.285Z</time>
      </trkpt>
      <trkpt lat="45.43658" lon="7.00618">
        <ele>2458.4</ele>
        <time>2021-07-23T10:44:16.285Z</time>
      </trkpt>
      <trkpt lat="45.43655" lon="7.00618">
        <ele>2459</ele>
        <time>2021-07-23T10:44:17.285Z</time>
      </trkpt>
      <trkpt lat="45.43652" lon="7.00617">
        <ele>2459.4</ele>
        <time>2021-07-23T10:44:18.285Z</time>
      </trkpt>
      <trkpt lat="45.43649" lon="7.00616">
        <ele>2459.8</ele>
        <time>2021-07-23T10:44:19.285Z</time>
      </trkpt>
      <trkpt lat="45.43647" lon="7.00616">
        <ele>2460.2</ele>
        <time>2021-07-23T10:44:20.285Z</time>
      </trkpt>
      <trkpt lat="45.43644" lon="7.00615">
        <ele>2460.2</ele>
        <time>2021-07-23T10:44:21.285Z</time>
      </trkpt>
      <trkpt lat="45.43642" lon="7.00614">
        <ele>2460.2</ele>
        <time>2021-07-23T10:44:22.285Z</time>
      </trkpt>
      <trkpt lat="45.43639" lon="7.00613">
        <ele>2460.2</ele>
        <time>2021-07-23T10:44:23.285Z</time>
      </trkpt>
      <trkpt lat="45.43637" lon="7.00611">
        <ele>2460.2</ele>
        <time>2021-07-23T10:44:24.285Z</time>
      </trkpt>
      <trkpt lat="45.43634" lon="7.0061">
        <ele>2460.2</ele>
        <time>2021-07-23T10:44:25.285Z</time>
      </trkpt>
      <trkpt lat="45.43631" lon="7.00608">
        <ele>2460.2</ele>
        <time>2021-07-23T10:44:26.285Z</time>
      </trkpt>
      <trkpt lat="45.43628" lon="7.00606">
        <ele>2460.2</ele>
        <time>2021-07-23T10:44:27.285Z</time>
      </trkpt>
      <trkpt lat="45.43625" lon="7.00605">
        <ele>2460.6</ele>
        <time>2021-07-23T10:44:28.285Z</time>
      </trkpt>
      <trkpt lat="45.43622" lon="7.00603">
        <ele>2461</ele>
        <time>2021-07-23T10:44:29.285Z</time>
      </trkpt>
      <trkpt lat="45.4362" lon="7.00601">
        <ele>2461.4</ele>
        <time>2021-07-23T10:44:30.285Z</time>
      </trkpt>
      <trkpt lat="45.43617" lon="7.006">
        <ele>2461.8</ele>
        <time>2021-07-23T10:44:31.285Z</time>
      </trkpt>
      <trkpt lat="45.43614" lon="7.00598">
        <ele>2462.2</ele>
        <time>2021-07-23T10:44:32.285Z</time>
      </trkpt>
      <trkpt lat="45.43612" lon="7.00596">
        <ele>2462.2</ele>
        <time>2021-07-23T10:44:33.285Z</time>
      </trkpt>
      <trkpt lat="45.43609" lon="7.00594">
        <ele>2462.2</ele>
        <time>2021-07-23T10:44:34.285Z</time>
      </trkpt>
      <trkpt lat="45.43606" lon="7.00592">
        <ele>2462.6</ele>
        <time>2021-07-23T10:44:35.285Z</time>
      </trkpt>
      <trkpt lat="45.43603" lon="7.0059">
        <ele>2463</ele>
        <time>2021-07-23T10:44:36.285Z</time>
      </trkpt>
      <trkpt lat="45.43601" lon="7.00588">
        <ele>2463.4</ele>
        <time>2021-07-23T10:44:37.285Z</time>
      </trkpt>
      <trkpt lat="45.43598" lon="7.00586">
        <ele>2463.8</ele>
        <time>2021-07-23T10:44:38.285Z</time>
      </trkpt>
      <trkpt lat="45.43596" lon="7.00584">
        <ele>2464.2</ele>
        <time>2021-07-23T10:44:39.285Z</time>
      </trkpt>
      <trkpt lat="45.43593" lon="7.00582">
        <ele>2464.2</ele>
        <time>2021-07-23T10:44:40.285Z</time>
      </trkpt>
      <trkpt lat="45.4359" lon="7.00581">
        <ele>2464.2</ele>
        <time>2021-07-23T10:44:41.285Z</time>
      </trkpt>
      <trkpt lat="45.43588" lon="7.00579">
        <ele>2464.2</ele>
        <time>2021-07-23T10:44:42.285Z</time>
      </trkpt>
      <trkpt lat="45.43585" lon="7.00578">
        <ele>2464.6</ele>
        <time>2021-07-23T10:44:43.285Z</time>
      </trkpt>
      <trkpt lat="45.43582" lon="7.00577">
        <ele>2465.2</ele>
        <time>2021-07-23T10:44:44.285Z</time>
      </trkpt>
      <trkpt lat="45.43579" lon="7.00575">
        <ele>2465.6</ele>
        <time>2021-07-23T10:44:45.285Z</time>
      </trkpt>
      <trkpt lat="45.43577" lon="7.00573">
        <ele>2466</ele>
        <time>2021-07-23T10:44:46.285Z</time>
      </trkpt>
      <trkpt lat="45.43574" lon="7.00572">
        <ele>2466.4</ele>
        <time>2021-07-23T10:44:47.285Z</time>
      </trkpt>
      <trkpt lat="45.43571" lon="7.00571">
        <ele>2466.4</ele>
        <time>2021-07-23T10:44:48.285Z</time>
      </trkpt>
      <trkpt lat="45.43568" lon="7.0057">
        <ele>2466.4</ele>
        <time>2021-07-23T10:44:49.285Z</time>
      </trkpt>
      <trkpt lat="45.43565" lon="7.0057">
        <ele>2466.4</ele>
        <time>2021-07-23T10:44:50.285Z</time>
      </trkpt>
      <trkpt lat="45.43563" lon="7.0057">
        <ele>2466.4</ele>
        <time>2021-07-23T10:44:51.285Z</time>
      </trkpt>
      <trkpt lat="45.4356" lon="7.0057">
        <ele>2466.4</ele>
        <time>2021-07-23T10:44:52.285Z</time>
      </trkpt>
      <trkpt lat="45.43557" lon="7.0057">
        <ele>2466.4</ele>
        <time>2021-07-23T10:44:53.285Z</time>
      </trkpt>
      <trkpt lat="45.43555" lon="7.0057">
        <ele>2466.4</ele>
        <time>2021-07-23T10:44:54.285Z</time>
      </trkpt>
      <trkpt lat="45.43552" lon="7.0057">
        <ele>2466.4</ele>
        <time>2021-07-23T10:44:55.285Z</time>
      </trkpt>
      <trkpt lat="45.4355" lon="7.0057">
        <ele>2467.2</ele>
        <time>2021-07-23T10:44:56.285Z</time>
      </trkpt>
      <trkpt lat="45.43547" lon="7.00571">
        <ele>2467.6</ele>
        <time>2021-07-23T10:44:57.285Z</time>
      </trkpt>
      <trkpt lat="45.43544" lon="7.00572">
        <ele>2468</ele>
        <time>2021-07-23T10:44:58.285Z</time>
      </trkpt>
      <trkpt lat="45.43541" lon="7.00573">
        <ele>2468.4</ele>
        <time>2021-07-23T10:44:59.285Z</time>
      </trkpt>
      <trkpt lat="45.43538" lon="7.00574">
        <ele>2468.4</ele>
        <time>2021-07-23T10:45:00.285Z</time>
      </trkpt>
      <trkpt lat="45.43535" lon="7.00575">
        <ele>2468.4</ele>
        <time>2021-07-23T10:45:01.285Z</time>
      </trkpt>
      <trkpt lat="45.43532" lon="7.00576">
        <ele>2468.4</ele>
        <time>2021-07-23T10:45:02.285Z</time>
      </trkpt>
      <trkpt lat="45.43528" lon="7.00576">
        <ele>2468.4</ele>
        <time>2021-07-23T10:45:03.285Z</time>
      </trkpt>
      <trkpt lat="45.43525" lon="7.00578">
        <ele>2468.4</ele>
        <time>2021-07-23T10:45:04.285Z</time>
      </trkpt>
      <trkpt lat="45.43522" lon="7.00579">
        <ele>2468.4</ele>
        <time>2021-07-23T10:45:05.285Z</time>
      </trkpt>
      <trkpt lat="45.43518" lon="7.0058">
        <ele>2468.4</ele>
        <time>2021-07-23T10:45:06.285Z</time>
      </trkpt>
      <trkpt lat="45.43515" lon="7.00581">
        <ele>2468.4</ele>
        <time>2021-07-23T10:45:07.285Z</time>
      </trkpt>
      <trkpt lat="45.43511" lon="7.00582">
        <ele>2468.4</ele>
        <time>2021-07-23T10:45:08.285Z</time>
      </trkpt>
      <trkpt lat="45.43508" lon="7.00584">
        <ele>2468.8</ele>
        <time>2021-07-23T10:45:09.285Z</time>
      </trkpt>
      <trkpt lat="45.43505" lon="7.00585">
        <ele>2469.2</ele>
        <time>2021-07-23T10:45:10.285Z</time>
      </trkpt>
      <trkpt lat="45.43501" lon="7.00587">
        <ele>2469.6</ele>
        <time>2021-07-23T10:45:11.285Z</time>
      </trkpt>
      <trkpt lat="45.43498" lon="7.00589">
        <ele>2470</ele>
        <time>2021-07-23T10:45:12.285Z</time>
      </trkpt>
      <trkpt lat="45.43495" lon="7.00591">
        <ele>2470.4</ele>
        <time>2021-07-23T10:45:13.285Z</time>
      </trkpt>
      <trkpt lat="45.43491" lon="7.00593">
        <ele>2470.4</ele>
        <time>2021-07-23T10:45:14.285Z</time>
      </trkpt>
      <trkpt lat="45.43488" lon="7.00594">
        <ele>2470.4</ele>
        <time>2021-07-23T10:45:15.285Z</time>
      </trkpt>
      <trkpt lat="45.43484" lon="7.00595">
        <ele>2470.4</ele>
        <time>2021-07-23T10:45:16.285Z</time>
      </trkpt>
      <trkpt lat="45.43481" lon="7.00596">
        <ele>2470.4</ele>
        <time>2021-07-23T10:45:17.285Z</time>
      </trkpt>
      <trkpt lat="45.43477" lon="7.00597">
        <ele>2470.4</ele>
        <time>2021-07-23T10:45:18.285Z</time>
      </trkpt>
      <trkpt lat="45.43473" lon="7.00597">
        <ele>2470.4</ele>
        <time>2021-07-23T10:45:19.285Z</time>
      </trkpt>
      <trkpt lat="45.43469" lon="7.00597">
        <ele>2471</ele>
        <time>2021-07-23T10:45:20.285Z</time>
      </trkpt>
      <trkpt lat="45.43466" lon="7.00597">
        <ele>2471.8</ele>
        <time>2021-07-23T10:45:21.285Z</time>
      </trkpt>
      <trkpt lat="45.43462" lon="7.00597">
        <ele>2472.2</ele>
        <time>2021-07-23T10:45:22.285Z</time>
      </trkpt>
      <trkpt lat="45.43459" lon="7.00596">
        <ele>2472.6</ele>
        <time>2021-07-23T10:45:23.285Z</time>
      </trkpt>
      <trkpt lat="45.43457" lon="7.00596">
        <ele>2472.6</ele>
        <time>2021-07-23T10:45:24.285Z</time>
      </trkpt>
      <trkpt lat="45.43454" lon="7.00596">
        <ele>2472.6</ele>
        <time>2021-07-23T10:45:25.285Z</time>
      </trkpt>
      <trkpt lat="45.43451" lon="7.00595">
        <ele>2472.6</ele>
        <time>2021-07-23T10:45:26.285Z</time>
      </trkpt>
      <trkpt lat="45.43447" lon="7.00595">
        <ele>2472.6</ele>
        <time>2021-07-23T10:45:27.285Z</time>
      </trkpt>
      <trkpt lat="45.43444" lon="7.00594">
        <ele>2472.6</ele>
        <time>2021-07-23T10:45:28.285Z</time>
      </trkpt>
      <trkpt lat="45.43441" lon="7.00592">
        <ele>2472.6</ele>
        <time>2021-07-23T10:45:29.285Z</time>
      </trkpt>
      <trkpt lat="45.43438" lon="7.00591">
        <ele>2472.6</ele>
        <time>2021-07-23T10:45:30.285Z</time>
      </trkpt>
      <trkpt lat="45.43435" lon="7.00591">
        <ele>2472.6</ele>
        <time>2021-07-23T10:45:31.285Z</time>
      </trkpt>
      <trkpt lat="45.43433" lon="7.00591">
        <ele>2473.2</ele>
        <time>2021-07-23T10:45:32.285Z</time>
      </trkpt>
      <trkpt lat="45.43429" lon="7.00591">
        <ele>2473.6</ele>
        <time>2021-07-23T10:45:33.285Z</time>
      </trkpt>
      <trkpt lat="45.43426" lon="7.00592">
        <ele>2474</ele>
        <time>2021-07-23T10:45:34.285Z</time>
      </trkpt>
      <trkpt lat="45.43424" lon="7.00593">
        <ele>2474.4</ele>
        <time>2021-07-23T10:45:35.285Z</time>
      </trkpt>
      <trkpt lat="45.43421" lon="7.00596">
        <ele>2474.8</ele>
        <time>2021-07-23T10:45:36.285Z</time>
      </trkpt>
      <trkpt lat="45.43419" lon="7.00599">
        <ele>2474.8</ele>
        <time>2021-07-23T10:45:37.285Z</time>
      </trkpt>
      <trkpt lat="45.43418" lon="7.00604">
        <ele>2474.8</ele>
        <time>2021-07-23T10:45:38.285Z</time>
      </trkpt>
      <trkpt lat="45.43418" lon="7.00609">
        <ele>2474.8</ele>
        <time>2021-07-23T10:45:39.285Z</time>
      </trkpt>
      <trkpt lat="45.43419" lon="7.00613">
        <ele>2475.2</ele>
        <time>2021-07-23T10:45:40.285Z</time>
      </trkpt>
      <trkpt lat="45.43421" lon="7.00617">
        <ele>2475.6</ele>
        <time>2021-07-23T10:45:41.285Z</time>
      </trkpt>
      <trkpt lat="45.43423" lon="7.0062">
        <ele>2476</ele>
        <time>2021-07-23T10:45:42.285Z</time>
      </trkpt>
      <trkpt lat="45.43426" lon="7.00622">
        <ele>2476.4</ele>
        <time>2021-07-23T10:45:43.285Z</time>
      </trkpt>
      <trkpt lat="45.43429" lon="7.00624">
        <ele>2476.8</ele>
        <time>2021-07-23T10:45:44.285Z</time>
      </trkpt>
      <trkpt lat="45.43433" lon="7.00624">
        <ele>2476.8</ele>
        <time>2021-07-23T10:45:45.285Z</time>
      </trkpt>
      <trkpt lat="45.43436" lon="7.00625">
        <ele>2476.8</ele>
        <time>2021-07-23T10:45:46.285Z</time>
      </trkpt>
      <trkpt lat="45.4344" lon="7.00626">
        <ele>2476.8</ele>
        <time>2021-07-23T10:45:47.285Z</time>
      </trkpt>
      <trkpt lat="45.43444" lon="7.00627">
        <ele>2476.8</ele>
        <time>2021-07-23T10:45:48.285Z</time>
      </trkpt>
      <trkpt lat="45.43447" lon="7.00627">
        <ele>2476.8</ele>
        <time>2021-07-23T10:45:49.285Z</time>
      </trkpt>
      <trkpt lat="45.4345" lon="7.00627">
        <ele>2476.8</ele>
        <time>2021-07-23T10:45:50.285Z</time>
      </trkpt>
      <trkpt lat="45.43453" lon="7.00627">
        <ele>2476.8</ele>
        <time>2021-07-23T10:45:51.285Z</time>
      </trkpt>
      <trkpt lat="45.43457" lon="7.00627">
        <ele>2477.4</ele>
        <time>2021-07-23T10:45:52.285Z</time>
      </trkpt>
      <trkpt lat="45.4346" lon="7.00628">
        <ele>2477.8</ele>
        <time>2021-07-23T10:45:53.285Z</time>
      </trkpt>
      <trkpt lat="45.43463" lon="7.00629">
        <ele>2478.2</ele>
        <time>2021-07-23T10:45:54.285Z</time>
      </trkpt>
      <trkpt lat="45.43467" lon="7.00629">
        <ele>2478.6</ele>
        <time>2021-07-23T10:45:55.285Z</time>
      </trkpt>
      <trkpt lat="45.4347" lon="7.00629">
        <ele>2479</ele>
        <time>2021-07-23T10:45:56.285Z</time>
      </trkpt>
      <trkpt lat="45.43473" lon="7.0063">
        <ele>2479</ele>
        <time>2021-07-23T10:45:57.285Z</time>
      </trkpt>
      <trkpt lat="45.43476" lon="7.0063">
        <ele>2479</ele>
        <time>2021-07-23T10:45:58.285Z</time>
      </trkpt>
      <trkpt lat="45.43478" lon="7.0063">
        <ele>2479</ele>
        <time>2021-07-23T10:45:59.285Z</time>
      </trkpt>
      <trkpt lat="45.43481" lon="7.00629">
        <ele>2479</ele>
        <time>2021-07-23T10:46:00.285Z</time>
      </trkpt>
      <trkpt lat="45.43484" lon="7.00628">
        <ele>2479.4</ele>
        <time>2021-07-23T10:46:01.285Z</time>
      </trkpt>
      <trkpt lat="45.43487" lon="7.00627">
        <ele>2479.8</ele>
        <time>2021-07-23T10:46:02.285Z</time>
      </trkpt>
      <trkpt lat="45.4349" lon="7.00626">
        <ele>2480.2</ele>
        <time>2021-07-23T10:46:03.285Z</time>
      </trkpt>
      <trkpt lat="45.43493" lon="7.00624">
        <ele>2480.8</ele>
        <time>2021-07-23T10:46:04.285Z</time>
      </trkpt>
      <trkpt lat="45.43495" lon="7.00623">
        <ele>2481.2</ele>
        <time>2021-07-23T10:46:05.285Z</time>
      </trkpt>
      <trkpt lat="45.43498" lon="7.00621">
        <ele>2481.2</ele>
        <time>2021-07-23T10:46:06.285Z</time>
      </trkpt>
      <trkpt lat="45.435" lon="7.0062">
        <ele>2481.2</ele>
        <time>2021-07-23T10:46:07.285Z</time>
      </trkpt>
      <trkpt lat="45.43503" lon="7.00619">
        <ele>2481.2</ele>
        <time>2021-07-23T10:46:08.285Z</time>
      </trkpt>
      <trkpt lat="45.43505" lon="7.00618">
        <ele>2481.2</ele>
        <time>2021-07-23T10:46:09.285Z</time>
      </trkpt>
      <trkpt lat="45.43508" lon="7.00617">
        <ele>2481.2</ele>
        <time>2021-07-23T10:46:10.285Z</time>
      </trkpt>
      <trkpt lat="45.4351" lon="7.00617">
        <ele>2481.6</ele>
        <time>2021-07-23T10:46:11.285Z</time>
      </trkpt>
      <trkpt lat="45.43513" lon="7.00616">
        <ele>2482</ele>
        <time>2021-07-23T10:46:12.285Z</time>
      </trkpt>
      <trkpt lat="45.43515" lon="7.00616">
        <ele>2482.6</ele>
        <time>2021-07-23T10:46:13.285Z</time>
      </trkpt>
      <trkpt lat="45.43518" lon="7.00616">
        <ele>2483</ele>
        <time>2021-07-23T10:46:14.285Z</time>
      </trkpt>
      <trkpt lat="45.43521" lon="7.00617">
        <ele>2483.4</ele>
        <time>2021-07-23T10:46:15.285Z</time>
      </trkpt>
      <trkpt lat="45.43523" lon="7.00617">
        <ele>2483.4</ele>
        <time>2021-07-23T10:46:16.285Z</time>
      </trkpt>
      <trkpt lat="45.43526" lon="7.00618">
        <ele>2483.4</ele>
        <time>2021-07-23T10:46:17.285Z</time>
      </trkpt>
      <trkpt lat="45.43529" lon="7.00618">
        <ele>2483.4</ele>
        <time>2021-07-23T10:46:18.285Z</time>
      </trkpt>
      <trkpt lat="45.43532" lon="7.0062">
        <ele>2483.4</ele>
        <time>2021-07-23T10:46:19.285Z</time>
      </trkpt>
      <trkpt lat="45.43535" lon="7.00621">
        <ele>2483.4</ele>
        <time>2021-07-23T10:46:20.285Z</time>
      </trkpt>
      <trkpt lat="45.43537" lon="7.00622">
        <ele>2483.4</ele>
        <time>2021-07-23T10:46:21.285Z</time>
      </trkpt>
      <trkpt lat="45.43539" lon="7.00624">
        <ele>2483.8</ele>
        <time>2021-07-23T10:46:22.285Z</time>
      </trkpt>
      <trkpt lat="45.43541" lon="7.00626">
        <ele>2484.2</ele>
        <time>2021-07-23T10:46:23.285Z</time>
      </trkpt>
      <trkpt lat="45.43544" lon="7.00628">
        <ele>2484.6</ele>
        <time>2021-07-23T10:46:24.285Z</time>
      </trkpt>
      <trkpt lat="45.43546" lon="7.00631">
        <ele>2485</ele>
        <time>2021-07-23T10:46:25.285Z</time>
      </trkpt>
      <trkpt lat="45.43548" lon="7.00633">
        <ele>2485.4</ele>
        <time>2021-07-23T10:46:26.285Z</time>
      </trkpt>
      <trkpt lat="45.4355" lon="7.00636">
        <ele>2485.4</ele>
        <time>2021-07-23T10:46:27.285Z</time>
      </trkpt>
      <trkpt lat="45.43552" lon="7.00638">
        <ele>2485.4</ele>
        <time>2021-07-23T10:46:28.285Z</time>
      </trkpt>
      <trkpt lat="45.43554" lon="7.00641">
        <ele>2485.4</ele>
        <time>2021-07-23T10:46:29.285Z</time>
      </trkpt>
      <trkpt lat="45.43556" lon="7.00643">
        <ele>2485.4</ele>
        <time>2021-07-23T10:46:30.285Z</time>
      </trkpt>
      <trkpt lat="45.43558" lon="7.00645">
        <ele>2485.8</ele>
        <time>2021-07-23T10:46:31.285Z</time>
      </trkpt>
      <trkpt lat="45.4356" lon="7.00648">
        <ele>2486.2</ele>
        <time>2021-07-23T10:46:32.285Z</time>
      </trkpt>
      <trkpt lat="45.43562" lon="7.0065">
        <ele>2486.6</ele>
        <time>2021-07-23T10:46:33.285Z</time>
      </trkpt>
      <trkpt lat="45.43564" lon="7.00652">
        <ele>2487</ele>
        <time>2021-07-23T10:46:34.285Z</time>
      </trkpt>
      <trkpt lat="45.43566" lon="7.00654">
        <ele>2487.4</ele>
        <time>2021-07-23T10:46:35.285Z</time>
      </trkpt>
      <trkpt lat="45.43568" lon="7.00655">
        <ele>2487.4</ele>
        <time>2021-07-23T10:46:36.285Z</time>
      </trkpt>
      <trkpt lat="45.43571" lon="7.00657">
        <ele>2487.4</ele>
        <time>2021-07-23T10:46:37.285Z</time>
      </trkpt>
      <trkpt lat="45.43573" lon="7.00658">
        <ele>2487.4</ele>
        <time>2021-07-23T10:46:38.285Z</time>
      </trkpt>
      <trkpt lat="45.43576" lon="7.0066">
        <ele>2487.8</ele>
        <time>2021-07-23T10:46:39.285Z</time>
      </trkpt>
      <trkpt lat="45.43578" lon="7.00661">
        <ele>2488.2</ele>
        <time>2021-07-23T10:46:40.285Z</time>
      </trkpt>
      <trkpt lat="45.43581" lon="7.00662">
        <ele>2488.6</ele>
        <time>2021-07-23T10:46:41.285Z</time>
      </trkpt>
      <trkpt lat="45.43584" lon="7.00663">
        <ele>2489</ele>
        <time>2021-07-23T10:46:42.285Z</time>
      </trkpt>
      <trkpt lat="45.43586" lon="7.00664">
        <ele>2489.4</ele>
        <time>2021-07-23T10:46:43.285Z</time>
      </trkpt>
      <trkpt lat="45.43589" lon="7.00665">
        <ele>2489.4</ele>
        <time>2021-07-23T10:46:44.285Z</time>
      </trkpt>
      <trkpt lat="45.43591" lon="7.00667">
        <ele>2489.4</ele>
        <time>2021-07-23T10:46:45.285Z</time>
      </trkpt>
      <trkpt lat="45.43594" lon="7.00668">
        <ele>2489.4</ele>
        <time>2021-07-23T10:46:46.285Z</time>
      </trkpt>
      <trkpt lat="45.43596" lon="7.0067">
        <ele>2489.4</ele>
        <time>2021-07-23T10:46:47.285Z</time>
      </trkpt>
      <trkpt lat="45.43598" lon="7.00672">
        <ele>2489.4</ele>
        <time>2021-07-23T10:46:48.285Z</time>
      </trkpt>
      <trkpt lat="45.43601" lon="7.00673">
        <ele>2489.8</ele>
        <time>2021-07-23T10:46:49.285Z</time>
      </trkpt>
      <trkpt lat="45.43603" lon="7.00674">
        <ele>2490.2</ele>
        <time>2021-07-23T10:46:50.285Z</time>
      </trkpt>
      <trkpt lat="45.43605" lon="7.00676">
        <ele>2490.6</ele>
        <time>2021-07-23T10:46:51.285Z</time>
      </trkpt>
      <trkpt lat="45.43607" lon="7.00678">
        <ele>2491.2</ele>
        <time>2021-07-23T10:46:52.285Z</time>
      </trkpt>
      <trkpt lat="45.43609" lon="7.00681">
        <ele>2491.6</ele>
        <time>2021-07-23T10:46:53.285Z</time>
      </trkpt>
      <trkpt lat="45.43611" lon="7.00683">
        <ele>2491.6</ele>
        <time>2021-07-23T10:46:54.285Z</time>
      </trkpt>
      <trkpt lat="45.43613" lon="7.00686">
        <ele>2491.6</ele>
        <time>2021-07-23T10:46:55.285Z</time>
      </trkpt>
      <trkpt lat="45.43615" lon="7.00688">
        <ele>2491.6</ele>
        <time>2021-07-23T10:46:56.285Z</time>
      </trkpt>
      <trkpt lat="45.43617" lon="7.00691">
        <ele>2491.6</ele>
        <time>2021-07-23T10:46:57.285Z</time>
      </trkpt>
      <trkpt lat="45.43619" lon="7.00694">
        <ele>2491.6</ele>
        <time>2021-07-23T10:46:58.285Z</time>
      </trkpt>
      <trkpt lat="45.43621" lon="7.00698">
        <ele>2491.6</ele>
        <time>2021-07-23T10:46:59.285Z</time>
      </trkpt>
      <trkpt lat="45.43624" lon="7.00701">
        <ele>2492.4</ele>
        <time>2021-07-23T10:47:00.285Z</time>
      </trkpt>
      <trkpt lat="45.43627" lon="7.00704">
        <ele>2492.8</ele>
        <time>2021-07-23T10:47:01.285Z</time>
      </trkpt>
      <trkpt lat="45.43629" lon="7.00708">
        <ele>2493.2</ele>
        <time>2021-07-23T10:47:02.285Z</time>
      </trkpt>
      <trkpt lat="45.43632" lon="7.00712">
        <ele>2493.6</ele>
        <time>2021-07-23T10:47:03.285Z</time>
      </trkpt>
      <trkpt lat="45.43634" lon="7.00715">
        <ele>2493.6</ele>
        <time>2021-07-23T10:47:04.285Z</time>
      </trkpt>
      <trkpt lat="45.43637" lon="7.00719">
        <ele>2493.6</ele>
        <time>2021-07-23T10:47:05.285Z</time>
      </trkpt>
      <trkpt lat="45.43639" lon="7.00723">
        <ele>2493.6</ele>
        <time>2021-07-23T10:47:06.285Z</time>
      </trkpt>
      <trkpt lat="45.43642" lon="7.00727">
        <ele>2493.6</ele>
        <time>2021-07-23T10:47:07.285Z</time>
      </trkpt>
      <trkpt lat="45.43644" lon="7.00731">
        <ele>2493.6</ele>
        <time>2021-07-23T10:47:08.285Z</time>
      </trkpt>
      <trkpt lat="45.43647" lon="7.00735">
        <ele>2493.6</ele>
        <time>2021-07-23T10:47:09.285Z</time>
      </trkpt>
      <trkpt lat="45.4365" lon="7.00738">
        <ele>2493.6</ele>
        <time>2021-07-23T10:47:10.285Z</time>
      </trkpt>
      <trkpt lat="45.43653" lon="7.00742">
        <ele>2493.6</ele>
        <time>2021-07-23T10:47:11.285Z</time>
      </trkpt>
      <trkpt lat="45.43656" lon="7.00746">
        <ele>2493.6</ele>
        <time>2021-07-23T10:47:12.285Z</time>
      </trkpt>
      <trkpt lat="45.43659" lon="7.00751">
        <ele>2493.6</ele>
        <time>2021-07-23T10:47:13.285Z</time>
      </trkpt>
      <trkpt lat="45.43662" lon="7.00755">
        <ele>2493.6</ele>
        <time>2021-07-23T10:47:14.285Z</time>
      </trkpt>
      <trkpt lat="45.43664" lon="7.00759">
        <ele>2493.6</ele>
        <time>2021-07-23T10:47:15.285Z</time>
      </trkpt>
      <trkpt lat="45.43667" lon="7.00764">
        <ele>2493.6</ele>
        <time>2021-07-23T10:47:16.285Z</time>
      </trkpt>
      <trkpt lat="45.4367" lon="7.00768">
        <ele>2493.6</ele>
        <time>2021-07-23T10:47:17.285Z</time>
      </trkpt>
      <trkpt lat="45.43673" lon="7.00772">
        <ele>2494</ele>
        <time>2021-07-23T10:47:18.285Z</time>
      </trkpt>
      <trkpt lat="45.43675" lon="7.00776">
        <ele>2494.4</ele>
        <time>2021-07-23T10:47:19.285Z</time>
      </trkpt>
      <trkpt lat="45.43678" lon="7.0078">
        <ele>2494.8</ele>
        <time>2021-07-23T10:47:20.285Z</time>
      </trkpt>
      <trkpt lat="45.4368" lon="7.00784">
        <ele>2495.2</ele>
        <time>2021-07-23T10:47:21.285Z</time>
      </trkpt>
      <trkpt lat="45.43682" lon="7.00789">
        <ele>2495.6</ele>
        <time>2021-07-23T10:47:22.285Z</time>
      </trkpt>
      <trkpt lat="45.43685" lon="7.00793">
        <ele>2495.6</ele>
        <time>2021-07-23T10:47:23.285Z</time>
      </trkpt>
      <trkpt lat="45.43687" lon="7.00798">
        <ele>2495.6</ele>
        <time>2021-07-23T10:47:24.285Z</time>
      </trkpt>
      <trkpt lat="45.43689" lon="7.00802">
        <ele>2495.6</ele>
        <time>2021-07-23T10:47:25.285Z</time>
      </trkpt>
      <trkpt lat="45.43692" lon="7.00807">
        <ele>2495.6</ele>
        <time>2021-07-23T10:47:26.285Z</time>
      </trkpt>
      <trkpt lat="45.43695" lon="7.00811">
        <ele>2495.6</ele>
        <time>2021-07-23T10:47:27.285Z</time>
      </trkpt>
      <trkpt lat="45.43697" lon="7.00816">
        <ele>2495.6</ele>
        <time>2021-07-23T10:47:28.285Z</time>
      </trkpt>
      <trkpt lat="45.43699" lon="7.0082">
        <ele>2495.6</ele>
        <time>2021-07-23T10:47:29.285Z</time>
      </trkpt>
      <trkpt lat="45.43702" lon="7.00824">
        <ele>2495.6</ele>
        <time>2021-07-23T10:47:30.285Z</time>
      </trkpt>
      <trkpt lat="45.43704" lon="7.00828">
        <ele>2496</ele>
        <time>2021-07-23T10:47:31.285Z</time>
      </trkpt>
      <trkpt lat="45.43707" lon="7.00832">
        <ele>2496.4</ele>
        <time>2021-07-23T10:47:32.285Z</time>
      </trkpt>
      <trkpt lat="45.4371" lon="7.00836">
        <ele>2496.8</ele>
        <time>2021-07-23T10:47:33.285Z</time>
      </trkpt>
      <trkpt lat="45.43713" lon="7.0084">
        <ele>2497.4</ele>
        <time>2021-07-23T10:47:34.285Z</time>
      </trkpt>
      <trkpt lat="45.43715" lon="7.00843">
        <ele>2497.8</ele>
        <time>2021-07-23T10:47:35.285Z</time>
      </trkpt>
      <trkpt lat="45.43718" lon="7.00847">
        <ele>2497.8</ele>
        <time>2021-07-23T10:47:36.285Z</time>
      </trkpt>
      <trkpt lat="45.43721" lon="7.0085">
        <ele>2497.8</ele>
        <time>2021-07-23T10:47:37.285Z</time>
      </trkpt>
      <trkpt lat="45.43724" lon="7.00853">
        <ele>2497.8</ele>
        <time>2021-07-23T10:47:38.285Z</time>
      </trkpt>
      <trkpt lat="45.43727" lon="7.00856">
        <ele>2498.2</ele>
        <time>2021-07-23T10:47:39.285Z</time>
      </trkpt>
      <trkpt lat="45.4373" lon="7.00859">
        <ele>2498.6</ele>
        <time>2021-07-23T10:47:40.285Z</time>
      </trkpt>
      <trkpt lat="45.43733" lon="7.00862">
        <ele>2499</ele>
        <time>2021-07-23T10:47:41.285Z</time>
      </trkpt>
      <trkpt lat="45.43736" lon="7.00865">
        <ele>2499.4</ele>
        <time>2021-07-23T10:47:42.285Z</time>
      </trkpt>
      <trkpt lat="45.43738" lon="7.00868">
        <ele>2499.8</ele>
        <time>2021-07-23T10:47:43.285Z</time>
      </trkpt>
      <trkpt lat="45.43742" lon="7.00871">
        <ele>2499.8</ele>
        <time>2021-07-23T10:47:44.285Z</time>
      </trkpt>
      <trkpt lat="45.43744" lon="7.00874">
        <ele>2499.8</ele>
        <time>2021-07-23T10:47:45.285Z</time>
      </trkpt>
      <trkpt lat="45.43748" lon="7.00877">
        <ele>2499.8</ele>
        <time>2021-07-23T10:47:46.285Z</time>
      </trkpt>
      <trkpt lat="45.4375" lon="7.0088">
        <ele>2499.8</ele>
        <time>2021-07-23T10:47:47.285Z</time>
      </trkpt>
      <trkpt lat="45.43753" lon="7.00883">
        <ele>2500.2</ele>
        <time>2021-07-23T10:47:48.285Z</time>
      </trkpt>
      <trkpt lat="45.43755" lon="7.00886">
        <ele>2500.6</ele>
        <time>2021-07-23T10:47:49.285Z</time>
      </trkpt>
      <trkpt lat="45.43758" lon="7.00888">
        <ele>2501.6</ele>
        <time>2021-07-23T10:47:50.285Z</time>
      </trkpt>
      <trkpt lat="45.43761" lon="7.00891">
        <ele>2502</ele>
        <time>2021-07-23T10:47:51.285Z</time>
      </trkpt>
      <trkpt lat="45.43763" lon="7.00893">
        <ele>2502</ele>
        <time>2021-07-23T10:47:52.285Z</time>
      </trkpt>
      <trkpt lat="45.43766" lon="7.00895">
        <ele>2502</ele>
        <time>2021-07-23T10:47:53.285Z</time>
      </trkpt>
      <trkpt lat="45.43768" lon="7.00898">
        <ele>2502.4</ele>
        <time>2021-07-23T10:47:54.285Z</time>
      </trkpt>
      <trkpt lat="45.43771" lon="7.009">
        <ele>2502.8</ele>
        <time>2021-07-23T10:47:55.285Z</time>
      </trkpt>
      <trkpt lat="45.43774" lon="7.00902">
        <ele>2503.2</ele>
        <time>2021-07-23T10:47:56.285Z</time>
      </trkpt>
      <trkpt lat="45.43777" lon="7.00904">
        <ele>2503.8</ele>
        <time>2021-07-23T10:47:57.285Z</time>
      </trkpt>
      <trkpt lat="45.43779" lon="7.00907">
        <ele>2504.2</ele>
        <time>2021-07-23T10:47:58.285Z</time>
      </trkpt>
      <trkpt lat="45.43782" lon="7.00909">
        <ele>2504.2</ele>
        <time>2021-07-23T10:47:59.285Z</time>
      </trkpt>
      <trkpt lat="45.43785" lon="7.00912">
        <ele>2504.2</ele>
        <time>2021-07-23T10:48:00.285Z</time>
      </trkpt>
      <trkpt lat="45.43787" lon="7.00914">
        <ele>2504.2</ele>
        <time>2021-07-23T10:48:01.285Z</time>
      </trkpt>
      <trkpt lat="45.4379" lon="7.00917">
        <ele>2504.2</ele>
        <time>2021-07-23T10:48:02.285Z</time>
      </trkpt>
      <trkpt lat="45.43792" lon="7.0092">
        <ele>2504.6</ele>
        <time>2021-07-23T10:48:03.285Z</time>
      </trkpt>
      <trkpt lat="45.43794" lon="7.00922">
        <ele>2505</ele>
        <time>2021-07-23T10:48:04.285Z</time>
      </trkpt>
      <trkpt lat="45.43797" lon="7.00924">
        <ele>2505.4</ele>
        <time>2021-07-23T10:48:05.285Z</time>
      </trkpt>
      <trkpt lat="45.43799" lon="7.00927">
        <ele>2506</ele>
        <time>2021-07-23T10:48:06.285Z</time>
      </trkpt>
      <trkpt lat="45.43801" lon="7.00929">
        <ele>2506.4</ele>
        <time>2021-07-23T10:48:07.285Z</time>
      </trkpt>
      <trkpt lat="45.43803" lon="7.00933">
        <ele>2506.4</ele>
        <time>2021-07-23T10:48:08.285Z</time>
      </trkpt>
      <trkpt lat="45.43805" lon="7.00935">
        <ele>2506.4</ele>
        <time>2021-07-23T10:48:09.285Z</time>
      </trkpt>
      <trkpt lat="45.43807" lon="7.00938">
        <ele>2506.4</ele>
        <time>2021-07-23T10:48:10.285Z</time>
      </trkpt>
      <trkpt lat="45.43809" lon="7.0094">
        <ele>2506.8</ele>
        <time>2021-07-23T10:48:11.285Z</time>
      </trkpt>
      <trkpt lat="45.43811" lon="7.00942">
        <ele>2507.2</ele>
        <time>2021-07-23T10:48:12.285Z</time>
      </trkpt>
      <trkpt lat="45.43813" lon="7.00944">
        <ele>2507.6</ele>
        <time>2021-07-23T10:48:13.285Z</time>
      </trkpt>
      <trkpt lat="45.43815" lon="7.00946">
        <ele>2508.4</ele>
        <time>2021-07-23T10:48:14.285Z</time>
      </trkpt>
      <trkpt lat="45.43818" lon="7.00948">
        <ele>2508.4</ele>
        <time>2021-07-23T10:48:15.285Z</time>
      </trkpt>
      <trkpt lat="45.4382" lon="7.0095">
        <ele>2508.4</ele>
        <time>2021-07-23T10:48:16.285Z</time>
      </trkpt>
      <trkpt lat="45.43822" lon="7.00952">
        <ele>2508.8</ele>
        <time>2021-07-23T10:48:17.285Z</time>
      </trkpt>
      <trkpt lat="45.43824" lon="7.00954">
        <ele>2509.2</ele>
        <time>2021-07-23T10:48:18.285Z</time>
      </trkpt>
      <trkpt lat="45.43825" lon="7.00956">
        <ele>2509.6</ele>
        <time>2021-07-23T10:48:19.285Z</time>
      </trkpt>
      <trkpt lat="45.43827" lon="7.00959">
        <ele>2510.2</ele>
        <time>2021-07-23T10:48:20.285Z</time>
      </trkpt>
      <trkpt lat="45.43828" lon="7.00962">
        <ele>2510.6</ele>
        <time>2021-07-23T10:48:21.285Z</time>
      </trkpt>
      <trkpt lat="45.4383" lon="7.00964">
        <ele>2510.6</ele>
        <time>2021-07-23T10:48:22.285Z</time>
      </trkpt>
      <trkpt lat="45.43831" lon="7.00966">
        <ele>2510.6</ele>
        <time>2021-07-23T10:48:23.285Z</time>
      </trkpt>
      <trkpt lat="45.43833" lon="7.00968">
        <ele>2510.6</ele>
        <time>2021-07-23T10:48:24.285Z</time>
      </trkpt>
      <trkpt lat="45.43835" lon="7.00971">
        <ele>2511</ele>
        <time>2021-07-23T10:48:25.285Z</time>
      </trkpt>
      <trkpt lat="45.43837" lon="7.00973">
        <ele>2511.4</ele>
        <time>2021-07-23T10:48:26.285Z</time>
      </trkpt>
      <trkpt lat="45.43838" lon="7.00975">
        <ele>2511.8</ele>
        <time>2021-07-23T10:48:27.285Z</time>
      </trkpt>
      <trkpt lat="45.4384" lon="7.00978">
        <ele>2512.4</ele>
        <time>2021-07-23T10:48:28.285Z</time>
      </trkpt>
      <trkpt lat="45.43842" lon="7.00981">
        <ele>2512.8</ele>
        <time>2021-07-23T10:48:29.285Z</time>
      </trkpt>
      <trkpt lat="45.43843" lon="7.00984">
        <ele>2512.8</ele>
        <time>2021-07-23T10:48:30.285Z</time>
      </trkpt>
      <trkpt lat="45.43845" lon="7.00986">
        <ele>2512.8</ele>
        <time>2021-07-23T10:48:31.285Z</time>
      </trkpt>
      <trkpt lat="45.43846" lon="7.00989">
        <ele>2512.8</ele>
        <time>2021-07-23T10:48:32.285Z</time>
      </trkpt>
      <trkpt lat="45.43847" lon="7.00992">
        <ele>2512.8</ele>
        <time>2021-07-23T10:48:33.285Z</time>
      </trkpt>
      <trkpt lat="45.43849" lon="7.00995">
        <ele>2512.8</ele>
        <time>2021-07-23T10:48:34.285Z</time>
      </trkpt>
      <trkpt lat="45.4385" lon="7.00999">
        <ele>2512.8</ele>
        <time>2021-07-23T10:48:35.285Z</time>
      </trkpt>
      <trkpt lat="45.43851" lon="7.01001">
        <ele>2512.8</ele>
        <time>2021-07-23T10:48:36.285Z</time>
      </trkpt>
      <trkpt lat="45.43853" lon="7.01005">
        <ele>2513.2</ele>
        <time>2021-07-23T10:48:37.285Z</time>
      </trkpt>
      <trkpt lat="45.43854" lon="7.01008">
        <ele>2513.6</ele>
        <time>2021-07-23T10:48:38.285Z</time>
      </trkpt>
      <trkpt lat="45.43855" lon="7.01011">
        <ele>2514.6</ele>
        <time>2021-07-23T10:48:39.285Z</time>
      </trkpt>
      <trkpt lat="45.43856" lon="7.01015">
        <ele>2515</ele>
        <time>2021-07-23T10:48:40.285Z</time>
      </trkpt>
      <trkpt lat="45.43857" lon="7.01018">
        <ele>2515</ele>
        <time>2021-07-23T10:48:41.285Z</time>
      </trkpt>
      <trkpt lat="45.43858" lon="7.01022">
        <ele>2515</ele>
        <time>2021-07-23T10:48:42.285Z</time>
      </trkpt>
      <trkpt lat="45.43859" lon="7.01025">
        <ele>2515</ele>
        <time>2021-07-23T10:48:43.285Z</time>
      </trkpt>
      <trkpt lat="45.43858" lon="7.01029">
        <ele>2515</ele>
        <time>2021-07-23T10:48:44.285Z</time>
      </trkpt>
      <trkpt lat="45.43858" lon="7.01033">
        <ele>2515</ele>
        <time>2021-07-23T10:48:45.285Z</time>
      </trkpt>
      <trkpt lat="45.43857" lon="7.01037">
        <ele>2515</ele>
        <time>2021-07-23T10:48:46.285Z</time>
      </trkpt>
      <trkpt lat="45.43855" lon="7.0104">
        <ele>2515</ele>
        <time>2021-07-23T10:48:47.285Z</time>
      </trkpt>
      <trkpt lat="45.43853" lon="7.01042">
        <ele>2515</ele>
        <time>2021-07-23T10:48:48.285Z</time>
      </trkpt>
      <trkpt lat="45.43851" lon="7.01043">
        <ele>2515.4</ele>
        <time>2021-07-23T10:48:49.285Z</time>
      </trkpt>
      <trkpt lat="45.43848" lon="7.01043">
        <ele>2515.8</ele>
        <time>2021-07-23T10:48:50.285Z</time>
      </trkpt>
      <trkpt lat="45.43845" lon="7.01042">
        <ele>2516.2</ele>
        <time>2021-07-23T10:48:51.285Z</time>
      </trkpt>
      <trkpt lat="45.43842" lon="7.01041">
        <ele>2516.6</ele>
        <time>2021-07-23T10:48:52.285Z</time>
      </trkpt>
      <trkpt lat="45.4384" lon="7.0104">
        <ele>2517</ele>
        <time>2021-07-23T10:48:53.285Z</time>
      </trkpt>
      <trkpt lat="45.43837" lon="7.01038">
        <ele>2517</ele>
        <time>2021-07-23T10:48:54.285Z</time>
      </trkpt>
      <trkpt lat="45.43835" lon="7.01037">
        <ele>2517</ele>
        <time>2021-07-23T10:48:55.285Z</time>
      </trkpt>
      <trkpt lat="45.43833" lon="7.01035">
        <ele>2517</ele>
        <time>2021-07-23T10:48:56.285Z</time>
      </trkpt>
      <trkpt lat="45.43831" lon="7.01033">
        <ele>2517</ele>
        <time>2021-07-23T10:48:57.285Z</time>
      </trkpt>
      <trkpt lat="45.43828" lon="7.01032">
        <ele>2517</ele>
        <time>2021-07-23T10:48:58.285Z</time>
      </trkpt>
      <trkpt lat="45.43826" lon="7.01031">
        <ele>2517</ele>
        <time>2021-07-23T10:48:59.285Z</time>
      </trkpt>
      <trkpt lat="45.43824" lon="7.01029">
        <ele>2517</ele>
        <time>2021-07-23T10:49:00.285Z</time>
      </trkpt>
      <trkpt lat="45.43821" lon="7.01028">
        <ele>2517</ele>
        <time>2021-07-23T10:49:01.285Z</time>
      </trkpt>
      <trkpt lat="45.43817" lon="7.01027">
        <ele>2517</ele>
        <time>2021-07-23T10:49:02.285Z</time>
      </trkpt>
      <trkpt lat="45.43814" lon="7.01027">
        <ele>2517</ele>
        <time>2021-07-23T10:49:03.285Z</time>
      </trkpt>
      <trkpt lat="45.43811" lon="7.01028">
        <ele>2517.8</ele>
        <time>2021-07-23T10:49:04.285Z</time>
      </trkpt>
      <trkpt lat="45.43808" lon="7.01029">
        <ele>2518.2</ele>
        <time>2021-07-23T10:49:05.285Z</time>
      </trkpt>
      <trkpt lat="45.43805" lon="7.01031">
        <ele>2518.6</ele>
        <time>2021-07-23T10:49:06.285Z</time>
      </trkpt>
      <trkpt lat="45.43802" lon="7.01032">
        <ele>2519</ele>
        <time>2021-07-23T10:49:07.285Z</time>
      </trkpt>
      <trkpt lat="45.43799" lon="7.01034">
        <ele>2519</ele>
        <time>2021-07-23T10:49:08.285Z</time>
      </trkpt>
      <trkpt lat="45.43796" lon="7.01037">
        <ele>2519</ele>
        <time>2021-07-23T10:49:09.285Z</time>
      </trkpt>
      <trkpt lat="45.43794" lon="7.01039">
        <ele>2519</ele>
        <time>2021-07-23T10:49:10.285Z</time>
      </trkpt>
      <trkpt lat="45.43791" lon="7.01042">
        <ele>2519</ele>
        <time>2021-07-23T10:49:11.285Z</time>
      </trkpt>
      <trkpt lat="45.43789" lon="7.01045">
        <ele>2519</ele>
        <time>2021-07-23T10:49:12.285Z</time>
      </trkpt>
      <trkpt lat="45.43787" lon="7.01048">
        <ele>2519</ele>
        <time>2021-07-23T10:49:13.285Z</time>
      </trkpt>
      <trkpt lat="45.43784" lon="7.01052">
        <ele>2519</ele>
        <time>2021-07-23T10:49:14.285Z</time>
      </trkpt>
      <trkpt lat="45.43782" lon="7.01056">
        <ele>2519</ele>
        <time>2021-07-23T10:49:15.285Z</time>
      </trkpt>
      <trkpt lat="45.4378" lon="7.0106">
        <ele>2519</ele>
        <time>2021-07-23T10:49:16.285Z</time>
      </trkpt>
      <trkpt lat="45.43779" lon="7.01064">
        <ele>2519.4</ele>
        <time>2021-07-23T10:49:17.285Z</time>
      </trkpt>
      <trkpt lat="45.43777" lon="7.01067">
        <ele>2520</ele>
        <time>2021-07-23T10:49:18.285Z</time>
      </trkpt>
      <trkpt lat="45.43775" lon="7.01071">
        <ele>2520.4</ele>
        <time>2021-07-23T10:49:19.285Z</time>
      </trkpt>
      <trkpt lat="45.43774" lon="7.01075">
        <ele>2520.8</ele>
        <time>2021-07-23T10:49:20.285Z</time>
      </trkpt>
      <trkpt lat="45.43773" lon="7.0108">
        <ele>2521.2</ele>
        <time>2021-07-23T10:49:21.285Z</time>
      </trkpt>
      <trkpt lat="45.43771" lon="7.01084">
        <ele>2521.2</ele>
        <time>2021-07-23T10:49:22.285Z</time>
      </trkpt>
      <trkpt lat="45.4377" lon="7.01087">
        <ele>2521.2</ele>
        <time>2021-07-23T10:49:23.285Z</time>
      </trkpt>
      <trkpt lat="45.43768" lon="7.01091">
        <ele>2521.2</ele>
        <time>2021-07-23T10:49:24.285Z</time>
      </trkpt>
      <trkpt lat="45.43767" lon="7.01095">
        <ele>2521.2</ele>
        <time>2021-07-23T10:49:25.285Z</time>
      </trkpt>
      <trkpt lat="45.43765" lon="7.01099">
        <ele>2521.2</ele>
        <time>2021-07-23T10:49:26.285Z</time>
      </trkpt>
      <trkpt lat="45.43764" lon="7.01102">
        <ele>2521.2</ele>
        <time>2021-07-23T10:49:27.285Z</time>
      </trkpt>
      <trkpt lat="45.43763" lon="7.01106">
        <ele>2521.6</ele>
        <time>2021-07-23T10:49:28.285Z</time>
      </trkpt>
      <trkpt lat="45.43762" lon="7.0111">
        <ele>2522</ele>
        <time>2021-07-23T10:49:29.285Z</time>
      </trkpt>
      <trkpt lat="45.4376" lon="7.01113">
        <ele>2522.4</ele>
        <time>2021-07-23T10:49:30.285Z</time>
      </trkpt>
      <trkpt lat="45.43759" lon="7.01116">
        <ele>2522.8</ele>
        <time>2021-07-23T10:49:31.285Z</time>
      </trkpt>
      <trkpt lat="45.43758" lon="7.01119">
        <ele>2523.2</ele>
        <time>2021-07-23T10:49:32.285Z</time>
      </trkpt>
      <trkpt lat="45.43757" lon="7.01122">
        <ele>2523.2</ele>
        <time>2021-07-23T10:49:33.285Z</time>
      </trkpt>
      <trkpt lat="45.43756" lon="7.01126">
        <ele>2523.2</ele>
        <time>2021-07-23T10:49:34.285Z</time>
      </trkpt>
      <trkpt lat="45.43755" lon="7.01129">
        <ele>2523.2</ele>
        <time>2021-07-23T10:49:35.285Z</time>
      </trkpt>
      <trkpt lat="45.43753" lon="7.01133">
        <ele>2523.2</ele>
        <time>2021-07-23T10:49:36.285Z</time>
      </trkpt>
      <trkpt lat="45.43752" lon="7.01136">
        <ele>2523.2</ele>
        <time>2021-07-23T10:49:37.285Z</time>
      </trkpt>
      <trkpt lat="45.43751" lon="7.0114">
        <ele>2523.6</ele>
        <time>2021-07-23T10:49:38.285Z</time>
      </trkpt>
      <trkpt lat="45.4375" lon="7.01142">
        <ele>2524</ele>
        <time>2021-07-23T10:49:39.285Z</time>
      </trkpt>
      <trkpt lat="45.43748" lon="7.01145">
        <ele>2524.6</ele>
        <time>2021-07-23T10:49:40.285Z</time>
      </trkpt>
      <trkpt lat="45.43747" lon="7.01148">
        <ele>2525</ele>
        <time>2021-07-23T10:49:41.285Z</time>
      </trkpt>
      <trkpt lat="45.43745" lon="7.01152">
        <ele>2525.4</ele>
        <time>2021-07-23T10:49:42.285Z</time>
      </trkpt>
      <trkpt lat="45.43744" lon="7.01154">
        <ele>2525.4</ele>
        <time>2021-07-23T10:49:43.285Z</time>
      </trkpt>
      <trkpt lat="45.43742" lon="7.01157">
        <ele>2525.4</ele>
        <time>2021-07-23T10:49:44.285Z</time>
      </trkpt>
      <trkpt lat="45.43741" lon="7.0116">
        <ele>2525.4</ele>
        <time>2021-07-23T10:49:45.285Z</time>
      </trkpt>
      <trkpt lat="45.43739" lon="7.01163">
        <ele>2525.4</ele>
        <time>2021-07-23T10:49:46.285Z</time>
      </trkpt>
      <trkpt lat="45.43737" lon="7.01166">
        <ele>2525.4</ele>
        <time>2021-07-23T10:49:47.285Z</time>
      </trkpt>
      <trkpt lat="45.43735" lon="7.01168">
        <ele>2525.8</ele>
        <time>2021-07-23T10:49:48.285Z</time>
      </trkpt>
      <trkpt lat="45.43734" lon="7.01171">
        <ele>2526.2</ele>
        <time>2021-07-23T10:49:49.285Z</time>
      </trkpt>
      <trkpt lat="45.43732" lon="7.01173">
        <ele>2526.8</ele>
        <time>2021-07-23T10:49:50.285Z</time>
      </trkpt>
      <trkpt lat="45.4373" lon="7.01176">
        <ele>2527.2</ele>
        <time>2021-07-23T10:49:51.285Z</time>
      </trkpt>
      <trkpt lat="45.43729" lon="7.01179">
        <ele>2527.6</ele>
        <time>2021-07-23T10:49:52.285Z</time>
      </trkpt>
      <trkpt lat="45.43727" lon="7.01181">
        <ele>2527.6</ele>
        <time>2021-07-23T10:49:53.285Z</time>
      </trkpt>
      <trkpt lat="45.43726" lon="7.01184">
        <ele>2527.6</ele>
        <time>2021-07-23T10:49:54.285Z</time>
      </trkpt>
      <trkpt lat="45.43724" lon="7.01187">
        <ele>2527.6</ele>
        <time>2021-07-23T10:49:55.285Z</time>
      </trkpt>
      <trkpt lat="45.43723" lon="7.0119">
        <ele>2528</ele>
        <time>2021-07-23T10:49:56.285Z</time>
      </trkpt>
      <trkpt lat="45.43721" lon="7.01193">
        <ele>2528.4</ele>
        <time>2021-07-23T10:49:57.285Z</time>
      </trkpt>
      <trkpt lat="45.43719" lon="7.01195">
        <ele>2528.8</ele>
        <time>2021-07-23T10:49:58.285Z</time>
      </trkpt>
      <trkpt lat="45.43718" lon="7.01199">
        <ele>2529.2</ele>
        <time>2021-07-23T10:49:59.285Z</time>
      </trkpt>
      <trkpt lat="45.43717" lon="7.01202">
        <ele>2529.6</ele>
        <time>2021-07-23T10:50:00.285Z</time>
      </trkpt>
      <trkpt lat="45.43716" lon="7.01206">
        <ele>2529.6</ele>
        <time>2021-07-23T10:50:01.285Z</time>
      </trkpt>
      <trkpt lat="45.43716" lon="7.01209">
        <ele>2529.6</ele>
        <time>2021-07-23T10:50:02.285Z</time>
      </trkpt>
      <trkpt lat="45.43715" lon="7.01213">
        <ele>2529.6</ele>
        <time>2021-07-23T10:50:03.285Z</time>
      </trkpt>
      <trkpt lat="45.43714" lon="7.01216">
        <ele>2529.6</ele>
        <time>2021-07-23T10:50:04.285Z</time>
      </trkpt>
      <trkpt lat="45.43713" lon="7.0122">
        <ele>2529.6</ele>
        <time>2021-07-23T10:50:05.285Z</time>
      </trkpt>
      <trkpt lat="45.43713" lon="7.01224">
        <ele>2529.6</ele>
        <time>2021-07-23T10:50:06.285Z</time>
      </trkpt>
      <trkpt lat="45.43713" lon="7.01228">
        <ele>2530</ele>
        <time>2021-07-23T10:50:07.285Z</time>
      </trkpt>
      <trkpt lat="45.43712" lon="7.01232">
        <ele>2530.4</ele>
        <time>2021-07-23T10:50:08.285Z</time>
      </trkpt>
      <trkpt lat="45.43711" lon="7.01235">
        <ele>2531</ele>
        <time>2021-07-23T10:50:09.285Z</time>
      </trkpt>
      <trkpt lat="45.4371" lon="7.01239">
        <ele>2531.4</ele>
        <time>2021-07-23T10:50:10.285Z</time>
      </trkpt>
      <trkpt lat="45.43709" lon="7.01242">
        <ele>2531.8</ele>
        <time>2021-07-23T10:50:11.285Z</time>
      </trkpt>
      <trkpt lat="45.43708" lon="7.01246">
        <ele>2531.8</ele>
        <time>2021-07-23T10:50:12.285Z</time>
      </trkpt>
      <trkpt lat="45.43707" lon="7.01249">
        <ele>2531.8</ele>
        <time>2021-07-23T10:50:13.285Z</time>
      </trkpt>
      <trkpt lat="45.43706" lon="7.01252">
        <ele>2531.8</ele>
        <time>2021-07-23T10:50:14.285Z</time>
      </trkpt>
      <trkpt lat="45.43704" lon="7.01256">
        <ele>2531.8</ele>
        <time>2021-07-23T10:50:15.285Z</time>
      </trkpt>
      <trkpt lat="45.43702" lon="7.01258">
        <ele>2532.2</ele>
        <time>2021-07-23T10:50:16.285Z</time>
      </trkpt>
      <trkpt lat="45.43701" lon="7.01261">
        <ele>2532.6</ele>
        <time>2021-07-23T10:50:17.285Z</time>
      </trkpt>
      <trkpt lat="45.43699" lon="7.01264">
        <ele>2533.4</ele>
        <time>2021-07-23T10:50:18.285Z</time>
      </trkpt>
      <trkpt lat="45.43697" lon="7.01266">
        <ele>2533.8</ele>
        <time>2021-07-23T10:50:19.285Z</time>
      </trkpt>
      <trkpt lat="45.43695" lon="7.01269">
        <ele>2533.8</ele>
        <time>2021-07-23T10:50:20.285Z</time>
      </trkpt>
      <trkpt lat="45.43693" lon="7.01271">
        <ele>2533.8</ele>
        <time>2021-07-23T10:50:21.285Z</time>
      </trkpt>
      <trkpt lat="45.43691" lon="7.01273">
        <ele>2533.8</ele>
        <time>2021-07-23T10:50:22.285Z</time>
      </trkpt>
      <trkpt lat="45.43689" lon="7.01276">
        <ele>2533.8</ele>
        <time>2021-07-23T10:50:23.285Z</time>
      </trkpt>
      <trkpt lat="45.43687" lon="7.01279">
        <ele>2534.4</ele>
        <time>2021-07-23T10:50:24.285Z</time>
      </trkpt>
      <trkpt lat="45.43686" lon="7.01281">
        <ele>2534.8</ele>
        <time>2021-07-23T10:50:25.285Z</time>
      </trkpt>
      <trkpt lat="45.43684" lon="7.01284">
        <ele>2535.2</ele>
        <time>2021-07-23T10:50:26.285Z</time>
      </trkpt>
      <trkpt lat="45.43682" lon="7.01286">
        <ele>2535.6</ele>
        <time>2021-07-23T10:50:27.285Z</time>
      </trkpt>
      <trkpt lat="45.4368" lon="7.01288">
        <ele>2536</ele>
        <time>2021-07-23T10:50:28.285Z</time>
      </trkpt>
      <trkpt lat="45.43678" lon="7.0129">
        <ele>2536</ele>
        <time>2021-07-23T10:50:29.285Z</time>
      </trkpt>
      <trkpt lat="45.43677" lon="7.01293">
        <ele>2536</ele>
        <time>2021-07-23T10:50:30.285Z</time>
      </trkpt>
      <trkpt lat="45.43675" lon="7.01295">
        <ele>2536</ele>
        <time>2021-07-23T10:50:31.285Z</time>
      </trkpt>
      <trkpt lat="45.43673" lon="7.01298">
        <ele>2536</ele>
        <time>2021-07-23T10:50:32.285Z</time>
      </trkpt>
      <trkpt lat="45.43671" lon="7.01301">
        <ele>2536</ele>
        <time>2021-07-23T10:50:33.285Z</time>
      </trkpt>
      <trkpt lat="45.43669" lon="7.01303">
        <ele>2536</ele>
        <time>2021-07-23T10:50:34.285Z</time>
      </trkpt>
      <trkpt lat="45.43667" lon="7.01306">
        <ele>2536.4</ele>
        <time>2021-07-23T10:50:35.285Z</time>
      </trkpt>
      <trkpt lat="45.43665" lon="7.01308">
        <ele>2536.8</ele>
        <time>2021-07-23T10:50:36.285Z</time>
      </trkpt>
      <trkpt lat="45.43664" lon="7.01311">
        <ele>2537.2</ele>
        <time>2021-07-23T10:50:37.285Z</time>
      </trkpt>
      <trkpt lat="45.43663" lon="7.01314">
        <ele>2537.6</ele>
        <time>2021-07-23T10:50:38.285Z</time>
      </trkpt>
      <trkpt lat="45.43661" lon="7.01317">
        <ele>2538.2</ele>
        <time>2021-07-23T10:50:39.285Z</time>
      </trkpt>
      <trkpt lat="45.43659" lon="7.01319">
        <ele>2538.2</ele>
        <time>2021-07-23T10:50:40.285Z</time>
      </trkpt>
      <trkpt lat="45.43657" lon="7.01322">
        <ele>2538.2</ele>
        <time>2021-07-23T10:50:41.285Z</time>
      </trkpt>
      <trkpt lat="45.43656" lon="7.01324">
        <ele>2538.2</ele>
        <time>2021-07-23T10:50:42.285Z</time>
      </trkpt>
      <trkpt lat="45.43654" lon="7.01327">
        <ele>2538.2</ele>
        <time>2021-07-23T10:50:43.285Z</time>
      </trkpt>
      <trkpt lat="45.43652" lon="7.01329">
        <ele>2538.2</ele>
        <time>2021-07-23T10:50:44.285Z</time>
      </trkpt>
      <trkpt lat="45.4365" lon="7.01332">
        <ele>2538.2</ele>
        <time>2021-07-23T10:50:45.285Z</time>
      </trkpt>
      <trkpt lat="45.43648" lon="7.01335">
        <ele>2538.6</ele>
        <time>2021-07-23T10:50:46.285Z</time>
      </trkpt>
      <trkpt lat="45.43646" lon="7.01337">
        <ele>2539</ele>
        <time>2021-07-23T10:50:47.285Z</time>
      </trkpt>
      <trkpt lat="45.43645" lon="7.0134">
        <ele>2539.4</ele>
        <time>2021-07-23T10:50:48.285Z</time>
      </trkpt>
      <trkpt lat="45.43644" lon="7.01343">
        <ele>2540</ele>
        <time>2021-07-23T10:50:49.285Z</time>
      </trkpt>
      <trkpt lat="45.43642" lon="7.01346">
        <ele>2540.4</ele>
        <time>2021-07-23T10:50:50.285Z</time>
      </trkpt>
      <trkpt lat="45.4364" lon="7.01349">
        <ele>2540.4</ele>
        <time>2021-07-23T10:50:51.285Z</time>
      </trkpt>
      <trkpt lat="45.43638" lon="7.01351">
        <ele>2540.4</ele>
        <time>2021-07-23T10:50:52.285Z</time>
      </trkpt>
      <trkpt lat="45.43637" lon="7.01354">
        <ele>2540.4</ele>
        <time>2021-07-23T10:50:53.285Z</time>
      </trkpt>
      <trkpt lat="45.43635" lon="7.01357">
        <ele>2540.4</ele>
        <time>2021-07-23T10:50:54.285Z</time>
      </trkpt>
      <trkpt lat="45.43634" lon="7.0136">
        <ele>2540.4</ele>
        <time>2021-07-23T10:50:55.285Z</time>
      </trkpt>
      <trkpt lat="45.43632" lon="7.01362">
        <ele>2540.4</ele>
        <time>2021-07-23T10:50:56.285Z</time>
      </trkpt>
      <trkpt lat="45.43631" lon="7.01365">
        <ele>2540.8</ele>
        <time>2021-07-23T10:50:57.285Z</time>
      </trkpt>
      <trkpt lat="45.43629" lon="7.01368">
        <ele>2541.2</ele>
        <time>2021-07-23T10:50:58.285Z</time>
      </trkpt>
      <trkpt lat="45.43628" lon="7.01371">
        <ele>2541.6</ele>
        <time>2021-07-23T10:50:59.285Z</time>
      </trkpt>
      <trkpt lat="45.43625" lon="7.01373">
        <ele>2542</ele>
        <time>2021-07-23T10:51:00.285Z</time>
      </trkpt>
      <trkpt lat="45.43623" lon="7.01375">
        <ele>2542.4</ele>
        <time>2021-07-23T10:51:01.285Z</time>
      </trkpt>
      <trkpt lat="45.43621" lon="7.01377">
        <ele>2542.4</ele>
        <time>2021-07-23T10:51:02.285Z</time>
      </trkpt>
      <trkpt lat="45.43619" lon="7.01378">
        <ele>2542.4</ele>
        <time>2021-07-23T10:51:03.285Z</time>
      </trkpt>
      <trkpt lat="45.43617" lon="7.0138">
        <ele>2542.4</ele>
        <time>2021-07-23T10:51:04.285Z</time>
      </trkpt>
      <trkpt lat="45.43614" lon="7.01381">
        <ele>2542.4</ele>
        <time>2021-07-23T10:51:05.285Z</time>
      </trkpt>
      <trkpt lat="45.43612" lon="7.01381">
        <ele>2542.4</ele>
        <time>2021-07-23T10:51:06.285Z</time>
      </trkpt>
      <trkpt lat="45.43609" lon="7.01382">
        <ele>2542.8</ele>
        <time>2021-07-23T10:51:07.285Z</time>
      </trkpt>
      <trkpt lat="45.43607" lon="7.01383">
        <ele>2543.2</ele>
        <time>2021-07-23T10:51:08.285Z</time>
      </trkpt>
      <trkpt lat="45.43604" lon="7.01383">
        <ele>2543.8</ele>
        <time>2021-07-23T10:51:09.285Z</time>
      </trkpt>
      <trkpt lat="45.43601" lon="7.01384">
        <ele>2544.2</ele>
        <time>2021-07-23T10:51:10.285Z</time>
      </trkpt>
      <trkpt lat="45.43599" lon="7.01385">
        <ele>2544.6</ele>
        <time>2021-07-23T10:51:11.285Z</time>
      </trkpt>
      <trkpt lat="45.43596" lon="7.01384">
        <ele>2544.6</ele>
        <time>2021-07-23T10:51:12.285Z</time>
      </trkpt>
      <trkpt lat="45.43593" lon="7.01384">
        <ele>2544.6</ele>
        <time>2021-07-23T10:51:13.285Z</time>
      </trkpt>
      <trkpt lat="45.43591" lon="7.01384">
        <ele>2544.6</ele>
        <time>2021-07-23T10:51:14.285Z</time>
      </trkpt>
      <trkpt lat="45.43588" lon="7.01383">
        <ele>2544.6</ele>
        <time>2021-07-23T10:51:15.285Z</time>
      </trkpt>
      <trkpt lat="45.43585" lon="7.01382">
        <ele>2544.6</ele>
        <time>2021-07-23T10:51:16.285Z</time>
      </trkpt>
      <trkpt lat="45.43582" lon="7.01381">
        <ele>2545</ele>
        <time>2021-07-23T10:51:17.285Z</time>
      </trkpt>
      <trkpt lat="45.43579" lon="7.0138">
        <ele>2545.4</ele>
        <time>2021-07-23T10:51:18.285Z</time>
      </trkpt>
      <trkpt lat="45.43576" lon="7.01379">
        <ele>2545.8</ele>
        <time>2021-07-23T10:51:19.285Z</time>
      </trkpt>
      <trkpt lat="45.43573" lon="7.01378">
        <ele>2546.2</ele>
        <time>2021-07-23T10:51:20.285Z</time>
      </trkpt>
      <trkpt lat="45.43571" lon="7.01377">
        <ele>2546.6</ele>
        <time>2021-07-23T10:51:21.285Z</time>
      </trkpt>
      <trkpt lat="45.43568" lon="7.01377">
        <ele>2546.6</ele>
        <time>2021-07-23T10:51:22.285Z</time>
      </trkpt>
      <trkpt lat="45.43565" lon="7.01376">
        <ele>2546.6</ele>
        <time>2021-07-23T10:51:23.285Z</time>
      </trkpt>
      <trkpt lat="45.43562" lon="7.01377">
        <ele>2546.6</ele>
        <time>2021-07-23T10:51:24.285Z</time>
      </trkpt>
      <trkpt lat="45.43558" lon="7.01377">
        <ele>2546.6</ele>
        <time>2021-07-23T10:51:25.285Z</time>
      </trkpt>
      <trkpt lat="45.43555" lon="7.01378">
        <ele>2546.6</ele>
        <time>2021-07-23T10:51:26.285Z</time>
      </trkpt>
      <trkpt lat="45.43552" lon="7.0138">
        <ele>2546.6</ele>
        <time>2021-07-23T10:51:27.285Z</time>
      </trkpt>
      <trkpt lat="45.43549" lon="7.01382">
        <ele>2546.6</ele>
        <time>2021-07-23T10:51:28.285Z</time>
      </trkpt>
      <trkpt lat="45.43546" lon="7.01384">
        <ele>2546.6</ele>
        <time>2021-07-23T10:51:29.285Z</time>
      </trkpt>
      <trkpt lat="45.43543" lon="7.01387">
        <ele>2546.6</ele>
        <time>2021-07-23T10:51:30.285Z</time>
      </trkpt>
      <trkpt lat="45.4354" lon="7.0139">
        <ele>2546.6</ele>
        <time>2021-07-23T10:51:31.285Z</time>
      </trkpt>
      <trkpt lat="45.43537" lon="7.01393">
        <ele>2547.4</ele>
        <time>2021-07-23T10:51:32.285Z</time>
      </trkpt>
      <trkpt lat="45.43535" lon="7.01396">
        <ele>2547.8</ele>
        <time>2021-07-23T10:51:33.285Z</time>
      </trkpt>
      <trkpt lat="45.43532" lon="7.01399">
        <ele>2548.4</ele>
        <time>2021-07-23T10:51:34.285Z</time>
      </trkpt>
      <trkpt lat="45.43529" lon="7.01403">
        <ele>2548.8</ele>
        <time>2021-07-23T10:51:35.285Z</time>
      </trkpt>
      <trkpt lat="45.43527" lon="7.01406">
        <ele>2548.8</ele>
        <time>2021-07-23T10:51:36.285Z</time>
      </trkpt>
      <trkpt lat="45.43524" lon="7.0141">
        <ele>2548.8</ele>
        <time>2021-07-23T10:51:37.285Z</time>
      </trkpt>
      <trkpt lat="45.43521" lon="7.01413">
        <ele>2548.8</ele>
        <time>2021-07-23T10:51:38.285Z</time>
      </trkpt>
      <trkpt lat="45.43518" lon="7.01417">
        <ele>2548.8</ele>
        <time>2021-07-23T10:51:39.285Z</time>
      </trkpt>
      <trkpt lat="45.43515" lon="7.0142">
        <ele>2548.8</ele>
        <time>2021-07-23T10:51:40.285Z</time>
      </trkpt>
      <trkpt lat="45.43512" lon="7.01423">
        <ele>2548.8</ele>
        <time>2021-07-23T10:51:41.285Z</time>
      </trkpt>
      <trkpt lat="45.43509" lon="7.01426">
        <ele>2548.8</ele>
        <time>2021-07-23T10:51:42.285Z</time>
      </trkpt>
      <trkpt lat="45.43506" lon="7.01429">
        <ele>2549.2</ele>
        <time>2021-07-23T10:51:43.285Z</time>
      </trkpt>
      <trkpt lat="45.43503" lon="7.01433">
        <ele>2549.6</ele>
        <time>2021-07-23T10:51:44.285Z</time>
      </trkpt>
      <trkpt lat="45.435" lon="7.01435">
        <ele>2550</ele>
        <time>2021-07-23T10:51:45.285Z</time>
      </trkpt>
      <trkpt lat="45.43497" lon="7.01438">
        <ele>2550.4</ele>
        <time>2021-07-23T10:51:46.285Z</time>
      </trkpt>
      <trkpt lat="45.43494" lon="7.0144">
        <ele>2550.8</ele>
        <time>2021-07-23T10:51:47.285Z</time>
      </trkpt>
      <trkpt lat="45.43491" lon="7.01442">
        <ele>2550.8</ele>
        <time>2021-07-23T10:51:48.285Z</time>
      </trkpt>
      <trkpt lat="45.43488" lon="7.01445">
        <ele>2550.8</ele>
        <time>2021-07-23T10:51:49.285Z</time>
      </trkpt>
      <trkpt lat="45.43484" lon="7.01447">
        <ele>2550.8</ele>
        <time>2021-07-23T10:51:50.285Z</time>
      </trkpt>
      <trkpt lat="45.43481" lon="7.01449">
        <ele>2550.8</ele>
        <time>2021-07-23T10:51:51.285Z</time>
      </trkpt>
      <trkpt lat="45.43478" lon="7.01452">
        <ele>2550.8</ele>
        <time>2021-07-23T10:51:52.285Z</time>
      </trkpt>
      <trkpt lat="45.43474" lon="7.01454">
        <ele>2550.8</ele>
        <time>2021-07-23T10:51:53.285Z</time>
      </trkpt>
      <trkpt lat="45.43471" lon="7.01457">
        <ele>2550.8</ele>
        <time>2021-07-23T10:51:54.285Z</time>
      </trkpt>
      <trkpt lat="45.43468" lon="7.0146">
        <ele>2550.8</ele>
        <time>2021-07-23T10:51:55.285Z</time>
      </trkpt>
      <trkpt lat="45.43465" lon="7.01462">
        <ele>2551.4</ele>
        <time>2021-07-23T10:51:56.285Z</time>
      </trkpt>
      <trkpt lat="45.43462" lon="7.01464">
        <ele>2552.2</ele>
        <time>2021-07-23T10:51:57.285Z</time>
      </trkpt>
      <trkpt lat="45.43459" lon="7.01466">
        <ele>2552.6</ele>
        <time>2021-07-23T10:51:58.285Z</time>
      </trkpt>
      <trkpt lat="45.43456" lon="7.01468">
        <ele>2553</ele>
        <time>2021-07-23T10:51:59.285Z</time>
      </trkpt>
      <trkpt lat="45.43453" lon="7.0147">
        <ele>2553</ele>
        <time>2021-07-23T10:52:00.285Z</time>
      </trkpt>
      <trkpt lat="45.4345" lon="7.01473">
        <ele>2553</ele>
        <time>2021-07-23T10:52:01.285Z</time>
      </trkpt>
      <trkpt lat="45.43447" lon="7.01475">
        <ele>2553</ele>
        <time>2021-07-23T10:52:02.285Z</time>
      </trkpt>
      <trkpt lat="45.43443" lon="7.01477">
        <ele>2553</ele>
        <time>2021-07-23T10:52:03.285Z</time>
      </trkpt>
      <trkpt lat="45.4344" lon="7.0148">
        <ele>2553</ele>
        <time>2021-07-23T10:52:04.285Z</time>
      </trkpt>
      <trkpt lat="45.43437" lon="7.01482">
        <ele>2553</ele>
        <time>2021-07-23T10:52:05.285Z</time>
      </trkpt>
      <trkpt lat="45.43434" lon="7.01484">
        <ele>2553</ele>
        <time>2021-07-23T10:52:06.285Z</time>
      </trkpt>
      <trkpt lat="45.4343" lon="7.01486">
        <ele>2553.4</ele>
        <time>2021-07-23T10:52:07.285Z</time>
      </trkpt>
      <trkpt lat="45.43427" lon="7.01487">
        <ele>2553.8</ele>
        <time>2021-07-23T10:52:08.285Z</time>
      </trkpt>
      <trkpt lat="45.43423" lon="7.0149">
        <ele>2554.2</ele>
        <time>2021-07-23T10:52:09.285Z</time>
      </trkpt>
      <trkpt lat="45.4342" lon="7.01492">
        <ele>2554.6</ele>
        <time>2021-07-23T10:52:10.285Z</time>
      </trkpt>
      <trkpt lat="45.43417" lon="7.01494">
        <ele>2555</ele>
        <time>2021-07-23T10:52:11.285Z</time>
      </trkpt>
      <trkpt lat="45.43414" lon="7.01497">
        <ele>2555</ele>
        <time>2021-07-23T10:52:12.285Z</time>
      </trkpt>
      <trkpt lat="45.4341" lon="7.015">
        <ele>2555</ele>
        <time>2021-07-23T10:52:13.285Z</time>
      </trkpt>
      <trkpt lat="45.43407" lon="7.01502">
        <ele>2555</ele>
        <time>2021-07-23T10:52:14.285Z</time>
      </trkpt>
      <trkpt lat="45.43404" lon="7.01505">
        <ele>2555</ele>
        <time>2021-07-23T10:52:15.285Z</time>
      </trkpt>
      <trkpt lat="45.43401" lon="7.01507">
        <ele>2555</ele>
        <time>2021-07-23T10:52:16.285Z</time>
      </trkpt>
      <trkpt lat="45.43398" lon="7.01509">
        <ele>2555.4</ele>
        <time>2021-07-23T10:52:17.285Z</time>
      </trkpt>
      <trkpt lat="45.43395" lon="7.01512">
        <ele>2556</ele>
        <time>2021-07-23T10:52:18.285Z</time>
      </trkpt>
      <trkpt lat="45.43392" lon="7.01514">
        <ele>2556.4</ele>
        <time>2021-07-23T10:52:19.285Z</time>
      </trkpt>
      <trkpt lat="45.43389" lon="7.01516">
        <ele>2556.8</ele>
        <time>2021-07-23T10:52:20.285Z</time>
      </trkpt>
      <trkpt lat="45.43385" lon="7.01519">
        <ele>2557.2</ele>
        <time>2021-07-23T10:52:21.285Z</time>
      </trkpt>
      <trkpt lat="45.43382" lon="7.01523">
        <ele>2557.2</ele>
        <time>2021-07-23T10:52:22.285Z</time>
      </trkpt>
      <trkpt lat="45.4338" lon="7.01527">
        <ele>2557.2</ele>
        <time>2021-07-23T10:52:23.285Z</time>
      </trkpt>
      <trkpt lat="45.43377" lon="7.01531">
        <ele>2557.2</ele>
        <time>2021-07-23T10:52:24.285Z</time>
      </trkpt>
      <trkpt lat="45.43375" lon="7.01535">
        <ele>2557.2</ele>
        <time>2021-07-23T10:52:25.285Z</time>
      </trkpt>
      <trkpt lat="45.43372" lon="7.0154">
        <ele>2557.2</ele>
        <time>2021-07-23T10:52:26.285Z</time>
      </trkpt>
      <trkpt lat="45.4337" lon="7.01544">
        <ele>2557.2</ele>
        <time>2021-07-23T10:52:27.285Z</time>
      </trkpt>
      <trkpt lat="45.43368" lon="7.01549">
        <ele>2557.2</ele>
        <time>2021-07-23T10:52:28.285Z</time>
      </trkpt>
      <trkpt lat="45.43366" lon="7.01553">
        <ele>2557.6</ele>
        <time>2021-07-23T10:52:29.285Z</time>
      </trkpt>
      <trkpt lat="45.43364" lon="7.01557">
        <ele>2558</ele>
        <time>2021-07-23T10:52:30.285Z</time>
      </trkpt>
      <trkpt lat="45.43362" lon="7.01561">
        <ele>2558.4</ele>
        <time>2021-07-23T10:52:31.285Z</time>
      </trkpt>
      <trkpt lat="45.4336" lon="7.01566">
        <ele>2558.8</ele>
        <time>2021-07-23T10:52:32.285Z</time>
      </trkpt>
      <trkpt lat="45.43358" lon="7.0157">
        <ele>2559.2</ele>
        <time>2021-07-23T10:52:33.285Z</time>
      </trkpt>
      <trkpt lat="45.43355" lon="7.01574">
        <ele>2559.2</ele>
        <time>2021-07-23T10:52:34.285Z</time>
      </trkpt>
      <trkpt lat="45.43354" lon="7.01578">
        <ele>2559.2</ele>
        <time>2021-07-23T10:52:35.285Z</time>
      </trkpt>
      <trkpt lat="45.43352" lon="7.01583">
        <ele>2559.2</ele>
        <time>2021-07-23T10:52:36.285Z</time>
      </trkpt>
      <trkpt lat="45.4335" lon="7.01587">
        <ele>2559.2</ele>
        <time>2021-07-23T10:52:37.285Z</time>
      </trkpt>
      <trkpt lat="45.43348" lon="7.01591">
        <ele>2559.2</ele>
        <time>2021-07-23T10:52:38.285Z</time>
      </trkpt>
      <trkpt lat="45.43346" lon="7.01596">
        <ele>2559.2</ele>
        <time>2021-07-23T10:52:39.285Z</time>
      </trkpt>
      <trkpt lat="45.43344" lon="7.016">
        <ele>2559.2</ele>
        <time>2021-07-23T10:52:40.285Z</time>
      </trkpt>
      <trkpt lat="45.43342" lon="7.01604">
        <ele>2559.6</ele>
        <time>2021-07-23T10:52:41.285Z</time>
      </trkpt>
      <trkpt lat="45.4334" lon="7.01608">
        <ele>2560</ele>
        <time>2021-07-23T10:52:42.285Z</time>
      </trkpt>
      <trkpt lat="45.43338" lon="7.01612">
        <ele>2560.4</ele>
        <time>2021-07-23T10:52:43.285Z</time>
      </trkpt>
      <trkpt lat="45.43337" lon="7.01616">
        <ele>2561</ele>
        <time>2021-07-23T10:52:44.285Z</time>
      </trkpt>
      <trkpt lat="45.43335" lon="7.0162">
        <ele>2561.4</ele>
        <time>2021-07-23T10:52:45.285Z</time>
      </trkpt>
      <trkpt lat="45.43333" lon="7.01624">
        <ele>2561.4</ele>
        <time>2021-07-23T10:52:46.285Z</time>
      </trkpt>
      <trkpt lat="45.43331" lon="7.01629">
        <ele>2561.4</ele>
        <time>2021-07-23T10:52:47.285Z</time>
      </trkpt>
      <trkpt lat="45.43329" lon="7.01633">
        <ele>2561.4</ele>
        <time>2021-07-23T10:52:48.285Z</time>
      </trkpt>
      <trkpt lat="45.43327" lon="7.01637">
        <ele>2561.8</ele>
        <time>2021-07-23T10:52:49.285Z</time>
      </trkpt>
      <trkpt lat="45.43325" lon="7.01641">
        <ele>2562.2</ele>
        <time>2021-07-23T10:52:50.285Z</time>
      </trkpt>
      <trkpt lat="45.43323" lon="7.01645">
        <ele>2562.6</ele>
        <time>2021-07-23T10:52:51.285Z</time>
      </trkpt>
      <trkpt lat="45.43321" lon="7.0165">
        <ele>2563</ele>
        <time>2021-07-23T10:52:52.285Z</time>
      </trkpt>
      <trkpt lat="45.43319" lon="7.01654">
        <ele>2563.4</ele>
        <time>2021-07-23T10:52:53.285Z</time>
      </trkpt>
      <trkpt lat="45.43317" lon="7.01658">
        <ele>2563.4</ele>
        <time>2021-07-23T10:52:54.285Z</time>
      </trkpt>
      <trkpt lat="45.43315" lon="7.01663">
        <ele>2563.4</ele>
        <time>2021-07-23T10:52:55.285Z</time>
      </trkpt>
      <trkpt lat="45.43313" lon="7.01667">
        <ele>2563.4</ele>
        <time>2021-07-23T10:52:56.285Z</time>
      </trkpt>
      <trkpt lat="45.43311" lon="7.01671">
        <ele>2563.4</ele>
        <time>2021-07-23T10:52:57.285Z</time>
      </trkpt>
      <trkpt lat="45.43308" lon="7.01675">
        <ele>2563.4</ele>
        <time>2021-07-23T10:52:58.285Z</time>
      </trkpt>
      <trkpt lat="45.43306" lon="7.0168">
        <ele>2563.8</ele>
        <time>2021-07-23T10:52:59.285Z</time>
      </trkpt>
      <trkpt lat="45.43304" lon="7.01684">
        <ele>2564.2</ele>
        <time>2021-07-23T10:53:00.285Z</time>
      </trkpt>
      <trkpt lat="45.43302" lon="7.01688">
        <ele>2564.6</ele>
        <time>2021-07-23T10:53:01.285Z</time>
      </trkpt>
      <trkpt lat="45.43301" lon="7.01692">
        <ele>2565</ele>
        <time>2021-07-23T10:53:02.285Z</time>
      </trkpt>
      <trkpt lat="45.43299" lon="7.01696">
        <ele>2565.4</ele>
        <time>2021-07-23T10:53:03.285Z</time>
      </trkpt>
      <trkpt lat="45.43297" lon="7.017">
        <ele>2565.4</ele>
        <time>2021-07-23T10:53:04.285Z</time>
      </trkpt>
      <trkpt lat="45.43295" lon="7.01704">
        <ele>2565.4</ele>
        <time>2021-07-23T10:53:05.285Z</time>
      </trkpt>
      <trkpt lat="45.43294" lon="7.01708">
        <ele>2565.4</ele>
        <time>2021-07-23T10:53:06.285Z</time>
      </trkpt>
      <trkpt lat="45.43292" lon="7.01712">
        <ele>2565.4</ele>
        <time>2021-07-23T10:53:07.285Z</time>
      </trkpt>
      <trkpt lat="45.43289" lon="7.01715">
        <ele>2565.4</ele>
        <time>2021-07-23T10:53:08.285Z</time>
      </trkpt>
      <trkpt lat="45.43287" lon="7.01719">
        <ele>2565.4</ele>
        <time>2021-07-23T10:53:09.285Z</time>
      </trkpt>
      <trkpt lat="45.43285" lon="7.01721">
        <ele>2565.8</ele>
        <time>2021-07-23T10:53:10.285Z</time>
      </trkpt>
      <trkpt lat="45.43282" lon="7.01724">
        <ele>2566.4</ele>
        <time>2021-07-23T10:53:11.285Z</time>
      </trkpt>
      <trkpt lat="45.4328" lon="7.01726">
        <ele>2567.2</ele>
        <time>2021-07-23T10:53:12.285Z</time>
      </trkpt>
      <trkpt lat="45.43277" lon="7.01729">
        <ele>2567.6</ele>
        <time>2021-07-23T10:53:13.285Z</time>
      </trkpt>
      <trkpt lat="45.43275" lon="7.01731">
        <ele>2567.6</ele>
        <time>2021-07-23T10:53:14.285Z</time>
      </trkpt>
      <trkpt lat="45.43272" lon="7.01733">
        <ele>2567.6</ele>
        <time>2021-07-23T10:53:15.285Z</time>
      </trkpt>
      <trkpt lat="45.4327" lon="7.01736">
        <ele>2567.6</ele>
        <time>2021-07-23T10:53:16.285Z</time>
      </trkpt>
      <trkpt lat="45.43267" lon="7.01738">
        <ele>2567.6</ele>
        <time>2021-07-23T10:53:17.285Z</time>
      </trkpt>
      <trkpt lat="45.43264" lon="7.0174">
        <ele>2567.6</ele>
        <time>2021-07-23T10:53:18.285Z</time>
      </trkpt>
      <trkpt lat="45.43262" lon="7.01743">
        <ele>2568</ele>
        <time>2021-07-23T10:53:19.285Z</time>
      </trkpt>
      <trkpt lat="45.4326" lon="7.01745">
        <ele>2568.6</ele>
        <time>2021-07-23T10:53:20.285Z</time>
      </trkpt>
      <trkpt lat="45.43257" lon="7.01747">
        <ele>2569</ele>
        <time>2021-07-23T10:53:21.285Z</time>
      </trkpt>
      <trkpt lat="45.43255" lon="7.0175">
        <ele>2569.4</ele>
        <time>2021-07-23T10:53:22.285Z</time>
      </trkpt>
      <trkpt lat="45.43252" lon="7.01752">
        <ele>2569.8</ele>
        <time>2021-07-23T10:53:23.285Z</time>
      </trkpt>
      <trkpt lat="45.43249" lon="7.01755">
        <ele>2569.8</ele>
        <time>2021-07-23T10:53:24.285Z</time>
      </trkpt>
      <trkpt lat="45.43246" lon="7.01757">
        <ele>2569.8</ele>
        <time>2021-07-23T10:53:25.285Z</time>
      </trkpt>
      <trkpt lat="45.43243" lon="7.01761">
        <ele>2569.8</ele>
        <time>2021-07-23T10:53:26.285Z</time>
      </trkpt>
      <trkpt lat="45.4324" lon="7.01763">
        <ele>2569.8</ele>
        <time>2021-07-23T10:53:27.285Z</time>
      </trkpt>
      <trkpt lat="45.43237" lon="7.01766">
        <ele>2570.2</ele>
        <time>2021-07-23T10:53:28.285Z</time>
      </trkpt>
      <trkpt lat="45.43234" lon="7.01769">
        <ele>2570.6</ele>
        <time>2021-07-23T10:53:29.285Z</time>
      </trkpt>
      <trkpt lat="45.43232" lon="7.01772">
        <ele>2571</ele>
        <time>2021-07-23T10:53:30.285Z</time>
      </trkpt>
      <trkpt lat="45.43229" lon="7.01775">
        <ele>2571.4</ele>
        <time>2021-07-23T10:53:31.285Z</time>
      </trkpt>
      <trkpt lat="45.43226" lon="7.01778">
        <ele>2571.8</ele>
        <time>2021-07-23T10:53:32.285Z</time>
      </trkpt>
      <trkpt lat="45.43223" lon="7.01781">
        <ele>2571.8</ele>
        <time>2021-07-23T10:53:33.285Z</time>
      </trkpt>
      <trkpt lat="45.4322" lon="7.01783">
        <ele>2571.8</ele>
        <time>2021-07-23T10:53:34.285Z</time>
      </trkpt>
      <trkpt lat="45.43217" lon="7.01786">
        <ele>2571.8</ele>
        <time>2021-07-23T10:53:35.285Z</time>
      </trkpt>
      <trkpt lat="45.43214" lon="7.01789">
        <ele>2571.8</ele>
        <time>2021-07-23T10:53:36.285Z</time>
      </trkpt>
      <trkpt lat="45.43211" lon="7.01792">
        <ele>2571.8</ele>
        <time>2021-07-23T10:53:37.285Z</time>
      </trkpt>
      <trkpt lat="45.43208" lon="7.01795">
        <ele>2571.8</ele>
        <time>2021-07-23T10:53:38.285Z</time>
      </trkpt>
      <trkpt lat="45.43205" lon="7.01798">
        <ele>2571.8</ele>
        <time>2021-07-23T10:53:39.285Z</time>
      </trkpt>
      <trkpt lat="45.43203" lon="7.01801">
        <ele>2572.4</ele>
        <time>2021-07-23T10:53:40.285Z</time>
      </trkpt>
      <trkpt lat="45.432" lon="7.01804">
        <ele>2572.8</ele>
        <time>2021-07-23T10:53:41.285Z</time>
      </trkpt>
      <trkpt lat="45.43197" lon="7.01807">
        <ele>2573.2</ele>
        <time>2021-07-23T10:53:42.285Z</time>
      </trkpt>
      <trkpt lat="45.43194" lon="7.01809">
        <ele>2573.6</ele>
        <time>2021-07-23T10:53:43.285Z</time>
      </trkpt>
      <trkpt lat="45.43192" lon="7.01812">
        <ele>2574.2</ele>
        <time>2021-07-23T10:53:44.285Z</time>
      </trkpt>
      <trkpt lat="45.43189" lon="7.01815">
        <ele>2574.2</ele>
        <time>2021-07-23T10:53:45.285Z</time>
      </trkpt>
      <trkpt lat="45.43186" lon="7.01817">
        <ele>2574.2</ele>
        <time>2021-07-23T10:53:46.285Z</time>
      </trkpt>
      <trkpt lat="45.43182" lon="7.01819">
        <ele>2574.2</ele>
        <time>2021-07-23T10:53:47.285Z</time>
      </trkpt>
      <trkpt lat="45.43178" lon="7.01821">
        <ele>2574.2</ele>
        <time>2021-07-23T10:53:48.285Z</time>
      </trkpt>
      <trkpt lat="45.43176" lon="7.01824">
        <ele>2574.6</ele>
        <time>2021-07-23T10:53:49.285Z</time>
      </trkpt>
      <trkpt lat="45.43172" lon="7.01826">
        <ele>2575</ele>
        <time>2021-07-23T10:53:50.285Z</time>
      </trkpt>
      <trkpt lat="45.4317" lon="7.01828">
        <ele>2575.4</ele>
        <time>2021-07-23T10:53:51.285Z</time>
      </trkpt>
      <trkpt lat="45.43166" lon="7.0183">
        <ele>2575.8</ele>
        <time>2021-07-23T10:53:52.285Z</time>
      </trkpt>
      <trkpt lat="45.43163" lon="7.01831">
        <ele>2576.2</ele>
        <time>2021-07-23T10:53:53.285Z</time>
      </trkpt>
      <trkpt lat="45.4316" lon="7.01833">
        <ele>2576.2</ele>
        <time>2021-07-23T10:53:54.285Z</time>
      </trkpt>
      <trkpt lat="45.43157" lon="7.01834">
        <ele>2576.2</ele>
        <time>2021-07-23T10:53:55.285Z</time>
      </trkpt>
      <trkpt lat="45.43154" lon="7.01835">
        <ele>2576.2</ele>
        <time>2021-07-23T10:53:56.285Z</time>
      </trkpt>
      <trkpt lat="45.43151" lon="7.01836">
        <ele>2576.2</ele>
        <time>2021-07-23T10:53:57.285Z</time>
      </trkpt>
      <trkpt lat="45.43147" lon="7.01838">
        <ele>2576.2</ele>
        <time>2021-07-23T10:53:58.285Z</time>
      </trkpt>
      <trkpt lat="45.43144" lon="7.0184">
        <ele>2576.6</ele>
        <time>2021-07-23T10:53:59.285Z</time>
      </trkpt>
      <trkpt lat="45.43141" lon="7.01842">
        <ele>2577</ele>
        <time>2021-07-23T10:54:00.285Z</time>
      </trkpt>
      <trkpt lat="45.43138" lon="7.01843">
        <ele>2577.8</ele>
        <time>2021-07-23T10:54:01.285Z</time>
      </trkpt>
      <trkpt lat="45.43135" lon="7.01845">
        <ele>2578.4</ele>
        <time>2021-07-23T10:54:02.285Z</time>
      </trkpt>
      <trkpt lat="45.43132" lon="7.01847">
        <ele>2578.4</ele>
        <time>2021-07-23T10:54:03.285Z</time>
      </trkpt>
      <trkpt lat="45.43129" lon="7.01849">
        <ele>2578.4</ele>
        <time>2021-07-23T10:54:04.285Z</time>
      </trkpt>
      <trkpt lat="45.43126" lon="7.01851">
        <ele>2578.4</ele>
        <time>2021-07-23T10:54:05.285Z</time>
      </trkpt>
      <trkpt lat="45.43123" lon="7.01853">
        <ele>2578.4</ele>
        <time>2021-07-23T10:54:06.285Z</time>
      </trkpt>
      <trkpt lat="45.4312" lon="7.01855">
        <ele>2578.4</ele>
        <time>2021-07-23T10:54:07.285Z</time>
      </trkpt>
      <trkpt lat="45.43117" lon="7.01857">
        <ele>2578.4</ele>
        <time>2021-07-23T10:54:08.285Z</time>
      </trkpt>
      <trkpt lat="45.43114" lon="7.01859">
        <ele>2578.8</ele>
        <time>2021-07-23T10:54:09.285Z</time>
      </trkpt>
      <trkpt lat="45.43111" lon="7.01861">
        <ele>2579.2</ele>
        <time>2021-07-23T10:54:10.285Z</time>
      </trkpt>
      <trkpt lat="45.43108" lon="7.01862">
        <ele>2579.6</ele>
        <time>2021-07-23T10:54:11.285Z</time>
      </trkpt>
      <trkpt lat="45.43105" lon="7.01865">
        <ele>2580</ele>
        <time>2021-07-23T10:54:12.285Z</time>
      </trkpt>
      <trkpt lat="45.43102" lon="7.01867">
        <ele>2580.4</ele>
        <time>2021-07-23T10:54:13.285Z</time>
      </trkpt>
      <trkpt lat="45.431" lon="7.01868">
        <ele>2580.4</ele>
        <time>2021-07-23T10:54:14.285Z</time>
      </trkpt>
      <trkpt lat="45.43097" lon="7.0187">
        <ele>2580.4</ele>
        <time>2021-07-23T10:54:15.285Z</time>
      </trkpt>
      <trkpt lat="45.43094" lon="7.01872">
        <ele>2580.4</ele>
        <time>2021-07-23T10:54:16.285Z</time>
      </trkpt>
      <trkpt lat="45.43091" lon="7.01874">
        <ele>2580.4</ele>
        <time>2021-07-23T10:54:17.285Z</time>
      </trkpt>
      <trkpt lat="45.43088" lon="7.01876">
        <ele>2580.4</ele>
        <time>2021-07-23T10:54:18.285Z</time>
      </trkpt>
      <trkpt lat="45.43085" lon="7.01878">
        <ele>2580.8</ele>
        <time>2021-07-23T10:54:19.285Z</time>
      </trkpt>
      <trkpt lat="45.43082" lon="7.0188">
        <ele>2581.2</ele>
        <time>2021-07-23T10:54:20.285Z</time>
      </trkpt>
      <trkpt lat="45.43079" lon="7.01882">
        <ele>2581.6</ele>
        <time>2021-07-23T10:54:21.285Z</time>
      </trkpt>
      <trkpt lat="45.43076" lon="7.01883">
        <ele>2582</ele>
        <time>2021-07-23T10:54:22.285Z</time>
      </trkpt>
      <trkpt lat="45.43073" lon="7.01884">
        <ele>2582.4</ele>
        <time>2021-07-23T10:54:23.285Z</time>
      </trkpt>
      <trkpt lat="45.43071" lon="7.01887">
        <ele>2582.4</ele>
        <time>2021-07-23T10:54:24.285Z</time>
      </trkpt>
      <trkpt lat="45.43068" lon="7.01889">
        <ele>2582.4</ele>
        <time>2021-07-23T10:54:25.285Z</time>
      </trkpt>
      <trkpt lat="45.43065" lon="7.0189">
        <ele>2582.4</ele>
        <time>2021-07-23T10:54:26.285Z</time>
      </trkpt>
      <trkpt lat="45.43062" lon="7.01892">
        <ele>2582.8</ele>
        <time>2021-07-23T10:54:27.285Z</time>
      </trkpt>
      <trkpt lat="45.43059" lon="7.01893">
        <ele>2583.2</ele>
        <time>2021-07-23T10:54:28.285Z</time>
      </trkpt>
      <trkpt lat="45.43056" lon="7.01895">
        <ele>2583.6</ele>
        <time>2021-07-23T10:54:29.285Z</time>
      </trkpt>
      <trkpt lat="45.43054" lon="7.01897">
        <ele>2584</ele>
        <time>2021-07-23T10:54:30.285Z</time>
      </trkpt>
      <trkpt lat="45.4305" lon="7.01899">
        <ele>2584.4</ele>
        <time>2021-07-23T10:54:31.285Z</time>
      </trkpt>
      <trkpt lat="45.43048" lon="7.019">
        <ele>2584.4</ele>
        <time>2021-07-23T10:54:32.285Z</time>
      </trkpt>
      <trkpt lat="45.43045" lon="7.01902">
        <ele>2584.4</ele>
        <time>2021-07-23T10:54:33.285Z</time>
      </trkpt>
      <trkpt lat="45.43043" lon="7.01904">
        <ele>2584.4</ele>
        <time>2021-07-23T10:54:34.285Z</time>
      </trkpt>
      <trkpt lat="45.4304" lon="7.01906">
        <ele>2584.4</ele>
        <time>2021-07-23T10:54:35.285Z</time>
      </trkpt>
      <trkpt lat="45.43038" lon="7.01909">
        <ele>2584.4</ele>
        <time>2021-07-23T10:54:36.285Z</time>
      </trkpt>
      <trkpt lat="45.43036" lon="7.01911">
        <ele>2584.4</ele>
        <time>2021-07-23T10:54:37.285Z</time>
      </trkpt>
      <trkpt lat="45.43033" lon="7.01914">
        <ele>2584.8</ele>
        <time>2021-07-23T10:54:38.285Z</time>
      </trkpt>
      <trkpt lat="45.43031" lon="7.01916">
        <ele>2585.2</ele>
        <time>2021-07-23T10:54:39.285Z</time>
      </trkpt>
      <trkpt lat="45.43028" lon="7.01918">
        <ele>2585.6</ele>
        <time>2021-07-23T10:54:40.285Z</time>
      </trkpt>
      <trkpt lat="45.43026" lon="7.01921">
        <ele>2586</ele>
        <time>2021-07-23T10:54:41.285Z</time>
      </trkpt>
      <trkpt lat="45.43024" lon="7.01925">
        <ele>2586.6</ele>
        <time>2021-07-23T10:54:42.285Z</time>
      </trkpt>
      <trkpt lat="45.43022" lon="7.01928">
        <ele>2586.6</ele>
        <time>2021-07-23T10:54:43.285Z</time>
      </trkpt>
      <trkpt lat="45.43019" lon="7.01931">
        <ele>2586.6</ele>
        <time>2021-07-23T10:54:44.285Z</time>
      </trkpt>
      <trkpt lat="45.43017" lon="7.01933">
        <ele>2586.6</ele>
        <time>2021-07-23T10:54:45.285Z</time>
      </trkpt>
      <trkpt lat="45.43015" lon="7.01936">
        <ele>2586.6</ele>
        <time>2021-07-23T10:54:46.285Z</time>
      </trkpt>
      <trkpt lat="45.43013" lon="7.01939">
        <ele>2586.6</ele>
        <time>2021-07-23T10:54:47.285Z</time>
      </trkpt>
      <trkpt lat="45.43011" lon="7.01942">
        <ele>2586.6</ele>
        <time>2021-07-23T10:54:48.285Z</time>
      </trkpt>
      <trkpt lat="45.43009" lon="7.01946">
        <ele>2587</ele>
        <time>2021-07-23T10:54:49.285Z</time>
      </trkpt>
      <trkpt lat="45.43006" lon="7.01949">
        <ele>2587.8</ele>
        <time>2021-07-23T10:54:50.285Z</time>
      </trkpt>
      <trkpt lat="45.43005" lon="7.01952">
        <ele>2588.2</ele>
        <time>2021-07-23T10:54:51.285Z</time>
      </trkpt>
      <trkpt lat="45.43002" lon="7.01954">
        <ele>2588.6</ele>
        <time>2021-07-23T10:54:52.285Z</time>
      </trkpt>
      <trkpt lat="45.43" lon="7.01957">
        <ele>2588.6</ele>
        <time>2021-07-23T10:54:53.285Z</time>
      </trkpt>
      <trkpt lat="45.42998" lon="7.01959">
        <ele>2588.6</ele>
        <time>2021-07-23T10:54:54.285Z</time>
      </trkpt>
      <trkpt lat="45.42996" lon="7.01962">
        <ele>2588.6</ele>
        <time>2021-07-23T10:54:55.285Z</time>
      </trkpt>
      <trkpt lat="45.42994" lon="7.01965">
        <ele>2589</ele>
        <time>2021-07-23T10:54:56.285Z</time>
      </trkpt>
      <trkpt lat="45.42992" lon="7.01968">
        <ele>2589.4</ele>
        <time>2021-07-23T10:54:57.285Z</time>
      </trkpt>
      <trkpt lat="45.4299" lon="7.0197">
        <ele>2589.8</ele>
        <time>2021-07-23T10:54:58.285Z</time>
      </trkpt>
      <trkpt lat="45.42988" lon="7.01973">
        <ele>2590.2</ele>
        <time>2021-07-23T10:54:59.285Z</time>
      </trkpt>
      <trkpt lat="45.42986" lon="7.01975">
        <ele>2590.6</ele>
        <time>2021-07-23T10:55:00.285Z</time>
      </trkpt>
      <trkpt lat="45.42984" lon="7.01978">
        <ele>2590.6</ele>
        <time>2021-07-23T10:55:01.285Z</time>
      </trkpt>
      <trkpt lat="45.42982" lon="7.0198">
        <ele>2590.6</ele>
        <time>2021-07-23T10:55:02.285Z</time>
      </trkpt>
      <trkpt lat="45.4298" lon="7.01982">
        <ele>2590.6</ele>
        <time>2021-07-23T10:55:03.285Z</time>
      </trkpt>
      <trkpt lat="45.42978" lon="7.01985">
        <ele>2590.6</ele>
        <time>2021-07-23T10:55:04.285Z</time>
      </trkpt>
      <trkpt lat="45.42976" lon="7.01988">
        <ele>2590.6</ele>
        <time>2021-07-23T10:55:05.285Z</time>
      </trkpt>
      <trkpt lat="45.42974" lon="7.01991">
        <ele>2591.2</ele>
        <time>2021-07-23T10:55:06.285Z</time>
      </trkpt>
      <trkpt lat="45.42972" lon="7.01994">
        <ele>2591.6</ele>
        <time>2021-07-23T10:55:07.285Z</time>
      </trkpt>
      <trkpt lat="45.4297" lon="7.01996">
        <ele>2592.2</ele>
        <time>2021-07-23T10:55:08.285Z</time>
      </trkpt>
      <trkpt lat="45.42968" lon="7.01999">
        <ele>2592.8</ele>
        <time>2021-07-23T10:55:09.285Z</time>
      </trkpt>
      <trkpt lat="45.42966" lon="7.02002">
        <ele>2593.4</ele>
        <time>2021-07-23T10:55:10.285Z</time>
      </trkpt>
      <trkpt lat="45.42964" lon="7.02005">
        <ele>2593.4</ele>
        <time>2021-07-23T10:55:11.285Z</time>
      </trkpt>
      <trkpt lat="45.42962" lon="7.02007">
        <ele>2593.4</ele>
        <time>2021-07-23T10:55:12.285Z</time>
      </trkpt>
      <trkpt lat="45.4296" lon="7.0201">
        <ele>2593.4</ele>
        <time>2021-07-23T10:55:13.285Z</time>
      </trkpt>
      <trkpt lat="45.42958" lon="7.02013">
        <ele>2593.4</ele>
        <time>2021-07-23T10:55:14.285Z</time>
      </trkpt>
      <trkpt lat="45.42956" lon="7.02016">
        <ele>2593.4</ele>
        <time>2021-07-23T10:55:15.285Z</time>
      </trkpt>
      <trkpt lat="45.42953" lon="7.02019">
        <ele>2593.4</ele>
        <time>2021-07-23T10:55:16.285Z</time>
      </trkpt>
      <trkpt lat="45.42951" lon="7.02022">
        <ele>2593.4</ele>
        <time>2021-07-23T10:55:17.285Z</time>
      </trkpt>
      <trkpt lat="45.42949" lon="7.02024">
        <ele>2593.4</ele>
        <time>2021-07-23T10:55:18.285Z</time>
      </trkpt>
      <trkpt lat="45.42947" lon="7.02027">
        <ele>2593.4</ele>
        <time>2021-07-23T10:55:19.285Z</time>
      </trkpt>
      <trkpt lat="45.42945" lon="7.0203">
        <ele>2593.4</ele>
        <time>2021-07-23T10:55:20.285Z</time>
      </trkpt>
      <trkpt lat="45.42943" lon="7.02033">
        <ele>2593.4</ele>
        <time>2021-07-23T10:55:21.285Z</time>
      </trkpt>
      <trkpt lat="45.42941" lon="7.02036">
        <ele>2593.4</ele>
        <time>2021-07-23T10:55:22.285Z</time>
      </trkpt>
      <trkpt lat="45.42939" lon="7.02039">
        <ele>2593.8</ele>
        <time>2021-07-23T10:55:23.285Z</time>
      </trkpt>
      <trkpt lat="45.42937" lon="7.02042">
        <ele>2594.2</ele>
        <time>2021-07-23T10:55:24.285Z</time>
      </trkpt>
      <trkpt lat="45.42934" lon="7.02045">
        <ele>2594.6</ele>
        <time>2021-07-23T10:55:25.285Z</time>
      </trkpt>
      <trkpt lat="45.42932" lon="7.02048">
        <ele>2595</ele>
        <time>2021-07-23T10:55:26.285Z</time>
      </trkpt>
      <trkpt lat="45.4293" lon="7.02051">
        <ele>2595.4</ele>
        <time>2021-07-23T10:55:27.285Z</time>
      </trkpt>
      <trkpt lat="45.42928" lon="7.02054">
        <ele>2595.4</ele>
        <time>2021-07-23T10:55:28.285Z</time>
      </trkpt>
      <trkpt lat="45.42926" lon="7.02057">
        <ele>2595.4</ele>
        <time>2021-07-23T10:55:29.285Z</time>
      </trkpt>
      <trkpt lat="45.42923" lon="7.02061">
        <ele>2595.4</ele>
        <time>2021-07-23T10:55:30.285Z</time>
      </trkpt>
      <trkpt lat="45.42921" lon="7.02064">
        <ele>2595.4</ele>
        <time>2021-07-23T10:55:31.285Z</time>
      </trkpt>
      <trkpt lat="45.42919" lon="7.02067">
        <ele>2595.4</ele>
        <time>2021-07-23T10:55:32.285Z</time>
      </trkpt>
      <trkpt lat="45.42917" lon="7.02071">
        <ele>2595.4</ele>
        <time>2021-07-23T10:55:33.285Z</time>
      </trkpt>
      <trkpt lat="45.42915" lon="7.02073">
        <ele>2595.4</ele>
        <time>2021-07-23T10:55:34.285Z</time>
      </trkpt>
      <trkpt lat="45.42913" lon="7.02076">
        <ele>2595.8</ele>
        <time>2021-07-23T10:55:35.285Z</time>
      </trkpt>
      <trkpt lat="45.42911" lon="7.0208">
        <ele>2596.2</ele>
        <time>2021-07-23T10:55:36.285Z</time>
      </trkpt>
      <trkpt lat="45.42909" lon="7.02083">
        <ele>2596.6</ele>
        <time>2021-07-23T10:55:37.285Z</time>
      </trkpt>
      <trkpt lat="45.42906" lon="7.02085">
        <ele>2597</ele>
        <time>2021-07-23T10:55:38.285Z</time>
      </trkpt>
      <trkpt lat="45.42905" lon="7.02088">
        <ele>2597.4</ele>
        <time>2021-07-23T10:55:39.285Z</time>
      </trkpt>
      <trkpt lat="45.42903" lon="7.02091">
        <ele>2597.4</ele>
        <time>2021-07-23T10:55:40.285Z</time>
      </trkpt>
      <trkpt lat="45.42901" lon="7.02094">
        <ele>2597.4</ele>
        <time>2021-07-23T10:55:41.285Z</time>
      </trkpt>
      <trkpt lat="45.42899" lon="7.02096">
        <ele>2597.8</ele>
        <time>2021-07-23T10:55:42.285Z</time>
      </trkpt>
      <trkpt lat="45.42897" lon="7.02099">
        <ele>2598.2</ele>
        <time>2021-07-23T10:55:43.285Z</time>
      </trkpt>
      <trkpt lat="45.42895" lon="7.02102">
        <ele>2598.6</ele>
        <time>2021-07-23T10:55:44.285Z</time>
      </trkpt>
      <trkpt lat="45.42893" lon="7.02104">
        <ele>2599</ele>
        <time>2021-07-23T10:55:45.285Z</time>
      </trkpt>
      <trkpt lat="45.42891" lon="7.02106">
        <ele>2599.6</ele>
        <time>2021-07-23T10:55:46.285Z</time>
      </trkpt>
      <trkpt lat="45.42889" lon="7.02108">
        <ele>2599.6</ele>
        <time>2021-07-23T10:55:47.285Z</time>
      </trkpt>
      <trkpt lat="45.42887" lon="7.0211">
        <ele>2599.6</ele>
        <time>2021-07-23T10:55:48.285Z</time>
      </trkpt>
      <trkpt lat="45.42885" lon="7.02112">
        <ele>2599.6</ele>
        <time>2021-07-23T10:55:49.285Z</time>
      </trkpt>
      <trkpt lat="45.42883" lon="7.02114">
        <ele>2599.6</ele>
        <time>2021-07-23T10:55:50.285Z</time>
      </trkpt>
      <trkpt lat="45.4288" lon="7.02115">
        <ele>2600</ele>
        <time>2021-07-23T10:55:51.285Z</time>
      </trkpt>
      <trkpt lat="45.42878" lon="7.02116">
        <ele>2600.4</ele>
        <time>2021-07-23T10:55:52.285Z</time>
      </trkpt>
      <trkpt lat="45.42875" lon="7.02118">
        <ele>2600.8</ele>
        <time>2021-07-23T10:55:53.285Z</time>
      </trkpt>
      <trkpt lat="45.42873" lon="7.02119">
        <ele>2601.2</ele>
        <time>2021-07-23T10:55:54.285Z</time>
      </trkpt>
      <trkpt lat="45.4287" lon="7.0212">
        <ele>2601.8</ele>
        <time>2021-07-23T10:55:55.285Z</time>
      </trkpt>
      <trkpt lat="45.42868" lon="7.02121">
        <ele>2601.8</ele>
        <time>2021-07-23T10:55:56.285Z</time>
      </trkpt>
      <trkpt lat="45.42865" lon="7.02122">
        <ele>2601.8</ele>
        <time>2021-07-23T10:55:57.285Z</time>
      </trkpt>
      <trkpt lat="45.42863" lon="7.02123">
        <ele>2601.8</ele>
        <time>2021-07-23T10:55:58.285Z</time>
      </trkpt>
      <trkpt lat="45.4286" lon="7.02124">
        <ele>2601.8</ele>
        <time>2021-07-23T10:55:59.285Z</time>
      </trkpt>
      <trkpt lat="45.42858" lon="7.02126">
        <ele>2601.8</ele>
        <time>2021-07-23T10:56:00.285Z</time>
      </trkpt>
      <trkpt lat="45.42855" lon="7.02127">
        <ele>2601.8</ele>
        <time>2021-07-23T10:56:01.285Z</time>
      </trkpt>
      <trkpt lat="45.42853" lon="7.02128">
        <ele>2602.2</ele>
        <time>2021-07-23T10:56:02.285Z</time>
      </trkpt>
      <trkpt lat="45.42851" lon="7.02129">
        <ele>2602.6</ele>
        <time>2021-07-23T10:56:03.285Z</time>
      </trkpt>
      <trkpt lat="45.42848" lon="7.0213">
        <ele>2603</ele>
        <time>2021-07-23T10:56:04.285Z</time>
      </trkpt>
      <trkpt lat="45.42845" lon="7.02131">
        <ele>2603.8</ele>
        <time>2021-07-23T10:56:05.285Z</time>
      </trkpt>
      <trkpt lat="45.42842" lon="7.02132">
        <ele>2603.8</ele>
        <time>2021-07-23T10:56:06.285Z</time>
      </trkpt>
      <trkpt lat="45.4284" lon="7.02133">
        <ele>2603.8</ele>
        <time>2021-07-23T10:56:07.285Z</time>
      </trkpt>
      <trkpt lat="45.42837" lon="7.02134">
        <ele>2603.8</ele>
        <time>2021-07-23T10:56:08.285Z</time>
      </trkpt>
      <trkpt lat="45.42834" lon="7.02135">
        <ele>2603.8</ele>
        <time>2021-07-23T10:56:09.285Z</time>
      </trkpt>
      <trkpt lat="45.42831" lon="7.02137">
        <ele>2604.4</ele>
        <time>2021-07-23T10:56:10.285Z</time>
      </trkpt>
      <trkpt lat="45.42829" lon="7.02139">
        <ele>2604.8</ele>
        <time>2021-07-23T10:56:11.285Z</time>
      </trkpt>
      <trkpt lat="45.42826" lon="7.0214">
        <ele>2605.2</ele>
        <time>2021-07-23T10:56:12.285Z</time>
      </trkpt>
      <trkpt lat="45.42824" lon="7.02141">
        <ele>2605.6</ele>
        <time>2021-07-23T10:56:13.285Z</time>
      </trkpt>
      <trkpt lat="45.4282" lon="7.02142">
        <ele>2606</ele>
        <time>2021-07-23T10:56:14.285Z</time>
      </trkpt>
      <trkpt lat="45.42818" lon="7.02142">
        <ele>2606</ele>
        <time>2021-07-23T10:56:15.285Z</time>
      </trkpt>
      <trkpt lat="45.42815" lon="7.02144">
        <ele>2606</ele>
        <time>2021-07-23T10:56:16.285Z</time>
      </trkpt>
      <trkpt lat="45.42812" lon="7.02145">
        <ele>2606</ele>
        <time>2021-07-23T10:56:17.285Z</time>
      </trkpt>
      <trkpt lat="45.4281" lon="7.02146">
        <ele>2606.4</ele>
        <time>2021-07-23T10:56:18.285Z</time>
      </trkpt>
      <trkpt lat="45.42807" lon="7.02147">
        <ele>2606.8</ele>
        <time>2021-07-23T10:56:19.285Z</time>
      </trkpt>
      <trkpt lat="45.42804" lon="7.02148">
        <ele>2607.2</ele>
        <time>2021-07-23T10:56:20.285Z</time>
      </trkpt>
      <trkpt lat="45.42801" lon="7.0215">
        <ele>2607.6</ele>
        <time>2021-07-23T10:56:21.285Z</time>
      </trkpt>
      <trkpt lat="45.42798" lon="7.02151">
        <ele>2608</ele>
        <time>2021-07-23T10:56:22.285Z</time>
      </trkpt>
      <trkpt lat="45.42795" lon="7.02153">
        <ele>2608</ele>
        <time>2021-07-23T10:56:23.285Z</time>
      </trkpt>
      <trkpt lat="45.42792" lon="7.02154">
        <ele>2608</ele>
        <time>2021-07-23T10:56:24.285Z</time>
      </trkpt>
      <trkpt lat="45.42789" lon="7.02156">
        <ele>2608</ele>
        <time>2021-07-23T10:56:25.285Z</time>
      </trkpt>
      <trkpt lat="45.42786" lon="7.02157">
        <ele>2608</ele>
        <time>2021-07-23T10:56:26.285Z</time>
      </trkpt>
      <trkpt lat="45.42783" lon="7.02158">
        <ele>2608</ele>
        <time>2021-07-23T10:56:27.285Z</time>
      </trkpt>
      <trkpt lat="45.4278" lon="7.0216">
        <ele>2608</ele>
        <time>2021-07-23T10:56:28.285Z</time>
      </trkpt>
      <trkpt lat="45.42777" lon="7.02161">
        <ele>2608</ele>
        <time>2021-07-23T10:56:29.285Z</time>
      </trkpt>
      <trkpt lat="45.42774" lon="7.02162">
        <ele>2608</ele>
        <time>2021-07-23T10:56:30.285Z</time>
      </trkpt>
      <trkpt lat="45.42771" lon="7.02163">
        <ele>2608</ele>
        <time>2021-07-23T10:56:31.285Z</time>
      </trkpt>
      <trkpt lat="45.42768" lon="7.02165">
        <ele>2608</ele>
        <time>2021-07-23T10:56:32.285Z</time>
      </trkpt>
      <trkpt lat="45.42765" lon="7.02166">
        <ele>2608.6</ele>
        <time>2021-07-23T10:56:33.285Z</time>
      </trkpt>
      <trkpt lat="45.42762" lon="7.02168">
        <ele>2609</ele>
        <time>2021-07-23T10:56:34.285Z</time>
      </trkpt>
      <trkpt lat="45.42759" lon="7.02169">
        <ele>2609.4</ele>
        <time>2021-07-23T10:56:35.285Z</time>
      </trkpt>
      <trkpt lat="45.42756" lon="7.0217">
        <ele>2609.8</ele>
        <time>2021-07-23T10:56:36.285Z</time>
      </trkpt>
      <trkpt lat="45.42753" lon="7.02172">
        <ele>2610.4</ele>
        <time>2021-07-23T10:56:37.285Z</time>
      </trkpt>
      <trkpt lat="45.4275" lon="7.02173">
        <ele>2610.4</ele>
        <time>2021-07-23T10:56:38.285Z</time>
      </trkpt>
      <trkpt lat="45.42747" lon="7.02174">
        <ele>2610.4</ele>
        <time>2021-07-23T10:56:39.285Z</time>
      </trkpt>
      <trkpt lat="45.42744" lon="7.02176">
        <ele>2610.4</ele>
        <time>2021-07-23T10:56:40.285Z</time>
      </trkpt>
      <trkpt lat="45.42741" lon="7.02177">
        <ele>2610.4</ele>
        <time>2021-07-23T10:56:41.285Z</time>
      </trkpt>
      <trkpt lat="45.42738" lon="7.02178">
        <ele>2610.4</ele>
        <time>2021-07-23T10:56:42.285Z</time>
      </trkpt>
      <trkpt lat="45.42736" lon="7.0218">
        <ele>2610.4</ele>
        <time>2021-07-23T10:56:43.285Z</time>
      </trkpt>
      <trkpt lat="45.42733" lon="7.02181">
        <ele>2610.4</ele>
        <time>2021-07-23T10:56:44.285Z</time>
      </trkpt>
      <trkpt lat="45.4273" lon="7.02182">
        <ele>2610.4</ele>
        <time>2021-07-23T10:56:45.285Z</time>
      </trkpt>
      <trkpt lat="45.42727" lon="7.02183">
        <ele>2610.4</ele>
        <time>2021-07-23T10:56:46.285Z</time>
      </trkpt>
      <trkpt lat="45.42724" lon="7.02185">
        <ele>2610.8</ele>
        <time>2021-07-23T10:56:47.285Z</time>
      </trkpt>
      <trkpt lat="45.42721" lon="7.02186">
        <ele>2611.2</ele>
        <time>2021-07-23T10:56:48.285Z</time>
      </trkpt>
      <trkpt lat="45.42718" lon="7.02188">
        <ele>2611.6</ele>
        <time>2021-07-23T10:56:49.285Z</time>
      </trkpt>
      <trkpt lat="45.42716" lon="7.02189">
        <ele>2612</ele>
        <time>2021-07-23T10:56:50.285Z</time>
      </trkpt>
      <trkpt lat="45.42713" lon="7.0219">
        <ele>2612.4</ele>
        <time>2021-07-23T10:56:51.285Z</time>
      </trkpt>
      <trkpt lat="45.4271" lon="7.02191">
        <ele>2612.4</ele>
        <time>2021-07-23T10:56:52.285Z</time>
      </trkpt>
      <trkpt lat="45.42707" lon="7.02192">
        <ele>2612.4</ele>
        <time>2021-07-23T10:56:53.285Z</time>
      </trkpt>
      <trkpt lat="45.42705" lon="7.02193">
        <ele>2612.4</ele>
        <time>2021-07-23T10:56:54.285Z</time>
      </trkpt>
      <trkpt lat="45.42702" lon="7.02194">
        <ele>2612.4</ele>
        <time>2021-07-23T10:56:55.285Z</time>
      </trkpt>
      <trkpt lat="45.427" lon="7.02195">
        <ele>2612.8</ele>
        <time>2021-07-23T10:56:56.285Z</time>
      </trkpt>
      <trkpt lat="45.42697" lon="7.02196">
        <ele>2613.2</ele>
        <time>2021-07-23T10:56:57.285Z</time>
      </trkpt>
      <trkpt lat="45.42695" lon="7.02198">
        <ele>2613.6</ele>
        <time>2021-07-23T10:56:58.285Z</time>
      </trkpt>
      <trkpt lat="45.42692" lon="7.02198">
        <ele>2614</ele>
        <time>2021-07-23T10:56:59.285Z</time>
      </trkpt>
      <trkpt lat="45.4269" lon="7.02199">
        <ele>2614.6</ele>
        <time>2021-07-23T10:57:00.285Z</time>
      </trkpt>
      <trkpt lat="45.42687" lon="7.022">
        <ele>2614.6</ele>
        <time>2021-07-23T10:57:01.285Z</time>
      </trkpt>
      <trkpt lat="45.42685" lon="7.02202">
        <ele>2614.6</ele>
        <time>2021-07-23T10:57:02.285Z</time>
      </trkpt>
      <trkpt lat="45.42682" lon="7.02203">
        <ele>2614.6</ele>
        <time>2021-07-23T10:57:03.285Z</time>
      </trkpt>
      <trkpt lat="45.4268" lon="7.02205">
        <ele>2614.6</ele>
        <time>2021-07-23T10:57:04.285Z</time>
      </trkpt>
      <trkpt lat="45.42677" lon="7.02205">
        <ele>2614.6</ele>
        <time>2021-07-23T10:57:05.285Z</time>
      </trkpt>
      <trkpt lat="45.42675" lon="7.02207">
        <ele>2614.6</ele>
        <time>2021-07-23T10:57:06.285Z</time>
      </trkpt>
      <trkpt lat="45.42672" lon="7.02208">
        <ele>2614.6</ele>
        <time>2021-07-23T10:57:07.285Z</time>
      </trkpt>
      <trkpt lat="45.4267" lon="7.0221">
        <ele>2615</ele>
        <time>2021-07-23T10:57:08.285Z</time>
      </trkpt>
      <trkpt lat="45.42667" lon="7.02212">
        <ele>2615.4</ele>
        <time>2021-07-23T10:57:09.285Z</time>
      </trkpt>
      <trkpt lat="45.42665" lon="7.02214">
        <ele>2615.8</ele>
        <time>2021-07-23T10:57:10.285Z</time>
      </trkpt>
      <trkpt lat="45.42663" lon="7.02215">
        <ele>2616.2</ele>
        <time>2021-07-23T10:57:11.285Z</time>
      </trkpt>
      <trkpt lat="45.42661" lon="7.02217">
        <ele>2616.6</ele>
        <time>2021-07-23T10:57:12.285Z</time>
      </trkpt>
      <trkpt lat="45.42658" lon="7.02219">
        <ele>2616.6</ele>
        <time>2021-07-23T10:57:13.285Z</time>
      </trkpt>
      <trkpt lat="45.42656" lon="7.02221">
        <ele>2616.6</ele>
        <time>2021-07-23T10:57:14.285Z</time>
      </trkpt>
      <trkpt lat="45.42654" lon="7.02223">
        <ele>2616.6</ele>
        <time>2021-07-23T10:57:15.285Z</time>
      </trkpt>
      <trkpt lat="45.42652" lon="7.02225">
        <ele>2616.6</ele>
        <time>2021-07-23T10:57:16.285Z</time>
      </trkpt>
      <trkpt lat="45.4265" lon="7.02227">
        <ele>2616.6</ele>
        <time>2021-07-23T10:57:17.285Z</time>
      </trkpt>
      <trkpt lat="45.42647" lon="7.0223">
        <ele>2616.6</ele>
        <time>2021-07-23T10:57:18.285Z</time>
      </trkpt>
      <trkpt lat="45.42645" lon="7.02232">
        <ele>2617.6</ele>
        <time>2021-07-23T10:57:19.285Z</time>
      </trkpt>
      <trkpt lat="45.42643" lon="7.02234">
        <ele>2618</ele>
        <time>2021-07-23T10:57:20.285Z</time>
      </trkpt>
      <trkpt lat="45.42641" lon="7.02235">
        <ele>2618.4</ele>
        <time>2021-07-23T10:57:21.285Z</time>
      </trkpt>
      <trkpt lat="45.42639" lon="7.02237">
        <ele>2618.8</ele>
        <time>2021-07-23T10:57:22.285Z</time>
      </trkpt>
      <trkpt lat="45.42637" lon="7.02239">
        <ele>2618.8</ele>
        <time>2021-07-23T10:57:23.285Z</time>
      </trkpt>
      <trkpt lat="45.42635" lon="7.02241">
        <ele>2618.8</ele>
        <time>2021-07-23T10:57:24.285Z</time>
      </trkpt>
      <trkpt lat="45.42632" lon="7.02243">
        <ele>2618.8</ele>
        <time>2021-07-23T10:57:25.285Z</time>
      </trkpt>
      <trkpt lat="45.4263" lon="7.02245">
        <ele>2618.8</ele>
        <time>2021-07-23T10:57:26.285Z</time>
      </trkpt>
      <trkpt lat="45.42628" lon="7.02247">
        <ele>2619.4</ele>
        <time>2021-07-23T10:57:27.285Z</time>
      </trkpt>
      <trkpt lat="45.42626" lon="7.02248">
        <ele>2619.8</ele>
        <time>2021-07-23T10:57:28.285Z</time>
      </trkpt>
      <trkpt lat="45.42624" lon="7.0225">
        <ele>2620.2</ele>
        <time>2021-07-23T10:57:29.285Z</time>
      </trkpt>
      <trkpt lat="45.42621" lon="7.02251">
        <ele>2620.6</ele>
        <time>2021-07-23T10:57:30.285Z</time>
      </trkpt>
      <trkpt lat="45.42619" lon="7.02253">
        <ele>2621</ele>
        <time>2021-07-23T10:57:31.285Z</time>
      </trkpt>
      <trkpt lat="45.42617" lon="7.02255">
        <ele>2621</ele>
        <time>2021-07-23T10:57:32.285Z</time>
      </trkpt>
      <trkpt lat="45.42615" lon="7.02256">
        <ele>2621</ele>
        <time>2021-07-23T10:57:33.285Z</time>
      </trkpt>
      <trkpt lat="45.42613" lon="7.02258">
        <ele>2621</ele>
        <time>2021-07-23T10:57:34.285Z</time>
      </trkpt>
      <trkpt lat="45.4261" lon="7.0226">
        <ele>2621</ele>
        <time>2021-07-23T10:57:35.285Z</time>
      </trkpt>
      <trkpt lat="45.42608" lon="7.02261">
        <ele>2621.4</ele>
        <time>2021-07-23T10:57:36.285Z</time>
      </trkpt>
      <trkpt lat="45.42605" lon="7.02262">
        <ele>2621.8</ele>
        <time>2021-07-23T10:57:37.285Z</time>
      </trkpt>
      <trkpt lat="45.42603" lon="7.02262">
        <ele>2622.2</ele>
        <time>2021-07-23T10:57:38.285Z</time>
      </trkpt>
      <trkpt lat="45.42601" lon="7.02263">
        <ele>2622.6</ele>
        <time>2021-07-23T10:57:39.285Z</time>
      </trkpt>
      <trkpt lat="45.42598" lon="7.02264">
        <ele>2623.2</ele>
        <time>2021-07-23T10:57:40.285Z</time>
      </trkpt>
      <trkpt lat="45.42596" lon="7.02264">
        <ele>2623.2</ele>
        <time>2021-07-23T10:57:41.285Z</time>
      </trkpt>
      <trkpt lat="45.42593" lon="7.02265">
        <ele>2623.2</ele>
        <time>2021-07-23T10:57:42.285Z</time>
      </trkpt>
      <trkpt lat="45.42591" lon="7.02266">
        <ele>2623.2</ele>
        <time>2021-07-23T10:57:43.285Z</time>
      </trkpt>
      <trkpt lat="45.42588" lon="7.02266">
        <ele>2623.2</ele>
        <time>2021-07-23T10:57:44.285Z</time>
      </trkpt>
      <trkpt lat="45.42586" lon="7.02265">
        <ele>2623.6</ele>
        <time>2021-07-23T10:57:45.285Z</time>
      </trkpt>
      <trkpt lat="45.42584" lon="7.02266">
        <ele>2624</ele>
        <time>2021-07-23T10:57:46.285Z</time>
      </trkpt>
      <trkpt lat="45.42581" lon="7.02266">
        <ele>2624.4</ele>
        <time>2021-07-23T10:57:47.285Z</time>
      </trkpt>
      <trkpt lat="45.42579" lon="7.02266">
        <ele>2624.8</ele>
        <time>2021-07-23T10:57:48.285Z</time>
      </trkpt>
      <trkpt lat="45.42576" lon="7.02266">
        <ele>2625.2</ele>
        <time>2021-07-23T10:57:49.285Z</time>
      </trkpt>
      <trkpt lat="45.42574" lon="7.02266">
        <ele>2625.2</ele>
        <time>2021-07-23T10:57:50.285Z</time>
      </trkpt>
      <trkpt lat="45.42571" lon="7.02266">
        <ele>2625.2</ele>
        <time>2021-07-23T10:57:51.285Z</time>
      </trkpt>
      <trkpt lat="45.42569" lon="7.02265">
        <ele>2625.2</ele>
        <time>2021-07-23T10:57:52.285Z</time>
      </trkpt>
      <trkpt lat="45.42566" lon="7.02264">
        <ele>2625.2</ele>
        <time>2021-07-23T10:57:53.285Z</time>
      </trkpt>
      <trkpt lat="45.42564" lon="7.02264">
        <ele>2625.2</ele>
        <time>2021-07-23T10:57:54.285Z</time>
      </trkpt>
      <trkpt lat="45.42562" lon="7.02264">
        <ele>2625.2</ele>
        <time>2021-07-23T10:57:55.285Z</time>
      </trkpt>
      <trkpt lat="45.42559" lon="7.02264">
        <ele>2625.6</ele>
        <time>2021-07-23T10:57:56.285Z</time>
      </trkpt>
      <trkpt lat="45.42557" lon="7.02263">
        <ele>2626</ele>
        <time>2021-07-23T10:57:57.285Z</time>
      </trkpt>
      <trkpt lat="45.42554" lon="7.02262">
        <ele>2626.4</ele>
        <time>2021-07-23T10:57:58.285Z</time>
      </trkpt>
      <trkpt lat="45.42552" lon="7.02263">
        <ele>2626.8</ele>
        <time>2021-07-23T10:57:59.285Z</time>
      </trkpt>
      <trkpt lat="45.42549" lon="7.02263">
        <ele>2627.2</ele>
        <time>2021-07-23T10:58:00.285Z</time>
      </trkpt>
      <trkpt lat="45.42547" lon="7.02263">
        <ele>2627.2</ele>
        <time>2021-07-23T10:58:01.285Z</time>
      </trkpt>
      <trkpt lat="45.42544" lon="7.02262">
        <ele>2627.2</ele>
        <time>2021-07-23T10:58:02.285Z</time>
      </trkpt>
      <trkpt lat="45.42542" lon="7.02262">
        <ele>2627.2</ele>
        <time>2021-07-23T10:58:03.285Z</time>
      </trkpt>
      <trkpt lat="45.42539" lon="7.02261">
        <ele>2627.2</ele>
        <time>2021-07-23T10:58:04.285Z</time>
      </trkpt>
      <trkpt lat="45.42537" lon="7.02262">
        <ele>2627.2</ele>
        <time>2021-07-23T10:58:05.285Z</time>
      </trkpt>
      <trkpt lat="45.42534" lon="7.02261">
        <ele>2627.2</ele>
        <time>2021-07-23T10:58:06.285Z</time>
      </trkpt>
      <trkpt lat="45.42532" lon="7.02261">
        <ele>2627.2</ele>
        <time>2021-07-23T10:58:07.285Z</time>
      </trkpt>
      <trkpt lat="45.4253" lon="7.0226">
        <ele>2628.2</ele>
        <time>2021-07-23T10:58:08.285Z</time>
      </trkpt>
      <trkpt lat="45.42527" lon="7.0226">
        <ele>2628.6</ele>
        <time>2021-07-23T10:58:09.285Z</time>
      </trkpt>
      <trkpt lat="45.42525" lon="7.0226">
        <ele>2629</ele>
        <time>2021-07-23T10:58:10.285Z</time>
      </trkpt>
      <trkpt lat="45.42522" lon="7.0226">
        <ele>2629.4</ele>
        <time>2021-07-23T10:58:11.285Z</time>
      </trkpt>
      <trkpt lat="45.42519" lon="7.0226">
        <ele>2629.4</ele>
        <time>2021-07-23T10:58:12.285Z</time>
      </trkpt>
      <trkpt lat="45.42517" lon="7.0226">
        <ele>2629.4</ele>
        <time>2021-07-23T10:58:13.285Z</time>
      </trkpt>
      <trkpt lat="45.42514" lon="7.0226">
        <ele>2629.4</ele>
        <time>2021-07-23T10:58:14.285Z</time>
      </trkpt>
      <trkpt lat="45.42511" lon="7.0226">
        <ele>2629.4</ele>
        <time>2021-07-23T10:58:15.285Z</time>
      </trkpt>
      <trkpt lat="45.42509" lon="7.02261">
        <ele>2629.4</ele>
        <time>2021-07-23T10:58:16.285Z</time>
      </trkpt>
      <trkpt lat="45.42506" lon="7.02261">
        <ele>2629.4</ele>
        <time>2021-07-23T10:58:17.285Z</time>
      </trkpt>
      <trkpt lat="45.42503" lon="7.0226">
        <ele>2629.8</ele>
        <time>2021-07-23T10:58:18.285Z</time>
      </trkpt>
      <trkpt lat="45.42501" lon="7.0226">
        <ele>2630.2</ele>
        <time>2021-07-23T10:58:19.285Z</time>
      </trkpt>
      <trkpt lat="45.42498" lon="7.02261">
        <ele>2630.6</ele>
        <time>2021-07-23T10:58:20.285Z</time>
      </trkpt>
      <trkpt lat="45.42496" lon="7.02262">
        <ele>2631</ele>
        <time>2021-07-23T10:58:21.285Z</time>
      </trkpt>
      <trkpt lat="45.42493" lon="7.02262">
        <ele>2631.4</ele>
        <time>2021-07-23T10:58:22.285Z</time>
      </trkpt>
      <trkpt lat="45.42491" lon="7.02263">
        <ele>2631.4</ele>
        <time>2021-07-23T10:58:23.285Z</time>
      </trkpt>
      <trkpt lat="45.42489" lon="7.02263">
        <ele>2631.4</ele>
        <time>2021-07-23T10:58:24.285Z</time>
      </trkpt>
      <trkpt lat="45.42487" lon="7.02263">
        <ele>2631.4</ele>
        <time>2021-07-23T10:58:25.285Z</time>
      </trkpt>
      <trkpt lat="45.42485" lon="7.02264">
        <ele>2631.4</ele>
        <time>2021-07-23T10:58:26.285Z</time>
      </trkpt>
      <trkpt lat="45.42482" lon="7.02265">
        <ele>2631.4</ele>
        <time>2021-07-23T10:58:27.285Z</time>
      </trkpt>
      <trkpt lat="45.4248" lon="7.02265">
        <ele>2631.4</ele>
        <time>2021-07-23T10:58:28.285Z</time>
      </trkpt>
      <trkpt lat="45.42477" lon="7.02266">
        <ele>2631.4</ele>
        <time>2021-07-23T10:58:29.285Z</time>
      </trkpt>
      <trkpt lat="45.42475" lon="7.02266">
        <ele>2631.4</ele>
        <time>2021-07-23T10:58:30.285Z</time>
      </trkpt>
      <trkpt lat="45.42472" lon="7.02267">
        <ele>2631.4</ele>
        <time>2021-07-23T10:58:31.285Z</time>
      </trkpt>
      <trkpt lat="45.4247" lon="7.02268">
        <ele>2631.8</ele>
        <time>2021-07-23T10:58:32.285Z</time>
      </trkpt>
      <trkpt lat="45.42468" lon="7.02268">
        <ele>2632.6</ele>
        <time>2021-07-23T10:58:33.285Z</time>
      </trkpt>
      <trkpt lat="45.42465" lon="7.02268">
        <ele>2633</ele>
        <time>2021-07-23T10:58:34.285Z</time>
      </trkpt>
      <trkpt lat="45.42462" lon="7.02268">
        <ele>2633.6</ele>
        <time>2021-07-23T10:58:35.285Z</time>
      </trkpt>
      <trkpt lat="45.4246" lon="7.02269">
        <ele>2633.6</ele>
        <time>2021-07-23T10:58:36.285Z</time>
      </trkpt>
      <trkpt lat="45.42458" lon="7.02269">
        <ele>2633.6</ele>
        <time>2021-07-23T10:58:37.285Z</time>
      </trkpt>
      <trkpt lat="45.42455" lon="7.02269">
        <ele>2633.6</ele>
        <time>2021-07-23T10:58:38.285Z</time>
      </trkpt>
      <trkpt lat="45.42453" lon="7.0227">
        <ele>2633.6</ele>
        <time>2021-07-23T10:58:39.285Z</time>
      </trkpt>
      <trkpt lat="45.4245" lon="7.0227">
        <ele>2633.6</ele>
        <time>2021-07-23T10:58:40.285Z</time>
      </trkpt>
      <trkpt lat="45.42448" lon="7.02271">
        <ele>2633.6</ele>
        <time>2021-07-23T10:58:41.285Z</time>
      </trkpt>
      <trkpt lat="45.42445" lon="7.02271">
        <ele>2633.6</ele>
        <time>2021-07-23T10:58:42.285Z</time>
      </trkpt>
      <trkpt lat="45.42442" lon="7.02272">
        <ele>2634</ele>
        <time>2021-07-23T10:58:43.285Z</time>
      </trkpt>
      <trkpt lat="45.4244" lon="7.02271">
        <ele>2634.4</ele>
        <time>2021-07-23T10:58:44.285Z</time>
      </trkpt>
      <trkpt lat="45.42437" lon="7.02272">
        <ele>2634.8</ele>
        <time>2021-07-23T10:58:45.285Z</time>
      </trkpt>
      <trkpt lat="45.42435" lon="7.02272">
        <ele>2635.2</ele>
        <time>2021-07-23T10:58:46.285Z</time>
      </trkpt>
      <trkpt lat="45.42433" lon="7.02272">
        <ele>2635.8</ele>
        <time>2021-07-23T10:58:47.285Z</time>
      </trkpt>
      <trkpt lat="45.4243" lon="7.02273">
        <ele>2635.8</ele>
        <time>2021-07-23T10:58:48.285Z</time>
      </trkpt>
      <trkpt lat="45.42427" lon="7.02274">
        <ele>2635.8</ele>
        <time>2021-07-23T10:58:49.285Z</time>
      </trkpt>
      <trkpt lat="45.42424" lon="7.02275">
        <ele>2635.8</ele>
        <time>2021-07-23T10:58:50.285Z</time>
      </trkpt>
      <trkpt lat="45.42422" lon="7.02276">
        <ele>2635.8</ele>
        <time>2021-07-23T10:58:51.285Z</time>
      </trkpt>
      <trkpt lat="45.4242" lon="7.02277">
        <ele>2635.8</ele>
        <time>2021-07-23T10:58:52.285Z</time>
      </trkpt>
      <trkpt lat="45.42417" lon="7.02278">
        <ele>2636.2</ele>
        <time>2021-07-23T10:58:53.285Z</time>
      </trkpt>
      <trkpt lat="45.42415" lon="7.02278">
        <ele>2636.6</ele>
        <time>2021-07-23T10:58:54.285Z</time>
      </trkpt>
      <trkpt lat="45.42413" lon="7.02279">
        <ele>2637</ele>
        <time>2021-07-23T10:58:55.285Z</time>
      </trkpt>
      <trkpt lat="45.4241" lon="7.0228">
        <ele>2637.4</ele>
        <time>2021-07-23T10:58:56.285Z</time>
      </trkpt>
      <trkpt lat="45.42408" lon="7.02281">
        <ele>2637.8</ele>
        <time>2021-07-23T10:58:57.285Z</time>
      </trkpt>
      <trkpt lat="45.42405" lon="7.02282">
        <ele>2637.8</ele>
        <time>2021-07-23T10:58:58.285Z</time>
      </trkpt>
      <trkpt lat="45.42403" lon="7.02284">
        <ele>2637.8</ele>
        <time>2021-07-23T10:58:59.285Z</time>
      </trkpt>
      <trkpt lat="45.424" lon="7.02285">
        <ele>2637.8</ele>
        <time>2021-07-23T10:59:00.285Z</time>
      </trkpt>
      <trkpt lat="45.42398" lon="7.02286">
        <ele>2637.8</ele>
        <time>2021-07-23T10:59:01.285Z</time>
      </trkpt>
      <trkpt lat="45.42396" lon="7.02288">
        <ele>2638.2</ele>
        <time>2021-07-23T10:59:02.285Z</time>
      </trkpt>
      <trkpt lat="45.42394" lon="7.0229">
        <ele>2638.8</ele>
        <time>2021-07-23T10:59:03.285Z</time>
      </trkpt>
      <trkpt lat="45.42392" lon="7.02292">
        <ele>2639.2</ele>
        <time>2021-07-23T10:59:04.285Z</time>
      </trkpt>
      <trkpt lat="45.4239" lon="7.02294">
        <ele>2639.6</ele>
        <time>2021-07-23T10:59:05.285Z</time>
      </trkpt>
      <trkpt lat="45.42388" lon="7.02297">
        <ele>2640</ele>
        <time>2021-07-23T10:59:06.285Z</time>
      </trkpt>
      <trkpt lat="45.42386" lon="7.02298">
        <ele>2640</ele>
        <time>2021-07-23T10:59:07.285Z</time>
      </trkpt>
      <trkpt lat="45.42384" lon="7.02301">
        <ele>2640</ele>
        <time>2021-07-23T10:59:08.285Z</time>
      </trkpt>
      <trkpt lat="45.42382" lon="7.02303">
        <ele>2640</ele>
        <time>2021-07-23T10:59:09.285Z</time>
      </trkpt>
      <trkpt lat="45.4238" lon="7.02306">
        <ele>2640</ele>
        <time>2021-07-23T10:59:10.285Z</time>
      </trkpt>
      <trkpt lat="45.42377" lon="7.02308">
        <ele>2640</ele>
        <time>2021-07-23T10:59:11.285Z</time>
      </trkpt>
      <trkpt lat="45.42375" lon="7.02311">
        <ele>2640</ele>
        <time>2021-07-23T10:59:12.285Z</time>
      </trkpt>
      <trkpt lat="45.42374" lon="7.02314">
        <ele>2640</ele>
        <time>2021-07-23T10:59:13.285Z</time>
      </trkpt>
      <trkpt lat="45.42372" lon="7.02317">
        <ele>2640.4</ele>
        <time>2021-07-23T10:59:14.285Z</time>
      </trkpt>
      <trkpt lat="45.42371" lon="7.02319">
        <ele>2640.8</ele>
        <time>2021-07-23T10:59:15.285Z</time>
      </trkpt>
      <trkpt lat="45.42369" lon="7.02322">
        <ele>2641.2</ele>
        <time>2021-07-23T10:59:16.285Z</time>
      </trkpt>
      <trkpt lat="45.42368" lon="7.02324">
        <ele>2641.6</ele>
        <time>2021-07-23T10:59:17.285Z</time>
      </trkpt>
      <trkpt lat="45.42367" lon="7.02327">
        <ele>2642</ele>
        <time>2021-07-23T10:59:18.285Z</time>
      </trkpt>
      <trkpt lat="45.42365" lon="7.0233">
        <ele>2642</ele>
        <time>2021-07-23T10:59:19.285Z</time>
      </trkpt>
      <trkpt lat="45.42364" lon="7.02333">
        <ele>2642</ele>
        <time>2021-07-23T10:59:20.285Z</time>
      </trkpt>
      <trkpt lat="45.42363" lon="7.02336">
        <ele>2642</ele>
        <time>2021-07-23T10:59:21.285Z</time>
      </trkpt>
      <trkpt lat="45.42363" lon="7.02339">
        <ele>2642</ele>
        <time>2021-07-23T10:59:22.285Z</time>
      </trkpt>
      <trkpt lat="45.42362" lon="7.02343">
        <ele>2642</ele>
        <time>2021-07-23T10:59:23.285Z</time>
      </trkpt>
      <trkpt lat="45.42361" lon="7.02346">
        <ele>2642.4</ele>
        <time>2021-07-23T10:59:24.285Z</time>
      </trkpt>
      <trkpt lat="45.4236" lon="7.0235">
        <ele>2642.8</ele>
        <time>2021-07-23T10:59:25.285Z</time>
      </trkpt>
      <trkpt lat="45.42358" lon="7.02353">
        <ele>2643.2</ele>
        <time>2021-07-23T10:59:26.285Z</time>
      </trkpt>
      <trkpt lat="45.42358" lon="7.02357">
        <ele>2643.6</ele>
        <time>2021-07-23T10:59:27.285Z</time>
      </trkpt>
      <trkpt lat="45.42358" lon="7.0236">
        <ele>2644.2</ele>
        <time>2021-07-23T10:59:28.285Z</time>
      </trkpt>
      <trkpt lat="45.42357" lon="7.02364">
        <ele>2644.2</ele>
        <time>2021-07-23T10:59:29.285Z</time>
      </trkpt>
      <trkpt lat="45.42357" lon="7.02368">
        <ele>2644.2</ele>
        <time>2021-07-23T10:59:30.285Z</time>
      </trkpt>
      <trkpt lat="45.42357" lon="7.02372">
        <ele>2644.2</ele>
        <time>2021-07-23T10:59:31.285Z</time>
      </trkpt>
      <trkpt lat="45.42357" lon="7.02375">
        <ele>2644.2</ele>
        <time>2021-07-23T10:59:32.285Z</time>
      </trkpt>
      <trkpt lat="45.42358" lon="7.02378">
        <ele>2644.2</ele>
        <time>2021-07-23T10:59:33.285Z</time>
      </trkpt>
      <trkpt lat="45.42357" lon="7.02382">
        <ele>2644.2</ele>
        <time>2021-07-23T10:59:34.285Z</time>
      </trkpt>
      <trkpt lat="45.42358" lon="7.02386">
        <ele>2644.6</ele>
        <time>2021-07-23T10:59:35.285Z</time>
      </trkpt>
      <trkpt lat="45.42358" lon="7.02389">
        <ele>2645</ele>
        <time>2021-07-23T10:59:36.285Z</time>
      </trkpt>
      <trkpt lat="45.42359" lon="7.02393">
        <ele>2645.4</ele>
        <time>2021-07-23T10:59:37.285Z</time>
      </trkpt>
      <trkpt lat="45.4236" lon="7.02396">
        <ele>2645.8</ele>
        <time>2021-07-23T10:59:38.285Z</time>
      </trkpt>
      <trkpt lat="45.42361" lon="7.02399">
        <ele>2646.2</ele>
        <time>2021-07-23T10:59:39.285Z</time>
      </trkpt>
      <trkpt lat="45.42361" lon="7.02402">
        <ele>2646.2</ele>
        <time>2021-07-23T10:59:40.285Z</time>
      </trkpt>
      <trkpt lat="45.42362" lon="7.02406">
        <ele>2646.2</ele>
        <time>2021-07-23T10:59:41.285Z</time>
      </trkpt>
      <trkpt lat="45.42362" lon="7.02409">
        <ele>2646.2</ele>
        <time>2021-07-23T10:59:42.285Z</time>
      </trkpt>
      <trkpt lat="45.42362" lon="7.02412">
        <ele>2646.2</ele>
        <time>2021-07-23T10:59:43.285Z</time>
      </trkpt>
      <trkpt lat="45.42362" lon="7.02416">
        <ele>2646.2</ele>
        <time>2021-07-23T10:59:44.285Z</time>
      </trkpt>
      <trkpt lat="45.42363" lon="7.0242">
        <ele>2646.2</ele>
        <time>2021-07-23T10:59:45.285Z</time>
      </trkpt>
      <trkpt lat="45.42364" lon="7.02423">
        <ele>2646.2</ele>
        <time>2021-07-23T10:59:46.285Z</time>
      </trkpt>
      <trkpt lat="45.42365" lon="7.02427">
        <ele>2647</ele>
        <time>2021-07-23T10:59:47.285Z</time>
      </trkpt>
      <trkpt lat="45.42365" lon="7.02431">
        <ele>2647.4</ele>
        <time>2021-07-23T10:59:48.285Z</time>
      </trkpt>
      <trkpt lat="45.42365" lon="7.02435">
        <ele>2647.8</ele>
        <time>2021-07-23T10:59:49.285Z</time>
      </trkpt>
      <trkpt lat="45.42366" lon="7.02438">
        <ele>2648.2</ele>
        <time>2021-07-23T10:59:50.285Z</time>
      </trkpt>
      <trkpt lat="45.42366" lon="7.02441">
        <ele>2648.2</ele>
        <time>2021-07-23T10:59:51.285Z</time>
      </trkpt>
      <trkpt lat="45.42367" lon="7.02445">
        <ele>2648.2</ele>
        <time>2021-07-23T10:59:52.285Z</time>
      </trkpt>
      <trkpt lat="45.42367" lon="7.02448">
        <ele>2648.2</ele>
        <time>2021-07-23T10:59:53.285Z</time>
      </trkpt>
      <trkpt lat="45.42368" lon="7.02451">
        <ele>2648.2</ele>
        <time>2021-07-23T10:59:54.285Z</time>
      </trkpt>
      <trkpt lat="45.42369" lon="7.02455">
        <ele>2648.2</ele>
        <time>2021-07-23T10:59:55.285Z</time>
      </trkpt>
      <trkpt lat="45.42369" lon="7.02458">
        <ele>2648.2</ele>
        <time>2021-07-23T10:59:56.285Z</time>
      </trkpt>
      <trkpt lat="45.42369" lon="7.02462">
        <ele>2648.2</ele>
        <time>2021-07-23T10:59:57.285Z</time>
      </trkpt>
      <trkpt lat="45.4237" lon="7.02466">
        <ele>2648.6</ele>
        <time>2021-07-23T10:59:58.285Z</time>
      </trkpt>
      <trkpt lat="45.4237" lon="7.02469">
        <ele>2649</ele>
        <time>2021-07-23T10:59:59.285Z</time>
      </trkpt>
      <trkpt lat="45.42371" lon="7.02474">
        <ele>2649.4</ele>
        <time>2021-07-23T11:00:00.285Z</time>
      </trkpt>
      <trkpt lat="45.42371" lon="7.02477">
        <ele>2649.8</ele>
        <time>2021-07-23T11:00:01.285Z</time>
      </trkpt>
      <trkpt lat="45.42371" lon="7.02481">
        <ele>2650.2</ele>
        <time>2021-07-23T11:00:02.285Z</time>
      </trkpt>
      <trkpt lat="45.42371" lon="7.02484">
        <ele>2650.2</ele>
        <time>2021-07-23T11:00:03.285Z</time>
      </trkpt>
      <trkpt lat="45.42371" lon="7.02488">
        <ele>2650.2</ele>
        <time>2021-07-23T11:00:04.285Z</time>
      </trkpt>
      <trkpt lat="45.4237" lon="7.02491">
        <ele>2650.2</ele>
        <time>2021-07-23T11:00:05.285Z</time>
      </trkpt>
      <trkpt lat="45.4237" lon="7.02495">
        <ele>2650.2</ele>
        <time>2021-07-23T11:00:06.285Z</time>
      </trkpt>
      <trkpt lat="45.42369" lon="7.02498">
        <ele>2650.2</ele>
        <time>2021-07-23T11:00:07.285Z</time>
      </trkpt>
      <trkpt lat="45.42368" lon="7.02502">
        <ele>2650.8</ele>
        <time>2021-07-23T11:00:08.285Z</time>
      </trkpt>
      <trkpt lat="45.42368" lon="7.02505">
        <ele>2651.2</ele>
        <time>2021-07-23T11:00:09.285Z</time>
      </trkpt>
      <trkpt lat="45.42367" lon="7.02508">
        <ele>2651.6</ele>
        <time>2021-07-23T11:00:10.285Z</time>
      </trkpt>
      <trkpt lat="45.42366" lon="7.02511">
        <ele>2652</ele>
        <time>2021-07-23T11:00:11.285Z</time>
      </trkpt>
      <trkpt lat="45.42366" lon="7.02514">
        <ele>2652.4</ele>
        <time>2021-07-23T11:00:12.285Z</time>
      </trkpt>
      <trkpt lat="45.42365" lon="7.02517">
        <ele>2652.4</ele>
        <time>2021-07-23T11:00:13.285Z</time>
      </trkpt>
      <trkpt lat="45.42364" lon="7.0252">
        <ele>2652.4</ele>
        <time>2021-07-23T11:00:14.285Z</time>
      </trkpt>
      <trkpt lat="45.42363" lon="7.02523">
        <ele>2652.4</ele>
        <time>2021-07-23T11:00:15.285Z</time>
      </trkpt>
      <trkpt lat="45.42362" lon="7.02526">
        <ele>2652.4</ele>
        <time>2021-07-23T11:00:16.285Z</time>
      </trkpt>
      <trkpt lat="45.4236" lon="7.0253">
        <ele>2652.8</ele>
        <time>2021-07-23T11:00:17.285Z</time>
      </trkpt>
      <trkpt lat="45.42359" lon="7.02533">
        <ele>2653.2</ele>
        <time>2021-07-23T11:00:18.285Z</time>
      </trkpt>
      <trkpt lat="45.42358" lon="7.02536">
        <ele>2653.6</ele>
        <time>2021-07-23T11:00:19.285Z</time>
      </trkpt>
      <trkpt lat="45.42357" lon="7.02539">
        <ele>2654</ele>
        <time>2021-07-23T11:00:20.285Z</time>
      </trkpt>
      <trkpt lat="45.42356" lon="7.02543">
        <ele>2654.4</ele>
        <time>2021-07-23T11:00:21.285Z</time>
      </trkpt>
      <trkpt lat="45.42355" lon="7.02546">
        <ele>2654.4</ele>
        <time>2021-07-23T11:00:22.285Z</time>
      </trkpt>
      <trkpt lat="45.42354" lon="7.02549">
        <ele>2654.4</ele>
        <time>2021-07-23T11:00:23.285Z</time>
      </trkpt>
      <trkpt lat="45.42353" lon="7.02553">
        <ele>2654.4</ele>
        <time>2021-07-23T11:00:24.285Z</time>
      </trkpt>
      <trkpt lat="45.42352" lon="7.02556">
        <ele>2654.4</ele>
        <time>2021-07-23T11:00:25.285Z</time>
      </trkpt>
      <trkpt lat="45.42352" lon="7.02559">
        <ele>2654.4</ele>
        <time>2021-07-23T11:00:26.285Z</time>
      </trkpt>
      <trkpt lat="45.42351" lon="7.02562">
        <ele>2654.4</ele>
        <time>2021-07-23T11:00:27.285Z</time>
      </trkpt>
      <trkpt lat="45.4235" lon="7.02565">
        <ele>2654.8</ele>
        <time>2021-07-23T11:00:28.285Z</time>
      </trkpt>
      <trkpt lat="45.42349" lon="7.02568">
        <ele>2655.2</ele>
        <time>2021-07-23T11:00:29.285Z</time>
      </trkpt>
      <trkpt lat="45.42348" lon="7.0257">
        <ele>2655.8</ele>
        <time>2021-07-23T11:00:30.285Z</time>
      </trkpt>
      <trkpt lat="45.42347" lon="7.02574">
        <ele>2656.2</ele>
        <time>2021-07-23T11:00:31.285Z</time>
      </trkpt>
      <trkpt lat="45.42346" lon="7.02577">
        <ele>2656.6</ele>
        <time>2021-07-23T11:00:32.285Z</time>
      </trkpt>
      <trkpt lat="45.42344" lon="7.02579">
        <ele>2656.6</ele>
        <time>2021-07-23T11:00:33.285Z</time>
      </trkpt>
      <trkpt lat="45.42343" lon="7.02582">
        <ele>2656.6</ele>
        <time>2021-07-23T11:00:34.285Z</time>
      </trkpt>
      <trkpt lat="45.42343" lon="7.02586">
        <ele>2656.6</ele>
        <time>2021-07-23T11:00:35.285Z</time>
      </trkpt>
      <trkpt lat="45.42341" lon="7.02589">
        <ele>2656.6</ele>
        <time>2021-07-23T11:00:36.285Z</time>
      </trkpt>
      <trkpt lat="45.42341" lon="7.02593">
        <ele>2657</ele>
        <time>2021-07-23T11:00:37.285Z</time>
      </trkpt>
      <trkpt lat="45.4234" lon="7.02596">
        <ele>2657.4</ele>
        <time>2021-07-23T11:00:38.285Z</time>
      </trkpt>
      <trkpt lat="45.42338" lon="7.02599">
        <ele>2657.8</ele>
        <time>2021-07-23T11:00:39.285Z</time>
      </trkpt>
      <trkpt lat="45.42338" lon="7.02602">
        <ele>2658.4</ele>
        <time>2021-07-23T11:00:40.285Z</time>
      </trkpt>
      <trkpt lat="45.42337" lon="7.02605">
        <ele>2658.8</ele>
        <time>2021-07-23T11:00:41.285Z</time>
      </trkpt>
      <trkpt lat="45.42336" lon="7.02608">
        <ele>2658.8</ele>
        <time>2021-07-23T11:00:42.285Z</time>
      </trkpt>
      <trkpt lat="45.42336" lon="7.02611">
        <ele>2658.8</ele>
        <time>2021-07-23T11:00:43.285Z</time>
      </trkpt>
      <trkpt lat="45.42335" lon="7.02615">
        <ele>2658.8</ele>
        <time>2021-07-23T11:00:44.285Z</time>
      </trkpt>
      <trkpt lat="45.42335" lon="7.02618">
        <ele>2659.2</ele>
        <time>2021-07-23T11:00:45.285Z</time>
      </trkpt>
      <trkpt lat="45.42335" lon="7.02621">
        <ele>2659.6</ele>
        <time>2021-07-23T11:00:46.285Z</time>
      </trkpt>
      <trkpt lat="45.42335" lon="7.02625">
        <ele>2660</ele>
        <time>2021-07-23T11:00:47.285Z</time>
      </trkpt>
      <trkpt lat="45.42335" lon="7.02628">
        <ele>2660.4</ele>
        <time>2021-07-23T11:00:48.285Z</time>
      </trkpt>
      <trkpt lat="45.42335" lon="7.02631">
        <ele>2660.8</ele>
        <time>2021-07-23T11:00:49.285Z</time>
      </trkpt>
      <trkpt lat="45.42335" lon="7.02635">
        <ele>2660.8</ele>
        <time>2021-07-23T11:00:50.285Z</time>
      </trkpt>
      <trkpt lat="45.42336" lon="7.02638">
        <ele>2660.8</ele>
        <time>2021-07-23T11:00:51.285Z</time>
      </trkpt>
      <trkpt lat="45.42335" lon="7.02642">
        <ele>2660.8</ele>
        <time>2021-07-23T11:00:52.285Z</time>
      </trkpt>
      <trkpt lat="45.42337" lon="7.02645">
        <ele>2660.8</ele>
        <time>2021-07-23T11:00:53.285Z</time>
      </trkpt>
      <trkpt lat="45.42337" lon="7.02649">
        <ele>2661.2</ele>
        <time>2021-07-23T11:00:54.285Z</time>
      </trkpt>
      <trkpt lat="45.42338" lon="7.02652">
        <ele>2661.6</ele>
        <time>2021-07-23T11:00:55.285Z</time>
      </trkpt>
      <trkpt lat="45.42338" lon="7.02655">
        <ele>2662</ele>
        <time>2021-07-23T11:00:56.285Z</time>
      </trkpt>
      <trkpt lat="45.42339" lon="7.02658">
        <ele>2662.4</ele>
        <time>2021-07-23T11:00:57.285Z</time>
      </trkpt>
      <trkpt lat="45.4234" lon="7.02661">
        <ele>2662.8</ele>
        <time>2021-07-23T11:00:58.285Z</time>
      </trkpt>
      <trkpt lat="45.42341" lon="7.02663">
        <ele>2662.8</ele>
        <time>2021-07-23T11:00:59.285Z</time>
      </trkpt>
      <trkpt lat="45.42342" lon="7.02666">
        <ele>2662.8</ele>
        <time>2021-07-23T11:01:00.285Z</time>
      </trkpt>
      <trkpt lat="45.42342" lon="7.02669">
        <ele>2663.4</ele>
        <time>2021-07-23T11:01:01.285Z</time>
      </trkpt>
      <trkpt lat="45.42343" lon="7.02672">
        <ele>2664.6</ele>
        <time>2021-07-23T11:01:02.285Z</time>
      </trkpt>
      <trkpt lat="45.42343" lon="7.02676">
        <ele>2665.2</ele>
        <time>2021-07-23T11:01:03.285Z</time>
      </trkpt>
      <trkpt lat="45.42344" lon="7.02679">
        <ele>2665.6</ele>
        <time>2021-07-23T11:01:04.285Z</time>
      </trkpt>
      <trkpt lat="45.42344" lon="7.02682">
        <ele>2665.6</ele>
        <time>2021-07-23T11:01:05.285Z</time>
      </trkpt>
      <trkpt lat="45.42344" lon="7.02685">
        <ele>2665.6</ele>
        <time>2021-07-23T11:01:06.285Z</time>
      </trkpt>
      <trkpt lat="45.42343" lon="7.02688">
        <ele>2665.6</ele>
        <time>2021-07-23T11:01:07.285Z</time>
      </trkpt>
      <trkpt lat="45.42343" lon="7.02691">
        <ele>2665.6</ele>
        <time>2021-07-23T11:01:08.285Z</time>
      </trkpt>
      <trkpt lat="45.42342" lon="7.02694">
        <ele>2665.6</ele>
        <time>2021-07-23T11:01:09.285Z</time>
      </trkpt>
      <trkpt lat="45.42342" lon="7.02698">
        <ele>2665.6</ele>
        <time>2021-07-23T11:01:10.285Z</time>
      </trkpt>
      <trkpt lat="45.42341" lon="7.02701">
        <ele>2665.6</ele>
        <time>2021-07-23T11:01:11.285Z</time>
      </trkpt>
      <trkpt lat="45.42339" lon="7.02703">
        <ele>2665.6</ele>
        <time>2021-07-23T11:01:12.285Z</time>
      </trkpt>
      <trkpt lat="45.42338" lon="7.02707">
        <ele>2665.6</ele>
        <time>2021-07-23T11:01:13.285Z</time>
      </trkpt>
      <trkpt lat="45.42337" lon="7.0271">
        <ele>2665.6</ele>
        <time>2021-07-23T11:01:14.285Z</time>
      </trkpt>
      <trkpt lat="45.42335" lon="7.02712">
        <ele>2665.6</ele>
        <time>2021-07-23T11:01:15.285Z</time>
      </trkpt>
      <trkpt lat="45.42334" lon="7.02715">
        <ele>2665.6</ele>
        <time>2021-07-23T11:01:16.285Z</time>
      </trkpt>
      <trkpt lat="45.42334" lon="7.02718">
        <ele>2665.6</ele>
        <time>2021-07-23T11:01:17.285Z</time>
      </trkpt>
      <trkpt lat="45.42332" lon="7.0272">
        <ele>2665.6</ele>
        <time>2021-07-23T11:01:18.285Z</time>
      </trkpt>
      <trkpt lat="45.42331" lon="7.02724">
        <ele>2666.2</ele>
        <time>2021-07-23T11:01:19.285Z</time>
      </trkpt>
      <trkpt lat="45.4233" lon="7.02726">
        <ele>2666.6</ele>
        <time>2021-07-23T11:01:20.285Z</time>
      </trkpt>
      <trkpt lat="45.42329" lon="7.02729">
        <ele>2667</ele>
        <time>2021-07-23T11:01:21.285Z</time>
      </trkpt>
      <trkpt lat="45.42328" lon="7.02732">
        <ele>2667.4</ele>
        <time>2021-07-23T11:01:22.285Z</time>
      </trkpt>
      <trkpt lat="45.42327" lon="7.02735">
        <ele>2668</ele>
        <time>2021-07-23T11:01:23.285Z</time>
      </trkpt>
      <trkpt lat="45.42326" lon="7.02738">
        <ele>2668</ele>
        <time>2021-07-23T11:01:24.285Z</time>
      </trkpt>
      <trkpt lat="45.42324" lon="7.0274">
        <ele>2668</ele>
        <time>2021-07-23T11:01:25.285Z</time>
      </trkpt>
      <trkpt lat="45.42323" lon="7.02743">
        <ele>2668</ele>
        <time>2021-07-23T11:01:26.285Z</time>
      </trkpt>
      <trkpt lat="45.42323" lon="7.02746">
        <ele>2668</ele>
        <time>2021-07-23T11:01:27.285Z</time>
      </trkpt>
      <trkpt lat="45.42321" lon="7.02749">
        <ele>2668</ele>
        <time>2021-07-23T11:01:28.285Z</time>
      </trkpt>
      <trkpt lat="45.4232" lon="7.02752">
        <ele>2668.4</ele>
        <time>2021-07-23T11:01:29.285Z</time>
      </trkpt>
      <trkpt lat="45.42319" lon="7.02755">
        <ele>2668.8</ele>
        <time>2021-07-23T11:01:30.285Z</time>
      </trkpt>
      <trkpt lat="45.42317" lon="7.02757">
        <ele>2669.2</ele>
        <time>2021-07-23T11:01:31.285Z</time>
      </trkpt>
      <trkpt lat="45.42316" lon="7.0276">
        <ele>2669.6</ele>
        <time>2021-07-23T11:01:32.285Z</time>
      </trkpt>
      <trkpt lat="45.42314" lon="7.02764">
        <ele>2670</ele>
        <time>2021-07-23T11:01:33.285Z</time>
      </trkpt>
      <trkpt lat="45.42314" lon="7.02767">
        <ele>2670</ele>
        <time>2021-07-23T11:01:34.285Z</time>
      </trkpt>
      <trkpt lat="45.42312" lon="7.02769">
        <ele>2670</ele>
        <time>2021-07-23T11:01:35.285Z</time>
      </trkpt>
      <trkpt lat="45.42311" lon="7.02772">
        <ele>2670</ele>
        <time>2021-07-23T11:01:36.285Z</time>
      </trkpt>
      <trkpt lat="45.4231" lon="7.02774">
        <ele>2670</ele>
        <time>2021-07-23T11:01:37.285Z</time>
      </trkpt>
      <trkpt lat="45.42309" lon="7.02777">
        <ele>2670</ele>
        <time>2021-07-23T11:01:38.285Z</time>
      </trkpt>
      <trkpt lat="45.42307" lon="7.0278">
        <ele>2670.4</ele>
        <time>2021-07-23T11:01:39.285Z</time>
      </trkpt>
      <trkpt lat="45.42306" lon="7.02783">
        <ele>2670.8</ele>
        <time>2021-07-23T11:01:40.285Z</time>
      </trkpt>
      <trkpt lat="45.42305" lon="7.02785">
        <ele>2671.2</ele>
        <time>2021-07-23T11:01:41.285Z</time>
      </trkpt>
      <trkpt lat="45.42304" lon="7.02788">
        <ele>2671.6</ele>
        <time>2021-07-23T11:01:42.285Z</time>
      </trkpt>
      <trkpt lat="45.42303" lon="7.02791">
        <ele>2672</ele>
        <time>2021-07-23T11:01:43.285Z</time>
      </trkpt>
      <trkpt lat="45.42301" lon="7.02794">
        <ele>2672</ele>
        <time>2021-07-23T11:01:44.285Z</time>
      </trkpt>
      <trkpt lat="45.423" lon="7.02797">
        <ele>2672</ele>
        <time>2021-07-23T11:01:45.285Z</time>
      </trkpt>
      <trkpt lat="45.42298" lon="7.028">
        <ele>2672</ele>
        <time>2021-07-23T11:01:46.285Z</time>
      </trkpt>
      <trkpt lat="45.42297" lon="7.02802">
        <ele>2672</ele>
        <time>2021-07-23T11:01:47.285Z</time>
      </trkpt>
      <trkpt lat="45.42294" lon="7.02804">
        <ele>2672</ele>
        <time>2021-07-23T11:01:48.285Z</time>
      </trkpt>
      <trkpt lat="45.42292" lon="7.02807">
        <ele>2672.4</ele>
        <time>2021-07-23T11:01:49.285Z</time>
      </trkpt>
      <trkpt lat="45.42291" lon="7.0281">
        <ele>2672.4</ele>
        <time>2021-07-23T11:01:50.285Z</time>
      </trkpt>
      <trkpt lat="45.42289" lon="7.02812">
        <ele>2673</ele>
        <time>2021-07-23T11:01:51.285Z</time>
      </trkpt>
      <trkpt lat="45.42288" lon="7.02814">
        <ele>2673.8</ele>
        <time>2021-07-23T11:01:52.285Z</time>
      </trkpt>
      <trkpt lat="45.42286" lon="7.02817">
        <ele>2674.2</ele>
        <time>2021-07-23T11:01:53.285Z</time>
      </trkpt>
      <trkpt lat="45.42285" lon="7.02819">
        <ele>2674.2</ele>
        <time>2021-07-23T11:01:54.285Z</time>
      </trkpt>
      <trkpt lat="45.42283" lon="7.02821">
        <ele>2674.2</ele>
        <time>2021-07-23T11:01:55.285Z</time>
      </trkpt>
      <trkpt lat="45.42281" lon="7.02823">
        <ele>2674.2</ele>
        <time>2021-07-23T11:01:56.285Z</time>
      </trkpt>
      <trkpt lat="45.4228" lon="7.02826">
        <ele>2674.2</ele>
        <time>2021-07-23T11:01:57.285Z</time>
      </trkpt>
      <trkpt lat="45.42278" lon="7.02828">
        <ele>2674.2</ele>
        <time>2021-07-23T11:01:58.285Z</time>
      </trkpt>
      <trkpt lat="45.42276" lon="7.0283">
        <ele>2674.2</ele>
        <time>2021-07-23T11:01:59.285Z</time>
      </trkpt>
      <trkpt lat="45.42275" lon="7.02832">
        <ele>2674.6</ele>
        <time>2021-07-23T11:02:00.285Z</time>
      </trkpt>
      <trkpt lat="45.42273" lon="7.02835">
        <ele>2675</ele>
        <time>2021-07-23T11:02:01.285Z</time>
      </trkpt>
      <trkpt lat="45.42272" lon="7.02837">
        <ele>2675.6</ele>
        <time>2021-07-23T11:02:02.285Z</time>
      </trkpt>
      <trkpt lat="45.4227" lon="7.0284">
        <ele>2676</ele>
        <time>2021-07-23T11:02:03.285Z</time>
      </trkpt>
      <trkpt lat="45.42269" lon="7.02842">
        <ele>2676.4</ele>
        <time>2021-07-23T11:02:04.285Z</time>
      </trkpt>
      <trkpt lat="45.42268" lon="7.02845">
        <ele>2676.4</ele>
        <time>2021-07-23T11:02:05.285Z</time>
      </trkpt>
      <trkpt lat="45.42266" lon="7.02847">
        <ele>2676.4</ele>
        <time>2021-07-23T11:02:06.285Z</time>
      </trkpt>
      <trkpt lat="45.42264" lon="7.02849">
        <ele>2676.4</ele>
        <time>2021-07-23T11:02:07.285Z</time>
      </trkpt>
      <trkpt lat="45.42263" lon="7.02852">
        <ele>2676.4</ele>
        <time>2021-07-23T11:02:08.285Z</time>
      </trkpt>
      <trkpt lat="45.42261" lon="7.02854">
        <ele>2676.4</ele>
        <time>2021-07-23T11:02:09.285Z</time>
      </trkpt>
      <trkpt lat="45.4226" lon="7.02857">
        <ele>2676.4</ele>
        <time>2021-07-23T11:02:10.285Z</time>
      </trkpt>
      <trkpt lat="45.42258" lon="7.02859">
        <ele>2676.8</ele>
        <time>2021-07-23T11:02:11.285Z</time>
      </trkpt>
      <trkpt lat="45.42256" lon="7.0286">
        <ele>2677.2</ele>
        <time>2021-07-23T11:02:12.285Z</time>
      </trkpt>
      <trkpt lat="45.42254" lon="7.02862">
        <ele>2677.8</ele>
        <time>2021-07-23T11:02:13.285Z</time>
      </trkpt>
      <trkpt lat="45.42253" lon="7.02864">
        <ele>2678.2</ele>
        <time>2021-07-23T11:02:14.285Z</time>
      </trkpt>
      <trkpt lat="45.42251" lon="7.02866">
        <ele>2678.6</ele>
        <time>2021-07-23T11:02:15.285Z</time>
      </trkpt>
      <trkpt lat="45.4225" lon="7.02868">
        <ele>2678.6</ele>
        <time>2021-07-23T11:02:16.285Z</time>
      </trkpt>
      <trkpt lat="45.42248" lon="7.02869">
        <ele>2678.6</ele>
        <time>2021-07-23T11:02:17.285Z</time>
      </trkpt>
      <trkpt lat="45.42246" lon="7.02871">
        <ele>2678.6</ele>
        <time>2021-07-23T11:02:18.285Z</time>
      </trkpt>
      <trkpt lat="45.42244" lon="7.02872">
        <ele>2678.6</ele>
        <time>2021-07-23T11:02:19.285Z</time>
      </trkpt>
      <trkpt lat="45.42242" lon="7.02873">
        <ele>2678.6</ele>
        <time>2021-07-23T11:02:20.285Z</time>
      </trkpt>
      <trkpt lat="45.4224" lon="7.02874">
        <ele>2679</ele>
        <time>2021-07-23T11:02:21.285Z</time>
      </trkpt>
      <trkpt lat="45.42238" lon="7.02875">
        <ele>2679.4</ele>
        <time>2021-07-23T11:02:22.285Z</time>
      </trkpt>
      <trkpt lat="45.42236" lon="7.02875">
        <ele>2679.8</ele>
        <time>2021-07-23T11:02:23.285Z</time>
      </trkpt>
      <trkpt lat="45.42234" lon="7.02876">
        <ele>2680.2</ele>
        <time>2021-07-23T11:02:24.285Z</time>
      </trkpt>
      <trkpt lat="45.42232" lon="7.02877">
        <ele>2680.6</ele>
        <time>2021-07-23T11:02:25.285Z</time>
      </trkpt>
      <trkpt lat="45.42229" lon="7.02877">
        <ele>2680.6</ele>
        <time>2021-07-23T11:02:26.285Z</time>
      </trkpt>
      <trkpt lat="45.42227" lon="7.02876">
        <ele>2680.6</ele>
        <time>2021-07-23T11:02:27.285Z</time>
      </trkpt>
      <trkpt lat="45.42225" lon="7.02875">
        <ele>2680.6</ele>
        <time>2021-07-23T11:02:28.285Z</time>
      </trkpt>
      <trkpt lat="45.42222" lon="7.02875">
        <ele>2680.6</ele>
        <time>2021-07-23T11:02:29.285Z</time>
      </trkpt>
      <trkpt lat="45.4222" lon="7.02874">
        <ele>2680.6</ele>
        <time>2021-07-23T11:02:30.285Z</time>
      </trkpt>
      <trkpt lat="45.42218" lon="7.02872">
        <ele>2681</ele>
        <time>2021-07-23T11:02:31.285Z</time>
      </trkpt>
      <trkpt lat="45.42216" lon="7.02871">
        <ele>2681.4</ele>
        <time>2021-07-23T11:02:32.285Z</time>
      </trkpt>
      <trkpt lat="45.42214" lon="7.02868">
        <ele>2681.8</ele>
        <time>2021-07-23T11:02:33.285Z</time>
      </trkpt>
      <trkpt lat="45.42212" lon="7.02866">
        <ele>2682.4</ele>
        <time>2021-07-23T11:02:34.285Z</time>
      </trkpt>
      <trkpt lat="45.4221" lon="7.02864">
        <ele>2682.8</ele>
        <time>2021-07-23T11:02:35.285Z</time>
      </trkpt>
      <trkpt lat="45.42208" lon="7.02862">
        <ele>2682.8</ele>
        <time>2021-07-23T11:02:36.285Z</time>
      </trkpt>
      <trkpt lat="45.42207" lon="7.02859">
        <ele>2682.8</ele>
        <time>2021-07-23T11:02:37.285Z</time>
      </trkpt>
      <trkpt lat="45.42205" lon="7.02856">
        <ele>2682.8</ele>
        <time>2021-07-23T11:02:38.285Z</time>
      </trkpt>
      <trkpt lat="45.42204" lon="7.02854">
        <ele>2682.8</ele>
        <time>2021-07-23T11:02:39.285Z</time>
      </trkpt>
      <trkpt lat="45.42202" lon="7.02852">
        <ele>2682.8</ele>
        <time>2021-07-23T11:02:40.285Z</time>
      </trkpt>
      <trkpt lat="45.422" lon="7.0285">
        <ele>2683.6</ele>
        <time>2021-07-23T11:02:41.285Z</time>
      </trkpt>
      <trkpt lat="45.42197" lon="7.02846">
        <ele>2684</ele>
        <time>2021-07-23T11:02:42.285Z</time>
      </trkpt>
      <trkpt lat="45.42196" lon="7.02844">
        <ele>2684.6</ele>
        <time>2021-07-23T11:02:43.285Z</time>
      </trkpt>
      <trkpt lat="45.42194" lon="7.02842">
        <ele>2685</ele>
        <time>2021-07-23T11:02:44.285Z</time>
      </trkpt>
      <trkpt lat="45.42192" lon="7.02839">
        <ele>2685</ele>
        <time>2021-07-23T11:02:45.285Z</time>
      </trkpt>
      <trkpt lat="45.4219" lon="7.02837">
        <ele>2685</ele>
        <time>2021-07-23T11:02:46.285Z</time>
      </trkpt>
      <trkpt lat="45.42188" lon="7.02835">
        <ele>2685</ele>
        <time>2021-07-23T11:02:47.285Z</time>
      </trkpt>
      <trkpt lat="45.42186" lon="7.02833">
        <ele>2685</ele>
        <time>2021-07-23T11:02:48.285Z</time>
      </trkpt>
      <trkpt lat="45.42184" lon="7.0283">
        <ele>2685</ele>
        <time>2021-07-23T11:02:49.285Z</time>
      </trkpt>
      <trkpt lat="45.42182" lon="7.02827">
        <ele>2685.4</ele>
        <time>2021-07-23T11:02:50.285Z</time>
      </trkpt>
      <trkpt lat="45.4218" lon="7.02825">
        <ele>2685.8</ele>
        <time>2021-07-23T11:02:51.285Z</time>
      </trkpt>
      <trkpt lat="45.42178" lon="7.02822">
        <ele>2686.2</ele>
        <time>2021-07-23T11:02:52.285Z</time>
      </trkpt>
      <trkpt lat="45.42176" lon="7.02819">
        <ele>2686.6</ele>
        <time>2021-07-23T11:02:53.285Z</time>
      </trkpt>
      <trkpt lat="45.42175" lon="7.02816">
        <ele>2687</ele>
        <time>2021-07-23T11:02:54.285Z</time>
      </trkpt>
      <trkpt lat="45.42173" lon="7.02814">
        <ele>2687</ele>
        <time>2021-07-23T11:02:55.285Z</time>
      </trkpt>
      <trkpt lat="45.4217" lon="7.02811">
        <ele>2687</ele>
        <time>2021-07-23T11:02:56.285Z</time>
      </trkpt>
      <trkpt lat="45.42168" lon="7.02808">
        <ele>2687</ele>
        <time>2021-07-23T11:02:57.285Z</time>
      </trkpt>
      <trkpt lat="45.42166" lon="7.02805">
        <ele>2687</ele>
        <time>2021-07-23T11:02:58.285Z</time>
      </trkpt>
      <trkpt lat="45.42164" lon="7.02803">
        <ele>2687</ele>
        <time>2021-07-23T11:02:59.285Z</time>
      </trkpt>
      <trkpt lat="45.42163" lon="7.02801">
        <ele>2687</ele>
        <time>2021-07-23T11:03:00.285Z</time>
      </trkpt>
      <trkpt lat="45.42161" lon="7.02798">
        <ele>2687</ele>
        <time>2021-07-23T11:03:01.285Z</time>
      </trkpt>
      <trkpt lat="45.4216" lon="7.02795">
        <ele>2687.4</ele>
        <time>2021-07-23T11:03:02.285Z</time>
      </trkpt>
      <trkpt lat="45.42158" lon="7.02793">
        <ele>2687.8</ele>
        <time>2021-07-23T11:03:03.285Z</time>
      </trkpt>
      <trkpt lat="45.42156" lon="7.0279">
        <ele>2688.2</ele>
        <time>2021-07-23T11:03:04.285Z</time>
      </trkpt>
      <trkpt lat="45.42154" lon="7.02788">
        <ele>2689</ele>
        <time>2021-07-23T11:03:05.285Z</time>
      </trkpt>
      <trkpt lat="45.42152" lon="7.02786">
        <ele>2689</ele>
        <time>2021-07-23T11:03:06.285Z</time>
      </trkpt>
      <trkpt lat="45.4215" lon="7.02783">
        <ele>2689</ele>
        <time>2021-07-23T11:03:07.285Z</time>
      </trkpt>
      <trkpt lat="45.42149" lon="7.02781">
        <ele>2689</ele>
        <time>2021-07-23T11:03:08.285Z</time>
      </trkpt>
      <trkpt lat="45.42147" lon="7.02779">
        <ele>2689</ele>
        <time>2021-07-23T11:03:09.285Z</time>
      </trkpt>
      <trkpt lat="45.42145" lon="7.02776">
        <ele>2689</ele>
        <time>2021-07-23T11:03:10.285Z</time>
      </trkpt>
      <trkpt lat="45.42144" lon="7.02774">
        <ele>2689</ele>
        <time>2021-07-23T11:03:11.285Z</time>
      </trkpt>
      <trkpt lat="45.42142" lon="7.02772">
        <ele>2689.6</ele>
        <time>2021-07-23T11:03:12.285Z</time>
      </trkpt>
      <trkpt lat="45.4214" lon="7.0277">
        <ele>2690</ele>
        <time>2021-07-23T11:03:13.285Z</time>
      </trkpt>
      <trkpt lat="45.42138" lon="7.02768">
        <ele>2690.4</ele>
        <time>2021-07-23T11:03:14.285Z</time>
      </trkpt>
      <trkpt lat="45.42137" lon="7.02766">
        <ele>2690.8</ele>
        <time>2021-07-23T11:03:15.285Z</time>
      </trkpt>
      <trkpt lat="45.42135" lon="7.02764">
        <ele>2691.2</ele>
        <time>2021-07-23T11:03:16.285Z</time>
      </trkpt>
      <trkpt lat="45.42133" lon="7.02762">
        <ele>2691.2</ele>
        <time>2021-07-23T11:03:17.285Z</time>
      </trkpt>
      <trkpt lat="45.42131" lon="7.0276">
        <ele>2691.2</ele>
        <time>2021-07-23T11:03:18.285Z</time>
      </trkpt>
      <trkpt lat="45.42129" lon="7.02757">
        <ele>2691.2</ele>
        <time>2021-07-23T11:03:19.285Z</time>
      </trkpt>
      <trkpt lat="45.42127" lon="7.02756">
        <ele>2691.2</ele>
        <time>2021-07-23T11:03:20.285Z</time>
      </trkpt>
      <trkpt lat="45.42125" lon="7.02754">
        <ele>2691.2</ele>
        <time>2021-07-23T11:03:21.285Z</time>
      </trkpt>
      <trkpt lat="45.42123" lon="7.02752">
        <ele>2691.2</ele>
        <time>2021-07-23T11:03:22.285Z</time>
      </trkpt>
      <trkpt lat="45.42121" lon="7.0275">
        <ele>2691.2</ele>
        <time>2021-07-23T11:03:23.285Z</time>
      </trkpt>
      <trkpt lat="45.42119" lon="7.02748">
        <ele>2691.6</ele>
        <time>2021-07-23T11:03:24.285Z</time>
      </trkpt>
      <trkpt lat="45.42117" lon="7.02746">
        <ele>2692</ele>
        <time>2021-07-23T11:03:25.285Z</time>
      </trkpt>
      <trkpt lat="45.42114" lon="7.02744">
        <ele>2692.4</ele>
        <time>2021-07-23T11:03:26.285Z</time>
      </trkpt>
      <trkpt lat="45.42112" lon="7.02742">
        <ele>2692.8</ele>
        <time>2021-07-23T11:03:27.285Z</time>
      </trkpt>
      <trkpt lat="45.42109" lon="7.02741">
        <ele>2693.4</ele>
        <time>2021-07-23T11:03:28.285Z</time>
      </trkpt>
      <trkpt lat="45.42107" lon="7.0274">
        <ele>2693.4</ele>
        <time>2021-07-23T11:03:29.285Z</time>
      </trkpt>
      <trkpt lat="45.42105" lon="7.02739">
        <ele>2693.4</ele>
        <time>2021-07-23T11:03:30.285Z</time>
      </trkpt>
      <trkpt lat="45.42102" lon="7.02739">
        <ele>2693.4</ele>
        <time>2021-07-23T11:03:31.285Z</time>
      </trkpt>
      <trkpt lat="45.42099" lon="7.02739">
        <ele>2693.4</ele>
        <time>2021-07-23T11:03:32.285Z</time>
      </trkpt>
      <trkpt lat="45.42097" lon="7.02738">
        <ele>2693.4</ele>
        <time>2021-07-23T11:03:33.285Z</time>
      </trkpt>
      <trkpt lat="45.42094" lon="7.02739">
        <ele>2693.8</ele>
        <time>2021-07-23T11:03:34.285Z</time>
      </trkpt>
      <trkpt lat="45.42091" lon="7.02741">
        <ele>2694.2</ele>
        <time>2021-07-23T11:03:35.285Z</time>
      </trkpt>
      <trkpt lat="45.42089" lon="7.02742">
        <ele>2694.6</ele>
        <time>2021-07-23T11:03:36.285Z</time>
      </trkpt>
      <trkpt lat="45.42087" lon="7.02744">
        <ele>2695</ele>
        <time>2021-07-23T11:03:37.285Z</time>
      </trkpt>
      <trkpt lat="45.42085" lon="7.02747">
        <ele>2695.4</ele>
        <time>2021-07-23T11:03:38.285Z</time>
      </trkpt>
      <trkpt lat="45.42083" lon="7.02749">
        <ele>2695.4</ele>
        <time>2021-07-23T11:03:39.285Z</time>
      </trkpt>
      <trkpt lat="45.42081" lon="7.02752">
        <ele>2695.4</ele>
        <time>2021-07-23T11:03:40.285Z</time>
      </trkpt>
      <trkpt lat="45.42079" lon="7.02754">
        <ele>2695.4</ele>
        <time>2021-07-23T11:03:41.285Z</time>
      </trkpt>
      <trkpt lat="45.42077" lon="7.02757">
        <ele>2695.4</ele>
        <time>2021-07-23T11:03:42.285Z</time>
      </trkpt>
      <trkpt lat="45.42075" lon="7.02761">
        <ele>2695.4</ele>
        <time>2021-07-23T11:03:43.285Z</time>
      </trkpt>
      <trkpt lat="45.42074" lon="7.02764">
        <ele>2695.8</ele>
        <time>2021-07-23T11:03:44.285Z</time>
      </trkpt>
      <trkpt lat="45.42072" lon="7.02768">
        <ele>2696.2</ele>
        <time>2021-07-23T11:03:45.285Z</time>
      </trkpt>
      <trkpt lat="45.42071" lon="7.02773">
        <ele>2696.6</ele>
        <time>2021-07-23T11:03:46.285Z</time>
      </trkpt>
      <trkpt lat="45.4207" lon="7.02777">
        <ele>2697</ele>
        <time>2021-07-23T11:03:47.285Z</time>
      </trkpt>
      <trkpt lat="45.42069" lon="7.0278">
        <ele>2697.4</ele>
        <time>2021-07-23T11:03:48.285Z</time>
      </trkpt>
      <trkpt lat="45.42068" lon="7.02784">
        <ele>2697.4</ele>
        <time>2021-07-23T11:03:49.285Z</time>
      </trkpt>
      <trkpt lat="45.42067" lon="7.02788">
        <ele>2697.4</ele>
        <time>2021-07-23T11:03:50.285Z</time>
      </trkpt>
      <trkpt lat="45.42065" lon="7.02792">
        <ele>2697.4</ele>
        <time>2021-07-23T11:03:51.285Z</time>
      </trkpt>
      <trkpt lat="45.42064" lon="7.02796">
        <ele>2697.4</ele>
        <time>2021-07-23T11:03:52.285Z</time>
      </trkpt>
      <trkpt lat="45.42063" lon="7.02799">
        <ele>2697.4</ele>
        <time>2021-07-23T11:03:53.285Z</time>
      </trkpt>
      <trkpt lat="45.42062" lon="7.02803">
        <ele>2697.8</ele>
        <time>2021-07-23T11:03:54.285Z</time>
      </trkpt>
      <trkpt lat="45.4206" lon="7.02806">
        <ele>2698.2</ele>
        <time>2021-07-23T11:03:55.285Z</time>
      </trkpt>
      <trkpt lat="45.42059" lon="7.02809">
        <ele>2698.8</ele>
        <time>2021-07-23T11:03:56.285Z</time>
      </trkpt>
      <trkpt lat="45.42058" lon="7.02812">
        <ele>2699.2</ele>
        <time>2021-07-23T11:03:57.285Z</time>
      </trkpt>
      <trkpt lat="45.42057" lon="7.02815">
        <ele>2699.6</ele>
        <time>2021-07-23T11:03:58.285Z</time>
      </trkpt>
      <trkpt lat="45.42056" lon="7.02818">
        <ele>2699.6</ele>
        <time>2021-07-23T11:03:59.285Z</time>
      </trkpt>
      <trkpt lat="45.42055" lon="7.02821">
        <ele>2699.6</ele>
        <time>2021-07-23T11:04:00.285Z</time>
      </trkpt>
      <trkpt lat="45.42054" lon="7.02824">
        <ele>2699.6</ele>
        <time>2021-07-23T11:04:01.285Z</time>
      </trkpt>
      <trkpt lat="45.42053" lon="7.02827">
        <ele>2699.6</ele>
        <time>2021-07-23T11:04:02.285Z</time>
      </trkpt>
      <trkpt lat="45.42052" lon="7.0283">
        <ele>2699.6</ele>
        <time>2021-07-23T11:04:03.285Z</time>
      </trkpt>
      <trkpt lat="45.42051" lon="7.02833">
        <ele>2700</ele>
        <time>2021-07-23T11:04:04.285Z</time>
      </trkpt>
      <trkpt lat="45.4205" lon="7.02836">
        <ele>2700.4</ele>
        <time>2021-07-23T11:04:05.285Z</time>
      </trkpt>
      <trkpt lat="45.42048" lon="7.02839">
        <ele>2701</ele>
        <time>2021-07-23T11:04:06.285Z</time>
      </trkpt>
      <trkpt lat="45.42047" lon="7.02842">
        <ele>2701.4</ele>
        <time>2021-07-23T11:04:07.285Z</time>
      </trkpt>
      <trkpt lat="45.42045" lon="7.02844">
        <ele>2701.8</ele>
        <time>2021-07-23T11:04:08.285Z</time>
      </trkpt>
      <trkpt lat="45.42044" lon="7.02847">
        <ele>2701.8</ele>
        <time>2021-07-23T11:04:09.285Z</time>
      </trkpt>
      <trkpt lat="45.42043" lon="7.0285">
        <ele>2701.8</ele>
        <time>2021-07-23T11:04:10.285Z</time>
      </trkpt>
      <trkpt lat="45.42042" lon="7.02852">
        <ele>2701.8</ele>
        <time>2021-07-23T11:04:11.285Z</time>
      </trkpt>
      <trkpt lat="45.4204" lon="7.02855">
        <ele>2701.8</ele>
        <time>2021-07-23T11:04:12.285Z</time>
      </trkpt>
      <trkpt lat="45.42039" lon="7.02857">
        <ele>2701.8</ele>
        <time>2021-07-23T11:04:13.285Z</time>
      </trkpt>
      <trkpt lat="45.42037" lon="7.0286">
        <ele>2701.8</ele>
        <time>2021-07-23T11:04:14.285Z</time>
      </trkpt>
      <trkpt lat="45.42036" lon="7.02863">
        <ele>2702.2</ele>
        <time>2021-07-23T11:04:15.285Z</time>
      </trkpt>
      <trkpt lat="45.42034" lon="7.02865">
        <ele>2702.6</ele>
        <time>2021-07-23T11:04:16.285Z</time>
      </trkpt>
      <trkpt lat="45.42033" lon="7.02867">
        <ele>2703</ele>
        <time>2021-07-23T11:04:17.285Z</time>
      </trkpt>
      <trkpt lat="45.42032" lon="7.02869">
        <ele>2703.6</ele>
        <time>2021-07-23T11:04:18.285Z</time>
      </trkpt>
      <trkpt lat="45.4203" lon="7.02871">
        <ele>2704</ele>
        <time>2021-07-23T11:04:19.285Z</time>
      </trkpt>
      <trkpt lat="45.42028" lon="7.02872">
        <ele>2704</ele>
        <time>2021-07-23T11:04:20.285Z</time>
      </trkpt>
      <trkpt lat="45.42026" lon="7.02874">
        <ele>2704</ele>
        <time>2021-07-23T11:04:21.285Z</time>
      </trkpt>
      <trkpt lat="45.42024" lon="7.02876">
        <ele>2704</ele>
        <time>2021-07-23T11:04:22.285Z</time>
      </trkpt>
      <trkpt lat="45.42021" lon="7.02877">
        <ele>2704</ele>
        <time>2021-07-23T11:04:23.285Z</time>
      </trkpt>
      <trkpt lat="45.42019" lon="7.02878">
        <ele>2704.4</ele>
        <time>2021-07-23T11:04:24.285Z</time>
      </trkpt>
      <trkpt lat="45.42017" lon="7.02879">
        <ele>2704.8</ele>
        <time>2021-07-23T11:04:25.285Z</time>
      </trkpt>
      <trkpt lat="45.42014" lon="7.0288">
        <ele>2705.2</ele>
        <time>2021-07-23T11:04:26.285Z</time>
      </trkpt>
      <trkpt lat="45.42012" lon="7.02881">
        <ele>2705.6</ele>
        <time>2021-07-23T11:04:27.285Z</time>
      </trkpt>
      <trkpt lat="45.42009" lon="7.02881">
        <ele>2706</ele>
        <time>2021-07-23T11:04:28.285Z</time>
      </trkpt>
      <trkpt lat="45.42007" lon="7.02882">
        <ele>2706</ele>
        <time>2021-07-23T11:04:29.285Z</time>
      </trkpt>
      <trkpt lat="45.42004" lon="7.02882">
        <ele>2706</ele>
        <time>2021-07-23T11:04:30.285Z</time>
      </trkpt>
      <trkpt lat="45.42002" lon="7.02882">
        <ele>2706</ele>
        <time>2021-07-23T11:04:31.285Z</time>
      </trkpt>
      <trkpt lat="45.42" lon="7.02882">
        <ele>2706</ele>
        <time>2021-07-23T11:04:32.285Z</time>
      </trkpt>
      <trkpt lat="45.41997" lon="7.02882">
        <ele>2706</ele>
        <time>2021-07-23T11:04:33.285Z</time>
      </trkpt>
      <trkpt lat="45.41995" lon="7.02881">
        <ele>2706</ele>
        <time>2021-07-23T11:04:34.285Z</time>
      </trkpt>
      <trkpt lat="45.41993" lon="7.02881">
        <ele>2706</ele>
        <time>2021-07-23T11:04:35.285Z</time>
      </trkpt>
      <trkpt lat="45.4199" lon="7.02881">
        <ele>2706</ele>
        <time>2021-07-23T11:04:36.285Z</time>
      </trkpt>
      <trkpt lat="45.41988" lon="7.02881">
        <ele>2706</ele>
        <time>2021-07-23T11:04:37.285Z</time>
      </trkpt>
      <trkpt lat="45.41986" lon="7.02881">
        <ele>2706.4</ele>
        <time>2021-07-23T11:04:38.285Z</time>
      </trkpt>
      <trkpt lat="45.41983" lon="7.02881">
        <ele>2706.8</ele>
        <time>2021-07-23T11:04:39.285Z</time>
      </trkpt>
      <trkpt lat="45.4198" lon="7.0288">
        <ele>2707.2</ele>
        <time>2021-07-23T11:04:40.285Z</time>
      </trkpt>
      <trkpt lat="45.41978" lon="7.0288">
        <ele>2707.6</ele>
        <time>2021-07-23T11:04:41.285Z</time>
      </trkpt>
      <trkpt lat="45.41975" lon="7.02879">
        <ele>2708</ele>
        <time>2021-07-23T11:04:42.285Z</time>
      </trkpt>
      <trkpt lat="45.4197" lon="7.02878">
        <ele>2708</ele>
        <time>2021-07-23T11:04:43.285Z</time>
      </trkpt>
      <trkpt lat="45.4197" lon="7.02878">
        <ele>2708</ele>
        <time>2021-07-23T11:04:44.285Z</time>
      </trkpt>
      <trkpt lat="45.41968" lon="7.02878">
        <ele>2708</ele>
        <time>2021-07-23T11:04:45.285Z</time>
      </trkpt>
      <trkpt lat="45.41965" lon="7.02878">
        <ele>2708.4</ele>
        <time>2021-07-23T11:04:46.285Z</time>
      </trkpt>
      <trkpt lat="45.41963" lon="7.02878">
        <ele>2708.8</ele>
        <time>2021-07-23T11:04:47.285Z</time>
      </trkpt>
      <trkpt lat="45.41961" lon="7.02878">
        <ele>2709.4</ele>
        <time>2021-07-23T11:04:48.285Z</time>
      </trkpt>
      <trkpt lat="45.41959" lon="7.02877">
        <ele>2709.8</ele>
        <time>2021-07-23T11:04:49.285Z</time>
      </trkpt>
      <trkpt lat="45.41957" lon="7.02876">
        <ele>2710.2</ele>
        <time>2021-07-23T11:04:50.285Z</time>
      </trkpt>
      <trkpt lat="45.41955" lon="7.02876">
        <ele>2710.2</ele>
        <time>2021-07-23T11:04:51.285Z</time>
      </trkpt>
      <trkpt lat="45.41953" lon="7.02875">
        <ele>2710.2</ele>
        <time>2021-07-23T11:04:52.285Z</time>
      </trkpt>
      <trkpt lat="45.41951" lon="7.02875">
        <ele>2710.2</ele>
        <time>2021-07-23T11:04:53.285Z</time>
      </trkpt>
      <trkpt lat="45.41949" lon="7.02875">
        <ele>2710.2</ele>
        <time>2021-07-23T11:04:54.285Z</time>
      </trkpt>
      <trkpt lat="45.41947" lon="7.02875">
        <ele>2710.2</ele>
        <time>2021-07-23T11:04:55.285Z</time>
      </trkpt>
      <trkpt lat="45.41945" lon="7.02875">
        <ele>2710.6</ele>
        <time>2021-07-23T11:04:56.285Z</time>
      </trkpt>
      <trkpt lat="45.41942" lon="7.02875">
        <ele>2711</ele>
        <time>2021-07-23T11:04:57.285Z</time>
      </trkpt>
      <trkpt lat="45.4194" lon="7.02875">
        <ele>2711.4</ele>
        <time>2021-07-23T11:04:58.285Z</time>
      </trkpt>
      <trkpt lat="45.41938" lon="7.02875">
        <ele>2711.8</ele>
        <time>2021-07-23T11:04:59.285Z</time>
      </trkpt>
      <trkpt lat="45.41936" lon="7.02875">
        <ele>2712.2</ele>
        <time>2021-07-23T11:05:00.285Z</time>
      </trkpt>
      <trkpt lat="45.41934" lon="7.02874">
        <ele>2712.2</ele>
        <time>2021-07-23T11:05:01.285Z</time>
      </trkpt>
      <trkpt lat="45.41932" lon="7.02874">
        <ele>2712.2</ele>
        <time>2021-07-23T11:05:02.285Z</time>
      </trkpt>
      <trkpt lat="45.4193" lon="7.02873">
        <ele>2712.2</ele>
        <time>2021-07-23T11:05:03.285Z</time>
      </trkpt>
      <trkpt lat="45.41928" lon="7.02873">
        <ele>2712.2</ele>
        <time>2021-07-23T11:05:04.285Z</time>
      </trkpt>
      <trkpt lat="45.41926" lon="7.02873">
        <ele>2712.6</ele>
        <time>2021-07-23T11:05:05.285Z</time>
      </trkpt>
      <trkpt lat="45.41923" lon="7.02872">
        <ele>2713</ele>
        <time>2021-07-23T11:05:06.285Z</time>
      </trkpt>
      <trkpt lat="45.41921" lon="7.02871">
        <ele>2713.4</ele>
        <time>2021-07-23T11:05:07.285Z</time>
      </trkpt>
      <trkpt lat="45.41919" lon="7.02871">
        <ele>2713.8</ele>
        <time>2021-07-23T11:05:08.285Z</time>
      </trkpt>
      <trkpt lat="45.41918" lon="7.0287">
        <ele>2714.2</ele>
        <time>2021-07-23T11:05:09.285Z</time>
      </trkpt>
      <trkpt lat="45.41916" lon="7.0287">
        <ele>2714.2</ele>
        <time>2021-07-23T11:05:10.285Z</time>
      </trkpt>
      <trkpt lat="45.41914" lon="7.0287">
        <ele>2714.2</ele>
        <time>2021-07-23T11:05:11.285Z</time>
      </trkpt>
      <trkpt lat="45.41911" lon="7.0287">
        <ele>2714.2</ele>
        <time>2021-07-23T11:05:12.285Z</time>
      </trkpt>
      <trkpt lat="45.41909" lon="7.0287">
        <ele>2714.2</ele>
        <time>2021-07-23T11:05:13.285Z</time>
      </trkpt>
      <trkpt lat="45.41908" lon="7.02869">
        <ele>2714.2</ele>
        <time>2021-07-23T11:05:14.285Z</time>
      </trkpt>
      <trkpt lat="45.41906" lon="7.02869">
        <ele>2714.8</ele>
        <time>2021-07-23T11:05:15.285Z</time>
      </trkpt>
      <trkpt lat="45.41904" lon="7.02869">
        <ele>2715.2</ele>
        <time>2021-07-23T11:05:16.285Z</time>
      </trkpt>
      <trkpt lat="45.41902" lon="7.02868">
        <ele>2715.6</ele>
        <time>2021-07-23T11:05:17.285Z</time>
      </trkpt>
      <trkpt lat="45.419" lon="7.02867">
        <ele>2716</ele>
        <time>2021-07-23T11:05:18.285Z</time>
      </trkpt>
      <trkpt lat="45.41898" lon="7.02867">
        <ele>2716.4</ele>
        <time>2021-07-23T11:05:19.285Z</time>
      </trkpt>
      <trkpt lat="45.41896" lon="7.02867">
        <ele>2716.4</ele>
        <time>2021-07-23T11:05:20.285Z</time>
      </trkpt>
      <trkpt lat="45.41894" lon="7.02867">
        <ele>2716.4</ele>
        <time>2021-07-23T11:05:21.285Z</time>
      </trkpt>
      <trkpt lat="45.41892" lon="7.02867">
        <ele>2716.4</ele>
        <time>2021-07-23T11:05:22.285Z</time>
      </trkpt>
      <trkpt lat="45.4189" lon="7.02867">
        <ele>2716.4</ele>
        <time>2021-07-23T11:05:23.285Z</time>
      </trkpt>
      <trkpt lat="45.41888" lon="7.02868">
        <ele>2716.4</ele>
        <time>2021-07-23T11:05:24.285Z</time>
      </trkpt>
      <trkpt lat="45.41886" lon="7.02869">
        <ele>2716.4</ele>
        <time>2021-07-23T11:05:25.285Z</time>
      </trkpt>
      <trkpt lat="45.41884" lon="7.02869">
        <ele>2717</ele>
        <time>2021-07-23T11:05:26.285Z</time>
      </trkpt>
      <trkpt lat="45.41882" lon="7.0287">
        <ele>2717.4</ele>
        <time>2021-07-23T11:05:27.285Z</time>
      </trkpt>
      <trkpt lat="45.4188" lon="7.0287">
        <ele>2717.8</ele>
        <time>2021-07-23T11:05:28.285Z</time>
      </trkpt>
      <trkpt lat="45.41878" lon="7.0287">
        <ele>2718.2</ele>
        <time>2021-07-23T11:05:29.285Z</time>
      </trkpt>
      <trkpt lat="45.41876" lon="7.02871">
        <ele>2718.6</ele>
        <time>2021-07-23T11:05:30.285Z</time>
      </trkpt>
      <trkpt lat="45.41874" lon="7.02873">
        <ele>2718.6</ele>
        <time>2021-07-23T11:05:31.285Z</time>
      </trkpt>
      <trkpt lat="45.41873" lon="7.02875">
        <ele>2718.6</ele>
        <time>2021-07-23T11:05:32.285Z</time>
      </trkpt>
      <trkpt lat="45.41871" lon="7.02878">
        <ele>2718.6</ele>
        <time>2021-07-23T11:05:33.285Z</time>
      </trkpt>
      <trkpt lat="45.4187" lon="7.0288">
        <ele>2718.6</ele>
        <time>2021-07-23T11:05:34.285Z</time>
      </trkpt>
      <trkpt lat="45.41869" lon="7.02883">
        <ele>2718.6</ele>
        <time>2021-07-23T11:05:35.285Z</time>
      </trkpt>
      <trkpt lat="45.41869" lon="7.02886">
        <ele>2718.6</ele>
        <time>2021-07-23T11:05:36.285Z</time>
      </trkpt>
      <trkpt lat="45.41869" lon="7.02888">
        <ele>2719</ele>
        <time>2021-07-23T11:05:37.285Z</time>
      </trkpt>
      <trkpt lat="45.4187" lon="7.02891">
        <ele>2719.4</ele>
        <time>2021-07-23T11:05:38.285Z</time>
      </trkpt>
      <trkpt lat="45.41871" lon="7.02894">
        <ele>2719.8</ele>
        <time>2021-07-23T11:05:39.285Z</time>
      </trkpt>
      <trkpt lat="45.41873" lon="7.02896">
        <ele>2720.2</ele>
        <time>2021-07-23T11:05:40.285Z</time>
      </trkpt>
      <trkpt lat="45.41874" lon="7.02898">
        <ele>2720.6</ele>
        <time>2021-07-23T11:05:41.285Z</time>
      </trkpt>
      <trkpt lat="45.41876" lon="7.029">
        <ele>2720.6</ele>
        <time>2021-07-23T11:05:42.285Z</time>
      </trkpt>
      <trkpt lat="45.41878" lon="7.02901">
        <ele>2720.6</ele>
        <time>2021-07-23T11:05:43.285Z</time>
      </trkpt>
      <trkpt lat="45.4188" lon="7.02903">
        <ele>2720.6</ele>
        <time>2021-07-23T11:05:44.285Z</time>
      </trkpt>
      <trkpt lat="45.41882" lon="7.02904">
        <ele>2720.6</ele>
        <time>2021-07-23T11:05:45.285Z</time>
      </trkpt>
      <trkpt lat="45.41884" lon="7.02905">
        <ele>2720.6</ele>
        <time>2021-07-23T11:05:46.285Z</time>
      </trkpt>
      <trkpt lat="45.41887" lon="7.02906">
        <ele>2720.6</ele>
        <time>2021-07-23T11:05:47.285Z</time>
      </trkpt>
      <trkpt lat="45.4189" lon="7.02906">
        <ele>2720.6</ele>
        <time>2021-07-23T11:05:48.285Z</time>
      </trkpt>
      <trkpt lat="45.41893" lon="7.02907">
        <ele>2720.6</ele>
        <time>2021-07-23T11:05:49.285Z</time>
      </trkpt>
      <trkpt lat="45.41895" lon="7.02908">
        <ele>2720.6</ele>
        <time>2021-07-23T11:05:50.285Z</time>
      </trkpt>
      <trkpt lat="45.41898" lon="7.0291">
        <ele>2720.6</ele>
        <time>2021-07-23T11:05:51.285Z</time>
      </trkpt>
      <trkpt lat="45.41901" lon="7.02911">
        <ele>2720.6</ele>
        <time>2021-07-23T11:05:52.285Z</time>
      </trkpt>
      <trkpt lat="45.41903" lon="7.02913">
        <ele>2721</ele>
        <time>2021-07-23T11:05:53.285Z</time>
      </trkpt>
      <trkpt lat="45.41905" lon="7.02915">
        <ele>2721.4</ele>
        <time>2021-07-23T11:05:54.285Z</time>
      </trkpt>
      <trkpt lat="45.41906" lon="7.02917">
        <ele>2721.8</ele>
        <time>2021-07-23T11:05:55.285Z</time>
      </trkpt>
      <trkpt lat="45.41908" lon="7.0292">
        <ele>2722.2</ele>
        <time>2021-07-23T11:05:56.285Z</time>
      </trkpt>
      <trkpt lat="45.41909" lon="7.02922">
        <ele>2722.6</ele>
        <time>2021-07-23T11:05:57.285Z</time>
      </trkpt>
      <trkpt lat="45.41911" lon="7.02925">
        <ele>2722.6</ele>
        <time>2021-07-23T11:05:58.285Z</time>
      </trkpt>
      <trkpt lat="45.41912" lon="7.02927">
        <ele>2722.6</ele>
        <time>2021-07-23T11:05:59.285Z</time>
      </trkpt>
      <trkpt lat="45.41913" lon="7.0293">
        <ele>2722.6</ele>
        <time>2021-07-23T11:06:00.285Z</time>
      </trkpt>
      <trkpt lat="45.41914" lon="7.02932">
        <ele>2722.6</ele>
        <time>2021-07-23T11:06:01.285Z</time>
      </trkpt>
      <trkpt lat="45.41915" lon="7.02934">
        <ele>2723.2</ele>
        <time>2021-07-23T11:06:02.285Z</time>
      </trkpt>
      <trkpt lat="45.41916" lon="7.02936">
        <ele>2723.6</ele>
        <time>2021-07-23T11:06:03.285Z</time>
      </trkpt>
      <trkpt lat="45.41917" lon="7.02938">
        <ele>2724</ele>
        <time>2021-07-23T11:06:04.285Z</time>
      </trkpt>
      <trkpt lat="45.41918" lon="7.0294">
        <ele>2724.4</ele>
        <time>2021-07-23T11:06:05.285Z</time>
      </trkpt>
      <trkpt lat="45.41919" lon="7.02942">
        <ele>2724.8</ele>
        <time>2021-07-23T11:06:06.285Z</time>
      </trkpt>
      <trkpt lat="45.41919" lon="7.02944">
        <ele>2724.8</ele>
        <time>2021-07-23T11:06:07.285Z</time>
      </trkpt>
      <trkpt lat="45.4192" lon="7.02947">
        <ele>2724.8</ele>
        <time>2021-07-23T11:06:08.285Z</time>
      </trkpt>
      <trkpt lat="45.41921" lon="7.02949">
        <ele>2724.8</ele>
        <time>2021-07-23T11:06:09.285Z</time>
      </trkpt>
      <trkpt lat="45.41922" lon="7.02951">
        <ele>2724.8</ele>
        <time>2021-07-23T11:06:10.285Z</time>
      </trkpt>
      <trkpt lat="45.41923" lon="7.02954">
        <ele>2724.8</ele>
        <time>2021-07-23T11:06:11.285Z</time>
      </trkpt>
      <trkpt lat="45.41924" lon="7.02956">
        <ele>2724.8</ele>
        <time>2021-07-23T11:06:12.285Z</time>
      </trkpt>
      <trkpt lat="45.41926" lon="7.02959">
        <ele>2725.2</ele>
        <time>2021-07-23T11:06:13.285Z</time>
      </trkpt>
      <trkpt lat="45.41926" lon="7.02961">
        <ele>2725.6</ele>
        <time>2021-07-23T11:06:14.285Z</time>
      </trkpt>
      <trkpt lat="45.41927" lon="7.02962">
        <ele>2726</ele>
        <time>2021-07-23T11:06:15.285Z</time>
      </trkpt>
      <trkpt lat="45.41929" lon="7.02964">
        <ele>2726.4</ele>
        <time>2021-07-23T11:06:16.285Z</time>
      </trkpt>
      <trkpt lat="45.41931" lon="7.02966">
        <ele>2726.8</ele>
        <time>2021-07-23T11:06:17.285Z</time>
      </trkpt>
      <trkpt lat="45.41933" lon="7.02969">
        <ele>2726.8</ele>
        <time>2021-07-23T11:06:18.285Z</time>
      </trkpt>
      <trkpt lat="45.41934" lon="7.02972">
        <ele>2726.8</ele>
        <time>2021-07-23T11:06:19.285Z</time>
      </trkpt>
      <trkpt lat="45.41935" lon="7.02974">
        <ele>2726.8</ele>
        <time>2021-07-23T11:06:20.285Z</time>
      </trkpt>
      <trkpt lat="45.41936" lon="7.02977">
        <ele>2726.8</ele>
        <time>2021-07-23T11:06:21.285Z</time>
      </trkpt>
      <trkpt lat="45.41936" lon="7.0298">
        <ele>2726.8</ele>
        <time>2021-07-23T11:06:22.285Z</time>
      </trkpt>
      <trkpt lat="45.41936" lon="7.02982">
        <ele>2726.8</ele>
        <time>2021-07-23T11:06:23.285Z</time>
      </trkpt>
      <trkpt lat="45.41936" lon="7.02985">
        <ele>2727.2</ele>
        <time>2021-07-23T11:06:24.285Z</time>
      </trkpt>
      <trkpt lat="45.41937" lon="7.02987">
        <ele>2727.6</ele>
        <time>2021-07-23T11:06:25.285Z</time>
      </trkpt>
      <trkpt lat="45.41938" lon="7.02989">
        <ele>2728.2</ele>
        <time>2021-07-23T11:06:26.285Z</time>
      </trkpt>
      <trkpt lat="45.41939" lon="7.02992">
        <ele>2728.6</ele>
        <time>2021-07-23T11:06:27.285Z</time>
      </trkpt>
      <trkpt lat="45.4194" lon="7.02994">
        <ele>2729</ele>
        <time>2021-07-23T11:06:28.285Z</time>
      </trkpt>
      <trkpt lat="45.41941" lon="7.02997">
        <ele>2729</ele>
        <time>2021-07-23T11:06:29.285Z</time>
      </trkpt>
      <trkpt lat="45.41941" lon="7.02999">
        <ele>2729</ele>
        <time>2021-07-23T11:06:30.285Z</time>
      </trkpt>
      <trkpt lat="45.4194" lon="7.03002">
        <ele>2729</ele>
        <time>2021-07-23T11:06:31.285Z</time>
      </trkpt>
      <trkpt lat="45.4194" lon="7.03005">
        <ele>2729</ele>
        <time>2021-07-23T11:06:32.285Z</time>
      </trkpt>
      <trkpt lat="45.4194" lon="7.03008">
        <ele>2729</ele>
        <time>2021-07-23T11:06:33.285Z</time>
      </trkpt>
      <trkpt lat="45.41939" lon="7.03011">
        <ele>2729</ele>
        <time>2021-07-23T11:06:34.285Z</time>
      </trkpt>
      <trkpt lat="45.41938" lon="7.03012">
        <ele>2729</ele>
        <time>2021-07-23T11:06:35.285Z</time>
      </trkpt>
      <trkpt lat="45.41936" lon="7.03013">
        <ele>2729</ele>
        <time>2021-07-23T11:06:36.285Z</time>
      </trkpt>
      <trkpt lat="45.41933" lon="7.03014">
        <ele>2729</ele>
        <time>2021-07-23T11:06:37.285Z</time>
      </trkpt>
      <trkpt lat="45.41931" lon="7.03013">
        <ele>2729</ele>
        <time>2021-07-23T11:06:38.285Z</time>
      </trkpt>
      <trkpt lat="45.41929" lon="7.03011">
        <ele>2729.4</ele>
        <time>2021-07-23T11:06:39.285Z</time>
      </trkpt>
      <trkpt lat="45.41927" lon="7.03009">
        <ele>2729.8</ele>
        <time>2021-07-23T11:06:40.285Z</time>
      </trkpt>
      <trkpt lat="45.41925" lon="7.03007">
        <ele>2730.2</ele>
        <time>2021-07-23T11:06:41.285Z</time>
      </trkpt>
      <trkpt lat="45.41924" lon="7.03005">
        <ele>2730.6</ele>
        <time>2021-07-23T11:06:42.285Z</time>
      </trkpt>
      <trkpt lat="45.41923" lon="7.03002">
        <ele>2731</ele>
        <time>2021-07-23T11:06:43.285Z</time>
      </trkpt>
      <trkpt lat="45.41922" lon="7.03">
        <ele>2731</ele>
        <time>2021-07-23T11:06:44.285Z</time>
      </trkpt>
      <trkpt lat="45.41921" lon="7.02997">
        <ele>2731</ele>
        <time>2021-07-23T11:06:45.285Z</time>
      </trkpt>
      <trkpt lat="45.4192" lon="7.02994">
        <ele>2731</ele>
        <time>2021-07-23T11:06:46.285Z</time>
      </trkpt>
      <trkpt lat="45.41919" lon="7.02992">
        <ele>2731</ele>
        <time>2021-07-23T11:06:47.285Z</time>
      </trkpt>
      <trkpt lat="45.41918" lon="7.02989">
        <ele>2731.6</ele>
        <time>2021-07-23T11:06:48.285Z</time>
      </trkpt>
      <trkpt lat="45.41917" lon="7.02987">
        <ele>2732.4</ele>
        <time>2021-07-23T11:06:49.285Z</time>
      </trkpt>
      <trkpt lat="45.41917" lon="7.02984">
        <ele>2732.8</ele>
        <time>2021-07-23T11:06:50.285Z</time>
      </trkpt>
      <trkpt lat="45.41915" lon="7.02981">
        <ele>2733.4</ele>
        <time>2021-07-23T11:06:51.285Z</time>
      </trkpt>
      <trkpt lat="45.41914" lon="7.02979">
        <ele>2733.4</ele>
        <time>2021-07-23T11:06:52.285Z</time>
      </trkpt>
      <trkpt lat="45.41912" lon="7.02977">
        <ele>2733.4</ele>
        <time>2021-07-23T11:06:53.285Z</time>
      </trkpt>
      <trkpt lat="45.41911" lon="7.02975">
        <ele>2733.4</ele>
        <time>2021-07-23T11:06:54.285Z</time>
      </trkpt>
      <trkpt lat="45.41909" lon="7.02973">
        <ele>2733.4</ele>
        <time>2021-07-23T11:06:55.285Z</time>
      </trkpt>
      <trkpt lat="45.41907" lon="7.02972">
        <ele>2733.8</ele>
        <time>2021-07-23T11:06:56.285Z</time>
      </trkpt>
      <trkpt lat="45.41906" lon="7.0297">
        <ele>2734.2</ele>
        <time>2021-07-23T11:06:57.285Z</time>
      </trkpt>
      <trkpt lat="45.41904" lon="7.02969">
        <ele>2734.6</ele>
        <time>2021-07-23T11:06:58.285Z</time>
      </trkpt>
      <trkpt lat="45.41902" lon="7.02968">
        <ele>2735</ele>
        <time>2021-07-23T11:06:59.285Z</time>
      </trkpt>
      <trkpt lat="45.419" lon="7.02967">
        <ele>2735.4</ele>
        <time>2021-07-23T11:07:00.285Z</time>
      </trkpt>
      <trkpt lat="45.41898" lon="7.02966">
        <ele>2735.4</ele>
        <time>2021-07-23T11:07:01.285Z</time>
      </trkpt>
      <trkpt lat="45.41896" lon="7.02965">
        <ele>2735.4</ele>
        <time>2021-07-23T11:07:02.285Z</time>
      </trkpt>
      <trkpt lat="45.41895" lon="7.02965">
        <ele>2735.4</ele>
        <time>2021-07-23T11:07:03.285Z</time>
      </trkpt>
      <trkpt lat="45.41893" lon="7.02964">
        <ele>2735.4</ele>
        <time>2021-07-23T11:07:04.285Z</time>
      </trkpt>
      <trkpt lat="45.41891" lon="7.02964">
        <ele>2735.4</ele>
        <time>2021-07-23T11:07:05.285Z</time>
      </trkpt>
      <trkpt lat="45.41889" lon="7.02964">
        <ele>2735.4</ele>
        <time>2021-07-23T11:07:06.285Z</time>
      </trkpt>
      <trkpt lat="45.41886" lon="7.02963">
        <ele>2735.8</ele>
        <time>2021-07-23T11:07:07.285Z</time>
      </trkpt>
      <trkpt lat="45.41885" lon="7.02963">
        <ele>2736.2</ele>
        <time>2021-07-23T11:07:08.285Z</time>
      </trkpt>
      <trkpt lat="45.41883" lon="7.02963">
        <ele>2736.6</ele>
        <time>2021-07-23T11:07:09.285Z</time>
      </trkpt>
      <trkpt lat="45.41881" lon="7.02964">
        <ele>2737</ele>
        <time>2021-07-23T11:07:10.285Z</time>
      </trkpt>
      <trkpt lat="45.41879" lon="7.02964">
        <ele>2737.4</ele>
        <time>2021-07-23T11:07:11.285Z</time>
      </trkpt>
      <trkpt lat="45.41877" lon="7.02965">
        <ele>2737.4</ele>
        <time>2021-07-23T11:07:12.285Z</time>
      </trkpt>
      <trkpt lat="45.41875" lon="7.02966">
        <ele>2737.4</ele>
        <time>2021-07-23T11:07:13.285Z</time>
      </trkpt>
      <trkpt lat="45.41873" lon="7.02967">
        <ele>2737.4</ele>
        <time>2021-07-23T11:07:14.285Z</time>
      </trkpt>
      <trkpt lat="45.41871" lon="7.02969">
        <ele>2737.4</ele>
        <time>2021-07-23T11:07:15.285Z</time>
      </trkpt>
      <trkpt lat="45.41869" lon="7.0297">
        <ele>2737.4</ele>
        <time>2021-07-23T11:07:16.285Z</time>
      </trkpt>
      <trkpt lat="45.41867" lon="7.02971">
        <ele>2737.4</ele>
        <time>2021-07-23T11:07:17.285Z</time>
      </trkpt>
      <trkpt lat="45.41865" lon="7.02973">
        <ele>2737.4</ele>
        <time>2021-07-23T11:07:18.285Z</time>
      </trkpt>
      <trkpt lat="45.41863" lon="7.02975">
        <ele>2737.8</ele>
        <time>2021-07-23T11:07:19.285Z</time>
      </trkpt>
      <trkpt lat="45.41861" lon="7.02977">
        <ele>2738.2</ele>
        <time>2021-07-23T11:07:20.285Z</time>
      </trkpt>
      <trkpt lat="45.4186" lon="7.02978">
        <ele>2738.8</ele>
        <time>2021-07-23T11:07:21.285Z</time>
      </trkpt>
      <trkpt lat="45.41858" lon="7.0298">
        <ele>2739.2</ele>
        <time>2021-07-23T11:07:22.285Z</time>
      </trkpt>
      <trkpt lat="45.41856" lon="7.02983">
        <ele>2739.6</ele>
        <time>2021-07-23T11:07:23.285Z</time>
      </trkpt>
      <trkpt lat="45.41854" lon="7.02986">
        <ele>2739.6</ele>
        <time>2021-07-23T11:07:24.285Z</time>
      </trkpt>
      <trkpt lat="45.41853" lon="7.02988">
        <ele>2739.6</ele>
        <time>2021-07-23T11:07:25.285Z</time>
      </trkpt>
      <trkpt lat="45.41851" lon="7.02991">
        <ele>2739.6</ele>
        <time>2021-07-23T11:07:26.285Z</time>
      </trkpt>
      <trkpt lat="45.41849" lon="7.02993">
        <ele>2739.6</ele>
        <time>2021-07-23T11:07:27.285Z</time>
      </trkpt>
      <trkpt lat="45.41848" lon="7.02996">
        <ele>2739.6</ele>
        <time>2021-07-23T11:07:28.285Z</time>
      </trkpt>
      <trkpt lat="45.41846" lon="7.02998">
        <ele>2739.6</ele>
        <time>2021-07-23T11:07:29.285Z</time>
      </trkpt>
      <trkpt lat="45.41845" lon="7.03">
        <ele>2740</ele>
        <time>2021-07-23T11:07:30.285Z</time>
      </trkpt>
      <trkpt lat="45.41843" lon="7.03003">
        <ele>2740.4</ele>
        <time>2021-07-23T11:07:31.285Z</time>
      </trkpt>
      <trkpt lat="45.41841" lon="7.03005">
        <ele>2740.8</ele>
        <time>2021-07-23T11:07:32.285Z</time>
      </trkpt>
      <trkpt lat="45.41839" lon="7.03008">
        <ele>2741.2</ele>
        <time>2021-07-23T11:07:33.285Z</time>
      </trkpt>
      <trkpt lat="45.41838" lon="7.0301">
        <ele>2741.6</ele>
        <time>2021-07-23T11:07:34.285Z</time>
      </trkpt>
      <trkpt lat="45.41836" lon="7.03013">
        <ele>2741.6</ele>
        <time>2021-07-23T11:07:35.285Z</time>
      </trkpt>
      <trkpt lat="45.41835" lon="7.03015">
        <ele>2741.6</ele>
        <time>2021-07-23T11:07:36.285Z</time>
      </trkpt>
      <trkpt lat="45.41833" lon="7.03018">
        <ele>2741.6</ele>
        <time>2021-07-23T11:07:37.285Z</time>
      </trkpt>
      <trkpt lat="45.41831" lon="7.0302">
        <ele>2741.6</ele>
        <time>2021-07-23T11:07:38.285Z</time>
      </trkpt>
      <trkpt lat="45.41829" lon="7.03022">
        <ele>2741.6</ele>
        <time>2021-07-23T11:07:39.285Z</time>
      </trkpt>
      <trkpt lat="45.41827" lon="7.03024">
        <ele>2741.6</ele>
        <time>2021-07-23T11:07:40.285Z</time>
      </trkpt>
      <trkpt lat="45.41826" lon="7.03026">
        <ele>2742</ele>
        <time>2021-07-23T11:07:41.285Z</time>
      </trkpt>
      <trkpt lat="45.41824" lon="7.03028">
        <ele>2742.6</ele>
        <time>2021-07-23T11:07:42.285Z</time>
      </trkpt>
      <trkpt lat="45.41823" lon="7.0303">
        <ele>2743</ele>
        <time>2021-07-23T11:07:43.285Z</time>
      </trkpt>
      <trkpt lat="45.41821" lon="7.03031">
        <ele>2743.4</ele>
        <time>2021-07-23T11:07:44.285Z</time>
      </trkpt>
      <trkpt lat="45.41819" lon="7.03033">
        <ele>2743.8</ele>
        <time>2021-07-23T11:07:45.285Z</time>
      </trkpt>
      <trkpt lat="45.41817" lon="7.03035">
        <ele>2743.8</ele>
        <time>2021-07-23T11:07:46.285Z</time>
      </trkpt>
      <trkpt lat="45.41815" lon="7.03036">
        <ele>2743.8</ele>
        <time>2021-07-23T11:07:47.285Z</time>
      </trkpt>
      <trkpt lat="45.41813" lon="7.03038">
        <ele>2743.8</ele>
        <time>2021-07-23T11:07:48.285Z</time>
      </trkpt>
      <trkpt lat="45.4181" lon="7.03039">
        <ele>2743.8</ele>
        <time>2021-07-23T11:07:49.285Z</time>
      </trkpt>
      <trkpt lat="45.41808" lon="7.03041">
        <ele>2743.8</ele>
        <time>2021-07-23T11:07:50.285Z</time>
      </trkpt>
      <trkpt lat="45.41807" lon="7.03042">
        <ele>2744.2</ele>
        <time>2021-07-23T11:07:51.285Z</time>
      </trkpt>
      <trkpt lat="45.41805" lon="7.03043">
        <ele>2744.6</ele>
        <time>2021-07-23T11:07:52.285Z</time>
      </trkpt>
      <trkpt lat="45.41803" lon="7.03043">
        <ele>2745</ele>
        <time>2021-07-23T11:07:53.285Z</time>
      </trkpt>
      <trkpt lat="45.418" lon="7.03043">
        <ele>2745.4</ele>
        <time>2021-07-23T11:07:54.285Z</time>
      </trkpt>
      <trkpt lat="45.41798" lon="7.03044">
        <ele>2745.8</ele>
        <time>2021-07-23T11:07:55.285Z</time>
      </trkpt>
      <trkpt lat="45.41795" lon="7.03045">
        <ele>2745.8</ele>
        <time>2021-07-23T11:07:56.285Z</time>
      </trkpt>
      <trkpt lat="45.41793" lon="7.03045">
        <ele>2745.8</ele>
        <time>2021-07-23T11:07:57.285Z</time>
      </trkpt>
      <trkpt lat="45.4179" lon="7.03046">
        <ele>2745.8</ele>
        <time>2021-07-23T11:07:58.285Z</time>
      </trkpt>
      <trkpt lat="45.41788" lon="7.03046">
        <ele>2745.8</ele>
        <time>2021-07-23T11:07:59.285Z</time>
      </trkpt>
      <trkpt lat="45.41785" lon="7.03047">
        <ele>2746.2</ele>
        <time>2021-07-23T11:08:00.285Z</time>
      </trkpt>
      <trkpt lat="45.41783" lon="7.03048">
        <ele>2746.8</ele>
        <time>2021-07-23T11:08:01.285Z</time>
      </trkpt>
      <trkpt lat="45.4178" lon="7.03049">
        <ele>2747.2</ele>
        <time>2021-07-23T11:08:02.285Z</time>
      </trkpt>
      <trkpt lat="45.41777" lon="7.03049">
        <ele>2748.2</ele>
        <time>2021-07-23T11:08:03.285Z</time>
      </trkpt>
      <trkpt lat="45.41775" lon="7.03049">
        <ele>2748.2</ele>
        <time>2021-07-23T11:08:04.285Z</time>
      </trkpt>
      <trkpt lat="45.41772" lon="7.0305">
        <ele>2748.2</ele>
        <time>2021-07-23T11:08:05.285Z</time>
      </trkpt>
      <trkpt lat="45.41769" lon="7.03051">
        <ele>2748.2</ele>
        <time>2021-07-23T11:08:06.285Z</time>
      </trkpt>
      <trkpt lat="45.41767" lon="7.03052">
        <ele>2748.2</ele>
        <time>2021-07-23T11:08:07.285Z</time>
      </trkpt>
      <trkpt lat="45.41764" lon="7.03052">
        <ele>2748.6</ele>
        <time>2021-07-23T11:08:08.285Z</time>
      </trkpt>
      <trkpt lat="45.41761" lon="7.03053">
        <ele>2749</ele>
        <time>2021-07-23T11:08:09.285Z</time>
      </trkpt>
      <trkpt lat="45.41759" lon="7.03053">
        <ele>2749.4</ele>
        <time>2021-07-23T11:08:10.285Z</time>
      </trkpt>
      <trkpt lat="45.41756" lon="7.03054">
        <ele>2749.8</ele>
        <time>2021-07-23T11:08:11.285Z</time>
      </trkpt>
      <trkpt lat="45.41754" lon="7.03055">
        <ele>2750.2</ele>
        <time>2021-07-23T11:08:12.285Z</time>
      </trkpt>
      <trkpt lat="45.41751" lon="7.03056">
        <ele>2750.2</ele>
        <time>2021-07-23T11:08:13.285Z</time>
      </trkpt>
      <trkpt lat="45.41748" lon="7.03057">
        <ele>2750.2</ele>
        <time>2021-07-23T11:08:14.285Z</time>
      </trkpt>
      <trkpt lat="45.41746" lon="7.03058">
        <ele>2750.2</ele>
        <time>2021-07-23T11:08:15.285Z</time>
      </trkpt>
      <trkpt lat="45.41743" lon="7.03058">
        <ele>2750.6</ele>
        <time>2021-07-23T11:08:16.285Z</time>
      </trkpt>
      <trkpt lat="45.41741" lon="7.03059">
        <ele>2751.2</ele>
        <time>2021-07-23T11:08:17.285Z</time>
      </trkpt>
      <trkpt lat="45.41739" lon="7.0306">
        <ele>2751.6</ele>
        <time>2021-07-23T11:08:18.285Z</time>
      </trkpt>
      <trkpt lat="45.41737" lon="7.0306">
        <ele>2752</ele>
        <time>2021-07-23T11:08:19.285Z</time>
      </trkpt>
      <trkpt lat="45.41735" lon="7.03062">
        <ele>2752.4</ele>
        <time>2021-07-23T11:08:20.285Z</time>
      </trkpt>
      <trkpt lat="45.41733" lon="7.03063">
        <ele>2752.4</ele>
        <time>2021-07-23T11:08:21.285Z</time>
      </trkpt>
      <trkpt lat="45.4173" lon="7.03063">
        <ele>2752.4</ele>
        <time>2021-07-23T11:08:22.285Z</time>
      </trkpt>
      <trkpt lat="45.41728" lon="7.03064">
        <ele>2752.4</ele>
        <time>2021-07-23T11:08:23.285Z</time>
      </trkpt>
      <trkpt lat="45.41726" lon="7.03065">
        <ele>2752.4</ele>
        <time>2021-07-23T11:08:24.285Z</time>
      </trkpt>
      <trkpt lat="45.41723" lon="7.03065">
        <ele>2752.4</ele>
        <time>2021-07-23T11:08:25.285Z</time>
      </trkpt>
      <trkpt lat="45.41721" lon="7.03066">
        <ele>2752.4</ele>
        <time>2021-07-23T11:08:26.285Z</time>
      </trkpt>
      <trkpt lat="45.41719" lon="7.03068">
        <ele>2752.4</ele>
        <time>2021-07-23T11:08:27.285Z</time>
      </trkpt>
      <trkpt lat="45.41717" lon="7.0307">
        <ele>2752.4</ele>
        <time>2021-07-23T11:08:28.285Z</time>
      </trkpt>
      <trkpt lat="45.41716" lon="7.03071">
        <ele>2752.4</ele>
        <time>2021-07-23T11:08:29.285Z</time>
      </trkpt>
      <trkpt lat="45.41715" lon="7.03073">
        <ele>2752.4</ele>
        <time>2021-07-23T11:08:30.285Z</time>
      </trkpt>
      <trkpt lat="45.41714" lon="7.03074">
        <ele>2752.4</ele>
        <time>2021-07-23T11:08:31.285Z</time>
      </trkpt>
      <trkpt lat="45.41714" lon="7.03074">
        <ele>2752.8</ele>
        <time>2021-07-23T11:08:32.285Z</time>
      </trkpt>
      <trkpt lat="45.41732" lon="7.03056">
        <ele>2762.8</ele>
        <time>2021-07-23T11:08:33.285Z</time>
      </trkpt>
      <trkpt lat="45.41734" lon="7.03057">
        <ele>2762.8</ele>
        <time>2021-07-23T11:08:34.285Z</time>
      </trkpt>
      <trkpt lat="45.41736" lon="7.03058">
        <ele>2762.8</ele>
        <time>2021-07-23T11:08:35.285Z</time>
      </trkpt>
      <trkpt lat="45.41739" lon="7.03058">
        <ele>2762.8</ele>
        <time>2021-07-23T11:08:36.285Z</time>
      </trkpt>
      <trkpt lat="45.41742" lon="7.03058">
        <ele>2762.8</ele>
        <time>2021-07-23T11:08:37.285Z</time>
      </trkpt>
      <trkpt lat="45.41746" lon="7.03057">
        <ele>2762.8</ele>
        <time>2021-07-23T11:08:38.285Z</time>
      </trkpt>
      <trkpt lat="45.4175" lon="7.03056">
        <ele>2762.8</ele>
        <time>2021-07-23T11:08:39.285Z</time>
      </trkpt>
      <trkpt lat="45.41755" lon="7.03055">
        <ele>2762.8</ele>
        <time>2021-07-23T11:08:40.285Z</time>
      </trkpt>
      <trkpt lat="45.4176" lon="7.03053">
        <ele>2762.8</ele>
        <time>2021-07-23T11:08:41.285Z</time>
      </trkpt>
      <trkpt lat="45.41766" lon="7.03052">
        <ele>2762.8</ele>
        <time>2021-07-23T11:08:42.285Z</time>
      </trkpt>
      <trkpt lat="45.41773" lon="7.03051">
        <ele>2762.8</ele>
        <time>2021-07-23T11:08:43.285Z</time>
      </trkpt>
    </trkseg>
  </trk>
</gpx>